<?xml version="1.0" encoding="UTF-8"?>
<gpx version="1.1" creator="https://www.youtrack.es" xsi:schemaLocation="http://www.topografix.com/GPX/1/1 http://www.topografix.com/GPX/1/1/gpx.xsd http://www.garmin.com/xmlschemas/GpxExtensions/v3 http://www.garmin.com/xmlschemas/GpxExtensionsv3.xsd http://www.garmin.com/xmlschemas/TrackPointExtension/v1 http://www.garmin.com/xmlschemas/TrackPointExtensionv1.xsd" xmlns:gpxtpx="http://www.garmin.com/xmlschemas/TrackPointExtension/v1" xmlns:gpxx="http://www.garmin.com/xmlschemas/GpxExtensions/v3" xmlns:xsi="http://www.w3.org/2001/XMLSchema-instance">
  <metadata>
    <link href="https://www.youtrack.es">
      <text>YouTrack.es</text>
    </link>
    <time>2026-05-08T22:47:00Z</time>
  </metadata>
  <trk>
    <src>https://www.youtrack.es</src>
    <link href="https://www.youtrack.es/ruta/33310-cyt-19-6-22">
      <text>YouTrack.es</text>
    </link>
    <trkseg>
      <trkpt lat="40.671194" lon="-4.085906">
        <ele>952.30</ele>
        <time>2022-06-19T05:19:02+00:00</time>
      </trkpt>
      <trkpt lat="40.671194" lon="-4.085884">
        <ele>956.15</ele>
        <time>2022-06-19T05:19:10+00:00</time>
      </trkpt>
      <trkpt lat="40.671623" lon="-4.085648">
        <ele>955.67</ele>
        <time>2022-06-19T05:19:15+00:00</time>
      </trkpt>
      <trkpt lat="40.672696" lon="-4.084854">
        <ele>959.99</ele>
        <time>2022-06-19T05:19:21+00:00</time>
      </trkpt>
      <trkpt lat="40.673662" lon="-4.084296">
        <ele>962.88</ele>
        <time>2022-06-19T05:19:28+00:00</time>
      </trkpt>
      <trkpt lat="40.673748" lon="-4.084210">
        <ele>963.36</ele>
        <time>2022-06-19T05:19:29+00:00</time>
      </trkpt>
      <trkpt lat="40.673855" lon="-4.084146">
        <ele>963.36</ele>
        <time>2022-06-19T05:19:30+00:00</time>
      </trkpt>
      <trkpt lat="40.673876" lon="-4.084017">
        <ele>963.84</ele>
        <time>2022-06-19T05:19:31+00:00</time>
      </trkpt>
      <trkpt lat="40.673941" lon="-4.083953">
        <ele>964.32</ele>
        <time>2022-06-19T05:19:32+00:00</time>
      </trkpt>
      <trkpt lat="40.674005" lon="-4.083974">
        <ele>964.32</ele>
        <time>2022-06-19T05:19:33+00:00</time>
      </trkpt>
      <trkpt lat="40.674134" lon="-4.084060">
        <ele>964.32</ele>
        <time>2022-06-19T05:19:34+00:00</time>
      </trkpt>
      <trkpt lat="40.674263" lon="-4.084039">
        <ele>964.32</ele>
        <time>2022-06-19T05:19:35+00:00</time>
      </trkpt>
      <trkpt lat="40.674391" lon="-4.083996">
        <ele>964.32</ele>
        <time>2022-06-19T05:19:36+00:00</time>
      </trkpt>
      <trkpt lat="40.674541" lon="-4.083931">
        <ele>964.80</ele>
        <time>2022-06-19T05:19:37+00:00</time>
      </trkpt>
      <trkpt lat="40.674692" lon="-4.083867">
        <ele>964.80</ele>
        <time>2022-06-19T05:19:38+00:00</time>
      </trkpt>
      <trkpt lat="40.674842" lon="-4.083781">
        <ele>965.28</ele>
        <time>2022-06-19T05:19:39+00:00</time>
      </trkpt>
      <trkpt lat="40.674992" lon="-4.083653">
        <ele>965.28</ele>
        <time>2022-06-19T05:19:40+00:00</time>
      </trkpt>
      <trkpt lat="40.675164" lon="-4.083481">
        <ele>965.76</ele>
        <time>2022-06-19T05:19:41+00:00</time>
      </trkpt>
      <trkpt lat="40.675571" lon="-4.083073">
        <ele>967.20</ele>
        <time>2022-06-19T05:19:44+00:00</time>
      </trkpt>
      <trkpt lat="40.675679" lon="-4.082773">
        <ele>966.72</ele>
        <time>2022-06-19T05:19:45+00:00</time>
      </trkpt>
      <trkpt lat="40.675722" lon="-4.082580">
        <ele>966.72</ele>
        <time>2022-06-19T05:19:46+00:00</time>
      </trkpt>
      <trkpt lat="40.675743" lon="-4.082301">
        <ele>966.72</ele>
        <time>2022-06-19T05:19:47+00:00</time>
      </trkpt>
      <trkpt lat="40.675786" lon="-4.082043">
        <ele>966.24</ele>
        <time>2022-06-19T05:19:48+00:00</time>
      </trkpt>
      <trkpt lat="40.675915" lon="-4.081528">
        <ele>967.20</ele>
        <time>2022-06-19T05:19:50+00:00</time>
      </trkpt>
      <trkpt lat="40.675979" lon="-4.081314">
        <ele>967.20</ele>
        <time>2022-06-19T05:19:51+00:00</time>
      </trkpt>
      <trkpt lat="40.676044" lon="-4.081142">
        <ele>967.20</ele>
        <time>2022-06-19T05:19:52+00:00</time>
      </trkpt>
      <trkpt lat="40.676666" lon="-4.079747">
        <ele>961.92</ele>
        <time>2022-06-19T05:20:00+00:00</time>
      </trkpt>
      <trkpt lat="40.677181" lon="-4.078631">
        <ele>960.48</ele>
        <time>2022-06-19T05:20:06+00:00</time>
      </trkpt>
      <trkpt lat="40.677932" lon="-4.077001">
        <ele>959.51</ele>
        <time>2022-06-19T05:20:13+00:00</time>
      </trkpt>
      <trkpt lat="40.678533" lon="-4.075692">
        <ele>957.11</ele>
        <time>2022-06-19T05:20:21+00:00</time>
      </trkpt>
      <trkpt lat="40.679133" lon="-4.074383">
        <ele>953.75</ele>
        <time>2022-06-19T05:20:27+00:00</time>
      </trkpt>
      <trkpt lat="40.680142" lon="-4.072130">
        <ele>950.86</ele>
        <time>2022-06-19T05:20:35+00:00</time>
      </trkpt>
      <trkpt lat="40.681837" lon="-4.068396">
        <ele>950.86</ele>
        <time>2022-06-19T05:20:47+00:00</time>
      </trkpt>
      <trkpt lat="40.683682" lon="-4.064319">
        <ele>955.67</ele>
        <time>2022-06-19T05:21:00+00:00</time>
      </trkpt>
      <trkpt lat="40.686000" lon="-4.059255">
        <ele>968.65</ele>
        <time>2022-06-19T05:21:16+00:00</time>
      </trkpt>
      <trkpt lat="40.688661" lon="-4.053397">
        <ele>977.30</ele>
        <time>2022-06-19T05:21:34+00:00</time>
      </trkpt>
      <trkpt lat="40.689884" lon="-4.050651">
        <ele>982.59</ele>
        <time>2022-06-19T05:21:43+00:00</time>
      </trkpt>
      <trkpt lat="40.690399" lon="-4.049578">
        <ele>985.47</ele>
        <time>2022-06-19T05:21:47+00:00</time>
      </trkpt>
      <trkpt lat="40.690570" lon="-4.049385">
        <ele>985.95</ele>
        <time>2022-06-19T05:21:48+00:00</time>
      </trkpt>
      <trkpt lat="40.690763" lon="-4.049170">
        <ele>986.91</ele>
        <time>2022-06-19T05:21:49+00:00</time>
      </trkpt>
      <trkpt lat="40.691751" lon="-4.048076">
        <ele>994.60</ele>
        <time>2022-06-19T05:21:55+00:00</time>
      </trkpt>
      <trkpt lat="40.691836" lon="-4.047926">
        <ele>996.04</ele>
        <time>2022-06-19T05:21:56+00:00</time>
      </trkpt>
      <trkpt lat="40.691901" lon="-4.047797">
        <ele>997.49</ele>
        <time>2022-06-19T05:21:57+00:00</time>
      </trkpt>
      <trkpt lat="40.691944" lon="-4.047647">
        <ele>999.41</ele>
        <time>2022-06-19T05:21:58+00:00</time>
      </trkpt>
      <trkpt lat="40.691922" lon="-4.047475">
        <ele>1000.85</ele>
        <time>2022-06-19T05:21:59+00:00</time>
      </trkpt>
      <trkpt lat="40.691901" lon="-4.047260">
        <ele>1001.81</ele>
        <time>2022-06-19T05:22:00+00:00</time>
      </trkpt>
      <trkpt lat="40.691836" lon="-4.047046">
        <ele>1003.25</ele>
        <time>2022-06-19T05:22:01+00:00</time>
      </trkpt>
      <trkpt lat="40.691772" lon="-4.046810">
        <ele>1004.22</ele>
        <time>2022-06-19T05:22:02+00:00</time>
      </trkpt>
      <trkpt lat="40.691686" lon="-4.046145">
        <ele>1007.58</ele>
        <time>2022-06-19T05:22:05+00:00</time>
      </trkpt>
      <trkpt lat="40.691686" lon="-4.045994">
        <ele>1008.54</ele>
        <time>2022-06-19T05:22:06+00:00</time>
      </trkpt>
      <trkpt lat="40.691686" lon="-4.045866">
        <ele>1009.50</ele>
        <time>2022-06-19T05:22:07+00:00</time>
      </trkpt>
      <trkpt lat="40.691729" lon="-4.045394">
        <ele>1012.39</ele>
        <time>2022-06-19T05:22:13+00:00</time>
      </trkpt>
      <trkpt lat="40.691836" lon="-4.044471">
        <ele>1015.27</ele>
        <time>2022-06-19T05:22:18+00:00</time>
      </trkpt>
      <trkpt lat="40.692051" lon="-4.042325">
        <ele>1019.12</ele>
        <time>2022-06-19T05:22:27+00:00</time>
      </trkpt>
      <trkpt lat="40.692158" lon="-4.041081">
        <ele>1018.15</ele>
        <time>2022-06-19T05:22:33+00:00</time>
      </trkpt>
      <trkpt lat="40.692180" lon="-4.040866">
        <ele>1017.67</ele>
        <time>2022-06-19T05:22:34+00:00</time>
      </trkpt>
      <trkpt lat="40.692609" lon="-4.038956">
        <ele>1014.79</ele>
        <time>2022-06-19T05:22:43+00:00</time>
      </trkpt>
      <trkpt lat="40.692738" lon="-4.038034">
        <ele>1013.83</ele>
        <time>2022-06-19T05:22:47+00:00</time>
      </trkpt>
      <trkpt lat="40.692716" lon="-4.037776">
        <ele>1013.35</ele>
        <time>2022-06-19T05:22:48+00:00</time>
      </trkpt>
      <trkpt lat="40.692673" lon="-4.037519">
        <ele>1012.39</ele>
        <time>2022-06-19T05:22:49+00:00</time>
      </trkpt>
      <trkpt lat="40.692544" lon="-4.036596">
        <ele>1009.50</ele>
        <time>2022-06-19T05:22:54+00:00</time>
      </trkpt>
      <trkpt lat="40.692523" lon="-4.036360">
        <ele>1007.58</ele>
        <time>2022-06-19T05:22:59+00:00</time>
      </trkpt>
      <trkpt lat="40.692502" lon="-4.036167">
        <ele>1006.62</ele>
        <time>2022-06-19T05:23:06+00:00</time>
      </trkpt>
      <trkpt lat="40.692330" lon="-4.035137">
        <ele>1005.18</ele>
        <time>2022-06-19T05:23:11+00:00</time>
      </trkpt>
      <trkpt lat="40.692115" lon="-4.033399">
        <ele>1003.73</ele>
        <time>2022-06-19T05:23:17+00:00</time>
      </trkpt>
      <trkpt lat="40.691922" lon="-4.031811">
        <ele>1002.77</ele>
        <time>2022-06-19T05:23:23+00:00</time>
      </trkpt>
      <trkpt lat="40.691729" lon="-4.029858">
        <ele>1003.25</ele>
        <time>2022-06-19T05:23:30+00:00</time>
      </trkpt>
      <trkpt lat="40.691622" lon="-4.028657">
        <ele>1005.18</ele>
        <time>2022-06-19T05:23:35+00:00</time>
      </trkpt>
      <trkpt lat="40.691600" lon="-4.028442">
        <ele>1005.66</ele>
        <time>2022-06-19T05:23:36+00:00</time>
      </trkpt>
      <trkpt lat="40.691643" lon="-4.028249">
        <ele>1006.14</ele>
        <time>2022-06-19T05:23:37+00:00</time>
      </trkpt>
      <trkpt lat="40.691708" lon="-4.028056">
        <ele>1006.62</ele>
        <time>2022-06-19T05:23:38+00:00</time>
      </trkpt>
      <trkpt lat="40.691772" lon="-4.027863">
        <ele>1007.10</ele>
        <time>2022-06-19T05:23:39+00:00</time>
      </trkpt>
      <trkpt lat="40.691879" lon="-4.027691">
        <ele>1007.58</ele>
        <time>2022-06-19T05:23:40+00:00</time>
      </trkpt>
      <trkpt lat="40.691987" lon="-4.027519">
        <ele>1008.06</ele>
        <time>2022-06-19T05:23:41+00:00</time>
      </trkpt>
      <trkpt lat="40.692115" lon="-4.027348">
        <ele>1008.54</ele>
        <time>2022-06-19T05:23:42+00:00</time>
      </trkpt>
      <trkpt lat="40.692695" lon="-4.026597">
        <ele>1011.43</ele>
        <time>2022-06-19T05:23:47+00:00</time>
      </trkpt>
      <trkpt lat="40.692780" lon="-4.026446">
        <ele>1012.39</ele>
        <time>2022-06-19T05:23:48+00:00</time>
      </trkpt>
      <trkpt lat="40.692845" lon="-4.026296">
        <ele>1012.87</ele>
        <time>2022-06-19T05:23:49+00:00</time>
      </trkpt>
      <trkpt lat="40.693403" lon="-4.024386">
        <ele>1019.60</ele>
        <time>2022-06-19T05:23:59+00:00</time>
      </trkpt>
      <trkpt lat="40.693746" lon="-4.023314">
        <ele>1022.96</ele>
        <time>2022-06-19T05:24:06+00:00</time>
      </trkpt>
      <trkpt lat="40.693746" lon="-4.023206">
        <ele>1023.44</ele>
        <time>2022-06-19T05:24:07+00:00</time>
      </trkpt>
      <trkpt lat="40.693768" lon="-4.023249">
        <ele>1022.96</ele>
        <time>2022-06-19T05:24:08+00:00</time>
      </trkpt>
      <trkpt lat="40.693768" lon="-4.023078">
        <ele>1023.44</ele>
        <time>2022-06-19T05:24:09+00:00</time>
      </trkpt>
      <trkpt lat="40.693853" lon="-4.023120">
        <ele>1023.44</ele>
        <time>2022-06-19T05:24:10+00:00</time>
      </trkpt>
      <trkpt lat="40.693939" lon="-4.023078">
        <ele>1023.92</ele>
        <time>2022-06-19T05:24:11+00:00</time>
      </trkpt>
      <trkpt lat="40.693982" lon="-4.023013">
        <ele>1023.92</ele>
        <time>2022-06-19T05:24:12+00:00</time>
      </trkpt>
      <trkpt lat="40.694046" lon="-4.022927">
        <ele>1024.88</ele>
        <time>2022-06-19T05:24:13+00:00</time>
      </trkpt>
      <trkpt lat="40.694089" lon="-4.022842">
        <ele>1025.36</ele>
        <time>2022-06-19T05:24:14+00:00</time>
      </trkpt>
      <trkpt lat="40.694132" lon="-4.022756">
        <ele>1026.33</ele>
        <time>2022-06-19T05:24:15+00:00</time>
      </trkpt>
      <trkpt lat="40.694197" lon="-4.022627">
        <ele>1026.81</ele>
        <time>2022-06-19T05:24:16+00:00</time>
      </trkpt>
      <trkpt lat="40.694240" lon="-4.022520">
        <ele>1027.29</ele>
        <time>2022-06-19T05:24:17+00:00</time>
      </trkpt>
      <trkpt lat="40.694755" lon="-4.021318">
        <ele>1031.61</ele>
        <time>2022-06-19T05:24:26+00:00</time>
      </trkpt>
      <trkpt lat="40.695076" lon="-4.020503">
        <ele>1034.98</ele>
        <time>2022-06-19T05:24:33+00:00</time>
      </trkpt>
      <trkpt lat="40.695098" lon="-4.020374">
        <ele>1035.46</ele>
        <time>2022-06-19T05:24:34+00:00</time>
      </trkpt>
      <trkpt lat="40.695205" lon="-4.019816">
        <ele>1036.90</ele>
        <time>2022-06-19T05:24:38+00:00</time>
      </trkpt>
      <trkpt lat="40.695248" lon="-4.019687">
        <ele>1036.90</ele>
        <time>2022-06-19T05:24:39+00:00</time>
      </trkpt>
      <trkpt lat="40.695677" lon="-4.018872">
        <ele>1040.74</ele>
        <time>2022-06-19T05:24:46+00:00</time>
      </trkpt>
      <trkpt lat="40.696149" lon="-4.017692">
        <ele>1043.15</ele>
        <time>2022-06-19T05:24:53+00:00</time>
      </trkpt>
      <trkpt lat="40.696686" lon="-4.016361">
        <ele>1045.55</ele>
        <time>2022-06-19T05:24:58+00:00</time>
      </trkpt>
      <trkpt lat="40.697651" lon="-4.013894">
        <ele>1052.76</ele>
        <time>2022-06-19T05:25:06+00:00</time>
      </trkpt>
      <trkpt lat="40.698488" lon="-4.011662">
        <ele>1065.26</ele>
        <time>2022-06-19T05:25:14+00:00</time>
      </trkpt>
      <trkpt lat="40.698531" lon="-4.011383">
        <ele>1067.18</ele>
        <time>2022-06-19T05:25:15+00:00</time>
      </trkpt>
      <trkpt lat="40.698832" lon="-4.010203">
        <ele>1076.31</ele>
        <time>2022-06-19T05:25:20+00:00</time>
      </trkpt>
      <trkpt lat="40.698939" lon="-4.010010">
        <ele>1078.24</ele>
        <time>2022-06-19T05:25:21+00:00</time>
      </trkpt>
      <trkpt lat="40.699561" lon="-4.008980">
        <ele>1085.93</ele>
        <time>2022-06-19T05:25:26+00:00</time>
      </trkpt>
      <trkpt lat="40.699733" lon="-4.008787">
        <ele>1087.37</ele>
        <time>2022-06-19T05:25:27+00:00</time>
      </trkpt>
      <trkpt lat="40.700913" lon="-4.007349">
        <ele>1095.54</ele>
        <time>2022-06-19T05:25:34+00:00</time>
      </trkpt>
      <trkpt lat="40.702372" lon="-4.005203">
        <ele>1101.79</ele>
        <time>2022-06-19T05:25:44+00:00</time>
      </trkpt>
      <trkpt lat="40.702479" lon="-4.005010">
        <ele>1102.27</ele>
        <time>2022-06-19T05:25:45+00:00</time>
      </trkpt>
      <trkpt lat="40.702565" lon="-4.004796">
        <ele>1102.75</ele>
        <time>2022-06-19T05:25:46+00:00</time>
      </trkpt>
      <trkpt lat="40.702630" lon="-4.004581">
        <ele>1102.75</ele>
        <time>2022-06-19T05:25:47+00:00</time>
      </trkpt>
      <trkpt lat="40.702715" lon="-4.004345">
        <ele>1102.75</ele>
        <time>2022-06-19T05:25:48+00:00</time>
      </trkpt>
      <trkpt lat="40.702758" lon="-4.004087">
        <ele>1102.75</ele>
        <time>2022-06-19T05:25:49+00:00</time>
      </trkpt>
      <trkpt lat="40.703316" lon="-4.002349">
        <ele>1103.71</ele>
        <time>2022-06-19T05:25:56+00:00</time>
      </trkpt>
      <trkpt lat="40.704325" lon="-4.000568">
        <ele>1102.75</ele>
        <time>2022-06-19T05:26:04+00:00</time>
      </trkpt>
      <trkpt lat="40.704647" lon="-4.000032">
        <ele>1101.79</ele>
        <time>2022-06-19T05:26:07+00:00</time>
      </trkpt>
      <trkpt lat="40.705355" lon="-3.998487">
        <ele>1097.94</ele>
        <time>2022-06-19T05:26:14+00:00</time>
      </trkpt>
      <trkpt lat="40.706492" lon="-3.995955">
        <ele>1091.69</ele>
        <time>2022-06-19T05:26:24+00:00</time>
      </trkpt>
      <trkpt lat="40.707028" lon="-3.994517">
        <ele>1087.37</ele>
        <time>2022-06-19T05:26:31+00:00</time>
      </trkpt>
      <trkpt lat="40.707694" lon="-3.992672">
        <ele>1080.64</ele>
        <time>2022-06-19T05:26:41+00:00</time>
      </trkpt>
      <trkpt lat="40.708101" lon="-3.991234">
        <ele>1077.28</ele>
        <time>2022-06-19T05:26:47+00:00</time>
      </trkpt>
      <trkpt lat="40.708359" lon="-3.989561">
        <ele>1071.51</ele>
        <time>2022-06-19T05:26:54+00:00</time>
      </trkpt>
      <trkpt lat="40.708402" lon="-3.989046">
        <ele>1069.58</ele>
        <time>2022-06-19T05:26:57+00:00</time>
      </trkpt>
      <trkpt lat="40.708380" lon="-3.988831">
        <ele>1069.10</ele>
        <time>2022-06-19T05:26:58+00:00</time>
      </trkpt>
      <trkpt lat="40.708316" lon="-3.988166">
        <ele>1067.18</ele>
        <time>2022-06-19T05:27:01+00:00</time>
      </trkpt>
      <trkpt lat="40.708337" lon="-3.988016">
        <ele>1066.70</ele>
        <time>2022-06-19T05:27:02+00:00</time>
      </trkpt>
      <trkpt lat="40.708380" lon="-3.987844">
        <ele>1066.22</ele>
        <time>2022-06-19T05:27:03+00:00</time>
      </trkpt>
      <trkpt lat="40.708466" lon="-3.987672">
        <ele>1065.74</ele>
        <time>2022-06-19T05:27:04+00:00</time>
      </trkpt>
      <trkpt lat="40.708530" lon="-3.987522">
        <ele>1065.26</ele>
        <time>2022-06-19T05:27:05+00:00</time>
      </trkpt>
      <trkpt lat="40.708595" lon="-3.987372">
        <ele>1064.78</ele>
        <time>2022-06-19T05:27:06+00:00</time>
      </trkpt>
      <trkpt lat="40.708638" lon="-3.987222">
        <ele>1063.82</ele>
        <time>2022-06-19T05:27:07+00:00</time>
      </trkpt>
      <trkpt lat="40.708659" lon="-3.987029">
        <ele>1063.34</ele>
        <time>2022-06-19T05:27:08+00:00</time>
      </trkpt>
      <trkpt lat="40.708638" lon="-3.986836">
        <ele>1062.37</ele>
        <time>2022-06-19T05:27:09+00:00</time>
      </trkpt>
      <trkpt lat="40.708638" lon="-3.986621">
        <ele>1061.89</ele>
        <time>2022-06-19T05:27:10+00:00</time>
      </trkpt>
      <trkpt lat="40.708595" lon="-3.986385">
        <ele>1061.41</ele>
        <time>2022-06-19T05:27:11+00:00</time>
      </trkpt>
      <trkpt lat="40.708530" lon="-3.986149">
        <ele>1060.45</ele>
        <time>2022-06-19T05:27:12+00:00</time>
      </trkpt>
      <trkpt lat="40.708294" lon="-3.985076">
        <ele>1057.09</ele>
        <time>2022-06-19T05:27:17+00:00</time>
      </trkpt>
      <trkpt lat="40.708166" lon="-3.984540">
        <ele>1054.68</ele>
        <time>2022-06-19T05:27:19+00:00</time>
      </trkpt>
      <trkpt lat="40.708101" lon="-3.984261">
        <ele>1053.72</ele>
        <time>2022-06-19T05:27:20+00:00</time>
      </trkpt>
      <trkpt lat="40.707822" lon="-3.982737">
        <ele>1046.51</ele>
        <time>2022-06-19T05:27:26+00:00</time>
      </trkpt>
      <trkpt lat="40.707779" lon="-3.982201">
        <ele>1044.11</ele>
        <time>2022-06-19T05:27:29+00:00</time>
      </trkpt>
      <trkpt lat="40.707779" lon="-3.982008">
        <ele>1043.63</ele>
        <time>2022-06-19T05:27:30+00:00</time>
      </trkpt>
      <trkpt lat="40.707822" lon="-3.980227">
        <ele>1039.30</ele>
        <time>2022-06-19T05:27:38+00:00</time>
      </trkpt>
      <trkpt lat="40.708058" lon="-3.978081">
        <ele>1035.46</ele>
        <time>2022-06-19T05:27:45+00:00</time>
      </trkpt>
      <trkpt lat="40.708230" lon="-3.976193">
        <ele>1030.65</ele>
        <time>2022-06-19T05:27:51+00:00</time>
      </trkpt>
      <trkpt lat="40.708166" lon="-3.975892">
        <ele>1029.69</ele>
        <time>2022-06-19T05:27:52+00:00</time>
      </trkpt>
      <trkpt lat="40.708123" lon="-3.975592">
        <ele>1029.21</ele>
        <time>2022-06-19T05:27:53+00:00</time>
      </trkpt>
      <trkpt lat="40.707415" lon="-3.972995">
        <ele>1023.92</ele>
        <time>2022-06-19T05:28:01+00:00</time>
      </trkpt>
      <trkpt lat="40.706771" lon="-3.970614">
        <ele>1019.60</ele>
        <time>2022-06-19T05:28:09+00:00</time>
      </trkpt>
      <trkpt lat="40.706685" lon="-3.970077">
        <ele>1019.12</ele>
        <time>2022-06-19T05:28:11+00:00</time>
      </trkpt>
      <trkpt lat="40.706664" lon="-3.969798">
        <ele>1018.15</ele>
        <time>2022-06-19T05:28:12+00:00</time>
      </trkpt>
      <trkpt lat="40.706728" lon="-3.967395">
        <ele>1013.83</ele>
        <time>2022-06-19T05:28:19+00:00</time>
      </trkpt>
      <trkpt lat="40.707028" lon="-3.962073">
        <ele>1000.85</ele>
        <time>2022-06-19T05:28:33+00:00</time>
      </trkpt>
      <trkpt lat="40.707222" lon="-3.958898">
        <ele>993.64</ele>
        <time>2022-06-19T05:28:42+00:00</time>
      </trkpt>
      <trkpt lat="40.707136" lon="-3.957567">
        <ele>989.80</ele>
        <time>2022-06-19T05:28:47+00:00</time>
      </trkpt>
      <trkpt lat="40.707050" lon="-3.957353">
        <ele>989.31</ele>
        <time>2022-06-19T05:28:48+00:00</time>
      </trkpt>
      <trkpt lat="40.706964" lon="-3.957117">
        <ele>988.83</ele>
        <time>2022-06-19T05:28:49+00:00</time>
      </trkpt>
      <trkpt lat="40.706835" lon="-3.956902">
        <ele>988.35</ele>
        <time>2022-06-19T05:28:50+00:00</time>
      </trkpt>
      <trkpt lat="40.706664" lon="-3.956709">
        <ele>987.39</ele>
        <time>2022-06-19T05:28:51+00:00</time>
      </trkpt>
      <trkpt lat="40.706513" lon="-3.956516">
        <ele>986.91</ele>
        <time>2022-06-19T05:28:52+00:00</time>
      </trkpt>
      <trkpt lat="40.706385" lon="-3.956366">
        <ele>985.95</ele>
        <time>2022-06-19T05:28:53+00:00</time>
      </trkpt>
      <trkpt lat="40.706149" lon="-3.956065">
        <ele>984.99</ele>
        <time>2022-06-19T05:28:55+00:00</time>
      </trkpt>
      <trkpt lat="40.706106" lon="-3.955894">
        <ele>984.51</ele>
        <time>2022-06-19T05:28:56+00:00</time>
      </trkpt>
      <trkpt lat="40.706063" lon="-3.955700">
        <ele>984.03</ele>
        <time>2022-06-19T05:28:57+00:00</time>
      </trkpt>
      <trkpt lat="40.706063" lon="-3.955486">
        <ele>983.07</ele>
        <time>2022-06-19T05:28:58+00:00</time>
      </trkpt>
      <trkpt lat="40.706063" lon="-3.955314">
        <ele>982.59</ele>
        <time>2022-06-19T05:28:59+00:00</time>
      </trkpt>
      <trkpt lat="40.706063" lon="-3.955143">
        <ele>982.59</ele>
        <time>2022-06-19T05:29:00+00:00</time>
      </trkpt>
      <trkpt lat="40.706063" lon="-3.954971">
        <ele>982.11</ele>
        <time>2022-06-19T05:29:01+00:00</time>
      </trkpt>
      <trkpt lat="40.705891" lon="-3.953705">
        <ele>980.18</ele>
        <time>2022-06-19T05:29:06+00:00</time>
      </trkpt>
      <trkpt lat="40.705505" lon="-3.951688">
        <ele>977.30</ele>
        <time>2022-06-19T05:29:12+00:00</time>
      </trkpt>
      <trkpt lat="40.705033" lon="-3.948834">
        <ele>973.45</ele>
        <time>2022-06-19T05:29:20+00:00</time>
      </trkpt>
      <trkpt lat="40.704754" lon="-3.947611">
        <ele>972.01</ele>
        <time>2022-06-19T05:29:24+00:00</time>
      </trkpt>
      <trkpt lat="40.704625" lon="-3.947310">
        <ele>971.53</ele>
        <time>2022-06-19T05:29:25+00:00</time>
      </trkpt>
      <trkpt lat="40.703445" lon="-3.945057">
        <ele>967.20</ele>
        <time>2022-06-19T05:29:33+00:00</time>
      </trkpt>
      <trkpt lat="40.702479" lon="-3.943791">
        <ele>963.36</ele>
        <time>2022-06-19T05:29:39+00:00</time>
      </trkpt>
      <trkpt lat="40.702351" lon="-3.943663">
        <ele>962.88</ele>
        <time>2022-06-19T05:29:40+00:00</time>
      </trkpt>
      <trkpt lat="40.702265" lon="-3.943534">
        <ele>962.40</ele>
        <time>2022-06-19T05:29:41+00:00</time>
      </trkpt>
      <trkpt lat="40.701900" lon="-3.943598">
        <ele>961.44</ele>
        <time>2022-06-19T05:29:43+00:00</time>
      </trkpt>
      <trkpt lat="40.701793" lon="-3.943534">
        <ele>960.96</ele>
        <time>2022-06-19T05:29:44+00:00</time>
      </trkpt>
      <trkpt lat="40.701728" lon="-3.943341">
        <ele>960.48</ele>
        <time>2022-06-19T05:29:45+00:00</time>
      </trkpt>
      <trkpt lat="40.701707" lon="-3.943148">
        <ele>960.48</ele>
        <time>2022-06-19T05:29:46+00:00</time>
      </trkpt>
      <trkpt lat="40.701664" lon="-3.942912">
        <ele>959.99</ele>
        <time>2022-06-19T05:29:47+00:00</time>
      </trkpt>
      <trkpt lat="40.701621" lon="-3.942654">
        <ele>959.99</ele>
        <time>2022-06-19T05:29:48+00:00</time>
      </trkpt>
      <trkpt lat="40.701492" lon="-3.942375">
        <ele>959.99</ele>
        <time>2022-06-19T05:29:49+00:00</time>
      </trkpt>
      <trkpt lat="40.701342" lon="-3.942182">
        <ele>959.99</ele>
        <time>2022-06-19T05:29:50+00:00</time>
      </trkpt>
      <trkpt lat="40.701170" lon="-3.941968">
        <ele>959.51</ele>
        <time>2022-06-19T05:29:51+00:00</time>
      </trkpt>
      <trkpt lat="40.701042" lon="-3.941753">
        <ele>959.51</ele>
        <time>2022-06-19T05:29:52+00:00</time>
      </trkpt>
      <trkpt lat="40.700784" lon="-3.941324">
        <ele>959.51</ele>
        <time>2022-06-19T05:29:54+00:00</time>
      </trkpt>
      <trkpt lat="40.700698" lon="-3.941088">
        <ele>959.51</ele>
        <time>2022-06-19T05:29:55+00:00</time>
      </trkpt>
      <trkpt lat="40.700655" lon="-3.940809">
        <ele>959.03</ele>
        <time>2022-06-19T05:29:56+00:00</time>
      </trkpt>
      <trkpt lat="40.700634" lon="-3.940508">
        <ele>959.03</ele>
        <time>2022-06-19T05:29:57+00:00</time>
      </trkpt>
      <trkpt lat="40.700591" lon="-3.940208">
        <ele>959.03</ele>
        <time>2022-06-19T05:29:58+00:00</time>
      </trkpt>
      <trkpt lat="40.700377" lon="-3.938234">
        <ele>955.67</ele>
        <time>2022-06-19T05:30:05+00:00</time>
      </trkpt>
      <trkpt lat="40.700119" lon="-3.937376">
        <ele>952.79</ele>
        <time>2022-06-19T05:30:10+00:00</time>
      </trkpt>
      <trkpt lat="40.700076" lon="-3.937182">
        <ele>952.79</ele>
        <time>2022-06-19T05:30:11+00:00</time>
      </trkpt>
      <trkpt lat="40.700119" lon="-3.936989">
        <ele>952.30</ele>
        <time>2022-06-19T05:30:12+00:00</time>
      </trkpt>
      <trkpt lat="40.700119" lon="-3.936753">
        <ele>951.82</ele>
        <time>2022-06-19T05:30:13+00:00</time>
      </trkpt>
      <trkpt lat="40.700076" lon="-3.936560">
        <ele>952.30</ele>
        <time>2022-06-19T05:30:14+00:00</time>
      </trkpt>
      <trkpt lat="40.700033" lon="-3.936346">
        <ele>952.30</ele>
        <time>2022-06-19T05:30:15+00:00</time>
      </trkpt>
      <trkpt lat="40.699990" lon="-3.936088">
        <ele>951.82</ele>
        <time>2022-06-19T05:30:16+00:00</time>
      </trkpt>
      <trkpt lat="40.699947" lon="-3.935852">
        <ele>951.82</ele>
        <time>2022-06-19T05:30:17+00:00</time>
      </trkpt>
      <trkpt lat="40.699926" lon="-3.935573">
        <ele>951.34</ele>
        <time>2022-06-19T05:30:18+00:00</time>
      </trkpt>
      <trkpt lat="40.699926" lon="-3.935273">
        <ele>950.86</ele>
        <time>2022-06-19T05:30:19+00:00</time>
      </trkpt>
      <trkpt lat="40.699904" lon="-3.934007">
        <ele>948.46</ele>
        <time>2022-06-19T05:30:23+00:00</time>
      </trkpt>
      <trkpt lat="40.699862" lon="-3.933663">
        <ele>947.98</ele>
        <time>2022-06-19T05:30:24+00:00</time>
      </trkpt>
      <trkpt lat="40.699561" lon="-3.931947">
        <ele>943.65</ele>
        <time>2022-06-19T05:30:30+00:00</time>
      </trkpt>
      <trkpt lat="40.699497" lon="-3.931775">
        <ele>942.69</ele>
        <time>2022-06-19T05:30:31+00:00</time>
      </trkpt>
      <trkpt lat="40.699432" lon="-3.931625">
        <ele>942.21</ele>
        <time>2022-06-19T05:30:32+00:00</time>
      </trkpt>
      <trkpt lat="40.699304" lon="-3.931389">
        <ele>941.25</ele>
        <time>2022-06-19T05:30:34+00:00</time>
      </trkpt>
      <trkpt lat="40.699261" lon="-3.931260">
        <ele>940.77</ele>
        <time>2022-06-19T05:30:35+00:00</time>
      </trkpt>
      <trkpt lat="40.699282" lon="-3.931153">
        <ele>940.29</ele>
        <time>2022-06-19T05:30:36+00:00</time>
      </trkpt>
      <trkpt lat="40.699325" lon="-3.931046">
        <ele>939.81</ele>
        <time>2022-06-19T05:30:37+00:00</time>
      </trkpt>
      <trkpt lat="40.699411" lon="-3.930981">
        <ele>939.33</ele>
        <time>2022-06-19T05:30:38+00:00</time>
      </trkpt>
      <trkpt lat="40.699518" lon="-3.930938">
        <ele>938.85</ele>
        <time>2022-06-19T05:30:39+00:00</time>
      </trkpt>
      <trkpt lat="40.699647" lon="-3.930895">
        <ele>938.37</ele>
        <time>2022-06-19T05:30:40+00:00</time>
      </trkpt>
      <trkpt lat="40.699776" lon="-3.930831">
        <ele>937.40</ele>
        <time>2022-06-19T05:30:41+00:00</time>
      </trkpt>
      <trkpt lat="40.699926" lon="-3.930659">
        <ele>936.44</ele>
        <time>2022-06-19T05:30:42+00:00</time>
      </trkpt>
      <trkpt lat="40.700033" lon="-3.930445">
        <ele>935.48</ele>
        <time>2022-06-19T05:30:43+00:00</time>
      </trkpt>
      <trkpt lat="40.700140" lon="-3.930230">
        <ele>935.00</ele>
        <time>2022-06-19T05:30:44+00:00</time>
      </trkpt>
      <trkpt lat="40.701106" lon="-3.928471">
        <ele>930.19</ele>
        <time>2022-06-19T05:30:51+00:00</time>
      </trkpt>
      <trkpt lat="40.701321" lon="-3.927999">
        <ele>929.71</ele>
        <time>2022-06-19T05:30:53+00:00</time>
      </trkpt>
      <trkpt lat="40.701428" lon="-3.927720">
        <ele>929.71</ele>
        <time>2022-06-19T05:30:54+00:00</time>
      </trkpt>
      <trkpt lat="40.701471" lon="-3.927419">
        <ele>929.23</ele>
        <time>2022-06-19T05:30:55+00:00</time>
      </trkpt>
      <trkpt lat="40.701535" lon="-3.927097">
        <ele>929.23</ele>
        <time>2022-06-19T05:30:56+00:00</time>
      </trkpt>
      <trkpt lat="40.701557" lon="-3.926754">
        <ele>929.23</ele>
        <time>2022-06-19T05:30:57+00:00</time>
      </trkpt>
      <trkpt lat="40.701771" lon="-3.925767">
        <ele>928.75</ele>
        <time>2022-06-19T05:31:00+00:00</time>
      </trkpt>
      <trkpt lat="40.701857" lon="-3.925402">
        <ele>928.27</ele>
        <time>2022-06-19T05:31:01+00:00</time>
      </trkpt>
      <trkpt lat="40.702758" lon="-3.922720">
        <ele>924.43</ele>
        <time>2022-06-19T05:31:09+00:00</time>
      </trkpt>
      <trkpt lat="40.703252" lon="-3.921669">
        <ele>922.50</ele>
        <time>2022-06-19T05:31:13+00:00</time>
      </trkpt>
      <trkpt lat="40.703423" lon="-3.921454">
        <ele>922.02</ele>
        <time>2022-06-19T05:31:14+00:00</time>
      </trkpt>
      <trkpt lat="40.703595" lon="-3.921261">
        <ele>921.54</ele>
        <time>2022-06-19T05:31:15+00:00</time>
      </trkpt>
      <trkpt lat="40.705097" lon="-3.919609">
        <ele>918.66</ele>
        <time>2022-06-19T05:31:24+00:00</time>
      </trkpt>
      <trkpt lat="40.705977" lon="-3.917806">
        <ele>917.70</ele>
        <time>2022-06-19T05:31:30+00:00</time>
      </trkpt>
      <trkpt lat="40.707372" lon="-3.914845">
        <ele>916.74</ele>
        <time>2022-06-19T05:31:39+00:00</time>
      </trkpt>
      <trkpt lat="40.708659" lon="-3.912807">
        <ele>915.29</ele>
        <time>2022-06-19T05:31:46+00:00</time>
      </trkpt>
      <trkpt lat="40.710869" lon="-3.909760">
        <ele>913.37</ele>
        <time>2022-06-19T05:31:57+00:00</time>
      </trkpt>
      <trkpt lat="40.712286" lon="-3.908021">
        <ele>913.37</ele>
        <time>2022-06-19T05:32:04+00:00</time>
      </trkpt>
      <trkpt lat="40.713165" lon="-3.906519">
        <ele>912.89</ele>
        <time>2022-06-19T05:32:11+00:00</time>
      </trkpt>
      <trkpt lat="40.713852" lon="-3.904953">
        <ele>911.93</ele>
        <time>2022-06-19T05:32:19+00:00</time>
      </trkpt>
      <trkpt lat="40.714174" lon="-3.903365">
        <ele>910.97</ele>
        <time>2022-06-19T05:32:28+00:00</time>
      </trkpt>
      <trkpt lat="40.714581" lon="-3.901091">
        <ele>910.01</ele>
        <time>2022-06-19T05:32:41+00:00</time>
      </trkpt>
      <trkpt lat="40.714882" lon="-3.899374">
        <ele>909.05</ele>
        <time>2022-06-19T05:32:48+00:00</time>
      </trkpt>
      <trkpt lat="40.715182" lon="-3.896713">
        <ele>908.08</ele>
        <time>2022-06-19T05:32:56+00:00</time>
      </trkpt>
      <trkpt lat="40.715333" lon="-3.893859">
        <ele>907.60</ele>
        <time>2022-06-19T05:33:04+00:00</time>
      </trkpt>
      <trkpt lat="40.715526" lon="-3.891993">
        <ele>907.60</ele>
        <time>2022-06-19T05:33:10+00:00</time>
      </trkpt>
      <trkpt lat="40.715633" lon="-3.891692">
        <ele>907.12</ele>
        <time>2022-06-19T05:33:11+00:00</time>
      </trkpt>
      <trkpt lat="40.715762" lon="-3.891370">
        <ele>907.12</ele>
        <time>2022-06-19T05:33:12+00:00</time>
      </trkpt>
      <trkpt lat="40.717006" lon="-3.888216">
        <ele>906.64</ele>
        <time>2022-06-19T05:33:21+00:00</time>
      </trkpt>
      <trkpt lat="40.718723" lon="-3.884676">
        <ele>906.16</ele>
        <time>2022-06-19T05:33:31+00:00</time>
      </trkpt>
      <trkpt lat="40.720354" lon="-3.881307">
        <ele>909.05</ele>
        <time>2022-06-19T05:33:41+00:00</time>
      </trkpt>
      <trkpt lat="40.721341" lon="-3.879697">
        <ele>909.05</ele>
        <time>2022-06-19T05:33:47+00:00</time>
      </trkpt>
      <trkpt lat="40.721555" lon="-3.879483">
        <ele>908.56</ele>
        <time>2022-06-19T05:33:48+00:00</time>
      </trkpt>
      <trkpt lat="40.723122" lon="-3.878088">
        <ele>906.16</ele>
        <time>2022-06-19T05:33:55+00:00</time>
      </trkpt>
      <trkpt lat="40.723486" lon="-3.877659">
        <ele>906.16</ele>
        <time>2022-06-19T05:33:57+00:00</time>
      </trkpt>
      <trkpt lat="40.723615" lon="-3.877401">
        <ele>906.16</ele>
        <time>2022-06-19T05:33:58+00:00</time>
      </trkpt>
      <trkpt lat="40.723744" lon="-3.877122">
        <ele>906.64</ele>
        <time>2022-06-19T05:33:59+00:00</time>
      </trkpt>
      <trkpt lat="40.723851" lon="-3.876843">
        <ele>906.64</ele>
        <time>2022-06-19T05:34:00+00:00</time>
      </trkpt>
      <trkpt lat="40.723937" lon="-3.876543">
        <ele>907.12</ele>
        <time>2022-06-19T05:34:01+00:00</time>
      </trkpt>
      <trkpt lat="40.723980" lon="-3.876221">
        <ele>908.08</ele>
        <time>2022-06-19T05:34:02+00:00</time>
      </trkpt>
      <trkpt lat="40.724001" lon="-3.875878">
        <ele>908.56</ele>
        <time>2022-06-19T05:34:03+00:00</time>
      </trkpt>
      <trkpt lat="40.724023" lon="-3.875535">
        <ele>909.05</ele>
        <time>2022-06-19T05:34:04+00:00</time>
      </trkpt>
      <trkpt lat="40.724023" lon="-3.875170">
        <ele>910.01</ele>
        <time>2022-06-19T05:34:05+00:00</time>
      </trkpt>
      <trkpt lat="40.724066" lon="-3.872316">
        <ele>916.74</ele>
        <time>2022-06-19T05:34:13+00:00</time>
      </trkpt>
      <trkpt lat="40.724130" lon="-3.871973">
        <ele>917.22</ele>
        <time>2022-06-19T05:34:14+00:00</time>
      </trkpt>
      <trkpt lat="40.724216" lon="-3.871651">
        <ele>917.70</ele>
        <time>2022-06-19T05:34:15+00:00</time>
      </trkpt>
      <trkpt lat="40.724345" lon="-3.871329">
        <ele>918.18</ele>
        <time>2022-06-19T05:34:16+00:00</time>
      </trkpt>
      <trkpt lat="40.724473" lon="-3.870986">
        <ele>918.18</ele>
        <time>2022-06-19T05:34:17+00:00</time>
      </trkpt>
      <trkpt lat="40.725031" lon="-3.869226">
        <ele>918.18</ele>
        <time>2022-06-19T05:34:23+00:00</time>
      </trkpt>
      <trkpt lat="40.725074" lon="-3.869011">
        <ele>917.70</ele>
        <time>2022-06-19T05:34:24+00:00</time>
      </trkpt>
      <trkpt lat="40.725053" lon="-3.868818">
        <ele>917.22</ele>
        <time>2022-06-19T05:34:25+00:00</time>
      </trkpt>
      <trkpt lat="40.725031" lon="-3.868668">
        <ele>916.26</ele>
        <time>2022-06-19T05:34:26+00:00</time>
      </trkpt>
      <trkpt lat="40.725010" lon="-3.868518">
        <ele>915.29</ele>
        <time>2022-06-19T05:34:27+00:00</time>
      </trkpt>
      <trkpt lat="40.724924" lon="-3.868411">
        <ele>914.33</ele>
        <time>2022-06-19T05:34:28+00:00</time>
      </trkpt>
      <trkpt lat="40.724903" lon="-3.868282">
        <ele>913.85</ele>
        <time>2022-06-19T05:34:29+00:00</time>
      </trkpt>
      <trkpt lat="40.724903" lon="-3.868153">
        <ele>913.37</ele>
        <time>2022-06-19T05:34:30+00:00</time>
      </trkpt>
      <trkpt lat="40.724946" lon="-3.868024">
        <ele>912.89</ele>
        <time>2022-06-19T05:34:31+00:00</time>
      </trkpt>
      <trkpt lat="40.725031" lon="-3.867874">
        <ele>912.41</ele>
        <time>2022-06-19T05:34:32+00:00</time>
      </trkpt>
      <trkpt lat="40.725074" lon="-3.867681">
        <ele>911.93</ele>
        <time>2022-06-19T05:34:33+00:00</time>
      </trkpt>
      <trkpt lat="40.725096" lon="-3.867445">
        <ele>911.45</ele>
        <time>2022-06-19T05:34:34+00:00</time>
      </trkpt>
      <trkpt lat="40.725117" lon="-3.867145">
        <ele>910.49</ele>
        <time>2022-06-19T05:34:35+00:00</time>
      </trkpt>
      <trkpt lat="40.725117" lon="-3.866844">
        <ele>910.01</ele>
        <time>2022-06-19T05:34:36+00:00</time>
      </trkpt>
      <trkpt lat="40.725139" lon="-3.864613">
        <ele>906.64</ele>
        <time>2022-06-19T05:34:42+00:00</time>
      </trkpt>
      <trkpt lat="40.725246" lon="-3.863239">
        <ele>904.72</ele>
        <time>2022-06-19T05:34:46+00:00</time>
      </trkpt>
      <trkpt lat="40.725310" lon="-3.862917">
        <ele>904.24</ele>
        <time>2022-06-19T05:34:47+00:00</time>
      </trkpt>
      <trkpt lat="40.725396" lon="-3.862596">
        <ele>903.76</ele>
        <time>2022-06-19T05:34:48+00:00</time>
      </trkpt>
      <trkpt lat="40.725525" lon="-3.862295">
        <ele>903.28</ele>
        <time>2022-06-19T05:34:49+00:00</time>
      </trkpt>
      <trkpt lat="40.725654" lon="-3.862016">
        <ele>903.28</ele>
        <time>2022-06-19T05:34:50+00:00</time>
      </trkpt>
      <trkpt lat="40.725804" lon="-3.861737">
        <ele>903.28</ele>
        <time>2022-06-19T05:34:51+00:00</time>
      </trkpt>
      <trkpt lat="40.726018" lon="-3.861501">
        <ele>903.76</ele>
        <time>2022-06-19T05:34:52+00:00</time>
      </trkpt>
      <trkpt lat="40.726190" lon="-3.861265">
        <ele>903.76</ele>
        <time>2022-06-19T05:34:53+00:00</time>
      </trkpt>
      <trkpt lat="40.726383" lon="-3.861094">
        <ele>904.24</ele>
        <time>2022-06-19T05:34:54+00:00</time>
      </trkpt>
      <trkpt lat="40.726598" lon="-3.860943">
        <ele>904.72</ele>
        <time>2022-06-19T05:34:55+00:00</time>
      </trkpt>
      <trkpt lat="40.726769" lon="-3.860793">
        <ele>905.20</ele>
        <time>2022-06-19T05:34:56+00:00</time>
      </trkpt>
      <trkpt lat="40.727585" lon="-3.859849">
        <ele>906.16</ele>
        <time>2022-06-19T05:35:02+00:00</time>
      </trkpt>
      <trkpt lat="40.727950" lon="-3.859291">
        <ele>905.68</ele>
        <time>2022-06-19T05:35:07+00:00</time>
      </trkpt>
      <trkpt lat="40.728100" lon="-3.859077">
        <ele>904.72</ele>
        <time>2022-06-19T05:35:10+00:00</time>
      </trkpt>
      <trkpt lat="40.728143" lon="-3.859012">
        <ele>904.72</ele>
        <time>2022-06-19T05:35:11+00:00</time>
      </trkpt>
      <trkpt lat="40.728143" lon="-3.858948">
        <ele>904.24</ele>
        <time>2022-06-19T05:35:12+00:00</time>
      </trkpt>
      <trkpt lat="40.728164" lon="-3.858926">
        <ele>904.24</ele>
        <time>2022-06-19T05:35:13+00:00</time>
      </trkpt>
      <trkpt lat="40.728164" lon="-3.858926">
        <ele>903.76</ele>
        <time>2022-06-19T05:35:14+00:00</time>
      </trkpt>
      <trkpt lat="40.728164" lon="-3.858926">
        <ele>902.80</ele>
        <time>2022-06-19T05:35:25+00:00</time>
      </trkpt>
      <trkpt lat="40.728078" lon="-3.858841">
        <ele>890.78</ele>
        <time>2022-06-19T05:43:09+00:00</time>
      </trkpt>
      <trkpt lat="40.728186" lon="-3.858862">
        <ele>891.26</ele>
        <time>2022-06-19T05:43:12+00:00</time>
      </trkpt>
      <trkpt lat="40.728229" lon="-3.858776">
        <ele>892.70</ele>
        <time>2022-06-19T05:43:13+00:00</time>
      </trkpt>
      <trkpt lat="40.728271" lon="-3.858669">
        <ele>895.59</ele>
        <time>2022-06-19T05:43:14+00:00</time>
      </trkpt>
      <trkpt lat="40.728336" lon="-3.858540">
        <ele>896.55</ele>
        <time>2022-06-19T05:43:15+00:00</time>
      </trkpt>
      <trkpt lat="40.728379" lon="-3.858390">
        <ele>897.51</ele>
        <time>2022-06-19T05:43:16+00:00</time>
      </trkpt>
      <trkpt lat="40.728422" lon="-3.858240">
        <ele>897.03</ele>
        <time>2022-06-19T05:43:17+00:00</time>
      </trkpt>
      <trkpt lat="40.728765" lon="-3.856802">
        <ele>898.95</ele>
        <time>2022-06-19T05:43:24+00:00</time>
      </trkpt>
      <trkpt lat="40.729280" lon="-3.855236">
        <ele>898.47</ele>
        <time>2022-06-19T05:43:30+00:00</time>
      </trkpt>
      <trkpt lat="40.729430" lon="-3.854978">
        <ele>897.99</ele>
        <time>2022-06-19T05:43:31+00:00</time>
      </trkpt>
      <trkpt lat="40.729602" lon="-3.854721">
        <ele>897.99</ele>
        <time>2022-06-19T05:43:32+00:00</time>
      </trkpt>
      <trkpt lat="40.731340" lon="-3.852296">
        <ele>898.47</ele>
        <time>2022-06-19T05:43:41+00:00</time>
      </trkpt>
      <trkpt lat="40.732885" lon="-3.850236">
        <ele>900.39</ele>
        <time>2022-06-19T05:43:49+00:00</time>
      </trkpt>
      <trkpt lat="40.733958" lon="-3.849313">
        <ele>900.39</ele>
        <time>2022-06-19T05:43:55+00:00</time>
      </trkpt>
      <trkpt lat="40.734065" lon="-3.849142">
        <ele>900.39</ele>
        <time>2022-06-19T05:43:56+00:00</time>
      </trkpt>
      <trkpt lat="40.734258" lon="-3.848863">
        <ele>899.91</ele>
        <time>2022-06-19T05:43:58+00:00</time>
      </trkpt>
      <trkpt lat="40.734365" lon="-3.848755">
        <ele>899.91</ele>
        <time>2022-06-19T05:43:59+00:00</time>
      </trkpt>
      <trkpt lat="40.734451" lon="-3.848755">
        <ele>899.91</ele>
        <time>2022-06-19T05:44:00+00:00</time>
      </trkpt>
      <trkpt lat="40.734752" lon="-3.848755">
        <ele>899.91</ele>
        <time>2022-06-19T05:44:02+00:00</time>
      </trkpt>
      <trkpt lat="40.734902" lon="-3.848691">
        <ele>899.91</ele>
        <time>2022-06-19T05:44:03+00:00</time>
      </trkpt>
      <trkpt lat="40.735052" lon="-3.848584">
        <ele>899.91</ele>
        <time>2022-06-19T05:44:04+00:00</time>
      </trkpt>
      <trkpt lat="40.735181" lon="-3.848476">
        <ele>899.43</ele>
        <time>2022-06-19T05:44:05+00:00</time>
      </trkpt>
      <trkpt lat="40.735331" lon="-3.848326">
        <ele>899.43</ele>
        <time>2022-06-19T05:44:06+00:00</time>
      </trkpt>
      <trkpt lat="40.735460" lon="-3.848155">
        <ele>899.91</ele>
        <time>2022-06-19T05:44:07+00:00</time>
      </trkpt>
      <trkpt lat="40.735589" lon="-3.847983">
        <ele>899.43</ele>
        <time>2022-06-19T05:44:08+00:00</time>
      </trkpt>
      <trkpt lat="40.735717" lon="-3.847790">
        <ele>899.43</ele>
        <time>2022-06-19T05:44:09+00:00</time>
      </trkpt>
      <trkpt lat="40.735846" lon="-3.847575">
        <ele>899.43</ele>
        <time>2022-06-19T05:44:10+00:00</time>
      </trkpt>
      <trkpt lat="40.737198" lon="-3.845108">
        <ele>899.91</ele>
        <time>2022-06-19T05:44:22+00:00</time>
      </trkpt>
      <trkpt lat="40.738271" lon="-3.843927">
        <ele>900.39</ele>
        <time>2022-06-19T05:44:29+00:00</time>
      </trkpt>
      <trkpt lat="40.739773" lon="-3.842576">
        <ele>901.35</ele>
        <time>2022-06-19T05:44:38+00:00</time>
      </trkpt>
      <trkpt lat="40.740417" lon="-3.841202">
        <ele>901.84</ele>
        <time>2022-06-19T05:44:44+00:00</time>
      </trkpt>
      <trkpt lat="40.741683" lon="-3.838069">
        <ele>901.35</ele>
        <time>2022-06-19T05:44:59+00:00</time>
      </trkpt>
      <trkpt lat="40.741768" lon="-3.837619">
        <ele>901.84</ele>
        <time>2022-06-19T05:45:01+00:00</time>
      </trkpt>
      <trkpt lat="40.741790" lon="-3.837383">
        <ele>901.84</ele>
        <time>2022-06-19T05:45:02+00:00</time>
      </trkpt>
      <trkpt lat="40.741811" lon="-3.837147">
        <ele>901.35</ele>
        <time>2022-06-19T05:45:03+00:00</time>
      </trkpt>
      <trkpt lat="40.741811" lon="-3.836932">
        <ele>901.35</ele>
        <time>2022-06-19T05:45:04+00:00</time>
      </trkpt>
      <trkpt lat="40.741790" lon="-3.836696">
        <ele>901.84</ele>
        <time>2022-06-19T05:45:05+00:00</time>
      </trkpt>
      <trkpt lat="40.741768" lon="-3.836460">
        <ele>901.35</ele>
        <time>2022-06-19T05:45:06+00:00</time>
      </trkpt>
      <trkpt lat="40.741339" lon="-3.833628">
        <ele>901.35</ele>
        <time>2022-06-19T05:45:18+00:00</time>
      </trkpt>
      <trkpt lat="40.741554" lon="-3.831804">
        <ele>900.39</ele>
        <time>2022-06-19T05:45:25+00:00</time>
      </trkpt>
      <trkpt lat="40.741940" lon="-3.829315">
        <ele>899.91</ele>
        <time>2022-06-19T05:45:35+00:00</time>
      </trkpt>
      <trkpt lat="40.741747" lon="-3.827684">
        <ele>899.43</ele>
        <time>2022-06-19T05:45:42+00:00</time>
      </trkpt>
      <trkpt lat="40.741082" lon="-3.826203">
        <ele>899.91</ele>
        <time>2022-06-19T05:45:49+00:00</time>
      </trkpt>
      <trkpt lat="40.739558" lon="-3.824465">
        <ele>899.43</ele>
        <time>2022-06-19T05:45:59+00:00</time>
      </trkpt>
      <trkpt lat="40.738421" lon="-3.822835">
        <ele>899.91</ele>
        <time>2022-06-19T05:46:07+00:00</time>
      </trkpt>
      <trkpt lat="40.737927" lon="-3.821118">
        <ele>900.39</ele>
        <time>2022-06-19T05:46:14+00:00</time>
      </trkpt>
      <trkpt lat="40.737927" lon="-3.819423">
        <ele>900.39</ele>
        <time>2022-06-19T05:46:21+00:00</time>
      </trkpt>
      <trkpt lat="40.738421" lon="-3.817534">
        <ele>899.43</ele>
        <time>2022-06-19T05:46:29+00:00</time>
      </trkpt>
      <trkpt lat="40.739022" lon="-3.815882">
        <ele>898.95</ele>
        <time>2022-06-19T05:46:38+00:00</time>
      </trkpt>
      <trkpt lat="40.739279" lon="-3.814917">
        <ele>899.43</ele>
        <time>2022-06-19T05:46:45+00:00</time>
      </trkpt>
      <trkpt lat="40.739301" lon="-3.814788">
        <ele>899.91</ele>
        <time>2022-06-19T05:46:46+00:00</time>
      </trkpt>
      <trkpt lat="40.739301" lon="-3.814659">
        <ele>899.91</ele>
        <time>2022-06-19T05:46:47+00:00</time>
      </trkpt>
      <trkpt lat="40.739301" lon="-3.814488">
        <ele>899.91</ele>
        <time>2022-06-19T05:46:48+00:00</time>
      </trkpt>
      <trkpt lat="40.739387" lon="-3.814359">
        <ele>900.39</ele>
        <time>2022-06-19T05:46:49+00:00</time>
      </trkpt>
      <trkpt lat="40.739451" lon="-3.814294">
        <ele>900.39</ele>
        <time>2022-06-19T05:46:50+00:00</time>
      </trkpt>
      <trkpt lat="40.739666" lon="-3.814209">
        <ele>900.39</ele>
        <time>2022-06-19T05:46:51+00:00</time>
      </trkpt>
      <trkpt lat="40.739730" lon="-3.814037">
        <ele>900.39</ele>
        <time>2022-06-19T05:46:52+00:00</time>
      </trkpt>
      <trkpt lat="40.739794" lon="-3.813822">
        <ele>900.87</ele>
        <time>2022-06-19T05:46:53+00:00</time>
      </trkpt>
      <trkpt lat="40.739880" lon="-3.813608">
        <ele>901.35</ele>
        <time>2022-06-19T05:46:54+00:00</time>
      </trkpt>
      <trkpt lat="40.740717" lon="-3.811762">
        <ele>904.24</ele>
        <time>2022-06-19T05:47:02+00:00</time>
      </trkpt>
      <trkpt lat="40.741725" lon="-3.809810">
        <ele>907.60</ele>
        <time>2022-06-19T05:47:09+00:00</time>
      </trkpt>
      <trkpt lat="40.743850" lon="-3.805733">
        <ele>908.56</ele>
        <time>2022-06-19T05:47:22+00:00</time>
      </trkpt>
      <trkpt lat="40.745352" lon="-3.802857">
        <ele>911.93</ele>
        <time>2022-06-19T05:47:32+00:00</time>
      </trkpt>
      <trkpt lat="40.746382" lon="-3.800883">
        <ele>915.29</ele>
        <time>2022-06-19T05:47:40+00:00</time>
      </trkpt>
      <trkpt lat="40.746789" lon="-3.800068">
        <ele>915.77</ele>
        <time>2022-06-19T05:47:46+00:00</time>
      </trkpt>
      <trkpt lat="40.747347" lon="-3.798995">
        <ele>917.22</ele>
        <time>2022-06-19T05:47:54+00:00</time>
      </trkpt>
      <trkpt lat="40.748291" lon="-3.797193">
        <ele>918.18</ele>
        <time>2022-06-19T05:48:05+00:00</time>
      </trkpt>
      <trkpt lat="40.749085" lon="-3.795691">
        <ele>919.62</ele>
        <time>2022-06-19T05:48:14+00:00</time>
      </trkpt>
      <trkpt lat="40.749836" lon="-3.794103">
        <ele>921.06</ele>
        <time>2022-06-19T05:48:25+00:00</time>
      </trkpt>
      <trkpt lat="40.750394" lon="-3.792751">
        <ele>920.58</ele>
        <time>2022-06-19T05:48:34+00:00</time>
      </trkpt>
      <trkpt lat="40.750781" lon="-3.791270">
        <ele>920.58</ele>
        <time>2022-06-19T05:48:41+00:00</time>
      </trkpt>
      <trkpt lat="40.750995" lon="-3.789318">
        <ele>920.10</ele>
        <time>2022-06-19T05:48:51+00:00</time>
      </trkpt>
      <trkpt lat="40.751081" lon="-3.788803">
        <ele>919.62</ele>
        <time>2022-06-19T05:48:55+00:00</time>
      </trkpt>
      <trkpt lat="40.751102" lon="-3.788652">
        <ele>919.62</ele>
        <time>2022-06-19T05:48:56+00:00</time>
      </trkpt>
      <trkpt lat="40.751188" lon="-3.788524">
        <ele>919.14</ele>
        <time>2022-06-19T05:48:57+00:00</time>
      </trkpt>
      <trkpt lat="40.751896" lon="-3.787344">
        <ele>918.18</ele>
        <time>2022-06-19T05:49:07+00:00</time>
      </trkpt>
      <trkpt lat="40.752841" lon="-3.785756">
        <ele>919.14</ele>
        <time>2022-06-19T05:49:21+00:00</time>
      </trkpt>
      <trkpt lat="40.753699" lon="-3.784318">
        <ele>922.50</ele>
        <time>2022-06-19T05:49:34+00:00</time>
      </trkpt>
      <trkpt lat="40.754171" lon="-3.783524">
        <ele>923.95</ele>
        <time>2022-06-19T05:49:41+00:00</time>
      </trkpt>
      <trkpt lat="40.754214" lon="-3.783438">
        <ele>924.43</ele>
        <time>2022-06-19T05:49:42+00:00</time>
      </trkpt>
      <trkpt lat="40.754235" lon="-3.783352">
        <ele>924.43</ele>
        <time>2022-06-19T05:49:44+00:00</time>
      </trkpt>
      <trkpt lat="40.754278" lon="-3.783224">
        <ele>924.91</ele>
        <time>2022-06-19T05:49:45+00:00</time>
      </trkpt>
      <trkpt lat="40.754321" lon="-3.783202">
        <ele>924.91</ele>
        <time>2022-06-19T05:49:46+00:00</time>
      </trkpt>
      <trkpt lat="40.754385" lon="-3.783288">
        <ele>924.91</ele>
        <time>2022-06-19T05:49:47+00:00</time>
      </trkpt>
      <trkpt lat="40.754471" lon="-3.783288">
        <ele>924.91</ele>
        <time>2022-06-19T05:49:48+00:00</time>
      </trkpt>
      <trkpt lat="40.754579" lon="-3.783310">
        <ele>925.39</ele>
        <time>2022-06-19T05:49:49+00:00</time>
      </trkpt>
      <trkpt lat="40.754686" lon="-3.783310">
        <ele>925.39</ele>
        <time>2022-06-19T05:49:50+00:00</time>
      </trkpt>
      <trkpt lat="40.754772" lon="-3.783310">
        <ele>925.87</ele>
        <time>2022-06-19T05:49:51+00:00</time>
      </trkpt>
      <trkpt lat="40.754879" lon="-3.783310">
        <ele>926.35</ele>
        <time>2022-06-19T05:49:52+00:00</time>
      </trkpt>
      <trkpt lat="40.754986" lon="-3.783288">
        <ele>926.35</ele>
        <time>2022-06-19T05:49:53+00:00</time>
      </trkpt>
      <trkpt lat="40.755909" lon="-3.783116">
        <ele>925.87</ele>
        <time>2022-06-19T05:50:03+00:00</time>
      </trkpt>
      <trkpt lat="40.756360" lon="-3.783052">
        <ele>924.91</ele>
        <time>2022-06-19T05:50:10+00:00</time>
      </trkpt>
      <trkpt lat="40.756424" lon="-3.783031">
        <ele>924.91</ele>
        <time>2022-06-19T05:50:11+00:00</time>
      </trkpt>
      <trkpt lat="40.756596" lon="-3.782816">
        <ele>925.39</ele>
        <time>2022-06-19T05:50:14+00:00</time>
      </trkpt>
      <trkpt lat="40.756681" lon="-3.782837">
        <ele>925.39</ele>
        <time>2022-06-19T05:50:15+00:00</time>
      </trkpt>
      <trkpt lat="40.756724" lon="-3.782859">
        <ele>925.87</ele>
        <time>2022-06-19T05:50:16+00:00</time>
      </trkpt>
      <trkpt lat="40.756853" lon="-3.782966">
        <ele>926.35</ele>
        <time>2022-06-19T05:50:17+00:00</time>
      </trkpt>
      <trkpt lat="40.756939" lon="-3.782945">
        <ele>926.35</ele>
        <time>2022-06-19T05:50:18+00:00</time>
      </trkpt>
      <trkpt lat="40.757046" lon="-3.782945">
        <ele>927.31</ele>
        <time>2022-06-19T05:50:19+00:00</time>
      </trkpt>
      <trkpt lat="40.757132" lon="-3.782923">
        <ele>927.79</ele>
        <time>2022-06-19T05:50:20+00:00</time>
      </trkpt>
      <trkpt lat="40.757218" lon="-3.782902">
        <ele>928.27</ele>
        <time>2022-06-19T05:50:21+00:00</time>
      </trkpt>
      <trkpt lat="40.758098" lon="-3.782773">
        <ele>931.16</ele>
        <time>2022-06-19T05:50:32+00:00</time>
      </trkpt>
      <trkpt lat="40.759128" lon="-3.782580">
        <ele>932.60</ele>
        <time>2022-06-19T05:50:42+00:00</time>
      </trkpt>
      <trkpt lat="40.760050" lon="-3.782451">
        <ele>934.52</ele>
        <time>2022-06-19T05:50:54+00:00</time>
      </trkpt>
      <trkpt lat="40.761016" lon="-3.782280">
        <ele>934.52</ele>
        <time>2022-06-19T05:51:05+00:00</time>
      </trkpt>
      <trkpt lat="40.762089" lon="-3.782129">
        <ele>935.48</ele>
        <time>2022-06-19T05:51:15+00:00</time>
      </trkpt>
      <trkpt lat="40.763784" lon="-3.781829">
        <ele>938.85</ele>
        <time>2022-06-19T05:51:29+00:00</time>
      </trkpt>
      <trkpt lat="40.764943" lon="-3.781657">
        <ele>942.21</ele>
        <time>2022-06-19T05:51:40+00:00</time>
      </trkpt>
      <trkpt lat="40.765028" lon="-3.781529">
        <ele>942.21</ele>
        <time>2022-06-19T05:51:41+00:00</time>
      </trkpt>
      <trkpt lat="40.765093" lon="-3.781550">
        <ele>942.69</ele>
        <time>2022-06-19T05:51:42+00:00</time>
      </trkpt>
      <trkpt lat="40.765200" lon="-3.781614">
        <ele>942.69</ele>
        <time>2022-06-19T05:51:43+00:00</time>
      </trkpt>
      <trkpt lat="40.766166" lon="-3.781443">
        <ele>944.61</ele>
        <time>2022-06-19T05:51:52+00:00</time>
      </trkpt>
      <trkpt lat="40.767410" lon="-3.781228">
        <ele>948.94</ele>
        <time>2022-06-19T05:52:02+00:00</time>
      </trkpt>
      <trkpt lat="40.769063" lon="-3.780520">
        <ele>952.79</ele>
        <time>2022-06-19T05:52:16+00:00</time>
      </trkpt>
      <trkpt lat="40.769663" lon="-3.780263">
        <ele>957.11</ele>
        <time>2022-06-19T05:52:22+00:00</time>
      </trkpt>
      <trkpt lat="40.769771" lon="-3.780134">
        <ele>957.59</ele>
        <time>2022-06-19T05:52:23+00:00</time>
      </trkpt>
      <trkpt lat="40.769771" lon="-3.780026">
        <ele>958.55</ele>
        <time>2022-06-19T05:52:24+00:00</time>
      </trkpt>
      <trkpt lat="40.769835" lon="-3.779919">
        <ele>959.03</ele>
        <time>2022-06-19T05:52:25+00:00</time>
      </trkpt>
      <trkpt lat="40.769878" lon="-3.779833">
        <ele>959.51</ele>
        <time>2022-06-19T05:52:26+00:00</time>
      </trkpt>
      <trkpt lat="40.769942" lon="-3.779812">
        <ele>959.99</ele>
        <time>2022-06-19T05:52:27+00:00</time>
      </trkpt>
      <trkpt lat="40.770028" lon="-3.779812">
        <ele>960.48</ele>
        <time>2022-06-19T05:52:28+00:00</time>
      </trkpt>
      <trkpt lat="40.770092" lon="-3.779855">
        <ele>960.96</ele>
        <time>2022-06-19T05:52:29+00:00</time>
      </trkpt>
      <trkpt lat="40.770178" lon="-3.779919">
        <ele>961.44</ele>
        <time>2022-06-19T05:52:30+00:00</time>
      </trkpt>
      <trkpt lat="40.770329" lon="-3.779941">
        <ele>961.92</ele>
        <time>2022-06-19T05:52:31+00:00</time>
      </trkpt>
      <trkpt lat="40.770457" lon="-3.779898">
        <ele>962.40</ele>
        <time>2022-06-19T05:52:32+00:00</time>
      </trkpt>
      <trkpt lat="40.770586" lon="-3.779833">
        <ele>962.88</ele>
        <time>2022-06-19T05:52:33+00:00</time>
      </trkpt>
      <trkpt lat="40.770736" lon="-3.779769">
        <ele>963.84</ele>
        <time>2022-06-19T05:52:34+00:00</time>
      </trkpt>
      <trkpt lat="40.771873" lon="-3.779297">
        <ele>970.09</ele>
        <time>2022-06-19T05:52:43+00:00</time>
      </trkpt>
      <trkpt lat="40.772582" lon="-3.779039">
        <ele>974.90</ele>
        <time>2022-06-19T05:52:52+00:00</time>
      </trkpt>
      <trkpt lat="40.773933" lon="-3.779082">
        <ele>982.59</ele>
        <time>2022-06-19T05:53:03+00:00</time>
      </trkpt>
      <trkpt lat="40.774084" lon="-3.779039">
        <ele>983.07</ele>
        <time>2022-06-19T05:53:04+00:00</time>
      </trkpt>
      <trkpt lat="40.774255" lon="-3.778975">
        <ele>984.03</ele>
        <time>2022-06-19T05:53:05+00:00</time>
      </trkpt>
      <trkpt lat="40.774405" lon="-3.778846">
        <ele>984.99</ele>
        <time>2022-06-19T05:53:06+00:00</time>
      </trkpt>
      <trkpt lat="40.774599" lon="-3.778675">
        <ele>986.43</ele>
        <time>2022-06-19T05:53:07+00:00</time>
      </trkpt>
      <trkpt lat="40.774813" lon="-3.778503">
        <ele>987.39</ele>
        <time>2022-06-19T05:53:08+00:00</time>
      </trkpt>
      <trkpt lat="40.776337" lon="-3.777087">
        <ele>1000.85</ele>
        <time>2022-06-19T05:53:16+00:00</time>
      </trkpt>
      <trkpt lat="40.777452" lon="-3.776100">
        <ele>1011.91</ele>
        <time>2022-06-19T05:53:23+00:00</time>
      </trkpt>
      <trkpt lat="40.778311" lon="-3.775542">
        <ele>1019.60</ele>
        <time>2022-06-19T05:53:30+00:00</time>
      </trkpt>
      <trkpt lat="40.778397" lon="-3.775499">
        <ele>1020.56</ele>
        <time>2022-06-19T05:53:31+00:00</time>
      </trkpt>
      <trkpt lat="40.778504" lon="-3.775456">
        <ele>1021.52</ele>
        <time>2022-06-19T05:53:32+00:00</time>
      </trkpt>
      <trkpt lat="40.778568" lon="-3.775284">
        <ele>1022.00</ele>
        <time>2022-06-19T05:53:33+00:00</time>
      </trkpt>
      <trkpt lat="40.778590" lon="-3.775177">
        <ele>1022.48</ele>
        <time>2022-06-19T05:53:34+00:00</time>
      </trkpt>
      <trkpt lat="40.778697" lon="-3.775091">
        <ele>1022.48</ele>
        <time>2022-06-19T05:53:35+00:00</time>
      </trkpt>
      <trkpt lat="40.778783" lon="-3.775091">
        <ele>1022.96</ele>
        <time>2022-06-19T05:53:36+00:00</time>
      </trkpt>
      <trkpt lat="40.778804" lon="-3.775091">
        <ele>1023.44</ele>
        <time>2022-06-19T05:53:37+00:00</time>
      </trkpt>
      <trkpt lat="40.779062" lon="-3.775177">
        <ele>1023.44</ele>
        <time>2022-06-19T05:53:38+00:00</time>
      </trkpt>
      <trkpt lat="40.779212" lon="-3.775113">
        <ele>1023.92</ele>
        <time>2022-06-19T05:53:39+00:00</time>
      </trkpt>
      <trkpt lat="40.779384" lon="-3.775048">
        <ele>1023.92</ele>
        <time>2022-06-19T05:53:40+00:00</time>
      </trkpt>
      <trkpt lat="40.780585" lon="-3.774619">
        <ele>1025.36</ele>
        <time>2022-06-19T05:53:45+00:00</time>
      </trkpt>
      <trkpt lat="40.782710" lon="-3.773868">
        <ele>1030.17</ele>
        <time>2022-06-19T05:53:54+00:00</time>
      </trkpt>
      <trkpt lat="40.784147" lon="-3.772967">
        <ele>1034.50</ele>
        <time>2022-06-19T05:54:01+00:00</time>
      </trkpt>
      <trkpt lat="40.784941" lon="-3.772516">
        <ele>1034.02</ele>
        <time>2022-06-19T05:54:06+00:00</time>
      </trkpt>
      <trkpt lat="40.785091" lon="-3.772495">
        <ele>1034.02</ele>
        <time>2022-06-19T05:54:07+00:00</time>
      </trkpt>
      <trkpt lat="40.785242" lon="-3.772516">
        <ele>1034.02</ele>
        <time>2022-06-19T05:54:08+00:00</time>
      </trkpt>
      <trkpt lat="40.785413" lon="-3.772602">
        <ele>1034.02</ele>
        <time>2022-06-19T05:54:09+00:00</time>
      </trkpt>
      <trkpt lat="40.785606" lon="-3.772688">
        <ele>1033.54</ele>
        <time>2022-06-19T05:54:10+00:00</time>
      </trkpt>
      <trkpt lat="40.787473" lon="-3.773675">
        <ele>1033.54</ele>
        <time>2022-06-19T05:54:21+00:00</time>
      </trkpt>
      <trkpt lat="40.787602" lon="-3.773782">
        <ele>1033.05</ele>
        <time>2022-06-19T05:54:22+00:00</time>
      </trkpt>
      <trkpt lat="40.787709" lon="-3.773954">
        <ele>1032.09</ele>
        <time>2022-06-19T05:54:23+00:00</time>
      </trkpt>
      <trkpt lat="40.787774" lon="-3.774147">
        <ele>1031.13</ele>
        <time>2022-06-19T05:54:24+00:00</time>
      </trkpt>
      <trkpt lat="40.787838" lon="-3.774383">
        <ele>1030.65</ele>
        <time>2022-06-19T05:54:25+00:00</time>
      </trkpt>
      <trkpt lat="40.787902" lon="-3.774662">
        <ele>1030.17</ele>
        <time>2022-06-19T05:54:26+00:00</time>
      </trkpt>
      <trkpt lat="40.788396" lon="-3.776765">
        <ele>1027.77</ele>
        <time>2022-06-19T05:54:35+00:00</time>
      </trkpt>
      <trkpt lat="40.788568" lon="-3.777130">
        <ele>1026.33</ele>
        <time>2022-06-19T05:54:38+00:00</time>
      </trkpt>
      <trkpt lat="40.788653" lon="-3.777194">
        <ele>1026.33</ele>
        <time>2022-06-19T05:54:39+00:00</time>
      </trkpt>
      <trkpt lat="40.788718" lon="-3.777237">
        <ele>1026.33</ele>
        <time>2022-06-19T05:54:40+00:00</time>
      </trkpt>
      <trkpt lat="40.788782" lon="-3.777194">
        <ele>1027.29</ele>
        <time>2022-06-19T05:54:41+00:00</time>
      </trkpt>
      <trkpt lat="40.788868" lon="-3.777130">
        <ele>1028.25</ele>
        <time>2022-06-19T05:54:42+00:00</time>
      </trkpt>
      <trkpt lat="40.788911" lon="-3.776979">
        <ele>1028.73</ele>
        <time>2022-06-19T05:54:43+00:00</time>
      </trkpt>
      <trkpt lat="40.788954" lon="-3.776786">
        <ele>1029.69</ele>
        <time>2022-06-19T05:54:44+00:00</time>
      </trkpt>
      <trkpt lat="40.788997" lon="-3.776593">
        <ele>1030.65</ele>
        <time>2022-06-19T05:54:45+00:00</time>
      </trkpt>
      <trkpt lat="40.789190" lon="-3.774941">
        <ele>1039.30</ele>
        <time>2022-06-19T05:54:52+00:00</time>
      </trkpt>
      <trkpt lat="40.789233" lon="-3.774748">
        <ele>1040.74</ele>
        <time>2022-06-19T05:54:53+00:00</time>
      </trkpt>
      <trkpt lat="40.789276" lon="-3.774555">
        <ele>1041.71</ele>
        <time>2022-06-19T05:54:54+00:00</time>
      </trkpt>
      <trkpt lat="40.789361" lon="-3.774383">
        <ele>1042.67</ele>
        <time>2022-06-19T05:54:55+00:00</time>
      </trkpt>
      <trkpt lat="40.789898" lon="-3.773289">
        <ele>1046.51</ele>
        <time>2022-06-19T05:55:02+00:00</time>
      </trkpt>
      <trkpt lat="40.790005" lon="-3.773203">
        <ele>1046.51</ele>
        <time>2022-06-19T05:55:03+00:00</time>
      </trkpt>
      <trkpt lat="40.790091" lon="-3.773117">
        <ele>1046.51</ele>
        <time>2022-06-19T05:55:04+00:00</time>
      </trkpt>
      <trkpt lat="40.790198" lon="-3.773053">
        <ele>1046.51</ele>
        <time>2022-06-19T05:55:05+00:00</time>
      </trkpt>
      <trkpt lat="40.790306" lon="-3.773031">
        <ele>1046.51</ele>
        <time>2022-06-19T05:55:06+00:00</time>
      </trkpt>
      <trkpt lat="40.790434" lon="-3.773010">
        <ele>1046.51</ele>
        <time>2022-06-19T05:55:07+00:00</time>
      </trkpt>
      <trkpt lat="40.790542" lon="-3.773053">
        <ele>1046.03</ele>
        <time>2022-06-19T05:55:08+00:00</time>
      </trkpt>
      <trkpt lat="40.790627" lon="-3.773096">
        <ele>1046.03</ele>
        <time>2022-06-19T05:55:09+00:00</time>
      </trkpt>
      <trkpt lat="40.790713" lon="-3.773181">
        <ele>1045.55</ele>
        <time>2022-06-19T05:55:10+00:00</time>
      </trkpt>
      <trkpt lat="40.790799" lon="-3.773289">
        <ele>1045.55</ele>
        <time>2022-06-19T05:55:11+00:00</time>
      </trkpt>
      <trkpt lat="40.790885" lon="-3.773375">
        <ele>1045.55</ele>
        <time>2022-06-19T05:55:12+00:00</time>
      </trkpt>
      <trkpt lat="40.790949" lon="-3.773460">
        <ele>1045.55</ele>
        <time>2022-06-19T05:55:13+00:00</time>
      </trkpt>
      <trkpt lat="40.791014" lon="-3.773589">
        <ele>1045.07</ele>
        <time>2022-06-19T05:55:14+00:00</time>
      </trkpt>
      <trkpt lat="40.791057" lon="-3.773696">
        <ele>1045.07</ele>
        <time>2022-06-19T05:55:15+00:00</time>
      </trkpt>
      <trkpt lat="40.791100" lon="-3.773825">
        <ele>1044.59</ele>
        <time>2022-06-19T05:55:16+00:00</time>
      </trkpt>
      <trkpt lat="40.791228" lon="-3.774405">
        <ele>1043.63</ele>
        <time>2022-06-19T05:55:20+00:00</time>
      </trkpt>
      <trkpt lat="40.791271" lon="-3.774555">
        <ele>1043.63</ele>
        <time>2022-06-19T05:55:21+00:00</time>
      </trkpt>
      <trkpt lat="40.791271" lon="-3.774726">
        <ele>1043.63</ele>
        <time>2022-06-19T05:55:22+00:00</time>
      </trkpt>
      <trkpt lat="40.791250" lon="-3.775070">
        <ele>1043.63</ele>
        <time>2022-06-19T05:55:24+00:00</time>
      </trkpt>
      <trkpt lat="40.791228" lon="-3.775756">
        <ele>1042.67</ele>
        <time>2022-06-19T05:55:29+00:00</time>
      </trkpt>
      <trkpt lat="40.791250" lon="-3.775864">
        <ele>1042.19</ele>
        <time>2022-06-19T05:55:30+00:00</time>
      </trkpt>
      <trkpt lat="40.791293" lon="-3.775928">
        <ele>1041.71</ele>
        <time>2022-06-19T05:55:31+00:00</time>
      </trkpt>
      <trkpt lat="40.791336" lon="-3.775950">
        <ele>1041.71</ele>
        <time>2022-06-19T05:55:32+00:00</time>
      </trkpt>
      <trkpt lat="40.791443" lon="-3.775971">
        <ele>1041.71</ele>
        <time>2022-06-19T05:55:33+00:00</time>
      </trkpt>
      <trkpt lat="40.791529" lon="-3.775928">
        <ele>1042.67</ele>
        <time>2022-06-19T05:55:34+00:00</time>
      </trkpt>
      <trkpt lat="40.791636" lon="-3.775885">
        <ele>1043.15</ele>
        <time>2022-06-19T05:55:35+00:00</time>
      </trkpt>
      <trkpt lat="40.791743" lon="-3.775821">
        <ele>1044.11</ele>
        <time>2022-06-19T05:55:36+00:00</time>
      </trkpt>
      <trkpt lat="40.793138" lon="-3.775113">
        <ele>1050.36</ele>
        <time>2022-06-19T05:55:46+00:00</time>
      </trkpt>
      <trkpt lat="40.793889" lon="-3.774791">
        <ele>1052.76</ele>
        <time>2022-06-19T05:55:51+00:00</time>
      </trkpt>
      <trkpt lat="40.794061" lon="-3.774769">
        <ele>1052.76</ele>
        <time>2022-06-19T05:55:52+00:00</time>
      </trkpt>
      <trkpt lat="40.795177" lon="-3.774812">
        <ele>1052.28</ele>
        <time>2022-06-19T05:55:57+00:00</time>
      </trkpt>
      <trkpt lat="40.797086" lon="-3.774898">
        <ele>1048.92</ele>
        <time>2022-06-19T05:56:05+00:00</time>
      </trkpt>
      <trkpt lat="40.798975" lon="-3.774962">
        <ele>1057.57</ele>
        <time>2022-06-19T05:56:13+00:00</time>
      </trkpt>
      <trkpt lat="40.801099" lon="-3.775027">
        <ele>1066.70</ele>
        <time>2022-06-19T05:56:22+00:00</time>
      </trkpt>
      <trkpt lat="40.801828" lon="-3.775070">
        <ele>1071.99</ele>
        <time>2022-06-19T05:56:26+00:00</time>
      </trkpt>
      <trkpt lat="40.801979" lon="-3.775134">
        <ele>1072.95</ele>
        <time>2022-06-19T05:56:27+00:00</time>
      </trkpt>
      <trkpt lat="40.803116" lon="-3.775477">
        <ele>1074.87</ele>
        <time>2022-06-19T05:56:35+00:00</time>
      </trkpt>
      <trkpt lat="40.803223" lon="-3.775456">
        <ele>1074.87</ele>
        <time>2022-06-19T05:56:36+00:00</time>
      </trkpt>
      <trkpt lat="40.803288" lon="-3.775370">
        <ele>1074.39</ele>
        <time>2022-06-19T05:56:37+00:00</time>
      </trkpt>
      <trkpt lat="40.803330" lon="-3.775263">
        <ele>1074.87</ele>
        <time>2022-06-19T05:56:38+00:00</time>
      </trkpt>
      <trkpt lat="40.803330" lon="-3.775091">
        <ele>1074.87</ele>
        <time>2022-06-19T05:56:39+00:00</time>
      </trkpt>
      <trkpt lat="40.803330" lon="-3.774941">
        <ele>1074.87</ele>
        <time>2022-06-19T05:56:40+00:00</time>
      </trkpt>
      <trkpt lat="40.803266" lon="-3.774748">
        <ele>1075.35</ele>
        <time>2022-06-19T05:56:41+00:00</time>
      </trkpt>
      <trkpt lat="40.803223" lon="-3.774555">
        <ele>1075.83</ele>
        <time>2022-06-19T05:56:42+00:00</time>
      </trkpt>
      <trkpt lat="40.803094" lon="-3.773975">
        <ele>1078.24</ele>
        <time>2022-06-19T05:56:45+00:00</time>
      </trkpt>
      <trkpt lat="40.803073" lon="-3.773804">
        <ele>1078.72</ele>
        <time>2022-06-19T05:56:46+00:00</time>
      </trkpt>
      <trkpt lat="40.803073" lon="-3.773632">
        <ele>1079.68</ele>
        <time>2022-06-19T05:56:47+00:00</time>
      </trkpt>
      <trkpt lat="40.803116" lon="-3.773482">
        <ele>1080.16</ele>
        <time>2022-06-19T05:56:48+00:00</time>
      </trkpt>
      <trkpt lat="40.803180" lon="-3.773353">
        <ele>1081.12</ele>
        <time>2022-06-19T05:56:49+00:00</time>
      </trkpt>
      <trkpt lat="40.803245" lon="-3.773181">
        <ele>1081.60</ele>
        <time>2022-06-19T05:56:50+00:00</time>
      </trkpt>
      <trkpt lat="40.803330" lon="-3.773031">
        <ele>1082.08</ele>
        <time>2022-06-19T05:56:51+00:00</time>
      </trkpt>
      <trkpt lat="40.803438" lon="-3.772924">
        <ele>1082.56</ele>
        <time>2022-06-19T05:56:52+00:00</time>
      </trkpt>
      <trkpt lat="40.803566" lon="-3.772795">
        <ele>1083.52</ele>
        <time>2022-06-19T05:56:53+00:00</time>
      </trkpt>
      <trkpt lat="40.803717" lon="-3.772666">
        <ele>1084.00</ele>
        <time>2022-06-19T05:56:54+00:00</time>
      </trkpt>
      <trkpt lat="40.805326" lon="-3.771529">
        <ele>1090.73</ele>
        <time>2022-06-19T05:57:06+00:00</time>
      </trkpt>
      <trkpt lat="40.806034" lon="-3.771079">
        <ele>1092.66</ele>
        <time>2022-06-19T05:57:13+00:00</time>
      </trkpt>
      <trkpt lat="40.806163" lon="-3.771036">
        <ele>1092.66</ele>
        <time>2022-06-19T05:57:14+00:00</time>
      </trkpt>
      <trkpt lat="40.806592" lon="-3.770950">
        <ele>1092.66</ele>
        <time>2022-06-19T05:57:17+00:00</time>
      </trkpt>
      <trkpt lat="40.806742" lon="-3.770971">
        <ele>1092.66</ele>
        <time>2022-06-19T05:57:18+00:00</time>
      </trkpt>
      <trkpt lat="40.806892" lon="-3.771036">
        <ele>1092.18</ele>
        <time>2022-06-19T05:57:19+00:00</time>
      </trkpt>
      <trkpt lat="40.807043" lon="-3.771100">
        <ele>1091.69</ele>
        <time>2022-06-19T05:57:20+00:00</time>
      </trkpt>
      <trkpt lat="40.807193" lon="-3.771207">
        <ele>1091.69</ele>
        <time>2022-06-19T05:57:21+00:00</time>
      </trkpt>
      <trkpt lat="40.808630" lon="-3.772001">
        <ele>1093.14</ele>
        <time>2022-06-19T05:57:30+00:00</time>
      </trkpt>
      <trkpt lat="40.809725" lon="-3.772688">
        <ele>1096.02</ele>
        <time>2022-06-19T05:57:38+00:00</time>
      </trkpt>
      <trkpt lat="40.809811" lon="-3.772795">
        <ele>1096.02</ele>
        <time>2022-06-19T05:57:39+00:00</time>
      </trkpt>
      <trkpt lat="40.809854" lon="-3.772945">
        <ele>1096.50</ele>
        <time>2022-06-19T05:57:40+00:00</time>
      </trkpt>
      <trkpt lat="40.809896" lon="-3.773096">
        <ele>1096.98</ele>
        <time>2022-06-19T05:57:41+00:00</time>
      </trkpt>
      <trkpt lat="40.809939" lon="-3.773224">
        <ele>1096.98</ele>
        <time>2022-06-19T05:57:42+00:00</time>
      </trkpt>
      <trkpt lat="40.809982" lon="-3.773267">
        <ele>1096.98</ele>
        <time>2022-06-19T05:57:43+00:00</time>
      </trkpt>
      <trkpt lat="40.810047" lon="-3.773310">
        <ele>1097.46</ele>
        <time>2022-06-19T05:57:44+00:00</time>
      </trkpt>
      <trkpt lat="40.810133" lon="-3.773289">
        <ele>1097.46</ele>
        <time>2022-06-19T05:57:45+00:00</time>
      </trkpt>
      <trkpt lat="40.810240" lon="-3.773267">
        <ele>1097.46</ele>
        <time>2022-06-19T05:57:46+00:00</time>
      </trkpt>
      <trkpt lat="40.810326" lon="-3.773181">
        <ele>1097.46</ele>
        <time>2022-06-19T05:57:47+00:00</time>
      </trkpt>
      <trkpt lat="40.810369" lon="-3.773074">
        <ele>1097.94</ele>
        <time>2022-06-19T05:57:48+00:00</time>
      </trkpt>
      <trkpt lat="40.810390" lon="-3.772945">
        <ele>1098.42</ele>
        <time>2022-06-19T05:57:49+00:00</time>
      </trkpt>
      <trkpt lat="40.810390" lon="-3.772774">
        <ele>1098.90</ele>
        <time>2022-06-19T05:57:50+00:00</time>
      </trkpt>
      <trkpt lat="40.810369" lon="-3.772581">
        <ele>1099.39</ele>
        <time>2022-06-19T05:57:51+00:00</time>
      </trkpt>
      <trkpt lat="40.810347" lon="-3.772409">
        <ele>1099.87</ele>
        <time>2022-06-19T05:57:52+00:00</time>
      </trkpt>
      <trkpt lat="40.810047" lon="-3.771122">
        <ele>1105.63</ele>
        <time>2022-06-19T05:57:59+00:00</time>
      </trkpt>
      <trkpt lat="40.810025" lon="-3.770993">
        <ele>1107.08</ele>
        <time>2022-06-19T05:58:00+00:00</time>
      </trkpt>
      <trkpt lat="40.810004" lon="-3.770843">
        <ele>1107.56</ele>
        <time>2022-06-19T05:58:01+00:00</time>
      </trkpt>
      <trkpt lat="40.810025" lon="-3.770692">
        <ele>1108.52</ele>
        <time>2022-06-19T05:58:02+00:00</time>
      </trkpt>
      <trkpt lat="40.810025" lon="-3.770521">
        <ele>1109.48</ele>
        <time>2022-06-19T05:58:03+00:00</time>
      </trkpt>
      <trkpt lat="40.810068" lon="-3.770392">
        <ele>1110.44</ele>
        <time>2022-06-19T05:58:04+00:00</time>
      </trkpt>
      <trkpt lat="40.810090" lon="-3.770263">
        <ele>1111.40</ele>
        <time>2022-06-19T05:58:05+00:00</time>
      </trkpt>
      <trkpt lat="40.810133" lon="-3.770156">
        <ele>1112.36</ele>
        <time>2022-06-19T05:58:06+00:00</time>
      </trkpt>
      <trkpt lat="40.810197" lon="-3.770049">
        <ele>1113.32</ele>
        <time>2022-06-19T05:58:07+00:00</time>
      </trkpt>
      <trkpt lat="40.810261" lon="-3.769963">
        <ele>1114.29</ele>
        <time>2022-06-19T05:58:08+00:00</time>
      </trkpt>
      <trkpt lat="40.810347" lon="-3.769898">
        <ele>1115.25</ele>
        <time>2022-06-19T05:58:09+00:00</time>
      </trkpt>
      <trkpt lat="40.810454" lon="-3.769813">
        <ele>1115.73</ele>
        <time>2022-06-19T05:58:10+00:00</time>
      </trkpt>
      <trkpt lat="40.810562" lon="-3.769748">
        <ele>1116.69</ele>
        <time>2022-06-19T05:58:11+00:00</time>
      </trkpt>
      <trkpt lat="40.812085" lon="-3.768826">
        <ele>1128.71</ele>
        <time>2022-06-19T05:58:23+00:00</time>
      </trkpt>
      <trkpt lat="40.812407" lon="-3.768611">
        <ele>1131.11</ele>
        <time>2022-06-19T05:58:26+00:00</time>
      </trkpt>
      <trkpt lat="40.812471" lon="-3.768547">
        <ele>1131.59</ele>
        <time>2022-06-19T05:58:27+00:00</time>
      </trkpt>
      <trkpt lat="40.812772" lon="-3.768289">
        <ele>1133.51</ele>
        <time>2022-06-19T05:58:31+00:00</time>
      </trkpt>
      <trkpt lat="40.812836" lon="-3.768225">
        <ele>1134.47</ele>
        <time>2022-06-19T05:58:32+00:00</time>
      </trkpt>
      <trkpt lat="40.812922" lon="-3.768246">
        <ele>1134.95</ele>
        <time>2022-06-19T05:58:33+00:00</time>
      </trkpt>
      <trkpt lat="40.812965" lon="-3.768246">
        <ele>1135.43</ele>
        <time>2022-06-19T05:58:34+00:00</time>
      </trkpt>
      <trkpt lat="40.813008" lon="-3.768311">
        <ele>1136.40</ele>
        <time>2022-06-19T05:58:35+00:00</time>
      </trkpt>
      <trkpt lat="40.813051" lon="-3.768375">
        <ele>1136.88</ele>
        <time>2022-06-19T05:58:36+00:00</time>
      </trkpt>
      <trkpt lat="40.813094" lon="-3.768461">
        <ele>1137.84</ele>
        <time>2022-06-19T05:58:37+00:00</time>
      </trkpt>
      <trkpt lat="40.813072" lon="-3.768568">
        <ele>1138.32</ele>
        <time>2022-06-19T05:58:38+00:00</time>
      </trkpt>
      <trkpt lat="40.813051" lon="-3.768654">
        <ele>1138.80</ele>
        <time>2022-06-19T05:58:39+00:00</time>
      </trkpt>
      <trkpt lat="40.813051" lon="-3.768740">
        <ele>1139.28</ele>
        <time>2022-06-19T05:58:40+00:00</time>
      </trkpt>
      <trkpt lat="40.813051" lon="-3.768868">
        <ele>1139.76</ele>
        <time>2022-06-19T05:58:41+00:00</time>
      </trkpt>
      <trkpt lat="40.813072" lon="-3.768976">
        <ele>1140.24</ele>
        <time>2022-06-19T05:58:42+00:00</time>
      </trkpt>
      <trkpt lat="40.813072" lon="-3.769105">
        <ele>1140.24</ele>
        <time>2022-06-19T05:58:43+00:00</time>
      </trkpt>
      <trkpt lat="40.813115" lon="-3.769212">
        <ele>1140.24</ele>
        <time>2022-06-19T05:58:44+00:00</time>
      </trkpt>
      <trkpt lat="40.813158" lon="-3.769298">
        <ele>1140.72</ele>
        <time>2022-06-19T05:58:45+00:00</time>
      </trkpt>
      <trkpt lat="40.813222" lon="-3.769405">
        <ele>1141.20</ele>
        <time>2022-06-19T05:58:46+00:00</time>
      </trkpt>
      <trkpt lat="40.813265" lon="-3.769491">
        <ele>1141.68</ele>
        <time>2022-06-19T05:58:47+00:00</time>
      </trkpt>
      <trkpt lat="40.813330" lon="-3.769598">
        <ele>1142.64</ele>
        <time>2022-06-19T05:58:48+00:00</time>
      </trkpt>
      <trkpt lat="40.813566" lon="-3.769941">
        <ele>1147.93</ele>
        <time>2022-06-19T05:58:52+00:00</time>
      </trkpt>
      <trkpt lat="40.813630" lon="-3.770006">
        <ele>1149.37</ele>
        <time>2022-06-19T05:58:53+00:00</time>
      </trkpt>
      <trkpt lat="40.813673" lon="-3.770027">
        <ele>1150.82</ele>
        <time>2022-06-19T05:58:54+00:00</time>
      </trkpt>
      <trkpt lat="40.813737" lon="-3.770006">
        <ele>1152.74</ele>
        <time>2022-06-19T05:58:55+00:00</time>
      </trkpt>
      <trkpt lat="40.813845" lon="-3.770006">
        <ele>1154.18</ele>
        <time>2022-06-19T05:58:56+00:00</time>
      </trkpt>
      <trkpt lat="40.813931" lon="-3.769984">
        <ele>1156.10</ele>
        <time>2022-06-19T05:58:57+00:00</time>
      </trkpt>
      <trkpt lat="40.814059" lon="-3.769963">
        <ele>1157.54</ele>
        <time>2022-06-19T05:58:58+00:00</time>
      </trkpt>
      <trkpt lat="40.814167" lon="-3.769941">
        <ele>1159.47</ele>
        <time>2022-06-19T05:58:59+00:00</time>
      </trkpt>
      <trkpt lat="40.814295" lon="-3.769920">
        <ele>1160.91</ele>
        <time>2022-06-19T05:59:00+00:00</time>
      </trkpt>
      <trkpt lat="40.814724" lon="-3.769791">
        <ele>1166.20</ele>
        <time>2022-06-19T05:59:04+00:00</time>
      </trkpt>
      <trkpt lat="40.814810" lon="-3.769705">
        <ele>1167.64</ele>
        <time>2022-06-19T05:59:05+00:00</time>
      </trkpt>
      <trkpt lat="40.814875" lon="-3.769620">
        <ele>1169.08</ele>
        <time>2022-06-19T05:59:06+00:00</time>
      </trkpt>
      <trkpt lat="40.814939" lon="-3.769512">
        <ele>1170.04</ele>
        <time>2022-06-19T05:59:07+00:00</time>
      </trkpt>
      <trkpt lat="40.814982" lon="-3.769383">
        <ele>1171.00</ele>
        <time>2022-06-19T05:59:08+00:00</time>
      </trkpt>
      <trkpt lat="40.815025" lon="-3.769255">
        <ele>1171.96</ele>
        <time>2022-06-19T05:59:09+00:00</time>
      </trkpt>
      <trkpt lat="40.815433" lon="-3.767967">
        <ele>1176.29</ele>
        <time>2022-06-19T05:59:18+00:00</time>
      </trkpt>
      <trkpt lat="40.815776" lon="-3.766787">
        <ele>1180.14</ele>
        <time>2022-06-19T05:59:26+00:00</time>
      </trkpt>
      <trkpt lat="40.816141" lon="-3.765242">
        <ele>1186.86</ele>
        <time>2022-06-19T05:59:35+00:00</time>
      </trkpt>
      <trkpt lat="40.816463" lon="-3.764319">
        <ele>1189.75</ele>
        <time>2022-06-19T05:59:42+00:00</time>
      </trkpt>
      <trkpt lat="40.816591" lon="-3.764083">
        <ele>1189.75</ele>
        <time>2022-06-19T05:59:44+00:00</time>
      </trkpt>
      <trkpt lat="40.816677" lon="-3.763976">
        <ele>1189.75</ele>
        <time>2022-06-19T05:59:45+00:00</time>
      </trkpt>
      <trkpt lat="40.816784" lon="-3.763912">
        <ele>1189.75</ele>
        <time>2022-06-19T05:59:46+00:00</time>
      </trkpt>
      <trkpt lat="40.816892" lon="-3.763826">
        <ele>1189.75</ele>
        <time>2022-06-19T05:59:47+00:00</time>
      </trkpt>
      <trkpt lat="40.817020" lon="-3.763740">
        <ele>1190.23</ele>
        <time>2022-06-19T05:59:48+00:00</time>
      </trkpt>
      <trkpt lat="40.818222" lon="-3.763096">
        <ele>1197.44</ele>
        <time>2022-06-19T05:59:58+00:00</time>
      </trkpt>
      <trkpt lat="40.818351" lon="-3.763096">
        <ele>1197.92</ele>
        <time>2022-06-19T05:59:59+00:00</time>
      </trkpt>
      <trkpt lat="40.818480" lon="-3.763075">
        <ele>1198.88</ele>
        <time>2022-06-19T06:00:00+00:00</time>
      </trkpt>
      <trkpt lat="40.819445" lon="-3.762989">
        <ele>1205.61</ele>
        <time>2022-06-19T06:00:07+00:00</time>
      </trkpt>
      <trkpt lat="40.819595" lon="-3.762925">
        <ele>1207.05</ele>
        <time>2022-06-19T06:00:08+00:00</time>
      </trkpt>
      <trkpt lat="40.819703" lon="-3.762860">
        <ele>1208.01</ele>
        <time>2022-06-19T06:00:09+00:00</time>
      </trkpt>
      <trkpt lat="40.819788" lon="-3.762775">
        <ele>1208.97</ele>
        <time>2022-06-19T06:00:10+00:00</time>
      </trkpt>
      <trkpt lat="40.819874" lon="-3.762667">
        <ele>1209.94</ele>
        <time>2022-06-19T06:00:11+00:00</time>
      </trkpt>
      <trkpt lat="40.819939" lon="-3.762538">
        <ele>1211.38</ele>
        <time>2022-06-19T06:00:12+00:00</time>
      </trkpt>
      <trkpt lat="40.819982" lon="-3.762388">
        <ele>1212.34</ele>
        <time>2022-06-19T06:00:13+00:00</time>
      </trkpt>
      <trkpt lat="40.820046" lon="-3.762217">
        <ele>1213.30</ele>
        <time>2022-06-19T06:00:14+00:00</time>
      </trkpt>
      <trkpt lat="40.820089" lon="-3.762045">
        <ele>1214.26</ele>
        <time>2022-06-19T06:00:15+00:00</time>
      </trkpt>
      <trkpt lat="40.820153" lon="-3.761895">
        <ele>1215.22</ele>
        <time>2022-06-19T06:00:16+00:00</time>
      </trkpt>
      <trkpt lat="40.820218" lon="-3.761723">
        <ele>1216.18</ele>
        <time>2022-06-19T06:00:17+00:00</time>
      </trkpt>
      <trkpt lat="40.820303" lon="-3.761573">
        <ele>1217.15</ele>
        <time>2022-06-19T06:00:18+00:00</time>
      </trkpt>
      <trkpt lat="40.820432" lon="-3.761272">
        <ele>1219.55</ele>
        <time>2022-06-19T06:00:20+00:00</time>
      </trkpt>
      <trkpt lat="40.820454" lon="-3.761101">
        <ele>1220.51</ele>
        <time>2022-06-19T06:00:21+00:00</time>
      </trkpt>
      <trkpt lat="40.820475" lon="-3.760929">
        <ele>1221.47</ele>
        <time>2022-06-19T06:00:22+00:00</time>
      </trkpt>
      <trkpt lat="40.820518" lon="-3.760629">
        <ele>1222.91</ele>
        <time>2022-06-19T06:00:24+00:00</time>
      </trkpt>
      <trkpt lat="40.820561" lon="-3.760479">
        <ele>1223.39</ele>
        <time>2022-06-19T06:00:25+00:00</time>
      </trkpt>
      <trkpt lat="40.820625" lon="-3.760393">
        <ele>1223.87</ele>
        <time>2022-06-19T06:00:26+00:00</time>
      </trkpt>
      <trkpt lat="40.820690" lon="-3.760307">
        <ele>1224.84</ele>
        <time>2022-06-19T06:00:27+00:00</time>
      </trkpt>
      <trkpt lat="40.820776" lon="-3.760221">
        <ele>1225.32</ele>
        <time>2022-06-19T06:00:28+00:00</time>
      </trkpt>
      <trkpt lat="40.820883" lon="-3.760178">
        <ele>1225.80</ele>
        <time>2022-06-19T06:00:29+00:00</time>
      </trkpt>
      <trkpt lat="40.821012" lon="-3.760135">
        <ele>1226.76</ele>
        <time>2022-06-19T06:00:30+00:00</time>
      </trkpt>
      <trkpt lat="40.821119" lon="-3.760092">
        <ele>1227.24</ele>
        <time>2022-06-19T06:00:31+00:00</time>
      </trkpt>
      <trkpt lat="40.821248" lon="-3.760135">
        <ele>1227.72</ele>
        <time>2022-06-19T06:00:32+00:00</time>
      </trkpt>
      <trkpt lat="40.821376" lon="-3.760157">
        <ele>1228.68</ele>
        <time>2022-06-19T06:00:33+00:00</time>
      </trkpt>
      <trkpt lat="40.821527" lon="-3.760221">
        <ele>1229.16</ele>
        <time>2022-06-19T06:00:34+00:00</time>
      </trkpt>
      <trkpt lat="40.822793" lon="-3.760994">
        <ele>1237.81</ele>
        <time>2022-06-19T06:00:43+00:00</time>
      </trkpt>
      <trkpt lat="40.823844" lon="-3.761873">
        <ele>1242.14</ele>
        <time>2022-06-19T06:00:50+00:00</time>
      </trkpt>
      <trkpt lat="40.825732" lon="-3.763268">
        <ele>1247.43</ele>
        <time>2022-06-19T06:01:01+00:00</time>
      </trkpt>
      <trkpt lat="40.827342" lon="-3.764513">
        <ele>1251.27</ele>
        <time>2022-06-19T06:01:10+00:00</time>
      </trkpt>
      <trkpt lat="40.828822" lon="-3.765628">
        <ele>1253.68</ele>
        <time>2022-06-19T06:01:18+00:00</time>
      </trkpt>
      <trkpt lat="40.829916" lon="-3.766787">
        <ele>1258.00</ele>
        <time>2022-06-19T06:01:25+00:00</time>
      </trkpt>
      <trkpt lat="40.831290" lon="-3.767903">
        <ele>1262.81</ele>
        <time>2022-06-19T06:01:34+00:00</time>
      </trkpt>
      <trkpt lat="40.832127" lon="-3.769019">
        <ele>1261.85</ele>
        <time>2022-06-19T06:01:40+00:00</time>
      </trkpt>
      <trkpt lat="40.832534" lon="-3.769598">
        <ele>1265.69</ele>
        <time>2022-06-19T06:01:44+00:00</time>
      </trkpt>
      <trkpt lat="40.832642" lon="-3.769684">
        <ele>1267.13</ele>
        <time>2022-06-19T06:01:45+00:00</time>
      </trkpt>
      <trkpt lat="40.832727" lon="-3.769770">
        <ele>1268.58</ele>
        <time>2022-06-19T06:01:46+00:00</time>
      </trkpt>
      <trkpt lat="40.832856" lon="-3.769834">
        <ele>1270.02</ele>
        <time>2022-06-19T06:01:47+00:00</time>
      </trkpt>
      <trkpt lat="40.833006" lon="-3.769877">
        <ele>1271.46</ele>
        <time>2022-06-19T06:01:48+00:00</time>
      </trkpt>
      <trkpt lat="40.833135" lon="-3.769920">
        <ele>1273.38</ele>
        <time>2022-06-19T06:01:49+00:00</time>
      </trkpt>
      <trkpt lat="40.833285" lon="-3.769898">
        <ele>1274.34</ele>
        <time>2022-06-19T06:01:50+00:00</time>
      </trkpt>
      <trkpt lat="40.833457" lon="-3.769898">
        <ele>1275.79</ele>
        <time>2022-06-19T06:01:51+00:00</time>
      </trkpt>
      <trkpt lat="40.833650" lon="-3.769877">
        <ele>1276.75</ele>
        <time>2022-06-19T06:01:52+00:00</time>
      </trkpt>
      <trkpt lat="40.833822" lon="-3.769856">
        <ele>1277.71</ele>
        <time>2022-06-19T06:01:53+00:00</time>
      </trkpt>
      <trkpt lat="40.833993" lon="-3.769877">
        <ele>1277.71</ele>
        <time>2022-06-19T06:01:54+00:00</time>
      </trkpt>
      <trkpt lat="40.835603" lon="-3.770049">
        <ele>1277.71</ele>
        <time>2022-06-19T06:02:03+00:00</time>
      </trkpt>
      <trkpt lat="40.835732" lon="-3.770006">
        <ele>1276.75</ele>
        <time>2022-06-19T06:02:04+00:00</time>
      </trkpt>
      <trkpt lat="40.835860" lon="-3.769920">
        <ele>1275.79</ele>
        <time>2022-06-19T06:02:05+00:00</time>
      </trkpt>
      <trkpt lat="40.836010" lon="-3.769813">
        <ele>1275.30</ele>
        <time>2022-06-19T06:02:06+00:00</time>
      </trkpt>
      <trkpt lat="40.837341" lon="-3.768697">
        <ele>1268.10</ele>
        <time>2022-06-19T06:02:15+00:00</time>
      </trkpt>
      <trkpt lat="40.837491" lon="-3.768590">
        <ele>1267.13</ele>
        <time>2022-06-19T06:02:16+00:00</time>
      </trkpt>
      <trkpt lat="40.837684" lon="-3.768525">
        <ele>1266.65</ele>
        <time>2022-06-19T06:02:17+00:00</time>
      </trkpt>
      <trkpt lat="40.838435" lon="-3.768096">
        <ele>1262.81</ele>
        <time>2022-06-19T06:02:21+00:00</time>
      </trkpt>
      <trkpt lat="40.838607" lon="-3.767946">
        <ele>1261.85</ele>
        <time>2022-06-19T06:02:22+00:00</time>
      </trkpt>
      <trkpt lat="40.839293" lon="-3.767324">
        <ele>1261.37</ele>
        <time>2022-06-19T06:02:27+00:00</time>
      </trkpt>
      <trkpt lat="40.839444" lon="-3.767281">
        <ele>1261.37</ele>
        <time>2022-06-19T06:02:28+00:00</time>
      </trkpt>
      <trkpt lat="40.839594" lon="-3.767238">
        <ele>1261.37</ele>
        <time>2022-06-19T06:02:29+00:00</time>
      </trkpt>
      <trkpt lat="40.840881" lon="-3.767045">
        <ele>1257.52</ele>
        <time>2022-06-19T06:02:36+00:00</time>
      </trkpt>
      <trkpt lat="40.841353" lon="-3.766959">
        <ele>1254.64</ele>
        <time>2022-06-19T06:02:39+00:00</time>
      </trkpt>
      <trkpt lat="40.841504" lon="-3.766873">
        <ele>1254.16</ele>
        <time>2022-06-19T06:02:40+00:00</time>
      </trkpt>
      <trkpt lat="40.841911" lon="-3.766615">
        <ele>1253.19</ele>
        <time>2022-06-19T06:02:43+00:00</time>
      </trkpt>
      <trkpt lat="40.842040" lon="-3.766551">
        <ele>1253.19</ele>
        <time>2022-06-19T06:02:44+00:00</time>
      </trkpt>
      <trkpt lat="40.842190" lon="-3.766487">
        <ele>1252.71</ele>
        <time>2022-06-19T06:02:45+00:00</time>
      </trkpt>
      <trkpt lat="40.843156" lon="-3.766251">
        <ele>1251.27</ele>
        <time>2022-06-19T06:02:51+00:00</time>
      </trkpt>
      <trkpt lat="40.843242" lon="-3.766165">
        <ele>1250.79</ele>
        <time>2022-06-19T06:02:52+00:00</time>
      </trkpt>
      <trkpt lat="40.843328" lon="-3.766100">
        <ele>1250.31</ele>
        <time>2022-06-19T06:02:53+00:00</time>
      </trkpt>
      <trkpt lat="40.843392" lon="-3.765972">
        <ele>1249.83</ele>
        <time>2022-06-19T06:02:54+00:00</time>
      </trkpt>
      <trkpt lat="40.843456" lon="-3.765864">
        <ele>1249.83</ele>
        <time>2022-06-19T06:02:55+00:00</time>
      </trkpt>
      <trkpt lat="40.843521" lon="-3.765714">
        <ele>1249.83</ele>
        <time>2022-06-19T06:02:56+00:00</time>
      </trkpt>
      <trkpt lat="40.843735" lon="-3.765349">
        <ele>1249.35</ele>
        <time>2022-06-19T06:02:59+00:00</time>
      </trkpt>
      <trkpt lat="40.843821" lon="-3.765264">
        <ele>1249.35</ele>
        <time>2022-06-19T06:03:00+00:00</time>
      </trkpt>
      <trkpt lat="40.843928" lon="-3.765199">
        <ele>1249.35</ele>
        <time>2022-06-19T06:03:01+00:00</time>
      </trkpt>
      <trkpt lat="40.844036" lon="-3.765135">
        <ele>1249.35</ele>
        <time>2022-06-19T06:03:02+00:00</time>
      </trkpt>
      <trkpt lat="40.844143" lon="-3.765113">
        <ele>1249.83</ele>
        <time>2022-06-19T06:03:03+00:00</time>
      </trkpt>
      <trkpt lat="40.844250" lon="-3.765092">
        <ele>1249.83</ele>
        <time>2022-06-19T06:03:04+00:00</time>
      </trkpt>
      <trkpt lat="40.844357" lon="-3.765113">
        <ele>1249.83</ele>
        <time>2022-06-19T06:03:05+00:00</time>
      </trkpt>
      <trkpt lat="40.844465" lon="-3.765156">
        <ele>1249.83</ele>
        <time>2022-06-19T06:03:06+00:00</time>
      </trkpt>
      <trkpt lat="40.844572" lon="-3.765178">
        <ele>1249.83</ele>
        <time>2022-06-19T06:03:07+00:00</time>
      </trkpt>
      <trkpt lat="40.844894" lon="-3.765221">
        <ele>1250.31</ele>
        <time>2022-06-19T06:03:10+00:00</time>
      </trkpt>
      <trkpt lat="40.845044" lon="-3.765199">
        <ele>1250.79</ele>
        <time>2022-06-19T06:03:11+00:00</time>
      </trkpt>
      <trkpt lat="40.845817" lon="-3.764834">
        <ele>1256.08</ele>
        <time>2022-06-19T06:03:16+00:00</time>
      </trkpt>
      <trkpt lat="40.846439" lon="-3.764620">
        <ele>1261.37</ele>
        <time>2022-06-19T06:03:21+00:00</time>
      </trkpt>
      <trkpt lat="40.846568" lon="-3.764620">
        <ele>1262.81</ele>
        <time>2022-06-19T06:03:22+00:00</time>
      </trkpt>
      <trkpt lat="40.846696" lon="-3.764641">
        <ele>1263.77</ele>
        <time>2022-06-19T06:03:23+00:00</time>
      </trkpt>
      <trkpt lat="40.846825" lon="-3.764706">
        <ele>1264.73</ele>
        <time>2022-06-19T06:03:24+00:00</time>
      </trkpt>
      <trkpt lat="40.846954" lon="-3.764813">
        <ele>1265.69</ele>
        <time>2022-06-19T06:03:25+00:00</time>
      </trkpt>
      <trkpt lat="40.847083" lon="-3.764963">
        <ele>1266.65</ele>
        <time>2022-06-19T06:03:26+00:00</time>
      </trkpt>
      <trkpt lat="40.847211" lon="-3.765135">
        <ele>1268.10</ele>
        <time>2022-06-19T06:03:27+00:00</time>
      </trkpt>
      <trkpt lat="40.848177" lon="-3.766272">
        <ele>1281.07</ele>
        <time>2022-06-19T06:03:34+00:00</time>
      </trkpt>
      <trkpt lat="40.848263" lon="-3.766379">
        <ele>1282.51</ele>
        <time>2022-06-19T06:03:35+00:00</time>
      </trkpt>
      <trkpt lat="40.848370" lon="-3.766422">
        <ele>1284.44</ele>
        <time>2022-06-19T06:03:36+00:00</time>
      </trkpt>
      <trkpt lat="40.848434" lon="-3.766422">
        <ele>1285.88</ele>
        <time>2022-06-19T06:03:37+00:00</time>
      </trkpt>
      <trkpt lat="40.848520" lon="-3.766401">
        <ele>1287.32</ele>
        <time>2022-06-19T06:03:38+00:00</time>
      </trkpt>
      <trkpt lat="40.848628" lon="-3.766294">
        <ele>1288.76</ele>
        <time>2022-06-19T06:03:39+00:00</time>
      </trkpt>
      <trkpt lat="40.848735" lon="-3.766186">
        <ele>1290.21</ele>
        <time>2022-06-19T06:03:40+00:00</time>
      </trkpt>
      <trkpt lat="40.848842" lon="-3.766079">
        <ele>1291.17</ele>
        <time>2022-06-19T06:03:41+00:00</time>
      </trkpt>
      <trkpt lat="40.848949" lon="-3.765972">
        <ele>1292.13</ele>
        <time>2022-06-19T06:03:42+00:00</time>
      </trkpt>
      <trkpt lat="40.849100" lon="-3.765907">
        <ele>1292.61</ele>
        <time>2022-06-19T06:03:43+00:00</time>
      </trkpt>
      <trkpt lat="40.849250" lon="-3.765864">
        <ele>1293.09</ele>
        <time>2022-06-19T06:03:44+00:00</time>
      </trkpt>
      <trkpt lat="40.849422" lon="-3.765800">
        <ele>1294.05</ele>
        <time>2022-06-19T06:03:45+00:00</time>
      </trkpt>
      <trkpt lat="40.850001" lon="-3.765650">
        <ele>1296.93</ele>
        <time>2022-06-19T06:03:49+00:00</time>
      </trkpt>
      <trkpt lat="40.850151" lon="-3.765671">
        <ele>1297.42</ele>
        <time>2022-06-19T06:03:50+00:00</time>
      </trkpt>
      <trkpt lat="40.850301" lon="-3.765736">
        <ele>1297.90</ele>
        <time>2022-06-19T06:03:51+00:00</time>
      </trkpt>
      <trkpt lat="40.851138" lon="-3.766122">
        <ele>1303.66</ele>
        <time>2022-06-19T06:03:56+00:00</time>
      </trkpt>
      <trkpt lat="40.851331" lon="-3.766122">
        <ele>1304.62</ele>
        <time>2022-06-19T06:03:57+00:00</time>
      </trkpt>
      <trkpt lat="40.851846" lon="-3.766229">
        <ele>1307.99</ele>
        <time>2022-06-19T06:04:00+00:00</time>
      </trkpt>
      <trkpt lat="40.852018" lon="-3.766294">
        <ele>1309.43</ele>
        <time>2022-06-19T06:04:01+00:00</time>
      </trkpt>
      <trkpt lat="40.853348" lon="-3.767023">
        <ele>1320.01</ele>
        <time>2022-06-19T06:04:09+00:00</time>
      </trkpt>
      <trkpt lat="40.853670" lon="-3.767130">
        <ele>1323.37</ele>
        <time>2022-06-19T06:04:11+00:00</time>
      </trkpt>
      <trkpt lat="40.853820" lon="-3.767130">
        <ele>1324.81</ele>
        <time>2022-06-19T06:04:12+00:00</time>
      </trkpt>
      <trkpt lat="40.853992" lon="-3.767109">
        <ele>1326.25</ele>
        <time>2022-06-19T06:04:13+00:00</time>
      </trkpt>
      <trkpt lat="40.854164" lon="-3.767066">
        <ele>1328.18</ele>
        <time>2022-06-19T06:04:14+00:00</time>
      </trkpt>
      <trkpt lat="40.854314" lon="-3.767045">
        <ele>1329.62</ele>
        <time>2022-06-19T06:04:15+00:00</time>
      </trkpt>
      <trkpt lat="40.854421" lon="-3.767023">
        <ele>1331.06</ele>
        <time>2022-06-19T06:04:16+00:00</time>
      </trkpt>
      <trkpt lat="40.854528" lon="-3.766916">
        <ele>1332.50</ele>
        <time>2022-06-19T06:04:17+00:00</time>
      </trkpt>
      <trkpt lat="40.854593" lon="-3.766830">
        <ele>1333.95</ele>
        <time>2022-06-19T06:04:18+00:00</time>
      </trkpt>
      <trkpt lat="40.854979" lon="-3.766251">
        <ele>1339.71</ele>
        <time>2022-06-19T06:04:22+00:00</time>
      </trkpt>
      <trkpt lat="40.855108" lon="-3.766143">
        <ele>1341.64</ele>
        <time>2022-06-19T06:04:23+00:00</time>
      </trkpt>
      <trkpt lat="40.855237" lon="-3.766058">
        <ele>1343.08</ele>
        <time>2022-06-19T06:04:24+00:00</time>
      </trkpt>
      <trkpt lat="40.855387" lon="-3.766015">
        <ele>1344.52</ele>
        <time>2022-06-19T06:04:25+00:00</time>
      </trkpt>
      <trkpt lat="40.855537" lon="-3.765972">
        <ele>1345.96</ele>
        <time>2022-06-19T06:04:26+00:00</time>
      </trkpt>
      <trkpt lat="40.855666" lon="-3.765972">
        <ele>1346.92</ele>
        <time>2022-06-19T06:04:27+00:00</time>
      </trkpt>
      <trkpt lat="40.855794" lon="-3.765972">
        <ele>1347.88</ele>
        <time>2022-06-19T06:04:28+00:00</time>
      </trkpt>
      <trkpt lat="40.855923" lon="-3.766015">
        <ele>1348.85</ele>
        <time>2022-06-19T06:04:29+00:00</time>
      </trkpt>
      <trkpt lat="40.856095" lon="-3.766079">
        <ele>1350.29</ele>
        <time>2022-06-19T06:04:30+00:00</time>
      </trkpt>
      <trkpt lat="40.856781" lon="-3.766379">
        <ele>1357.02</ele>
        <time>2022-06-19T06:04:35+00:00</time>
      </trkpt>
      <trkpt lat="40.856910" lon="-3.766336">
        <ele>1358.94</ele>
        <time>2022-06-19T06:04:36+00:00</time>
      </trkpt>
      <trkpt lat="40.856953" lon="-3.766336">
        <ele>1360.38</ele>
        <time>2022-06-19T06:04:37+00:00</time>
      </trkpt>
      <trkpt lat="40.857125" lon="-3.766165">
        <ele>1362.78</ele>
        <time>2022-06-19T06:04:38+00:00</time>
      </trkpt>
      <trkpt lat="40.857232" lon="-3.766058">
        <ele>1364.71</ele>
        <time>2022-06-19T06:04:39+00:00</time>
      </trkpt>
      <trkpt lat="40.857339" lon="-3.765950">
        <ele>1366.15</ele>
        <time>2022-06-19T06:04:40+00:00</time>
      </trkpt>
      <trkpt lat="40.857490" lon="-3.765864">
        <ele>1367.59</ele>
        <time>2022-06-19T06:04:41+00:00</time>
      </trkpt>
      <trkpt lat="40.857661" lon="-3.765822">
        <ele>1369.03</ele>
        <time>2022-06-19T06:04:42+00:00</time>
      </trkpt>
      <trkpt lat="40.857811" lon="-3.765822">
        <ele>1370.47</ele>
        <time>2022-06-19T06:04:43+00:00</time>
      </trkpt>
      <trkpt lat="40.858498" lon="-3.765757">
        <ele>1376.24</ele>
        <time>2022-06-19T06:04:47+00:00</time>
      </trkpt>
      <trkpt lat="40.859077" lon="-3.765671">
        <ele>1381.53</ele>
        <time>2022-06-19T06:04:51+00:00</time>
      </trkpt>
      <trkpt lat="40.859185" lon="-3.765714">
        <ele>1382.01</ele>
        <time>2022-06-19T06:04:52+00:00</time>
      </trkpt>
      <trkpt lat="40.859292" lon="-3.765757">
        <ele>1382.01</ele>
        <time>2022-06-19T06:04:53+00:00</time>
      </trkpt>
      <trkpt lat="40.859464" lon="-3.765843">
        <ele>1382.49</ele>
        <time>2022-06-19T06:04:55+00:00</time>
      </trkpt>
      <trkpt lat="40.859592" lon="-3.765736">
        <ele>1382.49</ele>
        <time>2022-06-19T06:04:56+00:00</time>
      </trkpt>
      <trkpt lat="40.859700" lon="-3.765671">
        <ele>1382.49</ele>
        <time>2022-06-19T06:04:57+00:00</time>
      </trkpt>
      <trkpt lat="40.859764" lon="-3.765585">
        <ele>1382.01</ele>
        <time>2022-06-19T06:04:58+00:00</time>
      </trkpt>
      <trkpt lat="40.859850" lon="-3.765457">
        <ele>1381.53</ele>
        <time>2022-06-19T06:04:59+00:00</time>
      </trkpt>
      <trkpt lat="40.859957" lon="-3.765328">
        <ele>1381.05</ele>
        <time>2022-06-19T06:05:00+00:00</time>
      </trkpt>
      <trkpt lat="40.860451" lon="-3.764749">
        <ele>1381.53</ele>
        <time>2022-06-19T06:05:04+00:00</time>
      </trkpt>
      <trkpt lat="40.860579" lon="-3.764706">
        <ele>1382.01</ele>
        <time>2022-06-19T06:05:05+00:00</time>
      </trkpt>
      <trkpt lat="40.861652" lon="-3.764212">
        <ele>1389.70</ele>
        <time>2022-06-19T06:05:12+00:00</time>
      </trkpt>
      <trkpt lat="40.862167" lon="-3.764126">
        <ele>1394.99</ele>
        <time>2022-06-19T06:05:16+00:00</time>
      </trkpt>
      <trkpt lat="40.862446" lon="-3.764191">
        <ele>1397.39</ele>
        <time>2022-06-19T06:05:18+00:00</time>
      </trkpt>
      <trkpt lat="40.862618" lon="-3.764234">
        <ele>1398.35</ele>
        <time>2022-06-19T06:05:19+00:00</time>
      </trkpt>
      <trkpt lat="40.862747" lon="-3.764277">
        <ele>1399.79</ele>
        <time>2022-06-19T06:05:20+00:00</time>
      </trkpt>
      <trkpt lat="40.862875" lon="-3.764341">
        <ele>1400.28</ele>
        <time>2022-06-19T06:05:21+00:00</time>
      </trkpt>
      <trkpt lat="40.862983" lon="-3.764405">
        <ele>1401.72</ele>
        <time>2022-06-19T06:05:22+00:00</time>
      </trkpt>
      <trkpt lat="40.863090" lon="-3.764491">
        <ele>1403.16</ele>
        <time>2022-06-19T06:05:23+00:00</time>
      </trkpt>
      <trkpt lat="40.863240" lon="-3.764534">
        <ele>1405.08</ele>
        <time>2022-06-19T06:05:24+00:00</time>
      </trkpt>
      <trkpt lat="40.863390" lon="-3.764491">
        <ele>1407.00</ele>
        <time>2022-06-19T06:05:25+00:00</time>
      </trkpt>
      <trkpt lat="40.863498" lon="-3.764448">
        <ele>1408.45</ele>
        <time>2022-06-19T06:05:26+00:00</time>
      </trkpt>
      <trkpt lat="40.863669" lon="-3.764341">
        <ele>1409.41</ele>
        <time>2022-06-19T06:05:27+00:00</time>
      </trkpt>
      <trkpt lat="40.863820" lon="-3.764234">
        <ele>1410.37</ele>
        <time>2022-06-19T06:05:28+00:00</time>
      </trkpt>
      <trkpt lat="40.863991" lon="-3.764105">
        <ele>1411.81</ele>
        <time>2022-06-19T06:05:29+00:00</time>
      </trkpt>
      <trkpt lat="40.864141" lon="-3.763976">
        <ele>1412.77</ele>
        <time>2022-06-19T06:05:30+00:00</time>
      </trkpt>
      <trkpt lat="40.864292" lon="-3.763847">
        <ele>1413.73</ele>
        <time>2022-06-19T06:05:31+00:00</time>
      </trkpt>
      <trkpt lat="40.864463" lon="-3.763697">
        <ele>1414.70</ele>
        <time>2022-06-19T06:05:32+00:00</time>
      </trkpt>
      <trkpt lat="40.864635" lon="-3.763547">
        <ele>1415.66</ele>
        <time>2022-06-19T06:05:33+00:00</time>
      </trkpt>
      <trkpt lat="40.864785" lon="-3.763397">
        <ele>1416.14</ele>
        <time>2022-06-19T06:05:34+00:00</time>
      </trkpt>
      <trkpt lat="40.865601" lon="-3.762538">
        <ele>1423.35</ele>
        <time>2022-06-19T06:05:40+00:00</time>
      </trkpt>
      <trkpt lat="40.865622" lon="-3.762431">
        <ele>1425.27</ele>
        <time>2022-06-19T06:05:41+00:00</time>
      </trkpt>
      <trkpt lat="40.865665" lon="-3.762260">
        <ele>1426.71</ele>
        <time>2022-06-19T06:05:42+00:00</time>
      </trkpt>
      <trkpt lat="40.865708" lon="-3.762066">
        <ele>1428.15</ele>
        <time>2022-06-19T06:05:43+00:00</time>
      </trkpt>
      <trkpt lat="40.865751" lon="-3.761873">
        <ele>1429.60</ele>
        <time>2022-06-19T06:05:44+00:00</time>
      </trkpt>
      <trkpt lat="40.866051" lon="-3.759899">
        <ele>1446.42</ele>
        <time>2022-06-19T06:05:54+00:00</time>
      </trkpt>
      <trkpt lat="40.866094" lon="-3.759792">
        <ele>1448.82</ele>
        <time>2022-06-19T06:05:55+00:00</time>
      </trkpt>
      <trkpt lat="40.866116" lon="-3.759749">
        <ele>1450.26</ele>
        <time>2022-06-19T06:05:56+00:00</time>
      </trkpt>
      <trkpt lat="40.866116" lon="-3.759749">
        <ele>1451.71</ele>
        <time>2022-06-19T06:05:57+00:00</time>
      </trkpt>
      <trkpt lat="40.866116" lon="-3.759749">
        <ele>1452.67</ele>
        <time>2022-06-19T06:05:58+00:00</time>
      </trkpt>
      <trkpt lat="40.866180" lon="-3.759749">
        <ele>1453.63</ele>
        <time>2022-06-19T06:05:59+00:00</time>
      </trkpt>
      <trkpt lat="40.866373" lon="-3.760028">
        <ele>1454.59</ele>
        <time>2022-06-19T06:06:01+00:00</time>
      </trkpt>
      <trkpt lat="40.866373" lon="-3.760200">
        <ele>1455.07</ele>
        <time>2022-06-19T06:06:02+00:00</time>
      </trkpt>
      <trkpt lat="40.866395" lon="-3.760393">
        <ele>1455.55</ele>
        <time>2022-06-19T06:06:03+00:00</time>
      </trkpt>
      <trkpt lat="40.866416" lon="-3.760586">
        <ele>1456.03</ele>
        <time>2022-06-19T06:06:04+00:00</time>
      </trkpt>
      <trkpt lat="40.866480" lon="-3.760800">
        <ele>1456.99</ele>
        <time>2022-06-19T06:06:05+00:00</time>
      </trkpt>
      <trkpt lat="40.866545" lon="-3.760994">
        <ele>1457.47</ele>
        <time>2022-06-19T06:06:06+00:00</time>
      </trkpt>
      <trkpt lat="40.867188" lon="-3.762560">
        <ele>1466.61</ele>
        <time>2022-06-19T06:06:13+00:00</time>
      </trkpt>
      <trkpt lat="40.867532" lon="-3.763225">
        <ele>1474.78</ele>
        <time>2022-06-19T06:06:17+00:00</time>
      </trkpt>
      <trkpt lat="40.867661" lon="-3.763354">
        <ele>1477.18</ele>
        <time>2022-06-19T06:06:18+00:00</time>
      </trkpt>
      <trkpt lat="40.867789" lon="-3.763461">
        <ele>1479.58</ele>
        <time>2022-06-19T06:06:19+00:00</time>
      </trkpt>
      <trkpt lat="40.868154" lon="-3.763697">
        <ele>1485.83</ele>
        <time>2022-06-19T06:06:22+00:00</time>
      </trkpt>
      <trkpt lat="40.868261" lon="-3.763762">
        <ele>1487.75</ele>
        <time>2022-06-19T06:06:23+00:00</time>
      </trkpt>
      <trkpt lat="40.868390" lon="-3.763740">
        <ele>1489.68</ele>
        <time>2022-06-19T06:06:24+00:00</time>
      </trkpt>
      <trkpt lat="40.868497" lon="-3.763740">
        <ele>1491.12</ele>
        <time>2022-06-19T06:06:25+00:00</time>
      </trkpt>
      <trkpt lat="40.868605" lon="-3.763740">
        <ele>1492.56</ele>
        <time>2022-06-19T06:06:26+00:00</time>
      </trkpt>
      <trkpt lat="40.868690" lon="-3.763719">
        <ele>1493.52</ele>
        <time>2022-06-19T06:06:27+00:00</time>
      </trkpt>
      <trkpt lat="40.868776" lon="-3.763740">
        <ele>1494.00</ele>
        <time>2022-06-19T06:06:28+00:00</time>
      </trkpt>
      <trkpt lat="40.868862" lon="-3.763804">
        <ele>1494.48</ele>
        <time>2022-06-19T06:06:29+00:00</time>
      </trkpt>
      <trkpt lat="40.868948" lon="-3.763890">
        <ele>1494.00</ele>
        <time>2022-06-19T06:06:30+00:00</time>
      </trkpt>
      <trkpt lat="40.869012" lon="-3.763998">
        <ele>1494.00</ele>
        <time>2022-06-19T06:06:31+00:00</time>
      </trkpt>
      <trkpt lat="40.869098" lon="-3.764105">
        <ele>1494.00</ele>
        <time>2022-06-19T06:06:32+00:00</time>
      </trkpt>
      <trkpt lat="40.869720" lon="-3.765113">
        <ele>1493.04</ele>
        <time>2022-06-19T06:06:39+00:00</time>
      </trkpt>
      <trkpt lat="40.869806" lon="-3.765307">
        <ele>1493.04</ele>
        <time>2022-06-19T06:06:40+00:00</time>
      </trkpt>
      <trkpt lat="40.870042" lon="-3.765822">
        <ele>1493.04</ele>
        <time>2022-06-19T06:06:43+00:00</time>
      </trkpt>
      <trkpt lat="40.870686" lon="-3.766465">
        <ele>1492.08</ele>
        <time>2022-06-19T06:06:48+00:00</time>
      </trkpt>
      <trkpt lat="40.870793" lon="-3.766530">
        <ele>1492.08</ele>
        <time>2022-06-19T06:06:49+00:00</time>
      </trkpt>
      <trkpt lat="40.870944" lon="-3.766594">
        <ele>1491.60</ele>
        <time>2022-06-19T06:06:50+00:00</time>
      </trkpt>
      <trkpt lat="40.871094" lon="-3.766658">
        <ele>1492.08</ele>
        <time>2022-06-19T06:06:51+00:00</time>
      </trkpt>
      <trkpt lat="40.871244" lon="-3.766723">
        <ele>1492.08</ele>
        <time>2022-06-19T06:06:52+00:00</time>
      </trkpt>
      <trkpt lat="40.871952" lon="-3.767066">
        <ele>1491.12</ele>
        <time>2022-06-19T06:06:57+00:00</time>
      </trkpt>
      <trkpt lat="40.872081" lon="-3.767173">
        <ele>1490.16</ele>
        <time>2022-06-19T06:06:58+00:00</time>
      </trkpt>
      <trkpt lat="40.872231" lon="-3.767281">
        <ele>1489.20</ele>
        <time>2022-06-19T06:06:59+00:00</time>
      </trkpt>
      <trkpt lat="40.872488" lon="-3.767495">
        <ele>1486.79</ele>
        <time>2022-06-19T06:07:01+00:00</time>
      </trkpt>
      <trkpt lat="40.872574" lon="-3.767624">
        <ele>1485.83</ele>
        <time>2022-06-19T06:07:02+00:00</time>
      </trkpt>
      <trkpt lat="40.872682" lon="-3.767774">
        <ele>1484.87</ele>
        <time>2022-06-19T06:07:03+00:00</time>
      </trkpt>
      <trkpt lat="40.872746" lon="-3.767924">
        <ele>1483.43</ele>
        <time>2022-06-19T06:07:04+00:00</time>
      </trkpt>
      <trkpt lat="40.872810" lon="-3.768096">
        <ele>1482.95</ele>
        <time>2022-06-19T06:07:05+00:00</time>
      </trkpt>
      <trkpt lat="40.872853" lon="-3.768246">
        <ele>1481.51</ele>
        <time>2022-06-19T06:07:06+00:00</time>
      </trkpt>
      <trkpt lat="40.872939" lon="-3.768354">
        <ele>1481.03</ele>
        <time>2022-06-19T06:07:07+00:00</time>
      </trkpt>
      <trkpt lat="40.873025" lon="-3.768439">
        <ele>1480.06</ele>
        <time>2022-06-19T06:07:08+00:00</time>
      </trkpt>
      <trkpt lat="40.873111" lon="-3.768504">
        <ele>1478.62</ele>
        <time>2022-06-19T06:07:09+00:00</time>
      </trkpt>
      <trkpt lat="40.873218" lon="-3.768590">
        <ele>1477.66</ele>
        <time>2022-06-19T06:07:10+00:00</time>
      </trkpt>
      <trkpt lat="40.873304" lon="-3.768740">
        <ele>1476.70</ele>
        <time>2022-06-19T06:07:11+00:00</time>
      </trkpt>
      <trkpt lat="40.873390" lon="-3.768911">
        <ele>1475.74</ele>
        <time>2022-06-19T06:07:12+00:00</time>
      </trkpt>
      <trkpt lat="40.873454" lon="-3.769105">
        <ele>1475.26</ele>
        <time>2022-06-19T06:07:13+00:00</time>
      </trkpt>
      <trkpt lat="40.873540" lon="-3.769341">
        <ele>1474.30</ele>
        <time>2022-06-19T06:07:14+00:00</time>
      </trkpt>
      <trkpt lat="40.873604" lon="-3.769577">
        <ele>1473.82</ele>
        <time>2022-06-19T06:07:15+00:00</time>
      </trkpt>
      <trkpt lat="40.873669" lon="-3.769813">
        <ele>1473.34</ele>
        <time>2022-06-19T06:07:16+00:00</time>
      </trkpt>
      <trkpt lat="40.874248" lon="-3.771808">
        <ele>1462.76</ele>
        <time>2022-06-19T06:07:25+00:00</time>
      </trkpt>
      <trkpt lat="40.874527" lon="-3.772388">
        <ele>1457.95</ele>
        <time>2022-06-19T06:07:28+00:00</time>
      </trkpt>
      <trkpt lat="40.874591" lon="-3.772581">
        <ele>1456.03</ele>
        <time>2022-06-19T06:07:29+00:00</time>
      </trkpt>
      <trkpt lat="40.874827" lon="-3.773181">
        <ele>1449.78</ele>
        <time>2022-06-19T06:07:32+00:00</time>
      </trkpt>
      <trkpt lat="40.874935" lon="-3.773353">
        <ele>1448.34</ele>
        <time>2022-06-19T06:07:33+00:00</time>
      </trkpt>
      <trkpt lat="40.875171" lon="-3.773589">
        <ele>1444.50</ele>
        <time>2022-06-19T06:07:35+00:00</time>
      </trkpt>
      <trkpt lat="40.875299" lon="-3.773675">
        <ele>1442.57</ele>
        <time>2022-06-19T06:07:36+00:00</time>
      </trkpt>
      <trkpt lat="40.875428" lon="-3.773761">
        <ele>1440.65</ele>
        <time>2022-06-19T06:07:37+00:00</time>
      </trkpt>
      <trkpt lat="40.875557" lon="-3.773825">
        <ele>1439.21</ele>
        <time>2022-06-19T06:07:38+00:00</time>
      </trkpt>
      <trkpt lat="40.875664" lon="-3.773868">
        <ele>1437.77</ele>
        <time>2022-06-19T06:07:39+00:00</time>
      </trkpt>
      <trkpt lat="40.875793" lon="-3.773890">
        <ele>1436.81</ele>
        <time>2022-06-19T06:07:40+00:00</time>
      </trkpt>
      <trkpt lat="40.875943" lon="-3.773847">
        <ele>1435.36</ele>
        <time>2022-06-19T06:07:41+00:00</time>
      </trkpt>
      <trkpt lat="40.876072" lon="-3.773825">
        <ele>1434.40</ele>
        <time>2022-06-19T06:07:42+00:00</time>
      </trkpt>
      <trkpt lat="40.876201" lon="-3.773782">
        <ele>1432.96</ele>
        <time>2022-06-19T06:07:43+00:00</time>
      </trkpt>
      <trkpt lat="40.876329" lon="-3.773761">
        <ele>1432.00</ele>
        <time>2022-06-19T06:07:44+00:00</time>
      </trkpt>
      <trkpt lat="40.876437" lon="-3.773739">
        <ele>1430.56</ele>
        <time>2022-06-19T06:07:45+00:00</time>
      </trkpt>
      <trkpt lat="40.876523" lon="-3.773718">
        <ele>1429.11</ele>
        <time>2022-06-19T06:07:46+00:00</time>
      </trkpt>
      <trkpt lat="40.876608" lon="-3.773761">
        <ele>1427.67</ele>
        <time>2022-06-19T06:07:47+00:00</time>
      </trkpt>
      <trkpt lat="40.876673" lon="-3.773868">
        <ele>1426.23</ele>
        <time>2022-06-19T06:07:48+00:00</time>
      </trkpt>
      <trkpt lat="40.876694" lon="-3.773997">
        <ele>1424.31</ele>
        <time>2022-06-19T06:07:49+00:00</time>
      </trkpt>
      <trkpt lat="40.876694" lon="-3.774169">
        <ele>1422.39</ele>
        <time>2022-06-19T06:07:50+00:00</time>
      </trkpt>
      <trkpt lat="40.876608" lon="-3.774319">
        <ele>1419.98</ele>
        <time>2022-06-19T06:07:51+00:00</time>
      </trkpt>
      <trkpt lat="40.876501" lon="-3.774469">
        <ele>1418.06</ele>
        <time>2022-06-19T06:07:52+00:00</time>
      </trkpt>
      <trkpt lat="40.876372" lon="-3.774598">
        <ele>1416.14</ele>
        <time>2022-06-19T06:07:53+00:00</time>
      </trkpt>
      <trkpt lat="40.876244" lon="-3.774726">
        <ele>1414.70</ele>
        <time>2022-06-19T06:07:54+00:00</time>
      </trkpt>
      <trkpt lat="40.875814" lon="-3.775220">
        <ele>1408.45</ele>
        <time>2022-06-19T06:07:58+00:00</time>
      </trkpt>
      <trkpt lat="40.875729" lon="-3.775349">
        <ele>1406.52</ele>
        <time>2022-06-19T06:07:59+00:00</time>
      </trkpt>
      <trkpt lat="40.875664" lon="-3.775520">
        <ele>1405.08</ele>
        <time>2022-06-19T06:08:00+00:00</time>
      </trkpt>
      <trkpt lat="40.875600" lon="-3.775713">
        <ele>1403.64</ele>
        <time>2022-06-19T06:08:01+00:00</time>
      </trkpt>
      <trkpt lat="40.875535" lon="-3.775907">
        <ele>1401.72</ele>
        <time>2022-06-19T06:08:02+00:00</time>
      </trkpt>
      <trkpt lat="40.874935" lon="-3.777216">
        <ele>1389.70</ele>
        <time>2022-06-19T06:08:09+00:00</time>
      </trkpt>
      <trkpt lat="40.874699" lon="-3.777537">
        <ele>1386.34</ele>
        <time>2022-06-19T06:08:11+00:00</time>
      </trkpt>
      <trkpt lat="40.874098" lon="-3.778267">
        <ele>1379.13</ele>
        <time>2022-06-19T06:08:16+00:00</time>
      </trkpt>
      <trkpt lat="40.874012" lon="-3.778417">
        <ele>1377.68</ele>
        <time>2022-06-19T06:08:17+00:00</time>
      </trkpt>
      <trkpt lat="40.873948" lon="-3.778567">
        <ele>1376.72</ele>
        <time>2022-06-19T06:08:18+00:00</time>
      </trkpt>
      <trkpt lat="40.873905" lon="-3.778696">
        <ele>1375.28</ele>
        <time>2022-06-19T06:08:19+00:00</time>
      </trkpt>
      <trkpt lat="40.873862" lon="-3.778782">
        <ele>1374.80</ele>
        <time>2022-06-19T06:08:20+00:00</time>
      </trkpt>
      <trkpt lat="40.873883" lon="-3.778846">
        <ele>1374.32</ele>
        <time>2022-06-19T06:08:21+00:00</time>
      </trkpt>
      <trkpt lat="40.873905" lon="-3.778954">
        <ele>1374.32</ele>
        <time>2022-06-19T06:08:22+00:00</time>
      </trkpt>
      <trkpt lat="40.873926" lon="-3.778997">
        <ele>1374.32</ele>
        <time>2022-06-19T06:08:23+00:00</time>
      </trkpt>
      <trkpt lat="40.873991" lon="-3.779039">
        <ele>1374.32</ele>
        <time>2022-06-19T06:08:24+00:00</time>
      </trkpt>
      <trkpt lat="40.874076" lon="-3.779039">
        <ele>1374.32</ele>
        <time>2022-06-19T06:08:25+00:00</time>
      </trkpt>
      <trkpt lat="40.874162" lon="-3.778975">
        <ele>1373.84</ele>
        <time>2022-06-19T06:08:26+00:00</time>
      </trkpt>
      <trkpt lat="40.874248" lon="-3.778889">
        <ele>1373.84</ele>
        <time>2022-06-19T06:08:27+00:00</time>
      </trkpt>
      <trkpt lat="40.874334" lon="-3.778803">
        <ele>1373.84</ele>
        <time>2022-06-19T06:08:28+00:00</time>
      </trkpt>
      <trkpt lat="40.874398" lon="-3.778718">
        <ele>1373.84</ele>
        <time>2022-06-19T06:08:29+00:00</time>
      </trkpt>
      <trkpt lat="40.874506" lon="-3.778675">
        <ele>1373.84</ele>
        <time>2022-06-19T06:08:30+00:00</time>
      </trkpt>
      <trkpt lat="40.874591" lon="-3.778696">
        <ele>1373.84</ele>
        <time>2022-06-19T06:08:31+00:00</time>
      </trkpt>
      <trkpt lat="40.874720" lon="-3.778718">
        <ele>1373.36</ele>
        <time>2022-06-19T06:08:32+00:00</time>
      </trkpt>
      <trkpt lat="40.874849" lon="-3.778782">
        <ele>1372.88</ele>
        <time>2022-06-19T06:08:33+00:00</time>
      </trkpt>
      <trkpt lat="40.876287" lon="-3.779383">
        <ele>1366.63</ele>
        <time>2022-06-19T06:08:41+00:00</time>
      </trkpt>
      <trkpt lat="40.877123" lon="-3.779705">
        <ele>1361.82</ele>
        <time>2022-06-19T06:08:46+00:00</time>
      </trkpt>
      <trkpt lat="40.877274" lon="-3.779812">
        <ele>1361.34</ele>
        <time>2022-06-19T06:08:47+00:00</time>
      </trkpt>
      <trkpt lat="40.877424" lon="-3.779919">
        <ele>1360.38</ele>
        <time>2022-06-19T06:08:48+00:00</time>
      </trkpt>
      <trkpt lat="40.878282" lon="-3.780413">
        <ele>1355.09</ele>
        <time>2022-06-19T06:08:54+00:00</time>
      </trkpt>
      <trkpt lat="40.878325" lon="-3.780434">
        <ele>1354.61</ele>
        <time>2022-06-19T06:08:55+00:00</time>
      </trkpt>
      <trkpt lat="40.878518" lon="-3.780391">
        <ele>1353.65</ele>
        <time>2022-06-19T06:08:56+00:00</time>
      </trkpt>
      <trkpt lat="40.878711" lon="-3.780348">
        <ele>1353.65</ele>
        <time>2022-06-19T06:08:57+00:00</time>
      </trkpt>
      <trkpt lat="40.878926" lon="-3.780305">
        <ele>1352.69</ele>
        <time>2022-06-19T06:08:58+00:00</time>
      </trkpt>
      <trkpt lat="40.879291" lon="-3.780134">
        <ele>1350.77</ele>
        <time>2022-06-19T06:09:00+00:00</time>
      </trkpt>
      <trkpt lat="40.879441" lon="-3.780005">
        <ele>1349.81</ele>
        <time>2022-06-19T06:09:01+00:00</time>
      </trkpt>
      <trkpt lat="40.879591" lon="-3.779876">
        <ele>1348.85</ele>
        <time>2022-06-19T06:09:02+00:00</time>
      </trkpt>
      <trkpt lat="40.880471" lon="-3.778997">
        <ele>1338.27</ele>
        <time>2022-06-19T06:09:09+00:00</time>
      </trkpt>
      <trkpt lat="40.880599" lon="-3.778803">
        <ele>1334.91</ele>
        <time>2022-06-19T06:09:12+00:00</time>
      </trkpt>
      <trkpt lat="40.880578" lon="-3.778760">
        <ele>1333.46</ele>
        <time>2022-06-19T06:09:13+00:00</time>
      </trkpt>
      <trkpt lat="40.880557" lon="-3.778718">
        <ele>1332.50</ele>
        <time>2022-06-19T06:09:14+00:00</time>
      </trkpt>
      <trkpt lat="40.880492" lon="-3.778718">
        <ele>1331.54</ele>
        <time>2022-06-19T06:09:15+00:00</time>
      </trkpt>
      <trkpt lat="40.880428" lon="-3.778739">
        <ele>1330.10</ele>
        <time>2022-06-19T06:09:16+00:00</time>
      </trkpt>
      <trkpt lat="40.880363" lon="-3.778803">
        <ele>1329.14</ele>
        <time>2022-06-19T06:09:17+00:00</time>
      </trkpt>
      <trkpt lat="40.880256" lon="-3.778911">
        <ele>1327.70</ele>
        <time>2022-06-19T06:09:18+00:00</time>
      </trkpt>
      <trkpt lat="40.880085" lon="-3.779082">
        <ele>1326.25</ele>
        <time>2022-06-19T06:09:20+00:00</time>
      </trkpt>
      <trkpt lat="40.879977" lon="-3.779168">
        <ele>1325.29</ele>
        <time>2022-06-19T06:09:21+00:00</time>
      </trkpt>
      <trkpt lat="40.879870" lon="-3.779211">
        <ele>1324.33</ele>
        <time>2022-06-19T06:09:22+00:00</time>
      </trkpt>
      <trkpt lat="40.879763" lon="-3.779254">
        <ele>1323.37</ele>
        <time>2022-06-19T06:09:23+00:00</time>
      </trkpt>
      <trkpt lat="40.879634" lon="-3.779297">
        <ele>1322.41</ele>
        <time>2022-06-19T06:09:24+00:00</time>
      </trkpt>
      <trkpt lat="40.879076" lon="-3.779533">
        <ele>1319.04</ele>
        <time>2022-06-19T06:09:29+00:00</time>
      </trkpt>
      <trkpt lat="40.879055" lon="-3.779554">
        <ele>1318.08</ele>
        <time>2022-06-19T06:09:30+00:00</time>
      </trkpt>
      <trkpt lat="40.878990" lon="-3.779511">
        <ele>1317.12</ele>
        <time>2022-06-19T06:09:31+00:00</time>
      </trkpt>
      <trkpt lat="40.878990" lon="-3.779490">
        <ele>1316.64</ele>
        <time>2022-06-19T06:09:32+00:00</time>
      </trkpt>
      <trkpt lat="40.878990" lon="-3.779404">
        <ele>1315.20</ele>
        <time>2022-06-19T06:09:33+00:00</time>
      </trkpt>
      <trkpt lat="40.879055" lon="-3.779340">
        <ele>1314.72</ele>
        <time>2022-06-19T06:09:34+00:00</time>
      </trkpt>
      <trkpt lat="40.879140" lon="-3.779254">
        <ele>1313.28</ele>
        <time>2022-06-19T06:09:35+00:00</time>
      </trkpt>
      <trkpt lat="40.879248" lon="-3.779147">
        <ele>1312.32</ele>
        <time>2022-06-19T06:09:36+00:00</time>
      </trkpt>
      <trkpt lat="40.879376" lon="-3.779082">
        <ele>1311.35</ele>
        <time>2022-06-19T06:09:37+00:00</time>
      </trkpt>
      <trkpt lat="40.879677" lon="-3.778932">
        <ele>1308.47</ele>
        <time>2022-06-19T06:09:39+00:00</time>
      </trkpt>
      <trkpt lat="40.879806" lon="-3.778782">
        <ele>1307.03</ele>
        <time>2022-06-19T06:09:40+00:00</time>
      </trkpt>
      <trkpt lat="40.879913" lon="-3.778653">
        <ele>1305.59</ele>
        <time>2022-06-19T06:09:41+00:00</time>
      </trkpt>
      <trkpt lat="40.880321" lon="-3.777859">
        <ele>1299.82</ele>
        <time>2022-06-19T06:09:45+00:00</time>
      </trkpt>
      <trkpt lat="40.880385" lon="-3.777666">
        <ele>1298.38</ele>
        <time>2022-06-19T06:09:46+00:00</time>
      </trkpt>
      <trkpt lat="40.880471" lon="-3.777473">
        <ele>1296.93</ele>
        <time>2022-06-19T06:09:47+00:00</time>
      </trkpt>
      <trkpt lat="40.880578" lon="-3.777280">
        <ele>1295.49</ele>
        <time>2022-06-19T06:09:48+00:00</time>
      </trkpt>
      <trkpt lat="40.880707" lon="-3.777108">
        <ele>1294.53</ele>
        <time>2022-06-19T06:09:49+00:00</time>
      </trkpt>
      <trkpt lat="40.880814" lon="-3.776979">
        <ele>1293.09</ele>
        <time>2022-06-19T06:09:50+00:00</time>
      </trkpt>
      <trkpt lat="40.880964" lon="-3.776829">
        <ele>1291.65</ele>
        <time>2022-06-19T06:09:51+00:00</time>
      </trkpt>
      <trkpt lat="40.881093" lon="-3.776658">
        <ele>1290.21</ele>
        <time>2022-06-19T06:09:52+00:00</time>
      </trkpt>
      <trkpt lat="40.881200" lon="-3.776465">
        <ele>1288.76</ele>
        <time>2022-06-19T06:09:53+00:00</time>
      </trkpt>
      <trkpt lat="40.882144" lon="-3.775284">
        <ele>1281.55</ele>
        <time>2022-06-19T06:10:00+00:00</time>
      </trkpt>
      <trkpt lat="40.882895" lon="-3.774512">
        <ele>1276.75</ele>
        <time>2022-06-19T06:10:05+00:00</time>
      </trkpt>
      <trkpt lat="40.883024" lon="-3.774362">
        <ele>1275.79</ele>
        <time>2022-06-19T06:10:06+00:00</time>
      </trkpt>
      <trkpt lat="40.883925" lon="-3.773375">
        <ele>1269.06</ele>
        <time>2022-06-19T06:10:13+00:00</time>
      </trkpt>
      <trkpt lat="40.884011" lon="-3.773289">
        <ele>1267.61</ele>
        <time>2022-06-19T06:10:14+00:00</time>
      </trkpt>
      <trkpt lat="40.884097" lon="-3.773246">
        <ele>1266.17</ele>
        <time>2022-06-19T06:10:15+00:00</time>
      </trkpt>
      <trkpt lat="40.884183" lon="-3.773246">
        <ele>1265.21</ele>
        <time>2022-06-19T06:10:16+00:00</time>
      </trkpt>
      <trkpt lat="40.884312" lon="-3.773267">
        <ele>1263.77</ele>
        <time>2022-06-19T06:10:17+00:00</time>
      </trkpt>
      <trkpt lat="40.884440" lon="-3.773310">
        <ele>1262.33</ele>
        <time>2022-06-19T06:10:18+00:00</time>
      </trkpt>
      <trkpt lat="40.884977" lon="-3.773439">
        <ele>1259.44</ele>
        <time>2022-06-19T06:10:21+00:00</time>
      </trkpt>
      <trkpt lat="40.885191" lon="-3.773460">
        <ele>1258.48</ele>
        <time>2022-06-19T06:10:22+00:00</time>
      </trkpt>
      <trkpt lat="40.885385" lon="-3.773460">
        <ele>1257.52</ele>
        <time>2022-06-19T06:10:23+00:00</time>
      </trkpt>
      <trkpt lat="40.885599" lon="-3.773418">
        <ele>1256.08</ele>
        <time>2022-06-19T06:10:24+00:00</time>
      </trkpt>
      <trkpt lat="40.885792" lon="-3.773375">
        <ele>1255.12</ele>
        <time>2022-06-19T06:10:25+00:00</time>
      </trkpt>
      <trkpt lat="40.886393" lon="-3.773246">
        <ele>1250.31</ele>
        <time>2022-06-19T06:10:29+00:00</time>
      </trkpt>
      <trkpt lat="40.886479" lon="-3.773224">
        <ele>1249.35</ele>
        <time>2022-06-19T06:10:30+00:00</time>
      </trkpt>
      <trkpt lat="40.886608" lon="-3.773246">
        <ele>1247.91</ele>
        <time>2022-06-19T06:10:31+00:00</time>
      </trkpt>
      <trkpt lat="40.886715" lon="-3.773353">
        <ele>1246.95</ele>
        <time>2022-06-19T06:10:32+00:00</time>
      </trkpt>
      <trkpt lat="40.886844" lon="-3.773460">
        <ele>1245.50</ele>
        <time>2022-06-19T06:10:33+00:00</time>
      </trkpt>
      <trkpt lat="40.886994" lon="-3.773568">
        <ele>1244.54</ele>
        <time>2022-06-19T06:10:34+00:00</time>
      </trkpt>
      <trkpt lat="40.887123" lon="-3.773654">
        <ele>1243.58</ele>
        <time>2022-06-19T06:10:35+00:00</time>
      </trkpt>
      <trkpt lat="40.887273" lon="-3.773739">
        <ele>1242.14</ele>
        <time>2022-06-19T06:10:36+00:00</time>
      </trkpt>
      <trkpt lat="40.887423" lon="-3.773804">
        <ele>1241.18</ele>
        <time>2022-06-19T06:10:37+00:00</time>
      </trkpt>
      <trkpt lat="40.887552" lon="-3.773890">
        <ele>1240.70</ele>
        <time>2022-06-19T06:10:38+00:00</time>
      </trkpt>
      <trkpt lat="40.887766" lon="-3.773997">
        <ele>1239.26</ele>
        <time>2022-06-19T06:10:40+00:00</time>
      </trkpt>
      <trkpt lat="40.887831" lon="-3.774104">
        <ele>1238.78</ele>
        <time>2022-06-19T06:10:41+00:00</time>
      </trkpt>
      <trkpt lat="40.887874" lon="-3.774211">
        <ele>1237.81</ele>
        <time>2022-06-19T06:10:42+00:00</time>
      </trkpt>
      <trkpt lat="40.887917" lon="-3.774383">
        <ele>1236.37</ele>
        <time>2022-06-19T06:10:43+00:00</time>
      </trkpt>
      <trkpt lat="40.887959" lon="-3.774598">
        <ele>1234.93</ele>
        <time>2022-06-19T06:10:44+00:00</time>
      </trkpt>
      <trkpt lat="40.887981" lon="-3.774834">
        <ele>1233.49</ele>
        <time>2022-06-19T06:10:45+00:00</time>
      </trkpt>
      <trkpt lat="40.888174" lon="-3.775950">
        <ele>1223.87</ele>
        <time>2022-06-19T06:10:51+00:00</time>
      </trkpt>
      <trkpt lat="40.888238" lon="-3.776014">
        <ele>1223.39</ele>
        <time>2022-06-19T06:10:52+00:00</time>
      </trkpt>
      <trkpt lat="40.888281" lon="-3.776057">
        <ele>1222.91</ele>
        <time>2022-06-19T06:10:53+00:00</time>
      </trkpt>
      <trkpt lat="40.888367" lon="-3.776057">
        <ele>1223.39</ele>
        <time>2022-06-19T06:10:54+00:00</time>
      </trkpt>
      <trkpt lat="40.888432" lon="-3.776057">
        <ele>1223.87</ele>
        <time>2022-06-19T06:10:55+00:00</time>
      </trkpt>
      <trkpt lat="40.888517" lon="-3.775971">
        <ele>1224.36</ele>
        <time>2022-06-19T06:10:56+00:00</time>
      </trkpt>
      <trkpt lat="40.888539" lon="-3.775799">
        <ele>1224.84</ele>
        <time>2022-06-19T06:10:57+00:00</time>
      </trkpt>
      <trkpt lat="40.888582" lon="-3.775606">
        <ele>1224.84</ele>
        <time>2022-06-19T06:10:58+00:00</time>
      </trkpt>
      <trkpt lat="40.888603" lon="-3.775435">
        <ele>1225.32</ele>
        <time>2022-06-19T06:10:59+00:00</time>
      </trkpt>
      <trkpt lat="40.888625" lon="-3.775220">
        <ele>1225.32</ele>
        <time>2022-06-19T06:11:00+00:00</time>
      </trkpt>
      <trkpt lat="40.888646" lon="-3.775005">
        <ele>1225.32</ele>
        <time>2022-06-19T06:11:01+00:00</time>
      </trkpt>
      <trkpt lat="40.888646" lon="-3.774812">
        <ele>1225.80</ele>
        <time>2022-06-19T06:11:02+00:00</time>
      </trkpt>
      <trkpt lat="40.888668" lon="-3.774641">
        <ele>1225.80</ele>
        <time>2022-06-19T06:11:03+00:00</time>
      </trkpt>
      <trkpt lat="40.888732" lon="-3.774447">
        <ele>1225.80</ele>
        <time>2022-06-19T06:11:04+00:00</time>
      </trkpt>
      <trkpt lat="40.888796" lon="-3.774254">
        <ele>1225.80</ele>
        <time>2022-06-19T06:11:05+00:00</time>
      </trkpt>
      <trkpt lat="40.888861" lon="-3.774040">
        <ele>1225.80</ele>
        <time>2022-06-19T06:11:06+00:00</time>
      </trkpt>
      <trkpt lat="40.889225" lon="-3.773096">
        <ele>1225.32</ele>
        <time>2022-06-19T06:11:12+00:00</time>
      </trkpt>
      <trkpt lat="40.889268" lon="-3.773010">
        <ele>1225.32</ele>
        <time>2022-06-19T06:11:13+00:00</time>
      </trkpt>
      <trkpt lat="40.889783" lon="-3.772345">
        <ele>1223.87</ele>
        <time>2022-06-19T06:11:22+00:00</time>
      </trkpt>
      <trkpt lat="40.890298" lon="-3.771679">
        <ele>1222.91</ele>
        <time>2022-06-19T06:11:28+00:00</time>
      </trkpt>
      <trkpt lat="40.890320" lon="-3.771572">
        <ele>1222.91</ele>
        <time>2022-06-19T06:11:29+00:00</time>
      </trkpt>
      <trkpt lat="40.890341" lon="-3.771443">
        <ele>1222.91</ele>
        <time>2022-06-19T06:11:30+00:00</time>
      </trkpt>
      <trkpt lat="40.890341" lon="-3.771293">
        <ele>1223.39</ele>
        <time>2022-06-19T06:11:31+00:00</time>
      </trkpt>
      <trkpt lat="40.890320" lon="-3.771122">
        <ele>1222.91</ele>
        <time>2022-06-19T06:11:32+00:00</time>
      </trkpt>
      <trkpt lat="40.890277" lon="-3.770907">
        <ele>1222.91</ele>
        <time>2022-06-19T06:11:33+00:00</time>
      </trkpt>
      <trkpt lat="40.890105" lon="-3.770027">
        <ele>1222.43</ele>
        <time>2022-06-19T06:11:38+00:00</time>
      </trkpt>
      <trkpt lat="40.890105" lon="-3.769877">
        <ele>1222.43</ele>
        <time>2022-06-19T06:11:39+00:00</time>
      </trkpt>
      <trkpt lat="40.890105" lon="-3.769727">
        <ele>1221.95</ele>
        <time>2022-06-19T06:11:40+00:00</time>
      </trkpt>
      <trkpt lat="40.890148" lon="-3.769555">
        <ele>1221.95</ele>
        <time>2022-06-19T06:11:41+00:00</time>
      </trkpt>
      <trkpt lat="40.890213" lon="-3.769383">
        <ele>1221.47</ele>
        <time>2022-06-19T06:11:42+00:00</time>
      </trkpt>
      <trkpt lat="40.890277" lon="-3.769233">
        <ele>1220.99</ele>
        <time>2022-06-19T06:11:43+00:00</time>
      </trkpt>
      <trkpt lat="40.890813" lon="-3.767817">
        <ele>1219.07</ele>
        <time>2022-06-19T06:11:52+00:00</time>
      </trkpt>
      <trkpt lat="40.890856" lon="-3.767624">
        <ele>1219.07</ele>
        <time>2022-06-19T06:11:53+00:00</time>
      </trkpt>
      <trkpt lat="40.890899" lon="-3.767431">
        <ele>1218.59</ele>
        <time>2022-06-19T06:11:54+00:00</time>
      </trkpt>
      <trkpt lat="40.890899" lon="-3.767238">
        <ele>1218.11</ele>
        <time>2022-06-19T06:11:55+00:00</time>
      </trkpt>
      <trkpt lat="40.890899" lon="-3.767023">
        <ele>1218.11</ele>
        <time>2022-06-19T06:11:56+00:00</time>
      </trkpt>
      <trkpt lat="40.890921" lon="-3.766508">
        <ele>1217.63</ele>
        <time>2022-06-19T06:11:59+00:00</time>
      </trkpt>
      <trkpt lat="40.890964" lon="-3.766358">
        <ele>1217.15</ele>
        <time>2022-06-19T06:12:00+00:00</time>
      </trkpt>
      <trkpt lat="40.891028" lon="-3.766208">
        <ele>1217.15</ele>
        <time>2022-06-19T06:12:01+00:00</time>
      </trkpt>
      <trkpt lat="40.891092" lon="-3.766079">
        <ele>1217.15</ele>
        <time>2022-06-19T06:12:02+00:00</time>
      </trkpt>
      <trkpt lat="40.891200" lon="-3.765929">
        <ele>1216.67</ele>
        <time>2022-06-19T06:12:03+00:00</time>
      </trkpt>
      <trkpt lat="40.891328" lon="-3.765779">
        <ele>1216.67</ele>
        <time>2022-06-19T06:12:04+00:00</time>
      </trkpt>
      <trkpt lat="40.891650" lon="-3.765307">
        <ele>1217.15</ele>
        <time>2022-06-19T06:12:07+00:00</time>
      </trkpt>
      <trkpt lat="40.891800" lon="-3.765028">
        <ele>1217.15</ele>
        <time>2022-06-19T06:12:09+00:00</time>
      </trkpt>
      <trkpt lat="40.891908" lon="-3.764942">
        <ele>1217.15</ele>
        <time>2022-06-19T06:12:10+00:00</time>
      </trkpt>
      <trkpt lat="40.892015" lon="-3.764856">
        <ele>1217.15</ele>
        <time>2022-06-19T06:12:11+00:00</time>
      </trkpt>
      <trkpt lat="40.892101" lon="-3.764770">
        <ele>1217.15</ele>
        <time>2022-06-19T06:12:12+00:00</time>
      </trkpt>
      <trkpt lat="40.892187" lon="-3.764706">
        <ele>1216.67</ele>
        <time>2022-06-19T06:12:13+00:00</time>
      </trkpt>
      <trkpt lat="40.892208" lon="-3.764598">
        <ele>1216.67</ele>
        <time>2022-06-19T06:12:14+00:00</time>
      </trkpt>
      <trkpt lat="40.892251" lon="-3.764491">
        <ele>1216.67</ele>
        <time>2022-06-19T06:12:15+00:00</time>
      </trkpt>
      <trkpt lat="40.892230" lon="-3.764362">
        <ele>1217.15</ele>
        <time>2022-06-19T06:12:16+00:00</time>
      </trkpt>
      <trkpt lat="40.892208" lon="-3.764212">
        <ele>1217.15</ele>
        <time>2022-06-19T06:12:17+00:00</time>
      </trkpt>
      <trkpt lat="40.892165" lon="-3.763912">
        <ele>1217.63</ele>
        <time>2022-06-19T06:12:19+00:00</time>
      </trkpt>
      <trkpt lat="40.892187" lon="-3.763783">
        <ele>1217.63</ele>
        <time>2022-06-19T06:12:20+00:00</time>
      </trkpt>
      <trkpt lat="40.892230" lon="-3.763654">
        <ele>1217.63</ele>
        <time>2022-06-19T06:12:21+00:00</time>
      </trkpt>
      <trkpt lat="40.892337" lon="-3.763547">
        <ele>1217.63</ele>
        <time>2022-06-19T06:12:22+00:00</time>
      </trkpt>
      <trkpt lat="40.892444" lon="-3.763418">
        <ele>1217.63</ele>
        <time>2022-06-19T06:12:23+00:00</time>
      </trkpt>
      <trkpt lat="40.893410" lon="-3.762410">
        <ele>1214.74</ele>
        <time>2022-06-19T06:12:30+00:00</time>
      </trkpt>
      <trkpt lat="40.893839" lon="-3.762045">
        <ele>1213.78</ele>
        <time>2022-06-19T06:12:33+00:00</time>
      </trkpt>
      <trkpt lat="40.893989" lon="-3.761981">
        <ele>1213.30</ele>
        <time>2022-06-19T06:12:34+00:00</time>
      </trkpt>
      <trkpt lat="40.894247" lon="-3.761830">
        <ele>1212.82</ele>
        <time>2022-06-19T06:12:36+00:00</time>
      </trkpt>
      <trkpt lat="40.894354" lon="-3.761702">
        <ele>1212.34</ele>
        <time>2022-06-19T06:12:37+00:00</time>
      </trkpt>
      <trkpt lat="40.894568" lon="-3.761444">
        <ele>1211.86</ele>
        <time>2022-06-19T06:12:39+00:00</time>
      </trkpt>
      <trkpt lat="40.894654" lon="-3.761315">
        <ele>1211.38</ele>
        <time>2022-06-19T06:12:40+00:00</time>
      </trkpt>
      <trkpt lat="40.894697" lon="-3.761144">
        <ele>1211.38</ele>
        <time>2022-06-19T06:12:41+00:00</time>
      </trkpt>
      <trkpt lat="40.894762" lon="-3.760972">
        <ele>1210.90</ele>
        <time>2022-06-19T06:12:42+00:00</time>
      </trkpt>
      <trkpt lat="40.894826" lon="-3.760779">
        <ele>1210.90</ele>
        <time>2022-06-19T06:12:43+00:00</time>
      </trkpt>
      <trkpt lat="40.894890" lon="-3.760607">
        <ele>1210.90</ele>
        <time>2022-06-19T06:12:44+00:00</time>
      </trkpt>
      <trkpt lat="40.894998" lon="-3.760414">
        <ele>1210.42</ele>
        <time>2022-06-19T06:12:45+00:00</time>
      </trkpt>
      <trkpt lat="40.895427" lon="-3.759813">
        <ele>1209.94</ele>
        <time>2022-06-19T06:12:49+00:00</time>
      </trkpt>
      <trkpt lat="40.895534" lon="-3.759706">
        <ele>1209.94</ele>
        <time>2022-06-19T06:12:50+00:00</time>
      </trkpt>
      <trkpt lat="40.895641" lon="-3.759599">
        <ele>1209.94</ele>
        <time>2022-06-19T06:12:51+00:00</time>
      </trkpt>
      <trkpt lat="40.895792" lon="-3.759556">
        <ele>1209.46</ele>
        <time>2022-06-19T06:12:52+00:00</time>
      </trkpt>
      <trkpt lat="40.895942" lon="-3.759513">
        <ele>1208.97</ele>
        <time>2022-06-19T06:12:53+00:00</time>
      </trkpt>
      <trkpt lat="40.896113" lon="-3.759470">
        <ele>1208.49</ele>
        <time>2022-06-19T06:12:54+00:00</time>
      </trkpt>
      <trkpt lat="40.897165" lon="-3.759255">
        <ele>1204.17</ele>
        <time>2022-06-19T06:13:00+00:00</time>
      </trkpt>
      <trkpt lat="40.897315" lon="-3.759148">
        <ele>1203.21</ele>
        <time>2022-06-19T06:13:01+00:00</time>
      </trkpt>
      <trkpt lat="40.897444" lon="-3.759041">
        <ele>1201.76</ele>
        <time>2022-06-19T06:13:02+00:00</time>
      </trkpt>
      <trkpt lat="40.897594" lon="-3.758912">
        <ele>1200.32</ele>
        <time>2022-06-19T06:13:03+00:00</time>
      </trkpt>
      <trkpt lat="40.897723" lon="-3.758805">
        <ele>1198.88</ele>
        <time>2022-06-19T06:13:04+00:00</time>
      </trkpt>
      <trkpt lat="40.897980" lon="-3.758504">
        <ele>1196.00</ele>
        <time>2022-06-19T06:13:06+00:00</time>
      </trkpt>
      <trkpt lat="40.898109" lon="-3.758311">
        <ele>1194.55</ele>
        <time>2022-06-19T06:13:07+00:00</time>
      </trkpt>
      <trkpt lat="40.898538" lon="-3.757582">
        <ele>1189.75</ele>
        <time>2022-06-19T06:13:12+00:00</time>
      </trkpt>
      <trkpt lat="40.898624" lon="-3.757496">
        <ele>1189.27</ele>
        <time>2022-06-19T06:13:13+00:00</time>
      </trkpt>
      <trkpt lat="40.898710" lon="-3.757474">
        <ele>1188.31</ele>
        <time>2022-06-19T06:13:14+00:00</time>
      </trkpt>
      <trkpt lat="40.898817" lon="-3.757517">
        <ele>1187.83</ele>
        <time>2022-06-19T06:13:15+00:00</time>
      </trkpt>
      <trkpt lat="40.898924" lon="-3.757582">
        <ele>1186.86</ele>
        <time>2022-06-19T06:13:16+00:00</time>
      </trkpt>
      <trkpt lat="40.899010" lon="-3.757711">
        <ele>1185.90</ele>
        <time>2022-06-19T06:13:17+00:00</time>
      </trkpt>
      <trkpt lat="40.899096" lon="-3.757861">
        <ele>1185.42</ele>
        <time>2022-06-19T06:13:18+00:00</time>
      </trkpt>
      <trkpt lat="40.899160" lon="-3.757989">
        <ele>1184.46</ele>
        <time>2022-06-19T06:13:19+00:00</time>
      </trkpt>
      <trkpt lat="40.899225" lon="-3.758075">
        <ele>1183.50</ele>
        <time>2022-06-19T06:13:20+00:00</time>
      </trkpt>
      <trkpt lat="40.899354" lon="-3.758097">
        <ele>1183.02</ele>
        <time>2022-06-19T06:13:21+00:00</time>
      </trkpt>
      <trkpt lat="40.899482" lon="-3.758118">
        <ele>1182.54</ele>
        <time>2022-06-19T06:13:22+00:00</time>
      </trkpt>
      <trkpt lat="40.899632" lon="-3.758118">
        <ele>1182.06</ele>
        <time>2022-06-19T06:13:23+00:00</time>
      </trkpt>
      <trkpt lat="40.899761" lon="-3.758161">
        <ele>1181.10</ele>
        <time>2022-06-19T06:13:24+00:00</time>
      </trkpt>
      <trkpt lat="40.899890" lon="-3.758204">
        <ele>1180.14</ele>
        <time>2022-06-19T06:13:25+00:00</time>
      </trkpt>
      <trkpt lat="40.900019" lon="-3.758247">
        <ele>1179.65</ele>
        <time>2022-06-19T06:13:26+00:00</time>
      </trkpt>
      <trkpt lat="40.900126" lon="-3.758290">
        <ele>1178.69</ele>
        <time>2022-06-19T06:13:27+00:00</time>
      </trkpt>
      <trkpt lat="40.900212" lon="-3.758247">
        <ele>1178.21</ele>
        <time>2022-06-19T06:13:28+00:00</time>
      </trkpt>
      <trkpt lat="40.900298" lon="-3.758161">
        <ele>1177.25</ele>
        <time>2022-06-19T06:13:29+00:00</time>
      </trkpt>
      <trkpt lat="40.900319" lon="-3.758075">
        <ele>1176.29</ele>
        <time>2022-06-19T06:13:30+00:00</time>
      </trkpt>
      <trkpt lat="40.900341" lon="-3.757925">
        <ele>1175.81</ele>
        <time>2022-06-19T06:13:31+00:00</time>
      </trkpt>
      <trkpt lat="40.900319" lon="-3.757775">
        <ele>1175.33</ele>
        <time>2022-06-19T06:13:32+00:00</time>
      </trkpt>
      <trkpt lat="40.900233" lon="-3.757625">
        <ele>1174.85</ele>
        <time>2022-06-19T06:13:33+00:00</time>
      </trkpt>
      <trkpt lat="40.900147" lon="-3.757474">
        <ele>1174.37</ele>
        <time>2022-06-19T06:13:34+00:00</time>
      </trkpt>
      <trkpt lat="40.900062" lon="-3.757346">
        <ele>1173.41</ele>
        <time>2022-06-19T06:13:35+00:00</time>
      </trkpt>
      <trkpt lat="40.899225" lon="-3.756101">
        <ele>1166.20</ele>
        <time>2022-06-19T06:13:43+00:00</time>
      </trkpt>
      <trkpt lat="40.899096" lon="-3.756015">
        <ele>1165.72</ele>
        <time>2022-06-19T06:13:44+00:00</time>
      </trkpt>
      <trkpt lat="40.898967" lon="-3.755930">
        <ele>1164.75</ele>
        <time>2022-06-19T06:13:45+00:00</time>
      </trkpt>
      <trkpt lat="40.898581" lon="-3.755651">
        <ele>1161.87</ele>
        <time>2022-06-19T06:13:49+00:00</time>
      </trkpt>
      <trkpt lat="40.898560" lon="-3.755543">
        <ele>1160.91</ele>
        <time>2022-06-19T06:13:50+00:00</time>
      </trkpt>
      <trkpt lat="40.898517" lon="-3.755393">
        <ele>1160.43</ele>
        <time>2022-06-19T06:13:51+00:00</time>
      </trkpt>
      <trkpt lat="40.898474" lon="-3.755221">
        <ele>1159.47</ele>
        <time>2022-06-19T06:13:52+00:00</time>
      </trkpt>
      <trkpt lat="40.898409" lon="-3.755028">
        <ele>1158.51</ele>
        <time>2022-06-19T06:13:53+00:00</time>
      </trkpt>
      <trkpt lat="40.898324" lon="-3.754835">
        <ele>1158.03</ele>
        <time>2022-06-19T06:13:54+00:00</time>
      </trkpt>
      <trkpt lat="40.898130" lon="-3.754256">
        <ele>1155.14</ele>
        <time>2022-06-19T06:13:57+00:00</time>
      </trkpt>
      <trkpt lat="40.898088" lon="-3.754063">
        <ele>1154.18</ele>
        <time>2022-06-19T06:13:58+00:00</time>
      </trkpt>
      <trkpt lat="40.898088" lon="-3.753891">
        <ele>1153.70</ele>
        <time>2022-06-19T06:13:59+00:00</time>
      </trkpt>
      <trkpt lat="40.898088" lon="-3.753719">
        <ele>1152.74</ele>
        <time>2022-06-19T06:14:00+00:00</time>
      </trkpt>
      <trkpt lat="40.898088" lon="-3.753569">
        <ele>1151.78</ele>
        <time>2022-06-19T06:14:01+00:00</time>
      </trkpt>
      <trkpt lat="40.898152" lon="-3.753419">
        <ele>1151.30</ele>
        <time>2022-06-19T06:14:02+00:00</time>
      </trkpt>
      <trkpt lat="40.898216" lon="-3.753290">
        <ele>1150.82</ele>
        <time>2022-06-19T06:14:03+00:00</time>
      </trkpt>
      <trkpt lat="40.898302" lon="-3.753140">
        <ele>1149.85</ele>
        <time>2022-06-19T06:14:04+00:00</time>
      </trkpt>
      <trkpt lat="40.898388" lon="-3.752990">
        <ele>1149.37</ele>
        <time>2022-06-19T06:14:05+00:00</time>
      </trkpt>
      <trkpt lat="40.898409" lon="-3.752818">
        <ele>1148.41</ele>
        <time>2022-06-19T06:14:06+00:00</time>
      </trkpt>
      <trkpt lat="40.898431" lon="-3.752646">
        <ele>1147.93</ele>
        <time>2022-06-19T06:14:07+00:00</time>
      </trkpt>
      <trkpt lat="40.898452" lon="-3.752496">
        <ele>1147.93</ele>
        <time>2022-06-19T06:14:08+00:00</time>
      </trkpt>
      <trkpt lat="40.898517" lon="-3.752368">
        <ele>1147.93</ele>
        <time>2022-06-19T06:14:09+00:00</time>
      </trkpt>
      <trkpt lat="40.898602" lon="-3.752282">
        <ele>1147.93</ele>
        <time>2022-06-19T06:14:10+00:00</time>
      </trkpt>
      <trkpt lat="40.898731" lon="-3.752217">
        <ele>1147.93</ele>
        <time>2022-06-19T06:14:11+00:00</time>
      </trkpt>
      <trkpt lat="40.898903" lon="-3.752132">
        <ele>1147.93</ele>
        <time>2022-06-19T06:14:12+00:00</time>
      </trkpt>
      <trkpt lat="40.899053" lon="-3.752067">
        <ele>1147.93</ele>
        <time>2022-06-19T06:14:13+00:00</time>
      </trkpt>
      <trkpt lat="40.899203" lon="-3.751960">
        <ele>1147.93</ele>
        <time>2022-06-19T06:14:14+00:00</time>
      </trkpt>
      <trkpt lat="40.899332" lon="-3.751810">
        <ele>1148.41</ele>
        <time>2022-06-19T06:14:15+00:00</time>
      </trkpt>
      <trkpt lat="40.899740" lon="-3.751402">
        <ele>1148.41</ele>
        <time>2022-06-19T06:14:18+00:00</time>
      </trkpt>
      <trkpt lat="40.899911" lon="-3.751295">
        <ele>1147.93</ele>
        <time>2022-06-19T06:14:19+00:00</time>
      </trkpt>
      <trkpt lat="40.900405" lon="-3.751080">
        <ele>1148.41</ele>
        <time>2022-06-19T06:14:22+00:00</time>
      </trkpt>
      <trkpt lat="40.901607" lon="-3.750780">
        <ele>1148.41</ele>
        <time>2022-06-19T06:14:29+00:00</time>
      </trkpt>
      <trkpt lat="40.901757" lon="-3.750694">
        <ele>1147.93</ele>
        <time>2022-06-19T06:14:30+00:00</time>
      </trkpt>
      <trkpt lat="40.901907" lon="-3.750587">
        <ele>1147.93</ele>
        <time>2022-06-19T06:14:31+00:00</time>
      </trkpt>
      <trkpt lat="40.903194" lon="-3.749664">
        <ele>1143.12</ele>
        <time>2022-06-19T06:14:40+00:00</time>
      </trkpt>
      <trkpt lat="40.903323" lon="-3.749514">
        <ele>1142.64</ele>
        <time>2022-06-19T06:14:41+00:00</time>
      </trkpt>
      <trkpt lat="40.903430" lon="-3.749342">
        <ele>1142.16</ele>
        <time>2022-06-19T06:14:42+00:00</time>
      </trkpt>
      <trkpt lat="40.904246" lon="-3.747754">
        <ele>1140.72</ele>
        <time>2022-06-19T06:14:50+00:00</time>
      </trkpt>
      <trkpt lat="40.904589" lon="-3.747003">
        <ele>1141.68</ele>
        <time>2022-06-19T06:14:54+00:00</time>
      </trkpt>
      <trkpt lat="40.904696" lon="-3.746831">
        <ele>1141.68</ele>
        <time>2022-06-19T06:14:55+00:00</time>
      </trkpt>
      <trkpt lat="40.905555" lon="-3.745415">
        <ele>1142.16</ele>
        <time>2022-06-19T06:15:03+00:00</time>
      </trkpt>
      <trkpt lat="40.905920" lon="-3.744686">
        <ele>1141.68</ele>
        <time>2022-06-19T06:15:07+00:00</time>
      </trkpt>
      <trkpt lat="40.905984" lon="-3.744471">
        <ele>1141.20</ele>
        <time>2022-06-19T06:15:08+00:00</time>
      </trkpt>
      <trkpt lat="40.906392" lon="-3.742883">
        <ele>1140.72</ele>
        <time>2022-06-19T06:15:16+00:00</time>
      </trkpt>
      <trkpt lat="40.906649" lon="-3.741596">
        <ele>1138.80</ele>
        <time>2022-06-19T06:15:25+00:00</time>
      </trkpt>
      <trkpt lat="40.906713" lon="-3.739965">
        <ele>1134.95</ele>
        <time>2022-06-19T06:15:35+00:00</time>
      </trkpt>
      <trkpt lat="40.906692" lon="-3.739815">
        <ele>1134.95</ele>
        <time>2022-06-19T06:15:36+00:00</time>
      </trkpt>
      <trkpt lat="40.906671" lon="-3.739686">
        <ele>1134.95</ele>
        <time>2022-06-19T06:15:37+00:00</time>
      </trkpt>
      <trkpt lat="40.906542" lon="-3.739364">
        <ele>1134.47</ele>
        <time>2022-06-19T06:15:40+00:00</time>
      </trkpt>
      <trkpt lat="40.906499" lon="-3.739257">
        <ele>1133.99</ele>
        <time>2022-06-19T06:15:41+00:00</time>
      </trkpt>
      <trkpt lat="40.906499" lon="-3.739128">
        <ele>1133.99</ele>
        <time>2022-06-19T06:15:42+00:00</time>
      </trkpt>
      <trkpt lat="40.906520" lon="-3.739021">
        <ele>1133.51</ele>
        <time>2022-06-19T06:15:43+00:00</time>
      </trkpt>
      <trkpt lat="40.906542" lon="-3.738935">
        <ele>1133.51</ele>
        <time>2022-06-19T06:15:44+00:00</time>
      </trkpt>
      <trkpt lat="40.906606" lon="-3.738849">
        <ele>1133.03</ele>
        <time>2022-06-19T06:15:45+00:00</time>
      </trkpt>
      <trkpt lat="40.906649" lon="-3.738785">
        <ele>1133.03</ele>
        <time>2022-06-19T06:15:46+00:00</time>
      </trkpt>
      <trkpt lat="40.906713" lon="-3.738763">
        <ele>1133.03</ele>
        <time>2022-06-19T06:15:47+00:00</time>
      </trkpt>
      <trkpt lat="40.906799" lon="-3.738742">
        <ele>1133.51</ele>
        <time>2022-06-19T06:15:48+00:00</time>
      </trkpt>
      <trkpt lat="40.907507" lon="-3.738463">
        <ele>1134.47</ele>
        <time>2022-06-19T06:15:55+00:00</time>
      </trkpt>
      <trkpt lat="40.908430" lon="-3.737884">
        <ele>1138.80</ele>
        <time>2022-06-19T06:16:05+00:00</time>
      </trkpt>
      <trkpt lat="40.909074" lon="-3.737648">
        <ele>1140.72</ele>
        <time>2022-06-19T06:16:12+00:00</time>
      </trkpt>
      <trkpt lat="40.909203" lon="-3.737626">
        <ele>1140.72</ele>
        <time>2022-06-19T06:16:14+00:00</time>
      </trkpt>
      <trkpt lat="40.909267" lon="-3.737648">
        <ele>1140.72</ele>
        <time>2022-06-19T06:16:15+00:00</time>
      </trkpt>
      <trkpt lat="40.909310" lon="-3.737733">
        <ele>1140.72</ele>
        <time>2022-06-19T06:16:16+00:00</time>
      </trkpt>
      <trkpt lat="40.909331" lon="-3.737798">
        <ele>1140.72</ele>
        <time>2022-06-19T06:16:17+00:00</time>
      </trkpt>
      <trkpt lat="40.909353" lon="-3.737905">
        <ele>1140.24</ele>
        <time>2022-06-19T06:16:18+00:00</time>
      </trkpt>
      <trkpt lat="40.909353" lon="-3.737991">
        <ele>1139.76</ele>
        <time>2022-06-19T06:16:19+00:00</time>
      </trkpt>
      <trkpt lat="40.909417" lon="-3.738098">
        <ele>1139.76</ele>
        <time>2022-06-19T06:16:20+00:00</time>
      </trkpt>
      <trkpt lat="40.909503" lon="-3.738120">
        <ele>1139.76</ele>
        <time>2022-06-19T06:16:21+00:00</time>
      </trkpt>
      <trkpt lat="40.909567" lon="-3.738141">
        <ele>1140.24</ele>
        <time>2022-06-19T06:16:22+00:00</time>
      </trkpt>
      <trkpt lat="40.909653" lon="-3.738163">
        <ele>1140.72</ele>
        <time>2022-06-19T06:16:23+00:00</time>
      </trkpt>
      <trkpt lat="40.909739" lon="-3.738184">
        <ele>1141.20</ele>
        <time>2022-06-19T06:16:24+00:00</time>
      </trkpt>
      <trkpt lat="40.909825" lon="-3.738184">
        <ele>1141.68</ele>
        <time>2022-06-19T06:16:25+00:00</time>
      </trkpt>
      <trkpt lat="40.909911" lon="-3.738163">
        <ele>1142.16</ele>
        <time>2022-06-19T06:16:26+00:00</time>
      </trkpt>
      <trkpt lat="40.910962" lon="-3.738248">
        <ele>1137.84</ele>
        <time>2022-06-19T06:16:34+00:00</time>
      </trkpt>
      <trkpt lat="40.911906" lon="-3.738356">
        <ele>1130.63</ele>
        <time>2022-06-19T06:16:41+00:00</time>
      </trkpt>
      <trkpt lat="40.912829" lon="-3.738120">
        <ele>1125.34</ele>
        <time>2022-06-19T06:16:48+00:00</time>
      </trkpt>
      <trkpt lat="40.914116" lon="-3.737776">
        <ele>1119.09</ele>
        <time>2022-06-19T06:16:55+00:00</time>
      </trkpt>
      <trkpt lat="40.914310" lon="-3.737733">
        <ele>1117.65</ele>
        <time>2022-06-19T06:16:56+00:00</time>
      </trkpt>
      <trkpt lat="40.914524" lon="-3.737712">
        <ele>1116.69</ele>
        <time>2022-06-19T06:16:57+00:00</time>
      </trkpt>
      <trkpt lat="40.914932" lon="-3.737648">
        <ele>1115.73</ele>
        <time>2022-06-19T06:16:59+00:00</time>
      </trkpt>
      <trkpt lat="40.915125" lon="-3.737605">
        <ele>1116.21</ele>
        <time>2022-06-19T06:17:00+00:00</time>
      </trkpt>
      <trkpt lat="40.915318" lon="-3.737540">
        <ele>1116.69</ele>
        <time>2022-06-19T06:17:01+00:00</time>
      </trkpt>
      <trkpt lat="40.915511" lon="-3.737433">
        <ele>1117.17</ele>
        <time>2022-06-19T06:17:02+00:00</time>
      </trkpt>
      <trkpt lat="40.915683" lon="-3.737326">
        <ele>1118.13</ele>
        <time>2022-06-19T06:17:03+00:00</time>
      </trkpt>
      <trkpt lat="40.915854" lon="-3.737197">
        <ele>1118.61</ele>
        <time>2022-06-19T06:17:04+00:00</time>
      </trkpt>
      <trkpt lat="40.916026" lon="-3.737047">
        <ele>1118.61</ele>
        <time>2022-06-19T06:17:05+00:00</time>
      </trkpt>
      <trkpt lat="40.916176" lon="-3.736897">
        <ele>1118.61</ele>
        <time>2022-06-19T06:17:06+00:00</time>
      </trkpt>
      <trkpt lat="40.916627" lon="-3.736446">
        <ele>1117.65</ele>
        <time>2022-06-19T06:17:09+00:00</time>
      </trkpt>
      <trkpt lat="40.916777" lon="-3.736360">
        <ele>1117.17</ele>
        <time>2022-06-19T06:17:10+00:00</time>
      </trkpt>
      <trkpt lat="40.916949" lon="-3.736360">
        <ele>1116.69</ele>
        <time>2022-06-19T06:17:11+00:00</time>
      </trkpt>
      <trkpt lat="40.917120" lon="-3.736339">
        <ele>1116.21</ele>
        <time>2022-06-19T06:17:12+00:00</time>
      </trkpt>
      <trkpt lat="40.917335" lon="-3.736339">
        <ele>1115.73</ele>
        <time>2022-06-19T06:17:13+00:00</time>
      </trkpt>
      <trkpt lat="40.919030" lon="-3.736274">
        <ele>1110.92</ele>
        <time>2022-06-19T06:17:21+00:00</time>
      </trkpt>
      <trkpt lat="40.919223" lon="-3.736210">
        <ele>1110.44</ele>
        <time>2022-06-19T06:17:22+00:00</time>
      </trkpt>
      <trkpt lat="40.919416" lon="-3.736124">
        <ele>1109.96</ele>
        <time>2022-06-19T06:17:23+00:00</time>
      </trkpt>
      <trkpt lat="40.919610" lon="-3.735995">
        <ele>1109.48</ele>
        <time>2022-06-19T06:17:24+00:00</time>
      </trkpt>
      <trkpt lat="40.919803" lon="-3.735845">
        <ele>1109.00</ele>
        <time>2022-06-19T06:17:25+00:00</time>
      </trkpt>
      <trkpt lat="40.919996" lon="-3.735695">
        <ele>1108.52</ele>
        <time>2022-06-19T06:17:26+00:00</time>
      </trkpt>
      <trkpt lat="40.920167" lon="-3.735566">
        <ele>1108.52</ele>
        <time>2022-06-19T06:17:27+00:00</time>
      </trkpt>
      <trkpt lat="40.920318" lon="-3.735416">
        <ele>1108.04</ele>
        <time>2022-06-19T06:17:28+00:00</time>
      </trkpt>
      <trkpt lat="40.920640" lon="-3.735180">
        <ele>1107.56</ele>
        <time>2022-06-19T06:17:30+00:00</time>
      </trkpt>
      <trkpt lat="40.920790" lon="-3.735137">
        <ele>1107.08</ele>
        <time>2022-06-19T06:17:31+00:00</time>
      </trkpt>
      <trkpt lat="40.920983" lon="-3.735094">
        <ele>1107.08</ele>
        <time>2022-06-19T06:17:32+00:00</time>
      </trkpt>
      <trkpt lat="40.921755" lon="-3.734901">
        <ele>1105.63</ele>
        <time>2022-06-19T06:17:36+00:00</time>
      </trkpt>
      <trkpt lat="40.921927" lon="-3.734815">
        <ele>1105.63</ele>
        <time>2022-06-19T06:17:37+00:00</time>
      </trkpt>
      <trkpt lat="40.923300" lon="-3.734107">
        <ele>1103.71</ele>
        <time>2022-06-19T06:17:44+00:00</time>
      </trkpt>
      <trkpt lat="40.925231" lon="-3.733099">
        <ele>1104.19</ele>
        <time>2022-06-19T06:17:54+00:00</time>
      </trkpt>
      <trkpt lat="40.926455" lon="-3.732369">
        <ele>1106.59</ele>
        <time>2022-06-19T06:18:01+00:00</time>
      </trkpt>
      <trkpt lat="40.928150" lon="-3.731511">
        <ele>1107.08</ele>
        <time>2022-06-19T06:18:09+00:00</time>
      </trkpt>
      <trkpt lat="40.929502" lon="-3.730373">
        <ele>1103.71</ele>
        <time>2022-06-19T06:18:16+00:00</time>
      </trkpt>
      <trkpt lat="40.931089" lon="-3.728356">
        <ele>1099.39</ele>
        <time>2022-06-19T06:18:25+00:00</time>
      </trkpt>
      <trkpt lat="40.933493" lon="-3.725224">
        <ele>1092.66</ele>
        <time>2022-06-19T06:18:39+00:00</time>
      </trkpt>
      <trkpt lat="40.934265" lon="-3.723786">
        <ele>1089.77</ele>
        <time>2022-06-19T06:18:45+00:00</time>
      </trkpt>
      <trkpt lat="40.934372" lon="-3.723550">
        <ele>1089.29</ele>
        <time>2022-06-19T06:18:46+00:00</time>
      </trkpt>
      <trkpt lat="40.934437" lon="-3.723292">
        <ele>1088.33</ele>
        <time>2022-06-19T06:18:47+00:00</time>
      </trkpt>
      <trkpt lat="40.934501" lon="-3.723035">
        <ele>1087.85</ele>
        <time>2022-06-19T06:18:48+00:00</time>
      </trkpt>
      <trkpt lat="40.934802" lon="-3.721919">
        <ele>1083.52</ele>
        <time>2022-06-19T06:18:53+00:00</time>
      </trkpt>
      <trkpt lat="40.934887" lon="-3.721769">
        <ele>1083.04</ele>
        <time>2022-06-19T06:18:54+00:00</time>
      </trkpt>
      <trkpt lat="40.934995" lon="-3.721619">
        <ele>1082.08</ele>
        <time>2022-06-19T06:18:55+00:00</time>
      </trkpt>
      <trkpt lat="40.935231" lon="-3.721340">
        <ele>1081.12</ele>
        <time>2022-06-19T06:18:57+00:00</time>
      </trkpt>
      <trkpt lat="40.935317" lon="-3.721168">
        <ele>1080.16</ele>
        <time>2022-06-19T06:18:58+00:00</time>
      </trkpt>
      <trkpt lat="40.935402" lon="-3.720954">
        <ele>1079.68</ele>
        <time>2022-06-19T06:18:59+00:00</time>
      </trkpt>
      <trkpt lat="40.935445" lon="-3.720696">
        <ele>1079.20</ele>
        <time>2022-06-19T06:19:00+00:00</time>
      </trkpt>
      <trkpt lat="40.935467" lon="-3.720417">
        <ele>1078.24</ele>
        <time>2022-06-19T06:19:01+00:00</time>
      </trkpt>
      <trkpt lat="40.935467" lon="-3.720160">
        <ele>1077.76</ele>
        <time>2022-06-19T06:19:02+00:00</time>
      </trkpt>
      <trkpt lat="40.935467" lon="-3.719881">
        <ele>1077.28</ele>
        <time>2022-06-19T06:19:03+00:00</time>
      </trkpt>
      <trkpt lat="40.935467" lon="-3.719409">
        <ele>1076.31</ele>
        <time>2022-06-19T06:19:05+00:00</time>
      </trkpt>
      <trkpt lat="40.935488" lon="-3.719173">
        <ele>1075.83</ele>
        <time>2022-06-19T06:19:06+00:00</time>
      </trkpt>
      <trkpt lat="40.935553" lon="-3.718979">
        <ele>1075.35</ele>
        <time>2022-06-19T06:19:07+00:00</time>
      </trkpt>
      <trkpt lat="40.935638" lon="-3.718765">
        <ele>1074.87</ele>
        <time>2022-06-19T06:19:08+00:00</time>
      </trkpt>
      <trkpt lat="40.935746" lon="-3.718529">
        <ele>1074.39</ele>
        <time>2022-06-19T06:19:09+00:00</time>
      </trkpt>
      <trkpt lat="40.936583" lon="-3.716812">
        <ele>1070.55</ele>
        <time>2022-06-19T06:19:16+00:00</time>
      </trkpt>
      <trkpt lat="40.936733" lon="-3.716619">
        <ele>1070.06</ele>
        <time>2022-06-19T06:19:17+00:00</time>
      </trkpt>
      <trkpt lat="40.936904" lon="-3.716469">
        <ele>1069.10</ele>
        <time>2022-06-19T06:19:18+00:00</time>
      </trkpt>
      <trkpt lat="40.937098" lon="-3.716319">
        <ele>1068.62</ele>
        <time>2022-06-19T06:19:19+00:00</time>
      </trkpt>
      <trkpt lat="40.937849" lon="-3.715653">
        <ele>1066.22</ele>
        <time>2022-06-19T06:19:23+00:00</time>
      </trkpt>
      <trkpt lat="40.937977" lon="-3.715460">
        <ele>1065.26</ele>
        <time>2022-06-19T06:19:24+00:00</time>
      </trkpt>
      <trkpt lat="40.938128" lon="-3.715224">
        <ele>1064.78</ele>
        <time>2022-06-19T06:19:25+00:00</time>
      </trkpt>
      <trkpt lat="40.939351" lon="-3.713293">
        <ele>1057.57</ele>
        <time>2022-06-19T06:19:33+00:00</time>
      </trkpt>
      <trkpt lat="40.939737" lon="-3.712692">
        <ele>1055.65</ele>
        <time>2022-06-19T06:19:36+00:00</time>
      </trkpt>
      <trkpt lat="40.939887" lon="-3.712499">
        <ele>1055.16</ele>
        <time>2022-06-19T06:19:37+00:00</time>
      </trkpt>
      <trkpt lat="40.941346" lon="-3.711212">
        <ele>1050.36</ele>
        <time>2022-06-19T06:19:45+00:00</time>
      </trkpt>
      <trkpt lat="40.942441" lon="-3.710504">
        <ele>1044.59</ele>
        <time>2022-06-19T06:19:52+00:00</time>
      </trkpt>
      <trkpt lat="40.943020" lon="-3.710160">
        <ele>1039.78</ele>
        <time>2022-06-19T06:19:57+00:00</time>
      </trkpt>
      <trkpt lat="40.943063" lon="-3.710096">
        <ele>1039.30</ele>
        <time>2022-06-19T06:19:58+00:00</time>
      </trkpt>
      <trkpt lat="40.943084" lon="-3.710053">
        <ele>1038.34</ele>
        <time>2022-06-19T06:19:59+00:00</time>
      </trkpt>
      <trkpt lat="40.943106" lon="-3.710010">
        <ele>1037.38</ele>
        <time>2022-06-19T06:20:00+00:00</time>
      </trkpt>
      <trkpt lat="40.943106" lon="-3.709967">
        <ele>1036.90</ele>
        <time>2022-06-19T06:20:01+00:00</time>
      </trkpt>
      <trkpt lat="40.943106" lon="-3.709946">
        <ele>1035.94</ele>
        <time>2022-06-19T06:20:02+00:00</time>
      </trkpt>
      <trkpt lat="40.943127" lon="-3.709881">
        <ele>1034.50</ele>
        <time>2022-06-19T06:20:07+00:00</time>
      </trkpt>
      <trkpt lat="40.943127" lon="-3.709753">
        <ele>1033.54</ele>
        <time>2022-06-19T06:20:08+00:00</time>
      </trkpt>
      <trkpt lat="40.943084" lon="-3.709645">
        <ele>1033.54</ele>
        <time>2022-06-19T06:20:09+00:00</time>
      </trkpt>
      <trkpt lat="40.942698" lon="-3.708701">
        <ele>1033.05</ele>
        <time>2022-06-19T06:20:14+00:00</time>
      </trkpt>
      <trkpt lat="40.941968" lon="-3.706834">
        <ele>1034.02</ele>
        <time>2022-06-19T06:20:21+00:00</time>
      </trkpt>
      <trkpt lat="40.941818" lon="-3.706212">
        <ele>1034.50</ele>
        <time>2022-06-19T06:20:23+00:00</time>
      </trkpt>
      <trkpt lat="40.941754" lon="-3.705912">
        <ele>1034.50</ele>
        <time>2022-06-19T06:20:24+00:00</time>
      </trkpt>
      <trkpt lat="40.941732" lon="-3.705568">
        <ele>1034.50</ele>
        <time>2022-06-19T06:20:25+00:00</time>
      </trkpt>
      <trkpt lat="40.941732" lon="-3.705246">
        <ele>1034.50</ele>
        <time>2022-06-19T06:20:26+00:00</time>
      </trkpt>
      <trkpt lat="40.941754" lon="-3.704903">
        <ele>1034.50</ele>
        <time>2022-06-19T06:20:27+00:00</time>
      </trkpt>
      <trkpt lat="40.941861" lon="-3.702157">
        <ele>1040.74</ele>
        <time>2022-06-19T06:20:35+00:00</time>
      </trkpt>
      <trkpt lat="40.942097" lon="-3.698659">
        <ele>1055.16</ele>
        <time>2022-06-19T06:20:45+00:00</time>
      </trkpt>
      <trkpt lat="40.942505" lon="-3.694367">
        <ele>1064.78</ele>
        <time>2022-06-19T06:20:57+00:00</time>
      </trkpt>
      <trkpt lat="40.943192" lon="-3.691235">
        <ele>1067.66</ele>
        <time>2022-06-19T06:21:06+00:00</time>
      </trkpt>
      <trkpt lat="40.943964" lon="-3.687522">
        <ele>1071.03</ele>
        <time>2022-06-19T06:21:17+00:00</time>
      </trkpt>
      <trkpt lat="40.943964" lon="-3.687201">
        <ele>1071.03</ele>
        <time>2022-06-19T06:21:18+00:00</time>
      </trkpt>
      <trkpt lat="40.943943" lon="-3.686857">
        <ele>1071.51</ele>
        <time>2022-06-19T06:21:19+00:00</time>
      </trkpt>
      <trkpt lat="40.943900" lon="-3.686535">
        <ele>1071.51</ele>
        <time>2022-06-19T06:21:20+00:00</time>
      </trkpt>
      <trkpt lat="40.943814" lon="-3.686214">
        <ele>1071.51</ele>
        <time>2022-06-19T06:21:21+00:00</time>
      </trkpt>
      <trkpt lat="40.943707" lon="-3.685870">
        <ele>1071.51</ele>
        <time>2022-06-19T06:21:22+00:00</time>
      </trkpt>
      <trkpt lat="40.943621" lon="-3.685570">
        <ele>1071.99</ele>
        <time>2022-06-19T06:21:23+00:00</time>
      </trkpt>
      <trkpt lat="40.943406" lon="-3.684604">
        <ele>1071.99</ele>
        <time>2022-06-19T06:21:26+00:00</time>
      </trkpt>
      <trkpt lat="40.943385" lon="-3.684261">
        <ele>1071.99</ele>
        <time>2022-06-19T06:21:27+00:00</time>
      </trkpt>
      <trkpt lat="40.943385" lon="-3.683918">
        <ele>1071.99</ele>
        <time>2022-06-19T06:21:28+00:00</time>
      </trkpt>
      <trkpt lat="40.943428" lon="-3.683574">
        <ele>1072.47</ele>
        <time>2022-06-19T06:21:29+00:00</time>
      </trkpt>
      <trkpt lat="40.943492" lon="-3.683231">
        <ele>1072.95</ele>
        <time>2022-06-19T06:21:30+00:00</time>
      </trkpt>
      <trkpt lat="40.943535" lon="-3.682888">
        <ele>1073.43</ele>
        <time>2022-06-19T06:21:31+00:00</time>
      </trkpt>
      <trkpt lat="40.944264" lon="-3.678618">
        <ele>1085.93</ele>
        <time>2022-06-19T06:21:44+00:00</time>
      </trkpt>
      <trkpt lat="40.944994" lon="-3.674991">
        <ele>1096.98</ele>
        <time>2022-06-19T06:21:55+00:00</time>
      </trkpt>
      <trkpt lat="40.945316" lon="-3.673103">
        <ele>1102.27</ele>
        <time>2022-06-19T06:22:01+00:00</time>
      </trkpt>
      <trkpt lat="40.945294" lon="-3.672781">
        <ele>1102.75</ele>
        <time>2022-06-19T06:22:02+00:00</time>
      </trkpt>
      <trkpt lat="40.945251" lon="-3.672459">
        <ele>1103.23</ele>
        <time>2022-06-19T06:22:03+00:00</time>
      </trkpt>
      <trkpt lat="40.944887" lon="-3.669498">
        <ele>1105.63</ele>
        <time>2022-06-19T06:22:11+00:00</time>
      </trkpt>
      <trkpt lat="40.944522" lon="-3.666472">
        <ele>1112.84</ele>
        <time>2022-06-19T06:22:20+00:00</time>
      </trkpt>
      <trkpt lat="40.944050" lon="-3.663576">
        <ele>1124.86</ele>
        <time>2022-06-19T06:22:30+00:00</time>
      </trkpt>
      <trkpt lat="40.943771" lon="-3.662825">
        <ele>1128.71</ele>
        <time>2022-06-19T06:22:35+00:00</time>
      </trkpt>
      <trkpt lat="40.943149" lon="-3.661237">
        <ele>1130.63</ele>
        <time>2022-06-19T06:22:47+00:00</time>
      </trkpt>
      <trkpt lat="40.942355" lon="-3.659091">
        <ele>1129.19</ele>
        <time>2022-06-19T06:23:02+00:00</time>
      </trkpt>
      <trkpt lat="40.942033" lon="-3.657932">
        <ele>1125.34</ele>
        <time>2022-06-19T06:23:10+00:00</time>
      </trkpt>
      <trkpt lat="40.942054" lon="-3.657739">
        <ele>1124.38</ele>
        <time>2022-06-19T06:23:11+00:00</time>
      </trkpt>
      <trkpt lat="40.942054" lon="-3.657568">
        <ele>1123.90</ele>
        <time>2022-06-19T06:23:12+00:00</time>
      </trkpt>
      <trkpt lat="40.942076" lon="-3.657374">
        <ele>1123.42</ele>
        <time>2022-06-19T06:23:13+00:00</time>
      </trkpt>
      <trkpt lat="40.942119" lon="-3.657203">
        <ele>1123.42</ele>
        <time>2022-06-19T06:23:14+00:00</time>
      </trkpt>
      <trkpt lat="40.942505" lon="-3.655422">
        <ele>1123.42</ele>
        <time>2022-06-19T06:23:23+00:00</time>
      </trkpt>
      <trkpt lat="40.942848" lon="-3.654177">
        <ele>1125.34</ele>
        <time>2022-06-19T06:23:29+00:00</time>
      </trkpt>
      <trkpt lat="40.942934" lon="-3.654006">
        <ele>1126.30</ele>
        <time>2022-06-19T06:23:30+00:00</time>
      </trkpt>
      <trkpt lat="40.943063" lon="-3.653834">
        <ele>1127.26</ele>
        <time>2022-06-19T06:23:31+00:00</time>
      </trkpt>
      <trkpt lat="40.943234" lon="-3.653684">
        <ele>1128.22</ele>
        <time>2022-06-19T06:23:32+00:00</time>
      </trkpt>
      <trkpt lat="40.943406" lon="-3.653534">
        <ele>1129.19</ele>
        <time>2022-06-19T06:23:33+00:00</time>
      </trkpt>
      <trkpt lat="40.944908" lon="-3.652203">
        <ele>1137.84</ele>
        <time>2022-06-19T06:23:40+00:00</time>
      </trkpt>
      <trkpt lat="40.947097" lon="-3.650186">
        <ele>1152.26</ele>
        <time>2022-06-19T06:23:50+00:00</time>
      </trkpt>
      <trkpt lat="40.948449" lon="-3.648405">
        <ele>1162.35</ele>
        <time>2022-06-19T06:23:57+00:00</time>
      </trkpt>
      <trkpt lat="40.949157" lon="-3.647418">
        <ele>1169.08</ele>
        <time>2022-06-19T06:24:02+00:00</time>
      </trkpt>
      <trkpt lat="40.949221" lon="-3.647268">
        <ele>1170.04</ele>
        <time>2022-06-19T06:24:03+00:00</time>
      </trkpt>
      <trkpt lat="40.949243" lon="-3.647075">
        <ele>1171.48</ele>
        <time>2022-06-19T06:24:04+00:00</time>
      </trkpt>
      <trkpt lat="40.949243" lon="-3.646860">
        <ele>1172.44</ele>
        <time>2022-06-19T06:24:05+00:00</time>
      </trkpt>
      <trkpt lat="40.949200" lon="-3.646646">
        <ele>1173.41</ele>
        <time>2022-06-19T06:24:06+00:00</time>
      </trkpt>
      <trkpt lat="40.949157" lon="-3.646431">
        <ele>1174.37</ele>
        <time>2022-06-19T06:24:07+00:00</time>
      </trkpt>
      <trkpt lat="40.949071" lon="-3.646281">
        <ele>1175.33</ele>
        <time>2022-06-19T06:24:08+00:00</time>
      </trkpt>
      <trkpt lat="40.948964" lon="-3.646131">
        <ele>1176.29</ele>
        <time>2022-06-19T06:24:09+00:00</time>
      </trkpt>
      <trkpt lat="40.948813" lon="-3.646066">
        <ele>1176.77</ele>
        <time>2022-06-19T06:24:10+00:00</time>
      </trkpt>
      <trkpt lat="40.948642" lon="-3.645980">
        <ele>1176.77</ele>
        <time>2022-06-19T06:24:11+00:00</time>
      </trkpt>
      <trkpt lat="40.948427" lon="-3.645916">
        <ele>1176.77</ele>
        <time>2022-06-19T06:24:12+00:00</time>
      </trkpt>
      <trkpt lat="40.948213" lon="-3.645873">
        <ele>1176.29</ele>
        <time>2022-06-19T06:24:13+00:00</time>
      </trkpt>
      <trkpt lat="40.947612" lon="-3.645723">
        <ele>1174.85</ele>
        <time>2022-06-19T06:24:16+00:00</time>
      </trkpt>
      <trkpt lat="40.947440" lon="-3.645594">
        <ele>1173.89</ele>
        <time>2022-06-19T06:24:17+00:00</time>
      </trkpt>
      <trkpt lat="40.947268" lon="-3.645423">
        <ele>1172.93</ele>
        <time>2022-06-19T06:24:18+00:00</time>
      </trkpt>
      <trkpt lat="40.946239" lon="-3.643942">
        <ele>1166.68</ele>
        <time>2022-06-19T06:24:24+00:00</time>
      </trkpt>
      <trkpt lat="40.944994" lon="-3.641882">
        <ele>1157.06</ele>
        <time>2022-06-19T06:24:32+00:00</time>
      </trkpt>
      <trkpt lat="40.944500" lon="-3.640144">
        <ele>1149.37</ele>
        <time>2022-06-19T06:24:37+00:00</time>
      </trkpt>
      <trkpt lat="40.943835" lon="-3.637526">
        <ele>1135.91</ele>
        <time>2022-06-19T06:24:45+00:00</time>
      </trkpt>
      <trkpt lat="40.943213" lon="-3.635273">
        <ele>1124.86</ele>
        <time>2022-06-19T06:24:53+00:00</time>
      </trkpt>
      <trkpt lat="40.942591" lon="-3.633707">
        <ele>1117.17</ele>
        <time>2022-06-19T06:25:01+00:00</time>
      </trkpt>
      <trkpt lat="40.942398" lon="-3.633149">
        <ele>1114.29</ele>
        <time>2022-06-19T06:25:06+00:00</time>
      </trkpt>
      <trkpt lat="40.942247" lon="-3.632977">
        <ele>1113.32</ele>
        <time>2022-06-19T06:25:09+00:00</time>
      </trkpt>
      <trkpt lat="40.942204" lon="-3.632848">
        <ele>1113.32</ele>
        <time>2022-06-19T06:25:10+00:00</time>
      </trkpt>
      <trkpt lat="40.942119" lon="-3.632548">
        <ele>1112.36</ele>
        <time>2022-06-19T06:25:13+00:00</time>
      </trkpt>
      <trkpt lat="40.942097" lon="-3.632441">
        <ele>1111.88</ele>
        <time>2022-06-19T06:25:14+00:00</time>
      </trkpt>
      <trkpt lat="40.942033" lon="-3.632312">
        <ele>1111.40</ele>
        <time>2022-06-19T06:25:15+00:00</time>
      </trkpt>
      <trkpt lat="40.941368" lon="-3.631303">
        <ele>1105.15</ele>
        <time>2022-06-19T06:25:21+00:00</time>
      </trkpt>
      <trkpt lat="40.941196" lon="-3.631132">
        <ele>1103.23</ele>
        <time>2022-06-19T06:25:22+00:00</time>
      </trkpt>
      <trkpt lat="40.939780" lon="-3.629887">
        <ele>1095.54</ele>
        <time>2022-06-19T06:25:29+00:00</time>
      </trkpt>
      <trkpt lat="40.937999" lon="-3.628514">
        <ele>1085.45</ele>
        <time>2022-06-19T06:25:36+00:00</time>
      </trkpt>
      <trkpt lat="40.936389" lon="-3.627441">
        <ele>1078.72</ele>
        <time>2022-06-19T06:25:43+00:00</time>
      </trkpt>
      <trkpt lat="40.935038" lon="-3.626862">
        <ele>1072.95</ele>
        <time>2022-06-19T06:25:50+00:00</time>
      </trkpt>
      <trkpt lat="40.933793" lon="-3.626411">
        <ele>1062.86</ele>
        <time>2022-06-19T06:25:59+00:00</time>
      </trkpt>
      <trkpt lat="40.933557" lon="-3.626325">
        <ele>1059.49</ele>
        <time>2022-06-19T06:26:02+00:00</time>
      </trkpt>
      <trkpt lat="40.933493" lon="-3.626304">
        <ele>1058.53</ele>
        <time>2022-06-19T06:26:03+00:00</time>
      </trkpt>
      <trkpt lat="40.933514" lon="-3.626218">
        <ele>1057.57</ele>
        <time>2022-06-19T06:26:04+00:00</time>
      </trkpt>
      <trkpt lat="40.933493" lon="-3.626175">
        <ele>1057.09</ele>
        <time>2022-06-19T06:26:05+00:00</time>
      </trkpt>
      <trkpt lat="40.933471" lon="-3.626154">
        <ele>1056.13</ele>
        <time>2022-06-19T06:26:06+00:00</time>
      </trkpt>
      <trkpt lat="40.933471" lon="-3.626132">
        <ele>1055.16</ele>
        <time>2022-06-19T06:26:07+00:00</time>
      </trkpt>
      <trkpt lat="40.933450" lon="-3.626089">
        <ele>1054.20</ele>
        <time>2022-06-19T06:26:08+00:00</time>
      </trkpt>
      <trkpt lat="40.933428" lon="-3.626068">
        <ele>1053.72</ele>
        <time>2022-06-19T06:26:09+00:00</time>
      </trkpt>
      <trkpt lat="40.933428" lon="-3.626025">
        <ele>1052.76</ele>
        <time>2022-06-19T06:26:10+00:00</time>
      </trkpt>
      <trkpt lat="40.933428" lon="-3.625939">
        <ele>1052.28</ele>
        <time>2022-06-19T06:26:11+00:00</time>
      </trkpt>
      <trkpt lat="40.933450" lon="-3.625853">
        <ele>1051.32</ele>
        <time>2022-06-19T06:26:12+00:00</time>
      </trkpt>
      <trkpt lat="40.933493" lon="-3.625746">
        <ele>1050.36</ele>
        <time>2022-06-19T06:26:13+00:00</time>
      </trkpt>
      <trkpt lat="40.933514" lon="-3.625639">
        <ele>1049.88</ele>
        <time>2022-06-19T06:26:14+00:00</time>
      </trkpt>
      <trkpt lat="40.933557" lon="-3.625531">
        <ele>1049.88</ele>
        <time>2022-06-19T06:26:15+00:00</time>
      </trkpt>
      <trkpt lat="40.933493" lon="-3.625360">
        <ele>1049.88</ele>
        <time>2022-06-19T06:26:16+00:00</time>
      </trkpt>
      <trkpt lat="40.933493" lon="-3.625209">
        <ele>1049.88</ele>
        <time>2022-06-19T06:26:17+00:00</time>
      </trkpt>
      <trkpt lat="40.933514" lon="-3.625145">
        <ele>1049.88</ele>
        <time>2022-06-19T06:26:18+00:00</time>
      </trkpt>
      <trkpt lat="40.933621" lon="-3.624909">
        <ele>1050.36</ele>
        <time>2022-06-19T06:26:19+00:00</time>
      </trkpt>
      <trkpt lat="40.933600" lon="-3.624737">
        <ele>1050.36</ele>
        <time>2022-06-19T06:26:20+00:00</time>
      </trkpt>
      <trkpt lat="40.933536" lon="-3.624566">
        <ele>1050.36</ele>
        <time>2022-06-19T06:26:21+00:00</time>
      </trkpt>
      <trkpt lat="40.933471" lon="-3.624373">
        <ele>1049.88</ele>
        <time>2022-06-19T06:26:22+00:00</time>
      </trkpt>
      <trkpt lat="40.933407" lon="-3.624179">
        <ele>1049.40</ele>
        <time>2022-06-19T06:26:23+00:00</time>
      </trkpt>
      <trkpt lat="40.933106" lon="-3.623278">
        <ele>1045.07</ele>
        <time>2022-06-19T06:26:30+00:00</time>
      </trkpt>
      <trkpt lat="40.933064" lon="-3.623149">
        <ele>1042.67</ele>
        <time>2022-06-19T06:26:36+00:00</time>
      </trkpt>
      <trkpt lat="40.933064" lon="-3.623064">
        <ele>1042.19</ele>
        <time>2022-06-19T06:26:37+00:00</time>
      </trkpt>
      <trkpt lat="40.933106" lon="-3.623042">
        <ele>1041.71</ele>
        <time>2022-06-19T06:26:38+00:00</time>
      </trkpt>
      <trkpt lat="40.933171" lon="-3.622999">
        <ele>1041.23</ele>
        <time>2022-06-19T06:26:39+00:00</time>
      </trkpt>
      <trkpt lat="40.933257" lon="-3.622935">
        <ele>1040.74</ele>
        <time>2022-06-19T06:26:40+00:00</time>
      </trkpt>
      <trkpt lat="40.933364" lon="-3.622870">
        <ele>1041.23</ele>
        <time>2022-06-19T06:26:41+00:00</time>
      </trkpt>
      <trkpt lat="40.934351" lon="-3.622270">
        <ele>1046.51</ele>
        <time>2022-06-19T06:26:48+00:00</time>
      </trkpt>
      <trkpt lat="40.934523" lon="-3.622227">
        <ele>1046.99</ele>
        <time>2022-06-19T06:26:49+00:00</time>
      </trkpt>
      <trkpt lat="40.935960" lon="-3.622034">
        <ele>1053.72</ele>
        <time>2022-06-19T06:26:56+00:00</time>
      </trkpt>
      <trkpt lat="40.937269" lon="-3.621712">
        <ele>1058.53</ele>
        <time>2022-06-19T06:27:02+00:00</time>
      </trkpt>
      <trkpt lat="40.937462" lon="-3.621647">
        <ele>1059.49</ele>
        <time>2022-06-19T06:27:03+00:00</time>
      </trkpt>
      <trkpt lat="40.937655" lon="-3.621626">
        <ele>1059.97</ele>
        <time>2022-06-19T06:27:04+00:00</time>
      </trkpt>
      <trkpt lat="40.938428" lon="-3.621519">
        <ele>1061.41</ele>
        <time>2022-06-19T06:27:08+00:00</time>
      </trkpt>
      <trkpt lat="40.938600" lon="-3.621411">
        <ele>1061.41</ele>
        <time>2022-06-19T06:27:09+00:00</time>
      </trkpt>
      <trkpt lat="40.938771" lon="-3.621261">
        <ele>1061.89</ele>
        <time>2022-06-19T06:27:10+00:00</time>
      </trkpt>
      <trkpt lat="40.938943" lon="-3.621111">
        <ele>1062.37</ele>
        <time>2022-06-19T06:27:11+00:00</time>
      </trkpt>
      <trkpt lat="40.939115" lon="-3.620918">
        <ele>1062.37</ele>
        <time>2022-06-19T06:27:12+00:00</time>
      </trkpt>
      <trkpt lat="40.939265" lon="-3.620725">
        <ele>1062.37</ele>
        <time>2022-06-19T06:27:13+00:00</time>
      </trkpt>
      <trkpt lat="40.939372" lon="-3.620510">
        <ele>1062.86</ele>
        <time>2022-06-19T06:27:14+00:00</time>
      </trkpt>
      <trkpt lat="40.939479" lon="-3.620274">
        <ele>1062.86</ele>
        <time>2022-06-19T06:27:15+00:00</time>
      </trkpt>
      <trkpt lat="40.939565" lon="-3.620060">
        <ele>1063.34</ele>
        <time>2022-06-19T06:27:16+00:00</time>
      </trkpt>
      <trkpt lat="40.939758" lon="-3.619738">
        <ele>1063.34</ele>
        <time>2022-06-19T06:27:18+00:00</time>
      </trkpt>
      <trkpt lat="40.939866" lon="-3.619587">
        <ele>1063.34</ele>
        <time>2022-06-19T06:27:19+00:00</time>
      </trkpt>
      <trkpt lat="40.939994" lon="-3.619502">
        <ele>1062.86</ele>
        <time>2022-06-19T06:27:20+00:00</time>
      </trkpt>
      <trkpt lat="40.940166" lon="-3.619437">
        <ele>1062.86</ele>
        <time>2022-06-19T06:27:21+00:00</time>
      </trkpt>
      <trkpt lat="40.940359" lon="-3.619373">
        <ele>1062.86</ele>
        <time>2022-06-19T06:27:22+00:00</time>
      </trkpt>
      <trkpt lat="40.941582" lon="-3.619137">
        <ele>1059.49</ele>
        <time>2022-06-19T06:27:28+00:00</time>
      </trkpt>
      <trkpt lat="40.941754" lon="-3.619158">
        <ele>1058.53</ele>
        <time>2022-06-19T06:27:29+00:00</time>
      </trkpt>
      <trkpt lat="40.941947" lon="-3.619223">
        <ele>1057.57</ele>
        <time>2022-06-19T06:27:30+00:00</time>
      </trkpt>
      <trkpt lat="40.942097" lon="-3.619351">
        <ele>1056.61</ele>
        <time>2022-06-19T06:27:31+00:00</time>
      </trkpt>
      <trkpt lat="40.942269" lon="-3.619502">
        <ele>1055.65</ele>
        <time>2022-06-19T06:27:32+00:00</time>
      </trkpt>
      <trkpt lat="40.942441" lon="-3.619652">
        <ele>1054.68</ele>
        <time>2022-06-19T06:27:33+00:00</time>
      </trkpt>
      <trkpt lat="40.942612" lon="-3.619738">
        <ele>1053.72</ele>
        <time>2022-06-19T06:27:34+00:00</time>
      </trkpt>
      <trkpt lat="40.942762" lon="-3.619823">
        <ele>1053.24</ele>
        <time>2022-06-19T06:27:35+00:00</time>
      </trkpt>
      <trkpt lat="40.942955" lon="-3.619866">
        <ele>1052.76</ele>
        <time>2022-06-19T06:27:36+00:00</time>
      </trkpt>
      <trkpt lat="40.943149" lon="-3.619866">
        <ele>1052.28</ele>
        <time>2022-06-19T06:27:37+00:00</time>
      </trkpt>
      <trkpt lat="40.943363" lon="-3.619845">
        <ele>1051.80</ele>
        <time>2022-06-19T06:27:38+00:00</time>
      </trkpt>
      <trkpt lat="40.943556" lon="-3.619802">
        <ele>1051.80</ele>
        <time>2022-06-19T06:27:39+00:00</time>
      </trkpt>
      <trkpt lat="40.943921" lon="-3.619738">
        <ele>1051.80</ele>
        <time>2022-06-19T06:27:41+00:00</time>
      </trkpt>
      <trkpt lat="40.944114" lon="-3.619759">
        <ele>1051.80</ele>
        <time>2022-06-19T06:27:42+00:00</time>
      </trkpt>
      <trkpt lat="40.944329" lon="-3.619781">
        <ele>1051.80</ele>
        <time>2022-06-19T06:27:43+00:00</time>
      </trkpt>
      <trkpt lat="40.945273" lon="-3.619888">
        <ele>1048.44</ele>
        <time>2022-06-19T06:27:48+00:00</time>
      </trkpt>
      <trkpt lat="40.945402" lon="-3.619931">
        <ele>1047.47</ele>
        <time>2022-06-19T06:27:49+00:00</time>
      </trkpt>
      <trkpt lat="40.945530" lon="-3.620038">
        <ele>1046.03</ele>
        <time>2022-06-19T06:27:50+00:00</time>
      </trkpt>
      <trkpt lat="40.945638" lon="-3.620167">
        <ele>1045.07</ele>
        <time>2022-06-19T06:27:51+00:00</time>
      </trkpt>
      <trkpt lat="40.945724" lon="-3.620338">
        <ele>1043.15</ele>
        <time>2022-06-19T06:27:52+00:00</time>
      </trkpt>
      <trkpt lat="40.945831" lon="-3.620489">
        <ele>1041.71</ele>
        <time>2022-06-19T06:27:53+00:00</time>
      </trkpt>
      <trkpt lat="40.945917" lon="-3.620639">
        <ele>1041.23</ele>
        <time>2022-06-19T06:27:54+00:00</time>
      </trkpt>
      <trkpt lat="40.946045" lon="-3.620746">
        <ele>1040.74</ele>
        <time>2022-06-19T06:27:55+00:00</time>
      </trkpt>
      <trkpt lat="40.946217" lon="-3.620853">
        <ele>1040.26</ele>
        <time>2022-06-19T06:27:56+00:00</time>
      </trkpt>
      <trkpt lat="40.946990" lon="-3.621304">
        <ele>1036.90</ele>
        <time>2022-06-19T06:28:01+00:00</time>
      </trkpt>
      <trkpt lat="40.947118" lon="-3.621304">
        <ele>1036.90</ele>
        <time>2022-06-19T06:28:02+00:00</time>
      </trkpt>
      <trkpt lat="40.947247" lon="-3.621261">
        <ele>1036.42</ele>
        <time>2022-06-19T06:28:03+00:00</time>
      </trkpt>
      <trkpt lat="40.947376" lon="-3.621175">
        <ele>1036.42</ele>
        <time>2022-06-19T06:28:04+00:00</time>
      </trkpt>
      <trkpt lat="40.947526" lon="-3.621047">
        <ele>1036.42</ele>
        <time>2022-06-19T06:28:05+00:00</time>
      </trkpt>
      <trkpt lat="40.947655" lon="-3.620853">
        <ele>1035.94</ele>
        <time>2022-06-19T06:28:06+00:00</time>
      </trkpt>
      <trkpt lat="40.947805" lon="-3.620660">
        <ele>1035.94</ele>
        <time>2022-06-19T06:28:07+00:00</time>
      </trkpt>
      <trkpt lat="40.948062" lon="-3.620253">
        <ele>1035.94</ele>
        <time>2022-06-19T06:28:09+00:00</time>
      </trkpt>
      <trkpt lat="40.948148" lon="-3.620038">
        <ele>1035.94</ele>
        <time>2022-06-19T06:28:10+00:00</time>
      </trkpt>
      <trkpt lat="40.948213" lon="-3.619802">
        <ele>1036.42</ele>
        <time>2022-06-19T06:28:11+00:00</time>
      </trkpt>
      <trkpt lat="40.948277" lon="-3.619545">
        <ele>1036.42</ele>
        <time>2022-06-19T06:28:12+00:00</time>
      </trkpt>
      <trkpt lat="40.948277" lon="-3.619287">
        <ele>1037.38</ele>
        <time>2022-06-19T06:28:13+00:00</time>
      </trkpt>
      <trkpt lat="40.948277" lon="-3.619030">
        <ele>1037.86</ele>
        <time>2022-06-19T06:28:14+00:00</time>
      </trkpt>
      <trkpt lat="40.948320" lon="-3.618751">
        <ele>1038.82</ele>
        <time>2022-06-19T06:28:15+00:00</time>
      </trkpt>
      <trkpt lat="40.948341" lon="-3.618493">
        <ele>1039.78</ele>
        <time>2022-06-19T06:28:16+00:00</time>
      </trkpt>
      <trkpt lat="40.948470" lon="-3.618043">
        <ele>1042.19</ele>
        <time>2022-06-19T06:28:18+00:00</time>
      </trkpt>
      <trkpt lat="40.948534" lon="-3.617828">
        <ele>1043.15</ele>
        <time>2022-06-19T06:28:19+00:00</time>
      </trkpt>
      <trkpt lat="40.948642" lon="-3.617656">
        <ele>1044.11</ele>
        <time>2022-06-19T06:28:20+00:00</time>
      </trkpt>
      <trkpt lat="40.948728" lon="-3.617506">
        <ele>1044.59</ele>
        <time>2022-06-19T06:28:21+00:00</time>
      </trkpt>
      <trkpt lat="40.948878" lon="-3.617377">
        <ele>1045.55</ele>
        <time>2022-06-19T06:28:22+00:00</time>
      </trkpt>
      <trkpt lat="40.949028" lon="-3.617291">
        <ele>1046.51</ele>
        <time>2022-06-19T06:28:23+00:00</time>
      </trkpt>
      <trkpt lat="40.949221" lon="-3.617227">
        <ele>1047.96</ele>
        <time>2022-06-19T06:28:24+00:00</time>
      </trkpt>
      <trkpt lat="40.949393" lon="-3.617184">
        <ele>1048.92</ele>
        <time>2022-06-19T06:28:25+00:00</time>
      </trkpt>
      <trkpt lat="40.949564" lon="-3.617120">
        <ele>1049.88</ele>
        <time>2022-06-19T06:28:26+00:00</time>
      </trkpt>
      <trkpt lat="40.949736" lon="-3.617013">
        <ele>1050.84</ele>
        <time>2022-06-19T06:28:27+00:00</time>
      </trkpt>
      <trkpt lat="40.949908" lon="-3.616862">
        <ele>1051.32</ele>
        <time>2022-06-19T06:28:28+00:00</time>
      </trkpt>
      <trkpt lat="40.951088" lon="-3.615854">
        <ele>1050.36</ele>
        <time>2022-06-19T06:28:34+00:00</time>
      </trkpt>
      <trkpt lat="40.952762" lon="-3.614352">
        <ele>1048.44</ele>
        <time>2022-06-19T06:28:42+00:00</time>
      </trkpt>
      <trkpt lat="40.953706" lon="-3.613730">
        <ele>1053.24</ele>
        <time>2022-06-19T06:28:47+00:00</time>
      </trkpt>
      <trkpt lat="40.953899" lon="-3.613644">
        <ele>1054.68</ele>
        <time>2022-06-19T06:28:48+00:00</time>
      </trkpt>
      <trkpt lat="40.955143" lon="-3.613150">
        <ele>1062.37</ele>
        <time>2022-06-19T06:28:55+00:00</time>
      </trkpt>
      <trkpt lat="40.955873" lon="-3.612785">
        <ele>1067.66</ele>
        <time>2022-06-19T06:29:02+00:00</time>
      </trkpt>
      <trkpt lat="40.956903" lon="-3.612249">
        <ele>1071.51</ele>
        <time>2022-06-19T06:29:11+00:00</time>
      </trkpt>
      <trkpt lat="40.957032" lon="-3.612227">
        <ele>1072.47</ele>
        <time>2022-06-19T06:29:12+00:00</time>
      </trkpt>
      <trkpt lat="40.957139" lon="-3.612185">
        <ele>1072.95</ele>
        <time>2022-06-19T06:29:13+00:00</time>
      </trkpt>
      <trkpt lat="40.957268" lon="-3.612163">
        <ele>1073.91</ele>
        <time>2022-06-19T06:29:14+00:00</time>
      </trkpt>
      <trkpt lat="40.957397" lon="-3.612142">
        <ele>1074.39</ele>
        <time>2022-06-19T06:29:15+00:00</time>
      </trkpt>
      <trkpt lat="40.957504" lon="-3.612099">
        <ele>1075.35</ele>
        <time>2022-06-19T06:29:16+00:00</time>
      </trkpt>
      <trkpt lat="40.957611" lon="-3.612034">
        <ele>1075.83</ele>
        <time>2022-06-19T06:29:17+00:00</time>
      </trkpt>
      <trkpt lat="40.957697" lon="-3.611970">
        <ele>1076.79</ele>
        <time>2022-06-19T06:29:18+00:00</time>
      </trkpt>
      <trkpt lat="40.957783" lon="-3.611884">
        <ele>1077.28</ele>
        <time>2022-06-19T06:29:19+00:00</time>
      </trkpt>
      <trkpt lat="40.957804" lon="-3.611777">
        <ele>1077.76</ele>
        <time>2022-06-19T06:29:20+00:00</time>
      </trkpt>
      <trkpt lat="40.957847" lon="-3.611648">
        <ele>1078.24</ele>
        <time>2022-06-19T06:29:21+00:00</time>
      </trkpt>
      <trkpt lat="40.957890" lon="-3.611519">
        <ele>1078.72</ele>
        <time>2022-06-19T06:29:22+00:00</time>
      </trkpt>
      <trkpt lat="40.957933" lon="-3.611391">
        <ele>1078.72</ele>
        <time>2022-06-19T06:29:23+00:00</time>
      </trkpt>
      <trkpt lat="40.958019" lon="-3.611283">
        <ele>1078.72</ele>
        <time>2022-06-19T06:29:24+00:00</time>
      </trkpt>
      <trkpt lat="40.958555" lon="-3.610640">
        <ele>1078.24</ele>
        <time>2022-06-19T06:29:30+00:00</time>
      </trkpt>
      <trkpt lat="40.958641" lon="-3.610532">
        <ele>1077.76</ele>
        <time>2022-06-19T06:29:31+00:00</time>
      </trkpt>
      <trkpt lat="40.958727" lon="-3.610404">
        <ele>1077.76</ele>
        <time>2022-06-19T06:29:32+00:00</time>
      </trkpt>
      <trkpt lat="40.958856" lon="-3.609974">
        <ele>1077.28</ele>
        <time>2022-06-19T06:29:35+00:00</time>
      </trkpt>
      <trkpt lat="40.958877" lon="-3.609824">
        <ele>1077.28</ele>
        <time>2022-06-19T06:29:36+00:00</time>
      </trkpt>
      <trkpt lat="40.958877" lon="-3.609695">
        <ele>1077.28</ele>
        <time>2022-06-19T06:29:37+00:00</time>
      </trkpt>
      <trkpt lat="40.958856" lon="-3.609545">
        <ele>1076.79</ele>
        <time>2022-06-19T06:29:38+00:00</time>
      </trkpt>
      <trkpt lat="40.958813" lon="-3.609395">
        <ele>1075.83</ele>
        <time>2022-06-19T06:29:39+00:00</time>
      </trkpt>
      <trkpt lat="40.958770" lon="-3.609223">
        <ele>1074.87</ele>
        <time>2022-06-19T06:29:40+00:00</time>
      </trkpt>
      <trkpt lat="40.958770" lon="-3.609052">
        <ele>1074.39</ele>
        <time>2022-06-19T06:29:41+00:00</time>
      </trkpt>
      <trkpt lat="40.958813" lon="-3.608880">
        <ele>1073.43</ele>
        <time>2022-06-19T06:29:42+00:00</time>
      </trkpt>
      <trkpt lat="40.958856" lon="-3.608687">
        <ele>1072.47</ele>
        <time>2022-06-19T06:29:43+00:00</time>
      </trkpt>
      <trkpt lat="40.958941" lon="-3.608515">
        <ele>1071.99</ele>
        <time>2022-06-19T06:29:44+00:00</time>
      </trkpt>
      <trkpt lat="40.959049" lon="-3.608322">
        <ele>1071.51</ele>
        <time>2022-06-19T06:29:45+00:00</time>
      </trkpt>
      <trkpt lat="40.959628" lon="-3.607550">
        <ele>1070.06</ele>
        <time>2022-06-19T06:29:50+00:00</time>
      </trkpt>
      <trkpt lat="40.959778" lon="-3.607421">
        <ele>1070.06</ele>
        <time>2022-06-19T06:29:51+00:00</time>
      </trkpt>
      <trkpt lat="40.961216" lon="-3.606327">
        <ele>1073.43</ele>
        <time>2022-06-19T06:29:59+00:00</time>
      </trkpt>
      <trkpt lat="40.962010" lon="-3.605511">
        <ele>1077.76</ele>
        <time>2022-06-19T06:30:04+00:00</time>
      </trkpt>
      <trkpt lat="40.962117" lon="-3.605318">
        <ele>1078.24</ele>
        <time>2022-06-19T06:30:05+00:00</time>
      </trkpt>
      <trkpt lat="40.962224" lon="-3.605125">
        <ele>1078.72</ele>
        <time>2022-06-19T06:30:06+00:00</time>
      </trkpt>
      <trkpt lat="40.962289" lon="-3.604910">
        <ele>1079.20</ele>
        <time>2022-06-19T06:30:07+00:00</time>
      </trkpt>
      <trkpt lat="40.962353" lon="-3.604653">
        <ele>1079.20</ele>
        <time>2022-06-19T06:30:08+00:00</time>
      </trkpt>
      <trkpt lat="40.962847" lon="-3.602872">
        <ele>1078.24</ele>
        <time>2022-06-19T06:30:14+00:00</time>
      </trkpt>
      <trkpt lat="40.963362" lon="-3.600898">
        <ele>1074.39</ele>
        <time>2022-06-19T06:30:20+00:00</time>
      </trkpt>
      <trkpt lat="40.963812" lon="-3.599439">
        <ele>1071.03</ele>
        <time>2022-06-19T06:30:26+00:00</time>
      </trkpt>
      <trkpt lat="40.963941" lon="-3.599181">
        <ele>1070.06</ele>
        <time>2022-06-19T06:30:27+00:00</time>
      </trkpt>
      <trkpt lat="40.964091" lon="-3.598945">
        <ele>1069.10</ele>
        <time>2022-06-19T06:30:28+00:00</time>
      </trkpt>
      <trkpt lat="40.965357" lon="-3.596864">
        <ele>1060.93</ele>
        <time>2022-06-19T06:30:36+00:00</time>
      </trkpt>
      <trkpt lat="40.966387" lon="-3.594697">
        <ele>1049.40</ele>
        <time>2022-06-19T06:30:44+00:00</time>
      </trkpt>
      <trkpt lat="40.966881" lon="-3.593559">
        <ele>1043.15</ele>
        <time>2022-06-19T06:30:49+00:00</time>
      </trkpt>
      <trkpt lat="40.966902" lon="-3.593345">
        <ele>1041.71</ele>
        <time>2022-06-19T06:30:50+00:00</time>
      </trkpt>
      <trkpt lat="40.966924" lon="-3.593109">
        <ele>1040.74</ele>
        <time>2022-06-19T06:30:51+00:00</time>
      </trkpt>
      <trkpt lat="40.966967" lon="-3.592658">
        <ele>1037.86</ele>
        <time>2022-06-19T06:30:53+00:00</time>
      </trkpt>
      <trkpt lat="40.967010" lon="-3.592444">
        <ele>1036.90</ele>
        <time>2022-06-19T06:30:54+00:00</time>
      </trkpt>
      <trkpt lat="40.967074" lon="-3.592250">
        <ele>1035.94</ele>
        <time>2022-06-19T06:30:55+00:00</time>
      </trkpt>
      <trkpt lat="40.967203" lon="-3.591864">
        <ele>1033.54</ele>
        <time>2022-06-19T06:30:57+00:00</time>
      </trkpt>
      <trkpt lat="40.967267" lon="-3.591671">
        <ele>1032.57</ele>
        <time>2022-06-19T06:30:58+00:00</time>
      </trkpt>
      <trkpt lat="40.967288" lon="-3.591478">
        <ele>1031.61</ele>
        <time>2022-06-19T06:30:59+00:00</time>
      </trkpt>
      <trkpt lat="40.967267" lon="-3.591285">
        <ele>1031.13</ele>
        <time>2022-06-19T06:31:00+00:00</time>
      </trkpt>
      <trkpt lat="40.967246" lon="-3.591092">
        <ele>1030.65</ele>
        <time>2022-06-19T06:31:01+00:00</time>
      </trkpt>
      <trkpt lat="40.967203" lon="-3.590899">
        <ele>1030.17</ele>
        <time>2022-06-19T06:31:02+00:00</time>
      </trkpt>
      <trkpt lat="40.966967" lon="-3.589397">
        <ele>1024.88</ele>
        <time>2022-06-19T06:31:11+00:00</time>
      </trkpt>
      <trkpt lat="40.966859" lon="-3.588796">
        <ele>1022.48</ele>
        <time>2022-06-19T06:31:17+00:00</time>
      </trkpt>
      <trkpt lat="40.966859" lon="-3.588646">
        <ele>1022.00</ele>
        <time>2022-06-19T06:31:18+00:00</time>
      </trkpt>
      <trkpt lat="40.966881" lon="-3.588624">
        <ele>1021.52</ele>
        <time>2022-06-19T06:31:19+00:00</time>
      </trkpt>
      <trkpt lat="40.966945" lon="-3.588624">
        <ele>1021.52</ele>
        <time>2022-06-19T06:31:20+00:00</time>
      </trkpt>
      <trkpt lat="40.967031" lon="-3.588624">
        <ele>1021.04</ele>
        <time>2022-06-19T06:31:21+00:00</time>
      </trkpt>
      <trkpt lat="40.967138" lon="-3.588624">
        <ele>1021.04</ele>
        <time>2022-06-19T06:31:22+00:00</time>
      </trkpt>
      <trkpt lat="40.967246" lon="-3.588603">
        <ele>1021.04</ele>
        <time>2022-06-19T06:31:23+00:00</time>
      </trkpt>
      <trkpt lat="40.967353" lon="-3.588603">
        <ele>1021.04</ele>
        <time>2022-06-19T06:31:24+00:00</time>
      </trkpt>
      <trkpt lat="40.967503" lon="-3.588603">
        <ele>1020.56</ele>
        <time>2022-06-19T06:31:25+00:00</time>
      </trkpt>
      <trkpt lat="40.967675" lon="-3.588581">
        <ele>1020.56</ele>
        <time>2022-06-19T06:31:26+00:00</time>
      </trkpt>
      <trkpt lat="40.967825" lon="-3.588517">
        <ele>1020.56</ele>
        <time>2022-06-19T06:31:27+00:00</time>
      </trkpt>
      <trkpt lat="40.967975" lon="-3.588431">
        <ele>1020.56</ele>
        <time>2022-06-19T06:31:28+00:00</time>
      </trkpt>
      <trkpt lat="40.968125" lon="-3.588302">
        <ele>1020.56</ele>
        <time>2022-06-19T06:31:29+00:00</time>
      </trkpt>
      <trkpt lat="40.968276" lon="-3.588173">
        <ele>1020.56</ele>
        <time>2022-06-19T06:31:30+00:00</time>
      </trkpt>
      <trkpt lat="40.968447" lon="-3.588023">
        <ele>1021.04</ele>
        <time>2022-06-19T06:31:31+00:00</time>
      </trkpt>
      <trkpt lat="40.968597" lon="-3.587894">
        <ele>1021.52</ele>
        <time>2022-06-19T06:31:32+00:00</time>
      </trkpt>
      <trkpt lat="40.968769" lon="-3.587787">
        <ele>1022.48</ele>
        <time>2022-06-19T06:31:33+00:00</time>
      </trkpt>
      <trkpt lat="40.968941" lon="-3.587701">
        <ele>1023.44</ele>
        <time>2022-06-19T06:31:34+00:00</time>
      </trkpt>
      <trkpt lat="40.969112" lon="-3.587616">
        <ele>1024.40</ele>
        <time>2022-06-19T06:31:35+00:00</time>
      </trkpt>
      <trkpt lat="40.969713" lon="-3.587294">
        <ele>1027.77</ele>
        <time>2022-06-19T06:31:39+00:00</time>
      </trkpt>
      <trkpt lat="40.969821" lon="-3.587165">
        <ele>1028.25</ele>
        <time>2022-06-19T06:31:40+00:00</time>
      </trkpt>
      <trkpt lat="40.969992" lon="-3.586886">
        <ele>1029.21</ele>
        <time>2022-06-19T06:31:42+00:00</time>
      </trkpt>
      <trkpt lat="40.970099" lon="-3.586779">
        <ele>1029.21</ele>
        <time>2022-06-19T06:31:43+00:00</time>
      </trkpt>
      <trkpt lat="40.970207" lon="-3.586693">
        <ele>1029.21</ele>
        <time>2022-06-19T06:31:44+00:00</time>
      </trkpt>
      <trkpt lat="40.970357" lon="-3.586628">
        <ele>1028.73</ele>
        <time>2022-06-19T06:31:45+00:00</time>
      </trkpt>
      <trkpt lat="40.970529" lon="-3.586650">
        <ele>1028.73</ele>
        <time>2022-06-19T06:31:46+00:00</time>
      </trkpt>
      <trkpt lat="40.970722" lon="-3.586671">
        <ele>1027.77</ele>
        <time>2022-06-19T06:31:47+00:00</time>
      </trkpt>
      <trkpt lat="40.970915" lon="-3.586714">
        <ele>1027.29</ele>
        <time>2022-06-19T06:31:48+00:00</time>
      </trkpt>
      <trkpt lat="40.971129" lon="-3.586822">
        <ele>1026.33</ele>
        <time>2022-06-19T06:31:49+00:00</time>
      </trkpt>
      <trkpt lat="40.971323" lon="-3.586907">
        <ele>1025.84</ele>
        <time>2022-06-19T06:31:50+00:00</time>
      </trkpt>
      <trkpt lat="40.972074" lon="-3.587229">
        <ele>1022.96</ele>
        <time>2022-06-19T06:31:54+00:00</time>
      </trkpt>
      <trkpt lat="40.972267" lon="-3.587229">
        <ele>1022.00</ele>
        <time>2022-06-19T06:31:55+00:00</time>
      </trkpt>
      <trkpt lat="40.972460" lon="-3.587229">
        <ele>1021.52</ele>
        <time>2022-06-19T06:31:56+00:00</time>
      </trkpt>
      <trkpt lat="40.973125" lon="-3.587272">
        <ele>1018.64</ele>
        <time>2022-06-19T06:32:00+00:00</time>
      </trkpt>
      <trkpt lat="40.973275" lon="-3.587358">
        <ele>1017.67</ele>
        <time>2022-06-19T06:32:01+00:00</time>
      </trkpt>
      <trkpt lat="40.973769" lon="-3.587573">
        <ele>1014.79</ele>
        <time>2022-06-19T06:32:04+00:00</time>
      </trkpt>
      <trkpt lat="40.973919" lon="-3.587616">
        <ele>1013.83</ele>
        <time>2022-06-19T06:32:05+00:00</time>
      </trkpt>
      <trkpt lat="40.974091" lon="-3.587573">
        <ele>1012.39</ele>
        <time>2022-06-19T06:32:06+00:00</time>
      </trkpt>
      <trkpt lat="40.974284" lon="-3.587508">
        <ele>1011.43</ele>
        <time>2022-06-19T06:32:07+00:00</time>
      </trkpt>
      <trkpt lat="40.974477" lon="-3.587444">
        <ele>1009.98</ele>
        <time>2022-06-19T06:32:08+00:00</time>
      </trkpt>
      <trkpt lat="40.974820" lon="-3.587337">
        <ele>1007.10</ele>
        <time>2022-06-19T06:32:10+00:00</time>
      </trkpt>
      <trkpt lat="40.975013" lon="-3.587337">
        <ele>1005.66</ele>
        <time>2022-06-19T06:32:11+00:00</time>
      </trkpt>
      <trkpt lat="40.975206" lon="-3.587358">
        <ele>1004.70</ele>
        <time>2022-06-19T06:32:12+00:00</time>
      </trkpt>
      <trkpt lat="40.975528" lon="-3.587358">
        <ele>1003.25</ele>
        <time>2022-06-19T06:32:14+00:00</time>
      </trkpt>
      <trkpt lat="40.975657" lon="-3.587294">
        <ele>1002.77</ele>
        <time>2022-06-19T06:32:15+00:00</time>
      </trkpt>
      <trkpt lat="40.975786" lon="-3.587208">
        <ele>1002.77</ele>
        <time>2022-06-19T06:32:16+00:00</time>
      </trkpt>
      <trkpt lat="40.975893" lon="-3.587036">
        <ele>1002.29</ele>
        <time>2022-06-19T06:32:17+00:00</time>
      </trkpt>
      <trkpt lat="40.976000" lon="-3.586843">
        <ele>1001.81</ele>
        <time>2022-06-19T06:32:18+00:00</time>
      </trkpt>
      <trkpt lat="40.976108" lon="-3.586650">
        <ele>1001.33</ele>
        <time>2022-06-19T06:32:19+00:00</time>
      </trkpt>
      <trkpt lat="40.976193" lon="-3.586478">
        <ele>1000.37</ele>
        <time>2022-06-19T06:32:20+00:00</time>
      </trkpt>
      <trkpt lat="40.976301" lon="-3.586307">
        <ele>999.41</ele>
        <time>2022-06-19T06:32:21+00:00</time>
      </trkpt>
      <trkpt lat="40.976451" lon="-3.586199">
        <ele>998.45</ele>
        <time>2022-06-19T06:32:22+00:00</time>
      </trkpt>
      <trkpt lat="40.976623" lon="-3.586113">
        <ele>997.01</ele>
        <time>2022-06-19T06:32:23+00:00</time>
      </trkpt>
      <trkpt lat="40.976794" lon="-3.586049">
        <ele>995.56</ele>
        <time>2022-06-19T06:32:24+00:00</time>
      </trkpt>
      <trkpt lat="40.976966" lon="-3.585985">
        <ele>994.60</ele>
        <time>2022-06-19T06:32:25+00:00</time>
      </trkpt>
      <trkpt lat="40.977095" lon="-3.585856">
        <ele>993.64</ele>
        <time>2022-06-19T06:32:26+00:00</time>
      </trkpt>
      <trkpt lat="40.977180" lon="-3.585706">
        <ele>993.16</ele>
        <time>2022-06-19T06:32:27+00:00</time>
      </trkpt>
      <trkpt lat="40.977245" lon="-3.585556">
        <ele>992.20</ele>
        <time>2022-06-19T06:32:28+00:00</time>
      </trkpt>
      <trkpt lat="40.977309" lon="-3.585362">
        <ele>992.20</ele>
        <time>2022-06-19T06:32:29+00:00</time>
      </trkpt>
      <trkpt lat="40.977374" lon="-3.585148">
        <ele>992.20</ele>
        <time>2022-06-19T06:32:30+00:00</time>
      </trkpt>
      <trkpt lat="40.977459" lon="-3.584955">
        <ele>992.68</ele>
        <time>2022-06-19T06:32:31+00:00</time>
      </trkpt>
      <trkpt lat="40.977610" lon="-3.584590">
        <ele>994.12</ele>
        <time>2022-06-19T06:32:33+00:00</time>
      </trkpt>
      <trkpt lat="40.977653" lon="-3.584397">
        <ele>994.60</ele>
        <time>2022-06-19T06:32:34+00:00</time>
      </trkpt>
      <trkpt lat="40.977695" lon="-3.584204">
        <ele>995.08</ele>
        <time>2022-06-19T06:32:35+00:00</time>
      </trkpt>
      <trkpt lat="40.977674" lon="-3.583989">
        <ele>995.56</ele>
        <time>2022-06-19T06:32:36+00:00</time>
      </trkpt>
      <trkpt lat="40.977653" lon="-3.583753">
        <ele>995.56</ele>
        <time>2022-06-19T06:32:37+00:00</time>
      </trkpt>
      <trkpt lat="40.977567" lon="-3.582680">
        <ele>995.56</ele>
        <time>2022-06-19T06:32:42+00:00</time>
      </trkpt>
      <trkpt lat="40.977610" lon="-3.582487">
        <ele>995.08</ele>
        <time>2022-06-19T06:32:43+00:00</time>
      </trkpt>
      <trkpt lat="40.977695" lon="-3.582315">
        <ele>994.12</ele>
        <time>2022-06-19T06:32:44+00:00</time>
      </trkpt>
      <trkpt lat="40.977824" lon="-3.582122">
        <ele>993.64</ele>
        <time>2022-06-19T06:32:45+00:00</time>
      </trkpt>
      <trkpt lat="40.977953" lon="-3.581929">
        <ele>992.68</ele>
        <time>2022-06-19T06:32:46+00:00</time>
      </trkpt>
      <trkpt lat="40.978725" lon="-3.580813">
        <ele>987.39</ele>
        <time>2022-06-19T06:32:52+00:00</time>
      </trkpt>
      <trkpt lat="40.978811" lon="-3.580599">
        <ele>987.39</ele>
        <time>2022-06-19T06:32:53+00:00</time>
      </trkpt>
      <trkpt lat="40.978983" lon="-3.580234">
        <ele>987.87</ele>
        <time>2022-06-19T06:32:55+00:00</time>
      </trkpt>
      <trkpt lat="40.979069" lon="-3.580041">
        <ele>988.35</ele>
        <time>2022-06-19T06:32:56+00:00</time>
      </trkpt>
      <trkpt lat="40.979198" lon="-3.579869">
        <ele>988.83</ele>
        <time>2022-06-19T06:32:57+00:00</time>
      </trkpt>
      <trkpt lat="40.979369" lon="-3.579719">
        <ele>989.31</ele>
        <time>2022-06-19T06:32:58+00:00</time>
      </trkpt>
      <trkpt lat="40.979541" lon="-3.579569">
        <ele>990.28</ele>
        <time>2022-06-19T06:32:59+00:00</time>
      </trkpt>
      <trkpt lat="40.980206" lon="-3.578990">
        <ele>992.68</ele>
        <time>2022-06-19T06:33:03+00:00</time>
      </trkpt>
      <trkpt lat="40.980571" lon="-3.578732">
        <ele>992.20</ele>
        <time>2022-06-19T06:33:05+00:00</time>
      </trkpt>
      <trkpt lat="40.980721" lon="-3.578560">
        <ele>991.72</ele>
        <time>2022-06-19T06:33:06+00:00</time>
      </trkpt>
      <trkpt lat="40.981215" lon="-3.578024">
        <ele>989.31</ele>
        <time>2022-06-19T06:33:09+00:00</time>
      </trkpt>
      <trkpt lat="40.981987" lon="-3.577445">
        <ele>989.31</ele>
        <time>2022-06-19T06:33:14+00:00</time>
      </trkpt>
      <trkpt lat="40.982137" lon="-3.577402">
        <ele>989.31</ele>
        <time>2022-06-19T06:33:15+00:00</time>
      </trkpt>
      <trkpt lat="40.982287" lon="-3.577402">
        <ele>989.31</ele>
        <time>2022-06-19T06:33:16+00:00</time>
      </trkpt>
      <trkpt lat="40.982652" lon="-3.577402">
        <ele>988.83</ele>
        <time>2022-06-19T06:33:18+00:00</time>
      </trkpt>
      <trkpt lat="40.983189" lon="-3.577273">
        <ele>988.35</ele>
        <time>2022-06-19T06:33:21+00:00</time>
      </trkpt>
      <trkpt lat="40.983317" lon="-3.577209">
        <ele>988.35</ele>
        <time>2022-06-19T06:33:22+00:00</time>
      </trkpt>
      <trkpt lat="40.983425" lon="-3.577080">
        <ele>987.87</ele>
        <time>2022-06-19T06:33:23+00:00</time>
      </trkpt>
      <trkpt lat="40.983532" lon="-3.576951">
        <ele>987.39</ele>
        <time>2022-06-19T06:33:24+00:00</time>
      </trkpt>
      <trkpt lat="40.983661" lon="-3.576865">
        <ele>986.91</ele>
        <time>2022-06-19T06:33:25+00:00</time>
      </trkpt>
      <trkpt lat="40.983768" lon="-3.576801">
        <ele>986.43</ele>
        <time>2022-06-19T06:33:26+00:00</time>
      </trkpt>
      <trkpt lat="40.983918" lon="-3.576844">
        <ele>985.95</ele>
        <time>2022-06-19T06:33:27+00:00</time>
      </trkpt>
      <trkpt lat="40.984068" lon="-3.576908">
        <ele>984.99</ele>
        <time>2022-06-19T06:33:28+00:00</time>
      </trkpt>
      <trkpt lat="40.984219" lon="-3.576973">
        <ele>984.03</ele>
        <time>2022-06-19T06:33:29+00:00</time>
      </trkpt>
      <trkpt lat="40.984369" lon="-3.576994">
        <ele>983.07</ele>
        <time>2022-06-19T06:33:30+00:00</time>
      </trkpt>
      <trkpt lat="40.984498" lon="-3.577015">
        <ele>982.11</ele>
        <time>2022-06-19T06:33:31+00:00</time>
      </trkpt>
      <trkpt lat="40.984626" lon="-3.576908">
        <ele>981.14</ele>
        <time>2022-06-19T06:33:32+00:00</time>
      </trkpt>
      <trkpt lat="40.984755" lon="-3.576801">
        <ele>980.18</ele>
        <time>2022-06-19T06:33:33+00:00</time>
      </trkpt>
      <trkpt lat="40.984905" lon="-3.576672">
        <ele>979.22</ele>
        <time>2022-06-19T06:33:34+00:00</time>
      </trkpt>
      <trkpt lat="40.985077" lon="-3.576543">
        <ele>978.26</ele>
        <time>2022-06-19T06:33:35+00:00</time>
      </trkpt>
      <trkpt lat="40.985249" lon="-3.576436">
        <ele>977.78</ele>
        <time>2022-06-19T06:33:36+00:00</time>
      </trkpt>
      <trkpt lat="40.985442" lon="-3.576372">
        <ele>977.30</ele>
        <time>2022-06-19T06:33:37+00:00</time>
      </trkpt>
      <trkpt lat="40.985656" lon="-3.576307">
        <ele>976.34</ele>
        <time>2022-06-19T06:33:38+00:00</time>
      </trkpt>
      <trkpt lat="40.985871" lon="-3.576200">
        <ele>975.86</ele>
        <time>2022-06-19T06:33:39+00:00</time>
      </trkpt>
      <trkpt lat="40.986772" lon="-3.575707">
        <ele>972.01</ele>
        <time>2022-06-19T06:33:44+00:00</time>
      </trkpt>
      <trkpt lat="40.986965" lon="-3.575664">
        <ele>971.53</ele>
        <time>2022-06-19T06:33:45+00:00</time>
      </trkpt>
      <trkpt lat="40.987373" lon="-3.575535">
        <ele>970.09</ele>
        <time>2022-06-19T06:33:47+00:00</time>
      </trkpt>
      <trkpt lat="40.987566" lon="-3.575428">
        <ele>969.13</ele>
        <time>2022-06-19T06:33:48+00:00</time>
      </trkpt>
      <trkpt lat="40.988789" lon="-3.574591">
        <ele>961.44</ele>
        <time>2022-06-19T06:33:55+00:00</time>
      </trkpt>
      <trkpt lat="40.989905" lon="-3.573604">
        <ele>955.67</ele>
        <time>2022-06-19T06:34:04+00:00</time>
      </trkpt>
      <trkpt lat="40.990270" lon="-3.572938">
        <ele>956.15</ele>
        <time>2022-06-19T06:34:09+00:00</time>
      </trkpt>
      <trkpt lat="40.990313" lon="-3.572810">
        <ele>956.15</ele>
        <time>2022-06-19T06:34:10+00:00</time>
      </trkpt>
      <trkpt lat="40.990334" lon="-3.572660">
        <ele>955.67</ele>
        <time>2022-06-19T06:34:11+00:00</time>
      </trkpt>
      <trkpt lat="40.990398" lon="-3.572359">
        <ele>956.15</ele>
        <time>2022-06-19T06:34:13+00:00</time>
      </trkpt>
      <trkpt lat="40.990420" lon="-3.572230">
        <ele>955.67</ele>
        <time>2022-06-19T06:34:14+00:00</time>
      </trkpt>
      <trkpt lat="40.990484" lon="-3.572145">
        <ele>955.19</ele>
        <time>2022-06-19T06:34:15+00:00</time>
      </trkpt>
      <trkpt lat="40.990570" lon="-3.572059">
        <ele>955.19</ele>
        <time>2022-06-19T06:34:16+00:00</time>
      </trkpt>
      <trkpt lat="40.990699" lon="-3.571994">
        <ele>955.19</ele>
        <time>2022-06-19T06:34:17+00:00</time>
      </trkpt>
      <trkpt lat="40.990806" lon="-3.571930">
        <ele>954.71</ele>
        <time>2022-06-19T06:34:18+00:00</time>
      </trkpt>
      <trkpt lat="40.991364" lon="-3.571630">
        <ele>953.27</ele>
        <time>2022-06-19T06:34:25+00:00</time>
      </trkpt>
      <trkpt lat="40.991729" lon="-3.571479">
        <ele>952.30</ele>
        <time>2022-06-19T06:34:34+00:00</time>
      </trkpt>
      <trkpt lat="40.991729" lon="-3.571479">
        <ele>952.79</ele>
        <time>2022-06-19T06:34:50+00:00</time>
      </trkpt>
      <trkpt lat="40.991772" lon="-3.571458">
        <ele>952.30</ele>
        <time>2022-06-19T06:34:58+00:00</time>
      </trkpt>
      <trkpt lat="40.991815" lon="-3.571458">
        <ele>952.30</ele>
        <time>2022-06-19T06:34:59+00:00</time>
      </trkpt>
      <trkpt lat="40.991879" lon="-3.571479">
        <ele>952.30</ele>
        <time>2022-06-19T06:35:00+00:00</time>
      </trkpt>
      <trkpt lat="40.991965" lon="-3.571479">
        <ele>952.30</ele>
        <time>2022-06-19T06:35:01+00:00</time>
      </trkpt>
      <trkpt lat="40.992051" lon="-3.571501">
        <ele>951.82</ele>
        <time>2022-06-19T06:35:02+00:00</time>
      </trkpt>
      <trkpt lat="40.992802" lon="-3.571522">
        <ele>952.79</ele>
        <time>2022-06-19T06:35:09+00:00</time>
      </trkpt>
      <trkpt lat="40.993574" lon="-3.571072">
        <ele>953.75</ele>
        <time>2022-06-19T06:35:16+00:00</time>
      </trkpt>
      <trkpt lat="40.993681" lon="-3.570964">
        <ele>954.23</ele>
        <time>2022-06-19T06:35:17+00:00</time>
      </trkpt>
      <trkpt lat="40.993767" lon="-3.570836">
        <ele>954.23</ele>
        <time>2022-06-19T06:35:18+00:00</time>
      </trkpt>
      <trkpt lat="40.993832" lon="-3.570707">
        <ele>954.23</ele>
        <time>2022-06-19T06:35:19+00:00</time>
      </trkpt>
      <trkpt lat="40.993875" lon="-3.570600">
        <ele>954.71</ele>
        <time>2022-06-19T06:35:20+00:00</time>
      </trkpt>
      <trkpt lat="40.993917" lon="-3.570492">
        <ele>954.71</ele>
        <time>2022-06-19T06:35:21+00:00</time>
      </trkpt>
      <trkpt lat="40.993960" lon="-3.570406">
        <ele>954.71</ele>
        <time>2022-06-19T06:35:22+00:00</time>
      </trkpt>
      <trkpt lat="40.994003" lon="-3.570385">
        <ele>954.71</ele>
        <time>2022-06-19T06:35:23+00:00</time>
      </trkpt>
      <trkpt lat="40.994046" lon="-3.570342">
        <ele>954.71</ele>
        <time>2022-06-19T06:35:24+00:00</time>
      </trkpt>
      <trkpt lat="40.994089" lon="-3.570342">
        <ele>954.71</ele>
        <time>2022-06-19T06:35:25+00:00</time>
      </trkpt>
      <trkpt lat="40.994175" lon="-3.570364">
        <ele>954.71</ele>
        <time>2022-06-19T06:35:26+00:00</time>
      </trkpt>
      <trkpt lat="40.994304" lon="-3.570364">
        <ele>955.19</ele>
        <time>2022-06-19T06:35:27+00:00</time>
      </trkpt>
      <trkpt lat="40.994432" lon="-3.570364">
        <ele>956.15</ele>
        <time>2022-06-19T06:35:28+00:00</time>
      </trkpt>
      <trkpt lat="40.994561" lon="-3.570299">
        <ele>957.11</ele>
        <time>2022-06-19T06:35:29+00:00</time>
      </trkpt>
      <trkpt lat="40.994668" lon="-3.570213">
        <ele>958.07</ele>
        <time>2022-06-19T06:35:30+00:00</time>
      </trkpt>
      <trkpt lat="40.994819" lon="-3.570128">
        <ele>958.55</ele>
        <time>2022-06-19T06:35:31+00:00</time>
      </trkpt>
      <trkpt lat="40.995870" lon="-3.569377">
        <ele>963.84</ele>
        <time>2022-06-19T06:35:38+00:00</time>
      </trkpt>
      <trkpt lat="40.996063" lon="-3.569312">
        <ele>965.28</ele>
        <time>2022-06-19T06:35:39+00:00</time>
      </trkpt>
      <trkpt lat="40.996235" lon="-3.569269">
        <ele>966.24</ele>
        <time>2022-06-19T06:35:40+00:00</time>
      </trkpt>
      <trkpt lat="40.997286" lon="-3.569119">
        <ele>976.34</ele>
        <time>2022-06-19T06:35:47+00:00</time>
      </trkpt>
      <trkpt lat="40.998316" lon="-3.569055">
        <ele>984.03</ele>
        <time>2022-06-19T06:35:54+00:00</time>
      </trkpt>
      <trkpt lat="40.998660" lon="-3.569055">
        <ele>986.91</ele>
        <time>2022-06-19T06:35:56+00:00</time>
      </trkpt>
      <trkpt lat="40.998853" lon="-3.569076">
        <ele>987.87</ele>
        <time>2022-06-19T06:35:57+00:00</time>
      </trkpt>
      <trkpt lat="40.999046" lon="-3.569162">
        <ele>988.83</ele>
        <time>2022-06-19T06:35:58+00:00</time>
      </trkpt>
      <trkpt lat="41.000398" lon="-3.569827">
        <ele>995.08</ele>
        <time>2022-06-19T06:36:04+00:00</time>
      </trkpt>
      <trkpt lat="41.000870" lon="-3.570020">
        <ele>998.45</ele>
        <time>2022-06-19T06:36:07+00:00</time>
      </trkpt>
      <trkpt lat="41.000977" lon="-3.570020">
        <ele>1000.37</ele>
        <time>2022-06-19T06:36:08+00:00</time>
      </trkpt>
      <trkpt lat="41.001106" lon="-3.569956">
        <ele>1001.81</ele>
        <time>2022-06-19T06:36:09+00:00</time>
      </trkpt>
      <trkpt lat="41.001235" lon="-3.569849">
        <ele>1004.22</ele>
        <time>2022-06-19T06:36:10+00:00</time>
      </trkpt>
      <trkpt lat="41.001363" lon="-3.569720">
        <ele>1006.14</ele>
        <time>2022-06-19T06:36:11+00:00</time>
      </trkpt>
      <trkpt lat="41.001492" lon="-3.569591">
        <ele>1008.06</ele>
        <time>2022-06-19T06:36:12+00:00</time>
      </trkpt>
      <trkpt lat="41.001599" lon="-3.569441">
        <ele>1009.98</ele>
        <time>2022-06-19T06:36:13+00:00</time>
      </trkpt>
      <trkpt lat="41.001728" lon="-3.569269">
        <ele>1011.91</ele>
        <time>2022-06-19T06:36:14+00:00</time>
      </trkpt>
      <trkpt lat="41.001835" lon="-3.569076">
        <ele>1013.35</ele>
        <time>2022-06-19T06:36:15+00:00</time>
      </trkpt>
      <trkpt lat="41.002779" lon="-3.568046">
        <ele>1021.04</ele>
        <time>2022-06-19T06:36:21+00:00</time>
      </trkpt>
      <trkpt lat="41.004131" lon="-3.566866">
        <ele>1025.84</ele>
        <time>2022-06-19T06:36:29+00:00</time>
      </trkpt>
      <trkpt lat="41.004839" lon="-3.566287">
        <ele>1021.52</ele>
        <time>2022-06-19T06:36:34+00:00</time>
      </trkpt>
      <trkpt lat="41.004990" lon="-3.566201">
        <ele>1020.08</ele>
        <time>2022-06-19T06:36:35+00:00</time>
      </trkpt>
      <trkpt lat="41.005161" lon="-3.566136">
        <ele>1018.64</ele>
        <time>2022-06-19T06:36:36+00:00</time>
      </trkpt>
      <trkpt lat="41.005333" lon="-3.566115">
        <ele>1017.19</ele>
        <time>2022-06-19T06:36:37+00:00</time>
      </trkpt>
      <trkpt lat="41.005526" lon="-3.566136">
        <ele>1016.23</ele>
        <time>2022-06-19T06:36:38+00:00</time>
      </trkpt>
      <trkpt lat="41.005741" lon="-3.566158">
        <ele>1014.31</ele>
        <time>2022-06-19T06:36:39+00:00</time>
      </trkpt>
      <trkpt lat="41.005955" lon="-3.566179">
        <ele>1012.87</ele>
        <time>2022-06-19T06:36:40+00:00</time>
      </trkpt>
      <trkpt lat="41.006191" lon="-3.566179">
        <ele>1011.91</ele>
        <time>2022-06-19T06:36:41+00:00</time>
      </trkpt>
      <trkpt lat="41.006749" lon="-3.566115">
        <ele>1009.98</ele>
        <time>2022-06-19T06:36:44+00:00</time>
      </trkpt>
      <trkpt lat="41.006899" lon="-3.566051">
        <ele>1009.50</ele>
        <time>2022-06-19T06:36:45+00:00</time>
      </trkpt>
      <trkpt lat="41.007050" lon="-3.565943">
        <ele>1009.02</ele>
        <time>2022-06-19T06:36:46+00:00</time>
      </trkpt>
      <trkpt lat="41.007221" lon="-3.565815">
        <ele>1008.54</ele>
        <time>2022-06-19T06:36:47+00:00</time>
      </trkpt>
      <trkpt lat="41.007350" lon="-3.565643">
        <ele>1008.06</ele>
        <time>2022-06-19T06:36:48+00:00</time>
      </trkpt>
      <trkpt lat="41.007479" lon="-3.565450">
        <ele>1007.58</ele>
        <time>2022-06-19T06:36:49+00:00</time>
      </trkpt>
      <trkpt lat="41.007607" lon="-3.565300">
        <ele>1007.10</ele>
        <time>2022-06-19T06:36:50+00:00</time>
      </trkpt>
      <trkpt lat="41.007929" lon="-3.564913">
        <ele>1006.14</ele>
        <time>2022-06-19T06:36:53+00:00</time>
      </trkpt>
      <trkpt lat="41.008058" lon="-3.564827">
        <ele>1005.18</ele>
        <time>2022-06-19T06:36:54+00:00</time>
      </trkpt>
      <trkpt lat="41.008208" lon="-3.564785">
        <ele>1004.22</ele>
        <time>2022-06-19T06:36:55+00:00</time>
      </trkpt>
      <trkpt lat="41.008401" lon="-3.564742">
        <ele>1003.25</ele>
        <time>2022-06-19T06:36:56+00:00</time>
      </trkpt>
      <trkpt lat="41.008595" lon="-3.564656">
        <ele>1002.29</ele>
        <time>2022-06-19T06:36:57+00:00</time>
      </trkpt>
      <trkpt lat="41.008788" lon="-3.564549">
        <ele>1001.33</ele>
        <time>2022-06-19T06:36:58+00:00</time>
      </trkpt>
      <trkpt lat="41.008981" lon="-3.564420">
        <ele>1000.85</ele>
        <time>2022-06-19T06:36:59+00:00</time>
      </trkpt>
      <trkpt lat="41.010032" lon="-3.563819">
        <ele>998.93</ele>
        <time>2022-06-19T06:37:06+00:00</time>
      </trkpt>
      <trkpt lat="41.010097" lon="-3.563712">
        <ele>998.93</ele>
        <time>2022-06-19T06:37:07+00:00</time>
      </trkpt>
      <trkpt lat="41.010139" lon="-3.563583">
        <ele>998.93</ele>
        <time>2022-06-19T06:37:08+00:00</time>
      </trkpt>
      <trkpt lat="41.010161" lon="-3.563411">
        <ele>998.93</ele>
        <time>2022-06-19T06:37:09+00:00</time>
      </trkpt>
      <trkpt lat="41.010161" lon="-3.563240">
        <ele>998.93</ele>
        <time>2022-06-19T06:37:10+00:00</time>
      </trkpt>
      <trkpt lat="41.010139" lon="-3.563089">
        <ele>999.89</ele>
        <time>2022-06-19T06:37:11+00:00</time>
      </trkpt>
      <trkpt lat="41.010118" lon="-3.562961">
        <ele>1000.37</ele>
        <time>2022-06-19T06:37:12+00:00</time>
      </trkpt>
      <trkpt lat="41.010054" lon="-3.562510">
        <ele>1003.25</ele>
        <time>2022-06-19T06:37:18+00:00</time>
      </trkpt>
      <trkpt lat="41.010032" lon="-3.562403">
        <ele>1004.22</ele>
        <time>2022-06-19T06:37:21+00:00</time>
      </trkpt>
      <trkpt lat="41.010097" lon="-3.562360">
        <ele>1004.70</ele>
        <time>2022-06-19T06:37:22+00:00</time>
      </trkpt>
      <trkpt lat="41.010161" lon="-3.562317">
        <ele>1005.18</ele>
        <time>2022-06-19T06:37:23+00:00</time>
      </trkpt>
      <trkpt lat="41.010912" lon="-3.561888">
        <ele>1009.98</ele>
        <time>2022-06-19T06:37:29+00:00</time>
      </trkpt>
      <trkpt lat="41.012135" lon="-3.561137">
        <ele>1016.71</ele>
        <time>2022-06-19T06:37:35+00:00</time>
      </trkpt>
      <trkpt lat="41.014066" lon="-3.559935">
        <ele>1028.25</ele>
        <time>2022-06-19T06:37:42+00:00</time>
      </trkpt>
      <trkpt lat="41.016040" lon="-3.558691">
        <ele>1046.51</ele>
        <time>2022-06-19T06:37:49+00:00</time>
      </trkpt>
      <trkpt lat="41.017757" lon="-3.557897">
        <ele>1059.97</ele>
        <time>2022-06-19T06:37:56+00:00</time>
      </trkpt>
      <trkpt lat="41.020160" lon="-3.557081">
        <ele>1071.03</ele>
        <time>2022-06-19T06:38:05+00:00</time>
      </trkpt>
      <trkpt lat="41.020954" lon="-3.556759">
        <ele>1076.31</ele>
        <time>2022-06-19T06:38:09+00:00</time>
      </trkpt>
      <trkpt lat="41.021126" lon="-3.556631">
        <ele>1077.28</ele>
        <time>2022-06-19T06:38:10+00:00</time>
      </trkpt>
      <trkpt lat="41.021276" lon="-3.556480">
        <ele>1078.24</ele>
        <time>2022-06-19T06:38:11+00:00</time>
      </trkpt>
      <trkpt lat="41.022842" lon="-3.554549">
        <ele>1081.60</ele>
        <time>2022-06-19T06:38:21+00:00</time>
      </trkpt>
      <trkpt lat="41.023958" lon="-3.553369">
        <ele>1081.60</ele>
        <time>2022-06-19T06:38:27+00:00</time>
      </trkpt>
      <trkpt lat="41.024151" lon="-3.553197">
        <ele>1082.08</ele>
        <time>2022-06-19T06:38:28+00:00</time>
      </trkpt>
      <trkpt lat="41.024924" lon="-3.552640">
        <ele>1084.48</ele>
        <time>2022-06-19T06:38:32+00:00</time>
      </trkpt>
      <trkpt lat="41.025095" lon="-3.552489">
        <ele>1084.97</ele>
        <time>2022-06-19T06:38:33+00:00</time>
      </trkpt>
      <trkpt lat="41.025267" lon="-3.552296">
        <ele>1085.45</ele>
        <time>2022-06-19T06:38:34+00:00</time>
      </trkpt>
      <trkpt lat="41.026083" lon="-3.551116">
        <ele>1086.41</ele>
        <time>2022-06-19T06:38:40+00:00</time>
      </trkpt>
      <trkpt lat="41.026233" lon="-3.551009">
        <ele>1086.89</ele>
        <time>2022-06-19T06:38:41+00:00</time>
      </trkpt>
      <trkpt lat="41.026404" lon="-3.550880">
        <ele>1086.89</ele>
        <time>2022-06-19T06:38:42+00:00</time>
      </trkpt>
      <trkpt lat="41.026598" lon="-3.550816">
        <ele>1087.37</ele>
        <time>2022-06-19T06:38:43+00:00</time>
      </trkpt>
      <trkpt lat="41.026812" lon="-3.550751">
        <ele>1087.37</ele>
        <time>2022-06-19T06:38:44+00:00</time>
      </trkpt>
      <trkpt lat="41.029237" lon="-3.549893">
        <ele>1091.69</ele>
        <time>2022-06-19T06:38:55+00:00</time>
      </trkpt>
      <trkpt lat="41.029881" lon="-3.549507">
        <ele>1092.66</ele>
        <time>2022-06-19T06:38:58+00:00</time>
      </trkpt>
      <trkpt lat="41.030052" lon="-3.549357">
        <ele>1093.14</ele>
        <time>2022-06-19T06:38:59+00:00</time>
      </trkpt>
      <trkpt lat="41.030224" lon="-3.549163">
        <ele>1093.62</ele>
        <time>2022-06-19T06:39:00+00:00</time>
      </trkpt>
      <trkpt lat="41.030632" lon="-3.548756">
        <ele>1094.10</ele>
        <time>2022-06-19T06:39:03+00:00</time>
      </trkpt>
      <trkpt lat="41.030760" lon="-3.548691">
        <ele>1094.58</ele>
        <time>2022-06-19T06:39:04+00:00</time>
      </trkpt>
      <trkpt lat="41.030889" lon="-3.548648">
        <ele>1095.06</ele>
        <time>2022-06-19T06:39:05+00:00</time>
      </trkpt>
      <trkpt lat="41.031189" lon="-3.548627">
        <ele>1095.06</ele>
        <time>2022-06-19T06:39:07+00:00</time>
      </trkpt>
      <trkpt lat="41.031340" lon="-3.548584">
        <ele>1094.10</ele>
        <time>2022-06-19T06:39:08+00:00</time>
      </trkpt>
      <trkpt lat="41.031490" lon="-3.548477">
        <ele>1093.14</ele>
        <time>2022-06-19T06:39:09+00:00</time>
      </trkpt>
      <trkpt lat="41.032026" lon="-3.548133">
        <ele>1089.29</ele>
        <time>2022-06-19T06:39:12+00:00</time>
      </trkpt>
      <trkpt lat="41.032219" lon="-3.548048">
        <ele>1087.85</ele>
        <time>2022-06-19T06:39:13+00:00</time>
      </trkpt>
      <trkpt lat="41.032520" lon="-3.547897">
        <ele>1085.45</ele>
        <time>2022-06-19T06:39:15+00:00</time>
      </trkpt>
      <trkpt lat="41.032670" lon="-3.547833">
        <ele>1084.00</ele>
        <time>2022-06-19T06:39:16+00:00</time>
      </trkpt>
      <trkpt lat="41.032777" lon="-3.547683">
        <ele>1082.56</ele>
        <time>2022-06-19T06:39:17+00:00</time>
      </trkpt>
      <trkpt lat="41.032906" lon="-3.547511">
        <ele>1081.12</ele>
        <time>2022-06-19T06:39:18+00:00</time>
      </trkpt>
      <trkpt lat="41.032992" lon="-3.547339">
        <ele>1079.68</ele>
        <time>2022-06-19T06:39:19+00:00</time>
      </trkpt>
      <trkpt lat="41.033078" lon="-3.547146">
        <ele>1078.24</ele>
        <time>2022-06-19T06:39:20+00:00</time>
      </trkpt>
      <trkpt lat="41.033121" lon="-3.546910">
        <ele>1076.31</ele>
        <time>2022-06-19T06:39:21+00:00</time>
      </trkpt>
      <trkpt lat="41.033164" lon="-3.546653">
        <ele>1074.87</ele>
        <time>2022-06-19T06:39:22+00:00</time>
      </trkpt>
      <trkpt lat="41.033292" lon="-3.545537">
        <ele>1067.66</ele>
        <time>2022-06-19T06:39:27+00:00</time>
      </trkpt>
      <trkpt lat="41.033249" lon="-3.545365">
        <ele>1066.70</ele>
        <time>2022-06-19T06:39:28+00:00</time>
      </trkpt>
      <trkpt lat="41.033185" lon="-3.545065">
        <ele>1064.78</ele>
        <time>2022-06-19T06:39:30+00:00</time>
      </trkpt>
      <trkpt lat="41.033185" lon="-3.544958">
        <ele>1063.34</ele>
        <time>2022-06-19T06:39:31+00:00</time>
      </trkpt>
      <trkpt lat="41.033206" lon="-3.544829">
        <ele>1062.37</ele>
        <time>2022-06-19T06:39:32+00:00</time>
      </trkpt>
      <trkpt lat="41.033271" lon="-3.544765">
        <ele>1061.41</ele>
        <time>2022-06-19T06:39:33+00:00</time>
      </trkpt>
      <trkpt lat="41.033335" lon="-3.544700">
        <ele>1061.41</ele>
        <time>2022-06-19T06:39:34+00:00</time>
      </trkpt>
      <trkpt lat="41.033442" lon="-3.544679">
        <ele>1060.93</ele>
        <time>2022-06-19T06:39:35+00:00</time>
      </trkpt>
      <trkpt lat="41.033593" lon="-3.544700">
        <ele>1060.93</ele>
        <time>2022-06-19T06:39:36+00:00</time>
      </trkpt>
      <trkpt lat="41.033764" lon="-3.544700">
        <ele>1060.93</ele>
        <time>2022-06-19T06:39:37+00:00</time>
      </trkpt>
      <trkpt lat="41.034086" lon="-3.544700">
        <ele>1060.93</ele>
        <time>2022-06-19T06:39:39+00:00</time>
      </trkpt>
      <trkpt lat="41.034215" lon="-3.544657">
        <ele>1060.93</ele>
        <time>2022-06-19T06:39:40+00:00</time>
      </trkpt>
      <trkpt lat="41.034344" lon="-3.544593">
        <ele>1059.97</ele>
        <time>2022-06-19T06:39:41+00:00</time>
      </trkpt>
      <trkpt lat="41.034451" lon="-3.544443">
        <ele>1059.49</ele>
        <time>2022-06-19T06:39:42+00:00</time>
      </trkpt>
      <trkpt lat="41.034515" lon="-3.544250">
        <ele>1058.53</ele>
        <time>2022-06-19T06:39:43+00:00</time>
      </trkpt>
      <trkpt lat="41.034601" lon="-3.544035">
        <ele>1058.05</ele>
        <time>2022-06-19T06:39:44+00:00</time>
      </trkpt>
      <trkpt lat="41.034816" lon="-3.543584">
        <ele>1056.13</ele>
        <time>2022-06-19T06:39:47+00:00</time>
      </trkpt>
      <trkpt lat="41.034880" lon="-3.543477">
        <ele>1055.65</ele>
        <time>2022-06-19T06:39:48+00:00</time>
      </trkpt>
      <trkpt lat="41.034966" lon="-3.543391">
        <ele>1054.68</ele>
        <time>2022-06-19T06:39:49+00:00</time>
      </trkpt>
      <trkpt lat="41.035073" lon="-3.543413">
        <ele>1054.20</ele>
        <time>2022-06-19T06:39:50+00:00</time>
      </trkpt>
      <trkpt lat="41.035181" lon="-3.543434">
        <ele>1053.72</ele>
        <time>2022-06-19T06:39:51+00:00</time>
      </trkpt>
      <trkpt lat="41.035245" lon="-3.543541">
        <ele>1053.24</ele>
        <time>2022-06-19T06:39:52+00:00</time>
      </trkpt>
      <trkpt lat="41.035288" lon="-3.543649">
        <ele>1053.24</ele>
        <time>2022-06-19T06:39:53+00:00</time>
      </trkpt>
      <trkpt lat="41.035266" lon="-3.543820">
        <ele>1053.24</ele>
        <time>2022-06-19T06:39:54+00:00</time>
      </trkpt>
      <trkpt lat="41.035266" lon="-3.543992">
        <ele>1053.24</ele>
        <time>2022-06-19T06:39:55+00:00</time>
      </trkpt>
      <trkpt lat="41.035223" lon="-3.544142">
        <ele>1053.24</ele>
        <time>2022-06-19T06:39:56+00:00</time>
      </trkpt>
      <trkpt lat="41.035202" lon="-3.544314">
        <ele>1053.72</ele>
        <time>2022-06-19T06:39:57+00:00</time>
      </trkpt>
      <trkpt lat="41.035202" lon="-3.544443">
        <ele>1054.20</ele>
        <time>2022-06-19T06:39:58+00:00</time>
      </trkpt>
      <trkpt lat="41.035223" lon="-3.544571">
        <ele>1055.16</ele>
        <time>2022-06-19T06:39:59+00:00</time>
      </trkpt>
      <trkpt lat="41.035374" lon="-3.544893">
        <ele>1058.53</ele>
        <time>2022-06-19T06:40:05+00:00</time>
      </trkpt>
      <trkpt lat="41.035395" lon="-3.545044">
        <ele>1062.37</ele>
        <time>2022-06-19T06:40:13+00:00</time>
      </trkpt>
      <trkpt lat="41.035352" lon="-3.545108">
        <ele>1063.34</ele>
        <time>2022-06-19T06:40:14+00:00</time>
      </trkpt>
      <trkpt lat="41.035288" lon="-3.545215">
        <ele>1063.34</ele>
        <time>2022-06-19T06:40:15+00:00</time>
      </trkpt>
      <trkpt lat="41.035223" lon="-3.545344">
        <ele>1063.82</ele>
        <time>2022-06-19T06:40:16+00:00</time>
      </trkpt>
      <trkpt lat="41.035159" lon="-3.545494">
        <ele>1064.30</ele>
        <time>2022-06-19T06:40:17+00:00</time>
      </trkpt>
      <trkpt lat="41.035073" lon="-3.545666">
        <ele>1064.78</ele>
        <time>2022-06-19T06:40:18+00:00</time>
      </trkpt>
      <trkpt lat="41.034987" lon="-3.545837">
        <ele>1065.26</ele>
        <time>2022-06-19T06:40:19+00:00</time>
      </trkpt>
      <trkpt lat="41.034773" lon="-3.546996">
        <ele>1062.86</ele>
        <time>2022-06-19T06:40:24+00:00</time>
      </trkpt>
      <trkpt lat="41.034773" lon="-3.547211">
        <ele>1061.41</ele>
        <time>2022-06-19T06:40:25+00:00</time>
      </trkpt>
      <trkpt lat="41.034794" lon="-3.547447">
        <ele>1059.49</ele>
        <time>2022-06-19T06:40:26+00:00</time>
      </trkpt>
      <trkpt lat="41.034880" lon="-3.547661">
        <ele>1058.05</ele>
        <time>2022-06-19T06:40:27+00:00</time>
      </trkpt>
      <trkpt lat="41.034945" lon="-3.547897">
        <ele>1056.61</ele>
        <time>2022-06-19T06:40:28+00:00</time>
      </trkpt>
      <trkpt lat="41.035009" lon="-3.548112">
        <ele>1055.16</ele>
        <time>2022-06-19T06:40:29+00:00</time>
      </trkpt>
      <trkpt lat="41.035030" lon="-3.548327">
        <ele>1053.24</ele>
        <time>2022-06-19T06:40:30+00:00</time>
      </trkpt>
      <trkpt lat="41.035009" lon="-3.548584">
        <ele>1051.32</ele>
        <time>2022-06-19T06:40:31+00:00</time>
      </trkpt>
      <trkpt lat="41.034773" lon="-3.550472">
        <ele>1038.82</ele>
        <time>2022-06-19T06:40:37+00:00</time>
      </trkpt>
      <trkpt lat="41.034644" lon="-3.551159">
        <ele>1033.05</ele>
        <time>2022-06-19T06:40:40+00:00</time>
      </trkpt>
      <trkpt lat="41.034558" lon="-3.551331">
        <ele>1031.61</ele>
        <time>2022-06-19T06:40:41+00:00</time>
      </trkpt>
      <trkpt lat="41.034408" lon="-3.551674">
        <ele>1028.73</ele>
        <time>2022-06-19T06:40:43+00:00</time>
      </trkpt>
      <trkpt lat="41.034365" lon="-3.551846">
        <ele>1027.77</ele>
        <time>2022-06-19T06:40:44+00:00</time>
      </trkpt>
      <trkpt lat="41.034301" lon="-3.551953">
        <ele>1027.29</ele>
        <time>2022-06-19T06:40:45+00:00</time>
      </trkpt>
      <trkpt lat="41.034236" lon="-3.552017">
        <ele>1026.81</ele>
        <time>2022-06-19T06:40:46+00:00</time>
      </trkpt>
      <trkpt lat="41.034172" lon="-3.552039">
        <ele>1026.33</ele>
        <time>2022-06-19T06:40:47+00:00</time>
      </trkpt>
      <trkpt lat="41.034043" lon="-3.552082">
        <ele>1026.33</ele>
        <time>2022-06-19T06:40:48+00:00</time>
      </trkpt>
      <trkpt lat="41.033915" lon="-3.552125">
        <ele>1026.81</ele>
        <time>2022-06-19T06:40:49+00:00</time>
      </trkpt>
      <trkpt lat="41.033764" lon="-3.552210">
        <ele>1026.81</ele>
        <time>2022-06-19T06:40:50+00:00</time>
      </trkpt>
      <trkpt lat="41.033636" lon="-3.552339">
        <ele>1027.29</ele>
        <time>2022-06-19T06:40:51+00:00</time>
      </trkpt>
      <trkpt lat="41.032691" lon="-3.553112">
        <ele>1024.88</ele>
        <time>2022-06-19T06:40:57+00:00</time>
      </trkpt>
      <trkpt lat="41.032584" lon="-3.553262">
        <ele>1024.40</ele>
        <time>2022-06-19T06:40:58+00:00</time>
      </trkpt>
      <trkpt lat="41.032370" lon="-3.553648">
        <ele>1023.92</ele>
        <time>2022-06-19T06:41:00+00:00</time>
      </trkpt>
      <trkpt lat="41.031683" lon="-3.555000">
        <ele>1029.69</ele>
        <time>2022-06-19T06:41:06+00:00</time>
      </trkpt>
      <trkpt lat="41.030910" lon="-3.556802">
        <ele>1040.74</ele>
        <time>2022-06-19T06:41:14+00:00</time>
      </trkpt>
      <trkpt lat="41.030846" lon="-3.556974">
        <ele>1042.67</ele>
        <time>2022-06-19T06:41:15+00:00</time>
      </trkpt>
      <trkpt lat="41.030803" lon="-3.557146">
        <ele>1044.11</ele>
        <time>2022-06-19T06:41:16+00:00</time>
      </trkpt>
      <trkpt lat="41.030782" lon="-3.557339">
        <ele>1045.55</ele>
        <time>2022-06-19T06:41:17+00:00</time>
      </trkpt>
      <trkpt lat="41.030803" lon="-3.557532">
        <ele>1046.99</ele>
        <time>2022-06-19T06:41:18+00:00</time>
      </trkpt>
      <trkpt lat="41.030846" lon="-3.557746">
        <ele>1048.44</ele>
        <time>2022-06-19T06:41:19+00:00</time>
      </trkpt>
      <trkpt lat="41.030910" lon="-3.557982">
        <ele>1049.40</ele>
        <time>2022-06-19T06:41:20+00:00</time>
      </trkpt>
      <trkpt lat="41.031039" lon="-3.558219">
        <ele>1050.36</ele>
        <time>2022-06-19T06:41:21+00:00</time>
      </trkpt>
      <trkpt lat="41.031168" lon="-3.558455">
        <ele>1051.32</ele>
        <time>2022-06-19T06:41:22+00:00</time>
      </trkpt>
      <trkpt lat="41.031297" lon="-3.558669">
        <ele>1052.76</ele>
        <time>2022-06-19T06:41:23+00:00</time>
      </trkpt>
      <trkpt lat="41.031447" lon="-3.558841">
        <ele>1053.72</ele>
        <time>2022-06-19T06:41:24+00:00</time>
      </trkpt>
      <trkpt lat="41.031597" lon="-3.558991">
        <ele>1054.68</ele>
        <time>2022-06-19T06:41:25+00:00</time>
      </trkpt>
      <trkpt lat="41.031747" lon="-3.559120">
        <ele>1055.16</ele>
        <time>2022-06-19T06:41:26+00:00</time>
      </trkpt>
      <trkpt lat="41.032413" lon="-3.559742">
        <ele>1056.61</ele>
        <time>2022-06-19T06:41:31+00:00</time>
      </trkpt>
      <trkpt lat="41.032477" lon="-3.559892">
        <ele>1056.61</ele>
        <time>2022-06-19T06:41:32+00:00</time>
      </trkpt>
      <trkpt lat="41.032541" lon="-3.560021">
        <ele>1056.61</ele>
        <time>2022-06-19T06:41:33+00:00</time>
      </trkpt>
      <trkpt lat="41.032563" lon="-3.560214">
        <ele>1056.13</ele>
        <time>2022-06-19T06:41:34+00:00</time>
      </trkpt>
      <trkpt lat="41.032563" lon="-3.560407">
        <ele>1055.16</ele>
        <time>2022-06-19T06:41:35+00:00</time>
      </trkpt>
      <trkpt lat="41.032498" lon="-3.560643">
        <ele>1054.68</ele>
        <time>2022-06-19T06:41:36+00:00</time>
      </trkpt>
      <trkpt lat="41.032434" lon="-3.560858">
        <ele>1054.68</ele>
        <time>2022-06-19T06:41:37+00:00</time>
      </trkpt>
      <trkpt lat="41.032327" lon="-3.561008">
        <ele>1054.68</ele>
        <time>2022-06-19T06:41:38+00:00</time>
      </trkpt>
      <trkpt lat="41.032198" lon="-3.561180">
        <ele>1055.65</ele>
        <time>2022-06-19T06:41:39+00:00</time>
      </trkpt>
      <trkpt lat="41.032069" lon="-3.561330">
        <ele>1057.09</ele>
        <time>2022-06-19T06:41:40+00:00</time>
      </trkpt>
      <trkpt lat="41.031962" lon="-3.561502">
        <ele>1058.53</ele>
        <time>2022-06-19T06:41:41+00:00</time>
      </trkpt>
      <trkpt lat="41.031898" lon="-3.561695">
        <ele>1060.45</ele>
        <time>2022-06-19T06:41:42+00:00</time>
      </trkpt>
      <trkpt lat="41.031833" lon="-3.561931">
        <ele>1061.89</ele>
        <time>2022-06-19T06:41:43+00:00</time>
      </trkpt>
      <trkpt lat="41.031769" lon="-3.562167">
        <ele>1063.34</ele>
        <time>2022-06-19T06:41:44+00:00</time>
      </trkpt>
      <trkpt lat="41.031704" lon="-3.562381">
        <ele>1065.26</ele>
        <time>2022-06-19T06:41:45+00:00</time>
      </trkpt>
      <trkpt lat="41.031640" lon="-3.562596">
        <ele>1067.18</ele>
        <time>2022-06-19T06:41:46+00:00</time>
      </trkpt>
      <trkpt lat="41.031619" lon="-3.562853">
        <ele>1068.62</ele>
        <time>2022-06-19T06:41:47+00:00</time>
      </trkpt>
      <trkpt lat="41.031640" lon="-3.563089">
        <ele>1070.55</ele>
        <time>2022-06-19T06:41:48+00:00</time>
      </trkpt>
      <trkpt lat="41.031662" lon="-3.563325">
        <ele>1071.99</ele>
        <time>2022-06-19T06:41:49+00:00</time>
      </trkpt>
      <trkpt lat="41.031704" lon="-3.563540">
        <ele>1073.43</ele>
        <time>2022-06-19T06:41:50+00:00</time>
      </trkpt>
      <trkpt lat="41.031769" lon="-3.563798">
        <ele>1074.39</ele>
        <time>2022-06-19T06:41:51+00:00</time>
      </trkpt>
      <trkpt lat="41.031833" lon="-3.564034">
        <ele>1074.39</ele>
        <time>2022-06-19T06:41:52+00:00</time>
      </trkpt>
      <trkpt lat="41.032391" lon="-3.566179">
        <ele>1071.03</ele>
        <time>2022-06-19T06:42:01+00:00</time>
      </trkpt>
      <trkpt lat="41.032713" lon="-3.568089">
        <ele>1063.34</ele>
        <time>2022-06-19T06:42:08+00:00</time>
      </trkpt>
      <trkpt lat="41.032949" lon="-3.569977">
        <ele>1057.09</ele>
        <time>2022-06-19T06:42:15+00:00</time>
      </trkpt>
      <trkpt lat="41.033056" lon="-3.570600">
        <ele>1056.61</ele>
        <time>2022-06-19T06:42:18+00:00</time>
      </trkpt>
      <trkpt lat="41.033121" lon="-3.570750">
        <ele>1057.57</ele>
        <time>2022-06-19T06:42:19+00:00</time>
      </trkpt>
      <trkpt lat="41.033206" lon="-3.570879">
        <ele>1058.05</ele>
        <time>2022-06-19T06:42:20+00:00</time>
      </trkpt>
      <trkpt lat="41.033314" lon="-3.570964">
        <ele>1058.53</ele>
        <time>2022-06-19T06:42:21+00:00</time>
      </trkpt>
      <trkpt lat="41.033442" lon="-3.571072">
        <ele>1058.53</ele>
        <time>2022-06-19T06:42:22+00:00</time>
      </trkpt>
      <trkpt lat="41.033550" lon="-3.571157">
        <ele>1058.53</ele>
        <time>2022-06-19T06:42:23+00:00</time>
      </trkpt>
      <trkpt lat="41.033957" lon="-3.571436">
        <ele>1054.68</ele>
        <time>2022-06-19T06:42:28+00:00</time>
      </trkpt>
      <trkpt lat="41.034000" lon="-3.571415">
        <ele>1054.20</ele>
        <time>2022-06-19T06:42:29+00:00</time>
      </trkpt>
      <trkpt lat="41.034065" lon="-3.571372">
        <ele>1053.72</ele>
        <time>2022-06-19T06:42:30+00:00</time>
      </trkpt>
      <trkpt lat="41.034151" lon="-3.571329">
        <ele>1053.24</ele>
        <time>2022-06-19T06:42:31+00:00</time>
      </trkpt>
      <trkpt lat="41.034215" lon="-3.571265">
        <ele>1053.24</ele>
        <time>2022-06-19T06:42:32+00:00</time>
      </trkpt>
      <trkpt lat="41.034301" lon="-3.571179">
        <ele>1053.24</ele>
        <time>2022-06-19T06:42:33+00:00</time>
      </trkpt>
      <trkpt lat="41.035052" lon="-3.570364">
        <ele>1054.68</ele>
        <time>2022-06-19T06:42:39+00:00</time>
      </trkpt>
      <trkpt lat="41.035202" lon="-3.570235">
        <ele>1055.16</ele>
        <time>2022-06-19T06:42:40+00:00</time>
      </trkpt>
      <trkpt lat="41.035374" lon="-3.570149">
        <ele>1055.16</ele>
        <time>2022-06-19T06:42:41+00:00</time>
      </trkpt>
      <trkpt lat="41.035567" lon="-3.570085">
        <ele>1055.65</ele>
        <time>2022-06-19T06:42:42+00:00</time>
      </trkpt>
      <trkpt lat="41.037004" lon="-3.569763">
        <ele>1059.97</ele>
        <time>2022-06-19T06:42:49+00:00</time>
      </trkpt>
      <trkpt lat="41.037369" lon="-3.569591">
        <ele>1059.49</ele>
        <time>2022-06-19T06:42:51+00:00</time>
      </trkpt>
      <trkpt lat="41.037541" lon="-3.569484">
        <ele>1059.01</ele>
        <time>2022-06-19T06:42:52+00:00</time>
      </trkpt>
      <trkpt lat="41.037691" lon="-3.569334">
        <ele>1058.05</ele>
        <time>2022-06-19T06:42:53+00:00</time>
      </trkpt>
      <trkpt lat="41.037841" lon="-3.569205">
        <ele>1057.09</ele>
        <time>2022-06-19T06:42:54+00:00</time>
      </trkpt>
      <trkpt lat="41.037992" lon="-3.569119">
        <ele>1056.13</ele>
        <time>2022-06-19T06:42:55+00:00</time>
      </trkpt>
      <trkpt lat="41.038163" lon="-3.569098">
        <ele>1055.16</ele>
        <time>2022-06-19T06:42:56+00:00</time>
      </trkpt>
      <trkpt lat="41.038378" lon="-3.569098">
        <ele>1054.68</ele>
        <time>2022-06-19T06:42:57+00:00</time>
      </trkpt>
      <trkpt lat="41.038592" lon="-3.569076">
        <ele>1054.20</ele>
        <time>2022-06-19T06:42:58+00:00</time>
      </trkpt>
      <trkpt lat="41.040094" lon="-3.569033">
        <ele>1056.61</ele>
        <time>2022-06-19T06:43:05+00:00</time>
      </trkpt>
      <trkpt lat="41.040245" lon="-3.569076">
        <ele>1057.57</ele>
        <time>2022-06-19T06:43:06+00:00</time>
      </trkpt>
      <trkpt lat="41.040373" lon="-3.569140">
        <ele>1058.05</ele>
        <time>2022-06-19T06:43:07+00:00</time>
      </trkpt>
      <trkpt lat="41.040502" lon="-3.569269">
        <ele>1058.53</ele>
        <time>2022-06-19T06:43:08+00:00</time>
      </trkpt>
      <trkpt lat="41.040631" lon="-3.569441">
        <ele>1059.49</ele>
        <time>2022-06-19T06:43:09+00:00</time>
      </trkpt>
      <trkpt lat="41.040760" lon="-3.569613">
        <ele>1059.97</ele>
        <time>2022-06-19T06:43:10+00:00</time>
      </trkpt>
      <trkpt lat="41.041661" lon="-3.570943">
        <ele>1062.37</ele>
        <time>2022-06-19T06:43:17+00:00</time>
      </trkpt>
      <trkpt lat="41.041704" lon="-3.571157">
        <ele>1061.41</ele>
        <time>2022-06-19T06:43:18+00:00</time>
      </trkpt>
      <trkpt lat="41.041747" lon="-3.571372">
        <ele>1059.97</ele>
        <time>2022-06-19T06:43:19+00:00</time>
      </trkpt>
      <trkpt lat="41.041811" lon="-3.571565">
        <ele>1058.53</ele>
        <time>2022-06-19T06:43:20+00:00</time>
      </trkpt>
      <trkpt lat="41.041875" lon="-3.571694">
        <ele>1057.09</ele>
        <time>2022-06-19T06:43:21+00:00</time>
      </trkpt>
      <trkpt lat="41.041961" lon="-3.571801">
        <ele>1055.65</ele>
        <time>2022-06-19T06:43:22+00:00</time>
      </trkpt>
      <trkpt lat="41.042111" lon="-3.571866">
        <ele>1054.20</ele>
        <time>2022-06-19T06:43:23+00:00</time>
      </trkpt>
      <trkpt lat="41.042283" lon="-3.571909">
        <ele>1053.24</ele>
        <time>2022-06-19T06:43:24+00:00</time>
      </trkpt>
      <trkpt lat="41.042498" lon="-3.571909">
        <ele>1051.32</ele>
        <time>2022-06-19T06:43:25+00:00</time>
      </trkpt>
      <trkpt lat="41.042691" lon="-3.571909">
        <ele>1049.88</ele>
        <time>2022-06-19T06:43:26+00:00</time>
      </trkpt>
      <trkpt lat="41.043034" lon="-3.571909">
        <ele>1046.99</ele>
        <time>2022-06-19T06:43:28+00:00</time>
      </trkpt>
      <trkpt lat="41.043163" lon="-3.571951">
        <ele>1045.55</ele>
        <time>2022-06-19T06:43:29+00:00</time>
      </trkpt>
      <trkpt lat="41.043270" lon="-3.572016">
        <ele>1044.11</ele>
        <time>2022-06-19T06:43:30+00:00</time>
      </trkpt>
      <trkpt lat="41.043334" lon="-3.572166">
        <ele>1042.67</ele>
        <time>2022-06-19T06:43:31+00:00</time>
      </trkpt>
      <trkpt lat="41.043377" lon="-3.572316">
        <ele>1041.71</ele>
        <time>2022-06-19T06:43:32+00:00</time>
      </trkpt>
      <trkpt lat="41.043399" lon="-3.572509">
        <ele>1041.23</ele>
        <time>2022-06-19T06:43:33+00:00</time>
      </trkpt>
      <trkpt lat="41.043399" lon="-3.572724">
        <ele>1041.23</ele>
        <time>2022-06-19T06:43:34+00:00</time>
      </trkpt>
      <trkpt lat="41.043528" lon="-3.574076">
        <ele>1046.03</ele>
        <time>2022-06-19T06:43:39+00:00</time>
      </trkpt>
      <trkpt lat="41.043592" lon="-3.574526">
        <ele>1048.44</ele>
        <time>2022-06-19T06:43:41+00:00</time>
      </trkpt>
      <trkpt lat="41.043678" lon="-3.574762">
        <ele>1049.88</ele>
        <time>2022-06-19T06:43:42+00:00</time>
      </trkpt>
      <trkpt lat="41.043785" lon="-3.574956">
        <ele>1050.84</ele>
        <time>2022-06-19T06:43:43+00:00</time>
      </trkpt>
      <trkpt lat="41.044128" lon="-3.575513">
        <ele>1051.80</ele>
        <time>2022-06-19T06:43:46+00:00</time>
      </trkpt>
      <trkpt lat="41.044257" lon="-3.575664">
        <ele>1051.32</ele>
        <time>2022-06-19T06:43:47+00:00</time>
      </trkpt>
      <trkpt lat="41.044493" lon="-3.575900">
        <ele>1049.88</ele>
        <time>2022-06-19T06:43:49+00:00</time>
      </trkpt>
      <trkpt lat="41.044558" lon="-3.576050">
        <ele>1049.40</ele>
        <time>2022-06-19T06:43:50+00:00</time>
      </trkpt>
      <trkpt lat="41.044600" lon="-3.576222">
        <ele>1048.44</ele>
        <time>2022-06-19T06:43:51+00:00</time>
      </trkpt>
      <trkpt lat="41.044600" lon="-3.576436">
        <ele>1047.47</ele>
        <time>2022-06-19T06:43:52+00:00</time>
      </trkpt>
      <trkpt lat="41.044622" lon="-3.576651">
        <ele>1046.99</ele>
        <time>2022-06-19T06:43:53+00:00</time>
      </trkpt>
      <trkpt lat="41.044579" lon="-3.577166">
        <ele>1047.47</ele>
        <time>2022-06-19T06:43:55+00:00</time>
      </trkpt>
      <trkpt lat="41.044515" lon="-3.577895">
        <ele>1050.36</ele>
        <time>2022-06-19T06:43:58+00:00</time>
      </trkpt>
      <trkpt lat="41.044558" lon="-3.578110">
        <ele>1051.32</ele>
        <time>2022-06-19T06:43:59+00:00</time>
      </trkpt>
      <trkpt lat="41.044600" lon="-3.578303">
        <ele>1052.28</ele>
        <time>2022-06-19T06:44:00+00:00</time>
      </trkpt>
      <trkpt lat="41.044643" lon="-3.578517">
        <ele>1053.24</ele>
        <time>2022-06-19T06:44:01+00:00</time>
      </trkpt>
      <trkpt lat="41.044751" lon="-3.578668">
        <ele>1053.72</ele>
        <time>2022-06-19T06:44:02+00:00</time>
      </trkpt>
      <trkpt lat="41.044837" lon="-3.578818">
        <ele>1053.72</ele>
        <time>2022-06-19T06:44:03+00:00</time>
      </trkpt>
      <trkpt lat="41.044965" lon="-3.578882">
        <ele>1053.72</ele>
        <time>2022-06-19T06:44:04+00:00</time>
      </trkpt>
      <trkpt lat="41.045115" lon="-3.578947">
        <ele>1053.72</ele>
        <time>2022-06-19T06:44:05+00:00</time>
      </trkpt>
      <trkpt lat="41.045309" lon="-3.579032">
        <ele>1052.76</ele>
        <time>2022-06-19T06:44:06+00:00</time>
      </trkpt>
      <trkpt lat="41.045952" lon="-3.579311">
        <ele>1048.92</ele>
        <time>2022-06-19T06:44:10+00:00</time>
      </trkpt>
      <trkpt lat="41.046060" lon="-3.579440">
        <ele>1047.96</ele>
        <time>2022-06-19T06:44:11+00:00</time>
      </trkpt>
      <trkpt lat="41.046145" lon="-3.579612">
        <ele>1046.51</ele>
        <time>2022-06-19T06:44:12+00:00</time>
      </trkpt>
      <trkpt lat="41.046210" lon="-3.579805">
        <ele>1045.55</ele>
        <time>2022-06-19T06:44:13+00:00</time>
      </trkpt>
      <trkpt lat="41.046253" lon="-3.579998">
        <ele>1045.07</ele>
        <time>2022-06-19T06:44:14+00:00</time>
      </trkpt>
      <trkpt lat="41.046274" lon="-3.580191">
        <ele>1044.59</ele>
        <time>2022-06-19T06:44:15+00:00</time>
      </trkpt>
      <trkpt lat="41.046339" lon="-3.580706">
        <ele>1043.63</ele>
        <time>2022-06-19T06:44:18+00:00</time>
      </trkpt>
      <trkpt lat="41.046339" lon="-3.580856">
        <ele>1043.63</ele>
        <time>2022-06-19T06:44:19+00:00</time>
      </trkpt>
      <trkpt lat="41.046339" lon="-3.581307">
        <ele>1043.15</ele>
        <time>2022-06-19T06:44:22+00:00</time>
      </trkpt>
      <trkpt lat="41.046360" lon="-3.581457">
        <ele>1043.15</ele>
        <time>2022-06-19T06:44:23+00:00</time>
      </trkpt>
      <trkpt lat="41.046403" lon="-3.581586">
        <ele>1043.63</ele>
        <time>2022-06-19T06:44:24+00:00</time>
      </trkpt>
      <trkpt lat="41.046446" lon="-3.581715">
        <ele>1043.63</ele>
        <time>2022-06-19T06:44:25+00:00</time>
      </trkpt>
      <trkpt lat="41.046489" lon="-3.581822">
        <ele>1043.63</ele>
        <time>2022-06-19T06:44:26+00:00</time>
      </trkpt>
      <trkpt lat="41.046553" lon="-3.581929">
        <ele>1044.11</ele>
        <time>2022-06-19T06:44:27+00:00</time>
      </trkpt>
      <trkpt lat="41.046660" lon="-3.582058">
        <ele>1044.11</ele>
        <time>2022-06-19T06:44:29+00:00</time>
      </trkpt>
      <trkpt lat="41.046725" lon="-3.582122">
        <ele>1044.59</ele>
        <time>2022-06-19T06:44:30+00:00</time>
      </trkpt>
      <trkpt lat="41.046789" lon="-3.582165">
        <ele>1044.59</ele>
        <time>2022-06-19T06:44:31+00:00</time>
      </trkpt>
      <trkpt lat="41.047454" lon="-3.582702">
        <ele>1043.15</ele>
        <time>2022-06-19T06:44:42+00:00</time>
      </trkpt>
      <trkpt lat="41.047497" lon="-3.582680">
        <ele>1042.67</ele>
        <time>2022-06-19T06:44:43+00:00</time>
      </trkpt>
      <trkpt lat="41.047519" lon="-3.582680">
        <ele>1043.15</ele>
        <time>2022-06-19T06:44:44+00:00</time>
      </trkpt>
      <trkpt lat="41.047562" lon="-3.582659">
        <ele>1043.63</ele>
        <time>2022-06-19T06:44:45+00:00</time>
      </trkpt>
      <trkpt lat="41.047626" lon="-3.582637">
        <ele>1043.63</ele>
        <time>2022-06-19T06:44:46+00:00</time>
      </trkpt>
      <trkpt lat="41.047690" lon="-3.582616">
        <ele>1043.63</ele>
        <time>2022-06-19T06:44:47+00:00</time>
      </trkpt>
      <trkpt lat="41.047776" lon="-3.582637">
        <ele>1043.63</ele>
        <time>2022-06-19T06:44:48+00:00</time>
      </trkpt>
      <trkpt lat="41.047841" lon="-3.582637">
        <ele>1043.63</ele>
        <time>2022-06-19T06:44:49+00:00</time>
      </trkpt>
      <trkpt lat="41.047905" lon="-3.582616">
        <ele>1044.11</ele>
        <time>2022-06-19T06:44:50+00:00</time>
      </trkpt>
      <trkpt lat="41.047991" lon="-3.582594">
        <ele>1044.59</ele>
        <time>2022-06-19T06:44:51+00:00</time>
      </trkpt>
      <trkpt lat="41.048055" lon="-3.582530">
        <ele>1045.55</ele>
        <time>2022-06-19T06:44:52+00:00</time>
      </trkpt>
      <trkpt lat="41.048141" lon="-3.582444">
        <ele>1046.51</ele>
        <time>2022-06-19T06:44:53+00:00</time>
      </trkpt>
      <trkpt lat="41.048806" lon="-3.581865">
        <ele>1049.40</ele>
        <time>2022-06-19T06:45:00+00:00</time>
      </trkpt>
      <trkpt lat="41.048913" lon="-3.581779">
        <ele>1048.92</ele>
        <time>2022-06-19T06:45:01+00:00</time>
      </trkpt>
      <trkpt lat="41.049042" lon="-3.581736">
        <ele>1048.44</ele>
        <time>2022-06-19T06:45:02+00:00</time>
      </trkpt>
      <trkpt lat="41.049171" lon="-3.581693">
        <ele>1047.96</ele>
        <time>2022-06-19T06:45:03+00:00</time>
      </trkpt>
      <trkpt lat="41.049300" lon="-3.581672">
        <ele>1047.47</ele>
        <time>2022-06-19T06:45:04+00:00</time>
      </trkpt>
      <trkpt lat="41.049428" lon="-3.581650">
        <ele>1046.99</ele>
        <time>2022-06-19T06:45:05+00:00</time>
      </trkpt>
      <trkpt lat="41.049557" lon="-3.581672">
        <ele>1046.03</ele>
        <time>2022-06-19T06:45:06+00:00</time>
      </trkpt>
      <trkpt lat="41.049707" lon="-3.581758">
        <ele>1046.03</ele>
        <time>2022-06-19T06:45:07+00:00</time>
      </trkpt>
      <trkpt lat="41.049836" lon="-3.581843">
        <ele>1046.03</ele>
        <time>2022-06-19T06:45:08+00:00</time>
      </trkpt>
      <trkpt lat="41.049986" lon="-3.581908">
        <ele>1046.03</ele>
        <time>2022-06-19T06:45:09+00:00</time>
      </trkpt>
      <trkpt lat="41.050115" lon="-3.581908">
        <ele>1046.51</ele>
        <time>2022-06-19T06:45:10+00:00</time>
      </trkpt>
      <trkpt lat="41.050244" lon="-3.581843">
        <ele>1047.96</ele>
        <time>2022-06-19T06:45:11+00:00</time>
      </trkpt>
      <trkpt lat="41.050373" lon="-3.581736">
        <ele>1049.40</ele>
        <time>2022-06-19T06:45:12+00:00</time>
      </trkpt>
      <trkpt lat="41.050501" lon="-3.581607">
        <ele>1050.84</ele>
        <time>2022-06-19T06:45:13+00:00</time>
      </trkpt>
      <trkpt lat="41.050759" lon="-3.581393">
        <ele>1053.24</ele>
        <time>2022-06-19T06:45:15+00:00</time>
      </trkpt>
      <trkpt lat="41.050888" lon="-3.581328">
        <ele>1054.20</ele>
        <time>2022-06-19T06:45:16+00:00</time>
      </trkpt>
      <trkpt lat="41.051016" lon="-3.581264">
        <ele>1055.16</ele>
        <time>2022-06-19T06:45:17+00:00</time>
      </trkpt>
      <trkpt lat="41.051188" lon="-3.581264">
        <ele>1056.13</ele>
        <time>2022-06-19T06:45:18+00:00</time>
      </trkpt>
      <trkpt lat="41.051360" lon="-3.581286">
        <ele>1056.61</ele>
        <time>2022-06-19T06:45:19+00:00</time>
      </trkpt>
      <trkpt lat="41.051574" lon="-3.581328">
        <ele>1057.09</ele>
        <time>2022-06-19T06:45:20+00:00</time>
      </trkpt>
      <trkpt lat="41.052325" lon="-3.581414">
        <ele>1061.41</ele>
        <time>2022-06-19T06:45:24+00:00</time>
      </trkpt>
      <trkpt lat="41.052518" lon="-3.581414">
        <ele>1062.37</ele>
        <time>2022-06-19T06:45:25+00:00</time>
      </trkpt>
      <trkpt lat="41.053977" lon="-3.580985">
        <ele>1073.91</ele>
        <time>2022-06-19T06:45:32+00:00</time>
      </trkpt>
      <trkpt lat="41.056703" lon="-3.580105">
        <ele>1091.21</ele>
        <time>2022-06-19T06:45:44+00:00</time>
      </trkpt>
      <trkpt lat="41.058226" lon="-3.579397">
        <ele>1099.39</ele>
        <time>2022-06-19T06:45:51+00:00</time>
      </trkpt>
      <trkpt lat="41.059621" lon="-3.578453">
        <ele>1105.63</ele>
        <time>2022-06-19T06:45:58+00:00</time>
      </trkpt>
      <trkpt lat="41.059771" lon="-3.578260">
        <ele>1106.11</ele>
        <time>2022-06-19T06:45:59+00:00</time>
      </trkpt>
      <trkpt lat="41.060758" lon="-3.577037">
        <ele>1110.44</ele>
        <time>2022-06-19T06:46:06+00:00</time>
      </trkpt>
      <trkpt lat="41.060844" lon="-3.576844">
        <ele>1110.92</ele>
        <time>2022-06-19T06:46:07+00:00</time>
      </trkpt>
      <trkpt lat="41.060951" lon="-3.576651">
        <ele>1111.40</ele>
        <time>2022-06-19T06:46:08+00:00</time>
      </trkpt>
      <trkpt lat="41.061402" lon="-3.575621">
        <ele>1113.80</ele>
        <time>2022-06-19T06:46:14+00:00</time>
      </trkpt>
      <trkpt lat="41.061488" lon="-3.575513">
        <ele>1113.80</ele>
        <time>2022-06-19T06:46:15+00:00</time>
      </trkpt>
      <trkpt lat="41.061574" lon="-3.575406">
        <ele>1113.80</ele>
        <time>2022-06-19T06:46:16+00:00</time>
      </trkpt>
      <trkpt lat="41.061702" lon="-3.575363">
        <ele>1114.29</ele>
        <time>2022-06-19T06:46:17+00:00</time>
      </trkpt>
      <trkpt lat="41.061852" lon="-3.575320">
        <ele>1114.77</ele>
        <time>2022-06-19T06:46:18+00:00</time>
      </trkpt>
      <trkpt lat="41.062003" lon="-3.575342">
        <ele>1115.73</ele>
        <time>2022-06-19T06:46:19+00:00</time>
      </trkpt>
      <trkpt lat="41.062153" lon="-3.575428">
        <ele>1116.69</ele>
        <time>2022-06-19T06:46:20+00:00</time>
      </trkpt>
      <trkpt lat="41.062303" lon="-3.575535">
        <ele>1117.17</ele>
        <time>2022-06-19T06:46:21+00:00</time>
      </trkpt>
      <trkpt lat="41.062453" lon="-3.575664">
        <ele>1118.13</ele>
        <time>2022-06-19T06:46:22+00:00</time>
      </trkpt>
      <trkpt lat="41.063741" lon="-3.576329">
        <ele>1120.53</ele>
        <time>2022-06-19T06:46:29+00:00</time>
      </trkpt>
      <trkpt lat="41.065264" lon="-3.577058">
        <ele>1115.73</ele>
        <time>2022-06-19T06:46:37+00:00</time>
      </trkpt>
      <trkpt lat="41.065543" lon="-3.577123">
        <ele>1113.80</ele>
        <time>2022-06-19T06:46:39+00:00</time>
      </trkpt>
      <trkpt lat="41.065672" lon="-3.577144">
        <ele>1113.32</ele>
        <time>2022-06-19T06:46:40+00:00</time>
      </trkpt>
      <trkpt lat="41.065801" lon="-3.577123">
        <ele>1112.84</ele>
        <time>2022-06-19T06:46:41+00:00</time>
      </trkpt>
      <trkpt lat="41.066080" lon="-3.577123">
        <ele>1110.44</ele>
        <time>2022-06-19T06:46:44+00:00</time>
      </trkpt>
      <trkpt lat="41.066144" lon="-3.577166">
        <ele>1109.96</ele>
        <time>2022-06-19T06:46:45+00:00</time>
      </trkpt>
      <trkpt lat="41.066208" lon="-3.577209">
        <ele>1109.00</ele>
        <time>2022-06-19T06:46:46+00:00</time>
      </trkpt>
      <trkpt lat="41.066273" lon="-3.577273">
        <ele>1107.56</ele>
        <time>2022-06-19T06:46:48+00:00</time>
      </trkpt>
      <trkpt lat="41.066423" lon="-3.577187">
        <ele>1106.59</ele>
        <time>2022-06-19T06:46:49+00:00</time>
      </trkpt>
      <trkpt lat="41.066423" lon="-3.577144">
        <ele>1105.63</ele>
        <time>2022-06-19T06:46:50+00:00</time>
      </trkpt>
      <trkpt lat="41.066466" lon="-3.577058">
        <ele>1105.15</ele>
        <time>2022-06-19T06:46:51+00:00</time>
      </trkpt>
      <trkpt lat="41.066487" lon="-3.576951">
        <ele>1104.67</ele>
        <time>2022-06-19T06:46:52+00:00</time>
      </trkpt>
      <trkpt lat="41.066509" lon="-3.576844">
        <ele>1105.63</ele>
        <time>2022-06-19T06:46:53+00:00</time>
      </trkpt>
      <trkpt lat="41.066552" lon="-3.576736">
        <ele>1106.11</ele>
        <time>2022-06-19T06:46:54+00:00</time>
      </trkpt>
      <trkpt lat="41.066595" lon="-3.576672">
        <ele>1107.56</ele>
        <time>2022-06-19T06:46:55+00:00</time>
      </trkpt>
      <trkpt lat="41.066680" lon="-3.576608">
        <ele>1108.52</ele>
        <time>2022-06-19T06:46:56+00:00</time>
      </trkpt>
      <trkpt lat="41.066766" lon="-3.576565">
        <ele>1109.48</ele>
        <time>2022-06-19T06:46:57+00:00</time>
      </trkpt>
      <trkpt lat="41.066895" lon="-3.576586">
        <ele>1110.92</ele>
        <time>2022-06-19T06:46:58+00:00</time>
      </trkpt>
      <trkpt lat="41.067024" lon="-3.576629">
        <ele>1112.84</ele>
        <time>2022-06-19T06:46:59+00:00</time>
      </trkpt>
      <trkpt lat="41.067153" lon="-3.576651">
        <ele>1114.77</ele>
        <time>2022-06-19T06:47:00+00:00</time>
      </trkpt>
      <trkpt lat="41.067260" lon="-3.576651">
        <ele>1116.21</ele>
        <time>2022-06-19T06:47:01+00:00</time>
      </trkpt>
      <trkpt lat="41.067389" lon="-3.576629">
        <ele>1117.65</ele>
        <time>2022-06-19T06:47:02+00:00</time>
      </trkpt>
      <trkpt lat="41.067474" lon="-3.576543">
        <ele>1119.57</ele>
        <time>2022-06-19T06:47:03+00:00</time>
      </trkpt>
      <trkpt lat="41.067582" lon="-3.576479">
        <ele>1121.50</ele>
        <time>2022-06-19T06:47:04+00:00</time>
      </trkpt>
      <trkpt lat="41.067646" lon="-3.576350">
        <ele>1122.94</ele>
        <time>2022-06-19T06:47:05+00:00</time>
      </trkpt>
      <trkpt lat="41.067710" lon="-3.576222">
        <ele>1124.86</ele>
        <time>2022-06-19T06:47:06+00:00</time>
      </trkpt>
      <trkpt lat="41.067775" lon="-3.576050">
        <ele>1126.78</ele>
        <time>2022-06-19T06:47:07+00:00</time>
      </trkpt>
      <trkpt lat="41.067818" lon="-3.575857">
        <ele>1128.22</ele>
        <time>2022-06-19T06:47:08+00:00</time>
      </trkpt>
      <trkpt lat="41.068268" lon="-3.574097">
        <ele>1141.68</ele>
        <time>2022-06-19T06:47:16+00:00</time>
      </trkpt>
      <trkpt lat="41.068676" lon="-3.571994">
        <ele>1159.47</ele>
        <time>2022-06-19T06:47:24+00:00</time>
      </trkpt>
      <trkpt lat="41.068762" lon="-3.571157">
        <ele>1168.12</ele>
        <time>2022-06-19T06:47:28+00:00</time>
      </trkpt>
      <trkpt lat="41.068719" lon="-3.570986">
        <ele>1170.04</ele>
        <time>2022-06-19T06:47:29+00:00</time>
      </trkpt>
      <trkpt lat="41.068655" lon="-3.570836">
        <ele>1171.48</ele>
        <time>2022-06-19T06:47:30+00:00</time>
      </trkpt>
      <trkpt lat="41.068569" lon="-3.570707">
        <ele>1172.93</ele>
        <time>2022-06-19T06:47:31+00:00</time>
      </trkpt>
      <trkpt lat="41.068461" lon="-3.570600">
        <ele>1174.37</ele>
        <time>2022-06-19T06:47:32+00:00</time>
      </trkpt>
      <trkpt lat="41.068311" lon="-3.570471">
        <ele>1176.29</ele>
        <time>2022-06-19T06:47:33+00:00</time>
      </trkpt>
      <trkpt lat="41.068161" lon="-3.570385">
        <ele>1177.73</ele>
        <time>2022-06-19T06:47:34+00:00</time>
      </trkpt>
      <trkpt lat="41.067989" lon="-3.570278">
        <ele>1179.65</ele>
        <time>2022-06-19T06:47:35+00:00</time>
      </trkpt>
      <trkpt lat="41.067818" lon="-3.570192">
        <ele>1181.58</ele>
        <time>2022-06-19T06:47:36+00:00</time>
      </trkpt>
      <trkpt lat="41.066444" lon="-3.569634">
        <ele>1194.07</ele>
        <time>2022-06-19T06:47:43+00:00</time>
      </trkpt>
      <trkpt lat="41.064878" lon="-3.568947">
        <ele>1210.42</ele>
        <time>2022-06-19T06:47:51+00:00</time>
      </trkpt>
      <trkpt lat="41.064299" lon="-3.568797">
        <ele>1216.67</ele>
        <time>2022-06-19T06:47:55+00:00</time>
      </trkpt>
      <trkpt lat="41.064170" lon="-3.568711">
        <ele>1218.11</ele>
        <time>2022-06-19T06:47:56+00:00</time>
      </trkpt>
      <trkpt lat="41.064041" lon="-3.568583">
        <ele>1219.55</ele>
        <time>2022-06-19T06:47:57+00:00</time>
      </trkpt>
      <trkpt lat="41.063655" lon="-3.568153">
        <ele>1223.87</ele>
        <time>2022-06-19T06:48:00+00:00</time>
      </trkpt>
      <trkpt lat="41.063526" lon="-3.567960">
        <ele>1225.32</ele>
        <time>2022-06-19T06:48:01+00:00</time>
      </trkpt>
      <trkpt lat="41.062453" lon="-3.566372">
        <ele>1239.26</ele>
        <time>2022-06-19T06:48:09+00:00</time>
      </trkpt>
      <trkpt lat="41.062325" lon="-3.566201">
        <ele>1241.18</ele>
        <time>2022-06-19T06:48:10+00:00</time>
      </trkpt>
      <trkpt lat="41.062153" lon="-3.566072">
        <ele>1243.10</ele>
        <time>2022-06-19T06:48:11+00:00</time>
      </trkpt>
      <trkpt lat="41.061252" lon="-3.565385">
        <ele>1253.19</ele>
        <time>2022-06-19T06:48:16+00:00</time>
      </trkpt>
      <trkpt lat="41.061037" lon="-3.565278">
        <ele>1255.12</ele>
        <time>2022-06-19T06:48:17+00:00</time>
      </trkpt>
      <trkpt lat="41.059793" lon="-3.565085">
        <ele>1266.17</ele>
        <time>2022-06-19T06:48:23+00:00</time>
      </trkpt>
      <trkpt lat="41.059127" lon="-3.565171">
        <ele>1272.90</ele>
        <time>2022-06-19T06:48:27+00:00</time>
      </trkpt>
      <trkpt lat="41.059020" lon="-3.565235">
        <ele>1274.34</ele>
        <time>2022-06-19T06:48:28+00:00</time>
      </trkpt>
      <trkpt lat="41.058913" lon="-3.565278">
        <ele>1275.79</ele>
        <time>2022-06-19T06:48:29+00:00</time>
      </trkpt>
      <trkpt lat="41.058848" lon="-3.565342">
        <ele>1277.23</ele>
        <time>2022-06-19T06:48:30+00:00</time>
      </trkpt>
      <trkpt lat="41.058805" lon="-3.565342">
        <ele>1278.19</ele>
        <time>2022-06-19T06:48:31+00:00</time>
      </trkpt>
      <trkpt lat="41.058741" lon="-3.565321">
        <ele>1279.15</ele>
        <time>2022-06-19T06:48:32+00:00</time>
      </trkpt>
      <trkpt lat="41.058720" lon="-3.565300">
        <ele>1280.11</ele>
        <time>2022-06-19T06:48:33+00:00</time>
      </trkpt>
      <trkpt lat="41.058720" lon="-3.565235">
        <ele>1281.07</ele>
        <time>2022-06-19T06:48:34+00:00</time>
      </trkpt>
      <trkpt lat="41.058741" lon="-3.565128">
        <ele>1282.03</ele>
        <time>2022-06-19T06:48:35+00:00</time>
      </trkpt>
      <trkpt lat="41.058784" lon="-3.564978">
        <ele>1283.00</ele>
        <time>2022-06-19T06:48:36+00:00</time>
      </trkpt>
      <trkpt lat="41.058848" lon="-3.564870">
        <ele>1283.96</ele>
        <time>2022-06-19T06:48:37+00:00</time>
      </trkpt>
      <trkpt lat="41.058934" lon="-3.564763">
        <ele>1284.92</ele>
        <time>2022-06-19T06:48:38+00:00</time>
      </trkpt>
      <trkpt lat="41.059042" lon="-3.564656">
        <ele>1286.36</ele>
        <time>2022-06-19T06:48:39+00:00</time>
      </trkpt>
      <trkpt lat="41.059170" lon="-3.564549">
        <ele>1287.32</ele>
        <time>2022-06-19T06:48:40+00:00</time>
      </trkpt>
      <trkpt lat="41.059986" lon="-3.563883">
        <ele>1296.45</ele>
        <time>2022-06-19T06:48:46+00:00</time>
      </trkpt>
      <trkpt lat="41.060436" lon="-3.563583">
        <ele>1301.74</ele>
        <time>2022-06-19T06:48:52+00:00</time>
      </trkpt>
      <trkpt lat="41.060629" lon="-3.563476">
        <ele>1305.11</ele>
        <time>2022-06-19T06:49:01+00:00</time>
      </trkpt>
      <trkpt lat="41.060651" lon="-3.563454">
        <ele>1305.11</ele>
        <time>2022-06-19T06:49:02+00:00</time>
      </trkpt>
      <trkpt lat="41.060672" lon="-3.563454">
        <ele>1305.59</ele>
        <time>2022-06-19T06:49:03+00:00</time>
      </trkpt>
      <trkpt lat="41.060715" lon="-3.563647">
        <ele>1306.07</ele>
        <time>2022-06-19T06:49:08+00:00</time>
      </trkpt>
      <trkpt lat="41.060715" lon="-3.563626">
        <ele>1305.59</ele>
        <time>2022-06-19T06:49:25+00:00</time>
      </trkpt>
      <trkpt lat="41.061316" lon="-3.563046">
        <ele>1286.84</ele>
        <time>2022-06-19T07:01:49+00:00</time>
      </trkpt>
      <trkpt lat="41.062367" lon="-3.562446">
        <ele>1284.44</ele>
        <time>2022-06-19T07:01:58+00:00</time>
      </trkpt>
      <trkpt lat="41.062754" lon="-3.562145">
        <ele>1282.03</ele>
        <time>2022-06-19T07:02:01+00:00</time>
      </trkpt>
      <trkpt lat="41.062861" lon="-3.562038">
        <ele>1282.03</ele>
        <time>2022-06-19T07:02:02+00:00</time>
      </trkpt>
      <trkpt lat="41.063161" lon="-3.561587">
        <ele>1279.15</ele>
        <time>2022-06-19T07:02:05+00:00</time>
      </trkpt>
      <trkpt lat="41.063247" lon="-3.561394">
        <ele>1277.71</ele>
        <time>2022-06-19T07:02:06+00:00</time>
      </trkpt>
      <trkpt lat="41.063312" lon="-3.561158">
        <ele>1276.27</ele>
        <time>2022-06-19T07:02:07+00:00</time>
      </trkpt>
      <trkpt lat="41.063397" lon="-3.560922">
        <ele>1274.82</ele>
        <time>2022-06-19T07:02:08+00:00</time>
      </trkpt>
      <trkpt lat="41.063505" lon="-3.560665">
        <ele>1273.38</ele>
        <time>2022-06-19T07:02:09+00:00</time>
      </trkpt>
      <trkpt lat="41.064170" lon="-3.558433">
        <ele>1257.52</ele>
        <time>2022-06-19T07:02:18+00:00</time>
      </trkpt>
      <trkpt lat="41.064363" lon="-3.557489">
        <ele>1249.35</ele>
        <time>2022-06-19T07:02:23+00:00</time>
      </trkpt>
      <trkpt lat="41.064342" lon="-3.557360">
        <ele>1247.91</ele>
        <time>2022-06-19T07:02:24+00:00</time>
      </trkpt>
      <trkpt lat="41.064277" lon="-3.557231">
        <ele>1245.50</ele>
        <time>2022-06-19T07:02:25+00:00</time>
      </trkpt>
      <trkpt lat="41.064191" lon="-3.557146">
        <ele>1243.10</ele>
        <time>2022-06-19T07:02:26+00:00</time>
      </trkpt>
      <trkpt lat="41.064084" lon="-3.557103">
        <ele>1241.18</ele>
        <time>2022-06-19T07:02:27+00:00</time>
      </trkpt>
      <trkpt lat="41.063934" lon="-3.557081">
        <ele>1238.78</ele>
        <time>2022-06-19T07:02:28+00:00</time>
      </trkpt>
      <trkpt lat="41.063784" lon="-3.557103">
        <ele>1236.85</ele>
        <time>2022-06-19T07:02:29+00:00</time>
      </trkpt>
      <trkpt lat="41.063612" lon="-3.557103">
        <ele>1234.93</ele>
        <time>2022-06-19T07:02:30+00:00</time>
      </trkpt>
      <trkpt lat="41.062303" lon="-3.557167">
        <ele>1223.39</ele>
        <time>2022-06-19T07:02:37+00:00</time>
      </trkpt>
      <trkpt lat="41.062110" lon="-3.557124">
        <ele>1221.47</ele>
        <time>2022-06-19T07:02:38+00:00</time>
      </trkpt>
      <trkpt lat="41.061337" lon="-3.556845">
        <ele>1214.26</ele>
        <time>2022-06-19T07:02:43+00:00</time>
      </trkpt>
      <trkpt lat="41.061230" lon="-3.556759">
        <ele>1212.82</ele>
        <time>2022-06-19T07:02:44+00:00</time>
      </trkpt>
      <trkpt lat="41.061187" lon="-3.556652">
        <ele>1210.90</ele>
        <time>2022-06-19T07:02:45+00:00</time>
      </trkpt>
      <trkpt lat="41.061144" lon="-3.556480">
        <ele>1209.46</ele>
        <time>2022-06-19T07:02:46+00:00</time>
      </trkpt>
      <trkpt lat="41.061080" lon="-3.556309">
        <ele>1208.01</ele>
        <time>2022-06-19T07:02:47+00:00</time>
      </trkpt>
      <trkpt lat="41.061016" lon="-3.556137">
        <ele>1206.09</ele>
        <time>2022-06-19T07:02:48+00:00</time>
      </trkpt>
      <trkpt lat="41.061016" lon="-3.555987">
        <ele>1204.65</ele>
        <time>2022-06-19T07:02:49+00:00</time>
      </trkpt>
      <trkpt lat="41.061037" lon="-3.555794">
        <ele>1203.21</ele>
        <time>2022-06-19T07:02:50+00:00</time>
      </trkpt>
      <trkpt lat="41.061037" lon="-3.555579">
        <ele>1201.28</ele>
        <time>2022-06-19T07:02:51+00:00</time>
      </trkpt>
      <trkpt lat="41.061101" lon="-3.555408">
        <ele>1199.36</ele>
        <time>2022-06-19T07:02:52+00:00</time>
      </trkpt>
      <trkpt lat="41.061166" lon="-3.555214">
        <ele>1197.44</ele>
        <time>2022-06-19T07:02:53+00:00</time>
      </trkpt>
      <trkpt lat="41.061230" lon="-3.555021">
        <ele>1195.52</ele>
        <time>2022-06-19T07:02:54+00:00</time>
      </trkpt>
      <trkpt lat="41.061295" lon="-3.554850">
        <ele>1194.07</ele>
        <time>2022-06-19T07:02:55+00:00</time>
      </trkpt>
      <trkpt lat="41.061337" lon="-3.554721">
        <ele>1192.63</ele>
        <time>2022-06-19T07:02:56+00:00</time>
      </trkpt>
      <trkpt lat="41.061337" lon="-3.554614">
        <ele>1191.19</ele>
        <time>2022-06-19T07:02:57+00:00</time>
      </trkpt>
      <trkpt lat="41.061316" lon="-3.554442">
        <ele>1189.75</ele>
        <time>2022-06-19T07:02:58+00:00</time>
      </trkpt>
      <trkpt lat="41.061273" lon="-3.554313">
        <ele>1188.31</ele>
        <time>2022-06-19T07:02:59+00:00</time>
      </trkpt>
      <trkpt lat="41.061187" lon="-3.554184">
        <ele>1186.38</ele>
        <time>2022-06-19T07:03:00+00:00</time>
      </trkpt>
      <trkpt lat="41.061101" lon="-3.554056">
        <ele>1184.46</ele>
        <time>2022-06-19T07:03:01+00:00</time>
      </trkpt>
      <trkpt lat="41.061016" lon="-3.553927">
        <ele>1182.54</ele>
        <time>2022-06-19T07:03:02+00:00</time>
      </trkpt>
      <trkpt lat="41.060951" lon="-3.553820">
        <ele>1180.62</ele>
        <time>2022-06-19T07:03:03+00:00</time>
      </trkpt>
      <trkpt lat="41.060908" lon="-3.553691">
        <ele>1178.69</ele>
        <time>2022-06-19T07:03:04+00:00</time>
      </trkpt>
      <trkpt lat="41.060930" lon="-3.553584">
        <ele>1177.25</ele>
        <time>2022-06-19T07:03:05+00:00</time>
      </trkpt>
      <trkpt lat="41.060951" lon="-3.553455">
        <ele>1175.33</ele>
        <time>2022-06-19T07:03:06+00:00</time>
      </trkpt>
      <trkpt lat="41.061016" lon="-3.553326">
        <ele>1173.89</ele>
        <time>2022-06-19T07:03:07+00:00</time>
      </trkpt>
      <trkpt lat="41.061123" lon="-3.553176">
        <ele>1171.96</ele>
        <time>2022-06-19T07:03:08+00:00</time>
      </trkpt>
      <trkpt lat="41.061252" lon="-3.552811">
        <ele>1168.12</ele>
        <time>2022-06-19T07:03:10+00:00</time>
      </trkpt>
      <trkpt lat="41.061488" lon="-3.551824">
        <ele>1156.58</ele>
        <time>2022-06-19T07:03:15+00:00</time>
      </trkpt>
      <trkpt lat="41.061488" lon="-3.551610">
        <ele>1154.66</ele>
        <time>2022-06-19T07:03:16+00:00</time>
      </trkpt>
      <trkpt lat="41.061488" lon="-3.551395">
        <ele>1153.22</ele>
        <time>2022-06-19T07:03:17+00:00</time>
      </trkpt>
      <trkpt lat="41.061445" lon="-3.550816">
        <ele>1148.89</ele>
        <time>2022-06-19T07:03:20+00:00</time>
      </trkpt>
      <trkpt lat="41.061423" lon="-3.550665">
        <ele>1147.45</ele>
        <time>2022-06-19T07:03:21+00:00</time>
      </trkpt>
      <trkpt lat="41.061380" lon="-3.550494">
        <ele>1146.01</ele>
        <time>2022-06-19T07:03:22+00:00</time>
      </trkpt>
      <trkpt lat="41.061337" lon="-3.550236">
        <ele>1142.16</ele>
        <time>2022-06-19T07:03:24+00:00</time>
      </trkpt>
      <trkpt lat="41.061359" lon="-3.550129">
        <ele>1140.72</ele>
        <time>2022-06-19T07:03:25+00:00</time>
      </trkpt>
      <trkpt lat="41.061402" lon="-3.550043">
        <ele>1139.28</ele>
        <time>2022-06-19T07:03:26+00:00</time>
      </trkpt>
      <trkpt lat="41.061488" lon="-3.549936">
        <ele>1137.84</ele>
        <time>2022-06-19T07:03:27+00:00</time>
      </trkpt>
      <trkpt lat="41.061574" lon="-3.549829">
        <ele>1136.88</ele>
        <time>2022-06-19T07:03:28+00:00</time>
      </trkpt>
      <trkpt lat="41.061702" lon="-3.549764">
        <ele>1135.91</ele>
        <time>2022-06-19T07:03:29+00:00</time>
      </trkpt>
      <trkpt lat="41.061852" lon="-3.549614">
        <ele>1134.47</ele>
        <time>2022-06-19T07:03:31+00:00</time>
      </trkpt>
      <trkpt lat="41.061895" lon="-3.549550">
        <ele>1133.51</ele>
        <time>2022-06-19T07:03:32+00:00</time>
      </trkpt>
      <trkpt lat="41.061895" lon="-3.549442">
        <ele>1133.03</ele>
        <time>2022-06-19T07:03:33+00:00</time>
      </trkpt>
      <trkpt lat="41.061874" lon="-3.549314">
        <ele>1132.55</ele>
        <time>2022-06-19T07:03:34+00:00</time>
      </trkpt>
      <trkpt lat="41.061852" lon="-3.549185">
        <ele>1132.55</ele>
        <time>2022-06-19T07:03:35+00:00</time>
      </trkpt>
      <trkpt lat="41.061831" lon="-3.549035">
        <ele>1132.07</ele>
        <time>2022-06-19T07:03:36+00:00</time>
      </trkpt>
      <trkpt lat="41.061810" lon="-3.548906">
        <ele>1132.55</ele>
        <time>2022-06-19T07:03:37+00:00</time>
      </trkpt>
      <trkpt lat="41.061831" lon="-3.548756">
        <ele>1133.03</ele>
        <time>2022-06-19T07:03:38+00:00</time>
      </trkpt>
      <trkpt lat="41.061852" lon="-3.548627">
        <ele>1133.51</ele>
        <time>2022-06-19T07:03:39+00:00</time>
      </trkpt>
      <trkpt lat="41.061874" lon="-3.548498">
        <ele>1133.99</ele>
        <time>2022-06-19T07:03:40+00:00</time>
      </trkpt>
      <trkpt lat="41.061938" lon="-3.548241">
        <ele>1135.91</ele>
        <time>2022-06-19T07:03:42+00:00</time>
      </trkpt>
      <trkpt lat="41.061960" lon="-3.548112">
        <ele>1136.40</ele>
        <time>2022-06-19T07:03:43+00:00</time>
      </trkpt>
      <trkpt lat="41.061938" lon="-3.547983">
        <ele>1137.36</ele>
        <time>2022-06-19T07:03:44+00:00</time>
      </trkpt>
      <trkpt lat="41.061917" lon="-3.547876">
        <ele>1137.84</ele>
        <time>2022-06-19T07:03:45+00:00</time>
      </trkpt>
      <trkpt lat="41.061874" lon="-3.547790">
        <ele>1137.84</ele>
        <time>2022-06-19T07:03:46+00:00</time>
      </trkpt>
      <trkpt lat="41.061831" lon="-3.547661">
        <ele>1138.32</ele>
        <time>2022-06-19T07:03:47+00:00</time>
      </trkpt>
      <trkpt lat="41.061702" lon="-3.547382">
        <ele>1139.28</ele>
        <time>2022-06-19T07:03:50+00:00</time>
      </trkpt>
      <trkpt lat="41.061638" lon="-3.547297">
        <ele>1139.28</ele>
        <time>2022-06-19T07:03:51+00:00</time>
      </trkpt>
      <trkpt lat="41.061574" lon="-3.547211">
        <ele>1139.76</ele>
        <time>2022-06-19T07:03:52+00:00</time>
      </trkpt>
      <trkpt lat="41.061531" lon="-3.547125">
        <ele>1139.76</ele>
        <time>2022-06-19T07:03:53+00:00</time>
      </trkpt>
      <trkpt lat="41.061445" lon="-3.547018">
        <ele>1139.76</ele>
        <time>2022-06-19T07:03:54+00:00</time>
      </trkpt>
      <trkpt lat="41.061359" lon="-3.546953">
        <ele>1139.28</ele>
        <time>2022-06-19T07:03:55+00:00</time>
      </trkpt>
      <trkpt lat="41.061037" lon="-3.546674">
        <ele>1139.28</ele>
        <time>2022-06-19T07:03:59+00:00</time>
      </trkpt>
      <trkpt lat="41.060951" lon="-3.546588">
        <ele>1138.80</ele>
        <time>2022-06-19T07:04:00+00:00</time>
      </trkpt>
      <trkpt lat="41.060436" lon="-3.546031">
        <ele>1138.80</ele>
        <time>2022-06-19T07:04:09+00:00</time>
      </trkpt>
      <trkpt lat="41.060350" lon="-3.545988">
        <ele>1138.80</ele>
        <time>2022-06-19T07:04:10+00:00</time>
      </trkpt>
      <trkpt lat="41.060286" lon="-3.545966">
        <ele>1138.80</ele>
        <time>2022-06-19T07:04:11+00:00</time>
      </trkpt>
      <trkpt lat="41.060243" lon="-3.545923">
        <ele>1138.80</ele>
        <time>2022-06-19T07:04:12+00:00</time>
      </trkpt>
      <trkpt lat="41.060200" lon="-3.545880">
        <ele>1138.80</ele>
        <time>2022-06-19T07:04:13+00:00</time>
      </trkpt>
      <trkpt lat="41.060179" lon="-3.545816">
        <ele>1138.32</ele>
        <time>2022-06-19T07:04:14+00:00</time>
      </trkpt>
      <trkpt lat="41.060157" lon="-3.545730">
        <ele>1138.32</ele>
        <time>2022-06-19T07:04:15+00:00</time>
      </trkpt>
      <trkpt lat="41.060136" lon="-3.545666">
        <ele>1138.32</ele>
        <time>2022-06-19T07:04:16+00:00</time>
      </trkpt>
      <trkpt lat="41.060114" lon="-3.545580">
        <ele>1137.84</ele>
        <time>2022-06-19T07:04:17+00:00</time>
      </trkpt>
      <trkpt lat="41.060093" lon="-3.545494">
        <ele>1137.84</ele>
        <time>2022-06-19T07:04:18+00:00</time>
      </trkpt>
      <trkpt lat="41.060050" lon="-3.545430">
        <ele>1137.36</ele>
        <time>2022-06-19T07:04:19+00:00</time>
      </trkpt>
      <trkpt lat="41.060007" lon="-3.545344">
        <ele>1137.36</ele>
        <time>2022-06-19T07:04:20+00:00</time>
      </trkpt>
      <trkpt lat="41.059878" lon="-3.545108">
        <ele>1134.95</ele>
        <time>2022-06-19T07:04:23+00:00</time>
      </trkpt>
      <trkpt lat="41.059814" lon="-3.545065">
        <ele>1133.99</ele>
        <time>2022-06-19T07:04:24+00:00</time>
      </trkpt>
      <trkpt lat="41.059750" lon="-3.545001">
        <ele>1133.51</ele>
        <time>2022-06-19T07:04:25+00:00</time>
      </trkpt>
      <trkpt lat="41.059685" lon="-3.544958">
        <ele>1132.55</ele>
        <time>2022-06-19T07:04:26+00:00</time>
      </trkpt>
      <trkpt lat="41.059621" lon="-3.544936">
        <ele>1131.59</ele>
        <time>2022-06-19T07:04:27+00:00</time>
      </trkpt>
      <trkpt lat="41.059556" lon="-3.544915">
        <ele>1131.11</ele>
        <time>2022-06-19T07:04:28+00:00</time>
      </trkpt>
      <trkpt lat="41.059492" lon="-3.544872">
        <ele>1130.15</ele>
        <time>2022-06-19T07:04:29+00:00</time>
      </trkpt>
      <trkpt lat="41.059449" lon="-3.544829">
        <ele>1129.67</ele>
        <time>2022-06-19T07:04:30+00:00</time>
      </trkpt>
      <trkpt lat="41.059428" lon="-3.544786">
        <ele>1129.19</ele>
        <time>2022-06-19T07:04:31+00:00</time>
      </trkpt>
      <trkpt lat="41.059406" lon="-3.544722">
        <ele>1128.22</ele>
        <time>2022-06-19T07:04:32+00:00</time>
      </trkpt>
      <trkpt lat="41.059406" lon="-3.544700">
        <ele>1127.26</ele>
        <time>2022-06-19T07:04:33+00:00</time>
      </trkpt>
      <trkpt lat="41.059449" lon="-3.544657">
        <ele>1126.78</ele>
        <time>2022-06-19T07:04:34+00:00</time>
      </trkpt>
      <trkpt lat="41.059514" lon="-3.544593">
        <ele>1125.82</ele>
        <time>2022-06-19T07:04:35+00:00</time>
      </trkpt>
      <trkpt lat="41.059578" lon="-3.544550">
        <ele>1124.38</ele>
        <time>2022-06-19T07:04:36+00:00</time>
      </trkpt>
      <trkpt lat="41.059664" lon="-3.544486">
        <ele>1123.42</ele>
        <time>2022-06-19T07:04:37+00:00</time>
      </trkpt>
      <trkpt lat="41.060007" lon="-3.544335">
        <ele>1120.05</ele>
        <time>2022-06-19T07:04:40+00:00</time>
      </trkpt>
      <trkpt lat="41.060114" lon="-3.544228">
        <ele>1119.57</ele>
        <time>2022-06-19T07:04:41+00:00</time>
      </trkpt>
      <trkpt lat="41.060372" lon="-3.543928">
        <ele>1116.69</ele>
        <time>2022-06-19T07:04:44+00:00</time>
      </trkpt>
      <trkpt lat="41.060415" lon="-3.543799">
        <ele>1115.73</ele>
        <time>2022-06-19T07:04:45+00:00</time>
      </trkpt>
      <trkpt lat="41.060436" lon="-3.543670">
        <ele>1114.77</ele>
        <time>2022-06-19T07:04:46+00:00</time>
      </trkpt>
      <trkpt lat="41.060479" lon="-3.543520">
        <ele>1113.80</ele>
        <time>2022-06-19T07:04:47+00:00</time>
      </trkpt>
      <trkpt lat="41.060501" lon="-3.543348">
        <ele>1112.84</ele>
        <time>2022-06-19T07:04:48+00:00</time>
      </trkpt>
      <trkpt lat="41.060544" lon="-3.543198">
        <ele>1111.88</ele>
        <time>2022-06-19T07:04:49+00:00</time>
      </trkpt>
      <trkpt lat="41.060586" lon="-3.543048">
        <ele>1110.44</ele>
        <time>2022-06-19T07:04:50+00:00</time>
      </trkpt>
      <trkpt lat="41.060672" lon="-3.542941">
        <ele>1109.48</ele>
        <time>2022-06-19T07:04:51+00:00</time>
      </trkpt>
      <trkpt lat="41.060758" lon="-3.542833">
        <ele>1108.04</ele>
        <time>2022-06-19T07:04:52+00:00</time>
      </trkpt>
      <trkpt lat="41.060865" lon="-3.542769">
        <ele>1107.08</ele>
        <time>2022-06-19T07:04:53+00:00</time>
      </trkpt>
      <trkpt lat="41.060973" lon="-3.542683">
        <ele>1106.59</ele>
        <time>2022-06-19T07:04:54+00:00</time>
      </trkpt>
      <trkpt lat="41.061037" lon="-3.542597">
        <ele>1105.63</ele>
        <time>2022-06-19T07:04:55+00:00</time>
      </trkpt>
      <trkpt lat="41.061059" lon="-3.542490">
        <ele>1104.67</ele>
        <time>2022-06-19T07:04:56+00:00</time>
      </trkpt>
      <trkpt lat="41.061080" lon="-3.542340">
        <ele>1104.19</ele>
        <time>2022-06-19T07:04:57+00:00</time>
      </trkpt>
      <trkpt lat="41.061101" lon="-3.542190">
        <ele>1103.71</ele>
        <time>2022-06-19T07:04:58+00:00</time>
      </trkpt>
      <trkpt lat="41.061080" lon="-3.542061">
        <ele>1103.23</ele>
        <time>2022-06-19T07:04:59+00:00</time>
      </trkpt>
      <trkpt lat="41.061016" lon="-3.541954">
        <ele>1102.75</ele>
        <time>2022-06-19T07:05:00+00:00</time>
      </trkpt>
      <trkpt lat="41.060908" lon="-3.541868">
        <ele>1102.27</ele>
        <time>2022-06-19T07:05:01+00:00</time>
      </trkpt>
      <trkpt lat="41.060801" lon="-3.541825">
        <ele>1102.27</ele>
        <time>2022-06-19T07:05:02+00:00</time>
      </trkpt>
      <trkpt lat="41.060651" lon="-3.541803">
        <ele>1102.27</ele>
        <time>2022-06-19T07:05:03+00:00</time>
      </trkpt>
      <trkpt lat="41.060522" lon="-3.541803">
        <ele>1102.27</ele>
        <time>2022-06-19T07:05:04+00:00</time>
      </trkpt>
      <trkpt lat="41.060114" lon="-3.541825">
        <ele>1104.19</ele>
        <time>2022-06-19T07:05:07+00:00</time>
      </trkpt>
      <trkpt lat="41.060007" lon="-3.541889">
        <ele>1104.67</ele>
        <time>2022-06-19T07:05:08+00:00</time>
      </trkpt>
      <trkpt lat="41.059878" lon="-3.541975">
        <ele>1106.11</ele>
        <time>2022-06-19T07:05:09+00:00</time>
      </trkpt>
      <trkpt lat="41.059621" lon="-3.542104">
        <ele>1109.00</ele>
        <time>2022-06-19T07:05:11+00:00</time>
      </trkpt>
      <trkpt lat="41.059492" lon="-3.542147">
        <ele>1110.44</ele>
        <time>2022-06-19T07:05:12+00:00</time>
      </trkpt>
      <trkpt lat="41.059363" lon="-3.542147">
        <ele>1111.88</ele>
        <time>2022-06-19T07:05:13+00:00</time>
      </trkpt>
      <trkpt lat="41.059213" lon="-3.542147">
        <ele>1112.84</ele>
        <time>2022-06-19T07:05:14+00:00</time>
      </trkpt>
      <trkpt lat="41.059063" lon="-3.542104">
        <ele>1114.29</ele>
        <time>2022-06-19T07:05:15+00:00</time>
      </trkpt>
      <trkpt lat="41.058913" lon="-3.542061">
        <ele>1115.73</ele>
        <time>2022-06-19T07:05:16+00:00</time>
      </trkpt>
      <trkpt lat="41.057153" lon="-3.541460">
        <ele>1125.82</ele>
        <time>2022-06-19T07:05:26+00:00</time>
      </trkpt>
      <trkpt lat="41.056874" lon="-3.541353">
        <ele>1127.74</ele>
        <time>2022-06-19T07:05:28+00:00</time>
      </trkpt>
      <trkpt lat="41.056746" lon="-3.541267">
        <ele>1128.22</ele>
        <time>2022-06-19T07:05:29+00:00</time>
      </trkpt>
      <trkpt lat="41.056638" lon="-3.541160">
        <ele>1129.19</ele>
        <time>2022-06-19T07:05:30+00:00</time>
      </trkpt>
      <trkpt lat="41.056531" lon="-3.541009">
        <ele>1129.67</ele>
        <time>2022-06-19T07:05:31+00:00</time>
      </trkpt>
      <trkpt lat="41.056424" lon="-3.540881">
        <ele>1130.15</ele>
        <time>2022-06-19T07:05:32+00:00</time>
      </trkpt>
      <trkpt lat="41.056359" lon="-3.540731">
        <ele>1130.15</ele>
        <time>2022-06-19T07:05:33+00:00</time>
      </trkpt>
      <trkpt lat="41.056316" lon="-3.540537">
        <ele>1130.15</ele>
        <time>2022-06-19T07:05:34+00:00</time>
      </trkpt>
      <trkpt lat="41.056273" lon="-3.540323">
        <ele>1129.67</ele>
        <time>2022-06-19T07:05:35+00:00</time>
      </trkpt>
      <trkpt lat="41.056273" lon="-3.540108">
        <ele>1128.71</ele>
        <time>2022-06-19T07:05:36+00:00</time>
      </trkpt>
      <trkpt lat="41.056295" lon="-3.539894">
        <ele>1127.74</ele>
        <time>2022-06-19T07:05:37+00:00</time>
      </trkpt>
      <trkpt lat="41.056338" lon="-3.539679">
        <ele>1126.78</ele>
        <time>2022-06-19T07:05:38+00:00</time>
      </trkpt>
      <trkpt lat="41.056402" lon="-3.539443">
        <ele>1125.82</ele>
        <time>2022-06-19T07:05:39+00:00</time>
      </trkpt>
      <trkpt lat="41.057003" lon="-3.537490">
        <ele>1114.77</ele>
        <time>2022-06-19T07:05:48+00:00</time>
      </trkpt>
      <trkpt lat="41.057389" lon="-3.536739">
        <ele>1109.96</ele>
        <time>2022-06-19T07:05:53+00:00</time>
      </trkpt>
      <trkpt lat="41.057411" lon="-3.536632">
        <ele>1109.00</ele>
        <time>2022-06-19T07:05:54+00:00</time>
      </trkpt>
      <trkpt lat="41.057368" lon="-3.536482">
        <ele>1108.04</ele>
        <time>2022-06-19T07:05:55+00:00</time>
      </trkpt>
      <trkpt lat="41.057346" lon="-3.536310">
        <ele>1107.56</ele>
        <time>2022-06-19T07:05:56+00:00</time>
      </trkpt>
      <trkpt lat="41.057282" lon="-3.536139">
        <ele>1106.59</ele>
        <time>2022-06-19T07:05:57+00:00</time>
      </trkpt>
      <trkpt lat="41.057175" lon="-3.535667">
        <ele>1106.59</ele>
        <time>2022-06-19T07:06:00+00:00</time>
      </trkpt>
      <trkpt lat="41.057153" lon="-3.535516">
        <ele>1106.59</ele>
        <time>2022-06-19T07:06:01+00:00</time>
      </trkpt>
      <trkpt lat="41.057175" lon="-3.535323">
        <ele>1106.59</ele>
        <time>2022-06-19T07:06:02+00:00</time>
      </trkpt>
      <trkpt lat="41.057239" lon="-3.535194">
        <ele>1106.59</ele>
        <time>2022-06-19T07:06:03+00:00</time>
      </trkpt>
      <trkpt lat="41.057303" lon="-3.535044">
        <ele>1107.08</ele>
        <time>2022-06-19T07:06:04+00:00</time>
      </trkpt>
      <trkpt lat="41.057389" lon="-3.534915">
        <ele>1107.56</ele>
        <time>2022-06-19T07:06:05+00:00</time>
      </trkpt>
      <trkpt lat="41.057497" lon="-3.534830">
        <ele>1108.04</ele>
        <time>2022-06-19T07:06:06+00:00</time>
      </trkpt>
      <trkpt lat="41.057582" lon="-3.534722">
        <ele>1108.52</ele>
        <time>2022-06-19T07:06:07+00:00</time>
      </trkpt>
      <trkpt lat="41.057711" lon="-3.534658">
        <ele>1108.52</ele>
        <time>2022-06-19T07:06:08+00:00</time>
      </trkpt>
      <trkpt lat="41.057818" lon="-3.534615">
        <ele>1108.52</ele>
        <time>2022-06-19T07:06:09+00:00</time>
      </trkpt>
      <trkpt lat="41.057904" lon="-3.534551">
        <ele>1109.00</ele>
        <time>2022-06-19T07:06:10+00:00</time>
      </trkpt>
      <trkpt lat="41.057969" lon="-3.534443">
        <ele>1109.48</ele>
        <time>2022-06-19T07:06:11+00:00</time>
      </trkpt>
      <trkpt lat="41.058012" lon="-3.534336">
        <ele>1109.96</ele>
        <time>2022-06-19T07:06:12+00:00</time>
      </trkpt>
      <trkpt lat="41.057990" lon="-3.534250">
        <ele>1109.96</ele>
        <time>2022-06-19T07:06:13+00:00</time>
      </trkpt>
      <trkpt lat="41.057990" lon="-3.534186">
        <ele>1109.96</ele>
        <time>2022-06-19T07:06:14+00:00</time>
      </trkpt>
      <trkpt lat="41.057969" lon="-3.534122">
        <ele>1109.96</ele>
        <time>2022-06-19T07:06:15+00:00</time>
      </trkpt>
      <trkpt lat="41.057947" lon="-3.534100">
        <ele>1109.96</ele>
        <time>2022-06-19T07:06:16+00:00</time>
      </trkpt>
      <trkpt lat="41.057947" lon="-3.534079">
        <ele>1109.48</ele>
        <time>2022-06-19T07:06:17+00:00</time>
      </trkpt>
      <trkpt lat="41.057883" lon="-3.533971">
        <ele>1109.00</ele>
        <time>2022-06-19T07:06:19+00:00</time>
      </trkpt>
      <trkpt lat="41.057883" lon="-3.533864">
        <ele>1109.00</ele>
        <time>2022-06-19T07:06:20+00:00</time>
      </trkpt>
      <trkpt lat="41.057990" lon="-3.532984">
        <ele>1112.84</ele>
        <time>2022-06-19T07:06:26+00:00</time>
      </trkpt>
      <trkpt lat="41.058183" lon="-3.532019">
        <ele>1118.61</ele>
        <time>2022-06-19T07:06:33+00:00</time>
      </trkpt>
      <trkpt lat="41.058226" lon="-3.531933">
        <ele>1119.09</ele>
        <time>2022-06-19T07:06:34+00:00</time>
      </trkpt>
      <trkpt lat="41.058269" lon="-3.531826">
        <ele>1119.57</ele>
        <time>2022-06-19T07:06:35+00:00</time>
      </trkpt>
      <trkpt lat="41.058333" lon="-3.531718">
        <ele>1120.53</ele>
        <time>2022-06-19T07:06:36+00:00</time>
      </trkpt>
      <trkpt lat="41.058398" lon="-3.531632">
        <ele>1121.01</ele>
        <time>2022-06-19T07:06:37+00:00</time>
      </trkpt>
      <trkpt lat="41.058462" lon="-3.531547">
        <ele>1121.98</ele>
        <time>2022-06-19T07:06:38+00:00</time>
      </trkpt>
      <trkpt lat="41.058505" lon="-3.531439">
        <ele>1122.94</ele>
        <time>2022-06-19T07:06:39+00:00</time>
      </trkpt>
      <trkpt lat="41.058548" lon="-3.531332">
        <ele>1123.42</ele>
        <time>2022-06-19T07:06:40+00:00</time>
      </trkpt>
      <trkpt lat="41.058612" lon="-3.531225">
        <ele>1124.38</ele>
        <time>2022-06-19T07:06:41+00:00</time>
      </trkpt>
      <trkpt lat="41.058655" lon="-3.531096">
        <ele>1125.34</ele>
        <time>2022-06-19T07:06:42+00:00</time>
      </trkpt>
      <trkpt lat="41.058677" lon="-3.530989">
        <ele>1125.82</ele>
        <time>2022-06-19T07:06:43+00:00</time>
      </trkpt>
      <trkpt lat="41.058720" lon="-3.530860">
        <ele>1126.78</ele>
        <time>2022-06-19T07:06:44+00:00</time>
      </trkpt>
      <trkpt lat="41.058870" lon="-3.530452">
        <ele>1130.15</ele>
        <time>2022-06-19T07:06:48+00:00</time>
      </trkpt>
      <trkpt lat="41.058934" lon="-3.530388">
        <ele>1130.63</ele>
        <time>2022-06-19T07:06:49+00:00</time>
      </trkpt>
      <trkpt lat="41.058999" lon="-3.530324">
        <ele>1131.59</ele>
        <time>2022-06-19T07:06:50+00:00</time>
      </trkpt>
      <trkpt lat="41.059063" lon="-3.530302">
        <ele>1132.55</ele>
        <time>2022-06-19T07:06:51+00:00</time>
      </trkpt>
      <trkpt lat="41.059127" lon="-3.530281">
        <ele>1133.51</ele>
        <time>2022-06-19T07:06:52+00:00</time>
      </trkpt>
      <trkpt lat="41.059192" lon="-3.530281">
        <ele>1133.99</ele>
        <time>2022-06-19T07:06:53+00:00</time>
      </trkpt>
      <trkpt lat="41.059278" lon="-3.530281">
        <ele>1134.95</ele>
        <time>2022-06-19T07:06:54+00:00</time>
      </trkpt>
      <trkpt lat="41.059320" lon="-3.530238">
        <ele>1135.43</ele>
        <time>2022-06-19T07:06:55+00:00</time>
      </trkpt>
      <trkpt lat="41.059363" lon="-3.530195">
        <ele>1136.40</ele>
        <time>2022-06-19T07:06:56+00:00</time>
      </trkpt>
      <trkpt lat="41.059363" lon="-3.530152">
        <ele>1137.36</ele>
        <time>2022-06-19T07:06:57+00:00</time>
      </trkpt>
      <trkpt lat="41.059385" lon="-3.530088">
        <ele>1138.32</ele>
        <time>2022-06-19T07:06:58+00:00</time>
      </trkpt>
      <trkpt lat="41.059406" lon="-3.530023">
        <ele>1138.80</ele>
        <time>2022-06-19T07:06:59+00:00</time>
      </trkpt>
      <trkpt lat="41.059449" lon="-3.529937">
        <ele>1139.28</ele>
        <time>2022-06-19T07:07:00+00:00</time>
      </trkpt>
      <trkpt lat="41.059492" lon="-3.529809">
        <ele>1141.20</ele>
        <time>2022-06-19T07:07:02+00:00</time>
      </trkpt>
      <trkpt lat="41.059514" lon="-3.529744">
        <ele>1142.64</ele>
        <time>2022-06-19T07:07:03+00:00</time>
      </trkpt>
      <trkpt lat="41.059556" lon="-3.529680">
        <ele>1143.12</ele>
        <time>2022-06-19T07:07:04+00:00</time>
      </trkpt>
      <trkpt lat="41.059642" lon="-3.529594">
        <ele>1143.61</ele>
        <time>2022-06-19T07:07:05+00:00</time>
      </trkpt>
      <trkpt lat="41.059707" lon="-3.529508">
        <ele>1143.61</ele>
        <time>2022-06-19T07:07:06+00:00</time>
      </trkpt>
      <trkpt lat="41.060050" lon="-3.529079">
        <ele>1145.53</ele>
        <time>2022-06-19T07:07:11+00:00</time>
      </trkpt>
      <trkpt lat="41.060136" lon="-3.528886">
        <ele>1145.05</ele>
        <time>2022-06-19T07:07:13+00:00</time>
      </trkpt>
      <trkpt lat="41.060372" lon="-3.528371">
        <ele>1144.09</ele>
        <time>2022-06-19T07:07:18+00:00</time>
      </trkpt>
      <trkpt lat="41.060415" lon="-3.528264">
        <ele>1143.61</ele>
        <time>2022-06-19T07:07:19+00:00</time>
      </trkpt>
      <trkpt lat="41.060436" lon="-3.528135">
        <ele>1143.12</ele>
        <time>2022-06-19T07:07:20+00:00</time>
      </trkpt>
      <trkpt lat="41.060436" lon="-3.528006">
        <ele>1142.16</ele>
        <time>2022-06-19T07:07:21+00:00</time>
      </trkpt>
      <trkpt lat="41.060458" lon="-3.527856">
        <ele>1141.20</ele>
        <time>2022-06-19T07:07:22+00:00</time>
      </trkpt>
      <trkpt lat="41.060458" lon="-3.527706">
        <ele>1140.24</ele>
        <time>2022-06-19T07:07:23+00:00</time>
      </trkpt>
      <trkpt lat="41.060458" lon="-3.527556">
        <ele>1139.28</ele>
        <time>2022-06-19T07:07:24+00:00</time>
      </trkpt>
      <trkpt lat="41.060372" lon="-3.526483">
        <ele>1136.88</ele>
        <time>2022-06-19T07:07:31+00:00</time>
      </trkpt>
      <trkpt lat="41.060286" lon="-3.525989">
        <ele>1136.40</ele>
        <time>2022-06-19T07:07:35+00:00</time>
      </trkpt>
      <trkpt lat="41.060286" lon="-3.525882">
        <ele>1135.91</ele>
        <time>2022-06-19T07:07:36+00:00</time>
      </trkpt>
      <trkpt lat="41.060329" lon="-3.525796">
        <ele>1135.43</ele>
        <time>2022-06-19T07:07:37+00:00</time>
      </trkpt>
      <trkpt lat="41.060415" lon="-3.525710">
        <ele>1134.47</ele>
        <time>2022-06-19T07:07:38+00:00</time>
      </trkpt>
      <trkpt lat="41.060522" lon="-3.525646">
        <ele>1133.51</ele>
        <time>2022-06-19T07:07:39+00:00</time>
      </trkpt>
      <trkpt lat="41.060629" lon="-3.525581">
        <ele>1133.03</ele>
        <time>2022-06-19T07:07:40+00:00</time>
      </trkpt>
      <trkpt lat="41.060758" lon="-3.525496">
        <ele>1131.59</ele>
        <time>2022-06-19T07:07:41+00:00</time>
      </trkpt>
      <trkpt lat="41.061810" lon="-3.524852">
        <ele>1125.34</ele>
        <time>2022-06-19T07:07:49+00:00</time>
      </trkpt>
      <trkpt lat="41.061874" lon="-3.524723">
        <ele>1125.34</ele>
        <time>2022-06-19T07:07:50+00:00</time>
      </trkpt>
      <trkpt lat="41.061960" lon="-3.524573">
        <ele>1125.82</ele>
        <time>2022-06-19T07:07:51+00:00</time>
      </trkpt>
      <trkpt lat="41.062088" lon="-3.524208">
        <ele>1125.82</ele>
        <time>2022-06-19T07:07:53+00:00</time>
      </trkpt>
      <trkpt lat="41.062153" lon="-3.524015">
        <ele>1126.30</ele>
        <time>2022-06-19T07:07:54+00:00</time>
      </trkpt>
      <trkpt lat="41.062260" lon="-3.523843">
        <ele>1126.78</ele>
        <time>2022-06-19T07:07:55+00:00</time>
      </trkpt>
      <trkpt lat="41.062582" lon="-3.523436">
        <ele>1128.22</ele>
        <time>2022-06-19T07:07:58+00:00</time>
      </trkpt>
      <trkpt lat="41.062732" lon="-3.523371">
        <ele>1128.22</ele>
        <time>2022-06-19T07:07:59+00:00</time>
      </trkpt>
      <trkpt lat="41.062861" lon="-3.523307">
        <ele>1127.74</ele>
        <time>2022-06-19T07:08:00+00:00</time>
      </trkpt>
      <trkpt lat="41.063011" lon="-3.523243">
        <ele>1127.74</ele>
        <time>2022-06-19T07:08:01+00:00</time>
      </trkpt>
      <trkpt lat="41.063140" lon="-3.523157">
        <ele>1127.26</ele>
        <time>2022-06-19T07:08:02+00:00</time>
      </trkpt>
      <trkpt lat="41.063247" lon="-3.523006">
        <ele>1127.26</ele>
        <time>2022-06-19T07:08:03+00:00</time>
      </trkpt>
      <trkpt lat="41.063333" lon="-3.522878">
        <ele>1126.78</ele>
        <time>2022-06-19T07:08:04+00:00</time>
      </trkpt>
      <trkpt lat="41.063376" lon="-3.522685">
        <ele>1126.30</ele>
        <time>2022-06-19T07:08:05+00:00</time>
      </trkpt>
      <trkpt lat="41.063397" lon="-3.522513">
        <ele>1125.82</ele>
        <time>2022-06-19T07:08:06+00:00</time>
      </trkpt>
      <trkpt lat="41.063419" lon="-3.522341">
        <ele>1125.82</ele>
        <time>2022-06-19T07:08:07+00:00</time>
      </trkpt>
      <trkpt lat="41.063440" lon="-3.522170">
        <ele>1125.34</ele>
        <time>2022-06-19T07:08:08+00:00</time>
      </trkpt>
      <trkpt lat="41.063483" lon="-3.521698">
        <ele>1125.34</ele>
        <time>2022-06-19T07:08:11+00:00</time>
      </trkpt>
      <trkpt lat="41.063483" lon="-3.521569">
        <ele>1125.34</ele>
        <time>2022-06-19T07:08:12+00:00</time>
      </trkpt>
      <trkpt lat="41.063440" lon="-3.521440">
        <ele>1125.34</ele>
        <time>2022-06-19T07:08:13+00:00</time>
      </trkpt>
      <trkpt lat="41.063354" lon="-3.521311">
        <ele>1124.86</ele>
        <time>2022-06-19T07:08:14+00:00</time>
      </trkpt>
      <trkpt lat="41.063247" lon="-3.521183">
        <ele>1125.34</ele>
        <time>2022-06-19T07:08:15+00:00</time>
      </trkpt>
      <trkpt lat="41.063140" lon="-3.521097">
        <ele>1125.34</ele>
        <time>2022-06-19T07:08:16+00:00</time>
      </trkpt>
      <trkpt lat="41.063033" lon="-3.521032">
        <ele>1125.82</ele>
        <time>2022-06-19T07:08:17+00:00</time>
      </trkpt>
      <trkpt lat="41.062925" lon="-3.520947">
        <ele>1125.82</ele>
        <time>2022-06-19T07:08:18+00:00</time>
      </trkpt>
      <trkpt lat="41.062625" lon="-3.520668">
        <ele>1126.30</ele>
        <time>2022-06-19T07:08:21+00:00</time>
      </trkpt>
      <trkpt lat="41.062561" lon="-3.520539">
        <ele>1126.78</ele>
        <time>2022-06-19T07:08:22+00:00</time>
      </trkpt>
      <trkpt lat="41.062496" lon="-3.520389">
        <ele>1126.78</ele>
        <time>2022-06-19T07:08:23+00:00</time>
      </trkpt>
      <trkpt lat="41.062453" lon="-3.520217">
        <ele>1127.26</ele>
        <time>2022-06-19T07:08:24+00:00</time>
      </trkpt>
      <trkpt lat="41.062453" lon="-3.520024">
        <ele>1127.74</ele>
        <time>2022-06-19T07:08:25+00:00</time>
      </trkpt>
      <trkpt lat="41.062475" lon="-3.519852">
        <ele>1128.22</ele>
        <time>2022-06-19T07:08:26+00:00</time>
      </trkpt>
      <trkpt lat="41.062539" lon="-3.519638">
        <ele>1128.71</ele>
        <time>2022-06-19T07:08:27+00:00</time>
      </trkpt>
      <trkpt lat="41.062603" lon="-3.519445">
        <ele>1129.67</ele>
        <time>2022-06-19T07:08:28+00:00</time>
      </trkpt>
      <trkpt lat="41.062625" lon="-3.519230">
        <ele>1130.15</ele>
        <time>2022-06-19T07:08:29+00:00</time>
      </trkpt>
      <trkpt lat="41.062625" lon="-3.519037">
        <ele>1131.11</ele>
        <time>2022-06-19T07:08:30+00:00</time>
      </trkpt>
      <trkpt lat="41.062603" lon="-3.518822">
        <ele>1131.59</ele>
        <time>2022-06-19T07:08:31+00:00</time>
      </trkpt>
      <trkpt lat="41.062303" lon="-3.517363">
        <ele>1136.40</ele>
        <time>2022-06-19T07:08:38+00:00</time>
      </trkpt>
      <trkpt lat="41.062303" lon="-3.517191">
        <ele>1137.84</ele>
        <time>2022-06-19T07:08:39+00:00</time>
      </trkpt>
      <trkpt lat="41.062325" lon="-3.517041">
        <ele>1139.28</ele>
        <time>2022-06-19T07:08:40+00:00</time>
      </trkpt>
      <trkpt lat="41.062367" lon="-3.516870">
        <ele>1140.72</ele>
        <time>2022-06-19T07:08:41+00:00</time>
      </trkpt>
      <trkpt lat="41.062410" lon="-3.516676">
        <ele>1142.16</ele>
        <time>2022-06-19T07:08:42+00:00</time>
      </trkpt>
      <trkpt lat="41.062496" lon="-3.516505">
        <ele>1143.61</ele>
        <time>2022-06-19T07:08:43+00:00</time>
      </trkpt>
      <trkpt lat="41.062561" lon="-3.516290">
        <ele>1145.05</ele>
        <time>2022-06-19T07:08:44+00:00</time>
      </trkpt>
      <trkpt lat="41.062625" lon="-3.516076">
        <ele>1146.97</ele>
        <time>2022-06-19T07:08:45+00:00</time>
      </trkpt>
      <trkpt lat="41.062797" lon="-3.514230">
        <ele>1155.14</ele>
        <time>2022-06-19T07:08:53+00:00</time>
      </trkpt>
      <trkpt lat="41.062518" lon="-3.512342">
        <ele>1162.83</ele>
        <time>2022-06-19T07:09:01+00:00</time>
      </trkpt>
      <trkpt lat="41.062346" lon="-3.511312">
        <ele>1171.96</ele>
        <time>2022-06-19T07:09:08+00:00</time>
      </trkpt>
      <trkpt lat="41.062346" lon="-3.511248">
        <ele>1172.44</ele>
        <time>2022-06-19T07:09:09+00:00</time>
      </trkpt>
      <trkpt lat="41.062389" lon="-3.511226">
        <ele>1173.41</ele>
        <time>2022-06-19T07:09:10+00:00</time>
      </trkpt>
      <trkpt lat="41.062432" lon="-3.511183">
        <ele>1174.37</ele>
        <time>2022-06-19T07:09:11+00:00</time>
      </trkpt>
      <trkpt lat="41.062496" lon="-3.511162">
        <ele>1174.85</ele>
        <time>2022-06-19T07:09:12+00:00</time>
      </trkpt>
      <trkpt lat="41.063161" lon="-3.510819">
        <ele>1176.77</ele>
        <time>2022-06-19T07:09:17+00:00</time>
      </trkpt>
      <trkpt lat="41.064020" lon="-3.510346">
        <ele>1179.17</ele>
        <time>2022-06-19T07:09:22+00:00</time>
      </trkpt>
      <trkpt lat="41.064148" lon="-3.510175">
        <ele>1180.14</ele>
        <time>2022-06-19T07:09:23+00:00</time>
      </trkpt>
      <trkpt lat="41.064277" lon="-3.509982">
        <ele>1181.58</ele>
        <time>2022-06-19T07:09:24+00:00</time>
      </trkpt>
      <trkpt lat="41.064363" lon="-3.509746">
        <ele>1183.02</ele>
        <time>2022-06-19T07:09:25+00:00</time>
      </trkpt>
      <trkpt lat="41.064427" lon="-3.509510">
        <ele>1183.98</ele>
        <time>2022-06-19T07:09:26+00:00</time>
      </trkpt>
      <trkpt lat="41.064492" lon="-3.509274">
        <ele>1185.42</ele>
        <time>2022-06-19T07:09:27+00:00</time>
      </trkpt>
      <trkpt lat="41.064899" lon="-3.507643">
        <ele>1195.52</ele>
        <time>2022-06-19T07:09:35+00:00</time>
      </trkpt>
      <trkpt lat="41.065200" lon="-3.506784">
        <ele>1202.25</ele>
        <time>2022-06-19T07:09:40+00:00</time>
      </trkpt>
      <trkpt lat="41.065286" lon="-3.506613">
        <ele>1203.21</ele>
        <time>2022-06-19T07:09:41+00:00</time>
      </trkpt>
      <trkpt lat="41.066037" lon="-3.505454">
        <ele>1210.90</ele>
        <time>2022-06-19T07:09:47+00:00</time>
      </trkpt>
      <trkpt lat="41.067324" lon="-3.503566">
        <ele>1227.24</ele>
        <time>2022-06-19T07:09:55+00:00</time>
      </trkpt>
      <trkpt lat="41.068483" lon="-3.502064">
        <ele>1236.37</ele>
        <time>2022-06-19T07:10:02+00:00</time>
      </trkpt>
      <trkpt lat="41.069921" lon="-3.500626">
        <ele>1243.10</ele>
        <time>2022-06-19T07:10:10+00:00</time>
      </trkpt>
      <trkpt lat="41.070092" lon="-3.500562">
        <ele>1244.06</ele>
        <time>2022-06-19T07:10:11+00:00</time>
      </trkpt>
      <trkpt lat="41.070285" lon="-3.500519">
        <ele>1245.02</ele>
        <time>2022-06-19T07:10:12+00:00</time>
      </trkpt>
      <trkpt lat="41.070500" lon="-3.500562">
        <ele>1245.99</ele>
        <time>2022-06-19T07:10:13+00:00</time>
      </trkpt>
      <trkpt lat="41.070714" lon="-3.500605">
        <ele>1246.95</ele>
        <time>2022-06-19T07:10:14+00:00</time>
      </trkpt>
      <trkpt lat="41.070908" lon="-3.500648">
        <ele>1248.39</ele>
        <time>2022-06-19T07:10:15+00:00</time>
      </trkpt>
      <trkpt lat="41.071251" lon="-3.500669">
        <ele>1250.79</ele>
        <time>2022-06-19T07:10:17+00:00</time>
      </trkpt>
      <trkpt lat="41.071401" lon="-3.500648">
        <ele>1252.23</ele>
        <time>2022-06-19T07:10:18+00:00</time>
      </trkpt>
      <trkpt lat="41.071573" lon="-3.500562">
        <ele>1253.68</ele>
        <time>2022-06-19T07:10:19+00:00</time>
      </trkpt>
      <trkpt lat="41.071744" lon="-3.500433">
        <ele>1254.64</ele>
        <time>2022-06-19T07:10:20+00:00</time>
      </trkpt>
      <trkpt lat="41.071916" lon="-3.500304">
        <ele>1255.60</ele>
        <time>2022-06-19T07:10:21+00:00</time>
      </trkpt>
      <trkpt lat="41.072045" lon="-3.500133">
        <ele>1256.08</ele>
        <time>2022-06-19T07:10:22+00:00</time>
      </trkpt>
      <trkpt lat="41.072152" lon="-3.499918">
        <ele>1256.08</ele>
        <time>2022-06-19T07:10:23+00:00</time>
      </trkpt>
      <trkpt lat="41.072281" lon="-3.499703">
        <ele>1256.56</ele>
        <time>2022-06-19T07:10:24+00:00</time>
      </trkpt>
      <trkpt lat="41.072388" lon="-3.499446">
        <ele>1256.08</ele>
        <time>2022-06-19T07:10:25+00:00</time>
      </trkpt>
      <trkpt lat="41.073139" lon="-3.497622">
        <ele>1252.71</ele>
        <time>2022-06-19T07:10:32+00:00</time>
      </trkpt>
      <trkpt lat="41.073246" lon="-3.497472">
        <ele>1252.23</ele>
        <time>2022-06-19T07:10:33+00:00</time>
      </trkpt>
      <trkpt lat="41.073375" lon="-3.497343">
        <ele>1251.75</ele>
        <time>2022-06-19T07:10:34+00:00</time>
      </trkpt>
      <trkpt lat="41.073525" lon="-3.497257">
        <ele>1251.75</ele>
        <time>2022-06-19T07:10:35+00:00</time>
      </trkpt>
      <trkpt lat="41.073719" lon="-3.497214">
        <ele>1251.27</ele>
        <time>2022-06-19T07:10:36+00:00</time>
      </trkpt>
      <trkpt lat="41.073912" lon="-3.497214">
        <ele>1251.27</ele>
        <time>2022-06-19T07:10:37+00:00</time>
      </trkpt>
      <trkpt lat="41.074126" lon="-3.497236">
        <ele>1251.27</ele>
        <time>2022-06-19T07:10:38+00:00</time>
      </trkpt>
      <trkpt lat="41.074362" lon="-3.497279">
        <ele>1251.27</ele>
        <time>2022-06-19T07:10:39+00:00</time>
      </trkpt>
      <trkpt lat="41.075886" lon="-3.497558">
        <ele>1254.64</ele>
        <time>2022-06-19T07:10:46+00:00</time>
      </trkpt>
      <trkpt lat="41.076015" lon="-3.497472">
        <ele>1255.60</ele>
        <time>2022-06-19T07:10:47+00:00</time>
      </trkpt>
      <trkpt lat="41.076165" lon="-3.497386">
        <ele>1255.60</ele>
        <time>2022-06-19T07:10:48+00:00</time>
      </trkpt>
      <trkpt lat="41.076251" lon="-3.497214">
        <ele>1256.56</ele>
        <time>2022-06-19T07:10:49+00:00</time>
      </trkpt>
      <trkpt lat="41.076379" lon="-3.497021">
        <ele>1257.04</ele>
        <time>2022-06-19T07:10:50+00:00</time>
      </trkpt>
      <trkpt lat="41.076508" lon="-3.496807">
        <ele>1258.00</ele>
        <time>2022-06-19T07:10:51+00:00</time>
      </trkpt>
      <trkpt lat="41.076615" lon="-3.496571">
        <ele>1258.96</ele>
        <time>2022-06-19T07:10:52+00:00</time>
      </trkpt>
      <trkpt lat="41.076701" lon="-3.496292">
        <ele>1259.92</ele>
        <time>2022-06-19T07:10:53+00:00</time>
      </trkpt>
      <trkpt lat="41.076787" lon="-3.496013">
        <ele>1260.40</ele>
        <time>2022-06-19T07:10:54+00:00</time>
      </trkpt>
      <trkpt lat="41.076851" lon="-3.495691">
        <ele>1260.89</ele>
        <time>2022-06-19T07:10:55+00:00</time>
      </trkpt>
      <trkpt lat="41.077109" lon="-3.494425">
        <ele>1260.40</ele>
        <time>2022-06-19T07:11:00+00:00</time>
      </trkpt>
      <trkpt lat="41.077238" lon="-3.493803">
        <ele>1258.96</ele>
        <time>2022-06-19T07:11:04+00:00</time>
      </trkpt>
      <trkpt lat="41.077259" lon="-3.493695">
        <ele>1258.96</ele>
        <time>2022-06-19T07:11:05+00:00</time>
      </trkpt>
      <trkpt lat="41.077302" lon="-3.493631">
        <ele>1258.48</ele>
        <time>2022-06-19T07:11:06+00:00</time>
      </trkpt>
      <trkpt lat="41.077388" lon="-3.493545">
        <ele>1258.00</ele>
        <time>2022-06-19T07:11:07+00:00</time>
      </trkpt>
      <trkpt lat="41.077431" lon="-3.493502">
        <ele>1257.04</ele>
        <time>2022-06-19T07:11:08+00:00</time>
      </trkpt>
      <trkpt lat="41.077495" lon="-3.493502">
        <ele>1256.56</ele>
        <time>2022-06-19T07:11:09+00:00</time>
      </trkpt>
      <trkpt lat="41.077559" lon="-3.493481">
        <ele>1256.08</ele>
        <time>2022-06-19T07:11:10+00:00</time>
      </trkpt>
      <trkpt lat="41.077624" lon="-3.493502">
        <ele>1255.60</ele>
        <time>2022-06-19T07:11:11+00:00</time>
      </trkpt>
      <trkpt lat="41.077710" lon="-3.493545">
        <ele>1255.12</ele>
        <time>2022-06-19T07:11:12+00:00</time>
      </trkpt>
      <trkpt lat="41.077796" lon="-3.493609">
        <ele>1255.12</ele>
        <time>2022-06-19T07:11:13+00:00</time>
      </trkpt>
      <trkpt lat="41.077881" lon="-3.493717">
        <ele>1255.12</ele>
        <time>2022-06-19T07:11:14+00:00</time>
      </trkpt>
      <trkpt lat="41.077967" lon="-3.493824">
        <ele>1255.12</ele>
        <time>2022-06-19T07:11:15+00:00</time>
      </trkpt>
      <trkpt lat="41.078246" lon="-3.494232">
        <ele>1256.08</ele>
        <time>2022-06-19T07:11:18+00:00</time>
      </trkpt>
      <trkpt lat="41.078375" lon="-3.494360">
        <ele>1256.56</ele>
        <time>2022-06-19T07:11:19+00:00</time>
      </trkpt>
      <trkpt lat="41.078504" lon="-3.494489">
        <ele>1257.04</ele>
        <time>2022-06-19T07:11:20+00:00</time>
      </trkpt>
      <trkpt lat="41.079469" lon="-3.495154">
        <ele>1259.44</ele>
        <time>2022-06-19T07:11:25+00:00</time>
      </trkpt>
      <trkpt lat="41.079684" lon="-3.495283">
        <ele>1260.40</ele>
        <time>2022-06-19T07:11:26+00:00</time>
      </trkpt>
      <trkpt lat="41.080328" lon="-3.495669">
        <ele>1262.81</ele>
        <time>2022-06-19T07:11:29+00:00</time>
      </trkpt>
      <trkpt lat="41.080499" lon="-3.495820">
        <ele>1263.77</ele>
        <time>2022-06-19T07:11:30+00:00</time>
      </trkpt>
      <trkpt lat="41.080821" lon="-3.496077">
        <ele>1265.21</ele>
        <time>2022-06-19T07:11:32+00:00</time>
      </trkpt>
      <trkpt lat="41.081014" lon="-3.496163">
        <ele>1266.17</ele>
        <time>2022-06-19T07:11:33+00:00</time>
      </trkpt>
      <trkpt lat="41.081207" lon="-3.496184">
        <ele>1267.13</ele>
        <time>2022-06-19T07:11:34+00:00</time>
      </trkpt>
      <trkpt lat="41.081400" lon="-3.496184">
        <ele>1268.10</ele>
        <time>2022-06-19T07:11:35+00:00</time>
      </trkpt>
      <trkpt lat="41.081594" lon="-3.496141">
        <ele>1269.06</ele>
        <time>2022-06-19T07:11:36+00:00</time>
      </trkpt>
      <trkpt lat="41.081787" lon="-3.496077">
        <ele>1270.02</ele>
        <time>2022-06-19T07:11:37+00:00</time>
      </trkpt>
      <trkpt lat="41.081980" lon="-3.495970">
        <ele>1271.46</ele>
        <time>2022-06-19T07:11:38+00:00</time>
      </trkpt>
      <trkpt lat="41.082173" lon="-3.495820">
        <ele>1272.42</ele>
        <time>2022-06-19T07:11:39+00:00</time>
      </trkpt>
      <trkpt lat="41.082688" lon="-3.495498">
        <ele>1275.79</ele>
        <time>2022-06-19T07:11:42+00:00</time>
      </trkpt>
      <trkpt lat="41.082881" lon="-3.495455">
        <ele>1276.27</ele>
        <time>2022-06-19T07:11:43+00:00</time>
      </trkpt>
      <trkpt lat="41.083074" lon="-3.495498">
        <ele>1276.75</ele>
        <time>2022-06-19T07:11:44+00:00</time>
      </trkpt>
      <trkpt lat="41.083289" lon="-3.495519">
        <ele>1277.71</ele>
        <time>2022-06-19T07:11:45+00:00</time>
      </trkpt>
      <trkpt lat="41.083482" lon="-3.495541">
        <ele>1278.67</ele>
        <time>2022-06-19T07:11:46+00:00</time>
      </trkpt>
      <trkpt lat="41.083675" lon="-3.495541">
        <ele>1279.63</ele>
        <time>2022-06-19T07:11:47+00:00</time>
      </trkpt>
      <trkpt lat="41.083847" lon="-3.495519">
        <ele>1281.07</ele>
        <time>2022-06-19T07:11:48+00:00</time>
      </trkpt>
      <trkpt lat="41.083997" lon="-3.495433">
        <ele>1283.00</ele>
        <time>2022-06-19T07:11:49+00:00</time>
      </trkpt>
      <trkpt lat="41.084168" lon="-3.495305">
        <ele>1284.92</ele>
        <time>2022-06-19T07:11:50+00:00</time>
      </trkpt>
      <trkpt lat="41.084340" lon="-3.495154">
        <ele>1286.36</ele>
        <time>2022-06-19T07:11:51+00:00</time>
      </trkpt>
      <trkpt lat="41.085198" lon="-3.494468">
        <ele>1291.17</ele>
        <time>2022-06-19T07:11:56+00:00</time>
      </trkpt>
      <trkpt lat="41.085327" lon="-3.494360">
        <ele>1292.13</ele>
        <time>2022-06-19T07:11:57+00:00</time>
      </trkpt>
      <trkpt lat="41.085499" lon="-3.494339">
        <ele>1293.09</ele>
        <time>2022-06-19T07:11:58+00:00</time>
      </trkpt>
      <trkpt lat="41.085670" lon="-3.494382">
        <ele>1294.05</ele>
        <time>2022-06-19T07:11:59+00:00</time>
      </trkpt>
      <trkpt lat="41.085885" lon="-3.494468">
        <ele>1295.01</ele>
        <time>2022-06-19T07:12:00+00:00</time>
      </trkpt>
      <trkpt lat="41.086078" lon="-3.494575">
        <ele>1295.97</ele>
        <time>2022-06-19T07:12:01+00:00</time>
      </trkpt>
      <trkpt lat="41.086658" lon="-3.494833">
        <ele>1299.34</ele>
        <time>2022-06-19T07:12:04+00:00</time>
      </trkpt>
      <trkpt lat="41.086808" lon="-3.494875">
        <ele>1300.78</ele>
        <time>2022-06-19T07:12:05+00:00</time>
      </trkpt>
      <trkpt lat="41.086979" lon="-3.494833">
        <ele>1302.22</ele>
        <time>2022-06-19T07:12:06+00:00</time>
      </trkpt>
      <trkpt lat="41.087151" lon="-3.494768">
        <ele>1304.62</ele>
        <time>2022-06-19T07:12:07+00:00</time>
      </trkpt>
      <trkpt lat="41.087280" lon="-3.494618">
        <ele>1306.55</ele>
        <time>2022-06-19T07:12:08+00:00</time>
      </trkpt>
      <trkpt lat="41.087451" lon="-3.494446">
        <ele>1308.95</ele>
        <time>2022-06-19T07:12:09+00:00</time>
      </trkpt>
      <trkpt lat="41.087623" lon="-3.494253">
        <ele>1310.87</ele>
        <time>2022-06-19T07:12:10+00:00</time>
      </trkpt>
      <trkpt lat="41.088567" lon="-3.493073">
        <ele>1321.45</ele>
        <time>2022-06-19T07:12:17+00:00</time>
      </trkpt>
      <trkpt lat="41.088696" lon="-3.492923">
        <ele>1322.41</ele>
        <time>2022-06-19T07:12:18+00:00</time>
      </trkpt>
      <trkpt lat="41.088825" lon="-3.492816">
        <ele>1323.37</ele>
        <time>2022-06-19T07:12:19+00:00</time>
      </trkpt>
      <trkpt lat="41.089983" lon="-3.492301">
        <ele>1330.58</ele>
        <time>2022-06-19T07:12:25+00:00</time>
      </trkpt>
      <trkpt lat="41.090177" lon="-3.492236">
        <ele>1331.54</ele>
        <time>2022-06-19T07:12:26+00:00</time>
      </trkpt>
      <trkpt lat="41.091078" lon="-3.492107">
        <ele>1338.75</ele>
        <time>2022-06-19T07:12:31+00:00</time>
      </trkpt>
      <trkpt lat="41.091207" lon="-3.492022">
        <ele>1340.19</ele>
        <time>2022-06-19T07:12:32+00:00</time>
      </trkpt>
      <trkpt lat="41.091335" lon="-3.491936">
        <ele>1342.12</ele>
        <time>2022-06-19T07:12:33+00:00</time>
      </trkpt>
      <trkpt lat="41.091443" lon="-3.491786">
        <ele>1343.08</ele>
        <time>2022-06-19T07:12:34+00:00</time>
      </trkpt>
      <trkpt lat="41.091550" lon="-3.491657">
        <ele>1344.52</ele>
        <time>2022-06-19T07:12:35+00:00</time>
      </trkpt>
      <trkpt lat="41.091679" lon="-3.491485">
        <ele>1346.44</ele>
        <time>2022-06-19T07:12:38+00:00</time>
      </trkpt>
      <trkpt lat="41.091915" lon="-3.491228">
        <ele>1346.44</ele>
        <time>2022-06-19T07:12:44+00:00</time>
      </trkpt>
      <trkpt lat="41.092000" lon="-3.491142">
        <ele>1345.96</ele>
        <time>2022-06-19T07:12:45+00:00</time>
      </trkpt>
      <trkpt lat="41.092086" lon="-3.491056">
        <ele>1345.48</ele>
        <time>2022-06-19T07:12:46+00:00</time>
      </trkpt>
      <trkpt lat="41.092172" lon="-3.491013">
        <ele>1345.00</ele>
        <time>2022-06-19T07:12:47+00:00</time>
      </trkpt>
      <trkpt lat="41.092301" lon="-3.491013">
        <ele>1344.52</ele>
        <time>2022-06-19T07:12:48+00:00</time>
      </trkpt>
      <trkpt lat="41.092451" lon="-3.491013">
        <ele>1344.04</ele>
        <time>2022-06-19T07:12:49+00:00</time>
      </trkpt>
      <trkpt lat="41.092623" lon="-3.491013">
        <ele>1343.08</ele>
        <time>2022-06-19T07:12:50+00:00</time>
      </trkpt>
      <trkpt lat="41.093331" lon="-3.491163">
        <ele>1338.75</ele>
        <time>2022-06-19T07:12:54+00:00</time>
      </trkpt>
      <trkpt lat="41.093503" lon="-3.491271">
        <ele>1337.31</ele>
        <time>2022-06-19T07:12:55+00:00</time>
      </trkpt>
      <trkpt lat="41.093867" lon="-3.491442">
        <ele>1334.91</ele>
        <time>2022-06-19T07:12:57+00:00</time>
      </trkpt>
      <trkpt lat="41.094060" lon="-3.491485">
        <ele>1333.46</ele>
        <time>2022-06-19T07:12:58+00:00</time>
      </trkpt>
      <trkpt lat="41.094447" lon="-3.491614">
        <ele>1330.10</ele>
        <time>2022-06-19T07:13:00+00:00</time>
      </trkpt>
      <trkpt lat="41.094597" lon="-3.491678">
        <ele>1328.66</ele>
        <time>2022-06-19T07:13:01+00:00</time>
      </trkpt>
      <trkpt lat="41.094769" lon="-3.491743">
        <ele>1327.22</ele>
        <time>2022-06-19T07:13:02+00:00</time>
      </trkpt>
      <trkpt lat="41.094919" lon="-3.491786">
        <ele>1324.81</ele>
        <time>2022-06-19T07:13:03+00:00</time>
      </trkpt>
      <trkpt lat="41.095090" lon="-3.491764">
        <ele>1322.89</ele>
        <time>2022-06-19T07:13:04+00:00</time>
      </trkpt>
      <trkpt lat="41.095241" lon="-3.491743">
        <ele>1320.97</ele>
        <time>2022-06-19T07:13:05+00:00</time>
      </trkpt>
      <trkpt lat="41.095412" lon="-3.491764">
        <ele>1319.53</ele>
        <time>2022-06-19T07:13:06+00:00</time>
      </trkpt>
      <trkpt lat="41.095562" lon="-3.491786">
        <ele>1317.60</ele>
        <time>2022-06-19T07:13:07+00:00</time>
      </trkpt>
      <trkpt lat="41.095713" lon="-3.491850">
        <ele>1316.16</ele>
        <time>2022-06-19T07:13:08+00:00</time>
      </trkpt>
      <trkpt lat="41.095884" lon="-3.491957">
        <ele>1314.72</ele>
        <time>2022-06-19T07:13:09+00:00</time>
      </trkpt>
      <trkpt lat="41.096056" lon="-3.492065">
        <ele>1313.28</ele>
        <time>2022-06-19T07:13:10+00:00</time>
      </trkpt>
      <trkpt lat="41.096228" lon="-3.492193">
        <ele>1311.83</ele>
        <time>2022-06-19T07:13:11+00:00</time>
      </trkpt>
      <trkpt lat="41.097279" lon="-3.492987">
        <ele>1301.26</ele>
        <time>2022-06-19T07:13:18+00:00</time>
      </trkpt>
      <trkpt lat="41.097451" lon="-3.493052">
        <ele>1299.82</ele>
        <time>2022-06-19T07:13:19+00:00</time>
      </trkpt>
      <trkpt lat="41.097601" lon="-3.493116">
        <ele>1298.38</ele>
        <time>2022-06-19T07:13:20+00:00</time>
      </trkpt>
      <trkpt lat="41.097751" lon="-3.493116">
        <ele>1296.93</ele>
        <time>2022-06-19T07:13:21+00:00</time>
      </trkpt>
      <trkpt lat="41.097901" lon="-3.493094">
        <ele>1295.49</ele>
        <time>2022-06-19T07:13:22+00:00</time>
      </trkpt>
      <trkpt lat="41.098030" lon="-3.493073">
        <ele>1294.53</ele>
        <time>2022-06-19T07:13:23+00:00</time>
      </trkpt>
      <trkpt lat="41.098159" lon="-3.493030">
        <ele>1293.09</ele>
        <time>2022-06-19T07:13:24+00:00</time>
      </trkpt>
      <trkpt lat="41.098266" lon="-3.492923">
        <ele>1292.13</ele>
        <time>2022-06-19T07:13:25+00:00</time>
      </trkpt>
      <trkpt lat="41.098373" lon="-3.492816">
        <ele>1291.17</ele>
        <time>2022-06-19T07:13:26+00:00</time>
      </trkpt>
      <trkpt lat="41.098502" lon="-3.492751">
        <ele>1290.21</ele>
        <time>2022-06-19T07:13:27+00:00</time>
      </trkpt>
      <trkpt lat="41.098631" lon="-3.492708">
        <ele>1289.24</ele>
        <time>2022-06-19T07:13:28+00:00</time>
      </trkpt>
      <trkpt lat="41.098781" lon="-3.492644">
        <ele>1288.28</ele>
        <time>2022-06-19T07:13:29+00:00</time>
      </trkpt>
      <trkpt lat="41.098910" lon="-3.492601">
        <ele>1287.32</ele>
        <time>2022-06-19T07:13:30+00:00</time>
      </trkpt>
      <trkpt lat="41.099017" lon="-3.492515">
        <ele>1286.36</ele>
        <time>2022-06-19T07:13:31+00:00</time>
      </trkpt>
      <trkpt lat="41.099232" lon="-3.492365">
        <ele>1284.92</ele>
        <time>2022-06-19T07:13:33+00:00</time>
      </trkpt>
      <trkpt lat="41.099318" lon="-3.492365">
        <ele>1283.96</ele>
        <time>2022-06-19T07:13:34+00:00</time>
      </trkpt>
      <trkpt lat="41.099425" lon="-3.492386">
        <ele>1283.00</ele>
        <time>2022-06-19T07:13:35+00:00</time>
      </trkpt>
      <trkpt lat="41.099554" lon="-3.492472">
        <ele>1282.03</ele>
        <time>2022-06-19T07:13:36+00:00</time>
      </trkpt>
      <trkpt lat="41.099704" lon="-3.492580">
        <ele>1280.59</ele>
        <time>2022-06-19T07:13:37+00:00</time>
      </trkpt>
      <trkpt lat="41.100433" lon="-3.493052">
        <ele>1274.82</ele>
        <time>2022-06-19T07:13:42+00:00</time>
      </trkpt>
      <trkpt lat="41.100562" lon="-3.493030">
        <ele>1273.86</ele>
        <time>2022-06-19T07:13:43+00:00</time>
      </trkpt>
      <trkpt lat="41.100669" lon="-3.493009">
        <ele>1272.90</ele>
        <time>2022-06-19T07:13:44+00:00</time>
      </trkpt>
      <trkpt lat="41.100798" lon="-3.492944">
        <ele>1271.46</ele>
        <time>2022-06-19T07:13:45+00:00</time>
      </trkpt>
      <trkpt lat="41.100948" lon="-3.492858">
        <ele>1271.46</ele>
        <time>2022-06-19T07:13:46+00:00</time>
      </trkpt>
      <trkpt lat="41.101099" lon="-3.492773">
        <ele>1271.46</ele>
        <time>2022-06-19T07:13:47+00:00</time>
      </trkpt>
      <trkpt lat="41.101764" lon="-3.492494">
        <ele>1271.94</ele>
        <time>2022-06-19T07:13:53+00:00</time>
      </trkpt>
      <trkpt lat="41.101871" lon="-3.492494">
        <ele>1272.42</ele>
        <time>2022-06-19T07:13:55+00:00</time>
      </trkpt>
      <trkpt lat="41.101957" lon="-3.492494">
        <ele>1272.90</ele>
        <time>2022-06-19T07:13:56+00:00</time>
      </trkpt>
      <trkpt lat="41.102129" lon="-3.492472">
        <ele>1273.38</ele>
        <time>2022-06-19T07:13:57+00:00</time>
      </trkpt>
      <trkpt lat="41.102214" lon="-3.492322">
        <ele>1273.86</ele>
        <time>2022-06-19T07:13:58+00:00</time>
      </trkpt>
      <trkpt lat="41.102193" lon="-3.492150">
        <ele>1273.86</ele>
        <time>2022-06-19T07:13:59+00:00</time>
      </trkpt>
      <trkpt lat="41.102150" lon="-3.492022">
        <ele>1273.86</ele>
        <time>2022-06-19T07:14:00+00:00</time>
      </trkpt>
      <trkpt lat="41.102129" lon="-3.491893">
        <ele>1273.86</ele>
        <time>2022-06-19T07:14:01+00:00</time>
      </trkpt>
      <trkpt lat="41.102129" lon="-3.491764">
        <ele>1273.86</ele>
        <time>2022-06-19T07:14:02+00:00</time>
      </trkpt>
      <trkpt lat="41.102129" lon="-3.491678">
        <ele>1273.38</ele>
        <time>2022-06-19T07:14:03+00:00</time>
      </trkpt>
      <trkpt lat="41.102193" lon="-3.491571">
        <ele>1272.90</ele>
        <time>2022-06-19T07:14:04+00:00</time>
      </trkpt>
      <trkpt lat="41.102279" lon="-3.491442">
        <ele>1272.42</ele>
        <time>2022-06-19T07:14:05+00:00</time>
      </trkpt>
      <trkpt lat="41.102708" lon="-3.490906">
        <ele>1270.50</ele>
        <time>2022-06-19T07:14:09+00:00</time>
      </trkpt>
      <trkpt lat="41.102772" lon="-3.490756">
        <ele>1270.02</ele>
        <time>2022-06-19T07:14:10+00:00</time>
      </trkpt>
      <trkpt lat="41.103116" lon="-3.490026">
        <ele>1267.13</ele>
        <time>2022-06-19T07:14:15+00:00</time>
      </trkpt>
      <trkpt lat="41.103201" lon="-3.489940">
        <ele>1266.65</ele>
        <time>2022-06-19T07:14:16+00:00</time>
      </trkpt>
      <trkpt lat="41.103395" lon="-3.489704">
        <ele>1265.21</ele>
        <time>2022-06-19T07:14:19+00:00</time>
      </trkpt>
      <trkpt lat="41.103416" lon="-3.489640">
        <ele>1264.73</ele>
        <time>2022-06-19T07:14:20+00:00</time>
      </trkpt>
      <trkpt lat="41.103395" lon="-3.489511">
        <ele>1264.25</ele>
        <time>2022-06-19T07:14:21+00:00</time>
      </trkpt>
      <trkpt lat="41.103352" lon="-3.489361">
        <ele>1263.77</ele>
        <time>2022-06-19T07:14:22+00:00</time>
      </trkpt>
      <trkpt lat="41.103330" lon="-3.489232">
        <ele>1263.29</ele>
        <time>2022-06-19T07:14:23+00:00</time>
      </trkpt>
      <trkpt lat="41.103287" lon="-3.489103">
        <ele>1262.81</ele>
        <time>2022-06-19T07:14:24+00:00</time>
      </trkpt>
      <trkpt lat="41.103223" lon="-3.489018">
        <ele>1262.33</ele>
        <time>2022-06-19T07:14:25+00:00</time>
      </trkpt>
      <trkpt lat="41.103137" lon="-3.488953">
        <ele>1262.33</ele>
        <time>2022-06-19T07:14:26+00:00</time>
      </trkpt>
      <trkpt lat="41.103030" lon="-3.488975">
        <ele>1262.33</ele>
        <time>2022-06-19T07:14:27+00:00</time>
      </trkpt>
      <trkpt lat="41.102922" lon="-3.489039">
        <ele>1262.33</ele>
        <time>2022-06-19T07:14:28+00:00</time>
      </trkpt>
      <trkpt lat="41.102794" lon="-3.489146">
        <ele>1262.33</ele>
        <time>2022-06-19T07:14:29+00:00</time>
      </trkpt>
      <trkpt lat="41.102686" lon="-3.489254">
        <ele>1262.33</ele>
        <time>2022-06-19T07:14:30+00:00</time>
      </trkpt>
      <trkpt lat="41.102171" lon="-3.489833">
        <ele>1261.37</ele>
        <time>2022-06-19T07:14:34+00:00</time>
      </trkpt>
      <trkpt lat="41.102043" lon="-3.489940">
        <ele>1261.37</ele>
        <time>2022-06-19T07:14:35+00:00</time>
      </trkpt>
      <trkpt lat="41.101892" lon="-3.489983">
        <ele>1260.89</ele>
        <time>2022-06-19T07:14:36+00:00</time>
      </trkpt>
      <trkpt lat="41.101721" lon="-3.490047">
        <ele>1260.89</ele>
        <time>2022-06-19T07:14:37+00:00</time>
      </trkpt>
      <trkpt lat="41.101549" lon="-3.490112">
        <ele>1260.89</ele>
        <time>2022-06-19T07:14:38+00:00</time>
      </trkpt>
      <trkpt lat="41.100541" lon="-3.490348">
        <ele>1261.85</ele>
        <time>2022-06-19T07:14:44+00:00</time>
      </trkpt>
      <trkpt lat="41.100455" lon="-3.490284">
        <ele>1261.85</ele>
        <time>2022-06-19T07:14:45+00:00</time>
      </trkpt>
      <trkpt lat="41.100348" lon="-3.490198">
        <ele>1261.85</ele>
        <time>2022-06-19T07:14:46+00:00</time>
      </trkpt>
      <trkpt lat="41.100219" lon="-3.490069">
        <ele>1262.33</ele>
        <time>2022-06-19T07:14:47+00:00</time>
      </trkpt>
      <trkpt lat="41.100090" lon="-3.489940">
        <ele>1262.81</ele>
        <time>2022-06-19T07:14:48+00:00</time>
      </trkpt>
      <trkpt lat="41.099511" lon="-3.489382">
        <ele>1266.17</ele>
        <time>2022-06-19T07:14:52+00:00</time>
      </trkpt>
      <trkpt lat="41.099339" lon="-3.489275">
        <ele>1267.61</ele>
        <time>2022-06-19T07:14:53+00:00</time>
      </trkpt>
      <trkpt lat="41.098781" lon="-3.488889">
        <ele>1271.94</ele>
        <time>2022-06-19T07:14:57+00:00</time>
      </trkpt>
      <trkpt lat="41.098674" lon="-3.488760">
        <ele>1272.90</ele>
        <time>2022-06-19T07:14:58+00:00</time>
      </trkpt>
      <trkpt lat="41.098588" lon="-3.488631">
        <ele>1273.86</ele>
        <time>2022-06-19T07:14:59+00:00</time>
      </trkpt>
      <trkpt lat="41.098502" lon="-3.488460">
        <ele>1274.82</ele>
        <time>2022-06-19T07:15:00+00:00</time>
      </trkpt>
      <trkpt lat="41.098416" lon="-3.488288">
        <ele>1276.27</ele>
        <time>2022-06-19T07:15:01+00:00</time>
      </trkpt>
      <trkpt lat="41.098352" lon="-3.488073">
        <ele>1277.23</ele>
        <time>2022-06-19T07:15:02+00:00</time>
      </trkpt>
      <trkpt lat="41.097944" lon="-3.486979">
        <ele>1285.40</ele>
        <time>2022-06-19T07:15:08+00:00</time>
      </trkpt>
      <trkpt lat="41.097858" lon="-3.486829">
        <ele>1286.84</ele>
        <time>2022-06-19T07:15:09+00:00</time>
      </trkpt>
      <trkpt lat="41.097773" lon="-3.486700">
        <ele>1288.28</ele>
        <time>2022-06-19T07:15:10+00:00</time>
      </trkpt>
      <trkpt lat="41.097644" lon="-3.486614">
        <ele>1289.24</ele>
        <time>2022-06-19T07:15:11+00:00</time>
      </trkpt>
      <trkpt lat="41.097515" lon="-3.486550">
        <ele>1290.69</ele>
        <time>2022-06-19T07:15:12+00:00</time>
      </trkpt>
      <trkpt lat="41.097343" lon="-3.486486">
        <ele>1292.13</ele>
        <time>2022-06-19T07:15:13+00:00</time>
      </trkpt>
      <trkpt lat="41.096893" lon="-3.486271">
        <ele>1295.49</ele>
        <time>2022-06-19T07:15:16+00:00</time>
      </trkpt>
      <trkpt lat="41.096764" lon="-3.486185">
        <ele>1296.93</ele>
        <time>2022-06-19T07:15:17+00:00</time>
      </trkpt>
      <trkpt lat="41.096635" lon="-3.486035">
        <ele>1297.90</ele>
        <time>2022-06-19T07:15:18+00:00</time>
      </trkpt>
      <trkpt lat="41.096077" lon="-3.485305">
        <ele>1303.66</ele>
        <time>2022-06-19T07:15:23+00:00</time>
      </trkpt>
      <trkpt lat="41.096035" lon="-3.485112">
        <ele>1304.62</ele>
        <time>2022-06-19T07:15:24+00:00</time>
      </trkpt>
      <trkpt lat="41.095992" lon="-3.484919">
        <ele>1306.07</ele>
        <time>2022-06-19T07:15:25+00:00</time>
      </trkpt>
      <trkpt lat="41.095863" lon="-3.484254">
        <ele>1309.91</ele>
        <time>2022-06-19T07:15:28+00:00</time>
      </trkpt>
      <trkpt lat="41.095777" lon="-3.483589">
        <ele>1314.24</ele>
        <time>2022-06-19T07:15:31+00:00</time>
      </trkpt>
      <trkpt lat="41.095777" lon="-3.483417">
        <ele>1315.20</ele>
        <time>2022-06-19T07:15:32+00:00</time>
      </trkpt>
      <trkpt lat="41.095820" lon="-3.483224">
        <ele>1316.64</ele>
        <time>2022-06-19T07:15:33+00:00</time>
      </trkpt>
      <trkpt lat="41.095863" lon="-3.483031">
        <ele>1317.60</ele>
        <time>2022-06-19T07:15:34+00:00</time>
      </trkpt>
      <trkpt lat="41.095970" lon="-3.482838">
        <ele>1319.04</ele>
        <time>2022-06-19T07:15:35+00:00</time>
      </trkpt>
      <trkpt lat="41.096056" lon="-3.482688">
        <ele>1320.49</ele>
        <time>2022-06-19T07:15:36+00:00</time>
      </trkpt>
      <trkpt lat="41.096120" lon="-3.482451">
        <ele>1321.45</ele>
        <time>2022-06-19T07:15:37+00:00</time>
      </trkpt>
      <trkpt lat="41.096163" lon="-3.482237">
        <ele>1322.89</ele>
        <time>2022-06-19T07:15:38+00:00</time>
      </trkpt>
      <trkpt lat="41.096185" lon="-3.481979">
        <ele>1324.33</ele>
        <time>2022-06-19T07:15:39+00:00</time>
      </trkpt>
      <trkpt lat="41.096335" lon="-3.480842">
        <ele>1328.18</ele>
        <time>2022-06-19T07:15:44+00:00</time>
      </trkpt>
      <trkpt lat="41.096421" lon="-3.480649">
        <ele>1328.66</ele>
        <time>2022-06-19T07:15:45+00:00</time>
      </trkpt>
      <trkpt lat="41.096507" lon="-3.480434">
        <ele>1329.14</ele>
        <time>2022-06-19T07:15:46+00:00</time>
      </trkpt>
      <trkpt lat="41.096614" lon="-3.480220">
        <ele>1329.14</ele>
        <time>2022-06-19T07:15:47+00:00</time>
      </trkpt>
      <trkpt lat="41.096743" lon="-3.480027">
        <ele>1329.62</ele>
        <time>2022-06-19T07:15:48+00:00</time>
      </trkpt>
      <trkpt lat="41.097343" lon="-3.478932">
        <ele>1329.14</ele>
        <time>2022-06-19T07:15:54+00:00</time>
      </trkpt>
      <trkpt lat="41.097451" lon="-3.478782">
        <ele>1329.62</ele>
        <time>2022-06-19T07:15:55+00:00</time>
      </trkpt>
      <trkpt lat="41.098502" lon="-3.477817">
        <ele>1330.58</ele>
        <time>2022-06-19T07:16:02+00:00</time>
      </trkpt>
      <trkpt lat="41.098738" lon="-3.477559">
        <ele>1329.62</ele>
        <time>2022-06-19T07:16:04+00:00</time>
      </trkpt>
      <trkpt lat="41.098845" lon="-3.477409">
        <ele>1329.62</ele>
        <time>2022-06-19T07:16:05+00:00</time>
      </trkpt>
      <trkpt lat="41.098910" lon="-3.477237">
        <ele>1329.14</ele>
        <time>2022-06-19T07:16:06+00:00</time>
      </trkpt>
      <trkpt lat="41.098974" lon="-3.477044">
        <ele>1329.14</ele>
        <time>2022-06-19T07:16:07+00:00</time>
      </trkpt>
      <trkpt lat="41.099039" lon="-3.476872">
        <ele>1329.62</ele>
        <time>2022-06-19T07:16:08+00:00</time>
      </trkpt>
      <trkpt lat="41.099232" lon="-3.476400">
        <ele>1329.62</ele>
        <time>2022-06-19T07:16:11+00:00</time>
      </trkpt>
      <trkpt lat="41.099318" lon="-3.476293">
        <ele>1329.14</ele>
        <time>2022-06-19T07:16:12+00:00</time>
      </trkpt>
      <trkpt lat="41.099382" lon="-3.476207">
        <ele>1329.14</ele>
        <time>2022-06-19T07:16:13+00:00</time>
      </trkpt>
      <trkpt lat="41.099489" lon="-3.476164">
        <ele>1328.66</ele>
        <time>2022-06-19T07:16:14+00:00</time>
      </trkpt>
      <trkpt lat="41.099575" lon="-3.476100">
        <ele>1328.66</ele>
        <time>2022-06-19T07:16:15+00:00</time>
      </trkpt>
      <trkpt lat="41.100047" lon="-3.475821">
        <ele>1325.77</ele>
        <time>2022-06-19T07:16:22+00:00</time>
      </trkpt>
      <trkpt lat="41.100090" lon="-3.475778">
        <ele>1325.77</ele>
        <time>2022-06-19T07:16:23+00:00</time>
      </trkpt>
      <trkpt lat="41.100133" lon="-3.475757">
        <ele>1325.77</ele>
        <time>2022-06-19T07:16:24+00:00</time>
      </trkpt>
      <trkpt lat="41.100219" lon="-3.475714">
        <ele>1325.29</ele>
        <time>2022-06-19T07:16:25+00:00</time>
      </trkpt>
      <trkpt lat="41.100283" lon="-3.475671">
        <ele>1325.29</ele>
        <time>2022-06-19T07:16:26+00:00</time>
      </trkpt>
      <trkpt lat="41.100348" lon="-3.475585">
        <ele>1324.81</ele>
        <time>2022-06-19T07:16:27+00:00</time>
      </trkpt>
      <trkpt lat="41.100433" lon="-3.475499">
        <ele>1324.33</ele>
        <time>2022-06-19T07:16:28+00:00</time>
      </trkpt>
      <trkpt lat="41.100498" lon="-3.475306">
        <ele>1323.37</ele>
        <time>2022-06-19T07:16:29+00:00</time>
      </trkpt>
      <trkpt lat="41.100498" lon="-3.475070">
        <ele>1322.41</ele>
        <time>2022-06-19T07:16:30+00:00</time>
      </trkpt>
      <trkpt lat="41.100455" lon="-3.474877">
        <ele>1321.93</ele>
        <time>2022-06-19T07:16:31+00:00</time>
      </trkpt>
      <trkpt lat="41.100433" lon="-3.474705">
        <ele>1321.45</ele>
        <time>2022-06-19T07:16:32+00:00</time>
      </trkpt>
      <trkpt lat="41.100348" lon="-3.473868">
        <ele>1317.60</ele>
        <time>2022-06-19T07:16:39+00:00</time>
      </trkpt>
      <trkpt lat="41.100348" lon="-3.473783">
        <ele>1317.12</ele>
        <time>2022-06-19T07:16:40+00:00</time>
      </trkpt>
      <trkpt lat="41.100455" lon="-3.472774">
        <ele>1314.72</ele>
        <time>2022-06-19T07:16:47+00:00</time>
      </trkpt>
      <trkpt lat="41.100777" lon="-3.471208">
        <ele>1310.39</ele>
        <time>2022-06-19T07:16:54+00:00</time>
      </trkpt>
      <trkpt lat="41.101227" lon="-3.470006">
        <ele>1304.62</ele>
        <time>2022-06-19T07:17:00+00:00</time>
      </trkpt>
      <trkpt lat="41.101313" lon="-3.469920">
        <ele>1304.14</ele>
        <time>2022-06-19T07:17:01+00:00</time>
      </trkpt>
      <trkpt lat="41.101420" lon="-3.469834">
        <ele>1303.18</ele>
        <time>2022-06-19T07:17:02+00:00</time>
      </trkpt>
      <trkpt lat="41.101571" lon="-3.469813">
        <ele>1302.70</ele>
        <time>2022-06-19T07:17:03+00:00</time>
      </trkpt>
      <trkpt lat="41.101742" lon="-3.469770">
        <ele>1301.74</ele>
        <time>2022-06-19T07:17:04+00:00</time>
      </trkpt>
      <trkpt lat="41.101892" lon="-3.469791">
        <ele>1300.78</ele>
        <time>2022-06-19T07:17:05+00:00</time>
      </trkpt>
      <trkpt lat="41.102086" lon="-3.469813">
        <ele>1299.82</ele>
        <time>2022-06-19T07:17:06+00:00</time>
      </trkpt>
      <trkpt lat="41.102257" lon="-3.469856">
        <ele>1299.34</ele>
        <time>2022-06-19T07:17:07+00:00</time>
      </trkpt>
      <trkpt lat="41.102450" lon="-3.469877">
        <ele>1298.86</ele>
        <time>2022-06-19T07:17:08+00:00</time>
      </trkpt>
      <trkpt lat="41.102622" lon="-3.469877">
        <ele>1298.38</ele>
        <time>2022-06-19T07:17:09+00:00</time>
      </trkpt>
      <trkpt lat="41.102837" lon="-3.469856">
        <ele>1297.90</ele>
        <time>2022-06-19T07:17:10+00:00</time>
      </trkpt>
      <trkpt lat="41.103030" lon="-3.469834">
        <ele>1297.42</ele>
        <time>2022-06-19T07:17:11+00:00</time>
      </trkpt>
      <trkpt lat="41.104146" lon="-3.469641">
        <ele>1294.53</ele>
        <time>2022-06-19T07:17:18+00:00</time>
      </trkpt>
      <trkpt lat="41.104231" lon="-3.469555">
        <ele>1294.53</ele>
        <time>2022-06-19T07:17:19+00:00</time>
      </trkpt>
      <trkpt lat="41.104274" lon="-3.469448">
        <ele>1294.05</ele>
        <time>2022-06-19T07:17:20+00:00</time>
      </trkpt>
      <trkpt lat="41.104296" lon="-3.469319">
        <ele>1294.05</ele>
        <time>2022-06-19T07:17:21+00:00</time>
      </trkpt>
      <trkpt lat="41.104317" lon="-3.469234">
        <ele>1294.05</ele>
        <time>2022-06-19T07:17:22+00:00</time>
      </trkpt>
      <trkpt lat="41.104296" lon="-3.469105">
        <ele>1294.05</ele>
        <time>2022-06-19T07:17:23+00:00</time>
      </trkpt>
      <trkpt lat="41.104296" lon="-3.468998">
        <ele>1294.05</ele>
        <time>2022-06-19T07:17:24+00:00</time>
      </trkpt>
      <trkpt lat="41.104231" lon="-3.468912">
        <ele>1293.57</ele>
        <time>2022-06-19T07:17:25+00:00</time>
      </trkpt>
      <trkpt lat="41.104146" lon="-3.468783">
        <ele>1293.57</ele>
        <time>2022-06-19T07:17:26+00:00</time>
      </trkpt>
      <trkpt lat="41.104060" lon="-3.468654">
        <ele>1293.09</ele>
        <time>2022-06-19T07:17:27+00:00</time>
      </trkpt>
      <trkpt lat="41.103931" lon="-3.468504">
        <ele>1293.09</ele>
        <time>2022-06-19T07:17:28+00:00</time>
      </trkpt>
      <trkpt lat="41.103802" lon="-3.468375">
        <ele>1292.61</ele>
        <time>2022-06-19T07:17:29+00:00</time>
      </trkpt>
      <trkpt lat="41.103652" lon="-3.468268">
        <ele>1292.61</ele>
        <time>2022-06-19T07:17:30+00:00</time>
      </trkpt>
      <trkpt lat="41.103502" lon="-3.468161">
        <ele>1292.13</ele>
        <time>2022-06-19T07:17:31+00:00</time>
      </trkpt>
      <trkpt lat="41.101935" lon="-3.467560">
        <ele>1286.84</ele>
        <time>2022-06-19T07:17:39+00:00</time>
      </trkpt>
      <trkpt lat="41.100948" lon="-3.466916">
        <ele>1280.11</ele>
        <time>2022-06-19T07:17:45+00:00</time>
      </trkpt>
      <trkpt lat="41.099854" lon="-3.465993">
        <ele>1273.86</ele>
        <time>2022-06-19T07:17:52+00:00</time>
      </trkpt>
      <trkpt lat="41.099060" lon="-3.465221">
        <ele>1269.06</ele>
        <time>2022-06-19T07:18:00+00:00</time>
      </trkpt>
      <trkpt lat="41.098867" lon="-3.464878">
        <ele>1268.10</ele>
        <time>2022-06-19T07:18:03+00:00</time>
      </trkpt>
      <trkpt lat="41.098803" lon="-3.464749">
        <ele>1267.61</ele>
        <time>2022-06-19T07:18:04+00:00</time>
      </trkpt>
      <trkpt lat="41.098738" lon="-3.464620">
        <ele>1268.10</ele>
        <time>2022-06-19T07:18:05+00:00</time>
      </trkpt>
      <trkpt lat="41.098674" lon="-3.464513">
        <ele>1268.10</ele>
        <time>2022-06-19T07:18:06+00:00</time>
      </trkpt>
      <trkpt lat="41.098652" lon="-3.464341">
        <ele>1268.58</ele>
        <time>2022-06-19T07:18:07+00:00</time>
      </trkpt>
      <trkpt lat="41.098631" lon="-3.464191">
        <ele>1269.06</ele>
        <time>2022-06-19T07:18:08+00:00</time>
      </trkpt>
      <trkpt lat="41.098652" lon="-3.464062">
        <ele>1269.06</ele>
        <time>2022-06-19T07:18:09+00:00</time>
      </trkpt>
      <trkpt lat="41.098695" lon="-3.463934">
        <ele>1269.54</ele>
        <time>2022-06-19T07:18:10+00:00</time>
      </trkpt>
      <trkpt lat="41.098738" lon="-3.463826">
        <ele>1270.02</ele>
        <time>2022-06-19T07:18:11+00:00</time>
      </trkpt>
      <trkpt lat="41.098803" lon="-3.463697">
        <ele>1270.50</ele>
        <time>2022-06-19T07:18:12+00:00</time>
      </trkpt>
      <trkpt lat="41.098888" lon="-3.463569">
        <ele>1270.98</ele>
        <time>2022-06-19T07:18:13+00:00</time>
      </trkpt>
      <trkpt lat="41.098953" lon="-3.463461">
        <ele>1271.46</ele>
        <time>2022-06-19T07:18:14+00:00</time>
      </trkpt>
      <trkpt lat="41.098996" lon="-3.463311">
        <ele>1271.94</ele>
        <time>2022-06-19T07:18:15+00:00</time>
      </trkpt>
      <trkpt lat="41.099425" lon="-3.462217">
        <ele>1273.86</ele>
        <time>2022-06-19T07:18:24+00:00</time>
      </trkpt>
      <trkpt lat="41.099768" lon="-3.461337">
        <ele>1274.82</ele>
        <time>2022-06-19T07:18:30+00:00</time>
      </trkpt>
      <trkpt lat="41.099790" lon="-3.461187">
        <ele>1275.30</ele>
        <time>2022-06-19T07:18:31+00:00</time>
      </trkpt>
      <trkpt lat="41.099768" lon="-3.461015">
        <ele>1275.79</ele>
        <time>2022-06-19T07:18:32+00:00</time>
      </trkpt>
      <trkpt lat="41.099725" lon="-3.460844">
        <ele>1276.27</ele>
        <time>2022-06-19T07:18:33+00:00</time>
      </trkpt>
      <trkpt lat="41.099661" lon="-3.460650">
        <ele>1276.27</ele>
        <time>2022-06-19T07:18:34+00:00</time>
      </trkpt>
      <trkpt lat="41.099489" lon="-3.460028">
        <ele>1277.71</ele>
        <time>2022-06-19T07:18:37+00:00</time>
      </trkpt>
      <trkpt lat="41.099468" lon="-3.459792">
        <ele>1277.71</ele>
        <time>2022-06-19T07:18:38+00:00</time>
      </trkpt>
      <trkpt lat="41.099425" lon="-3.459578">
        <ele>1278.19</ele>
        <time>2022-06-19T07:18:39+00:00</time>
      </trkpt>
      <trkpt lat="41.099403" lon="-3.458934">
        <ele>1279.63</ele>
        <time>2022-06-19T07:18:42+00:00</time>
      </trkpt>
      <trkpt lat="41.099360" lon="-3.458784">
        <ele>1280.59</ele>
        <time>2022-06-19T07:18:43+00:00</time>
      </trkpt>
      <trkpt lat="41.099275" lon="-3.458633">
        <ele>1281.07</ele>
        <time>2022-06-19T07:18:44+00:00</time>
      </trkpt>
      <trkpt lat="41.099189" lon="-3.458483">
        <ele>1281.55</ele>
        <time>2022-06-19T07:18:45+00:00</time>
      </trkpt>
      <trkpt lat="41.099060" lon="-3.458355">
        <ele>1282.03</ele>
        <time>2022-06-19T07:18:46+00:00</time>
      </trkpt>
      <trkpt lat="41.098159" lon="-3.457475">
        <ele>1283.48</ele>
        <time>2022-06-19T07:18:52+00:00</time>
      </trkpt>
      <trkpt lat="41.097987" lon="-3.457389">
        <ele>1283.48</ele>
        <time>2022-06-19T07:18:53+00:00</time>
      </trkpt>
      <trkpt lat="41.097837" lon="-3.457325">
        <ele>1283.00</ele>
        <time>2022-06-19T07:18:54+00:00</time>
      </trkpt>
      <trkpt lat="41.097687" lon="-3.457282">
        <ele>1282.51</ele>
        <time>2022-06-19T07:18:55+00:00</time>
      </trkpt>
      <trkpt lat="41.097537" lon="-3.457303">
        <ele>1282.51</ele>
        <time>2022-06-19T07:18:56+00:00</time>
      </trkpt>
      <trkpt lat="41.097408" lon="-3.457303">
        <ele>1282.51</ele>
        <time>2022-06-19T07:18:57+00:00</time>
      </trkpt>
      <trkpt lat="41.097258" lon="-3.457325">
        <ele>1282.51</ele>
        <time>2022-06-19T07:18:58+00:00</time>
      </trkpt>
      <trkpt lat="41.097107" lon="-3.457282">
        <ele>1282.51</ele>
        <time>2022-06-19T07:18:59+00:00</time>
      </trkpt>
      <trkpt lat="41.095777" lon="-3.456810">
        <ele>1281.55</ele>
        <time>2022-06-19T07:19:06+00:00</time>
      </trkpt>
      <trkpt lat="41.095005" lon="-3.456445">
        <ele>1280.59</ele>
        <time>2022-06-19T07:19:11+00:00</time>
      </trkpt>
      <trkpt lat="41.094833" lon="-3.456380">
        <ele>1277.23</ele>
        <time>2022-06-19T07:19:17+00:00</time>
      </trkpt>
      <trkpt lat="41.094404" lon="-3.456230">
        <ele>1275.79</ele>
        <time>2022-06-19T07:19:25+00:00</time>
      </trkpt>
      <trkpt lat="41.093309" lon="-3.455801">
        <ele>1272.90</ele>
        <time>2022-06-19T07:19:33+00:00</time>
      </trkpt>
      <trkpt lat="41.092773" lon="-3.455479">
        <ele>1270.50</ele>
        <time>2022-06-19T07:19:37+00:00</time>
      </trkpt>
      <trkpt lat="41.092623" lon="-3.455372">
        <ele>1270.02</ele>
        <time>2022-06-19T07:19:38+00:00</time>
      </trkpt>
      <trkpt lat="41.092494" lon="-3.455200">
        <ele>1269.54</ele>
        <time>2022-06-19T07:19:39+00:00</time>
      </trkpt>
      <trkpt lat="41.091357" lon="-3.453634">
        <ele>1269.54</ele>
        <time>2022-06-19T07:19:47+00:00</time>
      </trkpt>
      <trkpt lat="41.091185" lon="-3.453269">
        <ele>1269.54</ele>
        <time>2022-06-19T07:19:49+00:00</time>
      </trkpt>
      <trkpt lat="41.091121" lon="-3.453076">
        <ele>1269.54</ele>
        <time>2022-06-19T07:19:50+00:00</time>
      </trkpt>
      <trkpt lat="41.090606" lon="-3.451703">
        <ele>1270.02</ele>
        <time>2022-06-19T07:19:56+00:00</time>
      </trkpt>
      <trkpt lat="41.090413" lon="-3.451338">
        <ele>1270.02</ele>
        <time>2022-06-19T07:19:58+00:00</time>
      </trkpt>
      <trkpt lat="41.090305" lon="-3.451252">
        <ele>1270.02</ele>
        <time>2022-06-19T07:19:59+00:00</time>
      </trkpt>
      <trkpt lat="41.090155" lon="-3.451166">
        <ele>1270.02</ele>
        <time>2022-06-19T07:20:00+00:00</time>
      </trkpt>
      <trkpt lat="41.089061" lon="-3.450501">
        <ele>1269.06</ele>
        <time>2022-06-19T07:20:06+00:00</time>
      </trkpt>
      <trkpt lat="41.088803" lon="-3.450222">
        <ele>1268.58</ele>
        <time>2022-06-19T07:20:08+00:00</time>
      </trkpt>
      <trkpt lat="41.088696" lon="-3.450072">
        <ele>1268.10</ele>
        <time>2022-06-19T07:20:09+00:00</time>
      </trkpt>
      <trkpt lat="41.088610" lon="-3.449879">
        <ele>1268.10</ele>
        <time>2022-06-19T07:20:10+00:00</time>
      </trkpt>
      <trkpt lat="41.088567" lon="-3.449686">
        <ele>1268.10</ele>
        <time>2022-06-19T07:20:11+00:00</time>
      </trkpt>
      <trkpt lat="41.088524" lon="-3.449450">
        <ele>1267.61</ele>
        <time>2022-06-19T07:20:12+00:00</time>
      </trkpt>
      <trkpt lat="41.088460" lon="-3.449235">
        <ele>1267.61</ele>
        <time>2022-06-19T07:20:13+00:00</time>
      </trkpt>
      <trkpt lat="41.088374" lon="-3.448784">
        <ele>1266.65</ele>
        <time>2022-06-19T07:20:15+00:00</time>
      </trkpt>
      <trkpt lat="41.088396" lon="-3.448527">
        <ele>1265.69</ele>
        <time>2022-06-19T07:20:16+00:00</time>
      </trkpt>
      <trkpt lat="41.088417" lon="-3.448269">
        <ele>1265.69</ele>
        <time>2022-06-19T07:20:17+00:00</time>
      </trkpt>
      <trkpt lat="41.088696" lon="-3.445716">
        <ele>1260.89</ele>
        <time>2022-06-19T07:20:27+00:00</time>
      </trkpt>
      <trkpt lat="41.088996" lon="-3.444235">
        <ele>1256.08</ele>
        <time>2022-06-19T07:20:35+00:00</time>
      </trkpt>
      <trkpt lat="41.088975" lon="-3.444064">
        <ele>1255.60</ele>
        <time>2022-06-19T07:20:36+00:00</time>
      </trkpt>
      <trkpt lat="41.088953" lon="-3.443871">
        <ele>1255.60</ele>
        <time>2022-06-19T07:20:37+00:00</time>
      </trkpt>
      <trkpt lat="41.088846" lon="-3.442862">
        <ele>1256.08</ele>
        <time>2022-06-19T07:20:42+00:00</time>
      </trkpt>
      <trkpt lat="41.088889" lon="-3.442669">
        <ele>1256.08</ele>
        <time>2022-06-19T07:20:43+00:00</time>
      </trkpt>
      <trkpt lat="41.088953" lon="-3.442476">
        <ele>1255.60</ele>
        <time>2022-06-19T07:20:44+00:00</time>
      </trkpt>
      <trkpt lat="41.089039" lon="-3.442283">
        <ele>1255.12</ele>
        <time>2022-06-19T07:20:45+00:00</time>
      </trkpt>
      <trkpt lat="41.089125" lon="-3.442047">
        <ele>1254.64</ele>
        <time>2022-06-19T07:20:46+00:00</time>
      </trkpt>
      <trkpt lat="41.089919" lon="-3.440223">
        <ele>1249.83</ele>
        <time>2022-06-19T07:20:54+00:00</time>
      </trkpt>
      <trkpt lat="41.090692" lon="-3.438828">
        <ele>1243.10</ele>
        <time>2022-06-19T07:21:01+00:00</time>
      </trkpt>
      <trkpt lat="41.090799" lon="-3.438699">
        <ele>1242.62</ele>
        <time>2022-06-19T07:21:02+00:00</time>
      </trkpt>
      <trkpt lat="41.090906" lon="-3.438592">
        <ele>1243.10</ele>
        <time>2022-06-19T07:21:03+00:00</time>
      </trkpt>
      <trkpt lat="41.091013" lon="-3.438506">
        <ele>1243.58</ele>
        <time>2022-06-19T07:21:04+00:00</time>
      </trkpt>
      <trkpt lat="41.091292" lon="-3.438249">
        <ele>1244.54</ele>
        <time>2022-06-19T07:21:07+00:00</time>
      </trkpt>
      <trkpt lat="41.091357" lon="-3.438077">
        <ele>1245.02</ele>
        <time>2022-06-19T07:21:08+00:00</time>
      </trkpt>
      <trkpt lat="41.091400" lon="-3.437927">
        <ele>1245.50</ele>
        <time>2022-06-19T07:21:09+00:00</time>
      </trkpt>
      <trkpt lat="41.091378" lon="-3.437820">
        <ele>1245.50</ele>
        <time>2022-06-19T07:21:10+00:00</time>
      </trkpt>
      <trkpt lat="41.091357" lon="-3.437712">
        <ele>1245.50</ele>
        <time>2022-06-19T07:21:11+00:00</time>
      </trkpt>
      <trkpt lat="41.091292" lon="-3.437583">
        <ele>1245.02</ele>
        <time>2022-06-19T07:21:12+00:00</time>
      </trkpt>
      <trkpt lat="41.091228" lon="-3.437412">
        <ele>1245.02</ele>
        <time>2022-06-19T07:21:13+00:00</time>
      </trkpt>
      <trkpt lat="41.091185" lon="-3.437219">
        <ele>1244.54</ele>
        <time>2022-06-19T07:21:14+00:00</time>
      </trkpt>
      <trkpt lat="41.091164" lon="-3.437004">
        <ele>1244.06</ele>
        <time>2022-06-19T07:21:15+00:00</time>
      </trkpt>
      <trkpt lat="41.091142" lon="-3.436747">
        <ele>1243.58</ele>
        <time>2022-06-19T07:21:16+00:00</time>
      </trkpt>
      <trkpt lat="41.091035" lon="-3.434944">
        <ele>1238.29</ele>
        <time>2022-06-19T07:21:24+00:00</time>
      </trkpt>
      <trkpt lat="41.091078" lon="-3.434815">
        <ele>1237.81</ele>
        <time>2022-06-19T07:21:25+00:00</time>
      </trkpt>
      <trkpt lat="41.091121" lon="-3.434665">
        <ele>1237.33</ele>
        <time>2022-06-19T07:21:26+00:00</time>
      </trkpt>
      <trkpt lat="41.091185" lon="-3.434601">
        <ele>1236.37</ele>
        <time>2022-06-19T07:21:27+00:00</time>
      </trkpt>
      <trkpt lat="41.091292" lon="-3.434515">
        <ele>1235.89</ele>
        <time>2022-06-19T07:21:28+00:00</time>
      </trkpt>
      <trkpt lat="41.091421" lon="-3.434429">
        <ele>1234.93</ele>
        <time>2022-06-19T07:21:29+00:00</time>
      </trkpt>
      <trkpt lat="41.091571" lon="-3.434386">
        <ele>1233.97</ele>
        <time>2022-06-19T07:21:30+00:00</time>
      </trkpt>
      <trkpt lat="41.091829" lon="-3.434279">
        <ele>1232.53</ele>
        <time>2022-06-19T07:21:32+00:00</time>
      </trkpt>
      <trkpt lat="41.091958" lon="-3.434300">
        <ele>1231.08</ele>
        <time>2022-06-19T07:21:33+00:00</time>
      </trkpt>
      <trkpt lat="41.092108" lon="-3.434343">
        <ele>1229.64</ele>
        <time>2022-06-19T07:21:34+00:00</time>
      </trkpt>
      <trkpt lat="41.092237" lon="-3.434429">
        <ele>1228.68</ele>
        <time>2022-06-19T07:21:35+00:00</time>
      </trkpt>
      <trkpt lat="41.092365" lon="-3.434536">
        <ele>1226.76</ele>
        <time>2022-06-19T07:21:36+00:00</time>
      </trkpt>
      <trkpt lat="41.092473" lon="-3.434665">
        <ele>1225.32</ele>
        <time>2022-06-19T07:21:37+00:00</time>
      </trkpt>
      <trkpt lat="41.092601" lon="-3.434858">
        <ele>1223.87</ele>
        <time>2022-06-19T07:21:38+00:00</time>
      </trkpt>
      <trkpt lat="41.092709" lon="-3.435030">
        <ele>1222.43</ele>
        <time>2022-06-19T07:21:39+00:00</time>
      </trkpt>
      <trkpt lat="41.093224" lon="-3.435760">
        <ele>1215.22</ele>
        <time>2022-06-19T07:21:44+00:00</time>
      </trkpt>
      <trkpt lat="41.093331" lon="-3.435824">
        <ele>1213.78</ele>
        <time>2022-06-19T07:21:45+00:00</time>
      </trkpt>
      <trkpt lat="41.093395" lon="-3.435845">
        <ele>1213.30</ele>
        <time>2022-06-19T07:21:46+00:00</time>
      </trkpt>
      <trkpt lat="41.093524" lon="-3.435781">
        <ele>1212.82</ele>
        <time>2022-06-19T07:21:47+00:00</time>
      </trkpt>
      <trkpt lat="41.093631" lon="-3.435738">
        <ele>1212.34</ele>
        <time>2022-06-19T07:21:48+00:00</time>
      </trkpt>
      <trkpt lat="41.093760" lon="-3.435609">
        <ele>1211.86</ele>
        <time>2022-06-19T07:21:49+00:00</time>
      </trkpt>
      <trkpt lat="41.093910" lon="-3.435459">
        <ele>1211.86</ele>
        <time>2022-06-19T07:21:50+00:00</time>
      </trkpt>
      <trkpt lat="41.095005" lon="-3.434494">
        <ele>1208.49</ele>
        <time>2022-06-19T07:21:58+00:00</time>
      </trkpt>
      <trkpt lat="41.095069" lon="-3.434386">
        <ele>1208.01</ele>
        <time>2022-06-19T07:21:59+00:00</time>
      </trkpt>
      <trkpt lat="41.095133" lon="-3.434279">
        <ele>1207.53</ele>
        <time>2022-06-19T07:22:00+00:00</time>
      </trkpt>
      <trkpt lat="41.095155" lon="-3.434150">
        <ele>1206.57</ele>
        <time>2022-06-19T07:22:01+00:00</time>
      </trkpt>
      <trkpt lat="41.095155" lon="-3.434000">
        <ele>1206.09</ele>
        <time>2022-06-19T07:22:02+00:00</time>
      </trkpt>
      <trkpt lat="41.095112" lon="-3.433807">
        <ele>1205.61</ele>
        <time>2022-06-19T07:22:03+00:00</time>
      </trkpt>
      <trkpt lat="41.095005" lon="-3.433421">
        <ele>1204.17</ele>
        <time>2022-06-19T07:22:05+00:00</time>
      </trkpt>
      <trkpt lat="41.094962" lon="-3.433270">
        <ele>1203.21</ele>
        <time>2022-06-19T07:22:06+00:00</time>
      </trkpt>
      <trkpt lat="41.094897" lon="-3.433185">
        <ele>1202.73</ele>
        <time>2022-06-19T07:22:07+00:00</time>
      </trkpt>
      <trkpt lat="41.094790" lon="-3.433120">
        <ele>1202.25</ele>
        <time>2022-06-19T07:22:08+00:00</time>
      </trkpt>
      <trkpt lat="41.094683" lon="-3.433056">
        <ele>1201.76</ele>
        <time>2022-06-19T07:22:09+00:00</time>
      </trkpt>
      <trkpt lat="41.094575" lon="-3.432992">
        <ele>1200.80</ele>
        <time>2022-06-19T07:22:10+00:00</time>
      </trkpt>
      <trkpt lat="41.094490" lon="-3.432820">
        <ele>1200.32</ele>
        <time>2022-06-19T07:22:11+00:00</time>
      </trkpt>
      <trkpt lat="41.094425" lon="-3.432648">
        <ele>1199.36</ele>
        <time>2022-06-19T07:22:12+00:00</time>
      </trkpt>
      <trkpt lat="41.094339" lon="-3.432477">
        <ele>1198.40</ele>
        <time>2022-06-19T07:22:13+00:00</time>
      </trkpt>
      <trkpt lat="41.094296" lon="-3.432305">
        <ele>1197.44</ele>
        <time>2022-06-19T07:22:14+00:00</time>
      </trkpt>
      <trkpt lat="41.094296" lon="-3.432090">
        <ele>1196.48</ele>
        <time>2022-06-19T07:22:15+00:00</time>
      </trkpt>
      <trkpt lat="41.094275" lon="-3.431876">
        <ele>1195.52</ele>
        <time>2022-06-19T07:22:16+00:00</time>
      </trkpt>
      <trkpt lat="41.094232" lon="-3.431339">
        <ele>1193.11</ele>
        <time>2022-06-19T07:22:19+00:00</time>
      </trkpt>
      <trkpt lat="41.094211" lon="-3.431168">
        <ele>1192.15</ele>
        <time>2022-06-19T07:22:20+00:00</time>
      </trkpt>
      <trkpt lat="41.094125" lon="-3.431039">
        <ele>1191.67</ele>
        <time>2022-06-19T07:22:21+00:00</time>
      </trkpt>
      <trkpt lat="41.094018" lon="-3.430889">
        <ele>1190.71</ele>
        <time>2022-06-19T07:22:22+00:00</time>
      </trkpt>
      <trkpt lat="41.093889" lon="-3.430738">
        <ele>1189.75</ele>
        <time>2022-06-19T07:22:23+00:00</time>
      </trkpt>
      <trkpt lat="41.093739" lon="-3.430588">
        <ele>1188.79</ele>
        <time>2022-06-19T07:22:24+00:00</time>
      </trkpt>
      <trkpt lat="41.093073" lon="-3.429923">
        <ele>1183.98</ele>
        <time>2022-06-19T07:22:30+00:00</time>
      </trkpt>
      <trkpt lat="41.093009" lon="-3.429794">
        <ele>1183.02</ele>
        <time>2022-06-19T07:22:31+00:00</time>
      </trkpt>
      <trkpt lat="41.092988" lon="-3.429709">
        <ele>1182.06</ele>
        <time>2022-06-19T07:22:32+00:00</time>
      </trkpt>
      <trkpt lat="41.093030" lon="-3.429558">
        <ele>1180.62</ele>
        <time>2022-06-19T07:22:33+00:00</time>
      </trkpt>
      <trkpt lat="41.093073" lon="-3.429387">
        <ele>1179.65</ele>
        <time>2022-06-19T07:22:34+00:00</time>
      </trkpt>
      <trkpt lat="41.093138" lon="-3.429194">
        <ele>1178.21</ele>
        <time>2022-06-19T07:22:35+00:00</time>
      </trkpt>
      <trkpt lat="41.093159" lon="-3.428958">
        <ele>1177.25</ele>
        <time>2022-06-19T07:22:36+00:00</time>
      </trkpt>
      <trkpt lat="41.093181" lon="-3.428743">
        <ele>1175.81</ele>
        <time>2022-06-19T07:22:37+00:00</time>
      </trkpt>
      <trkpt lat="41.093181" lon="-3.428550">
        <ele>1174.85</ele>
        <time>2022-06-19T07:22:38+00:00</time>
      </trkpt>
      <trkpt lat="41.093181" lon="-3.428271">
        <ele>1173.41</ele>
        <time>2022-06-19T07:22:40+00:00</time>
      </trkpt>
      <trkpt lat="41.093245" lon="-3.428164">
        <ele>1172.44</ele>
        <time>2022-06-19T07:22:41+00:00</time>
      </trkpt>
      <trkpt lat="41.093288" lon="-3.428056">
        <ele>1171.96</ele>
        <time>2022-06-19T07:22:42+00:00</time>
      </trkpt>
      <trkpt lat="41.093417" lon="-3.428013">
        <ele>1170.52</ele>
        <time>2022-06-19T07:22:43+00:00</time>
      </trkpt>
      <trkpt lat="41.093567" lon="-3.427970">
        <ele>1169.08</ele>
        <time>2022-06-19T07:22:44+00:00</time>
      </trkpt>
      <trkpt lat="41.093717" lon="-3.427949">
        <ele>1168.12</ele>
        <time>2022-06-19T07:22:45+00:00</time>
      </trkpt>
      <trkpt lat="41.093846" lon="-3.427949">
        <ele>1167.16</ele>
        <time>2022-06-19T07:22:46+00:00</time>
      </trkpt>
      <trkpt lat="41.093953" lon="-3.427949">
        <ele>1166.20</ele>
        <time>2022-06-19T07:22:47+00:00</time>
      </trkpt>
      <trkpt lat="41.093996" lon="-3.427928">
        <ele>1165.23</ele>
        <time>2022-06-19T07:22:48+00:00</time>
      </trkpt>
      <trkpt lat="41.094039" lon="-3.427863">
        <ele>1164.75</ele>
        <time>2022-06-19T07:22:49+00:00</time>
      </trkpt>
      <trkpt lat="41.094060" lon="-3.427777">
        <ele>1164.27</ele>
        <time>2022-06-19T07:22:50+00:00</time>
      </trkpt>
      <trkpt lat="41.094060" lon="-3.427691">
        <ele>1163.31</ele>
        <time>2022-06-19T07:22:51+00:00</time>
      </trkpt>
      <trkpt lat="41.094018" lon="-3.427606">
        <ele>1163.31</ele>
        <time>2022-06-19T07:22:52+00:00</time>
      </trkpt>
      <trkpt lat="41.093889" lon="-3.427541">
        <ele>1162.83</ele>
        <time>2022-06-19T07:22:53+00:00</time>
      </trkpt>
      <trkpt lat="41.093760" lon="-3.427455">
        <ele>1161.87</ele>
        <time>2022-06-19T07:22:54+00:00</time>
      </trkpt>
      <trkpt lat="41.093460" lon="-3.427284">
        <ele>1159.95</ele>
        <time>2022-06-19T07:22:57+00:00</time>
      </trkpt>
      <trkpt lat="41.093374" lon="-3.427198">
        <ele>1159.47</ele>
        <time>2022-06-19T07:22:58+00:00</time>
      </trkpt>
      <trkpt lat="41.093331" lon="-3.427048">
        <ele>1158.51</ele>
        <time>2022-06-19T07:22:59+00:00</time>
      </trkpt>
      <trkpt lat="41.093266" lon="-3.426876">
        <ele>1158.03</ele>
        <time>2022-06-19T07:23:00+00:00</time>
      </trkpt>
      <trkpt lat="41.093224" lon="-3.426704">
        <ele>1157.54</ele>
        <time>2022-06-19T07:23:01+00:00</time>
      </trkpt>
      <trkpt lat="41.093138" lon="-3.426318">
        <ele>1156.10</ele>
        <time>2022-06-19T07:23:04+00:00</time>
      </trkpt>
      <trkpt lat="41.093095" lon="-3.426254">
        <ele>1156.10</ele>
        <time>2022-06-19T07:23:05+00:00</time>
      </trkpt>
      <trkpt lat="41.093030" lon="-3.426189">
        <ele>1156.10</ele>
        <time>2022-06-19T07:23:06+00:00</time>
      </trkpt>
      <trkpt lat="41.092945" lon="-3.426168">
        <ele>1155.62</ele>
        <time>2022-06-19T07:23:07+00:00</time>
      </trkpt>
      <trkpt lat="41.092859" lon="-3.426211">
        <ele>1155.62</ele>
        <time>2022-06-19T07:23:08+00:00</time>
      </trkpt>
      <trkpt lat="41.092794" lon="-3.426232">
        <ele>1155.62</ele>
        <time>2022-06-19T07:23:09+00:00</time>
      </trkpt>
      <trkpt lat="41.092752" lon="-3.426404">
        <ele>1155.62</ele>
        <time>2022-06-19T07:23:10+00:00</time>
      </trkpt>
      <trkpt lat="41.092773" lon="-3.426533">
        <ele>1155.62</ele>
        <time>2022-06-19T07:23:11+00:00</time>
      </trkpt>
      <trkpt lat="41.092794" lon="-3.426683">
        <ele>1155.62</ele>
        <time>2022-06-19T07:23:12+00:00</time>
      </trkpt>
      <trkpt lat="41.092837" lon="-3.427005">
        <ele>1155.62</ele>
        <time>2022-06-19T07:23:14+00:00</time>
      </trkpt>
      <trkpt lat="41.092837" lon="-3.427091">
        <ele>1155.62</ele>
        <time>2022-06-19T07:23:15+00:00</time>
      </trkpt>
      <trkpt lat="41.092773" lon="-3.427219">
        <ele>1156.10</ele>
        <time>2022-06-19T07:23:16+00:00</time>
      </trkpt>
      <trkpt lat="41.092709" lon="-3.427370">
        <ele>1156.58</ele>
        <time>2022-06-19T07:23:17+00:00</time>
      </trkpt>
      <trkpt lat="41.092580" lon="-3.427477">
        <ele>1156.58</ele>
        <time>2022-06-19T07:23:18+00:00</time>
      </trkpt>
      <trkpt lat="41.092451" lon="-3.427627">
        <ele>1157.06</ele>
        <time>2022-06-19T07:23:19+00:00</time>
      </trkpt>
      <trkpt lat="41.092344" lon="-3.427777">
        <ele>1157.54</ele>
        <time>2022-06-19T07:23:20+00:00</time>
      </trkpt>
      <trkpt lat="41.092258" lon="-3.427970">
        <ele>1158.51</ele>
        <time>2022-06-19T07:23:21+00:00</time>
      </trkpt>
      <trkpt lat="41.092194" lon="-3.428142">
        <ele>1158.99</ele>
        <time>2022-06-19T07:23:22+00:00</time>
      </trkpt>
      <trkpt lat="41.092129" lon="-3.428271">
        <ele>1159.47</ele>
        <time>2022-06-19T07:23:23+00:00</time>
      </trkpt>
      <trkpt lat="41.092022" lon="-3.428378">
        <ele>1159.95</ele>
        <time>2022-06-19T07:23:24+00:00</time>
      </trkpt>
      <trkpt lat="41.091915" lon="-3.428485">
        <ele>1160.91</ele>
        <time>2022-06-19T07:23:25+00:00</time>
      </trkpt>
      <trkpt lat="41.091829" lon="-3.428528">
        <ele>1161.39</ele>
        <time>2022-06-19T07:23:26+00:00</time>
      </trkpt>
      <trkpt lat="41.091700" lon="-3.428571">
        <ele>1162.35</ele>
        <time>2022-06-19T07:23:27+00:00</time>
      </trkpt>
      <trkpt lat="41.091528" lon="-3.428614">
        <ele>1163.79</ele>
        <time>2022-06-19T07:23:28+00:00</time>
      </trkpt>
      <trkpt lat="41.091378" lon="-3.428657">
        <ele>1164.27</ele>
        <time>2022-06-19T07:23:29+00:00</time>
      </trkpt>
      <trkpt lat="41.091207" lon="-3.428721">
        <ele>1165.72</ele>
        <time>2022-06-19T07:23:30+00:00</time>
      </trkpt>
      <trkpt lat="41.090692" lon="-3.428893">
        <ele>1170.04</ele>
        <time>2022-06-19T07:23:34+00:00</time>
      </trkpt>
      <trkpt lat="41.090606" lon="-3.428915">
        <ele>1171.00</ele>
        <time>2022-06-19T07:23:35+00:00</time>
      </trkpt>
      <trkpt lat="41.090520" lon="-3.428850">
        <ele>1171.48</ele>
        <time>2022-06-19T07:23:36+00:00</time>
      </trkpt>
      <trkpt lat="41.090498" lon="-3.428743">
        <ele>1172.44</ele>
        <time>2022-06-19T07:23:37+00:00</time>
      </trkpt>
      <trkpt lat="41.090477" lon="-3.428636">
        <ele>1172.93</ele>
        <time>2022-06-19T07:23:38+00:00</time>
      </trkpt>
      <trkpt lat="41.090477" lon="-3.428571">
        <ele>1173.41</ele>
        <time>2022-06-19T07:23:39+00:00</time>
      </trkpt>
      <trkpt lat="41.090477" lon="-3.428528">
        <ele>1173.89</ele>
        <time>2022-06-19T07:23:40+00:00</time>
      </trkpt>
      <trkpt lat="41.090477" lon="-3.428528">
        <ele>1174.37</ele>
        <time>2022-06-19T07:23:41+00:00</time>
      </trkpt>
      <trkpt lat="41.090477" lon="-3.428528">
        <ele>1175.81</ele>
        <time>2022-06-19T07:23:45+00:00</time>
      </trkpt>
      <trkpt lat="41.090434" lon="-3.428485">
        <ele>1176.29</ele>
        <time>2022-06-19T07:23:46+00:00</time>
      </trkpt>
      <trkpt lat="41.090413" lon="-3.428443">
        <ele>1177.25</ele>
        <time>2022-06-19T07:23:47+00:00</time>
      </trkpt>
      <trkpt lat="41.090370" lon="-3.428421">
        <ele>1177.73</ele>
        <time>2022-06-19T07:23:48+00:00</time>
      </trkpt>
      <trkpt lat="41.090305" lon="-3.428357">
        <ele>1177.73</ele>
        <time>2022-06-19T07:23:49+00:00</time>
      </trkpt>
      <trkpt lat="41.090069" lon="-3.428099">
        <ele>1178.69</ele>
        <time>2022-06-19T07:23:52+00:00</time>
      </trkpt>
      <trkpt lat="41.089855" lon="-3.427928">
        <ele>1178.69</ele>
        <time>2022-06-19T07:23:54+00:00</time>
      </trkpt>
      <trkpt lat="41.089726" lon="-3.427863">
        <ele>1178.69</ele>
        <time>2022-06-19T07:23:55+00:00</time>
      </trkpt>
      <trkpt lat="41.088975" lon="-3.427541">
        <ele>1175.81</ele>
        <time>2022-06-19T07:24:01+00:00</time>
      </trkpt>
      <trkpt lat="41.088846" lon="-3.427606">
        <ele>1174.85</ele>
        <time>2022-06-19T07:24:02+00:00</time>
      </trkpt>
      <trkpt lat="41.088696" lon="-3.427649">
        <ele>1173.89</ele>
        <time>2022-06-19T07:24:03+00:00</time>
      </trkpt>
      <trkpt lat="41.088245" lon="-3.427799">
        <ele>1171.00</ele>
        <time>2022-06-19T07:24:06+00:00</time>
      </trkpt>
      <trkpt lat="41.088095" lon="-3.427906">
        <ele>1170.04</ele>
        <time>2022-06-19T07:24:07+00:00</time>
      </trkpt>
      <trkpt lat="41.087387" lon="-3.428400">
        <ele>1163.79</ele>
        <time>2022-06-19T07:24:12+00:00</time>
      </trkpt>
      <trkpt lat="41.087087" lon="-3.428507">
        <ele>1161.39</ele>
        <time>2022-06-19T07:24:14+00:00</time>
      </trkpt>
      <trkpt lat="41.086936" lon="-3.428593">
        <ele>1159.95</ele>
        <time>2022-06-19T07:24:15+00:00</time>
      </trkpt>
      <trkpt lat="41.086808" lon="-3.428721">
        <ele>1158.99</ele>
        <time>2022-06-19T07:24:16+00:00</time>
      </trkpt>
      <trkpt lat="41.086443" lon="-3.429086">
        <ele>1155.14</ele>
        <time>2022-06-19T07:24:19+00:00</time>
      </trkpt>
      <trkpt lat="41.086078" lon="-3.429537">
        <ele>1149.85</ele>
        <time>2022-06-19T07:24:23+00:00</time>
      </trkpt>
      <trkpt lat="41.085992" lon="-3.429580">
        <ele>1148.41</ele>
        <time>2022-06-19T07:24:24+00:00</time>
      </trkpt>
      <trkpt lat="41.085907" lon="-3.429601">
        <ele>1147.45</ele>
        <time>2022-06-19T07:24:25+00:00</time>
      </trkpt>
      <trkpt lat="41.085799" lon="-3.429558">
        <ele>1146.01</ele>
        <time>2022-06-19T07:24:26+00:00</time>
      </trkpt>
      <trkpt lat="41.085670" lon="-3.429494">
        <ele>1144.57</ele>
        <time>2022-06-19T07:24:27+00:00</time>
      </trkpt>
      <trkpt lat="41.085520" lon="-3.429430">
        <ele>1143.12</ele>
        <time>2022-06-19T07:24:28+00:00</time>
      </trkpt>
      <trkpt lat="41.085370" lon="-3.429344">
        <ele>1141.68</ele>
        <time>2022-06-19T07:24:29+00:00</time>
      </trkpt>
      <trkpt lat="41.085198" lon="-3.429301">
        <ele>1140.24</ele>
        <time>2022-06-19T07:24:30+00:00</time>
      </trkpt>
      <trkpt lat="41.085048" lon="-3.429279">
        <ele>1139.28</ele>
        <time>2022-06-19T07:24:31+00:00</time>
      </trkpt>
      <trkpt lat="41.084662" lon="-3.429215">
        <ele>1134.95</ele>
        <time>2022-06-19T07:24:34+00:00</time>
      </trkpt>
      <trkpt lat="41.084555" lon="-3.429236">
        <ele>1133.99</ele>
        <time>2022-06-19T07:24:35+00:00</time>
      </trkpt>
      <trkpt lat="41.084447" lon="-3.429322">
        <ele>1132.55</ele>
        <time>2022-06-19T07:24:36+00:00</time>
      </trkpt>
      <trkpt lat="41.083718" lon="-3.429859">
        <ele>1129.19</ele>
        <time>2022-06-19T07:24:42+00:00</time>
      </trkpt>
      <trkpt lat="41.083611" lon="-3.429966">
        <ele>1128.71</ele>
        <time>2022-06-19T07:24:43+00:00</time>
      </trkpt>
      <trkpt lat="41.083546" lon="-3.430073">
        <ele>1128.71</ele>
        <time>2022-06-19T07:24:44+00:00</time>
      </trkpt>
      <trkpt lat="41.083482" lon="-3.430181">
        <ele>1128.71</ele>
        <time>2022-06-19T07:24:45+00:00</time>
      </trkpt>
      <trkpt lat="41.083482" lon="-3.430309">
        <ele>1128.71</ele>
        <time>2022-06-19T07:24:46+00:00</time>
      </trkpt>
      <trkpt lat="41.083482" lon="-3.430481">
        <ele>1128.71</ele>
        <time>2022-06-19T07:24:47+00:00</time>
      </trkpt>
      <trkpt lat="41.083546" lon="-3.430653">
        <ele>1128.71</ele>
        <time>2022-06-19T07:24:48+00:00</time>
      </trkpt>
      <trkpt lat="41.083632" lon="-3.430803">
        <ele>1129.19</ele>
        <time>2022-06-19T07:24:49+00:00</time>
      </trkpt>
      <trkpt lat="41.083718" lon="-3.430953">
        <ele>1129.19</ele>
        <time>2022-06-19T07:24:50+00:00</time>
      </trkpt>
      <trkpt lat="41.083825" lon="-3.431082">
        <ele>1129.19</ele>
        <time>2022-06-19T07:24:51+00:00</time>
      </trkpt>
      <trkpt lat="41.083932" lon="-3.431189">
        <ele>1129.19</ele>
        <time>2022-06-19T07:24:52+00:00</time>
      </trkpt>
      <trkpt lat="41.083997" lon="-3.431296">
        <ele>1129.67</ele>
        <time>2022-06-19T07:24:53+00:00</time>
      </trkpt>
      <trkpt lat="41.084040" lon="-3.431447">
        <ele>1129.67</ele>
        <time>2022-06-19T07:24:54+00:00</time>
      </trkpt>
      <trkpt lat="41.084061" lon="-3.431618">
        <ele>1129.67</ele>
        <time>2022-06-19T07:24:55+00:00</time>
      </trkpt>
      <trkpt lat="41.084061" lon="-3.431790">
        <ele>1130.15</ele>
        <time>2022-06-19T07:24:56+00:00</time>
      </trkpt>
      <trkpt lat="41.084040" lon="-3.431983">
        <ele>1130.63</ele>
        <time>2022-06-19T07:24:57+00:00</time>
      </trkpt>
      <trkpt lat="41.083975" lon="-3.432155">
        <ele>1131.11</ele>
        <time>2022-06-19T07:24:58+00:00</time>
      </trkpt>
      <trkpt lat="41.083868" lon="-3.432369">
        <ele>1131.59</ele>
        <time>2022-06-19T07:24:59+00:00</time>
      </trkpt>
      <trkpt lat="41.083782" lon="-3.432562">
        <ele>1132.07</ele>
        <time>2022-06-19T07:25:00+00:00</time>
      </trkpt>
      <trkpt lat="41.083439" lon="-3.433850">
        <ele>1135.91</ele>
        <time>2022-06-19T07:25:06+00:00</time>
      </trkpt>
      <trkpt lat="41.083417" lon="-3.434086">
        <ele>1136.88</ele>
        <time>2022-06-19T07:25:07+00:00</time>
      </trkpt>
      <trkpt lat="41.083417" lon="-3.434300">
        <ele>1137.36</ele>
        <time>2022-06-19T07:25:08+00:00</time>
      </trkpt>
      <trkpt lat="41.083439" lon="-3.434515">
        <ele>1138.32</ele>
        <time>2022-06-19T07:25:09+00:00</time>
      </trkpt>
      <trkpt lat="41.083460" lon="-3.434730">
        <ele>1138.80</ele>
        <time>2022-06-19T07:25:10+00:00</time>
      </trkpt>
      <trkpt lat="41.083525" lon="-3.434880">
        <ele>1139.28</ele>
        <time>2022-06-19T07:25:11+00:00</time>
      </trkpt>
      <trkpt lat="41.083611" lon="-3.435030">
        <ele>1139.76</ele>
        <time>2022-06-19T07:25:12+00:00</time>
      </trkpt>
      <trkpt lat="41.083653" lon="-3.435159">
        <ele>1139.76</ele>
        <time>2022-06-19T07:25:13+00:00</time>
      </trkpt>
      <trkpt lat="41.083718" lon="-3.435288">
        <ele>1140.24</ele>
        <time>2022-06-19T07:25:14+00:00</time>
      </trkpt>
      <trkpt lat="41.083718" lon="-3.435395">
        <ele>1140.72</ele>
        <time>2022-06-19T07:25:15+00:00</time>
      </trkpt>
      <trkpt lat="41.083696" lon="-3.435545">
        <ele>1141.20</ele>
        <time>2022-06-19T07:25:16+00:00</time>
      </trkpt>
      <trkpt lat="41.083653" lon="-3.435674">
        <ele>1142.16</ele>
        <time>2022-06-19T07:25:17+00:00</time>
      </trkpt>
      <trkpt lat="41.083546" lon="-3.435802">
        <ele>1142.16</ele>
        <time>2022-06-19T07:25:18+00:00</time>
      </trkpt>
      <trkpt lat="41.083439" lon="-3.435974">
        <ele>1142.64</ele>
        <time>2022-06-19T07:25:19+00:00</time>
      </trkpt>
      <trkpt lat="41.082473" lon="-3.437026">
        <ele>1144.09</ele>
        <time>2022-06-19T07:25:26+00:00</time>
      </trkpt>
      <trkpt lat="41.082023" lon="-3.437605">
        <ele>1145.05</ele>
        <time>2022-06-19T07:25:30+00:00</time>
      </trkpt>
      <trkpt lat="41.081980" lon="-3.437777">
        <ele>1145.53</ele>
        <time>2022-06-19T07:25:31+00:00</time>
      </trkpt>
      <trkpt lat="41.081958" lon="-3.437948">
        <ele>1146.01</ele>
        <time>2022-06-19T07:25:32+00:00</time>
      </trkpt>
      <trkpt lat="41.081937" lon="-3.438141">
        <ele>1146.97</ele>
        <time>2022-06-19T07:25:33+00:00</time>
      </trkpt>
      <trkpt lat="41.081937" lon="-3.438313">
        <ele>1147.45</ele>
        <time>2022-06-19T07:25:34+00:00</time>
      </trkpt>
      <trkpt lat="41.081915" lon="-3.438485">
        <ele>1147.93</ele>
        <time>2022-06-19T07:25:35+00:00</time>
      </trkpt>
      <trkpt lat="41.081872" lon="-3.438635">
        <ele>1148.41</ele>
        <time>2022-06-19T07:25:36+00:00</time>
      </trkpt>
      <trkpt lat="41.081765" lon="-3.438764">
        <ele>1148.89</ele>
        <time>2022-06-19T07:25:37+00:00</time>
      </trkpt>
      <trkpt lat="41.081636" lon="-3.438871">
        <ele>1149.37</ele>
        <time>2022-06-19T07:25:38+00:00</time>
      </trkpt>
      <trkpt lat="41.081486" lon="-3.438978">
        <ele>1149.85</ele>
        <time>2022-06-19T07:25:39+00:00</time>
      </trkpt>
      <trkpt lat="41.081336" lon="-3.439086">
        <ele>1149.85</ele>
        <time>2022-06-19T07:25:40+00:00</time>
      </trkpt>
      <trkpt lat="41.080950" lon="-3.439450">
        <ele>1150.33</ele>
        <time>2022-06-19T07:25:43+00:00</time>
      </trkpt>
      <trkpt lat="41.080885" lon="-3.439622">
        <ele>1150.82</ele>
        <time>2022-06-19T07:25:44+00:00</time>
      </trkpt>
      <trkpt lat="41.080864" lon="-3.439772">
        <ele>1150.82</ele>
        <time>2022-06-19T07:25:45+00:00</time>
      </trkpt>
      <trkpt lat="41.080842" lon="-3.439922">
        <ele>1151.30</ele>
        <time>2022-06-19T07:25:46+00:00</time>
      </trkpt>
      <trkpt lat="41.080885" lon="-3.440051">
        <ele>1151.78</ele>
        <time>2022-06-19T07:25:47+00:00</time>
      </trkpt>
      <trkpt lat="41.080971" lon="-3.440223">
        <ele>1152.26</ele>
        <time>2022-06-19T07:25:48+00:00</time>
      </trkpt>
      <trkpt lat="41.081057" lon="-3.440373">
        <ele>1152.26</ele>
        <time>2022-06-19T07:25:49+00:00</time>
      </trkpt>
      <trkpt lat="41.081164" lon="-3.440545">
        <ele>1152.74</ele>
        <time>2022-06-19T07:25:50+00:00</time>
      </trkpt>
      <trkpt lat="41.081293" lon="-3.440673">
        <ele>1152.74</ele>
        <time>2022-06-19T07:25:51+00:00</time>
      </trkpt>
      <trkpt lat="41.081400" lon="-3.440781">
        <ele>1153.22</ele>
        <time>2022-06-19T07:25:52+00:00</time>
      </trkpt>
      <trkpt lat="41.081529" lon="-3.440867">
        <ele>1153.70</ele>
        <time>2022-06-19T07:25:53+00:00</time>
      </trkpt>
      <trkpt lat="41.081615" lon="-3.440952">
        <ele>1154.66</ele>
        <time>2022-06-19T07:25:54+00:00</time>
      </trkpt>
      <trkpt lat="41.081658" lon="-3.441060">
        <ele>1155.14</ele>
        <time>2022-06-19T07:25:55+00:00</time>
      </trkpt>
      <trkpt lat="41.081701" lon="-3.441188">
        <ele>1156.10</ele>
        <time>2022-06-19T07:25:56+00:00</time>
      </trkpt>
      <trkpt lat="41.081701" lon="-3.441360">
        <ele>1156.58</ele>
        <time>2022-06-19T07:25:57+00:00</time>
      </trkpt>
      <trkpt lat="41.081701" lon="-3.441575">
        <ele>1158.03</ele>
        <time>2022-06-19T07:25:58+00:00</time>
      </trkpt>
      <trkpt lat="41.081701" lon="-3.441789">
        <ele>1158.51</ele>
        <time>2022-06-19T07:25:59+00:00</time>
      </trkpt>
      <trkpt lat="41.081787" lon="-3.443162">
        <ele>1164.27</ele>
        <time>2022-06-19T07:26:06+00:00</time>
      </trkpt>
      <trkpt lat="41.081851" lon="-3.443506">
        <ele>1165.72</ele>
        <time>2022-06-19T07:26:09+00:00</time>
      </trkpt>
      <trkpt lat="41.081851" lon="-3.443613">
        <ele>1166.20</ele>
        <time>2022-06-19T07:26:10+00:00</time>
      </trkpt>
      <trkpt lat="41.081830" lon="-3.443720">
        <ele>1167.16</ele>
        <time>2022-06-19T07:26:11+00:00</time>
      </trkpt>
      <trkpt lat="41.081830" lon="-3.443828">
        <ele>1167.64</ele>
        <time>2022-06-19T07:26:12+00:00</time>
      </trkpt>
      <trkpt lat="41.081787" lon="-3.443913">
        <ele>1168.12</ele>
        <time>2022-06-19T07:26:13+00:00</time>
      </trkpt>
      <trkpt lat="41.081744" lon="-3.444021">
        <ele>1168.60</ele>
        <time>2022-06-19T07:26:14+00:00</time>
      </trkpt>
      <trkpt lat="41.081636" lon="-3.444128">
        <ele>1169.08</ele>
        <time>2022-06-19T07:26:15+00:00</time>
      </trkpt>
      <trkpt lat="41.081529" lon="-3.444257">
        <ele>1169.56</ele>
        <time>2022-06-19T07:26:16+00:00</time>
      </trkpt>
      <trkpt lat="41.080842" lon="-3.445115">
        <ele>1173.89</ele>
        <time>2022-06-19T07:26:22+00:00</time>
      </trkpt>
      <trkpt lat="41.080757" lon="-3.445265">
        <ele>1174.85</ele>
        <time>2022-06-19T07:26:23+00:00</time>
      </trkpt>
      <trkpt lat="41.080349" lon="-3.446960">
        <ele>1181.58</ele>
        <time>2022-06-19T07:26:31+00:00</time>
      </trkpt>
      <trkpt lat="41.080285" lon="-3.448012">
        <ele>1186.86</ele>
        <time>2022-06-19T07:26:37+00:00</time>
      </trkpt>
      <trkpt lat="41.080263" lon="-3.448141">
        <ele>1187.34</ele>
        <time>2022-06-19T07:26:38+00:00</time>
      </trkpt>
      <trkpt lat="41.080220" lon="-3.448248">
        <ele>1187.83</ele>
        <time>2022-06-19T07:26:39+00:00</time>
      </trkpt>
      <trkpt lat="41.080134" lon="-3.448334">
        <ele>1187.83</ele>
        <time>2022-06-19T07:26:40+00:00</time>
      </trkpt>
      <trkpt lat="41.080006" lon="-3.448398">
        <ele>1188.31</ele>
        <time>2022-06-19T07:26:41+00:00</time>
      </trkpt>
      <trkpt lat="41.079877" lon="-3.448484">
        <ele>1188.79</ele>
        <time>2022-06-19T07:26:42+00:00</time>
      </trkpt>
      <trkpt lat="41.079705" lon="-3.448570">
        <ele>1189.27</ele>
        <time>2022-06-19T07:26:43+00:00</time>
      </trkpt>
      <trkpt lat="41.079276" lon="-3.448806">
        <ele>1191.67</ele>
        <time>2022-06-19T07:26:46+00:00</time>
      </trkpt>
      <trkpt lat="41.079147" lon="-3.448913">
        <ele>1192.63</ele>
        <time>2022-06-19T07:26:47+00:00</time>
      </trkpt>
      <trkpt lat="41.079040" lon="-3.449042">
        <ele>1193.59</ele>
        <time>2022-06-19T07:26:48+00:00</time>
      </trkpt>
      <trkpt lat="41.078954" lon="-3.449214">
        <ele>1194.55</ele>
        <time>2022-06-19T07:26:49+00:00</time>
      </trkpt>
      <trkpt lat="41.078868" lon="-3.449407">
        <ele>1195.52</ele>
        <time>2022-06-19T07:26:50+00:00</time>
      </trkpt>
      <trkpt lat="41.078718" lon="-3.449729">
        <ele>1197.44</ele>
        <time>2022-06-19T07:26:52+00:00</time>
      </trkpt>
      <trkpt lat="41.078611" lon="-3.449857">
        <ele>1198.40</ele>
        <time>2022-06-19T07:26:53+00:00</time>
      </trkpt>
      <trkpt lat="41.078504" lon="-3.449965">
        <ele>1199.36</ele>
        <time>2022-06-19T07:26:54+00:00</time>
      </trkpt>
      <trkpt lat="41.078396" lon="-3.450029">
        <ele>1199.84</ele>
        <time>2022-06-19T07:26:55+00:00</time>
      </trkpt>
      <trkpt lat="41.078268" lon="-3.450115">
        <ele>1200.80</ele>
        <time>2022-06-19T07:26:56+00:00</time>
      </trkpt>
      <trkpt lat="41.078117" lon="-3.450201">
        <ele>1201.76</ele>
        <time>2022-06-19T07:26:57+00:00</time>
      </trkpt>
      <trkpt lat="41.077452" lon="-3.450673">
        <ele>1207.05</ele>
        <time>2022-06-19T07:27:02+00:00</time>
      </trkpt>
      <trkpt lat="41.077366" lon="-3.450801">
        <ele>1208.01</ele>
        <time>2022-06-19T07:27:03+00:00</time>
      </trkpt>
      <trkpt lat="41.077281" lon="-3.450952">
        <ele>1208.97</ele>
        <time>2022-06-19T07:27:04+00:00</time>
      </trkpt>
      <trkpt lat="41.077195" lon="-3.451102">
        <ele>1209.94</ele>
        <time>2022-06-19T07:27:05+00:00</time>
      </trkpt>
      <trkpt lat="41.077087" lon="-3.451231">
        <ele>1210.90</ele>
        <time>2022-06-19T07:27:06+00:00</time>
      </trkpt>
      <trkpt lat="41.076959" lon="-3.451338">
        <ele>1211.38</ele>
        <time>2022-06-19T07:27:07+00:00</time>
      </trkpt>
      <trkpt lat="41.076830" lon="-3.451424">
        <ele>1211.86</ele>
        <time>2022-06-19T07:27:08+00:00</time>
      </trkpt>
      <trkpt lat="41.075864" lon="-3.451982">
        <ele>1218.11</ele>
        <time>2022-06-19T07:27:16+00:00</time>
      </trkpt>
      <trkpt lat="41.075757" lon="-3.452089">
        <ele>1218.59</ele>
        <time>2022-06-19T07:27:17+00:00</time>
      </trkpt>
      <trkpt lat="41.074641" lon="-3.453205">
        <ele>1224.36</ele>
        <time>2022-06-19T07:27:25+00:00</time>
      </trkpt>
      <trkpt lat="41.073697" lon="-3.454342">
        <ele>1231.08</ele>
        <time>2022-06-19T07:27:32+00:00</time>
      </trkpt>
      <trkpt lat="41.073547" lon="-3.454492">
        <ele>1232.05</ele>
        <time>2022-06-19T07:27:33+00:00</time>
      </trkpt>
      <trkpt lat="41.073440" lon="-3.454664">
        <ele>1233.49</ele>
        <time>2022-06-19T07:27:34+00:00</time>
      </trkpt>
      <trkpt lat="41.072989" lon="-3.455329">
        <ele>1237.33</ele>
        <time>2022-06-19T07:27:38+00:00</time>
      </trkpt>
      <trkpt lat="41.072860" lon="-3.455479">
        <ele>1238.29</ele>
        <time>2022-06-19T07:27:39+00:00</time>
      </trkpt>
      <trkpt lat="41.072066" lon="-3.456295">
        <ele>1245.02</ele>
        <time>2022-06-19T07:27:45+00:00</time>
      </trkpt>
      <trkpt lat="41.071980" lon="-3.456466">
        <ele>1246.47</ele>
        <time>2022-06-19T07:27:46+00:00</time>
      </trkpt>
      <trkpt lat="41.071659" lon="-3.457325">
        <ele>1252.71</ele>
        <time>2022-06-19T07:27:51+00:00</time>
      </trkpt>
      <trkpt lat="41.071573" lon="-3.457432">
        <ele>1253.68</ele>
        <time>2022-06-19T07:27:52+00:00</time>
      </trkpt>
      <trkpt lat="41.071465" lon="-3.457539">
        <ele>1254.64</ele>
        <time>2022-06-19T07:27:53+00:00</time>
      </trkpt>
      <trkpt lat="41.071337" lon="-3.457625">
        <ele>1255.60</ele>
        <time>2022-06-19T07:27:54+00:00</time>
      </trkpt>
      <trkpt lat="41.071251" lon="-3.457668">
        <ele>1256.56</ele>
        <time>2022-06-19T07:27:55+00:00</time>
      </trkpt>
      <trkpt lat="41.071208" lon="-3.457754">
        <ele>1257.04</ele>
        <time>2022-06-19T07:27:56+00:00</time>
      </trkpt>
      <trkpt lat="41.071165" lon="-3.457861">
        <ele>1258.00</ele>
        <time>2022-06-19T07:27:57+00:00</time>
      </trkpt>
      <trkpt lat="41.071187" lon="-3.458011">
        <ele>1258.96</ele>
        <time>2022-06-19T07:27:58+00:00</time>
      </trkpt>
      <trkpt lat="41.071208" lon="-3.458183">
        <ele>1259.44</ele>
        <time>2022-06-19T07:27:59+00:00</time>
      </trkpt>
      <trkpt lat="41.071187" lon="-3.458355">
        <ele>1259.92</ele>
        <time>2022-06-19T07:28:00+00:00</time>
      </trkpt>
      <trkpt lat="41.071165" lon="-3.458548">
        <ele>1260.40</ele>
        <time>2022-06-19T07:28:01+00:00</time>
      </trkpt>
      <trkpt lat="41.071144" lon="-3.458762">
        <ele>1260.89</ele>
        <time>2022-06-19T07:28:02+00:00</time>
      </trkpt>
      <trkpt lat="41.071079" lon="-3.459427">
        <ele>1262.81</ele>
        <time>2022-06-19T07:28:05+00:00</time>
      </trkpt>
      <trkpt lat="41.071101" lon="-3.459621">
        <ele>1263.29</ele>
        <time>2022-06-19T07:28:06+00:00</time>
      </trkpt>
      <trkpt lat="41.071165" lon="-3.460028">
        <ele>1264.25</ele>
        <time>2022-06-19T07:28:09+00:00</time>
      </trkpt>
      <trkpt lat="41.071208" lon="-3.460093">
        <ele>1264.73</ele>
        <time>2022-06-19T07:28:10+00:00</time>
      </trkpt>
      <trkpt lat="41.071272" lon="-3.460136">
        <ele>1264.73</ele>
        <time>2022-06-19T07:28:11+00:00</time>
      </trkpt>
      <trkpt lat="41.071358" lon="-3.460114">
        <ele>1265.21</ele>
        <time>2022-06-19T07:28:12+00:00</time>
      </trkpt>
      <trkpt lat="41.071423" lon="-3.460050">
        <ele>1265.21</ele>
        <time>2022-06-19T07:28:13+00:00</time>
      </trkpt>
      <trkpt lat="41.071487" lon="-3.459899">
        <ele>1265.21</ele>
        <time>2022-06-19T07:28:14+00:00</time>
      </trkpt>
      <trkpt lat="41.071573" lon="-3.459749">
        <ele>1265.21</ele>
        <time>2022-06-19T07:28:15+00:00</time>
      </trkpt>
      <trkpt lat="41.071659" lon="-3.459599">
        <ele>1265.21</ele>
        <time>2022-06-19T07:28:16+00:00</time>
      </trkpt>
      <trkpt lat="41.071744" lon="-3.459427">
        <ele>1265.69</ele>
        <time>2022-06-19T07:28:17+00:00</time>
      </trkpt>
      <trkpt lat="41.071830" lon="-3.459277">
        <ele>1266.17</ele>
        <time>2022-06-19T07:28:18+00:00</time>
      </trkpt>
      <trkpt lat="41.071938" lon="-3.459127">
        <ele>1266.17</ele>
        <time>2022-06-19T07:28:19+00:00</time>
      </trkpt>
      <trkpt lat="41.072066" lon="-3.458998">
        <ele>1266.65</ele>
        <time>2022-06-19T07:28:20+00:00</time>
      </trkpt>
      <trkpt lat="41.072195" lon="-3.458869">
        <ele>1266.65</ele>
        <time>2022-06-19T07:28:21+00:00</time>
      </trkpt>
      <trkpt lat="41.072302" lon="-3.458762">
        <ele>1267.13</ele>
        <time>2022-06-19T07:28:22+00:00</time>
      </trkpt>
      <trkpt lat="41.072431" lon="-3.458698">
        <ele>1267.61</ele>
        <time>2022-06-19T07:28:23+00:00</time>
      </trkpt>
      <trkpt lat="41.072560" lon="-3.458633">
        <ele>1268.10</ele>
        <time>2022-06-19T07:28:24+00:00</time>
      </trkpt>
      <trkpt lat="41.072968" lon="-3.458483">
        <ele>1269.54</ele>
        <time>2022-06-19T07:28:28+00:00</time>
      </trkpt>
      <trkpt lat="41.073096" lon="-3.458505">
        <ele>1270.02</ele>
        <time>2022-06-19T07:28:29+00:00</time>
      </trkpt>
      <trkpt lat="41.073204" lon="-3.458526">
        <ele>1270.50</ele>
        <time>2022-06-19T07:28:30+00:00</time>
      </trkpt>
      <trkpt lat="41.073332" lon="-3.458569">
        <ele>1270.98</ele>
        <time>2022-06-19T07:28:31+00:00</time>
      </trkpt>
      <trkpt lat="41.073440" lon="-3.458591">
        <ele>1271.46</ele>
        <time>2022-06-19T07:28:32+00:00</time>
      </trkpt>
      <trkpt lat="41.073525" lon="-3.458569">
        <ele>1271.46</ele>
        <time>2022-06-19T07:28:33+00:00</time>
      </trkpt>
      <trkpt lat="41.073590" lon="-3.458569">
        <ele>1271.94</ele>
        <time>2022-06-19T07:28:34+00:00</time>
      </trkpt>
      <trkpt lat="41.073676" lon="-3.458505">
        <ele>1271.46</ele>
        <time>2022-06-19T07:28:35+00:00</time>
      </trkpt>
      <trkpt lat="41.073783" lon="-3.458419">
        <ele>1271.94</ele>
        <time>2022-06-19T07:28:36+00:00</time>
      </trkpt>
      <trkpt lat="41.073912" lon="-3.458312">
        <ele>1271.94</ele>
        <time>2022-06-19T07:28:37+00:00</time>
      </trkpt>
      <trkpt lat="41.074298" lon="-3.458097">
        <ele>1272.42</ele>
        <time>2022-06-19T07:28:40+00:00</time>
      </trkpt>
      <trkpt lat="41.074427" lon="-3.458054">
        <ele>1272.42</ele>
        <time>2022-06-19T07:28:41+00:00</time>
      </trkpt>
      <trkpt lat="41.074555" lon="-3.458011">
        <ele>1272.42</ele>
        <time>2022-06-19T07:28:42+00:00</time>
      </trkpt>
      <trkpt lat="41.075049" lon="-3.457968">
        <ele>1275.79</ele>
        <time>2022-06-19T07:28:46+00:00</time>
      </trkpt>
      <trkpt lat="41.075135" lon="-3.457882">
        <ele>1276.75</ele>
        <time>2022-06-19T07:28:47+00:00</time>
      </trkpt>
      <trkpt lat="41.075886" lon="-3.457217">
        <ele>1285.40</ele>
        <time>2022-06-19T07:28:54+00:00</time>
      </trkpt>
      <trkpt lat="41.075929" lon="-3.457196">
        <ele>1286.36</ele>
        <time>2022-06-19T07:28:55+00:00</time>
      </trkpt>
      <trkpt lat="41.075993" lon="-3.457217">
        <ele>1287.32</ele>
        <time>2022-06-19T07:28:56+00:00</time>
      </trkpt>
      <trkpt lat="41.076057" lon="-3.457260">
        <ele>1288.28</ele>
        <time>2022-06-19T07:28:57+00:00</time>
      </trkpt>
      <trkpt lat="41.076057" lon="-3.457325">
        <ele>1289.24</ele>
        <time>2022-06-19T07:28:58+00:00</time>
      </trkpt>
      <trkpt lat="41.076036" lon="-3.457432">
        <ele>1290.21</ele>
        <time>2022-06-19T07:28:59+00:00</time>
      </trkpt>
      <trkpt lat="41.075972" lon="-3.457539">
        <ele>1291.17</ele>
        <time>2022-06-19T07:29:00+00:00</time>
      </trkpt>
      <trkpt lat="41.075886" lon="-3.457646">
        <ele>1292.61</ele>
        <time>2022-06-19T07:29:01+00:00</time>
      </trkpt>
      <trkpt lat="41.075800" lon="-3.457754">
        <ele>1294.05</ele>
        <time>2022-06-19T07:29:02+00:00</time>
      </trkpt>
      <trkpt lat="41.075757" lon="-3.457925">
        <ele>1295.97</ele>
        <time>2022-06-19T07:29:03+00:00</time>
      </trkpt>
      <trkpt lat="41.075714" lon="-3.458140">
        <ele>1297.90</ele>
        <time>2022-06-19T07:29:04+00:00</time>
      </trkpt>
      <trkpt lat="41.075671" lon="-3.458333">
        <ele>1299.34</ele>
        <time>2022-06-19T07:29:05+00:00</time>
      </trkpt>
      <trkpt lat="41.075585" lon="-3.458505">
        <ele>1301.26</ele>
        <time>2022-06-19T07:29:06+00:00</time>
      </trkpt>
      <trkpt lat="41.075521" lon="-3.458676">
        <ele>1302.70</ele>
        <time>2022-06-19T07:29:07+00:00</time>
      </trkpt>
      <trkpt lat="41.075135" lon="-3.459320">
        <ele>1309.43</ele>
        <time>2022-06-19T07:29:11+00:00</time>
      </trkpt>
      <trkpt lat="41.075006" lon="-3.459406">
        <ele>1310.87</ele>
        <time>2022-06-19T07:29:12+00:00</time>
      </trkpt>
      <trkpt lat="41.074856" lon="-3.459470">
        <ele>1312.32</ele>
        <time>2022-06-19T07:29:13+00:00</time>
      </trkpt>
      <trkpt lat="41.074534" lon="-3.459556">
        <ele>1315.68</ele>
        <time>2022-06-19T07:29:15+00:00</time>
      </trkpt>
      <trkpt lat="41.074384" lon="-3.459642">
        <ele>1317.60</ele>
        <time>2022-06-19T07:29:16+00:00</time>
      </trkpt>
      <trkpt lat="41.074255" lon="-3.459749">
        <ele>1319.04</ele>
        <time>2022-06-19T07:29:17+00:00</time>
      </trkpt>
      <trkpt lat="41.074126" lon="-3.459835">
        <ele>1320.97</ele>
        <time>2022-06-19T07:29:18+00:00</time>
      </trkpt>
      <trkpt lat="41.074040" lon="-3.459985">
        <ele>1322.41</ele>
        <time>2022-06-19T07:29:19+00:00</time>
      </trkpt>
      <trkpt lat="41.073933" lon="-3.460136">
        <ele>1324.33</ele>
        <time>2022-06-19T07:29:20+00:00</time>
      </trkpt>
      <trkpt lat="41.073397" lon="-3.461058">
        <ele>1332.02</ele>
        <time>2022-06-19T07:29:25+00:00</time>
      </trkpt>
      <trkpt lat="41.073332" lon="-3.461208">
        <ele>1333.95</ele>
        <time>2022-06-19T07:29:26+00:00</time>
      </trkpt>
      <trkpt lat="41.073354" lon="-3.461359">
        <ele>1335.39</ele>
        <time>2022-06-19T07:29:27+00:00</time>
      </trkpt>
      <trkpt lat="41.073375" lon="-3.461530">
        <ele>1337.31</ele>
        <time>2022-06-19T07:29:28+00:00</time>
      </trkpt>
      <trkpt lat="41.073418" lon="-3.461680">
        <ele>1339.23</ele>
        <time>2022-06-19T07:29:29+00:00</time>
      </trkpt>
      <trkpt lat="41.073483" lon="-3.461874">
        <ele>1340.67</ele>
        <time>2022-06-19T07:29:30+00:00</time>
      </trkpt>
      <trkpt lat="41.073740" lon="-3.462668">
        <ele>1346.92</ele>
        <time>2022-06-19T07:29:34+00:00</time>
      </trkpt>
      <trkpt lat="41.073719" lon="-3.462904">
        <ele>1348.36</ele>
        <time>2022-06-19T07:29:35+00:00</time>
      </trkpt>
      <trkpt lat="41.073719" lon="-3.463140">
        <ele>1349.81</ele>
        <time>2022-06-19T07:29:36+00:00</time>
      </trkpt>
      <trkpt lat="41.073633" lon="-3.464298">
        <ele>1358.46</ele>
        <time>2022-06-19T07:29:41+00:00</time>
      </trkpt>
      <trkpt lat="41.073568" lon="-3.464448">
        <ele>1359.90</ele>
        <time>2022-06-19T07:29:42+00:00</time>
      </trkpt>
      <trkpt lat="41.073483" lon="-3.464599">
        <ele>1361.34</ele>
        <time>2022-06-19T07:29:43+00:00</time>
      </trkpt>
      <trkpt lat="41.073354" lon="-3.464685">
        <ele>1362.78</ele>
        <time>2022-06-19T07:29:44+00:00</time>
      </trkpt>
      <trkpt lat="41.073225" lon="-3.464792">
        <ele>1364.23</ele>
        <time>2022-06-19T07:29:45+00:00</time>
      </trkpt>
      <trkpt lat="41.073096" lon="-3.464878">
        <ele>1365.67</ele>
        <time>2022-06-19T07:29:46+00:00</time>
      </trkpt>
      <trkpt lat="41.072968" lon="-3.464985">
        <ele>1367.59</ele>
        <time>2022-06-19T07:29:47+00:00</time>
      </trkpt>
      <trkpt lat="41.072882" lon="-3.465135">
        <ele>1369.03</ele>
        <time>2022-06-19T07:29:48+00:00</time>
      </trkpt>
      <trkpt lat="41.072817" lon="-3.465328">
        <ele>1370.96</ele>
        <time>2022-06-19T07:29:49+00:00</time>
      </trkpt>
      <trkpt lat="41.072753" lon="-3.465521">
        <ele>1372.40</ele>
        <time>2022-06-19T07:29:50+00:00</time>
      </trkpt>
      <trkpt lat="41.072689" lon="-3.465714">
        <ele>1373.84</ele>
        <time>2022-06-19T07:29:51+00:00</time>
      </trkpt>
      <trkpt lat="41.072667" lon="-3.465908">
        <ele>1375.76</ele>
        <time>2022-06-19T07:29:52+00:00</time>
      </trkpt>
      <trkpt lat="41.072667" lon="-3.466101">
        <ele>1377.20</ele>
        <time>2022-06-19T07:29:53+00:00</time>
      </trkpt>
      <trkpt lat="41.072667" lon="-3.466659">
        <ele>1381.53</ele>
        <time>2022-06-19T07:29:56+00:00</time>
      </trkpt>
      <trkpt lat="41.072731" lon="-3.466830">
        <ele>1382.49</ele>
        <time>2022-06-19T07:29:57+00:00</time>
      </trkpt>
      <trkpt lat="41.072796" lon="-3.467002">
        <ele>1383.93</ele>
        <time>2022-06-19T07:29:58+00:00</time>
      </trkpt>
      <trkpt lat="41.073096" lon="-3.467753">
        <ele>1389.22</ele>
        <time>2022-06-19T07:30:02+00:00</time>
      </trkpt>
      <trkpt lat="41.073118" lon="-3.467946">
        <ele>1390.18</ele>
        <time>2022-06-19T07:30:03+00:00</time>
      </trkpt>
      <trkpt lat="41.073118" lon="-3.468161">
        <ele>1391.14</ele>
        <time>2022-06-19T07:30:04+00:00</time>
      </trkpt>
      <trkpt lat="41.073096" lon="-3.468332">
        <ele>1392.58</ele>
        <time>2022-06-19T07:30:05+00:00</time>
      </trkpt>
      <trkpt lat="41.073010" lon="-3.468504">
        <ele>1393.55</ele>
        <time>2022-06-19T07:30:06+00:00</time>
      </trkpt>
      <trkpt lat="41.072946" lon="-3.468676">
        <ele>1394.99</ele>
        <time>2022-06-19T07:30:07+00:00</time>
      </trkpt>
      <trkpt lat="41.072882" lon="-3.468804">
        <ele>1395.95</ele>
        <time>2022-06-19T07:30:08+00:00</time>
      </trkpt>
      <trkpt lat="41.072860" lon="-3.468912">
        <ele>1396.91</ele>
        <time>2022-06-19T07:30:09+00:00</time>
      </trkpt>
      <trkpt lat="41.072882" lon="-3.468998">
        <ele>1397.87</ele>
        <time>2022-06-19T07:30:10+00:00</time>
      </trkpt>
      <trkpt lat="41.072946" lon="-3.469019">
        <ele>1399.31</ele>
        <time>2022-06-19T07:30:11+00:00</time>
      </trkpt>
      <trkpt lat="41.073032" lon="-3.469040">
        <ele>1400.28</ele>
        <time>2022-06-19T07:30:12+00:00</time>
      </trkpt>
      <trkpt lat="41.073118" lon="-3.468976">
        <ele>1401.72</ele>
        <time>2022-06-19T07:30:13+00:00</time>
      </trkpt>
      <trkpt lat="41.073204" lon="-3.468826">
        <ele>1402.68</ele>
        <time>2022-06-19T07:30:14+00:00</time>
      </trkpt>
      <trkpt lat="41.073289" lon="-3.468676">
        <ele>1403.16</ele>
        <time>2022-06-19T07:30:15+00:00</time>
      </trkpt>
      <trkpt lat="41.073633" lon="-3.468139">
        <ele>1405.08</ele>
        <time>2022-06-19T07:30:19+00:00</time>
      </trkpt>
      <trkpt lat="41.073697" lon="-3.468075">
        <ele>1405.56</ele>
        <time>2022-06-19T07:30:20+00:00</time>
      </trkpt>
      <trkpt lat="41.073740" lon="-3.468053">
        <ele>1406.04</ele>
        <time>2022-06-19T07:30:21+00:00</time>
      </trkpt>
      <trkpt lat="41.073804" lon="-3.468118">
        <ele>1406.52</ele>
        <time>2022-06-19T07:30:22+00:00</time>
      </trkpt>
      <trkpt lat="41.073826" lon="-3.468161">
        <ele>1407.49</ele>
        <time>2022-06-19T07:30:23+00:00</time>
      </trkpt>
      <trkpt lat="41.073847" lon="-3.468289">
        <ele>1407.97</ele>
        <time>2022-06-19T07:30:24+00:00</time>
      </trkpt>
      <trkpt lat="41.073783" lon="-3.468418">
        <ele>1408.45</ele>
        <time>2022-06-19T07:30:25+00:00</time>
      </trkpt>
      <trkpt lat="41.073697" lon="-3.468547">
        <ele>1408.93</ele>
        <time>2022-06-19T07:30:26+00:00</time>
      </trkpt>
      <trkpt lat="41.073354" lon="-3.469212">
        <ele>1411.81</ele>
        <time>2022-06-19T07:30:30+00:00</time>
      </trkpt>
      <trkpt lat="41.073268" lon="-3.469405">
        <ele>1413.25</ele>
        <time>2022-06-19T07:30:31+00:00</time>
      </trkpt>
      <trkpt lat="41.073246" lon="-3.469620">
        <ele>1414.70</ele>
        <time>2022-06-19T07:30:32+00:00</time>
      </trkpt>
      <trkpt lat="41.073032" lon="-3.471251">
        <ele>1423.83</ele>
        <time>2022-06-19T07:30:39+00:00</time>
      </trkpt>
      <trkpt lat="41.072968" lon="-3.471465">
        <ele>1425.27</ele>
        <time>2022-06-19T07:30:40+00:00</time>
      </trkpt>
      <trkpt lat="41.072903" lon="-3.471680">
        <ele>1426.71</ele>
        <time>2022-06-19T07:30:41+00:00</time>
      </trkpt>
      <trkpt lat="41.072796" lon="-3.471851">
        <ele>1428.15</ele>
        <time>2022-06-19T07:30:42+00:00</time>
      </trkpt>
      <trkpt lat="41.072667" lon="-3.472023">
        <ele>1429.60</ele>
        <time>2022-06-19T07:30:43+00:00</time>
      </trkpt>
      <trkpt lat="41.072538" lon="-3.472152">
        <ele>1431.04</ele>
        <time>2022-06-19T07:30:44+00:00</time>
      </trkpt>
      <trkpt lat="41.072388" lon="-3.472302">
        <ele>1432.00</ele>
        <time>2022-06-19T07:30:45+00:00</time>
      </trkpt>
      <trkpt lat="41.072217" lon="-3.472452">
        <ele>1433.44</ele>
        <time>2022-06-19T07:30:46+00:00</time>
      </trkpt>
      <trkpt lat="41.072023" lon="-3.472581">
        <ele>1434.88</ele>
        <time>2022-06-19T07:30:47+00:00</time>
      </trkpt>
      <trkpt lat="41.071830" lon="-3.472688">
        <ele>1436.32</ele>
        <time>2022-06-19T07:30:48+00:00</time>
      </trkpt>
      <trkpt lat="41.071637" lon="-3.472817">
        <ele>1437.77</ele>
        <time>2022-06-19T07:30:49+00:00</time>
      </trkpt>
      <trkpt lat="41.071465" lon="-3.472924">
        <ele>1438.73</ele>
        <time>2022-06-19T07:30:50+00:00</time>
      </trkpt>
      <trkpt lat="41.071294" lon="-3.473074">
        <ele>1440.17</ele>
        <time>2022-06-19T07:30:51+00:00</time>
      </trkpt>
      <trkpt lat="41.071122" lon="-3.473246">
        <ele>1441.13</ele>
        <time>2022-06-19T07:30:52+00:00</time>
      </trkpt>
      <trkpt lat="41.070564" lon="-3.473954">
        <ele>1446.90</ele>
        <time>2022-06-19T07:30:56+00:00</time>
      </trkpt>
      <trkpt lat="41.070457" lon="-3.474126">
        <ele>1448.82</ele>
        <time>2022-06-19T07:30:57+00:00</time>
      </trkpt>
      <trkpt lat="41.070264" lon="-3.474512">
        <ele>1451.71</ele>
        <time>2022-06-19T07:30:59+00:00</time>
      </trkpt>
      <trkpt lat="41.070157" lon="-3.474662">
        <ele>1453.15</ele>
        <time>2022-06-19T07:31:00+00:00</time>
      </trkpt>
      <trkpt lat="41.070028" lon="-3.474770">
        <ele>1455.07</ele>
        <time>2022-06-19T07:31:01+00:00</time>
      </trkpt>
      <trkpt lat="41.069921" lon="-3.474877">
        <ele>1456.51</ele>
        <time>2022-06-19T07:31:02+00:00</time>
      </trkpt>
      <trkpt lat="41.069813" lon="-3.474877">
        <ele>1457.47</ele>
        <time>2022-06-19T07:31:03+00:00</time>
      </trkpt>
      <trkpt lat="41.069663" lon="-3.474855">
        <ele>1458.92</ele>
        <time>2022-06-19T07:31:04+00:00</time>
      </trkpt>
      <trkpt lat="41.069513" lon="-3.474834">
        <ele>1459.88</ele>
        <time>2022-06-19T07:31:05+00:00</time>
      </trkpt>
      <trkpt lat="41.069341" lon="-3.474727">
        <ele>1461.32</ele>
        <time>2022-06-19T07:31:06+00:00</time>
      </trkpt>
      <trkpt lat="41.069191" lon="-3.474641">
        <ele>1462.28</ele>
        <time>2022-06-19T07:31:07+00:00</time>
      </trkpt>
      <trkpt lat="41.068998" lon="-3.474534">
        <ele>1463.24</ele>
        <time>2022-06-19T07:31:08+00:00</time>
      </trkpt>
      <trkpt lat="41.068826" lon="-3.474426">
        <ele>1464.20</ele>
        <time>2022-06-19T07:31:09+00:00</time>
      </trkpt>
      <trkpt lat="41.068011" lon="-3.474040">
        <ele>1470.93</ele>
        <time>2022-06-19T07:31:14+00:00</time>
      </trkpt>
      <trkpt lat="41.067904" lon="-3.474019">
        <ele>1472.37</ele>
        <time>2022-06-19T07:31:15+00:00</time>
      </trkpt>
      <trkpt lat="41.067796" lon="-3.474062">
        <ele>1473.82</ele>
        <time>2022-06-19T07:31:16+00:00</time>
      </trkpt>
      <trkpt lat="41.067710" lon="-3.474083">
        <ele>1474.78</ele>
        <time>2022-06-19T07:31:17+00:00</time>
      </trkpt>
      <trkpt lat="41.067625" lon="-3.474169">
        <ele>1475.74</ele>
        <time>2022-06-19T07:31:18+00:00</time>
      </trkpt>
      <trkpt lat="41.067539" lon="-3.474233">
        <ele>1476.70</ele>
        <time>2022-06-19T07:31:19+00:00</time>
      </trkpt>
      <trkpt lat="41.067453" lon="-3.474319">
        <ele>1477.66</ele>
        <time>2022-06-19T07:31:20+00:00</time>
      </trkpt>
      <trkpt lat="41.067367" lon="-3.474319">
        <ele>1477.66</ele>
        <time>2022-06-19T07:31:21+00:00</time>
      </trkpt>
      <trkpt lat="41.067260" lon="-3.474340">
        <ele>1477.66</ele>
        <time>2022-06-19T07:31:22+00:00</time>
      </trkpt>
      <trkpt lat="41.067174" lon="-3.474340">
        <ele>1477.66</ele>
        <time>2022-06-19T07:31:23+00:00</time>
      </trkpt>
      <trkpt lat="41.067067" lon="-3.474340">
        <ele>1477.18</ele>
        <time>2022-06-19T07:31:24+00:00</time>
      </trkpt>
      <trkpt lat="41.066230" lon="-3.474298">
        <ele>1470.45</ele>
        <time>2022-06-19T07:31:33+00:00</time>
      </trkpt>
      <trkpt lat="41.066101" lon="-3.474276">
        <ele>1469.97</ele>
        <time>2022-06-19T07:31:34+00:00</time>
      </trkpt>
      <trkpt lat="41.065114" lon="-3.473911">
        <ele>1463.24</ele>
        <time>2022-06-19T07:31:41+00:00</time>
      </trkpt>
      <trkpt lat="41.064985" lon="-3.473911">
        <ele>1462.28</ele>
        <time>2022-06-19T07:31:42+00:00</time>
      </trkpt>
      <trkpt lat="41.064878" lon="-3.473911">
        <ele>1461.32</ele>
        <time>2022-06-19T07:31:43+00:00</time>
      </trkpt>
      <trkpt lat="41.064749" lon="-3.473933">
        <ele>1460.36</ele>
        <time>2022-06-19T07:31:44+00:00</time>
      </trkpt>
      <trkpt lat="41.064620" lon="-3.473933">
        <ele>1459.40</ele>
        <time>2022-06-19T07:31:45+00:00</time>
      </trkpt>
      <trkpt lat="41.064470" lon="-3.473911">
        <ele>1458.92</ele>
        <time>2022-06-19T07:31:46+00:00</time>
      </trkpt>
      <trkpt lat="41.062968" lon="-3.473504">
        <ele>1447.86</ele>
        <time>2022-06-19T07:31:55+00:00</time>
      </trkpt>
      <trkpt lat="41.061359" lon="-3.473096">
        <ele>1434.40</ele>
        <time>2022-06-19T07:32:05+00:00</time>
      </trkpt>
      <trkpt lat="41.060050" lon="-3.473053">
        <ele>1423.35</ele>
        <time>2022-06-19T07:32:13+00:00</time>
      </trkpt>
      <trkpt lat="41.059900" lon="-3.472989">
        <ele>1422.39</ele>
        <time>2022-06-19T07:32:14+00:00</time>
      </trkpt>
      <trkpt lat="41.059771" lon="-3.472881">
        <ele>1420.94</ele>
        <time>2022-06-19T07:32:15+00:00</time>
      </trkpt>
      <trkpt lat="41.059599" lon="-3.472753">
        <ele>1419.50</ele>
        <time>2022-06-19T07:32:16+00:00</time>
      </trkpt>
      <trkpt lat="41.059449" lon="-3.472645">
        <ele>1418.54</ele>
        <time>2022-06-19T07:32:17+00:00</time>
      </trkpt>
      <trkpt lat="41.059084" lon="-3.472281">
        <ele>1413.73</ele>
        <time>2022-06-19T07:32:20+00:00</time>
      </trkpt>
      <trkpt lat="41.058999" lon="-3.472152">
        <ele>1412.77</ele>
        <time>2022-06-19T07:32:21+00:00</time>
      </trkpt>
      <trkpt lat="41.058956" lon="-3.472023">
        <ele>1411.33</ele>
        <time>2022-06-19T07:32:22+00:00</time>
      </trkpt>
      <trkpt lat="41.058934" lon="-3.471873">
        <ele>1409.89</ele>
        <time>2022-06-19T07:32:23+00:00</time>
      </trkpt>
      <trkpt lat="41.058913" lon="-3.471723">
        <ele>1408.93</ele>
        <time>2022-06-19T07:32:24+00:00</time>
      </trkpt>
      <trkpt lat="41.058934" lon="-3.471551">
        <ele>1407.97</ele>
        <time>2022-06-19T07:32:25+00:00</time>
      </trkpt>
      <trkpt lat="41.058956" lon="-3.471401">
        <ele>1407.49</ele>
        <time>2022-06-19T07:32:26+00:00</time>
      </trkpt>
      <trkpt lat="41.058956" lon="-3.471272">
        <ele>1407.00</ele>
        <time>2022-06-19T07:32:27+00:00</time>
      </trkpt>
      <trkpt lat="41.058913" lon="-3.471165">
        <ele>1406.52</ele>
        <time>2022-06-19T07:32:28+00:00</time>
      </trkpt>
      <trkpt lat="41.058827" lon="-3.471122">
        <ele>1406.04</ele>
        <time>2022-06-19T07:32:29+00:00</time>
      </trkpt>
      <trkpt lat="41.058720" lon="-3.471036">
        <ele>1405.56</ele>
        <time>2022-06-19T07:32:30+00:00</time>
      </trkpt>
      <trkpt lat="41.058591" lon="-3.470950">
        <ele>1405.08</ele>
        <time>2022-06-19T07:32:31+00:00</time>
      </trkpt>
      <trkpt lat="41.058119" lon="-3.470671">
        <ele>1402.20</ele>
        <time>2022-06-19T07:32:35+00:00</time>
      </trkpt>
      <trkpt lat="41.058033" lon="-3.470585">
        <ele>1401.72</ele>
        <time>2022-06-19T07:32:36+00:00</time>
      </trkpt>
      <trkpt lat="41.057969" lon="-3.470500">
        <ele>1400.76</ele>
        <time>2022-06-19T07:32:37+00:00</time>
      </trkpt>
      <trkpt lat="41.057647" lon="-3.470006">
        <ele>1397.39</ele>
        <time>2022-06-19T07:32:43+00:00</time>
      </trkpt>
      <trkpt lat="41.057604" lon="-3.469877">
        <ele>1396.91</ele>
        <time>2022-06-19T07:32:44+00:00</time>
      </trkpt>
      <trkpt lat="41.057561" lon="-3.469727">
        <ele>1396.43</ele>
        <time>2022-06-19T07:32:45+00:00</time>
      </trkpt>
      <trkpt lat="41.057518" lon="-3.469555">
        <ele>1396.43</ele>
        <time>2022-06-19T07:32:46+00:00</time>
      </trkpt>
      <trkpt lat="41.057475" lon="-3.469362">
        <ele>1396.43</ele>
        <time>2022-06-19T07:32:47+00:00</time>
      </trkpt>
      <trkpt lat="41.057389" lon="-3.468998">
        <ele>1396.91</ele>
        <time>2022-06-19T07:32:49+00:00</time>
      </trkpt>
      <trkpt lat="41.057346" lon="-3.468847">
        <ele>1397.39</ele>
        <time>2022-06-19T07:32:50+00:00</time>
      </trkpt>
      <trkpt lat="41.057261" lon="-3.468740">
        <ele>1397.87</ele>
        <time>2022-06-19T07:32:51+00:00</time>
      </trkpt>
      <trkpt lat="41.057132" lon="-3.468697">
        <ele>1398.35</ele>
        <time>2022-06-19T07:32:52+00:00</time>
      </trkpt>
      <trkpt lat="41.057003" lon="-3.468654">
        <ele>1399.31</ele>
        <time>2022-06-19T07:32:53+00:00</time>
      </trkpt>
      <trkpt lat="41.056896" lon="-3.468654">
        <ele>1399.79</ele>
        <time>2022-06-19T07:32:54+00:00</time>
      </trkpt>
      <trkpt lat="41.056767" lon="-3.468740">
        <ele>1400.28</ele>
        <time>2022-06-19T07:32:55+00:00</time>
      </trkpt>
      <trkpt lat="41.056638" lon="-3.468869">
        <ele>1401.24</ele>
        <time>2022-06-19T07:32:56+00:00</time>
      </trkpt>
      <trkpt lat="41.056552" lon="-3.469062">
        <ele>1402.68</ele>
        <time>2022-06-19T07:32:57+00:00</time>
      </trkpt>
      <trkpt lat="41.056467" lon="-3.469255">
        <ele>1403.64</ele>
        <time>2022-06-19T07:32:58+00:00</time>
      </trkpt>
      <trkpt lat="41.056381" lon="-3.469470">
        <ele>1404.60</ele>
        <time>2022-06-19T07:32:59+00:00</time>
      </trkpt>
      <trkpt lat="41.056037" lon="-3.470328">
        <ele>1409.89</ele>
        <time>2022-06-19T07:33:03+00:00</time>
      </trkpt>
      <trkpt lat="41.055952" lon="-3.470521">
        <ele>1410.85</ele>
        <time>2022-06-19T07:33:04+00:00</time>
      </trkpt>
      <trkpt lat="41.055801" lon="-3.470650">
        <ele>1412.29</ele>
        <time>2022-06-19T07:33:05+00:00</time>
      </trkpt>
      <trkpt lat="41.055630" lon="-3.470779">
        <ele>1413.25</ele>
        <time>2022-06-19T07:33:06+00:00</time>
      </trkpt>
      <trkpt lat="41.055458" lon="-3.470929">
        <ele>1414.70</ele>
        <time>2022-06-19T07:33:07+00:00</time>
      </trkpt>
      <trkpt lat="41.054729" lon="-3.471615">
        <ele>1422.39</ele>
        <time>2022-06-19T07:33:12+00:00</time>
      </trkpt>
      <trkpt lat="41.054621" lon="-3.471766">
        <ele>1423.35</ele>
        <time>2022-06-19T07:33:13+00:00</time>
      </trkpt>
      <trkpt lat="41.054578" lon="-3.471937">
        <ele>1425.27</ele>
        <time>2022-06-19T07:33:14+00:00</time>
      </trkpt>
      <trkpt lat="41.054535" lon="-3.472130">
        <ele>1426.71</ele>
        <time>2022-06-19T07:33:15+00:00</time>
      </trkpt>
      <trkpt lat="41.054557" lon="-3.472323">
        <ele>1428.15</ele>
        <time>2022-06-19T07:33:16+00:00</time>
      </trkpt>
      <trkpt lat="41.054643" lon="-3.472517">
        <ele>1429.11</ele>
        <time>2022-06-19T07:33:17+00:00</time>
      </trkpt>
      <trkpt lat="41.054729" lon="-3.472710">
        <ele>1430.08</ele>
        <time>2022-06-19T07:33:18+00:00</time>
      </trkpt>
      <trkpt lat="41.054836" lon="-3.472903">
        <ele>1431.04</ele>
        <time>2022-06-19T07:33:19+00:00</time>
      </trkpt>
      <trkpt lat="41.054922" lon="-3.473074">
        <ele>1432.00</ele>
        <time>2022-06-19T07:33:20+00:00</time>
      </trkpt>
      <trkpt lat="41.054986" lon="-3.473268">
        <ele>1432.96</ele>
        <time>2022-06-19T07:33:21+00:00</time>
      </trkpt>
      <trkpt lat="41.055050" lon="-3.473461">
        <ele>1433.92</ele>
        <time>2022-06-19T07:33:22+00:00</time>
      </trkpt>
      <trkpt lat="41.055072" lon="-3.473654">
        <ele>1435.36</ele>
        <time>2022-06-19T07:33:23+00:00</time>
      </trkpt>
      <trkpt lat="41.055050" lon="-3.473890">
        <ele>1436.32</ele>
        <time>2022-06-19T07:33:24+00:00</time>
      </trkpt>
      <trkpt lat="41.055029" lon="-3.474147">
        <ele>1437.29</ele>
        <time>2022-06-19T07:33:25+00:00</time>
      </trkpt>
      <trkpt lat="41.054965" lon="-3.474405">
        <ele>1438.73</ele>
        <time>2022-06-19T07:33:26+00:00</time>
      </trkpt>
      <trkpt lat="41.054514" lon="-3.476572">
        <ele>1451.22</ele>
        <time>2022-06-19T07:33:35+00:00</time>
      </trkpt>
      <trkpt lat="41.054171" lon="-3.477945">
        <ele>1458.92</ele>
        <time>2022-06-19T07:33:42+00:00</time>
      </trkpt>
      <trkpt lat="41.054106" lon="-3.478096">
        <ele>1459.88</ele>
        <time>2022-06-19T07:33:43+00:00</time>
      </trkpt>
      <trkpt lat="41.053999" lon="-3.478203">
        <ele>1460.84</ele>
        <time>2022-06-19T07:33:44+00:00</time>
      </trkpt>
      <trkpt lat="41.053913" lon="-3.478289">
        <ele>1461.80</ele>
        <time>2022-06-19T07:33:45+00:00</time>
      </trkpt>
      <trkpt lat="41.053806" lon="-3.478332">
        <ele>1462.76</ele>
        <time>2022-06-19T07:33:46+00:00</time>
      </trkpt>
      <trkpt lat="41.053699" lon="-3.478353">
        <ele>1463.72</ele>
        <time>2022-06-19T07:33:47+00:00</time>
      </trkpt>
      <trkpt lat="41.053634" lon="-3.478375">
        <ele>1464.68</ele>
        <time>2022-06-19T07:33:48+00:00</time>
      </trkpt>
      <trkpt lat="41.053548" lon="-3.478417">
        <ele>1465.64</ele>
        <time>2022-06-19T07:33:49+00:00</time>
      </trkpt>
      <trkpt lat="41.053505" lon="-3.478460">
        <ele>1466.61</ele>
        <time>2022-06-19T07:33:50+00:00</time>
      </trkpt>
      <trkpt lat="41.053463" lon="-3.478525">
        <ele>1467.09</ele>
        <time>2022-06-19T07:33:51+00:00</time>
      </trkpt>
      <trkpt lat="41.053398" lon="-3.478589">
        <ele>1467.09</ele>
        <time>2022-06-19T07:33:52+00:00</time>
      </trkpt>
      <trkpt lat="41.053291" lon="-3.478632">
        <ele>1467.09</ele>
        <time>2022-06-19T07:33:53+00:00</time>
      </trkpt>
      <trkpt lat="41.053184" lon="-3.478632">
        <ele>1467.09</ele>
        <time>2022-06-19T07:33:54+00:00</time>
      </trkpt>
      <trkpt lat="41.053055" lon="-3.478632">
        <ele>1466.61</ele>
        <time>2022-06-19T07:33:55+00:00</time>
      </trkpt>
      <trkpt lat="41.052926" lon="-3.478632">
        <ele>1465.64</ele>
        <time>2022-06-19T07:33:56+00:00</time>
      </trkpt>
      <trkpt lat="41.052797" lon="-3.478589">
        <ele>1465.16</ele>
        <time>2022-06-19T07:33:57+00:00</time>
      </trkpt>
      <trkpt lat="41.052669" lon="-3.478482">
        <ele>1464.20</ele>
        <time>2022-06-19T07:33:58+00:00</time>
      </trkpt>
      <trkpt lat="41.052518" lon="-3.478396">
        <ele>1463.24</ele>
        <time>2022-06-19T07:33:59+00:00</time>
      </trkpt>
      <trkpt lat="41.052347" lon="-3.478267">
        <ele>1462.28</ele>
        <time>2022-06-19T07:34:00+00:00</time>
      </trkpt>
      <trkpt lat="41.051960" lon="-3.478031">
        <ele>1458.92</ele>
        <time>2022-06-19T07:34:03+00:00</time>
      </trkpt>
      <trkpt lat="41.051875" lon="-3.478010">
        <ele>1457.95</ele>
        <time>2022-06-19T07:34:04+00:00</time>
      </trkpt>
      <trkpt lat="41.051789" lon="-3.478053">
        <ele>1456.99</ele>
        <time>2022-06-19T07:34:05+00:00</time>
      </trkpt>
      <trkpt lat="41.051682" lon="-3.478160">
        <ele>1456.03</ele>
        <time>2022-06-19T07:34:06+00:00</time>
      </trkpt>
      <trkpt lat="41.051574" lon="-3.478310">
        <ele>1455.07</ele>
        <time>2022-06-19T07:34:07+00:00</time>
      </trkpt>
      <trkpt lat="41.051467" lon="-3.478482">
        <ele>1453.63</ele>
        <time>2022-06-19T07:34:08+00:00</time>
      </trkpt>
      <trkpt lat="41.051338" lon="-3.478675">
        <ele>1452.19</ele>
        <time>2022-06-19T07:34:09+00:00</time>
      </trkpt>
      <trkpt lat="41.051231" lon="-3.478847">
        <ele>1451.22</ele>
        <time>2022-06-19T07:34:10+00:00</time>
      </trkpt>
      <trkpt lat="41.051102" lon="-3.479018">
        <ele>1449.30</ele>
        <time>2022-06-19T07:34:11+00:00</time>
      </trkpt>
      <trkpt lat="41.050909" lon="-3.479126">
        <ele>1447.86</ele>
        <time>2022-06-19T07:34:12+00:00</time>
      </trkpt>
      <trkpt lat="41.050737" lon="-3.479254">
        <ele>1446.42</ele>
        <time>2022-06-19T07:34:13+00:00</time>
      </trkpt>
      <trkpt lat="41.050544" lon="-3.479383">
        <ele>1444.98</ele>
        <time>2022-06-19T07:34:14+00:00</time>
      </trkpt>
      <trkpt lat="41.050201" lon="-3.479641">
        <ele>1442.57</ele>
        <time>2022-06-19T07:34:16+00:00</time>
      </trkpt>
      <trkpt lat="41.050051" lon="-3.479812">
        <ele>1441.13</ele>
        <time>2022-06-19T07:34:17+00:00</time>
      </trkpt>
      <trkpt lat="41.049750" lon="-3.480156">
        <ele>1438.25</ele>
        <time>2022-06-19T07:34:19+00:00</time>
      </trkpt>
      <trkpt lat="41.049622" lon="-3.480349">
        <ele>1436.81</ele>
        <time>2022-06-19T07:34:20+00:00</time>
      </trkpt>
      <trkpt lat="41.049536" lon="-3.480585">
        <ele>1434.88</ele>
        <time>2022-06-19T07:34:21+00:00</time>
      </trkpt>
      <trkpt lat="41.048956" lon="-3.481765">
        <ele>1426.23</ele>
        <time>2022-06-19T07:34:26+00:00</time>
      </trkpt>
      <trkpt lat="41.048828" lon="-3.481936">
        <ele>1424.31</ele>
        <time>2022-06-19T07:34:27+00:00</time>
      </trkpt>
      <trkpt lat="41.048570" lon="-3.482258">
        <ele>1420.94</ele>
        <time>2022-06-19T07:34:29+00:00</time>
      </trkpt>
      <trkpt lat="41.048484" lon="-3.482451">
        <ele>1419.50</ele>
        <time>2022-06-19T07:34:30+00:00</time>
      </trkpt>
      <trkpt lat="41.048420" lon="-3.482666">
        <ele>1417.58</ele>
        <time>2022-06-19T07:34:31+00:00</time>
      </trkpt>
      <trkpt lat="41.048377" lon="-3.482881">
        <ele>1416.14</ele>
        <time>2022-06-19T07:34:32+00:00</time>
      </trkpt>
      <trkpt lat="41.048313" lon="-3.483095">
        <ele>1414.21</ele>
        <time>2022-06-19T07:34:33+00:00</time>
      </trkpt>
      <trkpt lat="41.048270" lon="-3.483331">
        <ele>1412.77</ele>
        <time>2022-06-19T07:34:34+00:00</time>
      </trkpt>
      <trkpt lat="41.048141" lon="-3.483546">
        <ele>1411.33</ele>
        <time>2022-06-19T07:34:35+00:00</time>
      </trkpt>
      <trkpt lat="41.047926" lon="-3.484018">
        <ele>1407.97</ele>
        <time>2022-06-19T07:34:37+00:00</time>
      </trkpt>
      <trkpt lat="41.047841" lon="-3.484275">
        <ele>1406.52</ele>
        <time>2022-06-19T07:34:38+00:00</time>
      </trkpt>
      <trkpt lat="41.047583" lon="-3.485177">
        <ele>1399.79</ele>
        <time>2022-06-19T07:34:42+00:00</time>
      </trkpt>
      <trkpt lat="41.047433" lon="-3.485799">
        <ele>1395.47</ele>
        <time>2022-06-19T07:34:45+00:00</time>
      </trkpt>
      <trkpt lat="41.047326" lon="-3.486013">
        <ele>1394.03</ele>
        <time>2022-06-19T07:34:46+00:00</time>
      </trkpt>
      <trkpt lat="41.047218" lon="-3.486228">
        <ele>1392.58</ele>
        <time>2022-06-19T07:34:47+00:00</time>
      </trkpt>
      <trkpt lat="41.046575" lon="-3.487237">
        <ele>1384.89</ele>
        <time>2022-06-19T07:34:52+00:00</time>
      </trkpt>
      <trkpt lat="41.046424" lon="-3.487365">
        <ele>1383.93</ele>
        <time>2022-06-19T07:34:53+00:00</time>
      </trkpt>
      <trkpt lat="41.046274" lon="-3.487451">
        <ele>1382.49</ele>
        <time>2022-06-19T07:34:54+00:00</time>
      </trkpt>
      <trkpt lat="41.046124" lon="-3.487515">
        <ele>1381.53</ele>
        <time>2022-06-19T07:34:55+00:00</time>
      </trkpt>
      <trkpt lat="41.045974" lon="-3.487558">
        <ele>1380.09</ele>
        <time>2022-06-19T07:34:56+00:00</time>
      </trkpt>
      <trkpt lat="41.045824" lon="-3.487601">
        <ele>1379.13</ele>
        <time>2022-06-19T07:34:57+00:00</time>
      </trkpt>
      <trkpt lat="41.045673" lon="-3.487666">
        <ele>1377.68</ele>
        <time>2022-06-19T07:34:58+00:00</time>
      </trkpt>
      <trkpt lat="41.045545" lon="-3.487816">
        <ele>1376.72</ele>
        <time>2022-06-19T07:34:59+00:00</time>
      </trkpt>
      <trkpt lat="41.045416" lon="-3.487988">
        <ele>1375.28</ele>
        <time>2022-06-19T07:35:00+00:00</time>
      </trkpt>
      <trkpt lat="41.045266" lon="-3.488202">
        <ele>1373.84</ele>
        <time>2022-06-19T07:35:01+00:00</time>
      </trkpt>
      <trkpt lat="41.044407" lon="-3.489254">
        <ele>1362.78</ele>
        <time>2022-06-19T07:35:08+00:00</time>
      </trkpt>
      <trkpt lat="41.044279" lon="-3.489339">
        <ele>1361.34</ele>
        <time>2022-06-19T07:35:09+00:00</time>
      </trkpt>
      <trkpt lat="41.044150" lon="-3.489404">
        <ele>1359.90</ele>
        <time>2022-06-19T07:35:10+00:00</time>
      </trkpt>
      <trkpt lat="41.044021" lon="-3.489447">
        <ele>1358.46</ele>
        <time>2022-06-19T07:35:11+00:00</time>
      </trkpt>
      <trkpt lat="41.043935" lon="-3.489511">
        <ele>1357.50</ele>
        <time>2022-06-19T07:35:12+00:00</time>
      </trkpt>
      <trkpt lat="41.043871" lon="-3.489597">
        <ele>1356.05</ele>
        <time>2022-06-19T07:35:13+00:00</time>
      </trkpt>
      <trkpt lat="41.043892" lon="-3.489769">
        <ele>1355.09</ele>
        <time>2022-06-19T07:35:14+00:00</time>
      </trkpt>
      <trkpt lat="41.043914" lon="-3.489940">
        <ele>1353.65</ele>
        <time>2022-06-19T07:35:15+00:00</time>
      </trkpt>
      <trkpt lat="41.043935" lon="-3.490133">
        <ele>1352.69</ele>
        <time>2022-06-19T07:35:16+00:00</time>
      </trkpt>
      <trkpt lat="41.043978" lon="-3.490477">
        <ele>1350.77</ele>
        <time>2022-06-19T07:35:18+00:00</time>
      </trkpt>
      <trkpt lat="41.043957" lon="-3.490627">
        <ele>1349.81</ele>
        <time>2022-06-19T07:35:19+00:00</time>
      </trkpt>
      <trkpt lat="41.043914" lon="-3.490799">
        <ele>1348.85</ele>
        <time>2022-06-19T07:35:20+00:00</time>
      </trkpt>
      <trkpt lat="41.043849" lon="-3.491120">
        <ele>1346.92</ele>
        <time>2022-06-19T07:35:22+00:00</time>
      </trkpt>
      <trkpt lat="41.043828" lon="-3.491249">
        <ele>1345.48</ele>
        <time>2022-06-19T07:35:23+00:00</time>
      </trkpt>
      <trkpt lat="41.043871" lon="-3.491335">
        <ele>1344.52</ele>
        <time>2022-06-19T07:35:24+00:00</time>
      </trkpt>
      <trkpt lat="41.043914" lon="-3.491399">
        <ele>1343.56</ele>
        <time>2022-06-19T07:35:25+00:00</time>
      </trkpt>
      <trkpt lat="41.044021" lon="-3.491421">
        <ele>1342.12</ele>
        <time>2022-06-19T07:35:26+00:00</time>
      </trkpt>
      <trkpt lat="41.044171" lon="-3.491356">
        <ele>1340.67</ele>
        <time>2022-06-19T07:35:27+00:00</time>
      </trkpt>
      <trkpt lat="41.044300" lon="-3.491292">
        <ele>1339.71</ele>
        <time>2022-06-19T07:35:28+00:00</time>
      </trkpt>
      <trkpt lat="41.044429" lon="-3.491228">
        <ele>1338.27</ele>
        <time>2022-06-19T07:35:29+00:00</time>
      </trkpt>
      <trkpt lat="41.044558" lon="-3.491120">
        <ele>1336.83</ele>
        <time>2022-06-19T07:35:30+00:00</time>
      </trkpt>
      <trkpt lat="41.044643" lon="-3.490949">
        <ele>1335.87</ele>
        <time>2022-06-19T07:35:31+00:00</time>
      </trkpt>
      <trkpt lat="41.044708" lon="-3.490756">
        <ele>1334.91</ele>
        <time>2022-06-19T07:35:32+00:00</time>
      </trkpt>
      <trkpt lat="41.044751" lon="-3.490584">
        <ele>1333.95</ele>
        <time>2022-06-19T07:35:33+00:00</time>
      </trkpt>
      <trkpt lat="41.044815" lon="-3.490434">
        <ele>1332.98</ele>
        <time>2022-06-19T07:35:34+00:00</time>
      </trkpt>
      <trkpt lat="41.044858" lon="-3.490348">
        <ele>1332.02</ele>
        <time>2022-06-19T07:35:35+00:00</time>
      </trkpt>
      <trkpt lat="41.044965" lon="-3.490305">
        <ele>1331.06</ele>
        <time>2022-06-19T07:35:36+00:00</time>
      </trkpt>
      <trkpt lat="41.045051" lon="-3.490305">
        <ele>1330.58</ele>
        <time>2022-06-19T07:35:37+00:00</time>
      </trkpt>
      <trkpt lat="41.045201" lon="-3.490369">
        <ele>1330.10</ele>
        <time>2022-06-19T07:35:38+00:00</time>
      </trkpt>
      <trkpt lat="41.045352" lon="-3.490434">
        <ele>1329.14</ele>
        <time>2022-06-19T07:35:39+00:00</time>
      </trkpt>
      <trkpt lat="41.045523" lon="-3.490412">
        <ele>1328.18</ele>
        <time>2022-06-19T07:35:40+00:00</time>
      </trkpt>
      <trkpt lat="41.045695" lon="-3.490391">
        <ele>1326.25</ele>
        <time>2022-06-19T07:35:41+00:00</time>
      </trkpt>
      <trkpt lat="41.045888" lon="-3.490348">
        <ele>1325.29</ele>
        <time>2022-06-19T07:35:42+00:00</time>
      </trkpt>
      <trkpt lat="41.046854" lon="-3.490112">
        <ele>1319.04</ele>
        <time>2022-06-19T07:35:48+00:00</time>
      </trkpt>
      <trkpt lat="41.046961" lon="-3.490090">
        <ele>1318.08</ele>
        <time>2022-06-19T07:35:49+00:00</time>
      </trkpt>
      <trkpt lat="41.047090" lon="-3.490176">
        <ele>1317.12</ele>
        <time>2022-06-19T07:35:50+00:00</time>
      </trkpt>
      <trkpt lat="41.047540" lon="-3.490477">
        <ele>1313.76</ele>
        <time>2022-06-19T07:35:53+00:00</time>
      </trkpt>
      <trkpt lat="41.047690" lon="-3.490520">
        <ele>1312.80</ele>
        <time>2022-06-19T07:35:54+00:00</time>
      </trkpt>
      <trkpt lat="41.047841" lon="-3.490584">
        <ele>1311.83</ele>
        <time>2022-06-19T07:35:55+00:00</time>
      </trkpt>
      <trkpt lat="41.047991" lon="-3.490584">
        <ele>1310.87</ele>
        <time>2022-06-19T07:35:56+00:00</time>
      </trkpt>
      <trkpt lat="41.048141" lon="-3.490562">
        <ele>1310.39</ele>
        <time>2022-06-19T07:35:57+00:00</time>
      </trkpt>
      <trkpt lat="41.048291" lon="-3.490520">
        <ele>1309.43</ele>
        <time>2022-06-19T07:35:58+00:00</time>
      </trkpt>
      <trkpt lat="41.048441" lon="-3.490477">
        <ele>1308.47</ele>
        <time>2022-06-19T07:35:59+00:00</time>
      </trkpt>
      <trkpt lat="41.048549" lon="-3.490477">
        <ele>1307.51</ele>
        <time>2022-06-19T07:36:00+00:00</time>
      </trkpt>
      <trkpt lat="41.048656" lon="-3.490498">
        <ele>1306.55</ele>
        <time>2022-06-19T07:36:01+00:00</time>
      </trkpt>
      <trkpt lat="41.048720" lon="-3.490541">
        <ele>1305.59</ele>
        <time>2022-06-19T07:36:02+00:00</time>
      </trkpt>
      <trkpt lat="41.048763" lon="-3.490627">
        <ele>1304.62</ele>
        <time>2022-06-19T07:36:03+00:00</time>
      </trkpt>
      <trkpt lat="41.048806" lon="-3.490799">
        <ele>1304.14</ele>
        <time>2022-06-19T07:36:04+00:00</time>
      </trkpt>
      <trkpt lat="41.048806" lon="-3.490992">
        <ele>1303.66</ele>
        <time>2022-06-19T07:36:05+00:00</time>
      </trkpt>
      <trkpt lat="41.048785" lon="-3.491228">
        <ele>1303.18</ele>
        <time>2022-06-19T07:36:06+00:00</time>
      </trkpt>
      <trkpt lat="41.048785" lon="-3.491464">
        <ele>1302.22</ele>
        <time>2022-06-19T07:36:07+00:00</time>
      </trkpt>
      <trkpt lat="41.048763" lon="-3.491700">
        <ele>1301.26</ele>
        <time>2022-06-19T07:36:08+00:00</time>
      </trkpt>
      <trkpt lat="41.048699" lon="-3.491914">
        <ele>1300.78</ele>
        <time>2022-06-19T07:36:09+00:00</time>
      </trkpt>
      <trkpt lat="41.048656" lon="-3.492107">
        <ele>1299.82</ele>
        <time>2022-06-19T07:36:10+00:00</time>
      </trkpt>
      <trkpt lat="41.048592" lon="-3.492301">
        <ele>1298.86</ele>
        <time>2022-06-19T07:36:11+00:00</time>
      </trkpt>
      <trkpt lat="41.048549" lon="-3.492494">
        <ele>1297.90</ele>
        <time>2022-06-19T07:36:12+00:00</time>
      </trkpt>
      <trkpt lat="41.048592" lon="-3.492687">
        <ele>1297.42</ele>
        <time>2022-06-19T07:36:13+00:00</time>
      </trkpt>
      <trkpt lat="41.048635" lon="-3.492880">
        <ele>1296.45</ele>
        <time>2022-06-19T07:36:14+00:00</time>
      </trkpt>
      <trkpt lat="41.048699" lon="-3.493094">
        <ele>1295.49</ele>
        <time>2022-06-19T07:36:15+00:00</time>
      </trkpt>
      <trkpt lat="41.048742" lon="-3.493331">
        <ele>1294.53</ele>
        <time>2022-06-19T07:36:16+00:00</time>
      </trkpt>
      <trkpt lat="41.048763" lon="-3.493588">
        <ele>1293.57</ele>
        <time>2022-06-19T07:36:17+00:00</time>
      </trkpt>
      <trkpt lat="41.048849" lon="-3.494318">
        <ele>1290.69</ele>
        <time>2022-06-19T07:36:20+00:00</time>
      </trkpt>
      <trkpt lat="41.049042" lon="-3.495197">
        <ele>1285.88</ele>
        <time>2022-06-19T07:36:24+00:00</time>
      </trkpt>
      <trkpt lat="41.049150" lon="-3.495412">
        <ele>1284.44</ele>
        <time>2022-06-19T07:36:25+00:00</time>
      </trkpt>
      <trkpt lat="41.049793" lon="-3.497129">
        <ele>1276.27</ele>
        <time>2022-06-19T07:36:32+00:00</time>
      </trkpt>
      <trkpt lat="41.050072" lon="-3.498931">
        <ele>1271.94</ele>
        <time>2022-06-19T07:36:38+00:00</time>
      </trkpt>
      <trkpt lat="41.050029" lon="-3.500798">
        <ele>1266.65</ele>
        <time>2022-06-19T07:36:45+00:00</time>
      </trkpt>
      <trkpt lat="41.049922" lon="-3.501763">
        <ele>1260.89</ele>
        <time>2022-06-19T07:36:49+00:00</time>
      </trkpt>
      <trkpt lat="41.049965" lon="-3.501978">
        <ele>1259.44</ele>
        <time>2022-06-19T07:36:50+00:00</time>
      </trkpt>
      <trkpt lat="41.050008" lon="-3.502235">
        <ele>1258.00</ele>
        <time>2022-06-19T07:36:51+00:00</time>
      </trkpt>
      <trkpt lat="41.050394" lon="-3.504038">
        <ele>1246.47</ele>
        <time>2022-06-19T07:36:58+00:00</time>
      </trkpt>
      <trkpt lat="41.050480" lon="-3.504231">
        <ele>1244.54</ele>
        <time>2022-06-19T07:36:59+00:00</time>
      </trkpt>
      <trkpt lat="41.050587" lon="-3.504424">
        <ele>1242.62</ele>
        <time>2022-06-19T07:37:00+00:00</time>
      </trkpt>
      <trkpt lat="41.051574" lon="-3.505905">
        <ele>1230.60</ele>
        <time>2022-06-19T07:37:08+00:00</time>
      </trkpt>
      <trkpt lat="41.051724" lon="-3.506248">
        <ele>1228.68</ele>
        <time>2022-06-19T07:37:10+00:00</time>
      </trkpt>
      <trkpt lat="41.051746" lon="-3.506441">
        <ele>1227.72</ele>
        <time>2022-06-19T07:37:11+00:00</time>
      </trkpt>
      <trkpt lat="41.051767" lon="-3.506656">
        <ele>1226.28</ele>
        <time>2022-06-19T07:37:12+00:00</time>
      </trkpt>
      <trkpt lat="41.051746" lon="-3.506935">
        <ele>1225.32</ele>
        <time>2022-06-19T07:37:13+00:00</time>
      </trkpt>
      <trkpt lat="41.051703" lon="-3.507192">
        <ele>1224.36</ele>
        <time>2022-06-19T07:37:14+00:00</time>
      </trkpt>
      <trkpt lat="41.051660" lon="-3.507493">
        <ele>1223.39</ele>
        <time>2022-06-19T07:37:15+00:00</time>
      </trkpt>
      <trkpt lat="41.051209" lon="-3.510368">
        <ele>1208.97</ele>
        <time>2022-06-19T07:37:24+00:00</time>
      </trkpt>
      <trkpt lat="41.050716" lon="-3.513393">
        <ele>1196.96</ele>
        <time>2022-06-19T07:37:33+00:00</time>
      </trkpt>
      <trkpt lat="41.050544" lon="-3.515754">
        <ele>1190.23</ele>
        <time>2022-06-19T07:37:41+00:00</time>
      </trkpt>
      <trkpt lat="41.050630" lon="-3.518457">
        <ele>1175.81</ele>
        <time>2022-06-19T07:37:50+00:00</time>
      </trkpt>
      <trkpt lat="41.050609" lon="-3.518672">
        <ele>1174.37</ele>
        <time>2022-06-19T07:37:51+00:00</time>
      </trkpt>
      <trkpt lat="41.050544" lon="-3.518908">
        <ele>1172.93</ele>
        <time>2022-06-19T07:37:52+00:00</time>
      </trkpt>
      <trkpt lat="41.050458" lon="-3.519144">
        <ele>1171.96</ele>
        <time>2022-06-19T07:37:53+00:00</time>
      </trkpt>
      <trkpt lat="41.049686" lon="-3.521204">
        <ele>1163.79</ele>
        <time>2022-06-19T07:38:01+00:00</time>
      </trkpt>
      <trkpt lat="41.048420" lon="-3.524594">
        <ele>1159.95</ele>
        <time>2022-06-19T07:38:15+00:00</time>
      </trkpt>
      <trkpt lat="41.048377" lon="-3.524830">
        <ele>1159.47</ele>
        <time>2022-06-19T07:38:16+00:00</time>
      </trkpt>
      <trkpt lat="41.048334" lon="-3.525088">
        <ele>1158.99</ele>
        <time>2022-06-19T07:38:17+00:00</time>
      </trkpt>
      <trkpt lat="41.048313" lon="-3.525302">
        <ele>1158.51</ele>
        <time>2022-06-19T07:38:18+00:00</time>
      </trkpt>
      <trkpt lat="41.048291" lon="-3.525496">
        <ele>1158.03</ele>
        <time>2022-06-19T07:38:19+00:00</time>
      </trkpt>
      <trkpt lat="41.048248" lon="-3.525646">
        <ele>1157.54</ele>
        <time>2022-06-19T07:38:20+00:00</time>
      </trkpt>
      <trkpt lat="41.048205" lon="-3.525817">
        <ele>1157.06</ele>
        <time>2022-06-19T07:38:21+00:00</time>
      </trkpt>
      <trkpt lat="41.048120" lon="-3.525968">
        <ele>1156.58</ele>
        <time>2022-06-19T07:38:22+00:00</time>
      </trkpt>
      <trkpt lat="41.047991" lon="-3.526118">
        <ele>1156.10</ele>
        <time>2022-06-19T07:38:23+00:00</time>
      </trkpt>
      <trkpt lat="41.047841" lon="-3.526247">
        <ele>1155.62</ele>
        <time>2022-06-19T07:38:24+00:00</time>
      </trkpt>
      <trkpt lat="41.047669" lon="-3.526397">
        <ele>1155.62</ele>
        <time>2022-06-19T07:38:25+00:00</time>
      </trkpt>
      <trkpt lat="41.045523" lon="-3.528285">
        <ele>1153.70</ele>
        <time>2022-06-19T07:38:38+00:00</time>
      </trkpt>
      <trkpt lat="41.045223" lon="-3.528671">
        <ele>1152.74</ele>
        <time>2022-06-19T07:38:41+00:00</time>
      </trkpt>
      <trkpt lat="41.045158" lon="-3.528843">
        <ele>1152.26</ele>
        <time>2022-06-19T07:38:42+00:00</time>
      </trkpt>
      <trkpt lat="41.045094" lon="-3.529015">
        <ele>1151.78</ele>
        <time>2022-06-19T07:38:43+00:00</time>
      </trkpt>
      <trkpt lat="41.045073" lon="-3.529229">
        <ele>1150.33</ele>
        <time>2022-06-19T07:38:44+00:00</time>
      </trkpt>
      <trkpt lat="41.045030" lon="-3.529465">
        <ele>1149.37</ele>
        <time>2022-06-19T07:38:45+00:00</time>
      </trkpt>
      <trkpt lat="41.044901" lon="-3.530538">
        <ele>1143.61</ele>
        <time>2022-06-19T07:38:50+00:00</time>
      </trkpt>
      <trkpt lat="41.044901" lon="-3.530731">
        <ele>1142.64</ele>
        <time>2022-06-19T07:38:51+00:00</time>
      </trkpt>
      <trkpt lat="41.044815" lon="-3.532555">
        <ele>1133.03</ele>
        <time>2022-06-19T07:38:59+00:00</time>
      </trkpt>
      <trkpt lat="41.044536" lon="-3.534315">
        <ele>1122.94</ele>
        <time>2022-06-19T07:39:08+00:00</time>
      </trkpt>
      <trkpt lat="41.044193" lon="-3.535602">
        <ele>1120.53</ele>
        <time>2022-06-19T07:39:16+00:00</time>
      </trkpt>
      <trkpt lat="41.043978" lon="-3.536825">
        <ele>1121.01</ele>
        <time>2022-06-19T07:39:23+00:00</time>
      </trkpt>
      <trkpt lat="41.043978" lon="-3.536997">
        <ele>1121.01</ele>
        <time>2022-06-19T07:39:24+00:00</time>
      </trkpt>
      <trkpt lat="41.044000" lon="-3.538327">
        <ele>1120.05</ele>
        <time>2022-06-19T07:39:34+00:00</time>
      </trkpt>
      <trkpt lat="41.044000" lon="-3.538477">
        <ele>1119.57</ele>
        <time>2022-06-19T07:39:35+00:00</time>
      </trkpt>
      <trkpt lat="41.044000" lon="-3.538778">
        <ele>1119.09</ele>
        <time>2022-06-19T07:39:38+00:00</time>
      </trkpt>
      <trkpt lat="41.044000" lon="-3.538864">
        <ele>1118.61</ele>
        <time>2022-06-19T07:39:39+00:00</time>
      </trkpt>
      <trkpt lat="41.043892" lon="-3.539507">
        <ele>1118.13</ele>
        <time>2022-06-19T07:39:45+00:00</time>
      </trkpt>
      <trkpt lat="41.043849" lon="-3.539615">
        <ele>1117.65</ele>
        <time>2022-06-19T07:39:46+00:00</time>
      </trkpt>
      <trkpt lat="41.043807" lon="-3.539808">
        <ele>1117.17</ele>
        <time>2022-06-19T07:39:48+00:00</time>
      </trkpt>
      <trkpt lat="41.043807" lon="-3.539872">
        <ele>1116.69</ele>
        <time>2022-06-19T07:39:49+00:00</time>
      </trkpt>
      <trkpt lat="41.043721" lon="-3.540301">
        <ele>1114.29</ele>
        <time>2022-06-19T07:39:55+00:00</time>
      </trkpt>
      <trkpt lat="41.043721" lon="-3.540387">
        <ele>1113.80</ele>
        <time>2022-06-19T07:39:56+00:00</time>
      </trkpt>
      <trkpt lat="41.043721" lon="-3.540452">
        <ele>1113.32</ele>
        <time>2022-06-19T07:39:57+00:00</time>
      </trkpt>
      <trkpt lat="41.043742" lon="-3.540688">
        <ele>1110.92</ele>
        <time>2022-06-19T07:40:07+00:00</time>
      </trkpt>
      <trkpt lat="41.043678" lon="-3.540709">
        <ele>1110.44</ele>
        <time>2022-06-19T07:40:12+00:00</time>
      </trkpt>
      <trkpt lat="41.043678" lon="-3.540709">
        <ele>1110.44</ele>
        <time>2022-06-19T07:40:13+00:00</time>
      </trkpt>
      <trkpt lat="41.043635" lon="-3.540988">
        <ele>1109.96</ele>
        <time>2022-06-19T07:40:14+00:00</time>
      </trkpt>
      <trkpt lat="41.043742" lon="-3.540688">
        <ele>1109.96</ele>
        <time>2022-06-19T07:40:15+00:00</time>
      </trkpt>
      <trkpt lat="41.043592" lon="-3.540773">
        <ele>1109.96</ele>
        <time>2022-06-19T07:40:16+00:00</time>
      </trkpt>
      <trkpt lat="41.043592" lon="-3.540752">
        <ele>1109.96</ele>
        <time>2022-06-19T07:40:17+00:00</time>
      </trkpt>
      <trkpt lat="41.043592" lon="-3.540731">
        <ele>1109.48</ele>
        <time>2022-06-19T07:40:29+00:00</time>
      </trkpt>
      <trkpt lat="41.043592" lon="-3.540494">
        <ele>1066.22</ele>
        <time>2022-06-19T08:31:29+00:00</time>
      </trkpt>
      <trkpt lat="41.043678" lon="-3.540752">
        <ele>1109.00</ele>
        <time>2022-06-19T08:31:53+00:00</time>
      </trkpt>
      <trkpt lat="41.043678" lon="-3.540773">
        <ele>1110.44</ele>
        <time>2022-06-19T08:32:20+00:00</time>
      </trkpt>
      <trkpt lat="41.043678" lon="-3.540773">
        <ele>1110.44</ele>
        <time>2022-06-19T08:32:21+00:00</time>
      </trkpt>
      <trkpt lat="41.043699" lon="-3.540709">
        <ele>1109.96</ele>
        <time>2022-06-19T08:32:23+00:00</time>
      </trkpt>
      <trkpt lat="41.043699" lon="-3.540688">
        <ele>1109.96</ele>
        <time>2022-06-19T08:32:24+00:00</time>
      </trkpt>
      <trkpt lat="41.043742" lon="-3.540688">
        <ele>1109.96</ele>
        <time>2022-06-19T08:32:25+00:00</time>
      </trkpt>
      <trkpt lat="41.043742" lon="-3.540688">
        <ele>1109.96</ele>
        <time>2022-06-19T08:32:26+00:00</time>
      </trkpt>
      <trkpt lat="41.043699" lon="-3.540709">
        <ele>1109.96</ele>
        <time>2022-06-19T08:32:27+00:00</time>
      </trkpt>
      <trkpt lat="41.043678" lon="-3.540709">
        <ele>1109.96</ele>
        <time>2022-06-19T08:32:28+00:00</time>
      </trkpt>
      <trkpt lat="41.043721" lon="-3.541009">
        <ele>1109.48</ele>
        <time>2022-06-19T08:32:29+00:00</time>
      </trkpt>
      <trkpt lat="41.043721" lon="-3.541009">
        <ele>1109.48</ele>
        <time>2022-06-19T08:32:30+00:00</time>
      </trkpt>
      <trkpt lat="41.043656" lon="-3.540988">
        <ele>1109.48</ele>
        <time>2022-06-19T08:32:31+00:00</time>
      </trkpt>
      <trkpt lat="41.043635" lon="-3.540988">
        <ele>1109.48</ele>
        <time>2022-06-19T08:32:32+00:00</time>
      </trkpt>
      <trkpt lat="41.043571" lon="-3.540967">
        <ele>1109.48</ele>
        <time>2022-06-19T08:32:33+00:00</time>
      </trkpt>
      <trkpt lat="41.043184" lon="-3.540752">
        <ele>1109.48</ele>
        <time>2022-06-19T08:32:38+00:00</time>
      </trkpt>
      <trkpt lat="41.043120" lon="-3.540752">
        <ele>1109.48</ele>
        <time>2022-06-19T08:32:39+00:00</time>
      </trkpt>
      <trkpt lat="41.043034" lon="-3.540731">
        <ele>1109.00</ele>
        <time>2022-06-19T08:32:40+00:00</time>
      </trkpt>
      <trkpt lat="41.042240" lon="-3.540795">
        <ele>1110.44</ele>
        <time>2022-06-19T08:32:47+00:00</time>
      </trkpt>
      <trkpt lat="41.042026" lon="-3.540795">
        <ele>1110.92</ele>
        <time>2022-06-19T08:32:49+00:00</time>
      </trkpt>
      <trkpt lat="41.041918" lon="-3.540773">
        <ele>1111.40</ele>
        <time>2022-06-19T08:32:50+00:00</time>
      </trkpt>
      <trkpt lat="41.040781" lon="-3.540473">
        <ele>1112.84</ele>
        <time>2022-06-19T08:32:59+00:00</time>
      </trkpt>
      <trkpt lat="41.040631" lon="-3.540452">
        <ele>1112.84</ele>
        <time>2022-06-19T08:33:00+00:00</time>
      </trkpt>
      <trkpt lat="41.040481" lon="-3.540430">
        <ele>1112.36</ele>
        <time>2022-06-19T08:33:01+00:00</time>
      </trkpt>
      <trkpt lat="41.039193" lon="-3.540516">
        <ele>1108.04</ele>
        <time>2022-06-19T08:33:08+00:00</time>
      </trkpt>
      <trkpt lat="41.037305" lon="-3.540881">
        <ele>1096.02</ele>
        <time>2022-06-19T08:33:19+00:00</time>
      </trkpt>
      <trkpt lat="41.037047" lon="-3.541095">
        <ele>1093.62</ele>
        <time>2022-06-19T08:33:21+00:00</time>
      </trkpt>
      <trkpt lat="41.036919" lon="-3.541224">
        <ele>1092.18</ele>
        <time>2022-06-19T08:33:22+00:00</time>
      </trkpt>
      <trkpt lat="41.036833" lon="-3.541396">
        <ele>1091.21</ele>
        <time>2022-06-19T08:33:23+00:00</time>
      </trkpt>
      <trkpt lat="41.036726" lon="-3.541589">
        <ele>1089.77</ele>
        <time>2022-06-19T08:33:24+00:00</time>
      </trkpt>
      <trkpt lat="41.036618" lon="-3.541782">
        <ele>1088.33</ele>
        <time>2022-06-19T08:33:25+00:00</time>
      </trkpt>
      <trkpt lat="41.036125" lon="-3.542984">
        <ele>1081.60</ele>
        <time>2022-06-19T08:33:31+00:00</time>
      </trkpt>
      <trkpt lat="41.036103" lon="-3.543177">
        <ele>1080.16</ele>
        <time>2022-06-19T08:33:32+00:00</time>
      </trkpt>
      <trkpt lat="41.036082" lon="-3.543370">
        <ele>1078.72</ele>
        <time>2022-06-19T08:33:33+00:00</time>
      </trkpt>
      <trkpt lat="41.036060" lon="-3.543563">
        <ele>1076.79</ele>
        <time>2022-06-19T08:33:34+00:00</time>
      </trkpt>
      <trkpt lat="41.036017" lon="-3.543756">
        <ele>1075.35</ele>
        <time>2022-06-19T08:33:35+00:00</time>
      </trkpt>
      <trkpt lat="41.035975" lon="-3.543906">
        <ele>1073.91</ele>
        <time>2022-06-19T08:33:36+00:00</time>
      </trkpt>
      <trkpt lat="41.035910" lon="-3.544078">
        <ele>1072.47</ele>
        <time>2022-06-19T08:33:37+00:00</time>
      </trkpt>
      <trkpt lat="41.035824" lon="-3.544228">
        <ele>1071.51</ele>
        <time>2022-06-19T08:33:38+00:00</time>
      </trkpt>
      <trkpt lat="41.035760" lon="-3.544378">
        <ele>1070.55</ele>
        <time>2022-06-19T08:33:39+00:00</time>
      </trkpt>
      <trkpt lat="41.035438" lon="-3.544979">
        <ele>1065.26</ele>
        <time>2022-06-19T08:33:45+00:00</time>
      </trkpt>
      <trkpt lat="41.035417" lon="-3.545022">
        <ele>1064.30</ele>
        <time>2022-06-19T08:33:46+00:00</time>
      </trkpt>
      <trkpt lat="41.035417" lon="-3.544936">
        <ele>1063.34</ele>
        <time>2022-06-19T08:33:47+00:00</time>
      </trkpt>
      <trkpt lat="41.035374" lon="-3.544872">
        <ele>1062.86</ele>
        <time>2022-06-19T08:33:48+00:00</time>
      </trkpt>
      <trkpt lat="41.035288" lon="-3.544765">
        <ele>1061.89</ele>
        <time>2022-06-19T08:33:49+00:00</time>
      </trkpt>
      <trkpt lat="41.035245" lon="-3.544657">
        <ele>1060.93</ele>
        <time>2022-06-19T08:33:50+00:00</time>
      </trkpt>
      <trkpt lat="41.035202" lon="-3.544335">
        <ele>1059.49</ele>
        <time>2022-06-19T08:33:52+00:00</time>
      </trkpt>
      <trkpt lat="41.035223" lon="-3.544164">
        <ele>1058.53</ele>
        <time>2022-06-19T08:33:53+00:00</time>
      </trkpt>
      <trkpt lat="41.035266" lon="-3.543971">
        <ele>1058.05</ele>
        <time>2022-06-19T08:33:54+00:00</time>
      </trkpt>
      <trkpt lat="41.035288" lon="-3.543799">
        <ele>1057.57</ele>
        <time>2022-06-19T08:33:55+00:00</time>
      </trkpt>
      <trkpt lat="41.035288" lon="-3.543627">
        <ele>1056.61</ele>
        <time>2022-06-19T08:33:56+00:00</time>
      </trkpt>
      <trkpt lat="41.035223" lon="-3.543520">
        <ele>1056.13</ele>
        <time>2022-06-19T08:33:57+00:00</time>
      </trkpt>
      <trkpt lat="41.035159" lon="-3.543434">
        <ele>1055.16</ele>
        <time>2022-06-19T08:33:58+00:00</time>
      </trkpt>
      <trkpt lat="41.035052" lon="-3.543413">
        <ele>1054.68</ele>
        <time>2022-06-19T08:33:59+00:00</time>
      </trkpt>
      <trkpt lat="41.034945" lon="-3.543391">
        <ele>1054.20</ele>
        <time>2022-06-19T08:34:00+00:00</time>
      </trkpt>
      <trkpt lat="41.034837" lon="-3.543520">
        <ele>1053.72</ele>
        <time>2022-06-19T08:34:01+00:00</time>
      </trkpt>
      <trkpt lat="41.034751" lon="-3.543649">
        <ele>1053.72</ele>
        <time>2022-06-19T08:34:02+00:00</time>
      </trkpt>
      <trkpt lat="41.034666" lon="-3.543842">
        <ele>1053.72</ele>
        <time>2022-06-19T08:34:03+00:00</time>
      </trkpt>
      <trkpt lat="41.034601" lon="-3.544035">
        <ele>1053.72</ele>
        <time>2022-06-19T08:34:04+00:00</time>
      </trkpt>
      <trkpt lat="41.034472" lon="-3.544400">
        <ele>1054.68</ele>
        <time>2022-06-19T08:34:06+00:00</time>
      </trkpt>
      <trkpt lat="41.034365" lon="-3.544550">
        <ele>1055.16</ele>
        <time>2022-06-19T08:34:07+00:00</time>
      </trkpt>
      <trkpt lat="41.034258" lon="-3.544657">
        <ele>1055.65</ele>
        <time>2022-06-19T08:34:08+00:00</time>
      </trkpt>
      <trkpt lat="41.034108" lon="-3.544700">
        <ele>1056.13</ele>
        <time>2022-06-19T08:34:09+00:00</time>
      </trkpt>
      <trkpt lat="41.033915" lon="-3.544722">
        <ele>1056.61</ele>
        <time>2022-06-19T08:34:10+00:00</time>
      </trkpt>
      <trkpt lat="41.033743" lon="-3.544700">
        <ele>1057.09</ele>
        <time>2022-06-19T08:34:11+00:00</time>
      </trkpt>
      <trkpt lat="41.033571" lon="-3.544700">
        <ele>1057.57</ele>
        <time>2022-06-19T08:34:12+00:00</time>
      </trkpt>
      <trkpt lat="41.033292" lon="-3.544722">
        <ele>1057.57</ele>
        <time>2022-06-19T08:34:14+00:00</time>
      </trkpt>
      <trkpt lat="41.033206" lon="-3.544807">
        <ele>1057.57</ele>
        <time>2022-06-19T08:34:15+00:00</time>
      </trkpt>
      <trkpt lat="41.033185" lon="-3.544915">
        <ele>1057.57</ele>
        <time>2022-06-19T08:34:16+00:00</time>
      </trkpt>
      <trkpt lat="41.033164" lon="-3.545022">
        <ele>1057.09</ele>
        <time>2022-06-19T08:34:17+00:00</time>
      </trkpt>
      <trkpt lat="41.033206" lon="-3.545215">
        <ele>1058.05</ele>
        <time>2022-06-19T08:34:18+00:00</time>
      </trkpt>
      <trkpt lat="41.033249" lon="-3.545430">
        <ele>1059.01</ele>
        <time>2022-06-19T08:34:19+00:00</time>
      </trkpt>
      <trkpt lat="41.033292" lon="-3.545644">
        <ele>1059.97</ele>
        <time>2022-06-19T08:34:20+00:00</time>
      </trkpt>
      <trkpt lat="41.033271" lon="-3.545902">
        <ele>1060.93</ele>
        <time>2022-06-19T08:34:21+00:00</time>
      </trkpt>
      <trkpt lat="41.033228" lon="-3.546159">
        <ele>1062.37</ele>
        <time>2022-06-19T08:34:22+00:00</time>
      </trkpt>
      <trkpt lat="41.033099" lon="-3.547103">
        <ele>1067.66</ele>
        <time>2022-06-19T08:34:26+00:00</time>
      </trkpt>
      <trkpt lat="41.033013" lon="-3.547297">
        <ele>1069.10</ele>
        <time>2022-06-19T08:34:27+00:00</time>
      </trkpt>
      <trkpt lat="41.032928" lon="-3.547490">
        <ele>1070.55</ele>
        <time>2022-06-19T08:34:28+00:00</time>
      </trkpt>
      <trkpt lat="41.032799" lon="-3.547661">
        <ele>1071.51</ele>
        <time>2022-06-19T08:34:29+00:00</time>
      </trkpt>
      <trkpt lat="41.032670" lon="-3.547833">
        <ele>1072.47</ele>
        <time>2022-06-19T08:34:30+00:00</time>
      </trkpt>
      <trkpt lat="41.032520" lon="-3.547897">
        <ele>1073.91</ele>
        <time>2022-06-19T08:34:31+00:00</time>
      </trkpt>
      <trkpt lat="41.032327" lon="-3.547983">
        <ele>1074.87</ele>
        <time>2022-06-19T08:34:32+00:00</time>
      </trkpt>
      <trkpt lat="41.032155" lon="-3.548069">
        <ele>1076.31</ele>
        <time>2022-06-19T08:34:33+00:00</time>
      </trkpt>
      <trkpt lat="41.031769" lon="-3.548262">
        <ele>1078.72</ele>
        <time>2022-06-19T08:34:35+00:00</time>
      </trkpt>
      <trkpt lat="41.031597" lon="-3.548391">
        <ele>1079.68</ele>
        <time>2022-06-19T08:34:36+00:00</time>
      </trkpt>
      <trkpt lat="41.031297" lon="-3.548605">
        <ele>1081.60</ele>
        <time>2022-06-19T08:34:38+00:00</time>
      </trkpt>
      <trkpt lat="41.031125" lon="-3.548627">
        <ele>1083.04</ele>
        <time>2022-06-19T08:34:39+00:00</time>
      </trkpt>
      <trkpt lat="41.030975" lon="-3.548648">
        <ele>1084.00</ele>
        <time>2022-06-19T08:34:40+00:00</time>
      </trkpt>
      <trkpt lat="41.030825" lon="-3.548670">
        <ele>1085.45</ele>
        <time>2022-06-19T08:34:41+00:00</time>
      </trkpt>
      <trkpt lat="41.030674" lon="-3.548734">
        <ele>1085.93</ele>
        <time>2022-06-19T08:34:42+00:00</time>
      </trkpt>
      <trkpt lat="41.030524" lon="-3.548820">
        <ele>1086.41</ele>
        <time>2022-06-19T08:34:43+00:00</time>
      </trkpt>
      <trkpt lat="41.030396" lon="-3.548970">
        <ele>1086.89</ele>
        <time>2022-06-19T08:34:44+00:00</time>
      </trkpt>
      <trkpt lat="41.030245" lon="-3.549142">
        <ele>1087.37</ele>
        <time>2022-06-19T08:34:45+00:00</time>
      </trkpt>
      <trkpt lat="41.029773" lon="-3.549593">
        <ele>1088.33</ele>
        <time>2022-06-19T08:34:48+00:00</time>
      </trkpt>
      <trkpt lat="41.029602" lon="-3.549721">
        <ele>1088.81</ele>
        <time>2022-06-19T08:34:49+00:00</time>
      </trkpt>
      <trkpt lat="41.029387" lon="-3.549829">
        <ele>1088.81</ele>
        <time>2022-06-19T08:34:50+00:00</time>
      </trkpt>
      <trkpt lat="41.029194" lon="-3.549914">
        <ele>1088.81</ele>
        <time>2022-06-19T08:34:51+00:00</time>
      </trkpt>
      <trkpt lat="41.029001" lon="-3.550000">
        <ele>1088.81</ele>
        <time>2022-06-19T08:34:52+00:00</time>
      </trkpt>
      <trkpt lat="41.026404" lon="-3.550880">
        <ele>1086.89</ele>
        <time>2022-06-19T08:35:06+00:00</time>
      </trkpt>
      <trkpt lat="41.026254" lon="-3.550987">
        <ele>1086.89</ele>
        <time>2022-06-19T08:35:07+00:00</time>
      </trkpt>
      <trkpt lat="41.026104" lon="-3.551116">
        <ele>1085.93</ele>
        <time>2022-06-19T08:35:08+00:00</time>
      </trkpt>
      <trkpt lat="41.025954" lon="-3.551266">
        <ele>1085.45</ele>
        <time>2022-06-19T08:35:09+00:00</time>
      </trkpt>
      <trkpt lat="41.024881" lon="-3.552704">
        <ele>1082.08</ele>
        <time>2022-06-19T08:35:17+00:00</time>
      </trkpt>
      <trkpt lat="41.024709" lon="-3.552833">
        <ele>1081.60</ele>
        <time>2022-06-19T08:35:18+00:00</time>
      </trkpt>
      <trkpt lat="41.024516" lon="-3.552961">
        <ele>1081.12</ele>
        <time>2022-06-19T08:35:19+00:00</time>
      </trkpt>
      <trkpt lat="41.023207" lon="-3.554099">
        <ele>1076.79</ele>
        <time>2022-06-19T08:35:26+00:00</time>
      </trkpt>
      <trkpt lat="41.021491" lon="-3.556244">
        <ele>1076.79</ele>
        <time>2022-06-19T08:35:37+00:00</time>
      </trkpt>
      <trkpt lat="41.021061" lon="-3.556674">
        <ele>1075.35</ele>
        <time>2022-06-19T08:35:40+00:00</time>
      </trkpt>
      <trkpt lat="41.020911" lon="-3.556802">
        <ele>1074.39</ele>
        <time>2022-06-19T08:35:41+00:00</time>
      </trkpt>
      <trkpt lat="41.020718" lon="-3.556888">
        <ele>1073.91</ele>
        <time>2022-06-19T08:35:42+00:00</time>
      </trkpt>
      <trkpt lat="41.019130" lon="-3.557425">
        <ele>1066.22</ele>
        <time>2022-06-19T08:35:49+00:00</time>
      </trkpt>
      <trkpt lat="41.016663" lon="-3.558304">
        <ele>1055.65</ele>
        <time>2022-06-19T08:35:59+00:00</time>
      </trkpt>
      <trkpt lat="41.014646" lon="-3.559570">
        <ele>1040.26</ele>
        <time>2022-06-19T08:36:08+00:00</time>
      </trkpt>
      <trkpt lat="41.011320" lon="-3.561630">
        <ele>1014.31</ele>
        <time>2022-06-19T08:36:23+00:00</time>
      </trkpt>
      <trkpt lat="41.009560" lon="-3.562532">
        <ele>1000.37</ele>
        <time>2022-06-19T08:36:32+00:00</time>
      </trkpt>
      <trkpt lat="41.008573" lon="-3.562768">
        <ele>991.72</ele>
        <time>2022-06-19T08:36:38+00:00</time>
      </trkpt>
      <trkpt lat="41.008466" lon="-3.562703">
        <ele>990.28</ele>
        <time>2022-06-19T08:36:39+00:00</time>
      </trkpt>
      <trkpt lat="41.008337" lon="-3.562617">
        <ele>988.35</ele>
        <time>2022-06-19T08:36:40+00:00</time>
      </trkpt>
      <trkpt lat="41.008230" lon="-3.562489">
        <ele>986.43</ele>
        <time>2022-06-19T08:36:41+00:00</time>
      </trkpt>
      <trkpt lat="41.008122" lon="-3.562338">
        <ele>984.51</ele>
        <time>2022-06-19T08:36:42+00:00</time>
      </trkpt>
      <trkpt lat="41.007994" lon="-3.562210">
        <ele>983.07</ele>
        <time>2022-06-19T08:36:43+00:00</time>
      </trkpt>
      <trkpt lat="41.007886" lon="-3.562102">
        <ele>981.62</ele>
        <time>2022-06-19T08:36:44+00:00</time>
      </trkpt>
      <trkpt lat="41.007758" lon="-3.562038">
        <ele>980.66</ele>
        <time>2022-06-19T08:36:45+00:00</time>
      </trkpt>
      <trkpt lat="41.007522" lon="-3.561888">
        <ele>979.22</ele>
        <time>2022-06-19T08:36:47+00:00</time>
      </trkpt>
      <trkpt lat="41.007436" lon="-3.561780">
        <ele>978.74</ele>
        <time>2022-06-19T08:36:48+00:00</time>
      </trkpt>
      <trkpt lat="41.007135" lon="-3.561459">
        <ele>976.82</ele>
        <time>2022-06-19T08:36:51+00:00</time>
      </trkpt>
      <trkpt lat="41.006985" lon="-3.561394">
        <ele>975.86</ele>
        <time>2022-06-19T08:36:52+00:00</time>
      </trkpt>
      <trkpt lat="41.006835" lon="-3.561330">
        <ele>975.38</ele>
        <time>2022-06-19T08:36:53+00:00</time>
      </trkpt>
      <trkpt lat="41.006685" lon="-3.561287">
        <ele>974.90</ele>
        <time>2022-06-19T08:36:54+00:00</time>
      </trkpt>
      <trkpt lat="41.006556" lon="-3.561266">
        <ele>974.90</ele>
        <time>2022-06-19T08:36:55+00:00</time>
      </trkpt>
      <trkpt lat="41.005784" lon="-3.561115">
        <ele>973.93</ele>
        <time>2022-06-19T08:37:02+00:00</time>
      </trkpt>
      <trkpt lat="41.005526" lon="-3.561094">
        <ele>973.93</ele>
        <time>2022-06-19T08:37:05+00:00</time>
      </trkpt>
      <trkpt lat="41.005440" lon="-3.561115">
        <ele>974.41</ele>
        <time>2022-06-19T08:37:06+00:00</time>
      </trkpt>
      <trkpt lat="41.005376" lon="-3.561137">
        <ele>974.41</ele>
        <time>2022-06-19T08:37:07+00:00</time>
      </trkpt>
      <trkpt lat="41.005311" lon="-3.561180">
        <ele>973.93</ele>
        <time>2022-06-19T08:37:08+00:00</time>
      </trkpt>
      <trkpt lat="41.005247" lon="-3.561223">
        <ele>973.93</ele>
        <time>2022-06-19T08:37:09+00:00</time>
      </trkpt>
      <trkpt lat="41.005161" lon="-3.561266">
        <ele>973.93</ele>
        <time>2022-06-19T08:37:10+00:00</time>
      </trkpt>
      <trkpt lat="41.005097" lon="-3.561266">
        <ele>973.93</ele>
        <time>2022-06-19T08:37:11+00:00</time>
      </trkpt>
      <trkpt lat="41.005011" lon="-3.561244">
        <ele>973.93</ele>
        <time>2022-06-19T08:37:12+00:00</time>
      </trkpt>
      <trkpt lat="41.004925" lon="-3.561244">
        <ele>973.93</ele>
        <time>2022-06-19T08:37:13+00:00</time>
      </trkpt>
      <trkpt lat="41.004882" lon="-3.561244">
        <ele>973.45</ele>
        <time>2022-06-19T08:37:15+00:00</time>
      </trkpt>
      <trkpt lat="41.004797" lon="-3.561094">
        <ele>973.45</ele>
        <time>2022-06-19T08:37:16+00:00</time>
      </trkpt>
      <trkpt lat="41.004797" lon="-3.561051">
        <ele>973.45</ele>
        <time>2022-06-19T08:37:17+00:00</time>
      </trkpt>
      <trkpt lat="41.004775" lon="-3.560922">
        <ele>973.45</ele>
        <time>2022-06-19T08:37:18+00:00</time>
      </trkpt>
      <trkpt lat="41.004754" lon="-3.560815">
        <ele>973.45</ele>
        <time>2022-06-19T08:37:19+00:00</time>
      </trkpt>
      <trkpt lat="41.004754" lon="-3.560708">
        <ele>973.93</ele>
        <time>2022-06-19T08:37:20+00:00</time>
      </trkpt>
      <trkpt lat="41.004732" lon="-3.560600">
        <ele>974.41</ele>
        <time>2022-06-19T08:37:21+00:00</time>
      </trkpt>
      <trkpt lat="41.004668" lon="-3.560429">
        <ele>973.45</ele>
        <time>2022-06-19T08:37:23+00:00</time>
      </trkpt>
      <trkpt lat="41.004668" lon="-3.560300">
        <ele>972.97</ele>
        <time>2022-06-19T08:37:24+00:00</time>
      </trkpt>
      <trkpt lat="41.004668" lon="-3.560171">
        <ele>972.49</ele>
        <time>2022-06-19T08:37:25+00:00</time>
      </trkpt>
      <trkpt lat="41.004711" lon="-3.560042">
        <ele>971.53</ele>
        <time>2022-06-19T08:37:26+00:00</time>
      </trkpt>
      <trkpt lat="41.004754" lon="-3.559871">
        <ele>971.05</ele>
        <time>2022-06-19T08:37:27+00:00</time>
      </trkpt>
      <trkpt lat="41.005204" lon="-3.558369">
        <ele>963.84</ele>
        <time>2022-06-19T08:37:35+00:00</time>
      </trkpt>
      <trkpt lat="41.005226" lon="-3.558219">
        <ele>962.88</ele>
        <time>2022-06-19T08:37:36+00:00</time>
      </trkpt>
      <trkpt lat="41.005183" lon="-3.558111">
        <ele>962.40</ele>
        <time>2022-06-19T08:37:37+00:00</time>
      </trkpt>
      <trkpt lat="41.005140" lon="-3.558004">
        <ele>961.92</ele>
        <time>2022-06-19T08:37:38+00:00</time>
      </trkpt>
      <trkpt lat="41.005075" lon="-3.557982">
        <ele>961.44</ele>
        <time>2022-06-19T08:37:39+00:00</time>
      </trkpt>
      <trkpt lat="41.004968" lon="-3.557940">
        <ele>961.92</ele>
        <time>2022-06-19T08:37:40+00:00</time>
      </trkpt>
      <trkpt lat="41.004818" lon="-3.557982">
        <ele>961.92</ele>
        <time>2022-06-19T08:37:41+00:00</time>
      </trkpt>
      <trkpt lat="41.004646" lon="-3.558068">
        <ele>962.40</ele>
        <time>2022-06-19T08:37:42+00:00</time>
      </trkpt>
      <trkpt lat="41.004496" lon="-3.558133">
        <ele>962.88</ele>
        <time>2022-06-19T08:37:43+00:00</time>
      </trkpt>
      <trkpt lat="41.004239" lon="-3.558240">
        <ele>964.80</ele>
        <time>2022-06-19T08:37:45+00:00</time>
      </trkpt>
      <trkpt lat="41.004174" lon="-3.558219">
        <ele>965.76</ele>
        <time>2022-06-19T08:37:46+00:00</time>
      </trkpt>
      <trkpt lat="41.004067" lon="-3.558133">
        <ele>966.72</ele>
        <time>2022-06-19T08:37:47+00:00</time>
      </trkpt>
      <trkpt lat="41.003938" lon="-3.558025">
        <ele>967.69</ele>
        <time>2022-06-19T08:37:48+00:00</time>
      </trkpt>
      <trkpt lat="41.003809" lon="-3.557918">
        <ele>968.65</ele>
        <time>2022-06-19T08:37:49+00:00</time>
      </trkpt>
      <trkpt lat="41.003659" lon="-3.557854">
        <ele>969.61</ele>
        <time>2022-06-19T08:37:50+00:00</time>
      </trkpt>
      <trkpt lat="41.003573" lon="-3.557789">
        <ele>970.57</ele>
        <time>2022-06-19T08:37:51+00:00</time>
      </trkpt>
      <trkpt lat="41.003531" lon="-3.557661">
        <ele>971.53</ele>
        <time>2022-06-19T08:37:52+00:00</time>
      </trkpt>
      <trkpt lat="41.003509" lon="-3.557532">
        <ele>972.49</ele>
        <time>2022-06-19T08:37:53+00:00</time>
      </trkpt>
      <trkpt lat="41.003531" lon="-3.557360">
        <ele>972.97</ele>
        <time>2022-06-19T08:37:54+00:00</time>
      </trkpt>
      <trkpt lat="41.003552" lon="-3.557146">
        <ele>973.93</ele>
        <time>2022-06-19T08:37:55+00:00</time>
      </trkpt>
      <trkpt lat="41.003573" lon="-3.556910">
        <ele>974.90</ele>
        <time>2022-06-19T08:37:56+00:00</time>
      </trkpt>
      <trkpt lat="41.003573" lon="-3.556652">
        <ele>975.86</ele>
        <time>2022-06-19T08:37:57+00:00</time>
      </trkpt>
      <trkpt lat="41.003531" lon="-3.556416">
        <ele>976.82</ele>
        <time>2022-06-19T08:37:58+00:00</time>
      </trkpt>
      <trkpt lat="41.003488" lon="-3.556180">
        <ele>977.30</ele>
        <time>2022-06-19T08:37:59+00:00</time>
      </trkpt>
      <trkpt lat="41.003380" lon="-3.555987">
        <ele>978.26</ele>
        <time>2022-06-19T08:38:00+00:00</time>
      </trkpt>
      <trkpt lat="41.003252" lon="-3.555794">
        <ele>979.22</ele>
        <time>2022-06-19T08:38:01+00:00</time>
      </trkpt>
      <trkpt lat="41.003080" lon="-3.555622">
        <ele>979.70</ele>
        <time>2022-06-19T08:38:02+00:00</time>
      </trkpt>
      <trkpt lat="41.002887" lon="-3.555493">
        <ele>980.66</ele>
        <time>2022-06-19T08:38:03+00:00</time>
      </trkpt>
      <trkpt lat="41.002694" lon="-3.555365">
        <ele>981.62</ele>
        <time>2022-06-19T08:38:04+00:00</time>
      </trkpt>
      <trkpt lat="41.002007" lon="-3.554935">
        <ele>987.87</ele>
        <time>2022-06-19T08:38:08+00:00</time>
      </trkpt>
      <trkpt lat="41.001857" lon="-3.554807">
        <ele>989.31</ele>
        <time>2022-06-19T08:38:09+00:00</time>
      </trkpt>
      <trkpt lat="41.001728" lon="-3.554614">
        <ele>990.28</ele>
        <time>2022-06-19T08:38:10+00:00</time>
      </trkpt>
      <trkpt lat="41.000333" lon="-3.552446">
        <ele>996.04</ele>
        <time>2022-06-19T08:38:21+00:00</time>
      </trkpt>
      <trkpt lat="40.999990" lon="-3.551974">
        <ele>996.52</ele>
        <time>2022-06-19T08:38:24+00:00</time>
      </trkpt>
      <trkpt lat="40.999883" lon="-3.551824">
        <ele>996.52</ele>
        <time>2022-06-19T08:38:25+00:00</time>
      </trkpt>
      <trkpt lat="40.999754" lon="-3.551760">
        <ele>996.52</ele>
        <time>2022-06-19T08:38:26+00:00</time>
      </trkpt>
      <trkpt lat="40.999604" lon="-3.551717">
        <ele>996.04</ele>
        <time>2022-06-19T08:38:27+00:00</time>
      </trkpt>
      <trkpt lat="40.999454" lon="-3.551717">
        <ele>996.04</ele>
        <time>2022-06-19T08:38:28+00:00</time>
      </trkpt>
      <trkpt lat="40.999303" lon="-3.551717">
        <ele>996.04</ele>
        <time>2022-06-19T08:38:29+00:00</time>
      </trkpt>
      <trkpt lat="40.999175" lon="-3.551652">
        <ele>996.04</ele>
        <time>2022-06-19T08:38:30+00:00</time>
      </trkpt>
      <trkpt lat="40.999046" lon="-3.551545">
        <ele>996.52</ele>
        <time>2022-06-19T08:38:31+00:00</time>
      </trkpt>
      <trkpt lat="40.998917" lon="-3.551395">
        <ele>997.01</ele>
        <time>2022-06-19T08:38:32+00:00</time>
      </trkpt>
      <trkpt lat="40.998788" lon="-3.551202">
        <ele>997.01</ele>
        <time>2022-06-19T08:38:33+00:00</time>
      </trkpt>
      <trkpt lat="40.998681" lon="-3.550987">
        <ele>997.49</ele>
        <time>2022-06-19T08:38:34+00:00</time>
      </trkpt>
      <trkpt lat="40.998123" lon="-3.549507">
        <ele>1003.25</ele>
        <time>2022-06-19T08:38:40+00:00</time>
      </trkpt>
      <trkpt lat="40.997415" lon="-3.547726">
        <ele>1011.91</ele>
        <time>2022-06-19T08:38:47+00:00</time>
      </trkpt>
      <trkpt lat="40.996621" lon="-3.545537">
        <ele>1021.52</ele>
        <time>2022-06-19T08:38:55+00:00</time>
      </trkpt>
      <trkpt lat="40.995441" lon="-3.541632">
        <ele>1041.23</ele>
        <time>2022-06-19T08:39:09+00:00</time>
      </trkpt>
      <trkpt lat="40.995012" lon="-3.540366">
        <ele>1048.92</ele>
        <time>2022-06-19T08:39:14+00:00</time>
      </trkpt>
      <trkpt lat="40.994905" lon="-3.540151">
        <ele>1050.36</ele>
        <time>2022-06-19T08:39:15+00:00</time>
      </trkpt>
      <trkpt lat="40.994776" lon="-3.539937">
        <ele>1051.80</ele>
        <time>2022-06-19T08:39:16+00:00</time>
      </trkpt>
      <trkpt lat="40.994626" lon="-3.539722">
        <ele>1053.24</ele>
        <time>2022-06-19T08:39:17+00:00</time>
      </trkpt>
      <trkpt lat="40.994454" lon="-3.539550">
        <ele>1054.20</ele>
        <time>2022-06-19T08:39:18+00:00</time>
      </trkpt>
      <trkpt lat="40.994282" lon="-3.539400">
        <ele>1055.16</ele>
        <time>2022-06-19T08:39:19+00:00</time>
      </trkpt>
      <trkpt lat="40.994111" lon="-3.539271">
        <ele>1055.16</ele>
        <time>2022-06-19T08:39:20+00:00</time>
      </trkpt>
      <trkpt lat="40.992244" lon="-3.537920">
        <ele>1043.63</ele>
        <time>2022-06-19T08:39:30+00:00</time>
      </trkpt>
      <trkpt lat="40.991858" lon="-3.537619">
        <ele>1040.74</ele>
        <time>2022-06-19T08:39:33+00:00</time>
      </trkpt>
      <trkpt lat="40.991772" lon="-3.537490">
        <ele>1039.78</ele>
        <time>2022-06-19T08:39:34+00:00</time>
      </trkpt>
      <trkpt lat="40.991729" lon="-3.537340">
        <ele>1038.82</ele>
        <time>2022-06-19T08:39:35+00:00</time>
      </trkpt>
      <trkpt lat="40.991707" lon="-3.537147">
        <ele>1037.86</ele>
        <time>2022-06-19T08:39:36+00:00</time>
      </trkpt>
      <trkpt lat="40.991707" lon="-3.536954">
        <ele>1036.42</ele>
        <time>2022-06-19T08:39:37+00:00</time>
      </trkpt>
      <trkpt lat="40.991750" lon="-3.536761">
        <ele>1035.46</ele>
        <time>2022-06-19T08:39:38+00:00</time>
      </trkpt>
      <trkpt lat="40.991772" lon="-3.536589">
        <ele>1034.02</ele>
        <time>2022-06-19T08:39:39+00:00</time>
      </trkpt>
      <trkpt lat="40.991772" lon="-3.536418">
        <ele>1033.05</ele>
        <time>2022-06-19T08:39:40+00:00</time>
      </trkpt>
      <trkpt lat="40.991750" lon="-3.536267">
        <ele>1032.09</ele>
        <time>2022-06-19T08:39:41+00:00</time>
      </trkpt>
      <trkpt lat="40.991707" lon="-3.536139">
        <ele>1031.13</ele>
        <time>2022-06-19T08:39:42+00:00</time>
      </trkpt>
      <trkpt lat="40.991643" lon="-3.536010">
        <ele>1030.65</ele>
        <time>2022-06-19T08:39:43+00:00</time>
      </trkpt>
      <trkpt lat="40.991557" lon="-3.535924">
        <ele>1030.17</ele>
        <time>2022-06-19T08:39:44+00:00</time>
      </trkpt>
      <trkpt lat="40.991471" lon="-3.535860">
        <ele>1030.17</ele>
        <time>2022-06-19T08:39:45+00:00</time>
      </trkpt>
      <trkpt lat="40.991343" lon="-3.535860">
        <ele>1030.17</ele>
        <time>2022-06-19T08:39:46+00:00</time>
      </trkpt>
      <trkpt lat="40.991192" lon="-3.535838">
        <ele>1030.65</ele>
        <time>2022-06-19T08:39:47+00:00</time>
      </trkpt>
      <trkpt lat="40.991064" lon="-3.535838">
        <ele>1030.65</ele>
        <time>2022-06-19T08:39:48+00:00</time>
      </trkpt>
      <trkpt lat="40.990119" lon="-3.535881">
        <ele>1032.57</ele>
        <time>2022-06-19T08:39:57+00:00</time>
      </trkpt>
      <trkpt lat="40.990055" lon="-3.535838">
        <ele>1032.57</ele>
        <time>2022-06-19T08:39:58+00:00</time>
      </trkpt>
      <trkpt lat="40.989991" lon="-3.535795">
        <ele>1032.57</ele>
        <time>2022-06-19T08:39:59+00:00</time>
      </trkpt>
      <trkpt lat="40.989948" lon="-3.535688">
        <ele>1032.09</ele>
        <time>2022-06-19T08:40:00+00:00</time>
      </trkpt>
      <trkpt lat="40.989905" lon="-3.535581">
        <ele>1031.61</ele>
        <time>2022-06-19T08:40:01+00:00</time>
      </trkpt>
      <trkpt lat="40.989883" lon="-3.535452">
        <ele>1031.13</ele>
        <time>2022-06-19T08:40:02+00:00</time>
      </trkpt>
      <trkpt lat="40.989883" lon="-3.535302">
        <ele>1030.65</ele>
        <time>2022-06-19T08:40:03+00:00</time>
      </trkpt>
      <trkpt lat="40.989905" lon="-3.535173">
        <ele>1029.69</ele>
        <time>2022-06-19T08:40:04+00:00</time>
      </trkpt>
      <trkpt lat="40.989926" lon="-3.535023">
        <ele>1029.21</ele>
        <time>2022-06-19T08:40:05+00:00</time>
      </trkpt>
      <trkpt lat="40.989948" lon="-3.534873">
        <ele>1028.73</ele>
        <time>2022-06-19T08:40:06+00:00</time>
      </trkpt>
      <trkpt lat="40.990098" lon="-3.534057">
        <ele>1027.29</ele>
        <time>2022-06-19T08:40:11+00:00</time>
      </trkpt>
      <trkpt lat="40.990077" lon="-3.533907">
        <ele>1026.81</ele>
        <time>2022-06-19T08:40:12+00:00</time>
      </trkpt>
      <trkpt lat="40.990077" lon="-3.533778">
        <ele>1026.33</ele>
        <time>2022-06-19T08:40:13+00:00</time>
      </trkpt>
      <trkpt lat="40.990012" lon="-3.533714">
        <ele>1025.84</ele>
        <time>2022-06-19T08:40:14+00:00</time>
      </trkpt>
      <trkpt lat="40.989926" lon="-3.533649">
        <ele>1025.36</ele>
        <time>2022-06-19T08:40:15+00:00</time>
      </trkpt>
      <trkpt lat="40.989819" lon="-3.533671">
        <ele>1025.36</ele>
        <time>2022-06-19T08:40:16+00:00</time>
      </trkpt>
      <trkpt lat="40.989669" lon="-3.533735">
        <ele>1025.84</ele>
        <time>2022-06-19T08:40:17+00:00</time>
      </trkpt>
      <trkpt lat="40.989497" lon="-3.533821">
        <ele>1025.84</ele>
        <time>2022-06-19T08:40:18+00:00</time>
      </trkpt>
      <trkpt lat="40.988532" lon="-3.534336">
        <ele>1026.81</ele>
        <time>2022-06-19T08:40:24+00:00</time>
      </trkpt>
      <trkpt lat="40.988424" lon="-3.534358">
        <ele>1026.81</ele>
        <time>2022-06-19T08:40:25+00:00</time>
      </trkpt>
      <trkpt lat="40.988296" lon="-3.534315">
        <ele>1026.81</ele>
        <time>2022-06-19T08:40:26+00:00</time>
      </trkpt>
      <trkpt lat="40.988210" lon="-3.534229">
        <ele>1026.33</ele>
        <time>2022-06-19T08:40:27+00:00</time>
      </trkpt>
      <trkpt lat="40.988102" lon="-3.534100">
        <ele>1025.84</ele>
        <time>2022-06-19T08:40:28+00:00</time>
      </trkpt>
      <trkpt lat="40.988060" lon="-3.533907">
        <ele>1025.36</ele>
        <time>2022-06-19T08:40:29+00:00</time>
      </trkpt>
      <trkpt lat="40.988017" lon="-3.533714">
        <ele>1024.88</ele>
        <time>2022-06-19T08:40:30+00:00</time>
      </trkpt>
      <trkpt lat="40.987974" lon="-3.533521">
        <ele>1023.92</ele>
        <time>2022-06-19T08:40:31+00:00</time>
      </trkpt>
      <trkpt lat="40.987909" lon="-3.533349">
        <ele>1023.44</ele>
        <time>2022-06-19T08:40:32+00:00</time>
      </trkpt>
      <trkpt lat="40.987823" lon="-3.533177">
        <ele>1023.44</ele>
        <time>2022-06-19T08:40:33+00:00</time>
      </trkpt>
      <trkpt lat="40.987673" lon="-3.533049">
        <ele>1022.96</ele>
        <time>2022-06-19T08:40:34+00:00</time>
      </trkpt>
      <trkpt lat="40.987523" lon="-3.532920">
        <ele>1022.96</ele>
        <time>2022-06-19T08:40:35+00:00</time>
      </trkpt>
      <trkpt lat="40.987373" lon="-3.532834">
        <ele>1022.96</ele>
        <time>2022-06-19T08:40:36+00:00</time>
      </trkpt>
      <trkpt lat="40.987201" lon="-3.532770">
        <ele>1023.44</ele>
        <time>2022-06-19T08:40:37+00:00</time>
      </trkpt>
      <trkpt lat="40.987008" lon="-3.532791">
        <ele>1024.40</ele>
        <time>2022-06-19T08:40:38+00:00</time>
      </trkpt>
      <trkpt lat="40.986794" lon="-3.532834">
        <ele>1025.36</ele>
        <time>2022-06-19T08:40:39+00:00</time>
      </trkpt>
      <trkpt lat="40.986107" lon="-3.532984">
        <ele>1029.69</ele>
        <time>2022-06-19T08:40:43+00:00</time>
      </trkpt>
      <trkpt lat="40.985957" lon="-3.532941">
        <ele>1030.65</ele>
        <time>2022-06-19T08:40:44+00:00</time>
      </trkpt>
      <trkpt lat="40.985828" lon="-3.532877">
        <ele>1031.61</ele>
        <time>2022-06-19T08:40:45+00:00</time>
      </trkpt>
      <trkpt lat="40.985699" lon="-3.532748">
        <ele>1033.05</ele>
        <time>2022-06-19T08:40:46+00:00</time>
      </trkpt>
      <trkpt lat="40.985549" lon="-3.532598">
        <ele>1034.02</ele>
        <time>2022-06-19T08:40:47+00:00</time>
      </trkpt>
      <trkpt lat="40.985420" lon="-3.532448">
        <ele>1035.46</ele>
        <time>2022-06-19T08:40:48+00:00</time>
      </trkpt>
      <trkpt lat="40.985313" lon="-3.532255">
        <ele>1036.42</ele>
        <time>2022-06-19T08:40:49+00:00</time>
      </trkpt>
      <trkpt lat="40.985227" lon="-3.532062">
        <ele>1037.38</ele>
        <time>2022-06-19T08:40:50+00:00</time>
      </trkpt>
      <trkpt lat="40.985120" lon="-3.531911">
        <ele>1037.86</ele>
        <time>2022-06-19T08:40:51+00:00</time>
      </trkpt>
      <trkpt lat="40.985034" lon="-3.531740">
        <ele>1038.34</ele>
        <time>2022-06-19T08:40:52+00:00</time>
      </trkpt>
      <trkpt lat="40.984905" lon="-3.531590">
        <ele>1038.82</ele>
        <time>2022-06-19T08:40:53+00:00</time>
      </trkpt>
      <trkpt lat="40.984734" lon="-3.531504">
        <ele>1039.30</ele>
        <time>2022-06-19T08:40:54+00:00</time>
      </trkpt>
      <trkpt lat="40.983060" lon="-3.530624">
        <ele>1046.03</ele>
        <time>2022-06-19T08:41:02+00:00</time>
      </trkpt>
      <trkpt lat="40.981579" lon="-3.529894">
        <ele>1055.16</ele>
        <time>2022-06-19T08:41:10+00:00</time>
      </trkpt>
      <trkpt lat="40.981429" lon="-3.529830">
        <ele>1055.65</ele>
        <time>2022-06-19T08:41:11+00:00</time>
      </trkpt>
      <trkpt lat="40.981300" lon="-3.529723">
        <ele>1056.61</ele>
        <time>2022-06-19T08:41:12+00:00</time>
      </trkpt>
      <trkpt lat="40.981193" lon="-3.529551">
        <ele>1057.09</ele>
        <time>2022-06-19T08:41:13+00:00</time>
      </trkpt>
      <trkpt lat="40.981107" lon="-3.529358">
        <ele>1057.57</ele>
        <time>2022-06-19T08:41:14+00:00</time>
      </trkpt>
      <trkpt lat="40.981064" lon="-3.529122">
        <ele>1058.53</ele>
        <time>2022-06-19T08:41:15+00:00</time>
      </trkpt>
      <trkpt lat="40.981021" lon="-3.528864">
        <ele>1059.01</ele>
        <time>2022-06-19T08:41:16+00:00</time>
      </trkpt>
      <trkpt lat="40.981043" lon="-3.528607">
        <ele>1059.49</ele>
        <time>2022-06-19T08:41:17+00:00</time>
      </trkpt>
      <trkpt lat="40.981043" lon="-3.528328">
        <ele>1059.97</ele>
        <time>2022-06-19T08:41:18+00:00</time>
      </trkpt>
      <trkpt lat="40.981043" lon="-3.526483">
        <ele>1059.97</ele>
        <time>2022-06-19T08:41:26+00:00</time>
      </trkpt>
      <trkpt lat="40.980978" lon="-3.526332">
        <ele>1059.49</ele>
        <time>2022-06-19T08:41:27+00:00</time>
      </trkpt>
      <trkpt lat="40.980893" lon="-3.526182">
        <ele>1059.49</ele>
        <time>2022-06-19T08:41:28+00:00</time>
      </trkpt>
      <trkpt lat="40.980785" lon="-3.526075">
        <ele>1059.49</ele>
        <time>2022-06-19T08:41:29+00:00</time>
      </trkpt>
      <trkpt lat="40.980614" lon="-3.526011">
        <ele>1059.49</ele>
        <time>2022-06-19T08:41:30+00:00</time>
      </trkpt>
      <trkpt lat="40.980464" lon="-3.526011">
        <ele>1059.97</ele>
        <time>2022-06-19T08:41:31+00:00</time>
      </trkpt>
      <trkpt lat="40.980270" lon="-3.526032">
        <ele>1059.97</ele>
        <time>2022-06-19T08:41:32+00:00</time>
      </trkpt>
      <trkpt lat="40.980099" lon="-3.526118">
        <ele>1059.97</ele>
        <time>2022-06-19T08:41:33+00:00</time>
      </trkpt>
      <trkpt lat="40.979949" lon="-3.526204">
        <ele>1059.97</ele>
        <time>2022-06-19T08:41:34+00:00</time>
      </trkpt>
      <trkpt lat="40.979820" lon="-3.526311">
        <ele>1059.97</ele>
        <time>2022-06-19T08:41:35+00:00</time>
      </trkpt>
      <trkpt lat="40.979691" lon="-3.526397">
        <ele>1060.45</ele>
        <time>2022-06-19T08:41:36+00:00</time>
      </trkpt>
      <trkpt lat="40.979541" lon="-3.526440">
        <ele>1060.45</ele>
        <time>2022-06-19T08:41:37+00:00</time>
      </trkpt>
      <trkpt lat="40.979391" lon="-3.526440">
        <ele>1060.45</ele>
        <time>2022-06-19T08:41:38+00:00</time>
      </trkpt>
      <trkpt lat="40.979240" lon="-3.526375">
        <ele>1060.45</ele>
        <time>2022-06-19T08:41:39+00:00</time>
      </trkpt>
      <trkpt lat="40.979090" lon="-3.526311">
        <ele>1060.45</ele>
        <time>2022-06-19T08:41:40+00:00</time>
      </trkpt>
      <trkpt lat="40.978940" lon="-3.526204">
        <ele>1059.97</ele>
        <time>2022-06-19T08:41:41+00:00</time>
      </trkpt>
      <trkpt lat="40.978790" lon="-3.526118">
        <ele>1059.97</ele>
        <time>2022-06-19T08:41:42+00:00</time>
      </trkpt>
      <trkpt lat="40.977738" lon="-3.525603">
        <ele>1062.86</ele>
        <time>2022-06-19T08:41:49+00:00</time>
      </trkpt>
      <trkpt lat="40.977567" lon="-3.525560">
        <ele>1063.34</ele>
        <time>2022-06-19T08:41:50+00:00</time>
      </trkpt>
      <trkpt lat="40.977095" lon="-3.525431">
        <ele>1064.78</ele>
        <time>2022-06-19T08:41:53+00:00</time>
      </trkpt>
      <trkpt lat="40.976966" lon="-3.525367">
        <ele>1065.26</ele>
        <time>2022-06-19T08:41:54+00:00</time>
      </trkpt>
      <trkpt lat="40.976472" lon="-3.525195">
        <ele>1067.18</ele>
        <time>2022-06-19T08:41:58+00:00</time>
      </trkpt>
      <trkpt lat="40.976365" lon="-3.525174">
        <ele>1067.66</ele>
        <time>2022-06-19T08:41:59+00:00</time>
      </trkpt>
      <trkpt lat="40.976108" lon="-3.525152">
        <ele>1070.06</ele>
        <time>2022-06-19T08:42:02+00:00</time>
      </trkpt>
      <trkpt lat="40.976000" lon="-3.525109">
        <ele>1070.55</ele>
        <time>2022-06-19T08:42:03+00:00</time>
      </trkpt>
      <trkpt lat="40.975914" lon="-3.525066">
        <ele>1071.03</ele>
        <time>2022-06-19T08:42:04+00:00</time>
      </trkpt>
      <trkpt lat="40.975850" lon="-3.524981">
        <ele>1071.51</ele>
        <time>2022-06-19T08:42:05+00:00</time>
      </trkpt>
      <trkpt lat="40.975786" lon="-3.524916">
        <ele>1071.99</ele>
        <time>2022-06-19T08:42:06+00:00</time>
      </trkpt>
      <trkpt lat="40.975743" lon="-3.524830">
        <ele>1072.95</ele>
        <time>2022-06-19T08:42:07+00:00</time>
      </trkpt>
      <trkpt lat="40.975678" lon="-3.524766">
        <ele>1073.43</ele>
        <time>2022-06-19T08:42:08+00:00</time>
      </trkpt>
      <trkpt lat="40.975636" lon="-3.524702">
        <ele>1073.91</ele>
        <time>2022-06-19T08:42:09+00:00</time>
      </trkpt>
      <trkpt lat="40.975593" lon="-3.524616">
        <ele>1074.87</ele>
        <time>2022-06-19T08:42:10+00:00</time>
      </trkpt>
      <trkpt lat="40.975550" lon="-3.524530">
        <ele>1075.35</ele>
        <time>2022-06-19T08:42:11+00:00</time>
      </trkpt>
      <trkpt lat="40.975185" lon="-3.523757">
        <ele>1083.04</ele>
        <time>2022-06-19T08:42:22+00:00</time>
      </trkpt>
      <trkpt lat="40.975121" lon="-3.523672">
        <ele>1084.00</ele>
        <time>2022-06-19T08:42:23+00:00</time>
      </trkpt>
      <trkpt lat="40.975078" lon="-3.523564">
        <ele>1084.48</ele>
        <time>2022-06-19T08:42:24+00:00</time>
      </trkpt>
      <trkpt lat="40.974434" lon="-3.522105">
        <ele>1090.25</ele>
        <time>2022-06-19T08:42:37+00:00</time>
      </trkpt>
      <trkpt lat="40.974370" lon="-3.521998">
        <ele>1090.25</ele>
        <time>2022-06-19T08:42:38+00:00</time>
      </trkpt>
      <trkpt lat="40.974305" lon="-3.521912">
        <ele>1090.73</ele>
        <time>2022-06-19T08:42:39+00:00</time>
      </trkpt>
      <trkpt lat="40.974176" lon="-3.521848">
        <ele>1091.21</ele>
        <time>2022-06-19T08:42:40+00:00</time>
      </trkpt>
      <trkpt lat="40.974048" lon="-3.521805">
        <ele>1091.21</ele>
        <time>2022-06-19T08:42:41+00:00</time>
      </trkpt>
      <trkpt lat="40.973897" lon="-3.521805">
        <ele>1091.21</ele>
        <time>2022-06-19T08:42:42+00:00</time>
      </trkpt>
      <trkpt lat="40.973726" lon="-3.521805">
        <ele>1091.69</ele>
        <time>2022-06-19T08:42:43+00:00</time>
      </trkpt>
      <trkpt lat="40.972760" lon="-3.522041">
        <ele>1093.14</ele>
        <time>2022-06-19T08:42:49+00:00</time>
      </trkpt>
      <trkpt lat="40.972589" lon="-3.522148">
        <ele>1092.66</ele>
        <time>2022-06-19T08:42:50+00:00</time>
      </trkpt>
      <trkpt lat="40.972417" lon="-3.522277">
        <ele>1092.18</ele>
        <time>2022-06-19T08:42:51+00:00</time>
      </trkpt>
      <trkpt lat="40.972245" lon="-3.522427">
        <ele>1091.21</ele>
        <time>2022-06-19T08:42:52+00:00</time>
      </trkpt>
      <trkpt lat="40.972116" lon="-3.522599">
        <ele>1090.73</ele>
        <time>2022-06-19T08:42:53+00:00</time>
      </trkpt>
      <trkpt lat="40.971966" lon="-3.522770">
        <ele>1090.25</ele>
        <time>2022-06-19T08:42:54+00:00</time>
      </trkpt>
      <trkpt lat="40.971280" lon="-3.523436">
        <ele>1086.41</ele>
        <time>2022-06-19T08:42:59+00:00</time>
      </trkpt>
      <trkpt lat="40.971108" lon="-3.523457">
        <ele>1084.97</ele>
        <time>2022-06-19T08:43:00+00:00</time>
      </trkpt>
      <trkpt lat="40.970936" lon="-3.523479">
        <ele>1084.00</ele>
        <time>2022-06-19T08:43:01+00:00</time>
      </trkpt>
      <trkpt lat="40.970743" lon="-3.523414">
        <ele>1082.56</ele>
        <time>2022-06-19T08:43:02+00:00</time>
      </trkpt>
      <trkpt lat="40.970550" lon="-3.523328">
        <ele>1081.12</ele>
        <time>2022-06-19T08:43:03+00:00</time>
      </trkpt>
      <trkpt lat="40.970335" lon="-3.523264">
        <ele>1079.68</ele>
        <time>2022-06-19T08:43:04+00:00</time>
      </trkpt>
      <trkpt lat="40.970121" lon="-3.523178">
        <ele>1078.72</ele>
        <time>2022-06-19T08:43:05+00:00</time>
      </trkpt>
      <trkpt lat="40.969906" lon="-3.523114">
        <ele>1078.24</ele>
        <time>2022-06-19T08:43:06+00:00</time>
      </trkpt>
      <trkpt lat="40.969713" lon="-3.523092">
        <ele>1078.24</ele>
        <time>2022-06-19T08:43:07+00:00</time>
      </trkpt>
      <trkpt lat="40.969520" lon="-3.523071">
        <ele>1078.24</ele>
        <time>2022-06-19T08:43:08+00:00</time>
      </trkpt>
      <trkpt lat="40.969348" lon="-3.523135">
        <ele>1078.24</ele>
        <time>2022-06-19T08:43:09+00:00</time>
      </trkpt>
      <trkpt lat="40.969177" lon="-3.523200">
        <ele>1078.24</ele>
        <time>2022-06-19T08:43:10+00:00</time>
      </trkpt>
      <trkpt lat="40.969005" lon="-3.523328">
        <ele>1078.24</ele>
        <time>2022-06-19T08:43:11+00:00</time>
      </trkpt>
      <trkpt lat="40.968812" lon="-3.523479">
        <ele>1078.24</ele>
        <time>2022-06-19T08:43:12+00:00</time>
      </trkpt>
      <trkpt lat="40.967224" lon="-3.524809">
        <ele>1079.68</ele>
        <time>2022-06-19T08:43:21+00:00</time>
      </trkpt>
      <trkpt lat="40.966945" lon="-3.525024">
        <ele>1081.12</ele>
        <time>2022-06-19T08:43:23+00:00</time>
      </trkpt>
      <trkpt lat="40.966795" lon="-3.525088">
        <ele>1081.60</ele>
        <time>2022-06-19T08:43:24+00:00</time>
      </trkpt>
      <trkpt lat="40.966645" lon="-3.525109">
        <ele>1081.60</ele>
        <time>2022-06-19T08:43:25+00:00</time>
      </trkpt>
      <trkpt lat="40.966473" lon="-3.525066">
        <ele>1082.08</ele>
        <time>2022-06-19T08:43:26+00:00</time>
      </trkpt>
      <trkpt lat="40.966323" lon="-3.524981">
        <ele>1081.60</ele>
        <time>2022-06-19T08:43:27+00:00</time>
      </trkpt>
      <trkpt lat="40.966130" lon="-3.524852">
        <ele>1081.12</ele>
        <time>2022-06-19T08:43:28+00:00</time>
      </trkpt>
      <trkpt lat="40.966001" lon="-3.524659">
        <ele>1080.64</ele>
        <time>2022-06-19T08:43:29+00:00</time>
      </trkpt>
      <trkpt lat="40.965851" lon="-3.524444">
        <ele>1079.68</ele>
        <time>2022-06-19T08:43:30+00:00</time>
      </trkpt>
      <trkpt lat="40.965765" lon="-3.524230">
        <ele>1079.20</ele>
        <time>2022-06-19T08:43:31+00:00</time>
      </trkpt>
      <trkpt lat="40.965679" lon="-3.524036">
        <ele>1078.24</ele>
        <time>2022-06-19T08:43:32+00:00</time>
      </trkpt>
      <trkpt lat="40.965658" lon="-3.523779">
        <ele>1077.76</ele>
        <time>2022-06-19T08:43:33+00:00</time>
      </trkpt>
      <trkpt lat="40.965636" lon="-3.523543">
        <ele>1076.31</ele>
        <time>2022-06-19T08:43:34+00:00</time>
      </trkpt>
      <trkpt lat="40.965679" lon="-3.523264">
        <ele>1075.35</ele>
        <time>2022-06-19T08:43:35+00:00</time>
      </trkpt>
      <trkpt lat="40.965722" lon="-3.522985">
        <ele>1074.39</ele>
        <time>2022-06-19T08:43:36+00:00</time>
      </trkpt>
      <trkpt lat="40.965829" lon="-3.521955">
        <ele>1071.99</ele>
        <time>2022-06-19T08:43:40+00:00</time>
      </trkpt>
      <trkpt lat="40.965786" lon="-3.521762">
        <ele>1071.03</ele>
        <time>2022-06-19T08:43:41+00:00</time>
      </trkpt>
      <trkpt lat="40.965744" lon="-3.521569">
        <ele>1070.55</ele>
        <time>2022-06-19T08:43:42+00:00</time>
      </trkpt>
      <trkpt lat="40.965679" lon="-3.521397">
        <ele>1069.10</ele>
        <time>2022-06-19T08:43:43+00:00</time>
      </trkpt>
      <trkpt lat="40.965572" lon="-3.521225">
        <ele>1068.14</ele>
        <time>2022-06-19T08:43:44+00:00</time>
      </trkpt>
      <trkpt lat="40.965422" lon="-3.521118">
        <ele>1067.18</ele>
        <time>2022-06-19T08:43:45+00:00</time>
      </trkpt>
      <trkpt lat="40.965271" lon="-3.521011">
        <ele>1066.22</ele>
        <time>2022-06-19T08:43:46+00:00</time>
      </trkpt>
      <trkpt lat="40.965100" lon="-3.521011">
        <ele>1065.74</ele>
        <time>2022-06-19T08:43:47+00:00</time>
      </trkpt>
      <trkpt lat="40.964907" lon="-3.521032">
        <ele>1065.74</ele>
        <time>2022-06-19T08:43:48+00:00</time>
      </trkpt>
      <trkpt lat="40.964756" lon="-3.521140">
        <ele>1064.78</ele>
        <time>2022-06-19T08:43:49+00:00</time>
      </trkpt>
      <trkpt lat="40.964563" lon="-3.521268">
        <ele>1063.82</ele>
        <time>2022-06-19T08:43:50+00:00</time>
      </trkpt>
      <trkpt lat="40.964392" lon="-3.521440">
        <ele>1063.34</ele>
        <time>2022-06-19T08:43:51+00:00</time>
      </trkpt>
      <trkpt lat="40.963276" lon="-3.522449">
        <ele>1062.86</ele>
        <time>2022-06-19T08:43:58+00:00</time>
      </trkpt>
      <trkpt lat="40.963126" lon="-3.522491">
        <ele>1062.86</ele>
        <time>2022-06-19T08:43:59+00:00</time>
      </trkpt>
      <trkpt lat="40.962997" lon="-3.522534">
        <ele>1062.37</ele>
        <time>2022-06-19T08:44:00+00:00</time>
      </trkpt>
      <trkpt lat="40.962847" lon="-3.522491">
        <ele>1062.37</ele>
        <time>2022-06-19T08:44:01+00:00</time>
      </trkpt>
      <trkpt lat="40.962739" lon="-3.522406">
        <ele>1061.89</ele>
        <time>2022-06-19T08:44:02+00:00</time>
      </trkpt>
      <trkpt lat="40.962611" lon="-3.522277">
        <ele>1060.93</ele>
        <time>2022-06-19T08:44:03+00:00</time>
      </trkpt>
      <trkpt lat="40.962525" lon="-3.522105">
        <ele>1060.45</ele>
        <time>2022-06-19T08:44:04+00:00</time>
      </trkpt>
      <trkpt lat="40.962461" lon="-3.521869">
        <ele>1059.01</ele>
        <time>2022-06-19T08:44:05+00:00</time>
      </trkpt>
      <trkpt lat="40.962396" lon="-3.521633">
        <ele>1058.53</ele>
        <time>2022-06-19T08:44:06+00:00</time>
      </trkpt>
      <trkpt lat="40.962332" lon="-3.521419">
        <ele>1057.09</ele>
        <time>2022-06-19T08:44:07+00:00</time>
      </trkpt>
      <trkpt lat="40.962246" lon="-3.521204">
        <ele>1055.65</ele>
        <time>2022-06-19T08:44:08+00:00</time>
      </trkpt>
      <trkpt lat="40.962117" lon="-3.521054">
        <ele>1054.20</ele>
        <time>2022-06-19T08:44:09+00:00</time>
      </trkpt>
      <trkpt lat="40.961988" lon="-3.520904">
        <ele>1052.76</ele>
        <time>2022-06-19T08:44:10+00:00</time>
      </trkpt>
      <trkpt lat="40.961817" lon="-3.520839">
        <ele>1051.32</ele>
        <time>2022-06-19T08:44:11+00:00</time>
      </trkpt>
      <trkpt lat="40.961624" lon="-3.520796">
        <ele>1049.88</ele>
        <time>2022-06-19T08:44:12+00:00</time>
      </trkpt>
      <trkpt lat="40.961431" lon="-3.520839">
        <ele>1047.96</ele>
        <time>2022-06-19T08:44:13+00:00</time>
      </trkpt>
      <trkpt lat="40.961216" lon="-3.520904">
        <ele>1046.51</ele>
        <time>2022-06-19T08:44:14+00:00</time>
      </trkpt>
      <trkpt lat="40.961001" lon="-3.520968">
        <ele>1045.07</ele>
        <time>2022-06-19T08:44:15+00:00</time>
      </trkpt>
      <trkpt lat="40.960808" lon="-3.521054">
        <ele>1043.63</ele>
        <time>2022-06-19T08:44:16+00:00</time>
      </trkpt>
      <trkpt lat="40.960637" lon="-3.521204">
        <ele>1042.67</ele>
        <time>2022-06-19T08:44:17+00:00</time>
      </trkpt>
      <trkpt lat="40.960465" lon="-3.521354">
        <ele>1041.71</ele>
        <time>2022-06-19T08:44:18+00:00</time>
      </trkpt>
      <trkpt lat="40.960315" lon="-3.521483">
        <ele>1041.23</ele>
        <time>2022-06-19T08:44:19+00:00</time>
      </trkpt>
      <trkpt lat="40.960143" lon="-3.521612">
        <ele>1040.74</ele>
        <time>2022-06-19T08:44:20+00:00</time>
      </trkpt>
      <trkpt lat="40.959971" lon="-3.521655">
        <ele>1040.26</ele>
        <time>2022-06-19T08:44:21+00:00</time>
      </trkpt>
      <trkpt lat="40.959778" lon="-3.521719">
        <ele>1039.78</ele>
        <time>2022-06-19T08:44:22+00:00</time>
      </trkpt>
      <trkpt lat="40.959585" lon="-3.521762">
        <ele>1038.82</ele>
        <time>2022-06-19T08:44:23+00:00</time>
      </trkpt>
      <trkpt lat="40.959414" lon="-3.521805">
        <ele>1037.86</ele>
        <time>2022-06-19T08:44:24+00:00</time>
      </trkpt>
      <trkpt lat="40.959242" lon="-3.521955">
        <ele>1036.42</ele>
        <time>2022-06-19T08:44:25+00:00</time>
      </trkpt>
      <trkpt lat="40.959113" lon="-3.522127">
        <ele>1034.98</ele>
        <time>2022-06-19T08:44:26+00:00</time>
      </trkpt>
      <trkpt lat="40.957804" lon="-3.523800">
        <ele>1036.42</ele>
        <time>2022-06-19T08:44:35+00:00</time>
      </trkpt>
      <trkpt lat="40.956495" lon="-3.524745">
        <ele>1035.94</ele>
        <time>2022-06-19T08:44:42+00:00</time>
      </trkpt>
      <trkpt lat="40.955744" lon="-3.525195">
        <ele>1028.73</ele>
        <time>2022-06-19T08:44:47+00:00</time>
      </trkpt>
      <trkpt lat="40.955594" lon="-3.525260">
        <ele>1027.29</ele>
        <time>2022-06-19T08:44:48+00:00</time>
      </trkpt>
      <trkpt lat="40.955444" lon="-3.525281">
        <ele>1025.36</ele>
        <time>2022-06-19T08:44:49+00:00</time>
      </trkpt>
      <trkpt lat="40.954178" lon="-3.525517">
        <ele>1014.31</ele>
        <time>2022-06-19T08:44:58+00:00</time>
      </trkpt>
      <trkpt lat="40.953341" lon="-3.525753">
        <ele>1009.02</ele>
        <time>2022-06-19T08:45:07+00:00</time>
      </trkpt>
      <trkpt lat="40.953169" lon="-3.525753">
        <ele>1008.54</ele>
        <time>2022-06-19T08:45:09+00:00</time>
      </trkpt>
      <trkpt lat="40.953084" lon="-3.525753">
        <ele>1008.06</ele>
        <time>2022-06-19T08:45:10+00:00</time>
      </trkpt>
      <trkpt lat="40.952805" lon="-3.525667">
        <ele>1007.10</ele>
        <time>2022-06-19T08:45:14+00:00</time>
      </trkpt>
      <trkpt lat="40.952740" lon="-3.525624">
        <ele>1007.10</ele>
        <time>2022-06-19T08:45:15+00:00</time>
      </trkpt>
      <trkpt lat="40.952676" lon="-3.525560">
        <ele>1007.10</ele>
        <time>2022-06-19T08:45:16+00:00</time>
      </trkpt>
      <trkpt lat="40.952611" lon="-3.525517">
        <ele>1006.62</ele>
        <time>2022-06-19T08:45:17+00:00</time>
      </trkpt>
      <trkpt lat="40.952569" lon="-3.525453">
        <ele>1006.62</ele>
        <time>2022-06-19T08:45:18+00:00</time>
      </trkpt>
      <trkpt lat="40.952504" lon="-3.525410">
        <ele>1006.62</ele>
        <time>2022-06-19T08:45:19+00:00</time>
      </trkpt>
      <trkpt lat="40.952290" lon="-3.525217">
        <ele>1005.66</ele>
        <time>2022-06-19T08:45:23+00:00</time>
      </trkpt>
      <trkpt lat="40.952225" lon="-3.525174">
        <ele>1005.66</ele>
        <time>2022-06-19T08:45:24+00:00</time>
      </trkpt>
      <trkpt lat="40.952161" lon="-3.525152">
        <ele>1005.66</ele>
        <time>2022-06-19T08:45:25+00:00</time>
      </trkpt>
      <trkpt lat="40.951367" lon="-3.524873">
        <ele>1007.10</ele>
        <time>2022-06-19T08:45:35+00:00</time>
      </trkpt>
      <trkpt lat="40.950294" lon="-3.524766">
        <ele>1014.31</ele>
        <time>2022-06-19T08:45:45+00:00</time>
      </trkpt>
      <trkpt lat="40.949414" lon="-3.524809">
        <ele>1017.67</ele>
        <time>2022-06-19T08:45:51+00:00</time>
      </trkpt>
      <trkpt lat="40.948062" lon="-3.525066">
        <ele>1013.83</ele>
        <time>2022-06-19T08:45:58+00:00</time>
      </trkpt>
      <trkpt lat="40.946517" lon="-3.525753">
        <ele>1008.54</ele>
        <time>2022-06-19T08:46:06+00:00</time>
      </trkpt>
      <trkpt lat="40.945724" lon="-3.526397">
        <ele>1004.22</ele>
        <time>2022-06-19T08:46:11+00:00</time>
      </trkpt>
      <trkpt lat="40.945595" lon="-3.526568">
        <ele>1003.25</ele>
        <time>2022-06-19T08:46:12+00:00</time>
      </trkpt>
      <trkpt lat="40.945488" lon="-3.526804">
        <ele>1001.81</ele>
        <time>2022-06-19T08:46:13+00:00</time>
      </trkpt>
      <trkpt lat="40.945423" lon="-3.527019">
        <ele>1000.85</ele>
        <time>2022-06-19T08:46:14+00:00</time>
      </trkpt>
      <trkpt lat="40.945380" lon="-3.527277">
        <ele>999.41</ele>
        <time>2022-06-19T08:46:15+00:00</time>
      </trkpt>
      <trkpt lat="40.945316" lon="-3.527513">
        <ele>997.97</ele>
        <time>2022-06-19T08:46:16+00:00</time>
      </trkpt>
      <trkpt lat="40.945209" lon="-3.527963">
        <ele>995.56</ele>
        <time>2022-06-19T08:46:18+00:00</time>
      </trkpt>
      <trkpt lat="40.945101" lon="-3.528178">
        <ele>994.12</ele>
        <time>2022-06-19T08:46:19+00:00</time>
      </trkpt>
      <trkpt lat="40.944994" lon="-3.528371">
        <ele>992.68</ele>
        <time>2022-06-19T08:46:20+00:00</time>
      </trkpt>
      <trkpt lat="40.944844" lon="-3.528564">
        <ele>991.24</ele>
        <time>2022-06-19T08:46:21+00:00</time>
      </trkpt>
      <trkpt lat="40.944672" lon="-3.528693">
        <ele>989.80</ele>
        <time>2022-06-19T08:46:22+00:00</time>
      </trkpt>
      <trkpt lat="40.944479" lon="-3.528822">
        <ele>988.35</ele>
        <time>2022-06-19T08:46:23+00:00</time>
      </trkpt>
      <trkpt lat="40.944264" lon="-3.528972">
        <ele>986.43</ele>
        <time>2022-06-19T08:46:24+00:00</time>
      </trkpt>
      <trkpt lat="40.942805" lon="-3.530045">
        <ele>970.57</ele>
        <time>2022-06-19T08:46:32+00:00</time>
      </trkpt>
      <trkpt lat="40.942655" lon="-3.530173">
        <ele>968.65</ele>
        <time>2022-06-19T08:46:33+00:00</time>
      </trkpt>
      <trkpt lat="40.942505" lon="-3.530345">
        <ele>966.24</ele>
        <time>2022-06-19T08:46:34+00:00</time>
      </trkpt>
      <trkpt lat="40.942376" lon="-3.530538">
        <ele>964.32</ele>
        <time>2022-06-19T08:46:35+00:00</time>
      </trkpt>
      <trkpt lat="40.942269" lon="-3.530753">
        <ele>961.92</ele>
        <time>2022-06-19T08:46:36+00:00</time>
      </trkpt>
      <trkpt lat="40.942140" lon="-3.530967">
        <ele>959.99</ele>
        <time>2022-06-19T08:46:37+00:00</time>
      </trkpt>
      <trkpt lat="40.941582" lon="-3.531997">
        <ele>949.42</ele>
        <time>2022-06-19T08:46:42+00:00</time>
      </trkpt>
      <trkpt lat="40.941453" lon="-3.532147">
        <ele>947.50</ele>
        <time>2022-06-19T08:46:43+00:00</time>
      </trkpt>
      <trkpt lat="40.941282" lon="-3.532255">
        <ele>946.06</ele>
        <time>2022-06-19T08:46:44+00:00</time>
      </trkpt>
      <trkpt lat="40.941110" lon="-3.532362">
        <ele>944.13</ele>
        <time>2022-06-19T08:46:45+00:00</time>
      </trkpt>
      <trkpt lat="40.940938" lon="-3.532469">
        <ele>943.17</ele>
        <time>2022-06-19T08:46:46+00:00</time>
      </trkpt>
      <trkpt lat="40.940767" lon="-3.532641">
        <ele>942.21</ele>
        <time>2022-06-19T08:46:47+00:00</time>
      </trkpt>
      <trkpt lat="40.940638" lon="-3.532834">
        <ele>941.25</ele>
        <time>2022-06-19T08:46:48+00:00</time>
      </trkpt>
      <trkpt lat="40.940509" lon="-3.533049">
        <ele>940.29</ele>
        <time>2022-06-19T08:46:49+00:00</time>
      </trkpt>
      <trkpt lat="40.940381" lon="-3.533242">
        <ele>939.33</ele>
        <time>2022-06-19T08:46:50+00:00</time>
      </trkpt>
      <trkpt lat="40.939372" lon="-3.534379">
        <ele>936.92</ele>
        <time>2022-06-19T08:46:56+00:00</time>
      </trkpt>
      <trkpt lat="40.938514" lon="-3.534980">
        <ele>935.96</ele>
        <time>2022-06-19T08:47:01+00:00</time>
      </trkpt>
      <trkpt lat="40.938364" lon="-3.534980">
        <ele>936.44</ele>
        <time>2022-06-19T08:47:02+00:00</time>
      </trkpt>
      <trkpt lat="40.938192" lon="-3.534980">
        <ele>936.44</ele>
        <time>2022-06-19T08:47:03+00:00</time>
      </trkpt>
      <trkpt lat="40.937763" lon="-3.535001">
        <ele>939.33</ele>
        <time>2022-06-19T08:47:06+00:00</time>
      </trkpt>
      <trkpt lat="40.937634" lon="-3.535023">
        <ele>940.77</ele>
        <time>2022-06-19T08:47:07+00:00</time>
      </trkpt>
      <trkpt lat="40.937527" lon="-3.535109">
        <ele>941.73</ele>
        <time>2022-06-19T08:47:08+00:00</time>
      </trkpt>
      <trkpt lat="40.937419" lon="-3.535194">
        <ele>942.69</ele>
        <time>2022-06-19T08:47:09+00:00</time>
      </trkpt>
      <trkpt lat="40.937334" lon="-3.535259">
        <ele>943.65</ele>
        <time>2022-06-19T08:47:10+00:00</time>
      </trkpt>
      <trkpt lat="40.937269" lon="-3.535409">
        <ele>944.13</ele>
        <time>2022-06-19T08:47:11+00:00</time>
      </trkpt>
      <trkpt lat="40.937183" lon="-3.535581">
        <ele>944.61</ele>
        <time>2022-06-19T08:47:12+00:00</time>
      </trkpt>
      <trkpt lat="40.937119" lon="-3.535752">
        <ele>945.58</ele>
        <time>2022-06-19T08:47:13+00:00</time>
      </trkpt>
      <trkpt lat="40.937076" lon="-3.535988">
        <ele>946.54</ele>
        <time>2022-06-19T08:47:14+00:00</time>
      </trkpt>
      <trkpt lat="40.937033" lon="-3.536224">
        <ele>947.98</ele>
        <time>2022-06-19T08:47:15+00:00</time>
      </trkpt>
      <trkpt lat="40.936990" lon="-3.536460">
        <ele>949.42</ele>
        <time>2022-06-19T08:47:16+00:00</time>
      </trkpt>
      <trkpt lat="40.936904" lon="-3.536696">
        <ele>950.86</ele>
        <time>2022-06-19T08:47:17+00:00</time>
      </trkpt>
      <trkpt lat="40.936819" lon="-3.536933">
        <ele>951.82</ele>
        <time>2022-06-19T08:47:18+00:00</time>
      </trkpt>
      <trkpt lat="40.936711" lon="-3.537169">
        <ele>953.75</ele>
        <time>2022-06-19T08:47:19+00:00</time>
      </trkpt>
      <trkpt lat="40.936583" lon="-3.537362">
        <ele>954.71</ele>
        <time>2022-06-19T08:47:20+00:00</time>
      </trkpt>
      <trkpt lat="40.936432" lon="-3.537555">
        <ele>956.15</ele>
        <time>2022-06-19T08:47:21+00:00</time>
      </trkpt>
      <trkpt lat="40.936282" lon="-3.537705">
        <ele>957.11</ele>
        <time>2022-06-19T08:47:22+00:00</time>
      </trkpt>
      <trkpt lat="40.936110" lon="-3.537834">
        <ele>958.55</ele>
        <time>2022-06-19T08:47:23+00:00</time>
      </trkpt>
      <trkpt lat="40.935939" lon="-3.537941">
        <ele>959.03</ele>
        <time>2022-06-19T08:47:24+00:00</time>
      </trkpt>
      <trkpt lat="40.935767" lon="-3.538027">
        <ele>959.99</ele>
        <time>2022-06-19T08:47:25+00:00</time>
      </trkpt>
      <trkpt lat="40.935596" lon="-3.538091">
        <ele>960.48</ele>
        <time>2022-06-19T08:47:26+00:00</time>
      </trkpt>
      <trkpt lat="40.935424" lon="-3.538156">
        <ele>960.96</ele>
        <time>2022-06-19T08:47:27+00:00</time>
      </trkpt>
      <trkpt lat="40.935252" lon="-3.538177">
        <ele>960.96</ele>
        <time>2022-06-19T08:47:28+00:00</time>
      </trkpt>
      <trkpt lat="40.935059" lon="-3.538199">
        <ele>960.96</ele>
        <time>2022-06-19T08:47:29+00:00</time>
      </trkpt>
      <trkpt lat="40.934651" lon="-3.538177">
        <ele>960.96</ele>
        <time>2022-06-19T08:47:31+00:00</time>
      </trkpt>
      <trkpt lat="40.934458" lon="-3.538134">
        <ele>961.44</ele>
        <time>2022-06-19T08:47:32+00:00</time>
      </trkpt>
      <trkpt lat="40.934244" lon="-3.538091">
        <ele>961.44</ele>
        <time>2022-06-19T08:47:33+00:00</time>
      </trkpt>
      <trkpt lat="40.934051" lon="-3.538005">
        <ele>961.44</ele>
        <time>2022-06-19T08:47:34+00:00</time>
      </trkpt>
      <trkpt lat="40.933857" lon="-3.537855">
        <ele>961.44</ele>
        <time>2022-06-19T08:47:35+00:00</time>
      </trkpt>
      <trkpt lat="40.933643" lon="-3.537726">
        <ele>961.44</ele>
        <time>2022-06-19T08:47:36+00:00</time>
      </trkpt>
      <trkpt lat="40.933450" lon="-3.537576">
        <ele>960.96</ele>
        <time>2022-06-19T08:47:37+00:00</time>
      </trkpt>
      <trkpt lat="40.933278" lon="-3.537383">
        <ele>960.48</ele>
        <time>2022-06-19T08:47:38+00:00</time>
      </trkpt>
      <trkpt lat="40.932677" lon="-3.536675">
        <ele>958.55</ele>
        <time>2022-06-19T08:47:42+00:00</time>
      </trkpt>
      <trkpt lat="40.932570" lon="-3.536482">
        <ele>958.07</ele>
        <time>2022-06-19T08:47:43+00:00</time>
      </trkpt>
      <trkpt lat="40.932484" lon="-3.536267">
        <ele>957.59</ele>
        <time>2022-06-19T08:47:44+00:00</time>
      </trkpt>
      <trkpt lat="40.932398" lon="-3.536031">
        <ele>956.63</ele>
        <time>2022-06-19T08:47:45+00:00</time>
      </trkpt>
      <trkpt lat="40.932312" lon="-3.535795">
        <ele>956.15</ele>
        <time>2022-06-19T08:47:46+00:00</time>
      </trkpt>
      <trkpt lat="40.932248" lon="-3.535559">
        <ele>955.19</ele>
        <time>2022-06-19T08:47:47+00:00</time>
      </trkpt>
      <trkpt lat="40.932205" lon="-3.535345">
        <ele>954.71</ele>
        <time>2022-06-19T08:47:48+00:00</time>
      </trkpt>
      <trkpt lat="40.932141" lon="-3.535152">
        <ele>954.23</ele>
        <time>2022-06-19T08:47:49+00:00</time>
      </trkpt>
      <trkpt lat="40.932034" lon="-3.535001">
        <ele>953.27</ele>
        <time>2022-06-19T08:47:50+00:00</time>
      </trkpt>
      <trkpt lat="40.931905" lon="-3.534894">
        <ele>952.30</ele>
        <time>2022-06-19T08:47:51+00:00</time>
      </trkpt>
      <trkpt lat="40.931755" lon="-3.534808">
        <ele>951.34</ele>
        <time>2022-06-19T08:47:52+00:00</time>
      </trkpt>
      <trkpt lat="40.931583" lon="-3.534787">
        <ele>950.38</ele>
        <time>2022-06-19T08:47:53+00:00</time>
      </trkpt>
      <trkpt lat="40.931390" lon="-3.534787">
        <ele>948.94</ele>
        <time>2022-06-19T08:47:54+00:00</time>
      </trkpt>
      <trkpt lat="40.931175" lon="-3.534830">
        <ele>947.50</ele>
        <time>2022-06-19T08:47:55+00:00</time>
      </trkpt>
      <trkpt lat="40.930961" lon="-3.534873">
        <ele>946.06</ele>
        <time>2022-06-19T08:47:56+00:00</time>
      </trkpt>
      <trkpt lat="40.929931" lon="-3.535130">
        <ele>938.85</ele>
        <time>2022-06-19T08:48:02+00:00</time>
      </trkpt>
      <trkpt lat="40.929823" lon="-3.535216">
        <ele>937.88</ele>
        <time>2022-06-19T08:48:03+00:00</time>
      </trkpt>
      <trkpt lat="40.929738" lon="-3.535345">
        <ele>936.92</ele>
        <time>2022-06-19T08:48:04+00:00</time>
      </trkpt>
      <trkpt lat="40.929695" lon="-3.535495">
        <ele>935.48</ele>
        <time>2022-06-19T08:48:05+00:00</time>
      </trkpt>
      <trkpt lat="40.929695" lon="-3.535645">
        <ele>934.52</ele>
        <time>2022-06-19T08:48:06+00:00</time>
      </trkpt>
      <trkpt lat="40.929738" lon="-3.535838">
        <ele>933.56</ele>
        <time>2022-06-19T08:48:07+00:00</time>
      </trkpt>
      <trkpt lat="40.929845" lon="-3.536010">
        <ele>933.08</ele>
        <time>2022-06-19T08:48:08+00:00</time>
      </trkpt>
      <trkpt lat="40.929952" lon="-3.536203">
        <ele>932.12</ele>
        <time>2022-06-19T08:48:09+00:00</time>
      </trkpt>
      <trkpt lat="40.930961" lon="-3.537705">
        <ele>928.27</ele>
        <time>2022-06-19T08:48:16+00:00</time>
      </trkpt>
      <trkpt lat="40.932527" lon="-3.539658">
        <ele>930.68</ele>
        <time>2022-06-19T08:48:25+00:00</time>
      </trkpt>
      <trkpt lat="40.934179" lon="-3.541203">
        <ele>933.08</ele>
        <time>2022-06-19T08:48:34+00:00</time>
      </trkpt>
      <trkpt lat="40.934372" lon="-3.541288">
        <ele>933.56</ele>
        <time>2022-06-19T08:48:35+00:00</time>
      </trkpt>
      <trkpt lat="40.934566" lon="-3.541353">
        <ele>933.08</ele>
        <time>2022-06-19T08:48:36+00:00</time>
      </trkpt>
      <trkpt lat="40.936089" lon="-3.541675">
        <ele>929.23</ele>
        <time>2022-06-19T08:48:43+00:00</time>
      </trkpt>
      <trkpt lat="40.937098" lon="-3.541975">
        <ele>924.43</ele>
        <time>2022-06-19T08:48:48+00:00</time>
      </trkpt>
      <trkpt lat="40.937269" lon="-3.542082">
        <ele>922.98</ele>
        <time>2022-06-19T08:48:49+00:00</time>
      </trkpt>
      <trkpt lat="40.937441" lon="-3.542254">
        <ele>922.02</ele>
        <time>2022-06-19T08:48:50+00:00</time>
      </trkpt>
      <trkpt lat="40.937591" lon="-3.542426">
        <ele>920.58</ele>
        <time>2022-06-19T08:48:51+00:00</time>
      </trkpt>
      <trkpt lat="40.937763" lon="-3.542640">
        <ele>919.14</ele>
        <time>2022-06-19T08:48:52+00:00</time>
      </trkpt>
      <trkpt lat="40.937891" lon="-3.542876">
        <ele>917.70</ele>
        <time>2022-06-19T08:48:53+00:00</time>
      </trkpt>
      <trkpt lat="40.938020" lon="-3.543155">
        <ele>916.26</ele>
        <time>2022-06-19T08:48:54+00:00</time>
      </trkpt>
      <trkpt lat="40.938149" lon="-3.543434">
        <ele>915.29</ele>
        <time>2022-06-19T08:48:55+00:00</time>
      </trkpt>
      <trkpt lat="40.939651" lon="-3.546588">
        <ele>916.26</ele>
        <time>2022-06-19T08:49:07+00:00</time>
      </trkpt>
      <trkpt lat="40.939801" lon="-3.546803">
        <ele>916.74</ele>
        <time>2022-06-19T08:49:08+00:00</time>
      </trkpt>
      <trkpt lat="40.940209" lon="-3.547382">
        <ele>919.14</ele>
        <time>2022-06-19T08:49:11+00:00</time>
      </trkpt>
      <trkpt lat="40.940273" lon="-3.547618">
        <ele>920.10</ele>
        <time>2022-06-19T08:49:12+00:00</time>
      </trkpt>
      <trkpt lat="40.940359" lon="-3.547854">
        <ele>920.58</ele>
        <time>2022-06-19T08:49:13+00:00</time>
      </trkpt>
      <trkpt lat="40.940617" lon="-3.548541">
        <ele>922.50</ele>
        <time>2022-06-19T08:49:16+00:00</time>
      </trkpt>
      <trkpt lat="40.940724" lon="-3.548756">
        <ele>923.47</ele>
        <time>2022-06-19T08:49:17+00:00</time>
      </trkpt>
      <trkpt lat="40.940853" lon="-3.548906">
        <ele>924.43</ele>
        <time>2022-06-19T08:49:18+00:00</time>
      </trkpt>
      <trkpt lat="40.941003" lon="-3.549078">
        <ele>924.91</ele>
        <time>2022-06-19T08:49:19+00:00</time>
      </trkpt>
      <trkpt lat="40.941175" lon="-3.549185">
        <ele>925.87</ele>
        <time>2022-06-19T08:49:20+00:00</time>
      </trkpt>
      <trkpt lat="40.941346" lon="-3.549249">
        <ele>926.35</ele>
        <time>2022-06-19T08:49:21+00:00</time>
      </trkpt>
      <trkpt lat="40.941539" lon="-3.549292">
        <ele>926.83</ele>
        <time>2022-06-19T08:49:22+00:00</time>
      </trkpt>
      <trkpt lat="40.941754" lon="-3.549335">
        <ele>927.31</ele>
        <time>2022-06-19T08:49:23+00:00</time>
      </trkpt>
      <trkpt lat="40.941990" lon="-3.549335">
        <ele>927.79</ele>
        <time>2022-06-19T08:49:24+00:00</time>
      </trkpt>
      <trkpt lat="40.942784" lon="-3.549314">
        <ele>928.27</ele>
        <time>2022-06-19T08:49:28+00:00</time>
      </trkpt>
      <trkpt lat="40.942977" lon="-3.549357">
        <ele>928.27</ele>
        <time>2022-06-19T08:49:29+00:00</time>
      </trkpt>
      <trkpt lat="40.943149" lon="-3.549421">
        <ele>928.27</ele>
        <time>2022-06-19T08:49:30+00:00</time>
      </trkpt>
      <trkpt lat="40.943320" lon="-3.549528">
        <ele>928.75</ele>
        <time>2022-06-19T08:49:31+00:00</time>
      </trkpt>
      <trkpt lat="40.943449" lon="-3.549657">
        <ele>928.27</ele>
        <time>2022-06-19T08:49:32+00:00</time>
      </trkpt>
      <trkpt lat="40.943556" lon="-3.549850">
        <ele>928.27</ele>
        <time>2022-06-19T08:49:33+00:00</time>
      </trkpt>
      <trkpt lat="40.943685" lon="-3.550043">
        <ele>928.27</ele>
        <time>2022-06-19T08:49:34+00:00</time>
      </trkpt>
      <trkpt lat="40.943749" lon="-3.550279">
        <ele>928.27</ele>
        <time>2022-06-19T08:49:35+00:00</time>
      </trkpt>
      <trkpt lat="40.943792" lon="-3.550515">
        <ele>928.27</ele>
        <time>2022-06-19T08:49:36+00:00</time>
      </trkpt>
      <trkpt lat="40.943771" lon="-3.550773">
        <ele>928.27</ele>
        <time>2022-06-19T08:49:37+00:00</time>
      </trkpt>
      <trkpt lat="40.943728" lon="-3.551030">
        <ele>928.27</ele>
        <time>2022-06-19T08:49:38+00:00</time>
      </trkpt>
      <trkpt lat="40.943664" lon="-3.551288">
        <ele>929.23</ele>
        <time>2022-06-19T08:49:39+00:00</time>
      </trkpt>
      <trkpt lat="40.943578" lon="-3.551545">
        <ele>929.71</ele>
        <time>2022-06-19T08:49:40+00:00</time>
      </trkpt>
      <trkpt lat="40.943449" lon="-3.551781">
        <ele>930.19</ele>
        <time>2022-06-19T08:49:41+00:00</time>
      </trkpt>
      <trkpt lat="40.943320" lon="-3.552017">
        <ele>931.16</ele>
        <time>2022-06-19T08:49:42+00:00</time>
      </trkpt>
      <trkpt lat="40.943192" lon="-3.552253">
        <ele>931.64</ele>
        <time>2022-06-19T08:49:43+00:00</time>
      </trkpt>
      <trkpt lat="40.942505" lon="-3.553669">
        <ele>935.48</ele>
        <time>2022-06-19T08:49:49+00:00</time>
      </trkpt>
      <trkpt lat="40.942441" lon="-3.553906">
        <ele>935.96</ele>
        <time>2022-06-19T08:49:50+00:00</time>
      </trkpt>
      <trkpt lat="40.942419" lon="-3.554163">
        <ele>935.96</ele>
        <time>2022-06-19T08:49:51+00:00</time>
      </trkpt>
      <trkpt lat="40.942419" lon="-3.554399">
        <ele>935.96</ele>
        <time>2022-06-19T08:49:52+00:00</time>
      </trkpt>
      <trkpt lat="40.942441" lon="-3.554635">
        <ele>935.96</ele>
        <time>2022-06-19T08:49:53+00:00</time>
      </trkpt>
      <trkpt lat="40.942483" lon="-3.554850">
        <ele>936.44</ele>
        <time>2022-06-19T08:49:54+00:00</time>
      </trkpt>
      <trkpt lat="40.942569" lon="-3.555064">
        <ele>936.44</ele>
        <time>2022-06-19T08:49:55+00:00</time>
      </trkpt>
      <trkpt lat="40.942698" lon="-3.555257">
        <ele>936.92</ele>
        <time>2022-06-19T08:49:56+00:00</time>
      </trkpt>
      <trkpt lat="40.942848" lon="-3.555408">
        <ele>936.92</ele>
        <time>2022-06-19T08:49:57+00:00</time>
      </trkpt>
      <trkpt lat="40.942998" lon="-3.555536">
        <ele>936.92</ele>
        <time>2022-06-19T08:49:58+00:00</time>
      </trkpt>
      <trkpt lat="40.943170" lon="-3.555579">
        <ele>936.92</ele>
        <time>2022-06-19T08:49:59+00:00</time>
      </trkpt>
      <trkpt lat="40.943385" lon="-3.555644">
        <ele>936.44</ele>
        <time>2022-06-19T08:50:00+00:00</time>
      </trkpt>
      <trkpt lat="40.944136" lon="-3.555858">
        <ele>935.48</ele>
        <time>2022-06-19T08:50:04+00:00</time>
      </trkpt>
      <trkpt lat="40.944286" lon="-3.555965">
        <ele>935.00</ele>
        <time>2022-06-19T08:50:05+00:00</time>
      </trkpt>
      <trkpt lat="40.944436" lon="-3.556094">
        <ele>934.52</ele>
        <time>2022-06-19T08:50:06+00:00</time>
      </trkpt>
      <trkpt lat="40.944565" lon="-3.556244">
        <ele>934.04</ele>
        <time>2022-06-19T08:50:07+00:00</time>
      </trkpt>
      <trkpt lat="40.944651" lon="-3.556480">
        <ele>933.08</ele>
        <time>2022-06-19T08:50:08+00:00</time>
      </trkpt>
      <trkpt lat="40.944736" lon="-3.556738">
        <ele>932.60</ele>
        <time>2022-06-19T08:50:09+00:00</time>
      </trkpt>
      <trkpt lat="40.944822" lon="-3.556995">
        <ele>932.12</ele>
        <time>2022-06-19T08:50:10+00:00</time>
      </trkpt>
      <trkpt lat="40.945445" lon="-3.558691">
        <ele>927.31</ele>
        <time>2022-06-19T08:50:17+00:00</time>
      </trkpt>
      <trkpt lat="40.945552" lon="-3.558862">
        <ele>926.83</ele>
        <time>2022-06-19T08:50:18+00:00</time>
      </trkpt>
      <trkpt lat="40.945702" lon="-3.559034">
        <ele>925.39</ele>
        <time>2022-06-19T08:50:19+00:00</time>
      </trkpt>
      <trkpt lat="40.945874" lon="-3.559206">
        <ele>924.91</ele>
        <time>2022-06-19T08:50:20+00:00</time>
      </trkpt>
      <trkpt lat="40.946045" lon="-3.559356">
        <ele>923.47</ele>
        <time>2022-06-19T08:50:21+00:00</time>
      </trkpt>
      <trkpt lat="40.946239" lon="-3.559506">
        <ele>922.98</ele>
        <time>2022-06-19T08:50:22+00:00</time>
      </trkpt>
      <trkpt lat="40.947505" lon="-3.560364">
        <ele>916.26</ele>
        <time>2022-06-19T08:50:29+00:00</time>
      </trkpt>
      <trkpt lat="40.947783" lon="-3.560622">
        <ele>914.33</ele>
        <time>2022-06-19T08:50:31+00:00</time>
      </trkpt>
      <trkpt lat="40.947912" lon="-3.560729">
        <ele>913.37</ele>
        <time>2022-06-19T08:50:32+00:00</time>
      </trkpt>
      <trkpt lat="40.947955" lon="-3.560836">
        <ele>911.93</ele>
        <time>2022-06-19T08:50:33+00:00</time>
      </trkpt>
      <trkpt lat="40.948020" lon="-3.561008">
        <ele>910.49</ele>
        <time>2022-06-19T08:50:34+00:00</time>
      </trkpt>
      <trkpt lat="40.948062" lon="-3.561115">
        <ele>909.05</ele>
        <time>2022-06-19T08:50:35+00:00</time>
      </trkpt>
      <trkpt lat="40.948041" lon="-3.561287">
        <ele>908.08</ele>
        <time>2022-06-19T08:50:36+00:00</time>
      </trkpt>
      <trkpt lat="40.947998" lon="-3.561416">
        <ele>907.12</ele>
        <time>2022-06-19T08:50:37+00:00</time>
      </trkpt>
      <trkpt lat="40.947912" lon="-3.561587">
        <ele>906.16</ele>
        <time>2022-06-19T08:50:38+00:00</time>
      </trkpt>
      <trkpt lat="40.947826" lon="-3.561738">
        <ele>906.64</ele>
        <time>2022-06-19T08:50:39+00:00</time>
      </trkpt>
      <trkpt lat="40.947698" lon="-3.561866">
        <ele>906.16</ele>
        <time>2022-06-19T08:50:40+00:00</time>
      </trkpt>
      <trkpt lat="40.947590" lon="-3.561974">
        <ele>905.68</ele>
        <time>2022-06-19T08:50:41+00:00</time>
      </trkpt>
      <trkpt lat="40.947483" lon="-3.562081">
        <ele>905.20</ele>
        <time>2022-06-19T08:50:42+00:00</time>
      </trkpt>
      <trkpt lat="40.947376" lon="-3.562167">
        <ele>904.72</ele>
        <time>2022-06-19T08:50:43+00:00</time>
      </trkpt>
      <trkpt lat="40.947354" lon="-3.562274">
        <ele>904.24</ele>
        <time>2022-06-19T08:50:44+00:00</time>
      </trkpt>
      <trkpt lat="40.947333" lon="-3.562360">
        <ele>904.24</ele>
        <time>2022-06-19T08:50:45+00:00</time>
      </trkpt>
      <trkpt lat="40.947311" lon="-3.562424">
        <ele>903.76</ele>
        <time>2022-06-19T08:50:46+00:00</time>
      </trkpt>
      <trkpt lat="40.947333" lon="-3.562510">
        <ele>903.28</ele>
        <time>2022-06-19T08:50:47+00:00</time>
      </trkpt>
      <trkpt lat="40.947376" lon="-3.562617">
        <ele>903.28</ele>
        <time>2022-06-19T08:50:48+00:00</time>
      </trkpt>
      <trkpt lat="40.947397" lon="-3.562746">
        <ele>902.80</ele>
        <time>2022-06-19T08:50:49+00:00</time>
      </trkpt>
      <trkpt lat="40.947440" lon="-3.562875">
        <ele>902.80</ele>
        <time>2022-06-19T08:50:50+00:00</time>
      </trkpt>
      <trkpt lat="40.947483" lon="-3.563025">
        <ele>902.80</ele>
        <time>2022-06-19T08:50:51+00:00</time>
      </trkpt>
      <trkpt lat="40.947505" lon="-3.563175">
        <ele>902.80</ele>
        <time>2022-06-19T08:50:52+00:00</time>
      </trkpt>
      <trkpt lat="40.947505" lon="-3.563347">
        <ele>902.80</ele>
        <time>2022-06-19T08:50:53+00:00</time>
      </trkpt>
      <trkpt lat="40.947483" lon="-3.563497">
        <ele>902.80</ele>
        <time>2022-06-19T08:50:54+00:00</time>
      </trkpt>
      <trkpt lat="40.947483" lon="-3.563626">
        <ele>902.80</ele>
        <time>2022-06-19T08:50:55+00:00</time>
      </trkpt>
      <trkpt lat="40.947483" lon="-3.563755">
        <ele>903.28</ele>
        <time>2022-06-19T08:50:56+00:00</time>
      </trkpt>
      <trkpt lat="40.947526" lon="-3.563862">
        <ele>903.76</ele>
        <time>2022-06-19T08:50:57+00:00</time>
      </trkpt>
      <trkpt lat="40.947590" lon="-3.563926">
        <ele>903.76</ele>
        <time>2022-06-19T08:50:58+00:00</time>
      </trkpt>
      <trkpt lat="40.947676" lon="-3.563991">
        <ele>904.24</ele>
        <time>2022-06-19T08:50:59+00:00</time>
      </trkpt>
      <trkpt lat="40.947805" lon="-3.563991">
        <ele>904.24</ele>
        <time>2022-06-19T08:51:00+00:00</time>
      </trkpt>
      <trkpt lat="40.947912" lon="-3.563948">
        <ele>904.72</ele>
        <time>2022-06-19T08:51:01+00:00</time>
      </trkpt>
      <trkpt lat="40.948041" lon="-3.563883">
        <ele>904.72</ele>
        <time>2022-06-19T08:51:02+00:00</time>
      </trkpt>
      <trkpt lat="40.948148" lon="-3.563798">
        <ele>905.20</ele>
        <time>2022-06-19T08:51:03+00:00</time>
      </trkpt>
      <trkpt lat="40.948277" lon="-3.563712">
        <ele>905.20</ele>
        <time>2022-06-19T08:51:04+00:00</time>
      </trkpt>
      <trkpt lat="40.948427" lon="-3.563604">
        <ele>905.68</ele>
        <time>2022-06-19T08:51:05+00:00</time>
      </trkpt>
      <trkpt lat="40.948534" lon="-3.563476">
        <ele>906.16</ele>
        <time>2022-06-19T08:51:06+00:00</time>
      </trkpt>
      <trkpt lat="40.948663" lon="-3.563347">
        <ele>906.64</ele>
        <time>2022-06-19T08:51:07+00:00</time>
      </trkpt>
      <trkpt lat="40.948899" lon="-3.563132">
        <ele>907.60</ele>
        <time>2022-06-19T08:51:09+00:00</time>
      </trkpt>
      <trkpt lat="40.949028" lon="-3.563025">
        <ele>908.08</ele>
        <time>2022-06-19T08:51:10+00:00</time>
      </trkpt>
      <trkpt lat="40.949178" lon="-3.562961">
        <ele>908.56</ele>
        <time>2022-06-19T08:51:11+00:00</time>
      </trkpt>
      <trkpt lat="40.949328" lon="-3.562939">
        <ele>909.05</ele>
        <time>2022-06-19T08:51:12+00:00</time>
      </trkpt>
      <trkpt lat="40.949479" lon="-3.562918">
        <ele>909.53</ele>
        <time>2022-06-19T08:51:13+00:00</time>
      </trkpt>
      <trkpt lat="40.949650" lon="-3.562939">
        <ele>910.01</ele>
        <time>2022-06-19T08:51:14+00:00</time>
      </trkpt>
      <trkpt lat="40.949800" lon="-3.563025">
        <ele>910.49</ele>
        <time>2022-06-19T08:51:15+00:00</time>
      </trkpt>
      <trkpt lat="40.949951" lon="-3.563111">
        <ele>910.97</ele>
        <time>2022-06-19T08:51:16+00:00</time>
      </trkpt>
      <trkpt lat="40.950101" lon="-3.563240">
        <ele>911.45</ele>
        <time>2022-06-19T08:51:17+00:00</time>
      </trkpt>
      <trkpt lat="40.950230" lon="-3.563368">
        <ele>911.93</ele>
        <time>2022-06-19T08:51:18+00:00</time>
      </trkpt>
      <trkpt lat="40.950358" lon="-3.563519">
        <ele>912.41</ele>
        <time>2022-06-19T08:51:19+00:00</time>
      </trkpt>
      <trkpt lat="40.950788" lon="-3.564055">
        <ele>915.77</ele>
        <time>2022-06-19T08:51:23+00:00</time>
      </trkpt>
      <trkpt lat="40.950830" lon="-3.564205">
        <ele>916.74</ele>
        <time>2022-06-19T08:51:24+00:00</time>
      </trkpt>
      <trkpt lat="40.950852" lon="-3.564334">
        <ele>917.22</ele>
        <time>2022-06-19T08:51:25+00:00</time>
      </trkpt>
      <trkpt lat="40.950830" lon="-3.564484">
        <ele>918.18</ele>
        <time>2022-06-19T08:51:26+00:00</time>
      </trkpt>
      <trkpt lat="40.950766" lon="-3.564613">
        <ele>919.62</ele>
        <time>2022-06-19T08:51:27+00:00</time>
      </trkpt>
      <trkpt lat="40.950702" lon="-3.564699">
        <ele>920.58</ele>
        <time>2022-06-19T08:51:28+00:00</time>
      </trkpt>
      <trkpt lat="40.950573" lon="-3.564742">
        <ele>921.54</ele>
        <time>2022-06-19T08:51:29+00:00</time>
      </trkpt>
      <trkpt lat="40.950444" lon="-3.564763">
        <ele>922.50</ele>
        <time>2022-06-19T08:51:30+00:00</time>
      </trkpt>
      <trkpt lat="40.950315" lon="-3.564699">
        <ele>923.47</ele>
        <time>2022-06-19T08:51:31+00:00</time>
      </trkpt>
      <trkpt lat="40.950144" lon="-3.564613">
        <ele>924.43</ele>
        <time>2022-06-19T08:51:32+00:00</time>
      </trkpt>
      <trkpt lat="40.949972" lon="-3.564527">
        <ele>925.39</ele>
        <time>2022-06-19T08:51:33+00:00</time>
      </trkpt>
      <trkpt lat="40.949822" lon="-3.564506">
        <ele>926.35</ele>
        <time>2022-06-19T08:51:34+00:00</time>
      </trkpt>
      <trkpt lat="40.949672" lon="-3.564506">
        <ele>927.31</ele>
        <time>2022-06-19T08:51:35+00:00</time>
      </trkpt>
      <trkpt lat="40.949522" lon="-3.564613">
        <ele>927.79</ele>
        <time>2022-06-19T08:51:36+00:00</time>
      </trkpt>
      <trkpt lat="40.949393" lon="-3.564720">
        <ele>928.75</ele>
        <time>2022-06-19T08:51:37+00:00</time>
      </trkpt>
      <trkpt lat="40.949264" lon="-3.564892">
        <ele>929.23</ele>
        <time>2022-06-19T08:51:38+00:00</time>
      </trkpt>
      <trkpt lat="40.949114" lon="-3.565042">
        <ele>930.19</ele>
        <time>2022-06-19T08:51:39+00:00</time>
      </trkpt>
      <trkpt lat="40.948964" lon="-3.565171">
        <ele>931.16</ele>
        <time>2022-06-19T08:51:40+00:00</time>
      </trkpt>
      <trkpt lat="40.948792" lon="-3.565235">
        <ele>931.64</ele>
        <time>2022-06-19T08:51:41+00:00</time>
      </trkpt>
      <trkpt lat="40.948620" lon="-3.565278">
        <ele>932.60</ele>
        <time>2022-06-19T08:51:42+00:00</time>
      </trkpt>
      <trkpt lat="40.948427" lon="-3.565257">
        <ele>933.08</ele>
        <time>2022-06-19T08:51:43+00:00</time>
      </trkpt>
      <trkpt lat="40.948234" lon="-3.565257">
        <ele>933.56</ele>
        <time>2022-06-19T08:51:44+00:00</time>
      </trkpt>
      <trkpt lat="40.948062" lon="-3.565257">
        <ele>934.52</ele>
        <time>2022-06-19T08:51:45+00:00</time>
      </trkpt>
      <trkpt lat="40.947891" lon="-3.565300">
        <ele>935.00</ele>
        <time>2022-06-19T08:51:46+00:00</time>
      </trkpt>
      <trkpt lat="40.947762" lon="-3.565407">
        <ele>935.00</ele>
        <time>2022-06-19T08:51:47+00:00</time>
      </trkpt>
      <trkpt lat="40.947633" lon="-3.565557">
        <ele>935.48</ele>
        <time>2022-06-19T08:51:48+00:00</time>
      </trkpt>
      <trkpt lat="40.947526" lon="-3.565729">
        <ele>935.48</ele>
        <time>2022-06-19T08:51:49+00:00</time>
      </trkpt>
      <trkpt lat="40.947419" lon="-3.565900">
        <ele>935.96</ele>
        <time>2022-06-19T08:51:50+00:00</time>
      </trkpt>
      <trkpt lat="40.947333" lon="-3.566093">
        <ele>936.92</ele>
        <time>2022-06-19T08:51:51+00:00</time>
      </trkpt>
      <trkpt lat="40.947268" lon="-3.566287">
        <ele>937.40</ele>
        <time>2022-06-19T08:51:52+00:00</time>
      </trkpt>
      <trkpt lat="40.947204" lon="-3.566480">
        <ele>937.88</ele>
        <time>2022-06-19T08:51:53+00:00</time>
      </trkpt>
      <trkpt lat="40.947118" lon="-3.566651">
        <ele>938.37</ele>
        <time>2022-06-19T08:51:54+00:00</time>
      </trkpt>
      <trkpt lat="40.947011" lon="-3.566802">
        <ele>938.85</ele>
        <time>2022-06-19T08:51:55+00:00</time>
      </trkpt>
      <trkpt lat="40.946861" lon="-3.566887">
        <ele>939.33</ele>
        <time>2022-06-19T08:51:56+00:00</time>
      </trkpt>
      <trkpt lat="40.946689" lon="-3.566952">
        <ele>940.29</ele>
        <time>2022-06-19T08:51:57+00:00</time>
      </trkpt>
      <trkpt lat="40.946496" lon="-3.566995">
        <ele>940.77</ele>
        <time>2022-06-19T08:51:58+00:00</time>
      </trkpt>
      <trkpt lat="40.946303" lon="-3.566995">
        <ele>941.25</ele>
        <time>2022-06-19T08:51:59+00:00</time>
      </trkpt>
      <trkpt lat="40.946110" lon="-3.567016">
        <ele>942.21</ele>
        <time>2022-06-19T08:52:00+00:00</time>
      </trkpt>
      <trkpt lat="40.945380" lon="-3.567081">
        <ele>945.58</ele>
        <time>2022-06-19T08:52:05+00:00</time>
      </trkpt>
      <trkpt lat="40.945251" lon="-3.567166">
        <ele>946.54</ele>
        <time>2022-06-19T08:52:06+00:00</time>
      </trkpt>
      <trkpt lat="40.945101" lon="-3.567274">
        <ele>947.02</ele>
        <time>2022-06-19T08:52:07+00:00</time>
      </trkpt>
      <trkpt lat="40.944951" lon="-3.567381">
        <ele>947.98</ele>
        <time>2022-06-19T08:52:08+00:00</time>
      </trkpt>
      <trkpt lat="40.944758" lon="-3.567510">
        <ele>948.94</ele>
        <time>2022-06-19T08:52:09+00:00</time>
      </trkpt>
      <trkpt lat="40.944565" lon="-3.567638">
        <ele>949.42</ele>
        <time>2022-06-19T08:52:10+00:00</time>
      </trkpt>
      <trkpt lat="40.943106" lon="-3.568690">
        <ele>955.19</ele>
        <time>2022-06-19T08:52:17+00:00</time>
      </trkpt>
      <trkpt lat="40.942076" lon="-3.569377">
        <ele>956.63</ele>
        <time>2022-06-19T08:52:22+00:00</time>
      </trkpt>
      <trkpt lat="40.941840" lon="-3.569398">
        <ele>956.63</ele>
        <time>2022-06-19T08:52:23+00:00</time>
      </trkpt>
      <trkpt lat="40.941604" lon="-3.569441">
        <ele>956.63</ele>
        <time>2022-06-19T08:52:24+00:00</time>
      </trkpt>
      <trkpt lat="40.939973" lon="-3.569398">
        <ele>959.51</ele>
        <time>2022-06-19T08:52:31+00:00</time>
      </trkpt>
      <trkpt lat="40.939801" lon="-3.569441">
        <ele>959.99</ele>
        <time>2022-06-19T08:52:32+00:00</time>
      </trkpt>
      <trkpt lat="40.939630" lon="-3.569527">
        <ele>959.99</ele>
        <time>2022-06-19T08:52:33+00:00</time>
      </trkpt>
      <trkpt lat="40.939458" lon="-3.569677">
        <ele>959.99</ele>
        <time>2022-06-19T08:52:34+00:00</time>
      </trkpt>
      <trkpt lat="40.939265" lon="-3.569849">
        <ele>959.99</ele>
        <time>2022-06-19T08:52:35+00:00</time>
      </trkpt>
      <trkpt lat="40.939072" lon="-3.570020">
        <ele>959.03</ele>
        <time>2022-06-19T08:52:36+00:00</time>
      </trkpt>
      <trkpt lat="40.937527" lon="-3.571372">
        <ele>953.27</ele>
        <time>2022-06-19T08:52:44+00:00</time>
      </trkpt>
      <trkpt lat="40.937312" lon="-3.571458">
        <ele>952.79</ele>
        <time>2022-06-19T08:52:45+00:00</time>
      </trkpt>
      <trkpt lat="40.937098" lon="-3.571501">
        <ele>951.82</ele>
        <time>2022-06-19T08:52:46+00:00</time>
      </trkpt>
      <trkpt lat="40.936840" lon="-3.571522">
        <ele>950.86</ele>
        <time>2022-06-19T08:52:47+00:00</time>
      </trkpt>
      <trkpt lat="40.936604" lon="-3.571501">
        <ele>949.42</ele>
        <time>2022-06-19T08:52:48+00:00</time>
      </trkpt>
      <trkpt lat="40.936368" lon="-3.571436">
        <ele>947.98</ele>
        <time>2022-06-19T08:52:49+00:00</time>
      </trkpt>
      <trkpt lat="40.936110" lon="-3.571351">
        <ele>946.54</ele>
        <time>2022-06-19T08:52:50+00:00</time>
      </trkpt>
      <trkpt lat="40.935874" lon="-3.571243">
        <ele>944.61</ele>
        <time>2022-06-19T08:52:51+00:00</time>
      </trkpt>
      <trkpt lat="40.935638" lon="-3.571093">
        <ele>942.69</ele>
        <time>2022-06-19T08:52:52+00:00</time>
      </trkpt>
      <trkpt lat="40.932978" lon="-3.569484">
        <ele>927.79</ele>
        <time>2022-06-19T08:53:03+00:00</time>
      </trkpt>
      <trkpt lat="40.930982" lon="-3.567982">
        <ele>929.23</ele>
        <time>2022-06-19T08:53:12+00:00</time>
      </trkpt>
      <trkpt lat="40.926948" lon="-3.564270">
        <ele>930.19</ele>
        <time>2022-06-19T08:53:30+00:00</time>
      </trkpt>
      <trkpt lat="40.925146" lon="-3.562510">
        <ele>931.64</ele>
        <time>2022-06-19T08:53:40+00:00</time>
      </trkpt>
      <trkpt lat="40.923837" lon="-3.561308">
        <ele>933.08</ele>
        <time>2022-06-19T08:53:48+00:00</time>
      </trkpt>
      <trkpt lat="40.923665" lon="-3.561201">
        <ele>933.56</ele>
        <time>2022-06-19T08:53:49+00:00</time>
      </trkpt>
      <trkpt lat="40.921712" lon="-3.560407">
        <ele>935.96</ele>
        <time>2022-06-19T08:53:58+00:00</time>
      </trkpt>
      <trkpt lat="40.918837" lon="-3.559463">
        <ele>934.04</ele>
        <time>2022-06-19T08:54:10+00:00</time>
      </trkpt>
      <trkpt lat="40.917035" lon="-3.559356">
        <ele>933.56</ele>
        <time>2022-06-19T08:54:18+00:00</time>
      </trkpt>
      <trkpt lat="40.914889" lon="-3.560171">
        <ele>927.79</ele>
        <time>2022-06-19T08:54:27+00:00</time>
      </trkpt>
      <trkpt lat="40.912014" lon="-3.561394">
        <ele>908.08</ele>
        <time>2022-06-19T08:54:39+00:00</time>
      </trkpt>
      <trkpt lat="40.910383" lon="-3.561716">
        <ele>898.47</ele>
        <time>2022-06-19T08:54:46+00:00</time>
      </trkpt>
      <trkpt lat="40.908924" lon="-3.561373">
        <ele>897.03</ele>
        <time>2022-06-19T08:54:52+00:00</time>
      </trkpt>
      <trkpt lat="40.908537" lon="-3.561180">
        <ele>898.47</ele>
        <time>2022-06-19T08:54:54+00:00</time>
      </trkpt>
      <trkpt lat="40.908344" lon="-3.561051">
        <ele>898.95</ele>
        <time>2022-06-19T08:54:55+00:00</time>
      </trkpt>
      <trkpt lat="40.907228" lon="-3.560321">
        <ele>903.28</ele>
        <time>2022-06-19T08:55:01+00:00</time>
      </trkpt>
      <trkpt lat="40.907057" lon="-3.560257">
        <ele>903.76</ele>
        <time>2022-06-19T08:55:02+00:00</time>
      </trkpt>
      <trkpt lat="40.906842" lon="-3.560278">
        <ele>903.76</ele>
        <time>2022-06-19T08:55:03+00:00</time>
      </trkpt>
      <trkpt lat="40.906649" lon="-3.560321">
        <ele>904.24</ele>
        <time>2022-06-19T08:55:04+00:00</time>
      </trkpt>
      <trkpt lat="40.906435" lon="-3.560386">
        <ele>904.24</ele>
        <time>2022-06-19T08:55:05+00:00</time>
      </trkpt>
      <trkpt lat="40.906199" lon="-3.560472">
        <ele>903.76</ele>
        <time>2022-06-19T08:55:06+00:00</time>
      </trkpt>
      <trkpt lat="40.904503" lon="-3.560987">
        <ele>901.84</ele>
        <time>2022-06-19T08:55:14+00:00</time>
      </trkpt>
      <trkpt lat="40.904310" lon="-3.561008">
        <ele>901.84</ele>
        <time>2022-06-19T08:55:15+00:00</time>
      </trkpt>
      <trkpt lat="40.904117" lon="-3.560987">
        <ele>901.84</ele>
        <time>2022-06-19T08:55:16+00:00</time>
      </trkpt>
      <trkpt lat="40.903903" lon="-3.560965">
        <ele>902.32</ele>
        <time>2022-06-19T08:55:17+00:00</time>
      </trkpt>
      <trkpt lat="40.903688" lon="-3.560901">
        <ele>902.32</ele>
        <time>2022-06-19T08:55:18+00:00</time>
      </trkpt>
      <trkpt lat="40.903473" lon="-3.560815">
        <ele>902.32</ele>
        <time>2022-06-19T08:55:19+00:00</time>
      </trkpt>
      <trkpt lat="40.903237" lon="-3.560708">
        <ele>902.80</ele>
        <time>2022-06-19T08:55:20+00:00</time>
      </trkpt>
      <trkpt lat="40.902057" lon="-3.560150">
        <ele>904.72</ele>
        <time>2022-06-19T08:55:26+00:00</time>
      </trkpt>
      <trkpt lat="40.901886" lon="-3.560021">
        <ele>905.68</ele>
        <time>2022-06-19T08:55:27+00:00</time>
      </trkpt>
      <trkpt lat="40.901735" lon="-3.559914">
        <ele>906.64</ele>
        <time>2022-06-19T08:55:28+00:00</time>
      </trkpt>
      <trkpt lat="40.901607" lon="-3.559742">
        <ele>907.60</ele>
        <time>2022-06-19T08:55:29+00:00</time>
      </trkpt>
      <trkpt lat="40.901478" lon="-3.559527">
        <ele>908.56</ele>
        <time>2022-06-19T08:55:30+00:00</time>
      </trkpt>
      <trkpt lat="40.901328" lon="-3.559313">
        <ele>909.53</ele>
        <time>2022-06-19T08:55:31+00:00</time>
      </trkpt>
      <trkpt lat="40.900019" lon="-3.557017">
        <ele>916.26</ele>
        <time>2022-06-19T08:55:41+00:00</time>
      </trkpt>
      <trkpt lat="40.899203" lon="-3.555150">
        <ele>921.54</ele>
        <time>2022-06-19T08:55:49+00:00</time>
      </trkpt>
      <trkpt lat="40.898302" lon="-3.553326">
        <ele>924.91</ele>
        <time>2022-06-19T08:55:58+00:00</time>
      </trkpt>
      <trkpt lat="40.898173" lon="-3.553155">
        <ele>924.43</ele>
        <time>2022-06-19T08:55:59+00:00</time>
      </trkpt>
      <trkpt lat="40.898023" lon="-3.553004">
        <ele>924.43</ele>
        <time>2022-06-19T08:56:00+00:00</time>
      </trkpt>
      <trkpt lat="40.897830" lon="-3.552940">
        <ele>924.43</ele>
        <time>2022-06-19T08:56:01+00:00</time>
      </trkpt>
      <trkpt lat="40.897637" lon="-3.552854">
        <ele>923.95</ele>
        <time>2022-06-19T08:56:02+00:00</time>
      </trkpt>
      <trkpt lat="40.897465" lon="-3.552854">
        <ele>923.95</ele>
        <time>2022-06-19T08:56:03+00:00</time>
      </trkpt>
      <trkpt lat="40.897294" lon="-3.552876">
        <ele>923.47</ele>
        <time>2022-06-19T08:56:04+00:00</time>
      </trkpt>
      <trkpt lat="40.897122" lon="-3.552940">
        <ele>922.50</ele>
        <time>2022-06-19T08:56:05+00:00</time>
      </trkpt>
      <trkpt lat="40.896950" lon="-3.553047">
        <ele>922.02</ele>
        <time>2022-06-19T08:56:06+00:00</time>
      </trkpt>
      <trkpt lat="40.896800" lon="-3.553197">
        <ele>921.06</ele>
        <time>2022-06-19T08:56:07+00:00</time>
      </trkpt>
      <trkpt lat="40.896650" lon="-3.553391">
        <ele>920.10</ele>
        <time>2022-06-19T08:56:08+00:00</time>
      </trkpt>
      <trkpt lat="40.896543" lon="-3.553584">
        <ele>919.14</ele>
        <time>2022-06-19T08:56:09+00:00</time>
      </trkpt>
      <trkpt lat="40.896457" lon="-3.553841">
        <ele>918.18</ele>
        <time>2022-06-19T08:56:10+00:00</time>
      </trkpt>
      <trkpt lat="40.896392" lon="-3.554077">
        <ele>917.70</ele>
        <time>2022-06-19T08:56:11+00:00</time>
      </trkpt>
      <trkpt lat="40.896049" lon="-3.554914">
        <ele>916.26</ele>
        <time>2022-06-19T08:56:15+00:00</time>
      </trkpt>
      <trkpt lat="40.895942" lon="-3.555064">
        <ele>916.26</ele>
        <time>2022-06-19T08:56:16+00:00</time>
      </trkpt>
      <trkpt lat="40.895792" lon="-3.555214">
        <ele>916.26</ele>
        <time>2022-06-19T08:56:17+00:00</time>
      </trkpt>
      <trkpt lat="40.895620" lon="-3.555322">
        <ele>916.74</ele>
        <time>2022-06-19T08:56:18+00:00</time>
      </trkpt>
      <trkpt lat="40.895427" lon="-3.555450">
        <ele>916.74</ele>
        <time>2022-06-19T08:56:19+00:00</time>
      </trkpt>
      <trkpt lat="40.893732" lon="-3.556652">
        <ele>919.62</ele>
        <time>2022-06-19T08:56:29+00:00</time>
      </trkpt>
      <trkpt lat="40.893581" lon="-3.556824">
        <ele>920.10</ele>
        <time>2022-06-19T08:56:30+00:00</time>
      </trkpt>
      <trkpt lat="40.892337" lon="-3.558047">
        <ele>924.43</ele>
        <time>2022-06-19T08:56:39+00:00</time>
      </trkpt>
      <trkpt lat="40.892122" lon="-3.558240">
        <ele>925.87</ele>
        <time>2022-06-19T08:56:41+00:00</time>
      </trkpt>
      <trkpt lat="40.891994" lon="-3.558240">
        <ele>926.35</ele>
        <time>2022-06-19T08:56:42+00:00</time>
      </trkpt>
      <trkpt lat="40.891843" lon="-3.558261">
        <ele>926.83</ele>
        <time>2022-06-19T08:56:43+00:00</time>
      </trkpt>
      <trkpt lat="40.891693" lon="-3.558261">
        <ele>927.31</ele>
        <time>2022-06-19T08:56:44+00:00</time>
      </trkpt>
      <trkpt lat="40.891543" lon="-3.558261">
        <ele>928.27</ele>
        <time>2022-06-19T08:56:45+00:00</time>
      </trkpt>
      <trkpt lat="40.890663" lon="-3.558197">
        <ele>935.00</ele>
        <time>2022-06-19T08:56:52+00:00</time>
      </trkpt>
      <trkpt lat="40.890556" lon="-3.558261">
        <ele>935.96</ele>
        <time>2022-06-19T08:56:53+00:00</time>
      </trkpt>
      <trkpt lat="40.890449" lon="-3.558304">
        <ele>936.44</ele>
        <time>2022-06-19T08:56:54+00:00</time>
      </trkpt>
      <trkpt lat="40.890363" lon="-3.558347">
        <ele>936.92</ele>
        <time>2022-06-19T08:56:55+00:00</time>
      </trkpt>
      <trkpt lat="40.890298" lon="-3.558455">
        <ele>937.40</ele>
        <time>2022-06-19T08:56:56+00:00</time>
      </trkpt>
      <trkpt lat="40.890234" lon="-3.558562">
        <ele>937.40</ele>
        <time>2022-06-19T08:56:57+00:00</time>
      </trkpt>
      <trkpt lat="40.890191" lon="-3.558648">
        <ele>937.88</ele>
        <time>2022-06-19T08:56:58+00:00</time>
      </trkpt>
      <trkpt lat="40.890170" lon="-3.558755">
        <ele>937.88</ele>
        <time>2022-06-19T08:56:59+00:00</time>
      </trkpt>
      <trkpt lat="40.890127" lon="-3.558862">
        <ele>938.37</ele>
        <time>2022-06-19T08:57:00+00:00</time>
      </trkpt>
      <trkpt lat="40.890062" lon="-3.559098">
        <ele>939.33</ele>
        <time>2022-06-19T08:57:02+00:00</time>
      </trkpt>
      <trkpt lat="40.890019" lon="-3.559206">
        <ele>939.33</ele>
        <time>2022-06-19T08:57:03+00:00</time>
      </trkpt>
      <trkpt lat="40.889955" lon="-3.559270">
        <ele>939.81</ele>
        <time>2022-06-19T08:57:04+00:00</time>
      </trkpt>
      <trkpt lat="40.889869" lon="-3.559356">
        <ele>939.81</ele>
        <time>2022-06-19T08:57:05+00:00</time>
      </trkpt>
      <trkpt lat="40.889805" lon="-3.559420">
        <ele>939.81</ele>
        <time>2022-06-19T08:57:06+00:00</time>
      </trkpt>
      <trkpt lat="40.889054" lon="-3.559957">
        <ele>937.88</ele>
        <time>2022-06-19T08:57:15+00:00</time>
      </trkpt>
      <trkpt lat="40.888839" lon="-3.560085">
        <ele>936.92</ele>
        <time>2022-06-19T08:57:18+00:00</time>
      </trkpt>
      <trkpt lat="40.888796" lon="-3.560150">
        <ele>936.92</ele>
        <time>2022-06-19T08:57:19+00:00</time>
      </trkpt>
      <trkpt lat="40.888775" lon="-3.560236">
        <ele>936.44</ele>
        <time>2022-06-19T08:57:20+00:00</time>
      </trkpt>
      <trkpt lat="40.888732" lon="-3.560321">
        <ele>935.96</ele>
        <time>2022-06-19T08:57:21+00:00</time>
      </trkpt>
      <trkpt lat="40.888689" lon="-3.560386">
        <ele>935.96</ele>
        <time>2022-06-19T08:57:22+00:00</time>
      </trkpt>
      <trkpt lat="40.888668" lon="-3.560472">
        <ele>935.48</ele>
        <time>2022-06-19T08:57:23+00:00</time>
      </trkpt>
      <trkpt lat="40.888582" lon="-3.560686">
        <ele>935.00</ele>
        <time>2022-06-19T08:57:26+00:00</time>
      </trkpt>
      <trkpt lat="40.888560" lon="-3.560729">
        <ele>935.00</ele>
        <time>2022-06-19T08:57:27+00:00</time>
      </trkpt>
      <trkpt lat="40.888238" lon="-3.561180">
        <ele>933.08</ele>
        <time>2022-06-19T08:57:37+00:00</time>
      </trkpt>
      <trkpt lat="40.888196" lon="-3.561244">
        <ele>932.60</ele>
        <time>2022-06-19T08:57:47+00:00</time>
      </trkpt>
      <trkpt lat="40.888153" lon="-3.561244">
        <ele>933.08</ele>
        <time>2022-06-19T08:57:48+00:00</time>
      </trkpt>
      <trkpt lat="40.888131" lon="-3.561223">
        <ele>933.08</ele>
        <time>2022-06-19T08:57:49+00:00</time>
      </trkpt>
      <trkpt lat="40.888067" lon="-3.561158">
        <ele>933.08</ele>
        <time>2022-06-19T08:57:50+00:00</time>
      </trkpt>
      <trkpt lat="40.888024" lon="-3.561115">
        <ele>933.08</ele>
        <time>2022-06-19T08:57:51+00:00</time>
      </trkpt>
      <trkpt lat="40.887959" lon="-3.561051">
        <ele>933.08</ele>
        <time>2022-06-19T08:57:52+00:00</time>
      </trkpt>
      <trkpt lat="40.887616" lon="-3.560665">
        <ele>933.56</ele>
        <time>2022-06-19T08:57:59+00:00</time>
      </trkpt>
      <trkpt lat="40.887573" lon="-3.560579">
        <ele>933.56</ele>
        <time>2022-06-19T08:58:00+00:00</time>
      </trkpt>
      <trkpt lat="40.887080" lon="-3.559463">
        <ele>932.12</ele>
        <time>2022-06-19T08:58:08+00:00</time>
      </trkpt>
      <trkpt lat="40.886951" lon="-3.559163">
        <ele>931.16</ele>
        <time>2022-06-19T08:58:10+00:00</time>
      </trkpt>
      <trkpt lat="40.886865" lon="-3.559034">
        <ele>930.68</ele>
        <time>2022-06-19T08:58:11+00:00</time>
      </trkpt>
      <trkpt lat="40.885900" lon="-3.557618">
        <ele>929.71</ele>
        <time>2022-06-19T08:58:21+00:00</time>
      </trkpt>
      <trkpt lat="40.884891" lon="-3.556395">
        <ele>934.04</ele>
        <time>2022-06-19T08:58:29+00:00</time>
      </trkpt>
      <trkpt lat="40.884719" lon="-3.556244">
        <ele>934.52</ele>
        <time>2022-06-19T08:58:30+00:00</time>
      </trkpt>
      <trkpt lat="40.884505" lon="-3.556180">
        <ele>935.96</ele>
        <time>2022-06-19T08:58:31+00:00</time>
      </trkpt>
      <trkpt lat="40.884312" lon="-3.556094">
        <ele>936.92</ele>
        <time>2022-06-19T08:58:32+00:00</time>
      </trkpt>
      <trkpt lat="40.884119" lon="-3.556030">
        <ele>937.88</ele>
        <time>2022-06-19T08:58:33+00:00</time>
      </trkpt>
      <trkpt lat="40.883925" lon="-3.555944">
        <ele>938.85</ele>
        <time>2022-06-19T08:58:34+00:00</time>
      </trkpt>
      <trkpt lat="40.883067" lon="-3.555622">
        <ele>944.13</ele>
        <time>2022-06-19T08:58:38+00:00</time>
      </trkpt>
      <trkpt lat="40.882874" lon="-3.555493">
        <ele>945.58</ele>
        <time>2022-06-19T08:58:39+00:00</time>
      </trkpt>
      <trkpt lat="40.882681" lon="-3.555365">
        <ele>946.54</ele>
        <time>2022-06-19T08:58:40+00:00</time>
      </trkpt>
      <trkpt lat="40.882488" lon="-3.555214">
        <ele>947.02</ele>
        <time>2022-06-19T08:58:41+00:00</time>
      </trkpt>
      <trkpt lat="40.882316" lon="-3.555086">
        <ele>947.50</ele>
        <time>2022-06-19T08:58:42+00:00</time>
      </trkpt>
      <trkpt lat="40.882102" lon="-3.554978">
        <ele>947.98</ele>
        <time>2022-06-19T08:58:43+00:00</time>
      </trkpt>
      <trkpt lat="40.881908" lon="-3.554935">
        <ele>948.46</ele>
        <time>2022-06-19T08:58:44+00:00</time>
      </trkpt>
      <trkpt lat="40.881672" lon="-3.554935">
        <ele>948.46</ele>
        <time>2022-06-19T08:58:45+00:00</time>
      </trkpt>
      <trkpt lat="40.881458" lon="-3.554914">
        <ele>948.94</ele>
        <time>2022-06-19T08:58:46+00:00</time>
      </trkpt>
      <trkpt lat="40.877917" lon="-3.554785">
        <ele>958.07</ele>
        <time>2022-06-19T08:59:01+00:00</time>
      </trkpt>
      <trkpt lat="40.877510" lon="-3.554657">
        <ele>959.51</ele>
        <time>2022-06-19T08:59:03+00:00</time>
      </trkpt>
      <trkpt lat="40.877316" lon="-3.554592">
        <ele>960.48</ele>
        <time>2022-06-19T08:59:04+00:00</time>
      </trkpt>
      <trkpt lat="40.876351" lon="-3.554013">
        <ele>964.80</ele>
        <time>2022-06-19T08:59:09+00:00</time>
      </trkpt>
      <trkpt lat="40.876179" lon="-3.553863">
        <ele>965.28</ele>
        <time>2022-06-19T08:59:10+00:00</time>
      </trkpt>
      <trkpt lat="40.876008" lon="-3.553648">
        <ele>965.76</ele>
        <time>2022-06-19T08:59:11+00:00</time>
      </trkpt>
      <trkpt lat="40.875857" lon="-3.553455">
        <ele>965.76</ele>
        <time>2022-06-19T08:59:12+00:00</time>
      </trkpt>
      <trkpt lat="40.875707" lon="-3.553240">
        <ele>965.28</ele>
        <time>2022-06-19T08:59:13+00:00</time>
      </trkpt>
      <trkpt lat="40.875578" lon="-3.552983">
        <ele>964.80</ele>
        <time>2022-06-19T08:59:14+00:00</time>
      </trkpt>
      <trkpt lat="40.875471" lon="-3.552704">
        <ele>964.32</ele>
        <time>2022-06-19T08:59:15+00:00</time>
      </trkpt>
      <trkpt lat="40.875364" lon="-3.552425">
        <ele>963.36</ele>
        <time>2022-06-19T08:59:16+00:00</time>
      </trkpt>
      <trkpt lat="40.875278" lon="-3.552125">
        <ele>962.88</ele>
        <time>2022-06-19T08:59:17+00:00</time>
      </trkpt>
      <trkpt lat="40.875214" lon="-3.551824">
        <ele>961.44</ele>
        <time>2022-06-19T08:59:18+00:00</time>
      </trkpt>
      <trkpt lat="40.875171" lon="-3.551524">
        <ele>960.48</ele>
        <time>2022-06-19T08:59:19+00:00</time>
      </trkpt>
      <trkpt lat="40.875128" lon="-3.551266">
        <ele>959.03</ele>
        <time>2022-06-19T08:59:20+00:00</time>
      </trkpt>
      <trkpt lat="40.875042" lon="-3.551052">
        <ele>957.59</ele>
        <time>2022-06-19T08:59:21+00:00</time>
      </trkpt>
      <trkpt lat="40.874935" lon="-3.550837">
        <ele>956.15</ele>
        <time>2022-06-19T08:59:22+00:00</time>
      </trkpt>
      <trkpt lat="40.874827" lon="-3.550687">
        <ele>954.71</ele>
        <time>2022-06-19T08:59:23+00:00</time>
      </trkpt>
      <trkpt lat="40.874677" lon="-3.550558">
        <ele>953.27</ele>
        <time>2022-06-19T08:59:24+00:00</time>
      </trkpt>
      <trkpt lat="40.874506" lon="-3.550472">
        <ele>951.34</ele>
        <time>2022-06-19T08:59:25+00:00</time>
      </trkpt>
      <trkpt lat="40.874312" lon="-3.550429">
        <ele>949.90</ele>
        <time>2022-06-19T08:59:26+00:00</time>
      </trkpt>
      <trkpt lat="40.874098" lon="-3.550408">
        <ele>947.98</ele>
        <time>2022-06-19T08:59:27+00:00</time>
      </trkpt>
      <trkpt lat="40.873883" lon="-3.550408">
        <ele>946.54</ele>
        <time>2022-06-19T08:59:28+00:00</time>
      </trkpt>
      <trkpt lat="40.873690" lon="-3.550386">
        <ele>945.09</ele>
        <time>2022-06-19T08:59:29+00:00</time>
      </trkpt>
      <trkpt lat="40.873111" lon="-3.550279">
        <ele>941.25</ele>
        <time>2022-06-19T08:59:32+00:00</time>
      </trkpt>
      <trkpt lat="40.872918" lon="-3.550172">
        <ele>939.81</ele>
        <time>2022-06-19T08:59:33+00:00</time>
      </trkpt>
      <trkpt lat="40.872725" lon="-3.550043">
        <ele>938.85</ele>
        <time>2022-06-19T08:59:34+00:00</time>
      </trkpt>
      <trkpt lat="40.872553" lon="-3.549893">
        <ele>937.40</ele>
        <time>2022-06-19T08:59:35+00:00</time>
      </trkpt>
      <trkpt lat="40.872381" lon="-3.549678">
        <ele>935.96</ele>
        <time>2022-06-19T08:59:36+00:00</time>
      </trkpt>
      <trkpt lat="40.872210" lon="-3.549464">
        <ele>934.52</ele>
        <time>2022-06-19T08:59:37+00:00</time>
      </trkpt>
      <trkpt lat="40.872059" lon="-3.549206">
        <ele>933.56</ele>
        <time>2022-06-19T08:59:38+00:00</time>
      </trkpt>
      <trkpt lat="40.871909" lon="-3.548927">
        <ele>932.12</ele>
        <time>2022-06-19T08:59:39+00:00</time>
      </trkpt>
      <trkpt lat="40.870471" lon="-3.546438">
        <ele>925.87</ele>
        <time>2022-06-19T08:59:49+00:00</time>
      </trkpt>
      <trkpt lat="40.870171" lon="-3.546031">
        <ele>925.39</ele>
        <time>2022-06-19T08:59:51+00:00</time>
      </trkpt>
      <trkpt lat="40.870021" lon="-3.545837">
        <ele>925.39</ele>
        <time>2022-06-19T08:59:52+00:00</time>
      </trkpt>
      <trkpt lat="40.869849" lon="-3.545687">
        <ele>925.39</ele>
        <time>2022-06-19T08:59:53+00:00</time>
      </trkpt>
      <trkpt lat="40.869678" lon="-3.545558">
        <ele>925.39</ele>
        <time>2022-06-19T08:59:54+00:00</time>
      </trkpt>
      <trkpt lat="40.869484" lon="-3.545451">
        <ele>925.87</ele>
        <time>2022-06-19T08:59:55+00:00</time>
      </trkpt>
      <trkpt lat="40.869291" lon="-3.545365">
        <ele>925.87</ele>
        <time>2022-06-19T08:59:56+00:00</time>
      </trkpt>
      <trkpt lat="40.868562" lon="-3.545086">
        <ele>928.75</ele>
        <time>2022-06-19T09:00:00+00:00</time>
      </trkpt>
      <trkpt lat="40.868369" lon="-3.545086">
        <ele>929.71</ele>
        <time>2022-06-19T09:00:01+00:00</time>
      </trkpt>
      <trkpt lat="40.868176" lon="-3.545129">
        <ele>931.16</ele>
        <time>2022-06-19T09:00:02+00:00</time>
      </trkpt>
      <trkpt lat="40.867618" lon="-3.545237">
        <ele>935.00</ele>
        <time>2022-06-19T09:00:05+00:00</time>
      </trkpt>
      <trkpt lat="40.867446" lon="-3.545215">
        <ele>936.44</ele>
        <time>2022-06-19T09:00:06+00:00</time>
      </trkpt>
      <trkpt lat="40.865579" lon="-3.545194">
        <ele>946.54</ele>
        <time>2022-06-19T09:00:16+00:00</time>
      </trkpt>
      <trkpt lat="40.864377" lon="-3.545516">
        <ele>950.38</ele>
        <time>2022-06-19T09:00:23+00:00</time>
      </trkpt>
      <trkpt lat="40.864227" lon="-3.545516">
        <ele>950.86</ele>
        <time>2022-06-19T09:00:24+00:00</time>
      </trkpt>
      <trkpt lat="40.864056" lon="-3.545430">
        <ele>950.86</ele>
        <time>2022-06-19T09:00:25+00:00</time>
      </trkpt>
      <trkpt lat="40.863905" lon="-3.545344">
        <ele>950.86</ele>
        <time>2022-06-19T09:00:26+00:00</time>
      </trkpt>
      <trkpt lat="40.863755" lon="-3.545194">
        <ele>951.34</ele>
        <time>2022-06-19T09:00:27+00:00</time>
      </trkpt>
      <trkpt lat="40.863626" lon="-3.545022">
        <ele>951.34</ele>
        <time>2022-06-19T09:00:28+00:00</time>
      </trkpt>
      <trkpt lat="40.863541" lon="-3.544807">
        <ele>951.34</ele>
        <time>2022-06-19T09:00:29+00:00</time>
      </trkpt>
      <trkpt lat="40.863455" lon="-3.544636">
        <ele>951.82</ele>
        <time>2022-06-19T09:00:30+00:00</time>
      </trkpt>
      <trkpt lat="40.863369" lon="-3.544443">
        <ele>951.82</ele>
        <time>2022-06-19T09:00:31+00:00</time>
      </trkpt>
      <trkpt lat="40.863240" lon="-3.544314">
        <ele>951.82</ele>
        <time>2022-06-19T09:00:32+00:00</time>
      </trkpt>
      <trkpt lat="40.863069" lon="-3.544271">
        <ele>951.82</ele>
        <time>2022-06-19T09:00:33+00:00</time>
      </trkpt>
      <trkpt lat="40.862897" lon="-3.544292">
        <ele>951.34</ele>
        <time>2022-06-19T09:00:34+00:00</time>
      </trkpt>
      <trkpt lat="40.862725" lon="-3.544314">
        <ele>951.34</ele>
        <time>2022-06-19T09:00:35+00:00</time>
      </trkpt>
      <trkpt lat="40.862532" lon="-3.544335">
        <ele>951.34</ele>
        <time>2022-06-19T09:00:36+00:00</time>
      </trkpt>
      <trkpt lat="40.862360" lon="-3.544443">
        <ele>951.34</ele>
        <time>2022-06-19T09:00:37+00:00</time>
      </trkpt>
      <trkpt lat="40.862210" lon="-3.544529">
        <ele>951.34</ele>
        <time>2022-06-19T09:00:38+00:00</time>
      </trkpt>
      <trkpt lat="40.862039" lon="-3.544636">
        <ele>950.86</ele>
        <time>2022-06-19T09:00:39+00:00</time>
      </trkpt>
      <trkpt lat="40.861867" lon="-3.544700">
        <ele>950.86</ele>
        <time>2022-06-19T09:00:40+00:00</time>
      </trkpt>
      <trkpt lat="40.861652" lon="-3.544722">
        <ele>950.38</ele>
        <time>2022-06-19T09:00:41+00:00</time>
      </trkpt>
      <trkpt lat="40.861288" lon="-3.544765">
        <ele>949.90</ele>
        <time>2022-06-19T09:00:43+00:00</time>
      </trkpt>
      <trkpt lat="40.861116" lon="-3.544829">
        <ele>949.42</ele>
        <time>2022-06-19T09:00:44+00:00</time>
      </trkpt>
      <trkpt lat="40.860944" lon="-3.544936">
        <ele>949.42</ele>
        <time>2022-06-19T09:00:45+00:00</time>
      </trkpt>
      <trkpt lat="40.860794" lon="-3.545044">
        <ele>948.94</ele>
        <time>2022-06-19T09:00:46+00:00</time>
      </trkpt>
      <trkpt lat="40.860644" lon="-3.545129">
        <ele>948.94</ele>
        <time>2022-06-19T09:00:47+00:00</time>
      </trkpt>
      <trkpt lat="40.860472" lon="-3.545151">
        <ele>948.46</ele>
        <time>2022-06-19T09:00:48+00:00</time>
      </trkpt>
      <trkpt lat="40.860279" lon="-3.545129">
        <ele>947.98</ele>
        <time>2022-06-19T09:00:49+00:00</time>
      </trkpt>
      <trkpt lat="40.860065" lon="-3.545108">
        <ele>947.98</ele>
        <time>2022-06-19T09:00:50+00:00</time>
      </trkpt>
      <trkpt lat="40.859850" lon="-3.545044">
        <ele>947.50</ele>
        <time>2022-06-19T09:00:51+00:00</time>
      </trkpt>
      <trkpt lat="40.859635" lon="-3.544958">
        <ele>947.02</ele>
        <time>2022-06-19T09:00:52+00:00</time>
      </trkpt>
      <trkpt lat="40.859442" lon="-3.544850">
        <ele>946.06</ele>
        <time>2022-06-19T09:00:53+00:00</time>
      </trkpt>
      <trkpt lat="40.859249" lon="-3.544743">
        <ele>945.09</ele>
        <time>2022-06-19T09:00:54+00:00</time>
      </trkpt>
      <trkpt lat="40.858670" lon="-3.544443">
        <ele>941.73</ele>
        <time>2022-06-19T09:00:57+00:00</time>
      </trkpt>
      <trkpt lat="40.858477" lon="-3.544400">
        <ele>939.81</ele>
        <time>2022-06-19T09:00:58+00:00</time>
      </trkpt>
      <trkpt lat="40.858262" lon="-3.544378">
        <ele>938.37</ele>
        <time>2022-06-19T09:00:59+00:00</time>
      </trkpt>
      <trkpt lat="40.858047" lon="-3.544400">
        <ele>936.92</ele>
        <time>2022-06-19T09:01:00+00:00</time>
      </trkpt>
      <trkpt lat="40.857811" lon="-3.544464">
        <ele>935.48</ele>
        <time>2022-06-19T09:01:01+00:00</time>
      </trkpt>
      <trkpt lat="40.857597" lon="-3.544550">
        <ele>933.56</ele>
        <time>2022-06-19T09:01:02+00:00</time>
      </trkpt>
      <trkpt lat="40.857361" lon="-3.544679">
        <ele>932.12</ele>
        <time>2022-06-19T09:01:03+00:00</time>
      </trkpt>
      <trkpt lat="40.857146" lon="-3.544872">
        <ele>930.68</ele>
        <time>2022-06-19T09:01:04+00:00</time>
      </trkpt>
      <trkpt lat="40.856932" lon="-3.545065">
        <ele>928.75</ele>
        <time>2022-06-19T09:01:05+00:00</time>
      </trkpt>
      <trkpt lat="40.856717" lon="-3.545280">
        <ele>927.31</ele>
        <time>2022-06-19T09:01:06+00:00</time>
      </trkpt>
      <trkpt lat="40.854979" lon="-3.546824">
        <ele>923.47</ele>
        <time>2022-06-19T09:01:14+00:00</time>
      </trkpt>
      <trkpt lat="40.853799" lon="-3.547683">
        <ele>926.83</ele>
        <time>2022-06-19T09:01:20+00:00</time>
      </trkpt>
      <trkpt lat="40.853649" lon="-3.547833">
        <ele>928.27</ele>
        <time>2022-06-19T09:01:21+00:00</time>
      </trkpt>
      <trkpt lat="40.853177" lon="-3.548284">
        <ele>930.68</ele>
        <time>2022-06-19T09:01:24+00:00</time>
      </trkpt>
      <trkpt lat="40.853005" lon="-3.548412">
        <ele>931.64</ele>
        <time>2022-06-19T09:01:25+00:00</time>
      </trkpt>
      <trkpt lat="40.852790" lon="-3.548498">
        <ele>932.12</ele>
        <time>2022-06-19T09:01:26+00:00</time>
      </trkpt>
      <trkpt lat="40.851396" lon="-3.549421">
        <ele>930.68</ele>
        <time>2022-06-19T09:01:33+00:00</time>
      </trkpt>
      <trkpt lat="40.851245" lon="-3.549571">
        <ele>930.68</ele>
        <time>2022-06-19T09:01:34+00:00</time>
      </trkpt>
      <trkpt lat="40.851138" lon="-3.549764">
        <ele>930.68</ele>
        <time>2022-06-19T09:01:35+00:00</time>
      </trkpt>
      <trkpt lat="40.851031" lon="-3.549979">
        <ele>930.19</ele>
        <time>2022-06-19T09:01:36+00:00</time>
      </trkpt>
      <trkpt lat="40.850945" lon="-3.550193">
        <ele>929.71</ele>
        <time>2022-06-19T09:01:37+00:00</time>
      </trkpt>
      <trkpt lat="40.850881" lon="-3.550472">
        <ele>929.71</ele>
        <time>2022-06-19T09:01:38+00:00</time>
      </trkpt>
      <trkpt lat="40.850816" lon="-3.550751">
        <ele>930.19</ele>
        <time>2022-06-19T09:01:39+00:00</time>
      </trkpt>
      <trkpt lat="40.850215" lon="-3.552189">
        <ele>927.79</ele>
        <time>2022-06-19T09:01:45+00:00</time>
      </trkpt>
      <trkpt lat="40.850087" lon="-3.552382">
        <ele>926.83</ele>
        <time>2022-06-19T09:01:46+00:00</time>
      </trkpt>
      <trkpt lat="40.849915" lon="-3.552489">
        <ele>925.87</ele>
        <time>2022-06-19T09:01:47+00:00</time>
      </trkpt>
      <trkpt lat="40.849722" lon="-3.552640">
        <ele>924.91</ele>
        <time>2022-06-19T09:01:48+00:00</time>
      </trkpt>
      <trkpt lat="40.849529" lon="-3.552725">
        <ele>924.43</ele>
        <time>2022-06-19T09:01:49+00:00</time>
      </trkpt>
      <trkpt lat="40.849314" lon="-3.552811">
        <ele>923.95</ele>
        <time>2022-06-19T09:01:50+00:00</time>
      </trkpt>
      <trkpt lat="40.848778" lon="-3.553112">
        <ele>923.95</ele>
        <time>2022-06-19T09:01:53+00:00</time>
      </trkpt>
      <trkpt lat="40.848628" lon="-3.553240">
        <ele>923.95</ele>
        <time>2022-06-19T09:01:54+00:00</time>
      </trkpt>
      <trkpt lat="40.848520" lon="-3.553412">
        <ele>923.95</ele>
        <time>2022-06-19T09:01:55+00:00</time>
      </trkpt>
      <trkpt lat="40.848413" lon="-3.553627">
        <ele>923.95</ele>
        <time>2022-06-19T09:01:56+00:00</time>
      </trkpt>
      <trkpt lat="40.848327" lon="-3.553863">
        <ele>923.95</ele>
        <time>2022-06-19T09:01:57+00:00</time>
      </trkpt>
      <trkpt lat="40.847919" lon="-3.554742">
        <ele>923.95</ele>
        <time>2022-06-19T09:02:01+00:00</time>
      </trkpt>
      <trkpt lat="40.847791" lon="-3.554914">
        <ele>924.43</ele>
        <time>2022-06-19T09:02:02+00:00</time>
      </trkpt>
      <trkpt lat="40.847662" lon="-3.555064">
        <ele>924.43</ele>
        <time>2022-06-19T09:02:03+00:00</time>
      </trkpt>
      <trkpt lat="40.847490" lon="-3.555193">
        <ele>923.95</ele>
        <time>2022-06-19T09:02:04+00:00</time>
      </trkpt>
      <trkpt lat="40.847319" lon="-3.555300">
        <ele>923.95</ele>
        <time>2022-06-19T09:02:05+00:00</time>
      </trkpt>
      <trkpt lat="40.847126" lon="-3.555386">
        <ele>923.95</ele>
        <time>2022-06-19T09:02:06+00:00</time>
      </trkpt>
      <trkpt lat="40.846954" lon="-3.555472">
        <ele>923.47</ele>
        <time>2022-06-19T09:02:07+00:00</time>
      </trkpt>
      <trkpt lat="40.846804" lon="-3.555558">
        <ele>922.98</ele>
        <time>2022-06-19T09:02:08+00:00</time>
      </trkpt>
      <trkpt lat="40.846546" lon="-3.555687">
        <ele>922.02</ele>
        <time>2022-06-19T09:02:10+00:00</time>
      </trkpt>
      <trkpt lat="40.846396" lon="-3.555708">
        <ele>921.54</ele>
        <time>2022-06-19T09:02:11+00:00</time>
      </trkpt>
      <trkpt lat="40.846289" lon="-3.555622">
        <ele>920.58</ele>
        <time>2022-06-19T09:02:12+00:00</time>
      </trkpt>
      <trkpt lat="40.846160" lon="-3.555515">
        <ele>920.10</ele>
        <time>2022-06-19T09:02:13+00:00</time>
      </trkpt>
      <trkpt lat="40.846053" lon="-3.555429">
        <ele>919.14</ele>
        <time>2022-06-19T09:02:14+00:00</time>
      </trkpt>
      <trkpt lat="40.845924" lon="-3.555365">
        <ele>918.18</ele>
        <time>2022-06-19T09:02:15+00:00</time>
      </trkpt>
      <trkpt lat="40.845795" lon="-3.555365">
        <ele>917.22</ele>
        <time>2022-06-19T09:02:16+00:00</time>
      </trkpt>
      <trkpt lat="40.845645" lon="-3.555429">
        <ele>916.74</ele>
        <time>2022-06-19T09:02:17+00:00</time>
      </trkpt>
      <trkpt lat="40.845495" lon="-3.555579">
        <ele>915.77</ele>
        <time>2022-06-19T09:02:18+00:00</time>
      </trkpt>
      <trkpt lat="40.845387" lon="-3.555772">
        <ele>914.81</ele>
        <time>2022-06-19T09:02:19+00:00</time>
      </trkpt>
      <trkpt lat="40.845280" lon="-3.556008">
        <ele>913.37</ele>
        <time>2022-06-19T09:02:20+00:00</time>
      </trkpt>
      <trkpt lat="40.845173" lon="-3.556287">
        <ele>912.41</ele>
        <time>2022-06-19T09:02:21+00:00</time>
      </trkpt>
      <trkpt lat="40.844186" lon="-3.558219">
        <ele>907.60</ele>
        <time>2022-06-19T09:02:29+00:00</time>
      </trkpt>
      <trkpt lat="40.843499" lon="-3.559678">
        <ele>903.28</ele>
        <time>2022-06-19T09:02:36+00:00</time>
      </trkpt>
      <trkpt lat="40.843435" lon="-3.559849">
        <ele>902.80</ele>
        <time>2022-06-19T09:02:37+00:00</time>
      </trkpt>
      <trkpt lat="40.843306" lon="-3.559978">
        <ele>901.84</ele>
        <time>2022-06-19T09:02:38+00:00</time>
      </trkpt>
      <trkpt lat="40.843177" lon="-3.560107">
        <ele>901.35</ele>
        <time>2022-06-19T09:02:39+00:00</time>
      </trkpt>
      <trkpt lat="40.843006" lon="-3.560171">
        <ele>900.87</ele>
        <time>2022-06-19T09:02:40+00:00</time>
      </trkpt>
      <trkpt lat="40.842834" lon="-3.560214">
        <ele>900.39</ele>
        <time>2022-06-19T09:02:41+00:00</time>
      </trkpt>
      <trkpt lat="40.842641" lon="-3.560278">
        <ele>899.91</ele>
        <time>2022-06-19T09:02:42+00:00</time>
      </trkpt>
      <trkpt lat="40.842255" lon="-3.560386">
        <ele>898.47</ele>
        <time>2022-06-19T09:02:44+00:00</time>
      </trkpt>
      <trkpt lat="40.842062" lon="-3.560472">
        <ele>897.99</ele>
        <time>2022-06-19T09:02:45+00:00</time>
      </trkpt>
      <trkpt lat="40.841911" lon="-3.560579">
        <ele>897.99</ele>
        <time>2022-06-19T09:02:46+00:00</time>
      </trkpt>
      <trkpt lat="40.841761" lon="-3.560772">
        <ele>897.51</ele>
        <time>2022-06-19T09:02:47+00:00</time>
      </trkpt>
      <trkpt lat="40.841632" lon="-3.560944">
        <ele>897.51</ele>
        <time>2022-06-19T09:02:48+00:00</time>
      </trkpt>
      <trkpt lat="40.841396" lon="-3.561223">
        <ele>897.03</ele>
        <time>2022-06-19T09:02:50+00:00</time>
      </trkpt>
      <trkpt lat="40.841289" lon="-3.561351">
        <ele>897.03</ele>
        <time>2022-06-19T09:02:51+00:00</time>
      </trkpt>
      <trkpt lat="40.841139" lon="-3.561394">
        <ele>897.03</ele>
        <time>2022-06-19T09:02:52+00:00</time>
      </trkpt>
      <trkpt lat="40.841010" lon="-3.561437">
        <ele>897.03</ele>
        <time>2022-06-19T09:02:53+00:00</time>
      </trkpt>
      <trkpt lat="40.840881" lon="-3.561373">
        <ele>897.03</ele>
        <time>2022-06-19T09:02:54+00:00</time>
      </trkpt>
      <trkpt lat="40.840774" lon="-3.561287">
        <ele>897.03</ele>
        <time>2022-06-19T09:02:55+00:00</time>
      </trkpt>
      <trkpt lat="40.840667" lon="-3.561115">
        <ele>896.55</ele>
        <time>2022-06-19T09:02:56+00:00</time>
      </trkpt>
      <trkpt lat="40.840559" lon="-3.560922">
        <ele>896.55</ele>
        <time>2022-06-19T09:02:57+00:00</time>
      </trkpt>
      <trkpt lat="40.840474" lon="-3.560708">
        <ele>896.55</ele>
        <time>2022-06-19T09:02:58+00:00</time>
      </trkpt>
      <trkpt lat="40.840388" lon="-3.560536">
        <ele>896.07</ele>
        <time>2022-06-19T09:02:59+00:00</time>
      </trkpt>
      <trkpt lat="40.840281" lon="-3.560407">
        <ele>895.59</ele>
        <time>2022-06-19T09:03:00+00:00</time>
      </trkpt>
      <trkpt lat="40.840173" lon="-3.560386">
        <ele>894.63</ele>
        <time>2022-06-19T09:03:01+00:00</time>
      </trkpt>
      <trkpt lat="40.840066" lon="-3.560364">
        <ele>893.66</ele>
        <time>2022-06-19T09:03:02+00:00</time>
      </trkpt>
      <trkpt lat="40.839980" lon="-3.560450">
        <ele>892.70</ele>
        <time>2022-06-19T09:03:03+00:00</time>
      </trkpt>
      <trkpt lat="40.839894" lon="-3.560600">
        <ele>891.74</ele>
        <time>2022-06-19T09:03:04+00:00</time>
      </trkpt>
      <trkpt lat="40.839808" lon="-3.560836">
        <ele>891.26</ele>
        <time>2022-06-19T09:03:05+00:00</time>
      </trkpt>
      <trkpt lat="40.839744" lon="-3.561072">
        <ele>890.78</ele>
        <time>2022-06-19T09:03:06+00:00</time>
      </trkpt>
      <trkpt lat="40.839701" lon="-3.561308">
        <ele>890.78</ele>
        <time>2022-06-19T09:03:07+00:00</time>
      </trkpt>
      <trkpt lat="40.839336" lon="-3.563433">
        <ele>896.07</ele>
        <time>2022-06-19T09:03:16+00:00</time>
      </trkpt>
      <trkpt lat="40.839251" lon="-3.563561">
        <ele>897.03</ele>
        <time>2022-06-19T09:03:17+00:00</time>
      </trkpt>
      <trkpt lat="40.839186" lon="-3.563669">
        <ele>897.99</ele>
        <time>2022-06-19T09:03:18+00:00</time>
      </trkpt>
      <trkpt lat="40.839079" lon="-3.563712">
        <ele>898.47</ele>
        <time>2022-06-19T09:03:19+00:00</time>
      </trkpt>
      <trkpt lat="40.838972" lon="-3.563690">
        <ele>899.43</ele>
        <time>2022-06-19T09:03:20+00:00</time>
      </trkpt>
      <trkpt lat="40.838907" lon="-3.563604">
        <ele>899.91</ele>
        <time>2022-06-19T09:03:21+00:00</time>
      </trkpt>
      <trkpt lat="40.838821" lon="-3.563476">
        <ele>900.39</ele>
        <time>2022-06-19T09:03:22+00:00</time>
      </trkpt>
      <trkpt lat="40.838778" lon="-3.563283">
        <ele>900.87</ele>
        <time>2022-06-19T09:03:23+00:00</time>
      </trkpt>
      <trkpt lat="40.838714" lon="-3.563068">
        <ele>901.35</ele>
        <time>2022-06-19T09:03:24+00:00</time>
      </trkpt>
      <trkpt lat="40.838349" lon="-3.562059">
        <ele>901.35</ele>
        <time>2022-06-19T09:03:29+00:00</time>
      </trkpt>
      <trkpt lat="40.838264" lon="-3.561931">
        <ele>900.87</ele>
        <time>2022-06-19T09:03:30+00:00</time>
      </trkpt>
      <trkpt lat="40.838135" lon="-3.561845">
        <ele>900.39</ele>
        <time>2022-06-19T09:03:31+00:00</time>
      </trkpt>
      <trkpt lat="40.837985" lon="-3.561802">
        <ele>899.43</ele>
        <time>2022-06-19T09:03:32+00:00</time>
      </trkpt>
      <trkpt lat="40.837813" lon="-3.561823">
        <ele>898.47</ele>
        <time>2022-06-19T09:03:33+00:00</time>
      </trkpt>
      <trkpt lat="40.837620" lon="-3.561909">
        <ele>897.99</ele>
        <time>2022-06-19T09:03:34+00:00</time>
      </trkpt>
      <trkpt lat="40.837448" lon="-3.561974">
        <ele>897.03</ele>
        <time>2022-06-19T09:03:35+00:00</time>
      </trkpt>
      <trkpt lat="40.837126" lon="-3.562059">
        <ele>895.11</ele>
        <time>2022-06-19T09:03:37+00:00</time>
      </trkpt>
      <trkpt lat="40.836976" lon="-3.562081">
        <ele>894.15</ele>
        <time>2022-06-19T09:03:38+00:00</time>
      </trkpt>
      <trkpt lat="40.836826" lon="-3.561995">
        <ele>893.18</ele>
        <time>2022-06-19T09:03:39+00:00</time>
      </trkpt>
      <trkpt lat="40.836676" lon="-3.561909">
        <ele>892.22</ele>
        <time>2022-06-19T09:03:40+00:00</time>
      </trkpt>
      <trkpt lat="40.836568" lon="-3.561738">
        <ele>890.78</ele>
        <time>2022-06-19T09:03:41+00:00</time>
      </trkpt>
      <trkpt lat="40.836461" lon="-3.561544">
        <ele>889.34</ele>
        <time>2022-06-19T09:03:42+00:00</time>
      </trkpt>
      <trkpt lat="40.836354" lon="-3.561373">
        <ele>888.38</ele>
        <time>2022-06-19T09:03:43+00:00</time>
      </trkpt>
      <trkpt lat="40.835989" lon="-3.560493">
        <ele>882.13</ele>
        <time>2022-06-19T09:03:48+00:00</time>
      </trkpt>
      <trkpt lat="40.835968" lon="-3.560321">
        <ele>881.17</ele>
        <time>2022-06-19T09:03:49+00:00</time>
      </trkpt>
      <trkpt lat="40.835925" lon="-3.560171">
        <ele>879.73</ele>
        <time>2022-06-19T09:03:50+00:00</time>
      </trkpt>
      <trkpt lat="40.835903" lon="-3.560064">
        <ele>878.76</ele>
        <time>2022-06-19T09:03:51+00:00</time>
      </trkpt>
      <trkpt lat="40.835882" lon="-3.559978">
        <ele>877.80</ele>
        <time>2022-06-19T09:03:52+00:00</time>
      </trkpt>
      <trkpt lat="40.835882" lon="-3.559935">
        <ele>877.32</ele>
        <time>2022-06-19T09:03:53+00:00</time>
      </trkpt>
      <trkpt lat="40.835860" lon="-3.559957">
        <ele>877.32</ele>
        <time>2022-06-19T09:03:54+00:00</time>
      </trkpt>
      <trkpt lat="40.835817" lon="-3.559978">
        <ele>877.32</ele>
        <time>2022-06-19T09:03:55+00:00</time>
      </trkpt>
      <trkpt lat="40.835774" lon="-3.560042">
        <ele>876.36</ele>
        <time>2022-06-19T09:03:56+00:00</time>
      </trkpt>
      <trkpt lat="40.835732" lon="-3.560128">
        <ele>875.88</ele>
        <time>2022-06-19T09:03:57+00:00</time>
      </trkpt>
      <trkpt lat="40.835710" lon="-3.560236">
        <ele>875.88</ele>
        <time>2022-06-19T09:03:58+00:00</time>
      </trkpt>
      <trkpt lat="40.835689" lon="-3.560364">
        <ele>875.40</ele>
        <time>2022-06-19T09:03:59+00:00</time>
      </trkpt>
      <trkpt lat="40.835538" lon="-3.561223">
        <ele>872.52</ele>
        <time>2022-06-19T09:04:05+00:00</time>
      </trkpt>
      <trkpt lat="40.835538" lon="-3.561351">
        <ele>871.55</ele>
        <time>2022-06-19T09:04:06+00:00</time>
      </trkpt>
      <trkpt lat="40.835538" lon="-3.561480">
        <ele>871.07</ele>
        <time>2022-06-19T09:04:07+00:00</time>
      </trkpt>
      <trkpt lat="40.835560" lon="-3.561630">
        <ele>870.59</ele>
        <time>2022-06-19T09:04:08+00:00</time>
      </trkpt>
      <trkpt lat="40.835581" lon="-3.561759">
        <ele>870.11</ele>
        <time>2022-06-19T09:04:09+00:00</time>
      </trkpt>
      <trkpt lat="40.835624" lon="-3.562038">
        <ele>868.67</ele>
        <time>2022-06-19T09:04:11+00:00</time>
      </trkpt>
      <trkpt lat="40.835646" lon="-3.562188">
        <ele>867.71</ele>
        <time>2022-06-19T09:04:12+00:00</time>
      </trkpt>
      <trkpt lat="40.835624" lon="-3.562295">
        <ele>867.23</ele>
        <time>2022-06-19T09:04:13+00:00</time>
      </trkpt>
      <trkpt lat="40.835560" lon="-3.562403">
        <ele>866.27</ele>
        <time>2022-06-19T09:04:14+00:00</time>
      </trkpt>
      <trkpt lat="40.835517" lon="-3.562532">
        <ele>865.79</ele>
        <time>2022-06-19T09:04:15+00:00</time>
      </trkpt>
      <trkpt lat="40.835453" lon="-3.562617">
        <ele>865.31</ele>
        <time>2022-06-19T09:04:16+00:00</time>
      </trkpt>
      <trkpt lat="40.835345" lon="-3.562682">
        <ele>864.83</ele>
        <time>2022-06-19T09:04:17+00:00</time>
      </trkpt>
      <trkpt lat="40.835259" lon="-3.562725">
        <ele>863.86</ele>
        <time>2022-06-19T09:04:18+00:00</time>
      </trkpt>
      <trkpt lat="40.835152" lon="-3.562789">
        <ele>863.38</ele>
        <time>2022-06-19T09:04:19+00:00</time>
      </trkpt>
      <trkpt lat="40.834680" lon="-3.563004">
        <ele>859.54</ele>
        <time>2022-06-19T09:04:24+00:00</time>
      </trkpt>
      <trkpt lat="40.834594" lon="-3.563004">
        <ele>859.06</ele>
        <time>2022-06-19T09:04:25+00:00</time>
      </trkpt>
      <trkpt lat="40.834487" lon="-3.562961">
        <ele>858.58</ele>
        <time>2022-06-19T09:04:26+00:00</time>
      </trkpt>
      <trkpt lat="40.834358" lon="-3.562918">
        <ele>857.62</ele>
        <time>2022-06-19T09:04:27+00:00</time>
      </trkpt>
      <trkpt lat="40.834251" lon="-3.562896">
        <ele>856.65</ele>
        <time>2022-06-19T09:04:28+00:00</time>
      </trkpt>
      <trkpt lat="40.834015" lon="-3.562853">
        <ele>855.21</ele>
        <time>2022-06-19T09:04:30+00:00</time>
      </trkpt>
      <trkpt lat="40.833929" lon="-3.562853">
        <ele>854.25</ele>
        <time>2022-06-19T09:04:31+00:00</time>
      </trkpt>
      <trkpt lat="40.833865" lon="-3.562896">
        <ele>853.77</ele>
        <time>2022-06-19T09:04:32+00:00</time>
      </trkpt>
      <trkpt lat="40.833800" lon="-3.562982">
        <ele>853.29</ele>
        <time>2022-06-19T09:04:33+00:00</time>
      </trkpt>
      <trkpt lat="40.833736" lon="-3.563068">
        <ele>852.33</ele>
        <time>2022-06-19T09:04:34+00:00</time>
      </trkpt>
      <trkpt lat="40.833672" lon="-3.563154">
        <ele>851.85</ele>
        <time>2022-06-19T09:04:35+00:00</time>
      </trkpt>
      <trkpt lat="40.833607" lon="-3.563261">
        <ele>851.37</ele>
        <time>2022-06-19T09:04:36+00:00</time>
      </trkpt>
      <trkpt lat="40.833543" lon="-3.563368">
        <ele>850.41</ele>
        <time>2022-06-19T09:04:37+00:00</time>
      </trkpt>
      <trkpt lat="40.833543" lon="-3.563390">
        <ele>849.92</ele>
        <time>2022-06-19T09:04:38+00:00</time>
      </trkpt>
      <trkpt lat="40.833457" lon="-3.563540">
        <ele>849.44</ele>
        <time>2022-06-19T09:04:39+00:00</time>
      </trkpt>
      <trkpt lat="40.833393" lon="-3.563540">
        <ele>848.96</ele>
        <time>2022-06-19T09:04:40+00:00</time>
      </trkpt>
      <trkpt lat="40.833307" lon="-3.563519">
        <ele>848.00</ele>
        <time>2022-06-19T09:04:41+00:00</time>
      </trkpt>
      <trkpt lat="40.833221" lon="-3.563497">
        <ele>847.52</ele>
        <time>2022-06-19T09:04:42+00:00</time>
      </trkpt>
      <trkpt lat="40.833114" lon="-3.563411">
        <ele>846.56</ele>
        <time>2022-06-19T09:04:43+00:00</time>
      </trkpt>
      <trkpt lat="40.833028" lon="-3.563304">
        <ele>845.60</ele>
        <time>2022-06-19T09:04:44+00:00</time>
      </trkpt>
      <trkpt lat="40.832942" lon="-3.563197">
        <ele>844.64</ele>
        <time>2022-06-19T09:04:45+00:00</time>
      </trkpt>
      <trkpt lat="40.832685" lon="-3.562875">
        <ele>842.23</ele>
        <time>2022-06-19T09:04:48+00:00</time>
      </trkpt>
      <trkpt lat="40.832620" lon="-3.562725">
        <ele>840.79</ele>
        <time>2022-06-19T09:04:49+00:00</time>
      </trkpt>
      <trkpt lat="40.832577" lon="-3.562574">
        <ele>839.83</ele>
        <time>2022-06-19T09:04:50+00:00</time>
      </trkpt>
      <trkpt lat="40.832534" lon="-3.562381">
        <ele>838.87</ele>
        <time>2022-06-19T09:04:51+00:00</time>
      </trkpt>
      <trkpt lat="40.832513" lon="-3.562188">
        <ele>837.91</ele>
        <time>2022-06-19T09:04:52+00:00</time>
      </trkpt>
      <trkpt lat="40.832491" lon="-3.561995">
        <ele>836.47</ele>
        <time>2022-06-19T09:04:53+00:00</time>
      </trkpt>
      <trkpt lat="40.832363" lon="-3.561137">
        <ele>830.22</ele>
        <time>2022-06-19T09:04:58+00:00</time>
      </trkpt>
      <trkpt lat="40.832320" lon="-3.560987">
        <ele>828.78</ele>
        <time>2022-06-19T09:04:59+00:00</time>
      </trkpt>
      <trkpt lat="40.832255" lon="-3.560858">
        <ele>827.81</ele>
        <time>2022-06-19T09:05:00+00:00</time>
      </trkpt>
      <trkpt lat="40.832191" lon="-3.560708">
        <ele>826.37</ele>
        <time>2022-06-19T09:05:01+00:00</time>
      </trkpt>
      <trkpt lat="40.832084" lon="-3.560600">
        <ele>824.93</ele>
        <time>2022-06-19T09:05:02+00:00</time>
      </trkpt>
      <trkpt lat="40.831976" lon="-3.560514">
        <ele>823.97</ele>
        <time>2022-06-19T09:05:03+00:00</time>
      </trkpt>
      <trkpt lat="40.831869" lon="-3.560407">
        <ele>822.53</ele>
        <time>2022-06-19T09:05:04+00:00</time>
      </trkpt>
      <trkpt lat="40.831719" lon="-3.560386">
        <ele>821.09</ele>
        <time>2022-06-19T09:05:05+00:00</time>
      </trkpt>
      <trkpt lat="40.831569" lon="-3.560343">
        <ele>820.12</ele>
        <time>2022-06-19T09:05:06+00:00</time>
      </trkpt>
      <trkpt lat="40.831419" lon="-3.560321">
        <ele>819.16</ele>
        <time>2022-06-19T09:05:07+00:00</time>
      </trkpt>
      <trkpt lat="40.831032" lon="-3.560236">
        <ele>815.80</ele>
        <time>2022-06-19T09:05:10+00:00</time>
      </trkpt>
      <trkpt lat="40.830946" lon="-3.560278">
        <ele>814.84</ele>
        <time>2022-06-19T09:05:11+00:00</time>
      </trkpt>
      <trkpt lat="40.830839" lon="-3.560321">
        <ele>813.88</ele>
        <time>2022-06-19T09:05:12+00:00</time>
      </trkpt>
      <trkpt lat="40.830753" lon="-3.560407">
        <ele>813.40</ele>
        <time>2022-06-19T09:05:13+00:00</time>
      </trkpt>
      <trkpt lat="40.830710" lon="-3.560557">
        <ele>812.91</ele>
        <time>2022-06-19T09:05:14+00:00</time>
      </trkpt>
      <trkpt lat="40.830732" lon="-3.560686">
        <ele>812.43</ele>
        <time>2022-06-19T09:05:15+00:00</time>
      </trkpt>
      <trkpt lat="40.830753" lon="-3.560836">
        <ele>812.43</ele>
        <time>2022-06-19T09:05:16+00:00</time>
      </trkpt>
      <trkpt lat="40.830839" lon="-3.560987">
        <ele>812.43</ele>
        <time>2022-06-19T09:05:17+00:00</time>
      </trkpt>
      <trkpt lat="40.830946" lon="-3.561072">
        <ele>812.43</ele>
        <time>2022-06-19T09:05:18+00:00</time>
      </trkpt>
      <trkpt lat="40.831054" lon="-3.561180">
        <ele>811.95</ele>
        <time>2022-06-19T09:05:19+00:00</time>
      </trkpt>
      <trkpt lat="40.831161" lon="-3.561266">
        <ele>811.47</ele>
        <time>2022-06-19T09:05:20+00:00</time>
      </trkpt>
      <trkpt lat="40.831268" lon="-3.561394">
        <ele>810.99</ele>
        <time>2022-06-19T09:05:21+00:00</time>
      </trkpt>
      <trkpt lat="40.831311" lon="-3.561544">
        <ele>810.03</ele>
        <time>2022-06-19T09:05:22+00:00</time>
      </trkpt>
      <trkpt lat="40.831311" lon="-3.561716">
        <ele>809.55</ele>
        <time>2022-06-19T09:05:23+00:00</time>
      </trkpt>
      <trkpt lat="40.831290" lon="-3.561845">
        <ele>808.59</ele>
        <time>2022-06-19T09:05:24+00:00</time>
      </trkpt>
      <trkpt lat="40.831225" lon="-3.561995">
        <ele>807.63</ele>
        <time>2022-06-19T09:05:25+00:00</time>
      </trkpt>
      <trkpt lat="40.831140" lon="-3.562102">
        <ele>807.15</ele>
        <time>2022-06-19T09:05:26+00:00</time>
      </trkpt>
      <trkpt lat="40.831032" lon="-3.562188">
        <ele>806.19</ele>
        <time>2022-06-19T09:05:27+00:00</time>
      </trkpt>
      <trkpt lat="40.830882" lon="-3.562210">
        <ele>804.74</ele>
        <time>2022-06-19T09:05:28+00:00</time>
      </trkpt>
      <trkpt lat="40.830710" lon="-3.562188">
        <ele>803.78</ele>
        <time>2022-06-19T09:05:29+00:00</time>
      </trkpt>
      <trkpt lat="40.830539" lon="-3.562188">
        <ele>802.34</ele>
        <time>2022-06-19T09:05:30+00:00</time>
      </trkpt>
      <trkpt lat="40.830389" lon="-3.562167">
        <ele>801.38</ele>
        <time>2022-06-19T09:05:31+00:00</time>
      </trkpt>
      <trkpt lat="40.829423" lon="-3.562059">
        <ele>793.69</ele>
        <time>2022-06-19T09:05:38+00:00</time>
      </trkpt>
      <trkpt lat="40.829316" lon="-3.562059">
        <ele>792.73</ele>
        <time>2022-06-19T09:05:39+00:00</time>
      </trkpt>
      <trkpt lat="40.829208" lon="-3.562145">
        <ele>791.77</ele>
        <time>2022-06-19T09:05:40+00:00</time>
      </trkpt>
      <trkpt lat="40.829123" lon="-3.562274">
        <ele>790.80</ele>
        <time>2022-06-19T09:05:41+00:00</time>
      </trkpt>
      <trkpt lat="40.829015" lon="-3.562403">
        <ele>789.36</ele>
        <time>2022-06-19T09:05:42+00:00</time>
      </trkpt>
      <trkpt lat="40.828929" lon="-3.562532">
        <ele>788.88</ele>
        <time>2022-06-19T09:05:43+00:00</time>
      </trkpt>
      <trkpt lat="40.828221" lon="-3.563647">
        <ele>783.59</ele>
        <time>2022-06-19T09:05:52+00:00</time>
      </trkpt>
      <trkpt lat="40.828114" lon="-3.563712">
        <ele>782.63</ele>
        <time>2022-06-19T09:05:53+00:00</time>
      </trkpt>
      <trkpt lat="40.827985" lon="-3.563798">
        <ele>782.15</ele>
        <time>2022-06-19T09:05:54+00:00</time>
      </trkpt>
      <trkpt lat="40.827857" lon="-3.563840">
        <ele>781.19</ele>
        <time>2022-06-19T09:05:55+00:00</time>
      </trkpt>
      <trkpt lat="40.827728" lon="-3.563840">
        <ele>780.71</ele>
        <time>2022-06-19T09:05:56+00:00</time>
      </trkpt>
      <trkpt lat="40.827599" lon="-3.563798">
        <ele>779.75</ele>
        <time>2022-06-19T09:05:57+00:00</time>
      </trkpt>
      <trkpt lat="40.827449" lon="-3.563755">
        <ele>778.79</ele>
        <time>2022-06-19T09:05:58+00:00</time>
      </trkpt>
      <trkpt lat="40.827320" lon="-3.563690">
        <ele>777.83</ele>
        <time>2022-06-19T09:05:59+00:00</time>
      </trkpt>
      <trkpt lat="40.827191" lon="-3.563604">
        <ele>776.87</ele>
        <time>2022-06-19T09:06:00+00:00</time>
      </trkpt>
      <trkpt lat="40.825840" lon="-3.562660">
        <ele>765.33</ele>
        <time>2022-06-19T09:06:11+00:00</time>
      </trkpt>
      <trkpt lat="40.825732" lon="-3.562660">
        <ele>764.37</ele>
        <time>2022-06-19T09:06:12+00:00</time>
      </trkpt>
      <trkpt lat="40.825625" lon="-3.562660">
        <ele>763.41</ele>
        <time>2022-06-19T09:06:13+00:00</time>
      </trkpt>
      <trkpt lat="40.825518" lon="-3.562660">
        <ele>762.45</ele>
        <time>2022-06-19T09:06:14+00:00</time>
      </trkpt>
      <trkpt lat="40.825410" lon="-3.562660">
        <ele>761.97</ele>
        <time>2022-06-19T09:06:15+00:00</time>
      </trkpt>
      <trkpt lat="40.825303" lon="-3.562746">
        <ele>761.00</ele>
        <time>2022-06-19T09:06:16+00:00</time>
      </trkpt>
      <trkpt lat="40.825174" lon="-3.562810">
        <ele>760.04</ele>
        <time>2022-06-19T09:06:17+00:00</time>
      </trkpt>
      <trkpt lat="40.825046" lon="-3.562896">
        <ele>759.08</ele>
        <time>2022-06-19T09:06:18+00:00</time>
      </trkpt>
      <trkpt lat="40.824659" lon="-3.563132">
        <ele>756.20</ele>
        <time>2022-06-19T09:06:21+00:00</time>
      </trkpt>
      <trkpt lat="40.824531" lon="-3.563175">
        <ele>755.24</ele>
        <time>2022-06-19T09:06:22+00:00</time>
      </trkpt>
      <trkpt lat="40.824402" lon="-3.563218">
        <ele>754.27</ele>
        <time>2022-06-19T09:06:23+00:00</time>
      </trkpt>
      <trkpt lat="40.824273" lon="-3.563175">
        <ele>753.31</ele>
        <time>2022-06-19T09:06:24+00:00</time>
      </trkpt>
      <trkpt lat="40.824144" lon="-3.563089">
        <ele>751.87</ele>
        <time>2022-06-19T09:06:25+00:00</time>
      </trkpt>
      <trkpt lat="40.824037" lon="-3.562982">
        <ele>750.91</ele>
        <time>2022-06-19T09:06:26+00:00</time>
      </trkpt>
      <trkpt lat="40.823951" lon="-3.562810">
        <ele>749.47</ele>
        <time>2022-06-19T09:06:27+00:00</time>
      </trkpt>
      <trkpt lat="40.823844" lon="-3.562639">
        <ele>748.51</ele>
        <time>2022-06-19T09:06:28+00:00</time>
      </trkpt>
      <trkpt lat="40.823780" lon="-3.562467">
        <ele>747.55</ele>
        <time>2022-06-19T09:06:29+00:00</time>
      </trkpt>
      <trkpt lat="40.823286" lon="-3.561544">
        <ele>740.34</ele>
        <time>2022-06-19T09:06:35+00:00</time>
      </trkpt>
      <trkpt lat="40.823179" lon="-3.561437">
        <ele>738.89</ele>
        <time>2022-06-19T09:06:36+00:00</time>
      </trkpt>
      <trkpt lat="40.823050" lon="-3.561308">
        <ele>737.93</ele>
        <time>2022-06-19T09:06:37+00:00</time>
      </trkpt>
      <trkpt lat="40.822020" lon="-3.560686">
        <ele>727.84</ele>
        <time>2022-06-19T09:06:46+00:00</time>
      </trkpt>
      <trkpt lat="40.821913" lon="-3.560665">
        <ele>726.88</ele>
        <time>2022-06-19T09:06:47+00:00</time>
      </trkpt>
      <trkpt lat="40.821805" lon="-3.560686">
        <ele>725.92</ele>
        <time>2022-06-19T09:06:48+00:00</time>
      </trkpt>
      <trkpt lat="40.821720" lon="-3.560708">
        <ele>725.44</ele>
        <time>2022-06-19T09:06:49+00:00</time>
      </trkpt>
      <trkpt lat="40.821612" lon="-3.560751">
        <ele>724.47</ele>
        <time>2022-06-19T09:06:50+00:00</time>
      </trkpt>
      <trkpt lat="40.821527" lon="-3.560793">
        <ele>723.51</ele>
        <time>2022-06-19T09:06:51+00:00</time>
      </trkpt>
      <trkpt lat="40.821441" lon="-3.560858">
        <ele>723.03</ele>
        <time>2022-06-19T09:06:52+00:00</time>
      </trkpt>
      <trkpt lat="40.821355" lon="-3.560965">
        <ele>722.07</ele>
        <time>2022-06-19T09:06:53+00:00</time>
      </trkpt>
      <trkpt lat="40.821269" lon="-3.561029">
        <ele>720.63</ele>
        <time>2022-06-19T09:06:54+00:00</time>
      </trkpt>
      <trkpt lat="40.821226" lon="-3.561137">
        <ele>719.67</ele>
        <time>2022-06-19T09:06:55+00:00</time>
      </trkpt>
      <trkpt lat="40.821162" lon="-3.561266">
        <ele>718.71</ele>
        <time>2022-06-19T09:06:56+00:00</time>
      </trkpt>
      <trkpt lat="40.820840" lon="-3.561974">
        <ele>715.82</ele>
        <time>2022-06-19T09:07:04+00:00</time>
      </trkpt>
      <trkpt lat="40.820840" lon="-3.562081">
        <ele>715.82</ele>
        <time>2022-06-19T09:07:05+00:00</time>
      </trkpt>
      <trkpt lat="40.820818" lon="-3.562961">
        <ele>715.82</ele>
        <time>2022-06-19T09:07:11+00:00</time>
      </trkpt>
      <trkpt lat="40.820818" lon="-3.563154">
        <ele>715.82</ele>
        <time>2022-06-19T09:07:12+00:00</time>
      </trkpt>
      <trkpt lat="40.820840" lon="-3.563347">
        <ele>716.30</ele>
        <time>2022-06-19T09:07:13+00:00</time>
      </trkpt>
      <trkpt lat="40.821140" lon="-3.564656">
        <ele>717.74</ele>
        <time>2022-06-19T09:07:19+00:00</time>
      </trkpt>
      <trkpt lat="40.821226" lon="-3.564827">
        <ele>717.74</ele>
        <time>2022-06-19T09:07:20+00:00</time>
      </trkpt>
      <trkpt lat="40.821333" lon="-3.564999">
        <ele>718.23</ele>
        <time>2022-06-19T09:07:21+00:00</time>
      </trkpt>
      <trkpt lat="40.821462" lon="-3.565149">
        <ele>718.23</ele>
        <time>2022-06-19T09:07:22+00:00</time>
      </trkpt>
      <trkpt lat="40.821612" lon="-3.565321">
        <ele>718.71</ele>
        <time>2022-06-19T09:07:23+00:00</time>
      </trkpt>
      <trkpt lat="40.822106" lon="-3.565815">
        <ele>720.63</ele>
        <time>2022-06-19T09:07:26+00:00</time>
      </trkpt>
      <trkpt lat="40.822299" lon="-3.565986">
        <ele>721.11</ele>
        <time>2022-06-19T09:07:27+00:00</time>
      </trkpt>
      <trkpt lat="40.822921" lon="-3.566501">
        <ele>725.44</ele>
        <time>2022-06-19T09:07:31+00:00</time>
      </trkpt>
      <trkpt lat="40.822964" lon="-3.566673">
        <ele>726.40</ele>
        <time>2022-06-19T09:07:32+00:00</time>
      </trkpt>
      <trkpt lat="40.823029" lon="-3.566866">
        <ele>726.88</ele>
        <time>2022-06-19T09:07:33+00:00</time>
      </trkpt>
      <trkpt lat="40.823114" lon="-3.567059">
        <ele>727.36</ele>
        <time>2022-06-19T09:07:34+00:00</time>
      </trkpt>
      <trkpt lat="40.823200" lon="-3.567317">
        <ele>727.36</ele>
        <time>2022-06-19T09:07:35+00:00</time>
      </trkpt>
      <trkpt lat="40.823286" lon="-3.567574">
        <ele>727.36</ele>
        <time>2022-06-19T09:07:36+00:00</time>
      </trkpt>
      <trkpt lat="40.823436" lon="-3.567810">
        <ele>726.88</ele>
        <time>2022-06-19T09:07:37+00:00</time>
      </trkpt>
      <trkpt lat="40.823565" lon="-3.568046">
        <ele>726.40</ele>
        <time>2022-06-19T09:07:38+00:00</time>
      </trkpt>
      <trkpt lat="40.823715" lon="-3.568261">
        <ele>726.40</ele>
        <time>2022-06-19T09:07:39+00:00</time>
      </trkpt>
      <trkpt lat="40.823951" lon="-3.568668">
        <ele>725.92</ele>
        <time>2022-06-19T09:07:41+00:00</time>
      </trkpt>
      <trkpt lat="40.824101" lon="-3.568819">
        <ele>726.40</ele>
        <time>2022-06-19T09:07:42+00:00</time>
      </trkpt>
      <trkpt lat="40.824252" lon="-3.568969">
        <ele>725.92</ele>
        <time>2022-06-19T09:07:43+00:00</time>
      </trkpt>
      <trkpt lat="40.824745" lon="-3.569398">
        <ele>725.92</ele>
        <time>2022-06-19T09:07:46+00:00</time>
      </trkpt>
      <trkpt lat="40.824917" lon="-3.569505">
        <ele>725.92</ele>
        <time>2022-06-19T09:07:47+00:00</time>
      </trkpt>
      <trkpt lat="40.825089" lon="-3.569613">
        <ele>725.92</ele>
        <time>2022-06-19T09:07:48+00:00</time>
      </trkpt>
      <trkpt lat="40.825239" lon="-3.569741">
        <ele>725.92</ele>
        <time>2022-06-19T09:07:49+00:00</time>
      </trkpt>
      <trkpt lat="40.825367" lon="-3.569913">
        <ele>725.92</ele>
        <time>2022-06-19T09:07:50+00:00</time>
      </trkpt>
      <trkpt lat="40.825496" lon="-3.570106">
        <ele>725.92</ele>
        <time>2022-06-19T09:07:51+00:00</time>
      </trkpt>
      <trkpt lat="40.825625" lon="-3.570342">
        <ele>726.40</ele>
        <time>2022-06-19T09:07:52+00:00</time>
      </trkpt>
      <trkpt lat="40.825968" lon="-3.570921">
        <ele>726.88</ele>
        <time>2022-06-19T09:07:55+00:00</time>
      </trkpt>
      <trkpt lat="40.826118" lon="-3.571093">
        <ele>726.88</ele>
        <time>2022-06-19T09:07:56+00:00</time>
      </trkpt>
      <trkpt lat="40.826290" lon="-3.571179">
        <ele>726.88</ele>
        <time>2022-06-19T09:07:57+00:00</time>
      </trkpt>
      <trkpt lat="40.826462" lon="-3.571265">
        <ele>727.36</ele>
        <time>2022-06-19T09:07:58+00:00</time>
      </trkpt>
      <trkpt lat="40.826676" lon="-3.571351">
        <ele>727.36</ele>
        <time>2022-06-19T09:07:59+00:00</time>
      </trkpt>
      <trkpt lat="40.826869" lon="-3.571458">
        <ele>727.84</ele>
        <time>2022-06-19T09:08:00+00:00</time>
      </trkpt>
      <trkpt lat="40.828157" lon="-3.571994">
        <ele>729.76</ele>
        <time>2022-06-19T09:08:06+00:00</time>
      </trkpt>
      <trkpt lat="40.828286" lon="-3.572080">
        <ele>729.76</ele>
        <time>2022-06-19T09:08:07+00:00</time>
      </trkpt>
      <trkpt lat="40.828393" lon="-3.572187">
        <ele>730.24</ele>
        <time>2022-06-19T09:08:08+00:00</time>
      </trkpt>
      <trkpt lat="40.828479" lon="-3.572359">
        <ele>730.72</ele>
        <time>2022-06-19T09:08:09+00:00</time>
      </trkpt>
      <trkpt lat="40.828543" lon="-3.572531">
        <ele>731.20</ele>
        <time>2022-06-19T09:08:10+00:00</time>
      </trkpt>
      <trkpt lat="40.828608" lon="-3.572767">
        <ele>731.68</ele>
        <time>2022-06-19T09:08:11+00:00</time>
      </trkpt>
      <trkpt lat="40.828736" lon="-3.573175">
        <ele>732.16</ele>
        <time>2022-06-19T09:08:13+00:00</time>
      </trkpt>
      <trkpt lat="40.828844" lon="-3.573346">
        <ele>732.65</ele>
        <time>2022-06-19T09:08:14+00:00</time>
      </trkpt>
      <trkpt lat="40.828951" lon="-3.573432">
        <ele>733.13</ele>
        <time>2022-06-19T09:08:15+00:00</time>
      </trkpt>
      <trkpt lat="40.829101" lon="-3.573539">
        <ele>733.61</ele>
        <time>2022-06-19T09:08:16+00:00</time>
      </trkpt>
      <trkpt lat="40.829230" lon="-3.573647">
        <ele>734.09</ele>
        <time>2022-06-19T09:08:17+00:00</time>
      </trkpt>
      <trkpt lat="40.829380" lon="-3.573797">
        <ele>734.57</ele>
        <time>2022-06-19T09:08:18+00:00</time>
      </trkpt>
      <trkpt lat="40.829530" lon="-3.573990">
        <ele>735.05</ele>
        <time>2022-06-19T09:08:19+00:00</time>
      </trkpt>
      <trkpt lat="40.829852" lon="-3.574312">
        <ele>736.01</ele>
        <time>2022-06-19T09:08:21+00:00</time>
      </trkpt>
      <trkpt lat="40.830002" lon="-3.574441">
        <ele>736.49</ele>
        <time>2022-06-19T09:08:22+00:00</time>
      </trkpt>
      <trkpt lat="40.830131" lon="-3.574548">
        <ele>736.97</ele>
        <time>2022-06-19T09:08:23+00:00</time>
      </trkpt>
      <trkpt lat="40.830260" lon="-3.574677">
        <ele>736.97</ele>
        <time>2022-06-19T09:08:24+00:00</time>
      </trkpt>
      <trkpt lat="40.830346" lon="-3.574870">
        <ele>736.97</ele>
        <time>2022-06-19T09:08:25+00:00</time>
      </trkpt>
      <trkpt lat="40.830453" lon="-3.575106">
        <ele>736.97</ele>
        <time>2022-06-19T09:08:26+00:00</time>
      </trkpt>
      <trkpt lat="40.830539" lon="-3.575342">
        <ele>736.97</ele>
        <time>2022-06-19T09:08:27+00:00</time>
      </trkpt>
      <trkpt lat="40.830753" lon="-3.575792">
        <ele>736.97</ele>
        <time>2022-06-19T09:08:29+00:00</time>
      </trkpt>
      <trkpt lat="40.830882" lon="-3.576007">
        <ele>737.45</ele>
        <time>2022-06-19T09:08:30+00:00</time>
      </trkpt>
      <trkpt lat="40.831290" lon="-3.576629">
        <ele>737.93</ele>
        <time>2022-06-19T09:08:33+00:00</time>
      </trkpt>
      <trkpt lat="40.831440" lon="-3.576801">
        <ele>738.41</ele>
        <time>2022-06-19T09:08:34+00:00</time>
      </trkpt>
      <trkpt lat="40.831740" lon="-3.577080">
        <ele>738.89</ele>
        <time>2022-06-19T09:08:36+00:00</time>
      </trkpt>
      <trkpt lat="40.831891" lon="-3.577187">
        <ele>739.37</ele>
        <time>2022-06-19T09:08:37+00:00</time>
      </trkpt>
      <trkpt lat="40.832212" lon="-3.577359">
        <ele>739.85</ele>
        <time>2022-06-19T09:08:39+00:00</time>
      </trkpt>
      <trkpt lat="40.832363" lon="-3.577509">
        <ele>739.85</ele>
        <time>2022-06-19T09:08:40+00:00</time>
      </trkpt>
      <trkpt lat="40.832513" lon="-3.577702">
        <ele>739.85</ele>
        <time>2022-06-19T09:08:41+00:00</time>
      </trkpt>
      <trkpt lat="40.832663" lon="-3.577895">
        <ele>740.34</ele>
        <time>2022-06-19T09:08:42+00:00</time>
      </trkpt>
      <trkpt lat="40.832813" lon="-3.578067">
        <ele>740.34</ele>
        <time>2022-06-19T09:08:43+00:00</time>
      </trkpt>
      <trkpt lat="40.833071" lon="-3.578389">
        <ele>741.30</ele>
        <time>2022-06-19T09:08:45+00:00</time>
      </trkpt>
      <trkpt lat="40.833221" lon="-3.578475">
        <ele>741.78</ele>
        <time>2022-06-19T09:08:46+00:00</time>
      </trkpt>
      <trkpt lat="40.833393" lon="-3.578560">
        <ele>742.26</ele>
        <time>2022-06-19T09:08:47+00:00</time>
      </trkpt>
      <trkpt lat="40.833672" lon="-3.578711">
        <ele>742.74</ele>
        <time>2022-06-19T09:08:49+00:00</time>
      </trkpt>
      <trkpt lat="40.833757" lon="-3.578818">
        <ele>743.22</ele>
        <time>2022-06-19T09:08:50+00:00</time>
      </trkpt>
      <trkpt lat="40.833865" lon="-3.578947">
        <ele>743.70</ele>
        <time>2022-06-19T09:08:51+00:00</time>
      </trkpt>
      <trkpt lat="40.833972" lon="-3.579097">
        <ele>743.70</ele>
        <time>2022-06-19T09:08:52+00:00</time>
      </trkpt>
      <trkpt lat="40.834058" lon="-3.579268">
        <ele>743.70</ele>
        <time>2022-06-19T09:08:53+00:00</time>
      </trkpt>
      <trkpt lat="40.834165" lon="-3.579483">
        <ele>743.70</ele>
        <time>2022-06-19T09:08:54+00:00</time>
      </trkpt>
      <trkpt lat="40.834573" lon="-3.580341">
        <ele>745.62</ele>
        <time>2022-06-19T09:08:59+00:00</time>
      </trkpt>
      <trkpt lat="40.834680" lon="-3.580427">
        <ele>746.10</ele>
        <time>2022-06-19T09:09:00+00:00</time>
      </trkpt>
      <trkpt lat="40.834787" lon="-3.580492">
        <ele>746.58</ele>
        <time>2022-06-19T09:09:01+00:00</time>
      </trkpt>
      <trkpt lat="40.834938" lon="-3.580577">
        <ele>747.06</ele>
        <time>2022-06-19T09:09:02+00:00</time>
      </trkpt>
      <trkpt lat="40.835109" lon="-3.580620">
        <ele>748.03</ele>
        <time>2022-06-19T09:09:03+00:00</time>
      </trkpt>
      <trkpt lat="40.836204" lon="-3.581028">
        <ele>753.79</ele>
        <time>2022-06-19T09:09:09+00:00</time>
      </trkpt>
      <trkpt lat="40.836354" lon="-3.581135">
        <ele>754.27</ele>
        <time>2022-06-19T09:09:10+00:00</time>
      </trkpt>
      <trkpt lat="40.836504" lon="-3.581307">
        <ele>755.24</ele>
        <time>2022-06-19T09:09:11+00:00</time>
      </trkpt>
      <trkpt lat="40.836654" lon="-3.581457">
        <ele>756.20</ele>
        <time>2022-06-19T09:09:12+00:00</time>
      </trkpt>
      <trkpt lat="40.836783" lon="-3.581586">
        <ele>756.68</ele>
        <time>2022-06-19T09:09:13+00:00</time>
      </trkpt>
      <trkpt lat="40.836890" lon="-3.581715">
        <ele>757.64</ele>
        <time>2022-06-19T09:09:14+00:00</time>
      </trkpt>
      <trkpt lat="40.837019" lon="-3.581779">
        <ele>758.12</ele>
        <time>2022-06-19T09:09:15+00:00</time>
      </trkpt>
      <trkpt lat="40.837169" lon="-3.581801">
        <ele>759.08</ele>
        <time>2022-06-19T09:09:16+00:00</time>
      </trkpt>
      <trkpt lat="40.837298" lon="-3.581822">
        <ele>759.56</ele>
        <time>2022-06-19T09:09:17+00:00</time>
      </trkpt>
      <trkpt lat="40.837427" lon="-3.581886">
        <ele>760.04</ele>
        <time>2022-06-19T09:09:18+00:00</time>
      </trkpt>
      <trkpt lat="40.837555" lon="-3.581972">
        <ele>760.52</ele>
        <time>2022-06-19T09:09:19+00:00</time>
      </trkpt>
      <trkpt lat="40.837663" lon="-3.582101">
        <ele>761.00</ele>
        <time>2022-06-19T09:09:20+00:00</time>
      </trkpt>
      <trkpt lat="40.837899" lon="-3.582337">
        <ele>761.97</ele>
        <time>2022-06-19T09:09:22+00:00</time>
      </trkpt>
      <trkpt lat="40.838027" lon="-3.582358">
        <ele>762.45</ele>
        <time>2022-06-19T09:09:23+00:00</time>
      </trkpt>
      <trkpt lat="40.838156" lon="-3.582315">
        <ele>762.45</ele>
        <time>2022-06-19T09:09:24+00:00</time>
      </trkpt>
      <trkpt lat="40.838264" lon="-3.582187">
        <ele>763.41</ele>
        <time>2022-06-19T09:09:25+00:00</time>
      </trkpt>
      <trkpt lat="40.838371" lon="-3.582037">
        <ele>764.37</ele>
        <time>2022-06-19T09:09:26+00:00</time>
      </trkpt>
      <trkpt lat="40.838478" lon="-3.581865">
        <ele>765.33</ele>
        <time>2022-06-19T09:09:27+00:00</time>
      </trkpt>
      <trkpt lat="40.838671" lon="-3.581457">
        <ele>768.69</ele>
        <time>2022-06-19T09:09:29+00:00</time>
      </trkpt>
      <trkpt lat="40.838736" lon="-3.581221">
        <ele>770.62</ele>
        <time>2022-06-19T09:09:30+00:00</time>
      </trkpt>
      <trkpt lat="40.838950" lon="-3.580449">
        <ele>778.79</ele>
        <time>2022-06-19T09:09:34+00:00</time>
      </trkpt>
      <trkpt lat="40.839057" lon="-3.580363">
        <ele>780.71</ele>
        <time>2022-06-19T09:09:35+00:00</time>
      </trkpt>
      <trkpt lat="40.839186" lon="-3.580298">
        <ele>782.63</ele>
        <time>2022-06-19T09:09:36+00:00</time>
      </trkpt>
      <trkpt lat="40.839594" lon="-3.580170">
        <ele>787.92</ele>
        <time>2022-06-19T09:09:39+00:00</time>
      </trkpt>
      <trkpt lat="40.839701" lon="-3.580191">
        <ele>789.36</ele>
        <time>2022-06-19T09:09:40+00:00</time>
      </trkpt>
      <trkpt lat="40.839744" lon="-3.580213">
        <ele>790.80</ele>
        <time>2022-06-19T09:09:41+00:00</time>
      </trkpt>
      <trkpt lat="40.839808" lon="-3.580320">
        <ele>792.25</ele>
        <time>2022-06-19T09:09:42+00:00</time>
      </trkpt>
      <trkpt lat="40.839808" lon="-3.580427">
        <ele>793.69</ele>
        <time>2022-06-19T09:09:43+00:00</time>
      </trkpt>
      <trkpt lat="40.839766" lon="-3.580577">
        <ele>795.13</ele>
        <time>2022-06-19T09:09:44+00:00</time>
      </trkpt>
      <trkpt lat="40.839701" lon="-3.580771">
        <ele>797.05</ele>
        <time>2022-06-19T09:09:45+00:00</time>
      </trkpt>
      <trkpt lat="40.839637" lon="-3.580985">
        <ele>798.98</ele>
        <time>2022-06-19T09:09:46+00:00</time>
      </trkpt>
      <trkpt lat="40.839615" lon="-3.581221">
        <ele>800.42</ele>
        <time>2022-06-19T09:09:47+00:00</time>
      </trkpt>
      <trkpt lat="40.839508" lon="-3.581972">
        <ele>805.22</ele>
        <time>2022-06-19T09:09:50+00:00</time>
      </trkpt>
      <trkpt lat="40.839551" lon="-3.582251">
        <ele>806.67</ele>
        <time>2022-06-19T09:09:51+00:00</time>
      </trkpt>
      <trkpt lat="40.839572" lon="-3.582552">
        <ele>808.11</ele>
        <time>2022-06-19T09:09:52+00:00</time>
      </trkpt>
      <trkpt lat="40.839594" lon="-3.582830">
        <ele>809.55</ele>
        <time>2022-06-19T09:09:53+00:00</time>
      </trkpt>
      <trkpt lat="40.839658" lon="-3.583131">
        <ele>811.47</ele>
        <time>2022-06-19T09:09:54+00:00</time>
      </trkpt>
      <trkpt lat="40.839744" lon="-3.583431">
        <ele>813.40</ele>
        <time>2022-06-19T09:09:55+00:00</time>
      </trkpt>
      <trkpt lat="40.840066" lon="-3.584569">
        <ele>823.49</ele>
        <time>2022-06-19T09:10:00+00:00</time>
      </trkpt>
      <trkpt lat="40.840152" lon="-3.584676">
        <ele>825.41</ele>
        <time>2022-06-19T09:10:01+00:00</time>
      </trkpt>
      <trkpt lat="40.840259" lon="-3.584697">
        <ele>827.33</ele>
        <time>2022-06-19T09:10:02+00:00</time>
      </trkpt>
      <trkpt lat="40.840366" lon="-3.584697">
        <ele>829.26</ele>
        <time>2022-06-19T09:10:03+00:00</time>
      </trkpt>
      <trkpt lat="40.840495" lon="-3.584611">
        <ele>831.66</ele>
        <time>2022-06-19T09:10:04+00:00</time>
      </trkpt>
      <trkpt lat="40.840624" lon="-3.584483">
        <ele>834.54</ele>
        <time>2022-06-19T09:10:05+00:00</time>
      </trkpt>
      <trkpt lat="40.840774" lon="-3.584311">
        <ele>836.95</ele>
        <time>2022-06-19T09:10:06+00:00</time>
      </trkpt>
      <trkpt lat="40.840924" lon="-3.584139">
        <ele>839.35</ele>
        <time>2022-06-19T09:10:07+00:00</time>
      </trkpt>
      <trkpt lat="40.841096" lon="-3.583968">
        <ele>841.75</ele>
        <time>2022-06-19T09:10:08+00:00</time>
      </trkpt>
      <trkpt lat="40.841740" lon="-3.583560">
        <ele>850.89</ele>
        <time>2022-06-19T09:10:12+00:00</time>
      </trkpt>
      <trkpt lat="40.841847" lon="-3.583560">
        <ele>852.33</ele>
        <time>2022-06-19T09:10:13+00:00</time>
      </trkpt>
      <trkpt lat="40.841954" lon="-3.583603">
        <ele>854.25</ele>
        <time>2022-06-19T09:10:14+00:00</time>
      </trkpt>
      <trkpt lat="40.842040" lon="-3.583710">
        <ele>855.69</ele>
        <time>2022-06-19T09:10:15+00:00</time>
      </trkpt>
      <trkpt lat="40.842104" lon="-3.583860">
        <ele>856.65</ele>
        <time>2022-06-19T09:10:16+00:00</time>
      </trkpt>
      <trkpt lat="40.842126" lon="-3.584075">
        <ele>858.58</ele>
        <time>2022-06-19T09:10:17+00:00</time>
      </trkpt>
      <trkpt lat="40.842104" lon="-3.584290">
        <ele>860.02</ele>
        <time>2022-06-19T09:10:18+00:00</time>
      </trkpt>
      <trkpt lat="40.842104" lon="-3.584547">
        <ele>861.94</ele>
        <time>2022-06-19T09:10:19+00:00</time>
      </trkpt>
      <trkpt lat="40.842126" lon="-3.585041">
        <ele>865.31</ele>
        <time>2022-06-19T09:10:21+00:00</time>
      </trkpt>
      <trkpt lat="40.842104" lon="-3.585298">
        <ele>866.75</ele>
        <time>2022-06-19T09:10:22+00:00</time>
      </trkpt>
      <trkpt lat="40.842083" lon="-3.585577">
        <ele>868.19</ele>
        <time>2022-06-19T09:10:23+00:00</time>
      </trkpt>
      <trkpt lat="40.842019" lon="-3.586049">
        <ele>870.59</ele>
        <time>2022-06-19T09:10:25+00:00</time>
      </trkpt>
      <trkpt lat="40.841933" lon="-3.586264">
        <ele>871.55</ele>
        <time>2022-06-19T09:10:26+00:00</time>
      </trkpt>
      <trkpt lat="40.841847" lon="-3.586457">
        <ele>872.52</ele>
        <time>2022-06-19T09:10:27+00:00</time>
      </trkpt>
      <trkpt lat="40.841697" lon="-3.586757">
        <ele>873.96</ele>
        <time>2022-06-19T09:10:29+00:00</time>
      </trkpt>
      <trkpt lat="40.841675" lon="-3.586950">
        <ele>874.44</ele>
        <time>2022-06-19T09:10:30+00:00</time>
      </trkpt>
      <trkpt lat="40.841697" lon="-3.587143">
        <ele>875.40</ele>
        <time>2022-06-19T09:10:31+00:00</time>
      </trkpt>
      <trkpt lat="40.841718" lon="-3.587379">
        <ele>875.88</ele>
        <time>2022-06-19T09:10:32+00:00</time>
      </trkpt>
      <trkpt lat="40.841740" lon="-3.587573">
        <ele>876.84</ele>
        <time>2022-06-19T09:10:33+00:00</time>
      </trkpt>
      <trkpt lat="40.841804" lon="-3.587723">
        <ele>877.32</ele>
        <time>2022-06-19T09:10:34+00:00</time>
      </trkpt>
      <trkpt lat="40.841868" lon="-3.587809">
        <ele>878.28</ele>
        <time>2022-06-19T09:10:35+00:00</time>
      </trkpt>
      <trkpt lat="40.841997" lon="-3.587873">
        <ele>879.73</ele>
        <time>2022-06-19T09:10:36+00:00</time>
      </trkpt>
      <trkpt lat="40.842126" lon="-3.587873">
        <ele>880.69</ele>
        <time>2022-06-19T09:10:37+00:00</time>
      </trkpt>
      <trkpt lat="40.842276" lon="-3.587873">
        <ele>881.65</ele>
        <time>2022-06-19T09:10:38+00:00</time>
      </trkpt>
      <trkpt lat="40.842426" lon="-3.587873">
        <ele>882.61</ele>
        <time>2022-06-19T09:10:39+00:00</time>
      </trkpt>
      <trkpt lat="40.842555" lon="-3.587937">
        <ele>883.09</ele>
        <time>2022-06-19T09:10:40+00:00</time>
      </trkpt>
      <trkpt lat="40.842662" lon="-3.588045">
        <ele>884.05</ele>
        <time>2022-06-19T09:10:41+00:00</time>
      </trkpt>
      <trkpt lat="40.842770" lon="-3.588216">
        <ele>885.01</ele>
        <time>2022-06-19T09:10:42+00:00</time>
      </trkpt>
      <trkpt lat="40.842898" lon="-3.588409">
        <ele>885.97</ele>
        <time>2022-06-19T09:10:43+00:00</time>
      </trkpt>
      <trkpt lat="40.844014" lon="-3.590298">
        <ele>898.95</ele>
        <time>2022-06-19T09:10:51+00:00</time>
      </trkpt>
      <trkpt lat="40.844465" lon="-3.590984">
        <ele>908.56</ele>
        <time>2022-06-19T09:10:55+00:00</time>
      </trkpt>
      <trkpt lat="40.844551" lon="-3.591027">
        <ele>910.97</ele>
        <time>2022-06-19T09:10:56+00:00</time>
      </trkpt>
      <trkpt lat="40.844615" lon="-3.591027">
        <ele>913.85</ele>
        <time>2022-06-19T09:10:57+00:00</time>
      </trkpt>
      <trkpt lat="40.844701" lon="-3.590984">
        <ele>916.74</ele>
        <time>2022-06-19T09:10:58+00:00</time>
      </trkpt>
      <trkpt lat="40.844808" lon="-3.590834">
        <ele>919.14</ele>
        <time>2022-06-19T09:10:59+00:00</time>
      </trkpt>
      <trkpt lat="40.844915" lon="-3.590684">
        <ele>922.02</ele>
        <time>2022-06-19T09:11:00+00:00</time>
      </trkpt>
      <trkpt lat="40.845151" lon="-3.590405">
        <ele>928.75</ele>
        <time>2022-06-19T09:11:03+00:00</time>
      </trkpt>
      <trkpt lat="40.845237" lon="-3.590362">
        <ele>930.19</ele>
        <time>2022-06-19T09:11:04+00:00</time>
      </trkpt>
      <trkpt lat="40.845280" lon="-3.590405">
        <ele>931.64</ele>
        <time>2022-06-19T09:11:05+00:00</time>
      </trkpt>
      <trkpt lat="40.845302" lon="-3.590512">
        <ele>933.08</ele>
        <time>2022-06-19T09:11:06+00:00</time>
      </trkpt>
      <trkpt lat="40.845302" lon="-3.590684">
        <ele>934.04</ele>
        <time>2022-06-19T09:11:07+00:00</time>
      </trkpt>
      <trkpt lat="40.845280" lon="-3.590856">
        <ele>935.48</ele>
        <time>2022-06-19T09:11:08+00:00</time>
      </trkpt>
      <trkpt lat="40.845237" lon="-3.591049">
        <ele>937.40</ele>
        <time>2022-06-19T09:11:09+00:00</time>
      </trkpt>
      <trkpt lat="40.845151" lon="-3.591220">
        <ele>938.85</ele>
        <time>2022-06-19T09:11:10+00:00</time>
      </trkpt>
      <trkpt lat="40.845087" lon="-3.591435">
        <ele>940.77</ele>
        <time>2022-06-19T09:11:11+00:00</time>
      </trkpt>
      <trkpt lat="40.845001" lon="-3.591671">
        <ele>942.21</ele>
        <time>2022-06-19T09:11:12+00:00</time>
      </trkpt>
      <trkpt lat="40.844958" lon="-3.591907">
        <ele>943.65</ele>
        <time>2022-06-19T09:11:13+00:00</time>
      </trkpt>
      <trkpt lat="40.844915" lon="-3.592165">
        <ele>945.09</ele>
        <time>2022-06-19T09:11:14+00:00</time>
      </trkpt>
      <trkpt lat="40.844894" lon="-3.592422">
        <ele>946.54</ele>
        <time>2022-06-19T09:11:15+00:00</time>
      </trkpt>
      <trkpt lat="40.844894" lon="-3.592658">
        <ele>947.98</ele>
        <time>2022-06-19T09:11:16+00:00</time>
      </trkpt>
      <trkpt lat="40.844937" lon="-3.592937">
        <ele>948.94</ele>
        <time>2022-06-19T09:11:17+00:00</time>
      </trkpt>
      <trkpt lat="40.845001" lon="-3.593173">
        <ele>950.38</ele>
        <time>2022-06-19T09:11:18+00:00</time>
      </trkpt>
      <trkpt lat="40.845066" lon="-3.593388">
        <ele>950.86</ele>
        <time>2022-06-19T09:11:19+00:00</time>
      </trkpt>
      <trkpt lat="40.845151" lon="-3.593795">
        <ele>953.27</ele>
        <time>2022-06-19T09:11:21+00:00</time>
      </trkpt>
      <trkpt lat="40.845109" lon="-3.593988">
        <ele>954.23</ele>
        <time>2022-06-19T09:11:22+00:00</time>
      </trkpt>
      <trkpt lat="40.845066" lon="-3.594203">
        <ele>955.67</ele>
        <time>2022-06-19T09:11:23+00:00</time>
      </trkpt>
      <trkpt lat="40.844980" lon="-3.594418">
        <ele>957.11</ele>
        <time>2022-06-19T09:11:24+00:00</time>
      </trkpt>
      <trkpt lat="40.844872" lon="-3.594654">
        <ele>958.55</ele>
        <time>2022-06-19T09:11:25+00:00</time>
      </trkpt>
      <trkpt lat="40.844765" lon="-3.594890">
        <ele>959.51</ele>
        <time>2022-06-19T09:11:26+00:00</time>
      </trkpt>
      <trkpt lat="40.844679" lon="-3.595147">
        <ele>960.96</ele>
        <time>2022-06-19T09:11:27+00:00</time>
      </trkpt>
      <trkpt lat="40.844636" lon="-3.595426">
        <ele>961.92</ele>
        <time>2022-06-19T09:11:28+00:00</time>
      </trkpt>
      <trkpt lat="40.844615" lon="-3.595727">
        <ele>963.36</ele>
        <time>2022-06-19T09:11:29+00:00</time>
      </trkpt>
      <trkpt lat="40.844615" lon="-3.596005">
        <ele>964.80</ele>
        <time>2022-06-19T09:11:30+00:00</time>
      </trkpt>
      <trkpt lat="40.844679" lon="-3.597615">
        <ele>972.49</ele>
        <time>2022-06-19T09:11:35+00:00</time>
      </trkpt>
      <trkpt lat="40.844787" lon="-3.598516">
        <ele>980.66</ele>
        <time>2022-06-19T09:11:39+00:00</time>
      </trkpt>
      <trkpt lat="40.844830" lon="-3.598602">
        <ele>982.59</ele>
        <time>2022-06-19T09:11:40+00:00</time>
      </trkpt>
      <trkpt lat="40.844937" lon="-3.598645">
        <ele>984.51</ele>
        <time>2022-06-19T09:11:41+00:00</time>
      </trkpt>
      <trkpt lat="40.845001" lon="-3.598602">
        <ele>985.95</ele>
        <time>2022-06-19T09:11:42+00:00</time>
      </trkpt>
      <trkpt lat="40.845130" lon="-3.598537">
        <ele>987.87</ele>
        <time>2022-06-19T09:11:43+00:00</time>
      </trkpt>
      <trkpt lat="40.845259" lon="-3.598452">
        <ele>989.31</ele>
        <time>2022-06-19T09:11:44+00:00</time>
      </trkpt>
      <trkpt lat="40.845345" lon="-3.598387">
        <ele>990.28</ele>
        <time>2022-06-19T09:11:45+00:00</time>
      </trkpt>
      <trkpt lat="40.845473" lon="-3.598387">
        <ele>991.24</ele>
        <time>2022-06-19T09:11:46+00:00</time>
      </trkpt>
      <trkpt lat="40.845581" lon="-3.598409">
        <ele>992.20</ele>
        <time>2022-06-19T09:11:47+00:00</time>
      </trkpt>
      <trkpt lat="40.845666" lon="-3.598516">
        <ele>993.16</ele>
        <time>2022-06-19T09:11:48+00:00</time>
      </trkpt>
      <trkpt lat="40.845731" lon="-3.598666">
        <ele>994.12</ele>
        <time>2022-06-19T09:11:49+00:00</time>
      </trkpt>
      <trkpt lat="40.845795" lon="-3.598881">
        <ele>995.56</ele>
        <time>2022-06-19T09:11:50+00:00</time>
      </trkpt>
      <trkpt lat="40.845881" lon="-3.599117">
        <ele>996.52</ele>
        <time>2022-06-19T09:11:51+00:00</time>
      </trkpt>
      <trkpt lat="40.846589" lon="-3.600597">
        <ele>1004.22</ele>
        <time>2022-06-19T09:11:58+00:00</time>
      </trkpt>
      <trkpt lat="40.847619" lon="-3.602121">
        <ele>1006.14</ele>
        <time>2022-06-19T09:12:08+00:00</time>
      </trkpt>
      <trkpt lat="40.849529" lon="-3.604889">
        <ele>1003.73</ele>
        <time>2022-06-19T09:12:27+00:00</time>
      </trkpt>
      <trkpt lat="40.850215" lon="-3.605833">
        <ele>1005.18</ele>
        <time>2022-06-19T09:12:33+00:00</time>
      </trkpt>
      <trkpt lat="40.850344" lon="-3.605919">
        <ele>1005.18</ele>
        <time>2022-06-19T09:12:34+00:00</time>
      </trkpt>
      <trkpt lat="40.850494" lon="-3.606026">
        <ele>1005.66</ele>
        <time>2022-06-19T09:12:35+00:00</time>
      </trkpt>
      <trkpt lat="40.852018" lon="-3.607078">
        <ele>1009.98</ele>
        <time>2022-06-19T09:12:44+00:00</time>
      </trkpt>
      <trkpt lat="40.853026" lon="-3.607786">
        <ele>1014.31</ele>
        <time>2022-06-19T09:12:50+00:00</time>
      </trkpt>
      <trkpt lat="40.853134" lon="-3.607936">
        <ele>1014.79</ele>
        <time>2022-06-19T09:12:51+00:00</time>
      </trkpt>
      <trkpt lat="40.853220" lon="-3.608151">
        <ele>1015.27</ele>
        <time>2022-06-19T09:12:52+00:00</time>
      </trkpt>
      <trkpt lat="40.853327" lon="-3.608387">
        <ele>1015.75</ele>
        <time>2022-06-19T09:12:53+00:00</time>
      </trkpt>
      <trkpt lat="40.853413" lon="-3.608644">
        <ele>1016.23</ele>
        <time>2022-06-19T09:12:54+00:00</time>
      </trkpt>
      <trkpt lat="40.854228" lon="-3.610768">
        <ele>1022.48</ele>
        <time>2022-06-19T09:13:03+00:00</time>
      </trkpt>
      <trkpt lat="40.854357" lon="-3.610940">
        <ele>1023.44</ele>
        <time>2022-06-19T09:13:04+00:00</time>
      </trkpt>
      <trkpt lat="40.854507" lon="-3.611069">
        <ele>1023.44</ele>
        <time>2022-06-19T09:13:05+00:00</time>
      </trkpt>
      <trkpt lat="40.854679" lon="-3.611219">
        <ele>1023.92</ele>
        <time>2022-06-19T09:13:06+00:00</time>
      </trkpt>
      <trkpt lat="40.854850" lon="-3.611305">
        <ele>1024.40</ele>
        <time>2022-06-19T09:13:07+00:00</time>
      </trkpt>
      <trkpt lat="40.855022" lon="-3.611412">
        <ele>1024.88</ele>
        <time>2022-06-19T09:13:08+00:00</time>
      </trkpt>
      <trkpt lat="40.855194" lon="-3.611498">
        <ele>1024.88</ele>
        <time>2022-06-19T09:13:09+00:00</time>
      </trkpt>
      <trkpt lat="40.855644" lon="-3.611734">
        <ele>1025.36</ele>
        <time>2022-06-19T09:13:12+00:00</time>
      </trkpt>
      <trkpt lat="40.855794" lon="-3.611798">
        <ele>1025.36</ele>
        <time>2022-06-19T09:13:13+00:00</time>
      </trkpt>
      <trkpt lat="40.855902" lon="-3.611927">
        <ele>1024.88</ele>
        <time>2022-06-19T09:13:14+00:00</time>
      </trkpt>
      <trkpt lat="40.856009" lon="-3.612056">
        <ele>1024.88</ele>
        <time>2022-06-19T09:13:15+00:00</time>
      </trkpt>
      <trkpt lat="40.856116" lon="-3.612185">
        <ele>1024.40</ele>
        <time>2022-06-19T09:13:16+00:00</time>
      </trkpt>
      <trkpt lat="40.856202" lon="-3.612313">
        <ele>1023.92</ele>
        <time>2022-06-19T09:13:17+00:00</time>
      </trkpt>
      <trkpt lat="40.856266" lon="-3.612442">
        <ele>1023.44</ele>
        <time>2022-06-19T09:13:18+00:00</time>
      </trkpt>
      <trkpt lat="40.856331" lon="-3.612549">
        <ele>1023.44</ele>
        <time>2022-06-19T09:13:19+00:00</time>
      </trkpt>
      <trkpt lat="40.856481" lon="-3.612893">
        <ele>1022.48</ele>
        <time>2022-06-19T09:13:25+00:00</time>
      </trkpt>
      <trkpt lat="40.856588" lon="-3.612957">
        <ele>1022.48</ele>
        <time>2022-06-19T09:13:28+00:00</time>
      </trkpt>
      <trkpt lat="40.856631" lon="-3.613000">
        <ele>1022.48</ele>
        <time>2022-06-19T09:13:29+00:00</time>
      </trkpt>
      <trkpt lat="40.856674" lon="-3.613064">
        <ele>1022.00</ele>
        <time>2022-06-19T09:13:30+00:00</time>
      </trkpt>
      <trkpt lat="40.856674" lon="-3.613129">
        <ele>1022.00</ele>
        <time>2022-06-19T09:13:31+00:00</time>
      </trkpt>
      <trkpt lat="40.856674" lon="-3.613193">
        <ele>1022.00</ele>
        <time>2022-06-19T09:13:32+00:00</time>
      </trkpt>
      <trkpt lat="40.856653" lon="-3.613257">
        <ele>1022.00</ele>
        <time>2022-06-19T09:13:33+00:00</time>
      </trkpt>
      <trkpt lat="40.856631" lon="-3.613300">
        <ele>1022.00</ele>
        <time>2022-06-19T09:13:34+00:00</time>
      </trkpt>
      <trkpt lat="40.856610" lon="-3.613386">
        <ele>1022.00</ele>
        <time>2022-06-19T09:13:35+00:00</time>
      </trkpt>
      <trkpt lat="40.856567" lon="-3.613493">
        <ele>1021.52</ele>
        <time>2022-06-19T09:13:36+00:00</time>
      </trkpt>
      <trkpt lat="40.856524" lon="-3.613622">
        <ele>1021.52</ele>
        <time>2022-06-19T09:13:37+00:00</time>
      </trkpt>
      <trkpt lat="40.856503" lon="-3.613794">
        <ele>1021.52</ele>
        <time>2022-06-19T09:13:38+00:00</time>
      </trkpt>
      <trkpt lat="40.856481" lon="-3.613987">
        <ele>1021.52</ele>
        <time>2022-06-19T09:13:39+00:00</time>
      </trkpt>
      <trkpt lat="40.856224" lon="-3.615511">
        <ele>1022.48</ele>
        <time>2022-06-19T09:13:45+00:00</time>
      </trkpt>
      <trkpt lat="40.855902" lon="-3.617399">
        <ele>1025.36</ele>
        <time>2022-06-19T09:13:51+00:00</time>
      </trkpt>
      <trkpt lat="40.855859" lon="-3.618064">
        <ele>1027.77</ele>
        <time>2022-06-19T09:13:54+00:00</time>
      </trkpt>
      <trkpt lat="40.855902" lon="-3.618257">
        <ele>1028.73</ele>
        <time>2022-06-19T09:13:55+00:00</time>
      </trkpt>
      <trkpt lat="40.855966" lon="-3.618472">
        <ele>1029.21</ele>
        <time>2022-06-19T09:13:56+00:00</time>
      </trkpt>
      <trkpt lat="40.856545" lon="-3.620231">
        <ele>1032.57</ele>
        <time>2022-06-19T09:14:03+00:00</time>
      </trkpt>
      <trkpt lat="40.856953" lon="-3.621454">
        <ele>1033.05</ele>
        <time>2022-06-19T09:14:09+00:00</time>
      </trkpt>
      <trkpt lat="40.856932" lon="-3.621647">
        <ele>1032.57</ele>
        <time>2022-06-19T09:14:10+00:00</time>
      </trkpt>
      <trkpt lat="40.856910" lon="-3.621819">
        <ele>1032.57</ele>
        <time>2022-06-19T09:14:11+00:00</time>
      </trkpt>
      <trkpt lat="40.856824" lon="-3.622034">
        <ele>1032.57</ele>
        <time>2022-06-19T09:14:12+00:00</time>
      </trkpt>
      <trkpt lat="40.856717" lon="-3.622248">
        <ele>1032.57</ele>
        <time>2022-06-19T09:14:13+00:00</time>
      </trkpt>
      <trkpt lat="40.856181" lon="-3.623257">
        <ele>1033.05</ele>
        <time>2022-06-19T09:14:18+00:00</time>
      </trkpt>
      <trkpt lat="40.856138" lon="-3.623471">
        <ele>1032.57</ele>
        <time>2022-06-19T09:14:19+00:00</time>
      </trkpt>
      <trkpt lat="40.856095" lon="-3.623707">
        <ele>1032.57</ele>
        <time>2022-06-19T09:14:20+00:00</time>
      </trkpt>
      <trkpt lat="40.856030" lon="-3.624158">
        <ele>1032.57</ele>
        <time>2022-06-19T09:14:22+00:00</time>
      </trkpt>
      <trkpt lat="40.855988" lon="-3.624351">
        <ele>1032.57</ele>
        <time>2022-06-19T09:14:23+00:00</time>
      </trkpt>
      <trkpt lat="40.855880" lon="-3.624544">
        <ele>1032.09</ele>
        <time>2022-06-19T09:14:24+00:00</time>
      </trkpt>
      <trkpt lat="40.855752" lon="-3.624694">
        <ele>1031.61</ele>
        <time>2022-06-19T09:14:25+00:00</time>
      </trkpt>
      <trkpt lat="40.855623" lon="-3.624823">
        <ele>1031.13</ele>
        <time>2022-06-19T09:14:26+00:00</time>
      </trkpt>
      <trkpt lat="40.855430" lon="-3.625081">
        <ele>1030.17</ele>
        <time>2022-06-19T09:14:28+00:00</time>
      </trkpt>
      <trkpt lat="40.855344" lon="-3.625188">
        <ele>1029.21</ele>
        <time>2022-06-19T09:14:29+00:00</time>
      </trkpt>
      <trkpt lat="40.855344" lon="-3.625338">
        <ele>1028.25</ele>
        <time>2022-06-19T09:14:30+00:00</time>
      </trkpt>
      <trkpt lat="40.855344" lon="-3.625553">
        <ele>1027.29</ele>
        <time>2022-06-19T09:14:31+00:00</time>
      </trkpt>
      <trkpt lat="40.855344" lon="-3.625810">
        <ele>1026.33</ele>
        <time>2022-06-19T09:14:32+00:00</time>
      </trkpt>
      <trkpt lat="40.855301" lon="-3.626089">
        <ele>1025.36</ele>
        <time>2022-06-19T09:14:33+00:00</time>
      </trkpt>
      <trkpt lat="40.855237" lon="-3.626368">
        <ele>1023.92</ele>
        <time>2022-06-19T09:14:34+00:00</time>
      </trkpt>
      <trkpt lat="40.855172" lon="-3.626604">
        <ele>1022.96</ele>
        <time>2022-06-19T09:14:35+00:00</time>
      </trkpt>
      <trkpt lat="40.855108" lon="-3.626840">
        <ele>1022.00</ele>
        <time>2022-06-19T09:14:36+00:00</time>
      </trkpt>
      <trkpt lat="40.855129" lon="-3.627119">
        <ele>1021.04</ele>
        <time>2022-06-19T09:14:37+00:00</time>
      </trkpt>
      <trkpt lat="40.855129" lon="-3.627377">
        <ele>1020.56</ele>
        <time>2022-06-19T09:14:38+00:00</time>
      </trkpt>
      <trkpt lat="40.855237" lon="-3.628278">
        <ele>1019.12</ele>
        <time>2022-06-19T09:14:42+00:00</time>
      </trkpt>
      <trkpt lat="40.855322" lon="-3.628449">
        <ele>1019.12</ele>
        <time>2022-06-19T09:14:43+00:00</time>
      </trkpt>
      <trkpt lat="40.855451" lon="-3.628621">
        <ele>1019.12</ele>
        <time>2022-06-19T09:14:44+00:00</time>
      </trkpt>
      <trkpt lat="40.856009" lon="-3.629308">
        <ele>1020.56</ele>
        <time>2022-06-19T09:14:48+00:00</time>
      </trkpt>
      <trkpt lat="40.856095" lon="-3.629501">
        <ele>1021.04</ele>
        <time>2022-06-19T09:14:49+00:00</time>
      </trkpt>
      <trkpt lat="40.856181" lon="-3.629715">
        <ele>1022.00</ele>
        <time>2022-06-19T09:14:50+00:00</time>
      </trkpt>
      <trkpt lat="40.856224" lon="-3.629909">
        <ele>1022.96</ele>
        <time>2022-06-19T09:14:51+00:00</time>
      </trkpt>
      <trkpt lat="40.856245" lon="-3.630080">
        <ele>1023.92</ele>
        <time>2022-06-19T09:14:52+00:00</time>
      </trkpt>
      <trkpt lat="40.856224" lon="-3.630230">
        <ele>1024.88</ele>
        <time>2022-06-19T09:14:53+00:00</time>
      </trkpt>
      <trkpt lat="40.856159" lon="-3.630402">
        <ele>1025.36</ele>
        <time>2022-06-19T09:14:54+00:00</time>
      </trkpt>
      <trkpt lat="40.856052" lon="-3.630617">
        <ele>1025.84</ele>
        <time>2022-06-19T09:14:55+00:00</time>
      </trkpt>
      <trkpt lat="40.855923" lon="-3.630874">
        <ele>1026.81</ele>
        <time>2022-06-19T09:14:56+00:00</time>
      </trkpt>
      <trkpt lat="40.854829" lon="-3.633041">
        <ele>1026.33</ele>
        <time>2022-06-19T09:15:04+00:00</time>
      </trkpt>
      <trkpt lat="40.854528" lon="-3.633707">
        <ele>1026.81</ele>
        <time>2022-06-19T09:15:07+00:00</time>
      </trkpt>
      <trkpt lat="40.854507" lon="-3.633943">
        <ele>1026.33</ele>
        <time>2022-06-19T09:15:08+00:00</time>
      </trkpt>
      <trkpt lat="40.854486" lon="-3.634222">
        <ele>1025.84</ele>
        <time>2022-06-19T09:15:09+00:00</time>
      </trkpt>
      <trkpt lat="40.854464" lon="-3.634522">
        <ele>1024.88</ele>
        <time>2022-06-19T09:15:10+00:00</time>
      </trkpt>
      <trkpt lat="40.854443" lon="-3.634822">
        <ele>1023.92</ele>
        <time>2022-06-19T09:15:11+00:00</time>
      </trkpt>
      <trkpt lat="40.854400" lon="-3.635144">
        <ele>1022.96</ele>
        <time>2022-06-19T09:15:12+00:00</time>
      </trkpt>
      <trkpt lat="40.854357" lon="-3.635488">
        <ele>1022.00</ele>
        <time>2022-06-19T09:15:13+00:00</time>
      </trkpt>
      <trkpt lat="40.854249" lon="-3.635809">
        <ele>1021.04</ele>
        <time>2022-06-19T09:15:14+00:00</time>
      </trkpt>
      <trkpt lat="40.853885" lon="-3.637097">
        <ele>1019.12</ele>
        <time>2022-06-19T09:15:19+00:00</time>
      </trkpt>
      <trkpt lat="40.853885" lon="-3.637290">
        <ele>1019.60</ele>
        <time>2022-06-19T09:15:20+00:00</time>
      </trkpt>
      <trkpt lat="40.853971" lon="-3.637505">
        <ele>1019.60</ele>
        <time>2022-06-19T09:15:21+00:00</time>
      </trkpt>
      <trkpt lat="40.854035" lon="-3.637719">
        <ele>1020.08</ele>
        <time>2022-06-19T09:15:22+00:00</time>
      </trkpt>
      <trkpt lat="40.854099" lon="-3.637955">
        <ele>1020.56</ele>
        <time>2022-06-19T09:15:23+00:00</time>
      </trkpt>
      <trkpt lat="40.854421" lon="-3.638878">
        <ele>1025.84</ele>
        <time>2022-06-19T09:15:29+00:00</time>
      </trkpt>
      <trkpt lat="40.854893" lon="-3.640294">
        <ele>1035.46</ele>
        <time>2022-06-19T09:15:37+00:00</time>
      </trkpt>
      <trkpt lat="40.855258" lon="-3.641517">
        <ele>1042.67</ele>
        <time>2022-06-19T09:15:43+00:00</time>
      </trkpt>
      <trkpt lat="40.855752" lon="-3.643277">
        <ele>1048.44</ele>
        <time>2022-06-19T09:15:50+00:00</time>
      </trkpt>
      <trkpt lat="40.856460" lon="-3.644822">
        <ele>1054.68</ele>
        <time>2022-06-19T09:15:58+00:00</time>
      </trkpt>
      <trkpt lat="40.857447" lon="-3.646388">
        <ele>1058.53</ele>
        <time>2022-06-19T09:16:06+00:00</time>
      </trkpt>
      <trkpt lat="40.858498" lon="-3.648276">
        <ele>1055.65</ele>
        <time>2022-06-19T09:16:12+00:00</time>
      </trkpt>
      <trkpt lat="40.859657" lon="-3.650336">
        <ele>1051.32</ele>
        <time>2022-06-19T09:16:19+00:00</time>
      </trkpt>
      <trkpt lat="40.860494" lon="-3.651431">
        <ele>1050.84</ele>
        <time>2022-06-19T09:16:24+00:00</time>
      </trkpt>
      <trkpt lat="40.860751" lon="-3.651838">
        <ele>1050.84</ele>
        <time>2022-06-19T09:16:26+00:00</time>
      </trkpt>
      <trkpt lat="40.860858" lon="-3.652096">
        <ele>1050.36</ele>
        <time>2022-06-19T09:16:27+00:00</time>
      </trkpt>
      <trkpt lat="40.861588" lon="-3.653619">
        <ele>1047.96</ele>
        <time>2022-06-19T09:16:33+00:00</time>
      </trkpt>
      <trkpt lat="40.861674" lon="-3.653812">
        <ele>1047.47</ele>
        <time>2022-06-19T09:16:34+00:00</time>
      </trkpt>
      <trkpt lat="40.861803" lon="-3.653963">
        <ele>1047.47</ele>
        <time>2022-06-19T09:16:35+00:00</time>
      </trkpt>
      <trkpt lat="40.861953" lon="-3.654113">
        <ele>1047.47</ele>
        <time>2022-06-19T09:16:36+00:00</time>
      </trkpt>
      <trkpt lat="40.862403" lon="-3.654542">
        <ele>1046.99</ele>
        <time>2022-06-19T09:16:39+00:00</time>
      </trkpt>
      <trkpt lat="40.862511" lon="-3.654714">
        <ele>1046.99</ele>
        <time>2022-06-19T09:16:40+00:00</time>
      </trkpt>
      <trkpt lat="40.862575" lon="-3.654928">
        <ele>1046.99</ele>
        <time>2022-06-19T09:16:41+00:00</time>
      </trkpt>
      <trkpt lat="40.863090" lon="-3.656602">
        <ele>1045.55</ele>
        <time>2022-06-19T09:16:47+00:00</time>
      </trkpt>
      <trkpt lat="40.863348" lon="-3.657310">
        <ele>1046.03</ele>
        <time>2022-06-19T09:16:50+00:00</time>
      </trkpt>
      <trkpt lat="40.863433" lon="-3.657503">
        <ele>1046.03</ele>
        <time>2022-06-19T09:16:51+00:00</time>
      </trkpt>
      <trkpt lat="40.863626" lon="-3.657825">
        <ele>1047.96</ele>
        <time>2022-06-19T09:16:53+00:00</time>
      </trkpt>
      <trkpt lat="40.863648" lon="-3.658018">
        <ele>1048.92</ele>
        <time>2022-06-19T09:16:54+00:00</time>
      </trkpt>
      <trkpt lat="40.863648" lon="-3.658233">
        <ele>1049.88</ele>
        <time>2022-06-19T09:16:55+00:00</time>
      </trkpt>
      <trkpt lat="40.863669" lon="-3.658941">
        <ele>1053.72</ele>
        <time>2022-06-19T09:16:58+00:00</time>
      </trkpt>
      <trkpt lat="40.863712" lon="-3.659134">
        <ele>1055.16</ele>
        <time>2022-06-19T09:16:59+00:00</time>
      </trkpt>
      <trkpt lat="40.863841" lon="-3.659284">
        <ele>1056.61</ele>
        <time>2022-06-19T09:17:00+00:00</time>
      </trkpt>
      <trkpt lat="40.863948" lon="-3.659370">
        <ele>1058.05</ele>
        <time>2022-06-19T09:17:01+00:00</time>
      </trkpt>
      <trkpt lat="40.864120" lon="-3.659391">
        <ele>1059.97</ele>
        <time>2022-06-19T09:17:02+00:00</time>
      </trkpt>
      <trkpt lat="40.864292" lon="-3.659413">
        <ele>1061.41</ele>
        <time>2022-06-19T09:17:03+00:00</time>
      </trkpt>
      <trkpt lat="40.864463" lon="-3.659434">
        <ele>1062.86</ele>
        <time>2022-06-19T09:17:04+00:00</time>
      </trkpt>
      <trkpt lat="40.864614" lon="-3.659477">
        <ele>1064.30</ele>
        <time>2022-06-19T09:17:05+00:00</time>
      </trkpt>
      <trkpt lat="40.864721" lon="-3.659563">
        <ele>1064.78</ele>
        <time>2022-06-19T09:17:06+00:00</time>
      </trkpt>
      <trkpt lat="40.864828" lon="-3.659670">
        <ele>1065.74</ele>
        <time>2022-06-19T09:17:07+00:00</time>
      </trkpt>
      <trkpt lat="40.864914" lon="-3.659842">
        <ele>1066.70</ele>
        <time>2022-06-19T09:17:08+00:00</time>
      </trkpt>
      <trkpt lat="40.865000" lon="-3.660035">
        <ele>1067.18</ele>
        <time>2022-06-19T09:17:09+00:00</time>
      </trkpt>
      <trkpt lat="40.865665" lon="-3.661194">
        <ele>1070.06</ele>
        <time>2022-06-19T09:17:15+00:00</time>
      </trkpt>
      <trkpt lat="40.865794" lon="-3.661301">
        <ele>1070.55</ele>
        <time>2022-06-19T09:17:16+00:00</time>
      </trkpt>
      <trkpt lat="40.865922" lon="-3.661366">
        <ele>1071.51</ele>
        <time>2022-06-19T09:17:17+00:00</time>
      </trkpt>
      <trkpt lat="40.866073" lon="-3.661387">
        <ele>1071.99</ele>
        <time>2022-06-19T09:17:18+00:00</time>
      </trkpt>
      <trkpt lat="40.866244" lon="-3.661366">
        <ele>1072.95</ele>
        <time>2022-06-19T09:17:19+00:00</time>
      </trkpt>
      <trkpt lat="40.866395" lon="-3.661301">
        <ele>1073.91</ele>
        <time>2022-06-19T09:17:20+00:00</time>
      </trkpt>
      <trkpt lat="40.866545" lon="-3.661194">
        <ele>1074.39</ele>
        <time>2022-06-19T09:17:21+00:00</time>
      </trkpt>
      <trkpt lat="40.866716" lon="-3.661065">
        <ele>1075.83</ele>
        <time>2022-06-19T09:17:22+00:00</time>
      </trkpt>
      <trkpt lat="40.867253" lon="-3.660657">
        <ele>1079.68</ele>
        <time>2022-06-19T09:17:26+00:00</time>
      </trkpt>
      <trkpt lat="40.867382" lon="-3.660593">
        <ele>1080.64</ele>
        <time>2022-06-19T09:17:27+00:00</time>
      </trkpt>
      <trkpt lat="40.867510" lon="-3.660615">
        <ele>1081.60</ele>
        <time>2022-06-19T09:17:28+00:00</time>
      </trkpt>
      <trkpt lat="40.867768" lon="-3.660636">
        <ele>1083.52</ele>
        <time>2022-06-19T09:17:30+00:00</time>
      </trkpt>
      <trkpt lat="40.867897" lon="-3.660550">
        <ele>1084.97</ele>
        <time>2022-06-19T09:17:31+00:00</time>
      </trkpt>
      <trkpt lat="40.868004" lon="-3.660464">
        <ele>1085.93</ele>
        <time>2022-06-19T09:17:32+00:00</time>
      </trkpt>
      <trkpt lat="40.868218" lon="-3.660336">
        <ele>1087.37</ele>
        <time>2022-06-19T09:17:34+00:00</time>
      </trkpt>
      <trkpt lat="40.868304" lon="-3.660293">
        <ele>1088.33</ele>
        <time>2022-06-19T09:17:35+00:00</time>
      </trkpt>
      <trkpt lat="40.868390" lon="-3.660293">
        <ele>1089.29</ele>
        <time>2022-06-19T09:17:36+00:00</time>
      </trkpt>
      <trkpt lat="40.868454" lon="-3.660293">
        <ele>1089.77</ele>
        <time>2022-06-19T09:17:37+00:00</time>
      </trkpt>
      <trkpt lat="40.868519" lon="-3.660293">
        <ele>1090.73</ele>
        <time>2022-06-19T09:17:38+00:00</time>
      </trkpt>
      <trkpt lat="40.868583" lon="-3.660293">
        <ele>1091.69</ele>
        <time>2022-06-19T09:17:39+00:00</time>
      </trkpt>
      <trkpt lat="40.868626" lon="-3.660314">
        <ele>1092.18</ele>
        <time>2022-06-19T09:17:40+00:00</time>
      </trkpt>
      <trkpt lat="40.868626" lon="-3.660357">
        <ele>1093.14</ele>
        <time>2022-06-19T09:17:41+00:00</time>
      </trkpt>
      <trkpt lat="40.868605" lon="-3.660400">
        <ele>1094.10</ele>
        <time>2022-06-19T09:17:42+00:00</time>
      </trkpt>
      <trkpt lat="40.868562" lon="-3.660464">
        <ele>1094.58</ele>
        <time>2022-06-19T09:17:43+00:00</time>
      </trkpt>
      <trkpt lat="40.868497" lon="-3.660572">
        <ele>1095.06</ele>
        <time>2022-06-19T09:17:44+00:00</time>
      </trkpt>
      <trkpt lat="40.868412" lon="-3.660700">
        <ele>1094.58</ele>
        <time>2022-06-19T09:17:45+00:00</time>
      </trkpt>
      <trkpt lat="40.868304" lon="-3.660851">
        <ele>1093.62</ele>
        <time>2022-06-19T09:17:46+00:00</time>
      </trkpt>
      <trkpt lat="40.867789" lon="-3.661709">
        <ele>1088.81</ele>
        <time>2022-06-19T09:17:51+00:00</time>
      </trkpt>
      <trkpt lat="40.867661" lon="-3.661730">
        <ele>1087.85</ele>
        <time>2022-06-19T09:17:52+00:00</time>
      </trkpt>
      <trkpt lat="40.867489" lon="-3.661752">
        <ele>1085.93</ele>
        <time>2022-06-19T09:17:53+00:00</time>
      </trkpt>
      <trkpt lat="40.866287" lon="-3.661988">
        <ele>1073.91</ele>
        <time>2022-06-19T09:18:01+00:00</time>
      </trkpt>
      <trkpt lat="40.865858" lon="-3.662181">
        <ele>1071.51</ele>
        <time>2022-06-19T09:18:04+00:00</time>
      </trkpt>
      <trkpt lat="40.865129" lon="-3.662503">
        <ele>1066.22</ele>
        <time>2022-06-19T09:18:09+00:00</time>
      </trkpt>
      <trkpt lat="40.864978" lon="-3.662481">
        <ele>1064.78</ele>
        <time>2022-06-19T09:18:10+00:00</time>
      </trkpt>
      <trkpt lat="40.864807" lon="-3.662460">
        <ele>1063.82</ele>
        <time>2022-06-19T09:18:11+00:00</time>
      </trkpt>
      <trkpt lat="40.864614" lon="-3.662353">
        <ele>1062.37</ele>
        <time>2022-06-19T09:18:12+00:00</time>
      </trkpt>
      <trkpt lat="40.864399" lon="-3.662267">
        <ele>1060.45</ele>
        <time>2022-06-19T09:18:13+00:00</time>
      </trkpt>
      <trkpt lat="40.863777" lon="-3.661988">
        <ele>1055.16</ele>
        <time>2022-06-19T09:18:16+00:00</time>
      </trkpt>
      <trkpt lat="40.863562" lon="-3.661923">
        <ele>1053.24</ele>
        <time>2022-06-19T09:18:17+00:00</time>
      </trkpt>
      <trkpt lat="40.863369" lon="-3.661902">
        <ele>1051.32</ele>
        <time>2022-06-19T09:18:18+00:00</time>
      </trkpt>
      <trkpt lat="40.863176" lon="-3.661902">
        <ele>1049.40</ele>
        <time>2022-06-19T09:18:19+00:00</time>
      </trkpt>
      <trkpt lat="40.863004" lon="-3.661923">
        <ele>1047.47</ele>
        <time>2022-06-19T09:18:20+00:00</time>
      </trkpt>
      <trkpt lat="40.862833" lon="-3.661966">
        <ele>1045.55</ele>
        <time>2022-06-19T09:18:21+00:00</time>
      </trkpt>
      <trkpt lat="40.862704" lon="-3.662031">
        <ele>1044.11</ele>
        <time>2022-06-19T09:18:22+00:00</time>
      </trkpt>
      <trkpt lat="40.862575" lon="-3.662074">
        <ele>1042.67</ele>
        <time>2022-06-19T09:18:23+00:00</time>
      </trkpt>
      <trkpt lat="40.862446" lon="-3.662052">
        <ele>1041.23</ele>
        <time>2022-06-19T09:18:24+00:00</time>
      </trkpt>
      <trkpt lat="40.862296" lon="-3.662009">
        <ele>1039.78</ele>
        <time>2022-06-19T09:18:25+00:00</time>
      </trkpt>
      <trkpt lat="40.862124" lon="-3.661881">
        <ele>1038.34</ele>
        <time>2022-06-19T09:18:26+00:00</time>
      </trkpt>
      <trkpt lat="40.861974" lon="-3.661795">
        <ele>1036.42</ele>
        <time>2022-06-19T09:18:27+00:00</time>
      </trkpt>
      <trkpt lat="40.861867" lon="-3.661687">
        <ele>1034.98</ele>
        <time>2022-06-19T09:18:28+00:00</time>
      </trkpt>
      <trkpt lat="40.861760" lon="-3.661559">
        <ele>1034.02</ele>
        <time>2022-06-19T09:18:29+00:00</time>
      </trkpt>
      <trkpt lat="40.861674" lon="-3.661408">
        <ele>1032.57</ele>
        <time>2022-06-19T09:18:30+00:00</time>
      </trkpt>
      <trkpt lat="40.861588" lon="-3.661194">
        <ele>1030.65</ele>
        <time>2022-06-19T09:18:31+00:00</time>
      </trkpt>
      <trkpt lat="40.861481" lon="-3.660979">
        <ele>1029.21</ele>
        <time>2022-06-19T09:18:32+00:00</time>
      </trkpt>
      <trkpt lat="40.861373" lon="-3.660765">
        <ele>1027.77</ele>
        <time>2022-06-19T09:18:33+00:00</time>
      </trkpt>
      <trkpt lat="40.861202" lon="-3.660572">
        <ele>1026.33</ele>
        <time>2022-06-19T09:18:34+00:00</time>
      </trkpt>
      <trkpt lat="40.861030" lon="-3.660400">
        <ele>1025.36</ele>
        <time>2022-06-19T09:18:35+00:00</time>
      </trkpt>
      <trkpt lat="40.860858" lon="-3.660250">
        <ele>1024.88</ele>
        <time>2022-06-19T09:18:36+00:00</time>
      </trkpt>
      <trkpt lat="40.860644" lon="-3.660142">
        <ele>1023.92</ele>
        <time>2022-06-19T09:18:37+00:00</time>
      </trkpt>
      <trkpt lat="40.860429" lon="-3.660035">
        <ele>1023.44</ele>
        <time>2022-06-19T09:18:38+00:00</time>
      </trkpt>
      <trkpt lat="40.858691" lon="-3.659220">
        <ele>1021.04</ele>
        <time>2022-06-19T09:18:45+00:00</time>
      </trkpt>
      <trkpt lat="40.857189" lon="-3.658361">
        <ele>1019.12</ele>
        <time>2022-06-19T09:18:52+00:00</time>
      </trkpt>
      <trkpt lat="40.856996" lon="-3.658297">
        <ele>1018.64</ele>
        <time>2022-06-19T09:18:53+00:00</time>
      </trkpt>
      <trkpt lat="40.856503" lon="-3.658147">
        <ele>1016.23</ele>
        <time>2022-06-19T09:18:56+00:00</time>
      </trkpt>
      <trkpt lat="40.856352" lon="-3.658040">
        <ele>1015.27</ele>
        <time>2022-06-19T09:18:57+00:00</time>
      </trkpt>
      <trkpt lat="40.856181" lon="-3.657889">
        <ele>1014.31</ele>
        <time>2022-06-19T09:18:58+00:00</time>
      </trkpt>
      <trkpt lat="40.855773" lon="-3.657417">
        <ele>1010.94</ele>
        <time>2022-06-19T09:19:01+00:00</time>
      </trkpt>
      <trkpt lat="40.855687" lon="-3.657246">
        <ele>1009.50</ele>
        <time>2022-06-19T09:19:02+00:00</time>
      </trkpt>
      <trkpt lat="40.855623" lon="-3.657031">
        <ele>1008.54</ele>
        <time>2022-06-19T09:19:03+00:00</time>
      </trkpt>
      <trkpt lat="40.855558" lon="-3.656774">
        <ele>1007.10</ele>
        <time>2022-06-19T09:19:04+00:00</time>
      </trkpt>
      <trkpt lat="40.855494" lon="-3.656516">
        <ele>1005.66</ele>
        <time>2022-06-19T09:19:05+00:00</time>
      </trkpt>
      <trkpt lat="40.855387" lon="-3.656044">
        <ele>1003.25</ele>
        <time>2022-06-19T09:19:07+00:00</time>
      </trkpt>
      <trkpt lat="40.855322" lon="-3.655894">
        <ele>1001.33</ele>
        <time>2022-06-19T09:19:08+00:00</time>
      </trkpt>
      <trkpt lat="40.855215" lon="-3.655765">
        <ele>1000.37</ele>
        <time>2022-06-19T09:19:09+00:00</time>
      </trkpt>
      <trkpt lat="40.855086" lon="-3.655701">
        <ele>999.41</ele>
        <time>2022-06-19T09:19:10+00:00</time>
      </trkpt>
      <trkpt lat="40.854915" lon="-3.655636">
        <ele>998.45</ele>
        <time>2022-06-19T09:19:11+00:00</time>
      </trkpt>
      <trkpt lat="40.854722" lon="-3.655551">
        <ele>997.97</ele>
        <time>2022-06-19T09:19:12+00:00</time>
      </trkpt>
      <trkpt lat="40.853885" lon="-3.655229">
        <ele>997.49</ele>
        <time>2022-06-19T09:19:16+00:00</time>
      </trkpt>
      <trkpt lat="40.853670" lon="-3.655100">
        <ele>997.01</ele>
        <time>2022-06-19T09:19:17+00:00</time>
      </trkpt>
      <trkpt lat="40.852254" lon="-3.653984">
        <ele>996.04</ele>
        <time>2022-06-19T09:19:23+00:00</time>
      </trkpt>
      <trkpt lat="40.851653" lon="-3.653555">
        <ele>996.52</ele>
        <time>2022-06-19T09:19:26+00:00</time>
      </trkpt>
      <trkpt lat="40.851460" lon="-3.653448">
        <ele>996.52</ele>
        <time>2022-06-19T09:19:27+00:00</time>
      </trkpt>
      <trkpt lat="40.851245" lon="-3.653405">
        <ele>997.01</ele>
        <time>2022-06-19T09:19:28+00:00</time>
      </trkpt>
      <trkpt lat="40.850516" lon="-3.653297">
        <ele>998.45</ele>
        <time>2022-06-19T09:19:32+00:00</time>
      </trkpt>
      <trkpt lat="40.850366" lon="-3.653383">
        <ele>997.97</ele>
        <time>2022-06-19T09:19:33+00:00</time>
      </trkpt>
      <trkpt lat="40.850194" lon="-3.653491">
        <ele>997.97</ele>
        <time>2022-06-19T09:19:34+00:00</time>
      </trkpt>
      <trkpt lat="40.849615" lon="-3.653812">
        <ele>997.97</ele>
        <time>2022-06-19T09:19:37+00:00</time>
      </trkpt>
      <trkpt lat="40.849400" lon="-3.653855">
        <ele>998.45</ele>
        <time>2022-06-19T09:19:38+00:00</time>
      </trkpt>
      <trkpt lat="40.847812" lon="-3.654263">
        <ele>1001.81</ele>
        <time>2022-06-19T09:19:45+00:00</time>
      </trkpt>
      <trkpt lat="40.847319" lon="-3.654435">
        <ele>1002.77</ele>
        <time>2022-06-19T09:19:48+00:00</time>
      </trkpt>
      <trkpt lat="40.847211" lon="-3.654456">
        <ele>1002.77</ele>
        <time>2022-06-19T09:19:49+00:00</time>
      </trkpt>
      <trkpt lat="40.847083" lon="-3.654456">
        <ele>1002.77</ele>
        <time>2022-06-19T09:19:50+00:00</time>
      </trkpt>
      <trkpt lat="40.846975" lon="-3.654349">
        <ele>1001.81</ele>
        <time>2022-06-19T09:19:51+00:00</time>
      </trkpt>
      <trkpt lat="40.846825" lon="-3.654220">
        <ele>1001.33</ele>
        <time>2022-06-19T09:19:52+00:00</time>
      </trkpt>
      <trkpt lat="40.846696" lon="-3.654048">
        <ele>1000.85</ele>
        <time>2022-06-19T09:19:53+00:00</time>
      </trkpt>
      <trkpt lat="40.845387" lon="-3.652675">
        <ele>995.08</ele>
        <time>2022-06-19T09:20:01+00:00</time>
      </trkpt>
      <trkpt lat="40.844250" lon="-3.651795">
        <ele>993.16</ele>
        <time>2022-06-19T09:20:08+00:00</time>
      </trkpt>
      <trkpt lat="40.844100" lon="-3.651624">
        <ele>993.16</ele>
        <time>2022-06-19T09:20:09+00:00</time>
      </trkpt>
      <trkpt lat="40.844014" lon="-3.651388">
        <ele>992.68</ele>
        <time>2022-06-19T09:20:10+00:00</time>
      </trkpt>
      <trkpt lat="40.843907" lon="-3.651109">
        <ele>992.68</ele>
        <time>2022-06-19T09:20:11+00:00</time>
      </trkpt>
      <trkpt lat="40.843821" lon="-3.650808">
        <ele>992.68</ele>
        <time>2022-06-19T09:20:12+00:00</time>
      </trkpt>
      <trkpt lat="40.843263" lon="-3.648706">
        <ele>991.72</ele>
        <time>2022-06-19T09:20:19+00:00</time>
      </trkpt>
      <trkpt lat="40.842619" lon="-3.646281">
        <ele>990.76</ele>
        <time>2022-06-19T09:20:28+00:00</time>
      </trkpt>
      <trkpt lat="40.842298" lon="-3.645272">
        <ele>989.31</ele>
        <time>2022-06-19T09:20:32+00:00</time>
      </trkpt>
      <trkpt lat="40.842169" lon="-3.645036">
        <ele>988.35</ele>
        <time>2022-06-19T09:20:33+00:00</time>
      </trkpt>
      <trkpt lat="40.840774" lon="-3.643234">
        <ele>982.59</ele>
        <time>2022-06-19T09:20:41+00:00</time>
      </trkpt>
      <trkpt lat="40.838886" lon="-3.640680">
        <ele>977.30</ele>
        <time>2022-06-19T09:20:52+00:00</time>
      </trkpt>
      <trkpt lat="40.836890" lon="-3.637848">
        <ele>973.45</ele>
        <time>2022-06-19T09:21:04+00:00</time>
      </trkpt>
      <trkpt lat="40.836590" lon="-3.637548">
        <ele>973.45</ele>
        <time>2022-06-19T09:21:06+00:00</time>
      </trkpt>
      <trkpt lat="40.836440" lon="-3.637397">
        <ele>973.93</ele>
        <time>2022-06-19T09:21:07+00:00</time>
      </trkpt>
      <trkpt lat="40.835796" lon="-3.636904">
        <ele>972.49</ele>
        <time>2022-06-19T09:21:11+00:00</time>
      </trkpt>
      <trkpt lat="40.835667" lon="-3.636711">
        <ele>971.53</ele>
        <time>2022-06-19T09:21:12+00:00</time>
      </trkpt>
      <trkpt lat="40.835560" lon="-3.636475">
        <ele>970.57</ele>
        <time>2022-06-19T09:21:13+00:00</time>
      </trkpt>
      <trkpt lat="40.834702" lon="-3.634393">
        <ele>962.40</ele>
        <time>2022-06-19T09:21:21+00:00</time>
      </trkpt>
      <trkpt lat="40.834122" lon="-3.632999">
        <ele>956.15</ele>
        <time>2022-06-19T09:21:27+00:00</time>
      </trkpt>
      <trkpt lat="40.833993" lon="-3.632827">
        <ele>955.19</ele>
        <time>2022-06-19T09:21:28+00:00</time>
      </trkpt>
      <trkpt lat="40.833865" lon="-3.632677">
        <ele>953.75</ele>
        <time>2022-06-19T09:21:29+00:00</time>
      </trkpt>
      <trkpt lat="40.833714" lon="-3.632548">
        <ele>952.30</ele>
        <time>2022-06-19T09:21:30+00:00</time>
      </trkpt>
      <trkpt lat="40.833564" lon="-3.632419">
        <ele>950.86</ele>
        <time>2022-06-19T09:21:31+00:00</time>
      </trkpt>
      <trkpt lat="40.833049" lon="-3.632076">
        <ele>947.02</ele>
        <time>2022-06-19T09:21:34+00:00</time>
      </trkpt>
      <trkpt lat="40.832878" lon="-3.632011">
        <ele>945.58</ele>
        <time>2022-06-19T09:21:35+00:00</time>
      </trkpt>
      <trkpt lat="40.832706" lon="-3.631947">
        <ele>944.61</ele>
        <time>2022-06-19T09:21:36+00:00</time>
      </trkpt>
      <trkpt lat="40.830539" lon="-3.631260">
        <ele>939.81</ele>
        <time>2022-06-19T09:21:49+00:00</time>
      </trkpt>
      <trkpt lat="40.830389" lon="-3.631175">
        <ele>939.81</ele>
        <time>2022-06-19T09:21:50+00:00</time>
      </trkpt>
      <trkpt lat="40.830238" lon="-3.631067">
        <ele>939.81</ele>
        <time>2022-06-19T09:21:51+00:00</time>
      </trkpt>
      <trkpt lat="40.828565" lon="-3.629737">
        <ele>938.37</ele>
        <time>2022-06-19T09:22:02+00:00</time>
      </trkpt>
      <trkpt lat="40.827771" lon="-3.629437">
        <ele>936.44</ele>
        <time>2022-06-19T09:22:07+00:00</time>
      </trkpt>
      <trkpt lat="40.827599" lon="-3.629479">
        <ele>935.48</ele>
        <time>2022-06-19T09:22:08+00:00</time>
      </trkpt>
      <trkpt lat="40.827427" lon="-3.629522">
        <ele>934.04</ele>
        <time>2022-06-19T09:22:09+00:00</time>
      </trkpt>
      <trkpt lat="40.826934" lon="-3.629651">
        <ele>930.19</ele>
        <time>2022-06-19T09:22:12+00:00</time>
      </trkpt>
      <trkpt lat="40.826784" lon="-3.629608">
        <ele>928.75</ele>
        <time>2022-06-19T09:22:13+00:00</time>
      </trkpt>
      <trkpt lat="40.826612" lon="-3.629544">
        <ele>927.31</ele>
        <time>2022-06-19T09:22:14+00:00</time>
      </trkpt>
      <trkpt lat="40.826269" lon="-3.629372">
        <ele>924.43</ele>
        <time>2022-06-19T09:22:16+00:00</time>
      </trkpt>
      <trkpt lat="40.826097" lon="-3.629329">
        <ele>922.50</ele>
        <time>2022-06-19T09:22:17+00:00</time>
      </trkpt>
      <trkpt lat="40.825239" lon="-3.628986">
        <ele>915.77</ele>
        <time>2022-06-19T09:22:23+00:00</time>
      </trkpt>
      <trkpt lat="40.825153" lon="-3.628900">
        <ele>914.81</ele>
        <time>2022-06-19T09:22:24+00:00</time>
      </trkpt>
      <trkpt lat="40.825089" lon="-3.628857">
        <ele>914.33</ele>
        <time>2022-06-19T09:22:25+00:00</time>
      </trkpt>
      <trkpt lat="40.825024" lon="-3.628750">
        <ele>913.85</ele>
        <time>2022-06-19T09:22:26+00:00</time>
      </trkpt>
      <trkpt lat="40.824960" lon="-3.628707">
        <ele>913.37</ele>
        <time>2022-06-19T09:22:27+00:00</time>
      </trkpt>
      <trkpt lat="40.824938" lon="-3.628621">
        <ele>912.89</ele>
        <time>2022-06-19T09:22:28+00:00</time>
      </trkpt>
      <trkpt lat="40.824852" lon="-3.628535">
        <ele>912.41</ele>
        <time>2022-06-19T09:22:29+00:00</time>
      </trkpt>
      <trkpt lat="40.824745" lon="-3.628514">
        <ele>911.45</ele>
        <time>2022-06-19T09:22:30+00:00</time>
      </trkpt>
      <trkpt lat="40.823565" lon="-3.628128">
        <ele>907.12</ele>
        <time>2022-06-19T09:22:39+00:00</time>
      </trkpt>
      <trkpt lat="40.822299" lon="-3.627720">
        <ele>907.12</ele>
        <time>2022-06-19T09:22:48+00:00</time>
      </trkpt>
      <trkpt lat="40.822213" lon="-3.627698">
        <ele>907.60</ele>
        <time>2022-06-19T09:22:49+00:00</time>
      </trkpt>
      <trkpt lat="40.822106" lon="-3.627763">
        <ele>908.08</ele>
        <time>2022-06-19T09:22:50+00:00</time>
      </trkpt>
      <trkpt lat="40.822063" lon="-3.627784">
        <ele>908.08</ele>
        <time>2022-06-19T09:22:51+00:00</time>
      </trkpt>
      <trkpt lat="40.821999" lon="-3.627849">
        <ele>908.08</ele>
        <time>2022-06-19T09:22:52+00:00</time>
      </trkpt>
      <trkpt lat="40.821977" lon="-3.627934">
        <ele>908.08</ele>
        <time>2022-06-19T09:22:53+00:00</time>
      </trkpt>
      <trkpt lat="40.821934" lon="-3.628020">
        <ele>908.56</ele>
        <time>2022-06-19T09:22:54+00:00</time>
      </trkpt>
      <trkpt lat="40.821870" lon="-3.628128">
        <ele>908.08</ele>
        <time>2022-06-19T09:22:55+00:00</time>
      </trkpt>
      <trkpt lat="40.821805" lon="-3.628256">
        <ele>908.08</ele>
        <time>2022-06-19T09:22:56+00:00</time>
      </trkpt>
      <trkpt lat="40.821720" lon="-3.628385">
        <ele>907.60</ele>
        <time>2022-06-19T09:22:57+00:00</time>
      </trkpt>
      <trkpt lat="40.821655" lon="-3.628557">
        <ele>907.12</ele>
        <time>2022-06-19T09:22:58+00:00</time>
      </trkpt>
      <trkpt lat="40.821591" lon="-3.628750">
        <ele>906.16</ele>
        <time>2022-06-19T09:22:59+00:00</time>
      </trkpt>
      <trkpt lat="40.821548" lon="-3.628964">
        <ele>904.72</ele>
        <time>2022-06-19T09:23:00+00:00</time>
      </trkpt>
      <trkpt lat="40.821505" lon="-3.629222">
        <ele>903.28</ele>
        <time>2022-06-19T09:23:01+00:00</time>
      </trkpt>
      <trkpt lat="40.821484" lon="-3.629501">
        <ele>902.32</ele>
        <time>2022-06-19T09:23:02+00:00</time>
      </trkpt>
      <trkpt lat="40.821333" lon="-3.632183">
        <ele>890.78</ele>
        <time>2022-06-19T09:23:11+00:00</time>
      </trkpt>
      <trkpt lat="40.821205" lon="-3.635101">
        <ele>880.69</ele>
        <time>2022-06-19T09:23:20+00:00</time>
      </trkpt>
      <trkpt lat="40.821376" lon="-3.638299">
        <ele>873.96</ele>
        <time>2022-06-19T09:23:30+00:00</time>
      </trkpt>
      <trkpt lat="40.821290" lon="-3.640273">
        <ele>871.07</ele>
        <time>2022-06-19T09:23:36+00:00</time>
      </trkpt>
      <trkpt lat="40.821312" lon="-3.640616">
        <ele>871.07</ele>
        <time>2022-06-19T09:23:37+00:00</time>
      </trkpt>
      <trkpt lat="40.821355" lon="-3.640959">
        <ele>870.59</ele>
        <time>2022-06-19T09:23:38+00:00</time>
      </trkpt>
      <trkpt lat="40.821848" lon="-3.644199">
        <ele>868.19</ele>
        <time>2022-06-19T09:23:48+00:00</time>
      </trkpt>
      <trkpt lat="40.821956" lon="-3.645337">
        <ele>868.19</ele>
        <time>2022-06-19T09:23:52+00:00</time>
      </trkpt>
      <trkpt lat="40.821934" lon="-3.645637">
        <ele>868.19</ele>
        <time>2022-06-19T09:23:53+00:00</time>
      </trkpt>
      <trkpt lat="40.821870" lon="-3.646774">
        <ele>868.19</ele>
        <time>2022-06-19T09:23:57+00:00</time>
      </trkpt>
      <trkpt lat="40.821870" lon="-3.647075">
        <ele>868.19</ele>
        <time>2022-06-19T09:23:58+00:00</time>
      </trkpt>
      <trkpt lat="40.821913" lon="-3.647354">
        <ele>868.67</ele>
        <time>2022-06-19T09:23:59+00:00</time>
      </trkpt>
      <trkpt lat="40.821977" lon="-3.647633">
        <ele>869.63</ele>
        <time>2022-06-19T09:24:00+00:00</time>
      </trkpt>
      <trkpt lat="40.822063" lon="-3.647912">
        <ele>870.11</ele>
        <time>2022-06-19T09:24:01+00:00</time>
      </trkpt>
      <trkpt lat="40.822514" lon="-3.649178">
        <ele>874.92</ele>
        <time>2022-06-19T09:24:06+00:00</time>
      </trkpt>
      <trkpt lat="40.822621" lon="-3.649414">
        <ele>875.88</ele>
        <time>2022-06-19T09:24:07+00:00</time>
      </trkpt>
      <trkpt lat="40.822771" lon="-3.649628">
        <ele>876.36</ele>
        <time>2022-06-19T09:24:08+00:00</time>
      </trkpt>
      <trkpt lat="40.822943" lon="-3.649821">
        <ele>877.32</ele>
        <time>2022-06-19T09:24:09+00:00</time>
      </trkpt>
      <trkpt lat="40.823136" lon="-3.649993">
        <ele>877.80</ele>
        <time>2022-06-19T09:24:10+00:00</time>
      </trkpt>
      <trkpt lat="40.823308" lon="-3.650186">
        <ele>878.28</ele>
        <time>2022-06-19T09:24:11+00:00</time>
      </trkpt>
      <trkpt lat="40.823973" lon="-3.650851">
        <ele>880.21</ele>
        <time>2022-06-19T09:24:15+00:00</time>
      </trkpt>
      <trkpt lat="40.824101" lon="-3.651087">
        <ele>881.17</ele>
        <time>2022-06-19T09:24:16+00:00</time>
      </trkpt>
      <trkpt lat="40.824187" lon="-3.651323">
        <ele>881.65</ele>
        <time>2022-06-19T09:24:17+00:00</time>
      </trkpt>
      <trkpt lat="40.824273" lon="-3.651602">
        <ele>882.13</ele>
        <time>2022-06-19T09:24:18+00:00</time>
      </trkpt>
      <trkpt lat="40.824316" lon="-3.651903">
        <ele>882.61</ele>
        <time>2022-06-19T09:24:19+00:00</time>
      </trkpt>
      <trkpt lat="40.824359" lon="-3.652182">
        <ele>883.57</ele>
        <time>2022-06-19T09:24:20+00:00</time>
      </trkpt>
      <trkpt lat="40.824552" lon="-3.653169">
        <ele>886.94</ele>
        <time>2022-06-19T09:24:24+00:00</time>
      </trkpt>
      <trkpt lat="40.824638" lon="-3.653383">
        <ele>887.42</ele>
        <time>2022-06-19T09:24:25+00:00</time>
      </trkpt>
      <trkpt lat="40.824702" lon="-3.653598">
        <ele>887.90</ele>
        <time>2022-06-19T09:24:26+00:00</time>
      </trkpt>
      <trkpt lat="40.824831" lon="-3.653791">
        <ele>888.86</ele>
        <time>2022-06-19T09:24:27+00:00</time>
      </trkpt>
      <trkpt lat="40.824938" lon="-3.653984">
        <ele>889.34</ele>
        <time>2022-06-19T09:24:28+00:00</time>
      </trkpt>
      <trkpt lat="40.825089" lon="-3.654199">
        <ele>890.30</ele>
        <time>2022-06-19T09:24:29+00:00</time>
      </trkpt>
      <trkpt lat="40.825947" lon="-3.655958">
        <ele>895.59</ele>
        <time>2022-06-19T09:24:37+00:00</time>
      </trkpt>
      <trkpt lat="40.826462" lon="-3.657010">
        <ele>896.07</ele>
        <time>2022-06-19T09:24:43+00:00</time>
      </trkpt>
      <trkpt lat="40.826591" lon="-3.657224">
        <ele>896.07</ele>
        <time>2022-06-19T09:24:45+00:00</time>
      </trkpt>
      <trkpt lat="40.826569" lon="-3.657289">
        <ele>895.59</ele>
        <time>2022-06-19T09:24:46+00:00</time>
      </trkpt>
      <trkpt lat="40.826526" lon="-3.657374">
        <ele>895.59</ele>
        <time>2022-06-19T09:24:47+00:00</time>
      </trkpt>
      <trkpt lat="40.826483" lon="-3.657482">
        <ele>895.59</ele>
        <time>2022-06-19T09:24:48+00:00</time>
      </trkpt>
      <trkpt lat="40.826440" lon="-3.657610">
        <ele>895.59</ele>
        <time>2022-06-19T09:24:49+00:00</time>
      </trkpt>
      <trkpt lat="40.826419" lon="-3.657739">
        <ele>895.59</ele>
        <time>2022-06-19T09:24:50+00:00</time>
      </trkpt>
      <trkpt lat="40.826397" lon="-3.657868">
        <ele>895.59</ele>
        <time>2022-06-19T09:24:51+00:00</time>
      </trkpt>
      <trkpt lat="40.826033" lon="-3.659155">
        <ele>896.55</ele>
        <time>2022-06-19T09:25:02+00:00</time>
      </trkpt>
      <trkpt lat="40.825582" lon="-3.660185">
        <ele>897.99</ele>
        <time>2022-06-19T09:25:07+00:00</time>
      </trkpt>
      <trkpt lat="40.825260" lon="-3.660893">
        <ele>899.43</ele>
        <time>2022-06-19T09:25:10+00:00</time>
      </trkpt>
      <trkpt lat="40.825174" lon="-3.661151">
        <ele>899.91</ele>
        <time>2022-06-19T09:25:11+00:00</time>
      </trkpt>
      <trkpt lat="40.825110" lon="-3.661451">
        <ele>899.91</ele>
        <time>2022-06-19T09:25:12+00:00</time>
      </trkpt>
      <trkpt lat="40.824831" lon="-3.663898">
        <ele>901.35</ele>
        <time>2022-06-19T09:25:20+00:00</time>
      </trkpt>
      <trkpt lat="40.824702" lon="-3.664842">
        <ele>901.35</ele>
        <time>2022-06-19T09:25:24+00:00</time>
      </trkpt>
      <trkpt lat="40.824638" lon="-3.665035">
        <ele>900.87</ele>
        <time>2022-06-19T09:25:25+00:00</time>
      </trkpt>
      <trkpt lat="40.824552" lon="-3.665206">
        <ele>900.87</ele>
        <time>2022-06-19T09:25:26+00:00</time>
      </trkpt>
      <trkpt lat="40.824445" lon="-3.665357">
        <ele>900.87</ele>
        <time>2022-06-19T09:25:27+00:00</time>
      </trkpt>
      <trkpt lat="40.824359" lon="-3.665485">
        <ele>901.35</ele>
        <time>2022-06-19T09:25:28+00:00</time>
      </trkpt>
      <trkpt lat="40.824037" lon="-3.665979">
        <ele>900.39</ele>
        <time>2022-06-19T09:25:32+00:00</time>
      </trkpt>
      <trkpt lat="40.823951" lon="-3.666194">
        <ele>899.91</ele>
        <time>2022-06-19T09:25:33+00:00</time>
      </trkpt>
      <trkpt lat="40.823908" lon="-3.666408">
        <ele>898.95</ele>
        <time>2022-06-19T09:25:34+00:00</time>
      </trkpt>
      <trkpt lat="40.823865" lon="-3.666666">
        <ele>898.47</ele>
        <time>2022-06-19T09:25:35+00:00</time>
      </trkpt>
      <trkpt lat="40.823822" lon="-3.666902">
        <ele>897.51</ele>
        <time>2022-06-19T09:25:36+00:00</time>
      </trkpt>
      <trkpt lat="40.823694" lon="-3.668060">
        <ele>894.63</ele>
        <time>2022-06-19T09:25:41+00:00</time>
      </trkpt>
      <trkpt lat="40.823715" lon="-3.668275">
        <ele>894.15</ele>
        <time>2022-06-19T09:25:42+00:00</time>
      </trkpt>
      <trkpt lat="40.823758" lon="-3.668489">
        <ele>894.15</ele>
        <time>2022-06-19T09:25:43+00:00</time>
      </trkpt>
      <trkpt lat="40.823822" lon="-3.668683">
        <ele>893.66</ele>
        <time>2022-06-19T09:25:44+00:00</time>
      </trkpt>
      <trkpt lat="40.823908" lon="-3.668876">
        <ele>893.18</ele>
        <time>2022-06-19T09:25:45+00:00</time>
      </trkpt>
      <trkpt lat="40.823973" lon="-3.669047">
        <ele>893.18</ele>
        <time>2022-06-19T09:25:46+00:00</time>
      </trkpt>
      <trkpt lat="40.824080" lon="-3.669391">
        <ele>892.70</ele>
        <time>2022-06-19T09:25:48+00:00</time>
      </trkpt>
      <trkpt lat="40.824101" lon="-3.669541">
        <ele>892.70</ele>
        <time>2022-06-19T09:25:49+00:00</time>
      </trkpt>
      <trkpt lat="40.824101" lon="-3.669713">
        <ele>892.70</ele>
        <time>2022-06-19T09:25:50+00:00</time>
      </trkpt>
      <trkpt lat="40.824101" lon="-3.669906">
        <ele>892.70</ele>
        <time>2022-06-19T09:25:51+00:00</time>
      </trkpt>
      <trkpt lat="40.824059" lon="-3.670077">
        <ele>892.70</ele>
        <time>2022-06-19T09:25:52+00:00</time>
      </trkpt>
      <trkpt lat="40.824016" lon="-3.670270">
        <ele>892.70</ele>
        <time>2022-06-19T09:25:53+00:00</time>
      </trkpt>
      <trkpt lat="40.823372" lon="-3.671880">
        <ele>897.03</ele>
        <time>2022-06-19T09:26:02+00:00</time>
      </trkpt>
      <trkpt lat="40.823071" lon="-3.672502">
        <ele>900.87</ele>
        <time>2022-06-19T09:26:07+00:00</time>
      </trkpt>
      <trkpt lat="40.823050" lon="-3.672631">
        <ele>900.87</ele>
        <time>2022-06-19T09:26:08+00:00</time>
      </trkpt>
      <trkpt lat="40.823029" lon="-3.672760">
        <ele>901.35</ele>
        <time>2022-06-19T09:26:09+00:00</time>
      </trkpt>
      <trkpt lat="40.822878" lon="-3.674133">
        <ele>902.32</ele>
        <time>2022-06-19T09:26:19+00:00</time>
      </trkpt>
      <trkpt lat="40.822835" lon="-3.674219">
        <ele>902.32</ele>
        <time>2022-06-19T09:26:20+00:00</time>
      </trkpt>
      <trkpt lat="40.822793" lon="-3.674305">
        <ele>902.80</ele>
        <time>2022-06-19T09:26:21+00:00</time>
      </trkpt>
      <trkpt lat="40.822728" lon="-3.674369">
        <ele>902.80</ele>
        <time>2022-06-19T09:26:22+00:00</time>
      </trkpt>
      <trkpt lat="40.822685" lon="-3.674455">
        <ele>902.80</ele>
        <time>2022-06-19T09:26:23+00:00</time>
      </trkpt>
      <trkpt lat="40.822642" lon="-3.674562">
        <ele>902.80</ele>
        <time>2022-06-19T09:26:24+00:00</time>
      </trkpt>
      <trkpt lat="40.822621" lon="-3.674669">
        <ele>902.80</ele>
        <time>2022-06-19T09:26:25+00:00</time>
      </trkpt>
      <trkpt lat="40.822599" lon="-3.674777">
        <ele>902.80</ele>
        <time>2022-06-19T09:26:26+00:00</time>
      </trkpt>
      <trkpt lat="40.822621" lon="-3.674905">
        <ele>902.80</ele>
        <time>2022-06-19T09:26:27+00:00</time>
      </trkpt>
      <trkpt lat="40.822621" lon="-3.675034">
        <ele>902.80</ele>
        <time>2022-06-19T09:26:28+00:00</time>
      </trkpt>
      <trkpt lat="40.822621" lon="-3.675163">
        <ele>902.32</ele>
        <time>2022-06-19T09:26:29+00:00</time>
      </trkpt>
      <trkpt lat="40.822599" lon="-3.675699">
        <ele>901.84</ele>
        <time>2022-06-19T09:26:34+00:00</time>
      </trkpt>
      <trkpt lat="40.822599" lon="-3.675785">
        <ele>901.84</ele>
        <time>2022-06-19T09:26:35+00:00</time>
      </trkpt>
      <trkpt lat="40.822578" lon="-3.675892">
        <ele>901.84</ele>
        <time>2022-06-19T09:26:36+00:00</time>
      </trkpt>
      <trkpt lat="40.822556" lon="-3.676000">
        <ele>901.35</ele>
        <time>2022-06-19T09:26:37+00:00</time>
      </trkpt>
      <trkpt lat="40.822556" lon="-3.676086">
        <ele>901.35</ele>
        <time>2022-06-19T09:26:38+00:00</time>
      </trkpt>
      <trkpt lat="40.822471" lon="-3.676686">
        <ele>902.80</ele>
        <time>2022-06-19T09:26:43+00:00</time>
      </trkpt>
      <trkpt lat="40.822449" lon="-3.676837">
        <ele>903.28</ele>
        <time>2022-06-19T09:26:44+00:00</time>
      </trkpt>
      <trkpt lat="40.822320" lon="-3.676879">
        <ele>904.24</ele>
        <time>2022-06-19T09:26:45+00:00</time>
      </trkpt>
      <trkpt lat="40.822256" lon="-3.676922">
        <ele>904.24</ele>
        <time>2022-06-19T09:26:46+00:00</time>
      </trkpt>
      <trkpt lat="40.822127" lon="-3.676965">
        <ele>904.72</ele>
        <time>2022-06-19T09:26:47+00:00</time>
      </trkpt>
      <trkpt lat="40.822020" lon="-3.677030">
        <ele>905.68</ele>
        <time>2022-06-19T09:26:48+00:00</time>
      </trkpt>
      <trkpt lat="40.821012" lon="-3.677459">
        <ele>907.12</ele>
        <time>2022-06-19T09:26:56+00:00</time>
      </trkpt>
      <trkpt lat="40.820454" lon="-3.677437">
        <ele>906.16</ele>
        <time>2022-06-19T09:27:01+00:00</time>
      </trkpt>
      <trkpt lat="40.820346" lon="-3.677373">
        <ele>906.16</ele>
        <time>2022-06-19T09:27:02+00:00</time>
      </trkpt>
      <trkpt lat="40.820218" lon="-3.677330">
        <ele>906.16</ele>
        <time>2022-06-19T09:27:03+00:00</time>
      </trkpt>
      <trkpt lat="40.819853" lon="-3.677180">
        <ele>907.60</ele>
        <time>2022-06-19T09:27:06+00:00</time>
      </trkpt>
      <trkpt lat="40.819703" lon="-3.677180">
        <ele>908.08</ele>
        <time>2022-06-19T09:27:07+00:00</time>
      </trkpt>
      <trkpt lat="40.819552" lon="-3.677223">
        <ele>908.08</ele>
        <time>2022-06-19T09:27:08+00:00</time>
      </trkpt>
      <trkpt lat="40.819424" lon="-3.677330">
        <ele>908.56</ele>
        <time>2022-06-19T09:27:09+00:00</time>
      </trkpt>
      <trkpt lat="40.819273" lon="-3.677480">
        <ele>908.56</ele>
        <time>2022-06-19T09:27:10+00:00</time>
      </trkpt>
      <trkpt lat="40.819145" lon="-3.677609">
        <ele>909.05</ele>
        <time>2022-06-19T09:27:11+00:00</time>
      </trkpt>
      <trkpt lat="40.818995" lon="-3.677759">
        <ele>909.53</ele>
        <time>2022-06-19T09:27:12+00:00</time>
      </trkpt>
      <trkpt lat="40.818866" lon="-3.677909">
        <ele>910.01</ele>
        <time>2022-06-19T09:27:13+00:00</time>
      </trkpt>
      <trkpt lat="40.817729" lon="-3.679454">
        <ele>916.74</ele>
        <time>2022-06-19T09:27:22+00:00</time>
      </trkpt>
      <trkpt lat="40.816806" lon="-3.680849">
        <ele>920.10</ele>
        <time>2022-06-19T09:27:28+00:00</time>
      </trkpt>
      <trkpt lat="40.816505" lon="-3.681235">
        <ele>921.06</ele>
        <time>2022-06-19T09:27:30+00:00</time>
      </trkpt>
      <trkpt lat="40.816312" lon="-3.681386">
        <ele>921.54</ele>
        <time>2022-06-19T09:27:31+00:00</time>
      </trkpt>
      <trkpt lat="40.816098" lon="-3.681514">
        <ele>922.02</ele>
        <time>2022-06-19T09:27:32+00:00</time>
      </trkpt>
      <trkpt lat="40.815883" lon="-3.681579">
        <ele>922.50</ele>
        <time>2022-06-19T09:27:33+00:00</time>
      </trkpt>
      <trkpt lat="40.815647" lon="-3.681579">
        <ele>922.50</ele>
        <time>2022-06-19T09:27:34+00:00</time>
      </trkpt>
      <trkpt lat="40.815411" lon="-3.681579">
        <ele>922.50</ele>
        <time>2022-06-19T09:27:35+00:00</time>
      </trkpt>
      <trkpt lat="40.815154" lon="-3.681579">
        <ele>922.50</ele>
        <time>2022-06-19T09:27:36+00:00</time>
      </trkpt>
      <trkpt lat="40.814918" lon="-3.681557">
        <ele>922.02</ele>
        <time>2022-06-19T09:27:37+00:00</time>
      </trkpt>
      <trkpt lat="40.814403" lon="-3.681557">
        <ele>922.02</ele>
        <time>2022-06-19T09:27:39+00:00</time>
      </trkpt>
      <trkpt lat="40.814124" lon="-3.681600">
        <ele>921.54</ele>
        <time>2022-06-19T09:27:40+00:00</time>
      </trkpt>
      <trkpt lat="40.813845" lon="-3.681686">
        <ele>921.06</ele>
        <time>2022-06-19T09:27:41+00:00</time>
      </trkpt>
      <trkpt lat="40.812729" lon="-3.682094">
        <ele>920.58</ele>
        <time>2022-06-19T09:27:46+00:00</time>
      </trkpt>
      <trkpt lat="40.812536" lon="-3.682222">
        <ele>920.10</ele>
        <time>2022-06-19T09:27:47+00:00</time>
      </trkpt>
      <trkpt lat="40.812364" lon="-3.682394">
        <ele>920.10</ele>
        <time>2022-06-19T09:27:48+00:00</time>
      </trkpt>
      <trkpt lat="40.811935" lon="-3.682909">
        <ele>919.62</ele>
        <time>2022-06-19T09:27:51+00:00</time>
      </trkpt>
      <trkpt lat="40.811828" lon="-3.683102">
        <ele>919.62</ele>
        <time>2022-06-19T09:27:52+00:00</time>
      </trkpt>
      <trkpt lat="40.811785" lon="-3.683295">
        <ele>920.10</ele>
        <time>2022-06-19T09:27:53+00:00</time>
      </trkpt>
      <trkpt lat="40.811806" lon="-3.683531">
        <ele>921.06</ele>
        <time>2022-06-19T09:27:54+00:00</time>
      </trkpt>
      <trkpt lat="40.811849" lon="-3.683810">
        <ele>922.02</ele>
        <time>2022-06-19T09:27:55+00:00</time>
      </trkpt>
      <trkpt lat="40.811892" lon="-3.684068">
        <ele>922.98</ele>
        <time>2022-06-19T09:27:56+00:00</time>
      </trkpt>
      <trkpt lat="40.811935" lon="-3.684368">
        <ele>924.43</ele>
        <time>2022-06-19T09:27:57+00:00</time>
      </trkpt>
      <trkpt lat="40.811956" lon="-3.684669">
        <ele>925.87</ele>
        <time>2022-06-19T09:27:58+00:00</time>
      </trkpt>
      <trkpt lat="40.811956" lon="-3.684969">
        <ele>927.31</ele>
        <time>2022-06-19T09:27:59+00:00</time>
      </trkpt>
      <trkpt lat="40.811935" lon="-3.685269">
        <ele>928.75</ele>
        <time>2022-06-19T09:28:00+00:00</time>
      </trkpt>
      <trkpt lat="40.811913" lon="-3.685570">
        <ele>930.19</ele>
        <time>2022-06-19T09:28:01+00:00</time>
      </trkpt>
      <trkpt lat="40.811849" lon="-3.686342">
        <ele>933.56</ele>
        <time>2022-06-19T09:28:04+00:00</time>
      </trkpt>
      <trkpt lat="40.811785" lon="-3.686535">
        <ele>935.00</ele>
        <time>2022-06-19T09:28:05+00:00</time>
      </trkpt>
      <trkpt lat="40.811699" lon="-3.686729">
        <ele>935.96</ele>
        <time>2022-06-19T09:28:06+00:00</time>
      </trkpt>
      <trkpt lat="40.811570" lon="-3.686836">
        <ele>936.44</ele>
        <time>2022-06-19T09:28:07+00:00</time>
      </trkpt>
      <trkpt lat="40.811441" lon="-3.686943">
        <ele>936.92</ele>
        <time>2022-06-19T09:28:08+00:00</time>
      </trkpt>
      <trkpt lat="40.811270" lon="-3.687007">
        <ele>936.92</ele>
        <time>2022-06-19T09:28:09+00:00</time>
      </trkpt>
      <trkpt lat="40.811098" lon="-3.687072">
        <ele>936.92</ele>
        <time>2022-06-19T09:28:10+00:00</time>
      </trkpt>
      <trkpt lat="40.810905" lon="-3.687136">
        <ele>935.96</ele>
        <time>2022-06-19T09:28:11+00:00</time>
      </trkpt>
      <trkpt lat="40.810755" lon="-3.687244">
        <ele>935.48</ele>
        <time>2022-06-19T09:28:12+00:00</time>
      </trkpt>
      <trkpt lat="40.810647" lon="-3.687394">
        <ele>934.52</ele>
        <time>2022-06-19T09:28:13+00:00</time>
      </trkpt>
      <trkpt lat="40.810540" lon="-3.687544">
        <ele>933.08</ele>
        <time>2022-06-19T09:28:14+00:00</time>
      </trkpt>
      <trkpt lat="40.810497" lon="-3.687780">
        <ele>932.12</ele>
        <time>2022-06-19T09:28:15+00:00</time>
      </trkpt>
      <trkpt lat="40.810476" lon="-3.688037">
        <ele>931.16</ele>
        <time>2022-06-19T09:28:16+00:00</time>
      </trkpt>
      <trkpt lat="40.810476" lon="-3.688338">
        <ele>929.71</ele>
        <time>2022-06-19T09:28:17+00:00</time>
      </trkpt>
      <trkpt lat="40.810454" lon="-3.688617">
        <ele>929.23</ele>
        <time>2022-06-19T09:28:18+00:00</time>
      </trkpt>
      <trkpt lat="40.810433" lon="-3.689110">
        <ele>927.79</ele>
        <time>2022-06-19T09:28:20+00:00</time>
      </trkpt>
      <trkpt lat="40.810369" lon="-3.689303">
        <ele>927.31</ele>
        <time>2022-06-19T09:28:21+00:00</time>
      </trkpt>
      <trkpt lat="40.810304" lon="-3.689497">
        <ele>926.83</ele>
        <time>2022-06-19T09:28:22+00:00</time>
      </trkpt>
      <trkpt lat="40.810197" lon="-3.689668">
        <ele>926.35</ele>
        <time>2022-06-19T09:28:23+00:00</time>
      </trkpt>
      <trkpt lat="40.810047" lon="-3.689840">
        <ele>925.87</ele>
        <time>2022-06-19T09:28:24+00:00</time>
      </trkpt>
      <trkpt lat="40.809896" lon="-3.690012">
        <ele>925.39</ele>
        <time>2022-06-19T09:28:25+00:00</time>
      </trkpt>
      <trkpt lat="40.809467" lon="-3.690419">
        <ele>924.43</ele>
        <time>2022-06-19T09:28:28+00:00</time>
      </trkpt>
      <trkpt lat="40.809317" lon="-3.690505">
        <ele>923.95</ele>
        <time>2022-06-19T09:28:29+00:00</time>
      </trkpt>
      <trkpt lat="40.809145" lon="-3.690591">
        <ele>923.95</ele>
        <time>2022-06-19T09:28:30+00:00</time>
      </trkpt>
      <trkpt lat="40.808244" lon="-3.690891">
        <ele>922.98</ele>
        <time>2022-06-19T09:28:35+00:00</time>
      </trkpt>
      <trkpt lat="40.808051" lon="-3.690848">
        <ele>922.98</ele>
        <time>2022-06-19T09:28:36+00:00</time>
      </trkpt>
      <trkpt lat="40.807858" lon="-3.690805">
        <ele>922.98</ele>
        <time>2022-06-19T09:28:37+00:00</time>
      </trkpt>
      <trkpt lat="40.807279" lon="-3.690591">
        <ele>922.98</ele>
        <time>2022-06-19T09:28:40+00:00</time>
      </trkpt>
      <trkpt lat="40.807064" lon="-3.690548">
        <ele>922.98</ele>
        <time>2022-06-19T09:28:41+00:00</time>
      </trkpt>
      <trkpt lat="40.806828" lon="-3.690527">
        <ele>922.50</ele>
        <time>2022-06-19T09:28:42+00:00</time>
      </trkpt>
      <trkpt lat="40.804961" lon="-3.690376">
        <ele>910.97</ele>
        <time>2022-06-19T09:28:50+00:00</time>
      </trkpt>
      <trkpt lat="40.803910" lon="-3.690376">
        <ele>901.84</ele>
        <time>2022-06-19T09:28:55+00:00</time>
      </trkpt>
      <trkpt lat="40.803717" lon="-3.690462">
        <ele>899.91</ele>
        <time>2022-06-19T09:28:56+00:00</time>
      </trkpt>
      <trkpt lat="40.803502" lon="-3.690569">
        <ele>897.99</ele>
        <time>2022-06-19T09:28:57+00:00</time>
      </trkpt>
      <trkpt lat="40.803309" lon="-3.690677">
        <ele>896.07</ele>
        <time>2022-06-19T09:28:58+00:00</time>
      </trkpt>
      <trkpt lat="40.803137" lon="-3.690848">
        <ele>894.63</ele>
        <time>2022-06-19T09:28:59+00:00</time>
      </trkpt>
      <trkpt lat="40.802966" lon="-3.690977">
        <ele>893.66</ele>
        <time>2022-06-19T09:29:00+00:00</time>
      </trkpt>
      <trkpt lat="40.802815" lon="-3.691106">
        <ele>892.70</ele>
        <time>2022-06-19T09:29:01+00:00</time>
      </trkpt>
      <trkpt lat="40.802644" lon="-3.691192">
        <ele>891.74</ele>
        <time>2022-06-19T09:29:02+00:00</time>
      </trkpt>
      <trkpt lat="40.802515" lon="-3.691213">
        <ele>890.78</ele>
        <time>2022-06-19T09:29:03+00:00</time>
      </trkpt>
      <trkpt lat="40.802365" lon="-3.691235">
        <ele>889.82</ele>
        <time>2022-06-19T09:29:04+00:00</time>
      </trkpt>
      <trkpt lat="40.802215" lon="-3.691170">
        <ele>888.38</ele>
        <time>2022-06-19T09:29:05+00:00</time>
      </trkpt>
      <trkpt lat="40.802043" lon="-3.691063">
        <ele>887.42</ele>
        <time>2022-06-19T09:29:06+00:00</time>
      </trkpt>
      <trkpt lat="40.801850" lon="-3.690956">
        <ele>885.97</ele>
        <time>2022-06-19T09:29:07+00:00</time>
      </trkpt>
      <trkpt lat="40.801163" lon="-3.690548">
        <ele>880.21</ele>
        <time>2022-06-19T09:29:11+00:00</time>
      </trkpt>
      <trkpt lat="40.801013" lon="-3.690484">
        <ele>878.76</ele>
        <time>2022-06-19T09:29:12+00:00</time>
      </trkpt>
      <trkpt lat="40.800863" lon="-3.690505">
        <ele>877.32</ele>
        <time>2022-06-19T09:29:13+00:00</time>
      </trkpt>
      <trkpt lat="40.800713" lon="-3.690548">
        <ele>875.40</ele>
        <time>2022-06-19T09:29:14+00:00</time>
      </trkpt>
      <trkpt lat="40.800562" lon="-3.690634">
        <ele>873.96</ele>
        <time>2022-06-19T09:29:15+00:00</time>
      </trkpt>
      <trkpt lat="40.800412" lon="-3.690763">
        <ele>872.52</ele>
        <time>2022-06-19T09:29:16+00:00</time>
      </trkpt>
      <trkpt lat="40.800262" lon="-3.690870">
        <ele>871.07</ele>
        <time>2022-06-19T09:29:17+00:00</time>
      </trkpt>
      <trkpt lat="40.800112" lon="-3.690934">
        <ele>869.63</ele>
        <time>2022-06-19T09:29:18+00:00</time>
      </trkpt>
      <trkpt lat="40.799940" lon="-3.690913">
        <ele>867.71</ele>
        <time>2022-06-19T09:29:19+00:00</time>
      </trkpt>
      <trkpt lat="40.799747" lon="-3.690870">
        <ele>865.79</ele>
        <time>2022-06-19T09:29:20+00:00</time>
      </trkpt>
      <trkpt lat="40.799554" lon="-3.690784">
        <ele>863.86</ele>
        <time>2022-06-19T09:29:21+00:00</time>
      </trkpt>
      <trkpt lat="40.799339" lon="-3.690677">
        <ele>862.42</ele>
        <time>2022-06-19T09:29:22+00:00</time>
      </trkpt>
      <trkpt lat="40.799125" lon="-3.690634">
        <ele>860.50</ele>
        <time>2022-06-19T09:29:23+00:00</time>
      </trkpt>
      <trkpt lat="40.798932" lon="-3.690569">
        <ele>859.54</ele>
        <time>2022-06-19T09:29:24+00:00</time>
      </trkpt>
      <trkpt lat="40.798738" lon="-3.690548">
        <ele>858.10</ele>
        <time>2022-06-19T09:29:25+00:00</time>
      </trkpt>
      <trkpt lat="40.798545" lon="-3.690548">
        <ele>856.65</ele>
        <time>2022-06-19T09:29:26+00:00</time>
      </trkpt>
      <trkpt lat="40.798331" lon="-3.690548">
        <ele>855.21</ele>
        <time>2022-06-19T09:29:27+00:00</time>
      </trkpt>
      <trkpt lat="40.797365" lon="-3.690698">
        <ele>848.00</ele>
        <time>2022-06-19T09:29:32+00:00</time>
      </trkpt>
      <trkpt lat="40.797194" lon="-3.690784">
        <ele>846.56</ele>
        <time>2022-06-19T09:29:33+00:00</time>
      </trkpt>
      <trkpt lat="40.797022" lon="-3.690934">
        <ele>845.60</ele>
        <time>2022-06-19T09:29:34+00:00</time>
      </trkpt>
      <trkpt lat="40.796872" lon="-3.691084">
        <ele>844.16</ele>
        <time>2022-06-19T09:29:35+00:00</time>
      </trkpt>
      <trkpt lat="40.796764" lon="-3.691299">
        <ele>843.20</ele>
        <time>2022-06-19T09:29:36+00:00</time>
      </trkpt>
      <trkpt lat="40.796636" lon="-3.691514">
        <ele>842.23</ele>
        <time>2022-06-19T09:29:37+00:00</time>
      </trkpt>
      <trkpt lat="40.796550" lon="-3.691750">
        <ele>841.27</ele>
        <time>2022-06-19T09:29:38+00:00</time>
      </trkpt>
      <trkpt lat="40.796485" lon="-3.691986">
        <ele>840.31</ele>
        <time>2022-06-19T09:29:39+00:00</time>
      </trkpt>
      <trkpt lat="40.796421" lon="-3.692222">
        <ele>839.35</ele>
        <time>2022-06-19T09:29:40+00:00</time>
      </trkpt>
      <trkpt lat="40.796164" lon="-3.692951">
        <ele>835.99</ele>
        <time>2022-06-19T09:29:44+00:00</time>
      </trkpt>
      <trkpt lat="40.796078" lon="-3.693101">
        <ele>835.51</ele>
        <time>2022-06-19T09:29:45+00:00</time>
      </trkpt>
      <trkpt lat="40.795992" lon="-3.693209">
        <ele>834.54</ele>
        <time>2022-06-19T09:29:46+00:00</time>
      </trkpt>
      <trkpt lat="40.795885" lon="-3.693273">
        <ele>834.06</ele>
        <time>2022-06-19T09:29:47+00:00</time>
      </trkpt>
      <trkpt lat="40.795756" lon="-3.693316">
        <ele>833.10</ele>
        <time>2022-06-19T09:29:48+00:00</time>
      </trkpt>
      <trkpt lat="40.795670" lon="-3.693316">
        <ele>832.62</ele>
        <time>2022-06-19T09:29:49+00:00</time>
      </trkpt>
      <trkpt lat="40.795520" lon="-3.693252">
        <ele>832.14</ele>
        <time>2022-06-19T09:29:50+00:00</time>
      </trkpt>
      <trkpt lat="40.795348" lon="-3.693166">
        <ele>832.14</ele>
        <time>2022-06-19T09:29:51+00:00</time>
      </trkpt>
      <trkpt lat="40.794104" lon="-3.692458">
        <ele>832.62</ele>
        <time>2022-06-19T09:30:00+00:00</time>
      </trkpt>
      <trkpt lat="40.793610" lon="-3.692243">
        <ele>834.06</ele>
        <time>2022-06-19T09:30:08+00:00</time>
      </trkpt>
      <trkpt lat="40.793567" lon="-3.692222">
        <ele>834.06</ele>
        <time>2022-06-19T09:30:09+00:00</time>
      </trkpt>
      <trkpt lat="40.793546" lon="-3.692200">
        <ele>833.58</ele>
        <time>2022-06-19T09:30:10+00:00</time>
      </trkpt>
      <trkpt lat="40.793503" lon="-3.692179">
        <ele>834.06</ele>
        <time>2022-06-19T09:30:11+00:00</time>
      </trkpt>
      <trkpt lat="40.793396" lon="-3.692243">
        <ele>834.06</ele>
        <time>2022-06-19T09:30:12+00:00</time>
      </trkpt>
      <trkpt lat="40.793396" lon="-3.692243">
        <ele>834.06</ele>
        <time>2022-06-19T09:30:13+00:00</time>
      </trkpt>
      <trkpt lat="40.793267" lon="-3.692415">
        <ele>833.58</ele>
        <time>2022-06-19T09:30:14+00:00</time>
      </trkpt>
      <trkpt lat="40.793224" lon="-3.692544">
        <ele>833.58</ele>
        <time>2022-06-19T09:30:15+00:00</time>
      </trkpt>
      <trkpt lat="40.793202" lon="-3.692737">
        <ele>833.58</ele>
        <time>2022-06-19T09:30:16+00:00</time>
      </trkpt>
      <trkpt lat="40.792838" lon="-3.694046">
        <ele>832.62</ele>
        <time>2022-06-19T09:30:21+00:00</time>
      </trkpt>
      <trkpt lat="40.792022" lon="-3.696127">
        <ele>833.10</ele>
        <time>2022-06-19T09:30:28+00:00</time>
      </trkpt>
      <trkpt lat="40.791057" lon="-3.697822">
        <ele>835.51</ele>
        <time>2022-06-19T09:30:35+00:00</time>
      </trkpt>
      <trkpt lat="40.790091" lon="-3.699625">
        <ele>841.27</ele>
        <time>2022-06-19T09:30:44+00:00</time>
      </trkpt>
      <trkpt lat="40.789361" lon="-3.701320">
        <ele>847.52</ele>
        <time>2022-06-19T09:30:52+00:00</time>
      </trkpt>
      <trkpt lat="40.788761" lon="-3.703358">
        <ele>850.41</ele>
        <time>2022-06-19T09:31:03+00:00</time>
      </trkpt>
      <trkpt lat="40.788224" lon="-3.705225">
        <ele>849.44</ele>
        <time>2022-06-19T09:31:15+00:00</time>
      </trkpt>
      <trkpt lat="40.787645" lon="-3.706191">
        <ele>851.37</ele>
        <time>2022-06-19T09:31:24+00:00</time>
      </trkpt>
      <trkpt lat="40.787580" lon="-3.706255">
        <ele>851.37</ele>
        <time>2022-06-19T09:31:26+00:00</time>
      </trkpt>
      <trkpt lat="40.787538" lon="-3.706276">
        <ele>851.85</ele>
        <time>2022-06-19T09:31:27+00:00</time>
      </trkpt>
      <trkpt lat="40.787516" lon="-3.706298">
        <ele>851.85</ele>
        <time>2022-06-19T09:31:28+00:00</time>
      </trkpt>
      <trkpt lat="40.787473" lon="-3.706319">
        <ele>852.81</ele>
        <time>2022-06-19T09:31:33+00:00</time>
      </trkpt>
      <trkpt lat="40.787409" lon="-3.706598">
        <ele>853.77</ele>
        <time>2022-06-19T09:31:35+00:00</time>
      </trkpt>
      <trkpt lat="40.787302" lon="-3.706641">
        <ele>853.77</ele>
        <time>2022-06-19T09:31:36+00:00</time>
      </trkpt>
      <trkpt lat="40.787173" lon="-3.706641">
        <ele>854.25</ele>
        <time>2022-06-19T09:31:37+00:00</time>
      </trkpt>
      <trkpt lat="40.787087" lon="-3.706727">
        <ele>854.25</ele>
        <time>2022-06-19T09:31:38+00:00</time>
      </trkpt>
      <trkpt lat="40.786980" lon="-3.706813">
        <ele>854.73</ele>
        <time>2022-06-19T09:31:39+00:00</time>
      </trkpt>
      <trkpt lat="40.786872" lon="-3.706899">
        <ele>855.69</ele>
        <time>2022-06-19T09:31:40+00:00</time>
      </trkpt>
      <trkpt lat="40.785478" lon="-3.707650">
        <ele>860.98</ele>
        <time>2022-06-19T09:31:50+00:00</time>
      </trkpt>
      <trkpt lat="40.784083" lon="-3.708572">
        <ele>868.19</ele>
        <time>2022-06-19T09:31:59+00:00</time>
      </trkpt>
      <trkpt lat="40.783654" lon="-3.709281">
        <ele>870.59</ele>
        <time>2022-06-19T09:32:03+00:00</time>
      </trkpt>
      <trkpt lat="40.783568" lon="-3.709517">
        <ele>871.07</ele>
        <time>2022-06-19T09:32:04+00:00</time>
      </trkpt>
      <trkpt lat="40.783482" lon="-3.709753">
        <ele>871.55</ele>
        <time>2022-06-19T09:32:05+00:00</time>
      </trkpt>
      <trkpt lat="40.783439" lon="-3.709989">
        <ele>871.55</ele>
        <time>2022-06-19T09:32:06+00:00</time>
      </trkpt>
      <trkpt lat="40.783396" lon="-3.710225">
        <ele>872.03</ele>
        <time>2022-06-19T09:32:07+00:00</time>
      </trkpt>
      <trkpt lat="40.783375" lon="-3.710482">
        <ele>872.52</ele>
        <time>2022-06-19T09:32:08+00:00</time>
      </trkpt>
      <trkpt lat="40.783353" lon="-3.710740">
        <ele>873.00</ele>
        <time>2022-06-19T09:32:09+00:00</time>
      </trkpt>
      <trkpt lat="40.783203" lon="-3.712692">
        <ele>876.84</ele>
        <time>2022-06-19T09:32:17+00:00</time>
      </trkpt>
      <trkpt lat="40.783139" lon="-3.712950">
        <ele>877.32</ele>
        <time>2022-06-19T09:32:18+00:00</time>
      </trkpt>
      <trkpt lat="40.783053" lon="-3.713186">
        <ele>878.28</ele>
        <time>2022-06-19T09:32:19+00:00</time>
      </trkpt>
      <trkpt lat="40.782946" lon="-3.713422">
        <ele>878.76</ele>
        <time>2022-06-19T09:32:20+00:00</time>
      </trkpt>
      <trkpt lat="40.782860" lon="-3.713658">
        <ele>879.73</ele>
        <time>2022-06-19T09:32:21+00:00</time>
      </trkpt>
      <trkpt lat="40.782710" lon="-3.713872">
        <ele>880.69</ele>
        <time>2022-06-19T09:32:22+00:00</time>
      </trkpt>
      <trkpt lat="40.782581" lon="-3.714066">
        <ele>881.17</ele>
        <time>2022-06-19T09:32:23+00:00</time>
      </trkpt>
      <trkpt lat="40.782431" lon="-3.714259">
        <ele>882.13</ele>
        <time>2022-06-19T09:32:24+00:00</time>
      </trkpt>
      <trkpt lat="40.781572" lon="-3.715503">
        <ele>887.42</ele>
        <time>2022-06-19T09:32:31+00:00</time>
      </trkpt>
      <trkpt lat="40.781487" lon="-3.715739">
        <ele>887.90</ele>
        <time>2022-06-19T09:32:32+00:00</time>
      </trkpt>
      <trkpt lat="40.781422" lon="-3.715954">
        <ele>888.86</ele>
        <time>2022-06-19T09:32:33+00:00</time>
      </trkpt>
      <trkpt lat="40.781336" lon="-3.716147">
        <ele>889.82</ele>
        <time>2022-06-19T09:32:34+00:00</time>
      </trkpt>
      <trkpt lat="40.781315" lon="-3.716297">
        <ele>890.78</ele>
        <time>2022-06-19T09:32:35+00:00</time>
      </trkpt>
      <trkpt lat="40.781208" lon="-3.716855">
        <ele>897.03</ele>
        <time>2022-06-19T09:32:41+00:00</time>
      </trkpt>
      <trkpt lat="40.781186" lon="-3.717220">
        <ele>904.72</ele>
        <time>2022-06-19T09:32:49+00:00</time>
      </trkpt>
      <trkpt lat="40.781186" lon="-3.717284">
        <ele>905.20</ele>
        <time>2022-06-19T09:32:50+00:00</time>
      </trkpt>
      <trkpt lat="40.781165" lon="-3.717349">
        <ele>905.68</ele>
        <time>2022-06-19T09:32:51+00:00</time>
      </trkpt>
      <trkpt lat="40.781165" lon="-3.717542">
        <ele>910.97</ele>
        <time>2022-06-19T09:33:00+00:00</time>
      </trkpt>
      <trkpt lat="40.781165" lon="-3.717542">
        <ele>912.41</ele>
        <time>2022-06-19T09:33:26+00:00</time>
      </trkpt>
      <trkpt lat="40.779791" lon="-3.723443">
        <ele>928.75</ele>
        <time>2022-06-19T09:36:45+00:00</time>
      </trkpt>
      <trkpt lat="40.779598" lon="-3.723550">
        <ele>929.71</ele>
        <time>2022-06-19T09:36:46+00:00</time>
      </trkpt>
      <trkpt lat="40.778676" lon="-3.723915">
        <ele>932.60</ele>
        <time>2022-06-19T09:36:50+00:00</time>
      </trkpt>
      <trkpt lat="40.778440" lon="-3.723979">
        <ele>933.56</ele>
        <time>2022-06-19T09:36:51+00:00</time>
      </trkpt>
      <trkpt lat="40.775908" lon="-3.724880">
        <ele>943.65</ele>
        <time>2022-06-19T09:37:02+00:00</time>
      </trkpt>
      <trkpt lat="40.775714" lon="-3.725052">
        <ele>944.13</ele>
        <time>2022-06-19T09:37:03+00:00</time>
      </trkpt>
      <trkpt lat="40.775500" lon="-3.725245">
        <ele>945.09</ele>
        <time>2022-06-19T09:37:04+00:00</time>
      </trkpt>
      <trkpt lat="40.773440" lon="-3.727219">
        <ele>951.34</ele>
        <time>2022-06-19T09:37:13+00:00</time>
      </trkpt>
      <trkpt lat="40.771208" lon="-3.729579">
        <ele>957.59</ele>
        <time>2022-06-19T09:37:24+00:00</time>
      </trkpt>
      <trkpt lat="40.771058" lon="-3.729858">
        <ele>958.07</ele>
        <time>2022-06-19T09:37:25+00:00</time>
      </trkpt>
      <trkpt lat="40.770908" lon="-3.730137">
        <ele>958.07</ele>
        <time>2022-06-19T09:37:26+00:00</time>
      </trkpt>
      <trkpt lat="40.770779" lon="-3.730438">
        <ele>958.55</ele>
        <time>2022-06-19T09:37:27+00:00</time>
      </trkpt>
      <trkpt lat="40.769406" lon="-3.733892">
        <ele>965.76</ele>
        <time>2022-06-19T09:37:38+00:00</time>
      </trkpt>
      <trkpt lat="40.768633" lon="-3.736618">
        <ele>967.69</ele>
        <time>2022-06-19T09:37:46+00:00</time>
      </trkpt>
      <trkpt lat="40.767260" lon="-3.742089">
        <ele>971.05</ele>
        <time>2022-06-19T09:38:02+00:00</time>
      </trkpt>
      <trkpt lat="40.766209" lon="-3.745801">
        <ele>977.78</ele>
        <time>2022-06-19T09:38:14+00:00</time>
      </trkpt>
      <trkpt lat="40.765479" lon="-3.747153">
        <ele>984.51</ele>
        <time>2022-06-19T09:38:20+00:00</time>
      </trkpt>
      <trkpt lat="40.765286" lon="-3.747454">
        <ele>985.95</ele>
        <time>2022-06-19T09:38:22+00:00</time>
      </trkpt>
      <trkpt lat="40.765222" lon="-3.747604">
        <ele>986.91</ele>
        <time>2022-06-19T09:38:23+00:00</time>
      </trkpt>
      <trkpt lat="40.765157" lon="-3.747754">
        <ele>987.39</ele>
        <time>2022-06-19T09:38:24+00:00</time>
      </trkpt>
      <trkpt lat="40.765093" lon="-3.747904">
        <ele>987.87</ele>
        <time>2022-06-19T09:38:25+00:00</time>
      </trkpt>
      <trkpt lat="40.765093" lon="-3.748055">
        <ele>988.35</ele>
        <time>2022-06-19T09:38:26+00:00</time>
      </trkpt>
      <trkpt lat="40.765028" lon="-3.748162">
        <ele>988.83</ele>
        <time>2022-06-19T09:38:27+00:00</time>
      </trkpt>
      <trkpt lat="40.764943" lon="-3.748269">
        <ele>989.31</ele>
        <time>2022-06-19T09:38:28+00:00</time>
      </trkpt>
      <trkpt lat="40.764857" lon="-3.748398">
        <ele>989.80</ele>
        <time>2022-06-19T09:38:29+00:00</time>
      </trkpt>
      <trkpt lat="40.764792" lon="-3.748527">
        <ele>990.28</ele>
        <time>2022-06-19T09:38:30+00:00</time>
      </trkpt>
      <trkpt lat="40.764707" lon="-3.748677">
        <ele>990.76</ele>
        <time>2022-06-19T09:38:31+00:00</time>
      </trkpt>
      <trkpt lat="40.764621" lon="-3.748806">
        <ele>991.24</ele>
        <time>2022-06-19T09:38:32+00:00</time>
      </trkpt>
      <trkpt lat="40.764556" lon="-3.748956">
        <ele>991.72</ele>
        <time>2022-06-19T09:38:33+00:00</time>
      </trkpt>
      <trkpt lat="40.764513" lon="-3.749106">
        <ele>992.20</ele>
        <time>2022-06-19T09:38:34+00:00</time>
      </trkpt>
      <trkpt lat="40.763870" lon="-3.750565">
        <ele>997.01</ele>
        <time>2022-06-19T09:38:43+00:00</time>
      </trkpt>
      <trkpt lat="40.763097" lon="-3.752410">
        <ele>999.41</ele>
        <time>2022-06-19T09:38:53+00:00</time>
      </trkpt>
      <trkpt lat="40.762604" lon="-3.754234">
        <ele>997.49</ele>
        <time>2022-06-19T09:39:03+00:00</time>
      </trkpt>
      <trkpt lat="40.762218" lon="-3.755693">
        <ele>993.16</ele>
        <time>2022-06-19T09:39:10+00:00</time>
      </trkpt>
      <trkpt lat="40.761424" lon="-3.758440">
        <ele>985.47</ele>
        <time>2022-06-19T09:39:22+00:00</time>
      </trkpt>
      <trkpt lat="40.760673" lon="-3.760071">
        <ele>983.55</ele>
        <time>2022-06-19T09:39:30+00:00</time>
      </trkpt>
      <trkpt lat="40.759986" lon="-3.761959">
        <ele>980.18</ele>
        <time>2022-06-19T09:39:39+00:00</time>
      </trkpt>
      <trkpt lat="40.759557" lon="-3.763568">
        <ele>976.82</ele>
        <time>2022-06-19T09:39:47+00:00</time>
      </trkpt>
      <trkpt lat="40.759407" lon="-3.764105">
        <ele>975.86</ele>
        <time>2022-06-19T09:39:51+00:00</time>
      </trkpt>
      <trkpt lat="40.759364" lon="-3.764191">
        <ele>975.38</ele>
        <time>2022-06-19T09:39:52+00:00</time>
      </trkpt>
      <trkpt lat="40.759407" lon="-3.764341">
        <ele>974.90</ele>
        <time>2022-06-19T09:39:53+00:00</time>
      </trkpt>
      <trkpt lat="40.759492" lon="-3.764534">
        <ele>974.41</ele>
        <time>2022-06-19T09:39:55+00:00</time>
      </trkpt>
      <trkpt lat="40.759449" lon="-3.764684">
        <ele>973.93</ele>
        <time>2022-06-19T09:39:56+00:00</time>
      </trkpt>
      <trkpt lat="40.759428" lon="-3.764749">
        <ele>973.45</ele>
        <time>2022-06-19T09:39:57+00:00</time>
      </trkpt>
      <trkpt lat="40.759235" lon="-3.764834">
        <ele>972.97</ele>
        <time>2022-06-19T09:39:58+00:00</time>
      </trkpt>
      <trkpt lat="40.759192" lon="-3.764963">
        <ele>972.49</ele>
        <time>2022-06-19T09:39:59+00:00</time>
      </trkpt>
      <trkpt lat="40.759149" lon="-3.765113">
        <ele>972.01</ele>
        <time>2022-06-19T09:40:00+00:00</time>
      </trkpt>
      <trkpt lat="40.759128" lon="-3.765264">
        <ele>971.05</ele>
        <time>2022-06-19T09:40:01+00:00</time>
      </trkpt>
      <trkpt lat="40.759085" lon="-3.765457">
        <ele>970.57</ele>
        <time>2022-06-19T09:40:02+00:00</time>
      </trkpt>
      <trkpt lat="40.759085" lon="-3.765650">
        <ele>969.61</ele>
        <time>2022-06-19T09:40:03+00:00</time>
      </trkpt>
      <trkpt lat="40.758999" lon="-3.767817">
        <ele>960.48</ele>
        <time>2022-06-19T09:40:13+00:00</time>
      </trkpt>
      <trkpt lat="40.758484" lon="-3.769383">
        <ele>954.23</ele>
        <time>2022-06-19T09:40:20+00:00</time>
      </trkpt>
      <trkpt lat="40.758162" lon="-3.770864">
        <ele>950.86</ele>
        <time>2022-06-19T09:40:27+00:00</time>
      </trkpt>
      <trkpt lat="40.757819" lon="-3.772967">
        <ele>945.09</ele>
        <time>2022-06-19T09:40:37+00:00</time>
      </trkpt>
      <trkpt lat="40.757518" lon="-3.774490">
        <ele>937.88</ele>
        <time>2022-06-19T09:40:46+00:00</time>
      </trkpt>
      <trkpt lat="40.757497" lon="-3.774619">
        <ele>937.40</ele>
        <time>2022-06-19T09:40:47+00:00</time>
      </trkpt>
      <trkpt lat="40.757583" lon="-3.774812">
        <ele>936.92</ele>
        <time>2022-06-19T09:40:48+00:00</time>
      </trkpt>
      <trkpt lat="40.757583" lon="-3.774898">
        <ele>936.92</ele>
        <time>2022-06-19T09:40:49+00:00</time>
      </trkpt>
      <trkpt lat="40.757561" lon="-3.775005">
        <ele>936.44</ele>
        <time>2022-06-19T09:40:50+00:00</time>
      </trkpt>
      <trkpt lat="40.757497" lon="-3.775091">
        <ele>936.44</ele>
        <time>2022-06-19T09:40:51+00:00</time>
      </trkpt>
      <trkpt lat="40.757368" lon="-3.775199">
        <ele>936.44</ele>
        <time>2022-06-19T09:40:52+00:00</time>
      </trkpt>
      <trkpt lat="40.757325" lon="-3.775349">
        <ele>935.96</ele>
        <time>2022-06-19T09:40:53+00:00</time>
      </trkpt>
      <trkpt lat="40.757282" lon="-3.775499">
        <ele>935.96</ele>
        <time>2022-06-19T09:40:54+00:00</time>
      </trkpt>
      <trkpt lat="40.756917" lon="-3.777237">
        <ele>935.48</ele>
        <time>2022-06-19T09:41:04+00:00</time>
      </trkpt>
      <trkpt lat="40.756381" lon="-3.779061">
        <ele>933.56</ele>
        <time>2022-06-19T09:41:15+00:00</time>
      </trkpt>
      <trkpt lat="40.755630" lon="-3.780627">
        <ele>925.39</ele>
        <time>2022-06-19T09:41:28+00:00</time>
      </trkpt>
      <trkpt lat="40.755587" lon="-3.780713">
        <ele>924.43</ele>
        <time>2022-06-19T09:41:29+00:00</time>
      </trkpt>
      <trkpt lat="40.755544" lon="-3.780799">
        <ele>923.95</ele>
        <time>2022-06-19T09:41:30+00:00</time>
      </trkpt>
      <trkpt lat="40.755566" lon="-3.780885">
        <ele>923.47</ele>
        <time>2022-06-19T09:41:31+00:00</time>
      </trkpt>
      <trkpt lat="40.755566" lon="-3.781035">
        <ele>922.98</ele>
        <time>2022-06-19T09:41:32+00:00</time>
      </trkpt>
      <trkpt lat="40.755501" lon="-3.781099">
        <ele>922.50</ele>
        <time>2022-06-19T09:41:33+00:00</time>
      </trkpt>
      <trkpt lat="40.755501" lon="-3.781099">
        <ele>922.02</ele>
        <time>2022-06-19T09:41:34+00:00</time>
      </trkpt>
      <trkpt lat="40.755351" lon="-3.781185">
        <ele>922.02</ele>
        <time>2022-06-19T09:41:35+00:00</time>
      </trkpt>
      <trkpt lat="40.755308" lon="-3.781271">
        <ele>921.54</ele>
        <time>2022-06-19T09:41:36+00:00</time>
      </trkpt>
      <trkpt lat="40.755244" lon="-3.781378">
        <ele>921.54</ele>
        <time>2022-06-19T09:41:37+00:00</time>
      </trkpt>
      <trkpt lat="40.755201" lon="-3.781486">
        <ele>921.06</ele>
        <time>2022-06-19T09:41:38+00:00</time>
      </trkpt>
      <trkpt lat="40.754471" lon="-3.782923">
        <ele>919.14</ele>
        <time>2022-06-19T09:41:52+00:00</time>
      </trkpt>
      <trkpt lat="40.754321" lon="-3.783331">
        <ele>918.66</ele>
        <time>2022-06-19T09:41:57+00:00</time>
      </trkpt>
      <trkpt lat="40.754235" lon="-3.783374">
        <ele>919.14</ele>
        <time>2022-06-19T09:41:58+00:00</time>
      </trkpt>
      <trkpt lat="40.754149" lon="-3.783567">
        <ele>918.66</ele>
        <time>2022-06-19T09:42:00+00:00</time>
      </trkpt>
      <trkpt lat="40.754085" lon="-3.783674">
        <ele>918.18</ele>
        <time>2022-06-19T09:42:01+00:00</time>
      </trkpt>
      <trkpt lat="40.753334" lon="-3.784940">
        <ele>917.22</ele>
        <time>2022-06-19T09:42:14+00:00</time>
      </trkpt>
      <trkpt lat="40.752948" lon="-3.785605">
        <ele>916.74</ele>
        <time>2022-06-19T09:42:24+00:00</time>
      </trkpt>
      <trkpt lat="40.752304" lon="-3.786657">
        <ele>915.29</ele>
        <time>2022-06-19T09:42:38+00:00</time>
      </trkpt>
      <trkpt lat="40.751875" lon="-3.787386">
        <ele>913.85</ele>
        <time>2022-06-19T09:42:47+00:00</time>
      </trkpt>
      <trkpt lat="40.751424" lon="-3.788116">
        <ele>912.89</ele>
        <time>2022-06-19T09:42:56+00:00</time>
      </trkpt>
      <trkpt lat="40.751081" lon="-3.788717">
        <ele>913.85</ele>
        <time>2022-06-19T09:43:03+00:00</time>
      </trkpt>
      <trkpt lat="40.751081" lon="-3.788803">
        <ele>914.33</ele>
        <time>2022-06-19T09:43:04+00:00</time>
      </trkpt>
      <trkpt lat="40.750952" lon="-3.789640">
        <ele>916.26</ele>
        <time>2022-06-19T09:43:13+00:00</time>
      </trkpt>
      <trkpt lat="40.750845" lon="-3.790627">
        <ele>917.22</ele>
        <time>2022-06-19T09:43:22+00:00</time>
      </trkpt>
      <trkpt lat="40.750609" lon="-3.792172">
        <ele>917.22</ele>
        <time>2022-06-19T09:43:33+00:00</time>
      </trkpt>
      <trkpt lat="40.750030" lon="-3.793674">
        <ele>916.26</ele>
        <time>2022-06-19T09:43:45+00:00</time>
      </trkpt>
      <trkpt lat="40.749643" lon="-3.794553">
        <ele>917.22</ele>
        <time>2022-06-19T09:43:54+00:00</time>
      </trkpt>
      <trkpt lat="40.749214" lon="-3.795433">
        <ele>917.70</ele>
        <time>2022-06-19T09:44:03+00:00</time>
      </trkpt>
      <trkpt lat="40.748764" lon="-3.796313">
        <ele>917.70</ele>
        <time>2022-06-19T09:44:12+00:00</time>
      </trkpt>
      <trkpt lat="40.747862" lon="-3.798051">
        <ele>915.77</ele>
        <time>2022-06-19T09:44:26+00:00</time>
      </trkpt>
      <trkpt lat="40.747047" lon="-3.799574">
        <ele>914.81</ele>
        <time>2022-06-19T09:44:38+00:00</time>
      </trkpt>
      <trkpt lat="40.746725" lon="-3.800197">
        <ele>914.81</ele>
        <time>2022-06-19T09:44:45+00:00</time>
      </trkpt>
      <trkpt lat="40.746210" lon="-3.801205">
        <ele>914.33</ele>
        <time>2022-06-19T09:44:52+00:00</time>
      </trkpt>
      <trkpt lat="40.745459" lon="-3.802643">
        <ele>914.33</ele>
        <time>2022-06-19T09:44:59+00:00</time>
      </trkpt>
      <trkpt lat="40.744515" lon="-3.804467">
        <ele>911.45</ele>
        <time>2022-06-19T09:45:06+00:00</time>
      </trkpt>
      <trkpt lat="40.743120" lon="-3.807149">
        <ele>908.08</ele>
        <time>2022-06-19T09:45:16+00:00</time>
      </trkpt>
      <trkpt lat="40.741811" lon="-3.809660">
        <ele>907.12</ele>
        <time>2022-06-19T09:45:25+00:00</time>
      </trkpt>
      <trkpt lat="40.741039" lon="-3.811119">
        <ele>906.16</ele>
        <time>2022-06-19T09:45:32+00:00</time>
      </trkpt>
      <trkpt lat="40.740438" lon="-3.812320">
        <ele>903.76</ele>
        <time>2022-06-19T09:45:40+00:00</time>
      </trkpt>
      <trkpt lat="40.739837" lon="-3.813736">
        <ele>900.87</ele>
        <time>2022-06-19T09:45:50+00:00</time>
      </trkpt>
      <trkpt lat="40.739687" lon="-3.814144">
        <ele>899.91</ele>
        <time>2022-06-19T09:45:53+00:00</time>
      </trkpt>
      <trkpt lat="40.739644" lon="-3.814251">
        <ele>899.91</ele>
        <time>2022-06-19T09:45:54+00:00</time>
      </trkpt>
      <trkpt lat="40.739708" lon="-3.814423">
        <ele>899.43</ele>
        <time>2022-06-19T09:45:55+00:00</time>
      </trkpt>
      <trkpt lat="40.739730" lon="-3.814552">
        <ele>899.43</ele>
        <time>2022-06-19T09:45:56+00:00</time>
      </trkpt>
      <trkpt lat="40.739730" lon="-3.814681">
        <ele>898.95</ele>
        <time>2022-06-19T09:45:57+00:00</time>
      </trkpt>
      <trkpt lat="40.739687" lon="-3.814766">
        <ele>898.95</ele>
        <time>2022-06-19T09:45:58+00:00</time>
      </trkpt>
      <trkpt lat="40.739623" lon="-3.814831">
        <ele>898.95</ele>
        <time>2022-06-19T09:45:59+00:00</time>
      </trkpt>
      <trkpt lat="40.739537" lon="-3.814895">
        <ele>898.95</ele>
        <time>2022-06-19T09:46:00+00:00</time>
      </trkpt>
      <trkpt lat="40.739472" lon="-3.814981">
        <ele>898.95</ele>
        <time>2022-06-19T09:46:01+00:00</time>
      </trkpt>
      <trkpt lat="40.739387" lon="-3.815088">
        <ele>898.95</ele>
        <time>2022-06-19T09:46:02+00:00</time>
      </trkpt>
      <trkpt lat="40.739301" lon="-3.815196">
        <ele>898.47</ele>
        <time>2022-06-19T09:46:03+00:00</time>
      </trkpt>
      <trkpt lat="40.739236" lon="-3.815346">
        <ele>898.47</ele>
        <time>2022-06-19T09:46:04+00:00</time>
      </trkpt>
      <trkpt lat="40.739172" lon="-3.815496">
        <ele>898.47</ele>
        <time>2022-06-19T09:46:05+00:00</time>
      </trkpt>
      <trkpt lat="40.738507" lon="-3.817277">
        <ele>897.51</ele>
        <time>2022-06-19T09:46:14+00:00</time>
      </trkpt>
      <trkpt lat="40.737927" lon="-3.819380">
        <ele>897.51</ele>
        <time>2022-06-19T09:46:22+00:00</time>
      </trkpt>
      <trkpt lat="40.737927" lon="-3.821161">
        <ele>897.99</ele>
        <time>2022-06-19T09:46:28+00:00</time>
      </trkpt>
      <trkpt lat="40.738442" lon="-3.822877">
        <ele>898.95</ele>
        <time>2022-06-19T09:46:34+00:00</time>
      </trkpt>
      <trkpt lat="40.739193" lon="-3.824036">
        <ele>899.43</ele>
        <time>2022-06-19T09:46:40+00:00</time>
      </trkpt>
      <trkpt lat="40.740138" lon="-3.825088">
        <ele>898.95</ele>
        <time>2022-06-19T09:46:48+00:00</time>
      </trkpt>
      <trkpt lat="40.741296" lon="-3.826590">
        <ele>898.47</ele>
        <time>2022-06-19T09:46:56+00:00</time>
      </trkpt>
      <trkpt lat="40.741618" lon="-3.827362">
        <ele>898.47</ele>
        <time>2022-06-19T09:46:59+00:00</time>
      </trkpt>
      <trkpt lat="40.741725" lon="-3.827620">
        <ele>898.47</ele>
        <time>2022-06-19T09:47:00+00:00</time>
      </trkpt>
      <trkpt lat="40.741790" lon="-3.827899">
        <ele>897.99</ele>
        <time>2022-06-19T09:47:01+00:00</time>
      </trkpt>
      <trkpt lat="40.741940" lon="-3.829079">
        <ele>897.99</ele>
        <time>2022-06-19T09:47:05+00:00</time>
      </trkpt>
      <trkpt lat="40.741940" lon="-3.829358">
        <ele>897.99</ele>
        <time>2022-06-19T09:47:06+00:00</time>
      </trkpt>
      <trkpt lat="40.741919" lon="-3.829658">
        <ele>897.99</ele>
        <time>2022-06-19T09:47:07+00:00</time>
      </trkpt>
      <trkpt lat="40.741597" lon="-3.831568">
        <ele>898.95</ele>
        <time>2022-06-19T09:47:14+00:00</time>
      </trkpt>
      <trkpt lat="40.741339" lon="-3.833392">
        <ele>899.43</ele>
        <time>2022-06-19T09:47:21+00:00</time>
      </trkpt>
      <trkpt lat="40.741339" lon="-3.833671">
        <ele>899.43</ele>
        <time>2022-06-19T09:47:22+00:00</time>
      </trkpt>
      <trkpt lat="40.741361" lon="-3.833971">
        <ele>899.43</ele>
        <time>2022-06-19T09:47:23+00:00</time>
      </trkpt>
      <trkpt lat="40.741404" lon="-3.834250">
        <ele>899.43</ele>
        <time>2022-06-19T09:47:24+00:00</time>
      </trkpt>
      <trkpt lat="40.741446" lon="-3.834529">
        <ele>899.91</ele>
        <time>2022-06-19T09:47:25+00:00</time>
      </trkpt>
      <trkpt lat="40.741811" lon="-3.837190">
        <ele>900.87</ele>
        <time>2022-06-19T09:47:35+00:00</time>
      </trkpt>
      <trkpt lat="40.741790" lon="-3.837426">
        <ele>900.87</ele>
        <time>2022-06-19T09:47:36+00:00</time>
      </trkpt>
      <trkpt lat="40.741768" lon="-3.837662">
        <ele>900.87</ele>
        <time>2022-06-19T09:47:37+00:00</time>
      </trkpt>
      <trkpt lat="40.741725" lon="-3.837898">
        <ele>900.87</ele>
        <time>2022-06-19T09:47:38+00:00</time>
      </trkpt>
      <trkpt lat="40.741661" lon="-3.838112">
        <ele>900.87</ele>
        <time>2022-06-19T09:47:39+00:00</time>
      </trkpt>
      <trkpt lat="40.741575" lon="-3.838327">
        <ele>900.39</ele>
        <time>2022-06-19T09:47:40+00:00</time>
      </trkpt>
      <trkpt lat="40.741489" lon="-3.838563">
        <ele>900.39</ele>
        <time>2022-06-19T09:47:41+00:00</time>
      </trkpt>
      <trkpt lat="40.741404" lon="-3.838778">
        <ele>900.39</ele>
        <time>2022-06-19T09:47:42+00:00</time>
      </trkpt>
      <trkpt lat="40.740245" lon="-3.841610">
        <ele>901.35</ele>
        <time>2022-06-19T09:47:55+00:00</time>
      </trkpt>
      <trkpt lat="40.739365" lon="-3.843026">
        <ele>901.35</ele>
        <time>2022-06-19T09:48:03+00:00</time>
      </trkpt>
      <trkpt lat="40.738163" lon="-3.844035">
        <ele>900.87</ele>
        <time>2022-06-19T09:48:11+00:00</time>
      </trkpt>
      <trkpt lat="40.737198" lon="-3.845108">
        <ele>901.35</ele>
        <time>2022-06-19T09:48:19+00:00</time>
      </trkpt>
      <trkpt lat="40.736275" lon="-3.846781">
        <ele>901.35</ele>
        <time>2022-06-19T09:48:29+00:00</time>
      </trkpt>
      <trkpt lat="40.735503" lon="-3.848090">
        <ele>901.35</ele>
        <time>2022-06-19T09:48:38+00:00</time>
      </trkpt>
      <trkpt lat="40.734795" lon="-3.848734">
        <ele>901.84</ele>
        <time>2022-06-19T09:48:46+00:00</time>
      </trkpt>
      <trkpt lat="40.734601" lon="-3.848841">
        <ele>902.32</ele>
        <time>2022-06-19T09:48:49+00:00</time>
      </trkpt>
      <trkpt lat="40.734537" lon="-3.848863">
        <ele>902.32</ele>
        <time>2022-06-19T09:48:50+00:00</time>
      </trkpt>
      <trkpt lat="40.734430" lon="-3.849142">
        <ele>902.32</ele>
        <time>2022-06-19T09:48:52+00:00</time>
      </trkpt>
      <trkpt lat="40.734344" lon="-3.849163">
        <ele>902.32</ele>
        <time>2022-06-19T09:48:53+00:00</time>
      </trkpt>
      <trkpt lat="40.734258" lon="-3.849227">
        <ele>902.32</ele>
        <time>2022-06-19T09:48:54+00:00</time>
      </trkpt>
      <trkpt lat="40.734172" lon="-3.849292">
        <ele>902.32</ele>
        <time>2022-06-19T09:48:55+00:00</time>
      </trkpt>
      <trkpt lat="40.734087" lon="-3.849356">
        <ele>901.84</ele>
        <time>2022-06-19T09:48:56+00:00</time>
      </trkpt>
      <trkpt lat="40.734001" lon="-3.849442">
        <ele>901.84</ele>
        <time>2022-06-19T09:48:57+00:00</time>
      </trkpt>
      <trkpt lat="40.733893" lon="-3.849528">
        <ele>901.84</ele>
        <time>2022-06-19T09:48:58+00:00</time>
      </trkpt>
      <trkpt lat="40.732949" lon="-3.850172">
        <ele>900.87</ele>
        <time>2022-06-19T09:49:06+00:00</time>
      </trkpt>
      <trkpt lat="40.732413" lon="-3.850815">
        <ele>901.35</ele>
        <time>2022-06-19T09:49:12+00:00</time>
      </trkpt>
      <trkpt lat="40.731469" lon="-3.852103">
        <ele>901.35</ele>
        <time>2022-06-19T09:49:26+00:00</time>
      </trkpt>
      <trkpt lat="40.730889" lon="-3.852918">
        <ele>901.35</ele>
        <time>2022-06-19T09:49:36+00:00</time>
      </trkpt>
      <trkpt lat="40.730246" lon="-3.853798">
        <ele>900.87</ele>
        <time>2022-06-19T09:49:48+00:00</time>
      </trkpt>
      <trkpt lat="40.729473" lon="-3.854871">
        <ele>900.87</ele>
        <time>2022-06-19T09:50:02+00:00</time>
      </trkpt>
      <trkpt lat="40.728958" lon="-3.855987">
        <ele>900.87</ele>
        <time>2022-06-19T09:50:15+00:00</time>
      </trkpt>
      <trkpt lat="40.728572" lon="-3.857639">
        <ele>902.32</ele>
        <time>2022-06-19T09:50:34+00:00</time>
      </trkpt>
      <trkpt lat="40.728229" lon="-3.858755">
        <ele>902.80</ele>
        <time>2022-06-19T09:50:44+00:00</time>
      </trkpt>
      <trkpt lat="40.727993" lon="-3.859227">
        <ele>903.28</ele>
        <time>2022-06-19T09:50:53+00:00</time>
      </trkpt>
      <trkpt lat="40.727885" lon="-3.859377">
        <ele>904.72</ele>
        <time>2022-06-19T09:51:04+00:00</time>
      </trkpt>
      <trkpt lat="40.727821" lon="-3.859484">
        <ele>904.24</ele>
        <time>2022-06-19T09:51:13+00:00</time>
      </trkpt>
      <trkpt lat="40.727799" lon="-3.859463">
        <ele>904.24</ele>
        <time>2022-06-19T09:51:14+00:00</time>
      </trkpt>
      <trkpt lat="40.727756" lon="-3.859463">
        <ele>904.72</ele>
        <time>2022-06-19T09:51:15+00:00</time>
      </trkpt>
      <trkpt lat="40.727821" lon="-3.859377">
        <ele>904.24</ele>
        <time>2022-06-19T09:51:16+00:00</time>
      </trkpt>
      <trkpt lat="40.727821" lon="-3.859334">
        <ele>904.24</ele>
        <time>2022-06-19T09:51:17+00:00</time>
      </trkpt>
      <trkpt lat="40.727821" lon="-3.859291">
        <ele>904.24</ele>
        <time>2022-06-19T09:51:18+00:00</time>
      </trkpt>
      <trkpt lat="40.727821" lon="-3.859248">
        <ele>903.76</ele>
        <time>2022-06-19T09:51:19+00:00</time>
      </trkpt>
      <trkpt lat="40.727842" lon="-3.859205">
        <ele>903.76</ele>
        <time>2022-06-19T09:51:20+00:00</time>
      </trkpt>
      <trkpt lat="40.727842" lon="-3.859184">
        <ele>903.76</ele>
        <time>2022-06-19T09:51:21+00:00</time>
      </trkpt>
      <trkpt lat="40.727842" lon="-3.859141">
        <ele>903.76</ele>
        <time>2022-06-19T09:51:22+00:00</time>
      </trkpt>
      <trkpt lat="40.727714" lon="-3.859077">
        <ele>903.28</ele>
        <time>2022-06-19T09:51:24+00:00</time>
      </trkpt>
      <trkpt lat="40.727649" lon="-3.859034">
        <ele>902.80</ele>
        <time>2022-06-19T09:51:26+00:00</time>
      </trkpt>
      <trkpt lat="40.727671" lon="-3.858905">
        <ele>902.32</ele>
        <time>2022-06-19T09:51:34+00:00</time>
      </trkpt>
      <trkpt lat="40.727821" lon="-3.858991">
        <ele>914.81</ele>
        <time>2022-06-19T10:18:05+00:00</time>
      </trkpt>
      <trkpt lat="40.727864" lon="-3.858991">
        <ele>904.72</ele>
        <time>2022-06-19T10:18:22+00:00</time>
      </trkpt>
      <trkpt lat="40.727864" lon="-3.858969">
        <ele>907.12</ele>
        <time>2022-06-19T10:18:34+00:00</time>
      </trkpt>
      <trkpt lat="40.727842" lon="-3.858991">
        <ele>910.97</ele>
        <time>2022-06-19T10:18:37+00:00</time>
      </trkpt>
      <trkpt lat="40.727842" lon="-3.859034">
        <ele>910.49</ele>
        <time>2022-06-19T10:18:38+00:00</time>
      </trkpt>
      <trkpt lat="40.727842" lon="-3.859055">
        <ele>909.53</ele>
        <time>2022-06-19T10:18:39+00:00</time>
      </trkpt>
      <trkpt lat="40.727842" lon="-3.859098">
        <ele>909.05</ele>
        <time>2022-06-19T10:18:40+00:00</time>
      </trkpt>
      <trkpt lat="40.727842" lon="-3.859119">
        <ele>908.56</ele>
        <time>2022-06-19T10:18:41+00:00</time>
      </trkpt>
      <trkpt lat="40.727821" lon="-3.859398">
        <ele>906.16</ele>
        <time>2022-06-19T10:18:49+00:00</time>
      </trkpt>
      <trkpt lat="40.727821" lon="-3.859441">
        <ele>905.68</ele>
        <time>2022-06-19T10:18:50+00:00</time>
      </trkpt>
      <trkpt lat="40.727821" lon="-3.859484">
        <ele>905.68</ele>
        <time>2022-06-19T10:18:51+00:00</time>
      </trkpt>
      <trkpt lat="40.727778" lon="-3.859549">
        <ele>905.68</ele>
        <time>2022-06-19T10:18:52+00:00</time>
      </trkpt>
      <trkpt lat="40.727756" lon="-3.859613">
        <ele>905.68</ele>
        <time>2022-06-19T10:18:53+00:00</time>
      </trkpt>
      <trkpt lat="40.727714" lon="-3.859656">
        <ele>905.68</ele>
        <time>2022-06-19T10:18:54+00:00</time>
      </trkpt>
      <trkpt lat="40.727692" lon="-3.859720">
        <ele>905.68</ele>
        <time>2022-06-19T10:18:55+00:00</time>
      </trkpt>
      <trkpt lat="40.727671" lon="-3.859742">
        <ele>906.16</ele>
        <time>2022-06-19T10:19:03+00:00</time>
      </trkpt>
      <trkpt lat="40.727542" lon="-3.859913">
        <ele>906.16</ele>
        <time>2022-06-19T10:19:28+00:00</time>
      </trkpt>
      <trkpt lat="40.727027" lon="-3.860557">
        <ele>907.12</ele>
        <time>2022-06-19T10:19:34+00:00</time>
      </trkpt>
      <trkpt lat="40.726920" lon="-3.860664">
        <ele>907.12</ele>
        <time>2022-06-19T10:19:35+00:00</time>
      </trkpt>
      <trkpt lat="40.726812" lon="-3.860772">
        <ele>907.12</ele>
        <time>2022-06-19T10:19:36+00:00</time>
      </trkpt>
      <trkpt lat="40.725911" lon="-3.861630">
        <ele>906.16</ele>
        <time>2022-06-19T10:19:43+00:00</time>
      </trkpt>
      <trkpt lat="40.725332" lon="-3.862832">
        <ele>903.28</ele>
        <time>2022-06-19T10:19:49+00:00</time>
      </trkpt>
      <trkpt lat="40.725139" lon="-3.864505">
        <ele>901.84</ele>
        <time>2022-06-19T10:19:56+00:00</time>
      </trkpt>
      <trkpt lat="40.725117" lon="-3.867123">
        <ele>904.72</ele>
        <time>2022-06-19T10:20:07+00:00</time>
      </trkpt>
      <trkpt lat="40.725182" lon="-3.867767">
        <ele>906.64</ele>
        <time>2022-06-19T10:20:11+00:00</time>
      </trkpt>
      <trkpt lat="40.725182" lon="-3.867874">
        <ele>907.12</ele>
        <time>2022-06-19T10:20:12+00:00</time>
      </trkpt>
      <trkpt lat="40.725224" lon="-3.867981">
        <ele>907.60</ele>
        <time>2022-06-19T10:20:13+00:00</time>
      </trkpt>
      <trkpt lat="40.725310" lon="-3.868132">
        <ele>908.08</ele>
        <time>2022-06-19T10:20:15+00:00</time>
      </trkpt>
      <trkpt lat="40.725310" lon="-3.868239">
        <ele>909.05</ele>
        <time>2022-06-19T10:20:16+00:00</time>
      </trkpt>
      <trkpt lat="40.725289" lon="-3.868368">
        <ele>909.53</ele>
        <time>2022-06-19T10:20:17+00:00</time>
      </trkpt>
      <trkpt lat="40.725224" lon="-3.868454">
        <ele>909.53</ele>
        <time>2022-06-19T10:20:18+00:00</time>
      </trkpt>
      <trkpt lat="40.725160" lon="-3.868604">
        <ele>910.01</ele>
        <time>2022-06-19T10:20:19+00:00</time>
      </trkpt>
      <trkpt lat="40.725139" lon="-3.868775">
        <ele>910.49</ele>
        <time>2022-06-19T10:20:20+00:00</time>
      </trkpt>
      <trkpt lat="40.725117" lon="-3.868926">
        <ele>910.97</ele>
        <time>2022-06-19T10:20:21+00:00</time>
      </trkpt>
      <trkpt lat="40.725053" lon="-3.869097">
        <ele>911.45</ele>
        <time>2022-06-19T10:20:22+00:00</time>
      </trkpt>
      <trkpt lat="40.724645" lon="-3.870535">
        <ele>914.33</ele>
        <time>2022-06-19T10:20:29+00:00</time>
      </trkpt>
      <trkpt lat="40.724087" lon="-3.872187">
        <ele>915.29</ele>
        <time>2022-06-19T10:20:36+00:00</time>
      </trkpt>
      <trkpt lat="40.724023" lon="-3.872488">
        <ele>915.29</ele>
        <time>2022-06-19T10:20:37+00:00</time>
      </trkpt>
      <trkpt lat="40.724001" lon="-3.872788">
        <ele>915.29</ele>
        <time>2022-06-19T10:20:38+00:00</time>
      </trkpt>
      <trkpt lat="40.724001" lon="-3.873110">
        <ele>915.29</ele>
        <time>2022-06-19T10:20:39+00:00</time>
      </trkpt>
      <trkpt lat="40.724001" lon="-3.873410">
        <ele>915.29</ele>
        <time>2022-06-19T10:20:40+00:00</time>
      </trkpt>
      <trkpt lat="40.723937" lon="-3.876607">
        <ele>910.01</ele>
        <time>2022-06-19T10:20:51+00:00</time>
      </trkpt>
      <trkpt lat="40.723851" lon="-3.876886">
        <ele>909.53</ele>
        <time>2022-06-19T10:20:52+00:00</time>
      </trkpt>
      <trkpt lat="40.723744" lon="-3.877144">
        <ele>908.56</ele>
        <time>2022-06-19T10:20:53+00:00</time>
      </trkpt>
      <trkpt lat="40.723615" lon="-3.877401">
        <ele>908.08</ele>
        <time>2022-06-19T10:20:54+00:00</time>
      </trkpt>
      <trkpt lat="40.723486" lon="-3.877659">
        <ele>908.08</ele>
        <time>2022-06-19T10:20:55+00:00</time>
      </trkpt>
      <trkpt lat="40.723315" lon="-3.877852">
        <ele>907.60</ele>
        <time>2022-06-19T10:20:56+00:00</time>
      </trkpt>
      <trkpt lat="40.723143" lon="-3.878045">
        <ele>907.60</ele>
        <time>2022-06-19T10:20:57+00:00</time>
      </trkpt>
      <trkpt lat="40.722971" lon="-3.878238">
        <ele>907.60</ele>
        <time>2022-06-19T10:20:58+00:00</time>
      </trkpt>
      <trkpt lat="40.722800" lon="-3.878431">
        <ele>907.12</ele>
        <time>2022-06-19T10:20:59+00:00</time>
      </trkpt>
      <trkpt lat="40.721319" lon="-3.879719">
        <ele>906.64</ele>
        <time>2022-06-19T10:21:08+00:00</time>
      </trkpt>
      <trkpt lat="40.720847" lon="-3.880405">
        <ele>908.08</ele>
        <time>2022-06-19T10:21:12+00:00</time>
      </trkpt>
      <trkpt lat="40.719517" lon="-3.883066">
        <ele>909.53</ele>
        <time>2022-06-19T10:21:26+00:00</time>
      </trkpt>
      <trkpt lat="40.718830" lon="-3.884440">
        <ele>907.12</ele>
        <time>2022-06-19T10:21:35+00:00</time>
      </trkpt>
      <trkpt lat="40.717950" lon="-3.886221">
        <ele>908.08</ele>
        <time>2022-06-19T10:21:48+00:00</time>
      </trkpt>
      <trkpt lat="40.717307" lon="-3.887551">
        <ele>909.05</ele>
        <time>2022-06-19T10:21:58+00:00</time>
      </trkpt>
      <trkpt lat="40.716792" lon="-3.888710">
        <ele>908.56</ele>
        <time>2022-06-19T10:22:06+00:00</time>
      </trkpt>
      <trkpt lat="40.715762" lon="-3.891392">
        <ele>907.12</ele>
        <time>2022-06-19T10:22:20+00:00</time>
      </trkpt>
      <trkpt lat="40.715397" lon="-3.893087">
        <ele>907.60</ele>
        <time>2022-06-19T10:22:28+00:00</time>
      </trkpt>
      <trkpt lat="40.715268" lon="-3.895254">
        <ele>908.56</ele>
        <time>2022-06-19T10:22:39+00:00</time>
      </trkpt>
      <trkpt lat="40.715118" lon="-3.897786">
        <ele>909.05</ele>
        <time>2022-06-19T10:22:52+00:00</time>
      </trkpt>
      <trkpt lat="40.714860" lon="-3.899481">
        <ele>909.53</ele>
        <time>2022-06-19T10:23:03+00:00</time>
      </trkpt>
      <trkpt lat="40.714517" lon="-3.901434">
        <ele>910.01</ele>
        <time>2022-06-19T10:23:15+00:00</time>
      </trkpt>
      <trkpt lat="40.714109" lon="-3.903666">
        <ele>911.45</ele>
        <time>2022-06-19T10:23:30+00:00</time>
      </trkpt>
      <trkpt lat="40.713873" lon="-3.904867">
        <ele>912.89</ele>
        <time>2022-06-19T10:23:40+00:00</time>
      </trkpt>
      <trkpt lat="40.713401" lon="-3.906133">
        <ele>913.37</ele>
        <time>2022-06-19T10:23:50+00:00</time>
      </trkpt>
      <trkpt lat="40.712736" lon="-3.907292">
        <ele>914.33</ele>
        <time>2022-06-19T10:23:57+00:00</time>
      </trkpt>
      <trkpt lat="40.711813" lon="-3.908751">
        <ele>915.29</ele>
        <time>2022-06-19T10:24:04+00:00</time>
      </trkpt>
      <trkpt lat="40.710633" lon="-3.910039">
        <ele>916.26</ele>
        <time>2022-06-19T10:24:12+00:00</time>
      </trkpt>
      <trkpt lat="40.709453" lon="-3.911626">
        <ele>916.74</ele>
        <time>2022-06-19T10:24:21+00:00</time>
      </trkpt>
      <trkpt lat="40.707694" lon="-3.914309">
        <ele>918.18</ele>
        <time>2022-06-19T10:24:37+00:00</time>
      </trkpt>
      <trkpt lat="40.706728" lon="-3.916240">
        <ele>919.62</ele>
        <time>2022-06-19T10:24:49+00:00</time>
      </trkpt>
      <trkpt lat="40.705741" lon="-3.918321">
        <ele>920.58</ele>
        <time>2022-06-19T10:25:02+00:00</time>
      </trkpt>
      <trkpt lat="40.704818" lon="-3.919995">
        <ele>922.50</ele>
        <time>2022-06-19T10:25:14+00:00</time>
      </trkpt>
      <trkpt lat="40.704260" lon="-3.920574">
        <ele>923.47</ele>
        <time>2022-06-19T10:25:21+00:00</time>
      </trkpt>
      <trkpt lat="40.703273" lon="-3.921647">
        <ele>926.35</ele>
        <time>2022-06-19T10:25:30+00:00</time>
      </trkpt>
      <trkpt lat="40.703059" lon="-3.921990">
        <ele>926.83</ele>
        <time>2022-06-19T10:25:32+00:00</time>
      </trkpt>
      <trkpt lat="40.702973" lon="-3.922162">
        <ele>927.31</ele>
        <time>2022-06-19T10:25:33+00:00</time>
      </trkpt>
      <trkpt lat="40.702157" lon="-3.924458">
        <ele>931.64</ele>
        <time>2022-06-19T10:25:45+00:00</time>
      </trkpt>
      <trkpt lat="40.701578" lon="-3.926690">
        <ele>935.00</ele>
        <time>2022-06-19T10:25:56+00:00</time>
      </trkpt>
      <trkpt lat="40.701364" lon="-3.927913">
        <ele>936.44</ele>
        <time>2022-06-19T10:26:03+00:00</time>
      </trkpt>
      <trkpt lat="40.701299" lon="-3.928063">
        <ele>936.44</ele>
        <time>2022-06-19T10:26:04+00:00</time>
      </trkpt>
      <trkpt lat="40.701256" lon="-3.928192">
        <ele>936.92</ele>
        <time>2022-06-19T10:26:05+00:00</time>
      </trkpt>
      <trkpt lat="40.700226" lon="-3.930101">
        <ele>939.33</ele>
        <time>2022-06-19T10:26:20+00:00</time>
      </trkpt>
      <trkpt lat="40.699776" lon="-3.931003">
        <ele>942.69</ele>
        <time>2022-06-19T10:26:29+00:00</time>
      </trkpt>
      <trkpt lat="40.699754" lon="-3.931046">
        <ele>943.17</ele>
        <time>2022-06-19T10:26:30+00:00</time>
      </trkpt>
      <trkpt lat="40.699733" lon="-3.931131">
        <ele>943.17</ele>
        <time>2022-06-19T10:26:31+00:00</time>
      </trkpt>
      <trkpt lat="40.699733" lon="-3.931346">
        <ele>944.13</ele>
        <time>2022-06-19T10:26:33+00:00</time>
      </trkpt>
      <trkpt lat="40.699690" lon="-3.931453">
        <ele>944.61</ele>
        <time>2022-06-19T10:26:34+00:00</time>
      </trkpt>
      <trkpt lat="40.699647" lon="-3.931603">
        <ele>945.09</ele>
        <time>2022-06-19T10:26:35+00:00</time>
      </trkpt>
      <trkpt lat="40.699604" lon="-3.931775">
        <ele>945.58</ele>
        <time>2022-06-19T10:26:36+00:00</time>
      </trkpt>
      <trkpt lat="40.699561" lon="-3.931947">
        <ele>946.06</ele>
        <time>2022-06-19T10:26:37+00:00</time>
      </trkpt>
      <trkpt lat="40.699583" lon="-3.932118">
        <ele>946.54</ele>
        <time>2022-06-19T10:26:38+00:00</time>
      </trkpt>
      <trkpt lat="40.699625" lon="-3.932290">
        <ele>947.02</ele>
        <time>2022-06-19T10:26:39+00:00</time>
      </trkpt>
      <trkpt lat="40.699754" lon="-3.932354">
        <ele>947.50</ele>
        <time>2022-06-19T10:26:40+00:00</time>
      </trkpt>
      <trkpt lat="40.699819" lon="-3.932440">
        <ele>947.98</ele>
        <time>2022-06-19T10:26:41+00:00</time>
      </trkpt>
      <trkpt lat="40.699883" lon="-3.932526">
        <ele>947.98</ele>
        <time>2022-06-19T10:26:42+00:00</time>
      </trkpt>
      <trkpt lat="40.699947" lon="-3.932633">
        <ele>947.98</ele>
        <time>2022-06-19T10:26:43+00:00</time>
      </trkpt>
      <trkpt lat="40.699969" lon="-3.932741">
        <ele>948.46</ele>
        <time>2022-06-19T10:26:44+00:00</time>
      </trkpt>
      <trkpt lat="40.699990" lon="-3.932848">
        <ele>948.46</ele>
        <time>2022-06-19T10:26:45+00:00</time>
      </trkpt>
      <trkpt lat="40.700012" lon="-3.932934">
        <ele>948.94</ele>
        <time>2022-06-19T10:26:46+00:00</time>
      </trkpt>
      <trkpt lat="40.700226" lon="-3.934178">
        <ele>951.82</ele>
        <time>2022-06-19T10:26:59+00:00</time>
      </trkpt>
      <trkpt lat="40.700248" lon="-3.934372">
        <ele>953.27</ele>
        <time>2022-06-19T10:27:08+00:00</time>
      </trkpt>
      <trkpt lat="40.700248" lon="-3.934372">
        <ele>953.27</ele>
        <time>2022-06-19T10:27:44+00:00</time>
      </trkpt>
      <trkpt lat="40.700312" lon="-3.934393">
        <ele>963.84</ele>
        <time>2022-06-19T10:34:35+00:00</time>
      </trkpt>
      <trkpt lat="40.700248" lon="-3.934393">
        <ele>950.38</ele>
        <time>2022-06-19T10:35:11+00:00</time>
      </trkpt>
      <trkpt lat="40.700226" lon="-3.934844">
        <ele>950.86</ele>
        <time>2022-06-19T10:35:16+00:00</time>
      </trkpt>
      <trkpt lat="40.700140" lon="-3.935831">
        <ele>952.79</ele>
        <time>2022-06-19T10:35:25+00:00</time>
      </trkpt>
      <trkpt lat="40.700098" lon="-3.936281">
        <ele>953.75</ele>
        <time>2022-06-19T10:35:29+00:00</time>
      </trkpt>
      <trkpt lat="40.700098" lon="-3.936389">
        <ele>953.75</ele>
        <time>2022-06-19T10:35:30+00:00</time>
      </trkpt>
      <trkpt lat="40.700119" lon="-3.936517">
        <ele>953.75</ele>
        <time>2022-06-19T10:35:31+00:00</time>
      </trkpt>
      <trkpt lat="40.700162" lon="-3.936603">
        <ele>953.75</ele>
        <time>2022-06-19T10:35:32+00:00</time>
      </trkpt>
      <trkpt lat="40.700205" lon="-3.936689">
        <ele>953.75</ele>
        <time>2022-06-19T10:35:33+00:00</time>
      </trkpt>
      <trkpt lat="40.700248" lon="-3.936753">
        <ele>953.75</ele>
        <time>2022-06-19T10:35:34+00:00</time>
      </trkpt>
      <trkpt lat="40.700291" lon="-3.936796">
        <ele>953.75</ele>
        <time>2022-06-19T10:35:35+00:00</time>
      </trkpt>
      <trkpt lat="40.700334" lon="-3.936861">
        <ele>954.23</ele>
        <time>2022-06-19T10:35:36+00:00</time>
      </trkpt>
      <trkpt lat="40.700377" lon="-3.936904">
        <ele>954.23</ele>
        <time>2022-06-19T10:35:37+00:00</time>
      </trkpt>
      <trkpt lat="40.700441" lon="-3.936946">
        <ele>954.23</ele>
        <time>2022-06-19T10:35:38+00:00</time>
      </trkpt>
      <trkpt lat="40.700527" lon="-3.937011">
        <ele>954.23</ele>
        <time>2022-06-19T10:35:39+00:00</time>
      </trkpt>
      <trkpt lat="40.700570" lon="-3.937118">
        <ele>954.23</ele>
        <time>2022-06-19T10:35:40+00:00</time>
      </trkpt>
      <trkpt lat="40.700591" lon="-3.937204">
        <ele>954.23</ele>
        <time>2022-06-19T10:35:41+00:00</time>
      </trkpt>
      <trkpt lat="40.700570" lon="-3.937268">
        <ele>954.23</ele>
        <time>2022-06-19T10:35:42+00:00</time>
      </trkpt>
      <trkpt lat="40.700570" lon="-3.937376">
        <ele>954.71</ele>
        <time>2022-06-19T10:35:43+00:00</time>
      </trkpt>
      <trkpt lat="40.700548" lon="-3.937440">
        <ele>954.71</ele>
        <time>2022-06-19T10:35:44+00:00</time>
      </trkpt>
      <trkpt lat="40.700505" lon="-3.937483">
        <ele>954.71</ele>
        <time>2022-06-19T10:35:45+00:00</time>
      </trkpt>
      <trkpt lat="40.700441" lon="-3.937547">
        <ele>954.71</ele>
        <time>2022-06-19T10:35:46+00:00</time>
      </trkpt>
      <trkpt lat="40.700398" lon="-3.937697">
        <ele>954.71</ele>
        <time>2022-06-19T10:35:47+00:00</time>
      </trkpt>
      <trkpt lat="40.700377" lon="-3.937826">
        <ele>954.71</ele>
        <time>2022-06-19T10:35:48+00:00</time>
      </trkpt>
      <trkpt lat="40.700355" lon="-3.937955">
        <ele>954.71</ele>
        <time>2022-06-19T10:35:49+00:00</time>
      </trkpt>
      <trkpt lat="40.700355" lon="-3.938105">
        <ele>954.71</ele>
        <time>2022-06-19T10:35:50+00:00</time>
      </trkpt>
      <trkpt lat="40.700377" lon="-3.938277">
        <ele>954.71</ele>
        <time>2022-06-19T10:35:51+00:00</time>
      </trkpt>
      <trkpt lat="40.700419" lon="-3.938470">
        <ele>954.71</ele>
        <time>2022-06-19T10:35:52+00:00</time>
      </trkpt>
      <trkpt lat="40.700548" lon="-3.939886">
        <ele>958.55</ele>
        <time>2022-06-19T10:35:58+00:00</time>
      </trkpt>
      <trkpt lat="40.700677" lon="-3.941002">
        <ele>960.96</ele>
        <time>2022-06-19T10:36:02+00:00</time>
      </trkpt>
      <trkpt lat="40.700784" lon="-3.941259">
        <ele>961.44</ele>
        <time>2022-06-19T10:36:03+00:00</time>
      </trkpt>
      <trkpt lat="40.700891" lon="-3.941517">
        <ele>960.96</ele>
        <time>2022-06-19T10:36:04+00:00</time>
      </trkpt>
      <trkpt lat="40.701042" lon="-3.941753">
        <ele>960.96</ele>
        <time>2022-06-19T10:36:05+00:00</time>
      </trkpt>
      <trkpt lat="40.701192" lon="-3.941989">
        <ele>961.44</ele>
        <time>2022-06-19T10:36:06+00:00</time>
      </trkpt>
      <trkpt lat="40.701793" lon="-3.942783">
        <ele>960.96</ele>
        <time>2022-06-19T10:36:11+00:00</time>
      </trkpt>
      <trkpt lat="40.701943" lon="-3.942933">
        <ele>960.96</ele>
        <time>2022-06-19T10:36:13+00:00</time>
      </trkpt>
      <trkpt lat="40.702007" lon="-3.942998">
        <ele>960.48</ele>
        <time>2022-06-19T10:36:14+00:00</time>
      </trkpt>
      <trkpt lat="40.702115" lon="-3.943062">
        <ele>960.48</ele>
        <time>2022-06-19T10:36:15+00:00</time>
      </trkpt>
      <trkpt lat="40.702200" lon="-3.943126">
        <ele>960.48</ele>
        <time>2022-06-19T10:36:16+00:00</time>
      </trkpt>
      <trkpt lat="40.702243" lon="-3.943276">
        <ele>960.48</ele>
        <time>2022-06-19T10:36:17+00:00</time>
      </trkpt>
      <trkpt lat="40.702222" lon="-3.943470">
        <ele>960.48</ele>
        <time>2022-06-19T10:36:18+00:00</time>
      </trkpt>
      <trkpt lat="40.702308" lon="-3.943598">
        <ele>960.48</ele>
        <time>2022-06-19T10:36:19+00:00</time>
      </trkpt>
      <trkpt lat="40.702394" lon="-3.943706">
        <ele>960.48</ele>
        <time>2022-06-19T10:36:20+00:00</time>
      </trkpt>
      <trkpt lat="40.702501" lon="-3.943834">
        <ele>960.96</ele>
        <time>2022-06-19T10:36:21+00:00</time>
      </trkpt>
      <trkpt lat="40.703531" lon="-3.945165">
        <ele>963.36</ele>
        <time>2022-06-19T10:36:30+00:00</time>
      </trkpt>
      <trkpt lat="40.704368" lon="-3.946688">
        <ele>967.20</ele>
        <time>2022-06-19T10:36:38+00:00</time>
      </trkpt>
      <trkpt lat="40.704990" lon="-3.948641">
        <ele>971.05</ele>
        <time>2022-06-19T10:36:48+00:00</time>
      </trkpt>
      <trkpt lat="40.705505" lon="-3.951666">
        <ele>976.34</ele>
        <time>2022-06-19T10:37:03+00:00</time>
      </trkpt>
      <trkpt lat="40.705762" lon="-3.953126">
        <ele>978.74</ele>
        <time>2022-06-19T10:37:12+00:00</time>
      </trkpt>
      <trkpt lat="40.706020" lon="-3.954070">
        <ele>980.18</ele>
        <time>2022-06-19T10:37:19+00:00</time>
      </trkpt>
      <trkpt lat="40.706084" lon="-3.954177">
        <ele>980.18</ele>
        <time>2022-06-19T10:37:20+00:00</time>
      </trkpt>
      <trkpt lat="40.706149" lon="-3.954241">
        <ele>980.66</ele>
        <time>2022-06-19T10:37:21+00:00</time>
      </trkpt>
      <trkpt lat="40.706234" lon="-3.954306">
        <ele>980.66</ele>
        <time>2022-06-19T10:37:22+00:00</time>
      </trkpt>
      <trkpt lat="40.706320" lon="-3.954349">
        <ele>980.66</ele>
        <time>2022-06-19T10:37:23+00:00</time>
      </trkpt>
      <trkpt lat="40.706385" lon="-3.954413">
        <ele>980.66</ele>
        <time>2022-06-19T10:37:24+00:00</time>
      </trkpt>
      <trkpt lat="40.706470" lon="-3.954477">
        <ele>981.14</ele>
        <time>2022-06-19T10:37:25+00:00</time>
      </trkpt>
      <trkpt lat="40.706535" lon="-3.954542">
        <ele>981.14</ele>
        <time>2022-06-19T10:37:26+00:00</time>
      </trkpt>
      <trkpt lat="40.706556" lon="-3.954670">
        <ele>981.62</ele>
        <time>2022-06-19T10:37:27+00:00</time>
      </trkpt>
      <trkpt lat="40.706578" lon="-3.954799">
        <ele>982.11</ele>
        <time>2022-06-19T10:37:28+00:00</time>
      </trkpt>
      <trkpt lat="40.706599" lon="-3.954992">
        <ele>982.59</ele>
        <time>2022-06-19T10:37:29+00:00</time>
      </trkpt>
      <trkpt lat="40.706685" lon="-3.955143">
        <ele>983.07</ele>
        <time>2022-06-19T10:37:30+00:00</time>
      </trkpt>
      <trkpt lat="40.706792" lon="-3.955250">
        <ele>983.55</ele>
        <time>2022-06-19T10:37:31+00:00</time>
      </trkpt>
      <trkpt lat="40.706921" lon="-3.955400">
        <ele>984.03</ele>
        <time>2022-06-19T10:37:32+00:00</time>
      </trkpt>
      <trkpt lat="40.707050" lon="-3.955572">
        <ele>984.51</ele>
        <time>2022-06-19T10:37:33+00:00</time>
      </trkpt>
      <trkpt lat="40.708251" lon="-3.957052">
        <ele>987.39</ele>
        <time>2022-06-19T10:37:40+00:00</time>
      </trkpt>
      <trkpt lat="40.709839" lon="-3.959177">
        <ele>990.28</ele>
        <time>2022-06-19T10:37:49+00:00</time>
      </trkpt>
      <trkpt lat="40.711427" lon="-3.961301">
        <ele>997.01</ele>
        <time>2022-06-19T10:37:58+00:00</time>
      </trkpt>
      <trkpt lat="40.713273" lon="-3.963769">
        <ele>1009.50</ele>
        <time>2022-06-19T10:38:07+00:00</time>
      </trkpt>
      <trkpt lat="40.714539" lon="-3.965421">
        <ele>1018.15</ele>
        <time>2022-06-19T10:38:14+00:00</time>
      </trkpt>
      <trkpt lat="40.716234" lon="-3.967717">
        <ele>1029.21</ele>
        <time>2022-06-19T10:38:22+00:00</time>
      </trkpt>
      <trkpt lat="40.718959" lon="-3.971064">
        <ele>1045.55</ele>
        <time>2022-06-19T10:38:33+00:00</time>
      </trkpt>
      <trkpt lat="40.721791" lon="-3.974369">
        <ele>1059.97</ele>
        <time>2022-06-19T10:38:45+00:00</time>
      </trkpt>
      <trkpt lat="40.723207" lon="-3.976021">
        <ele>1070.55</ele>
        <time>2022-06-19T10:38:52+00:00</time>
      </trkpt>
      <trkpt lat="40.724495" lon="-3.977459">
        <ele>1084.00</ele>
        <time>2022-06-19T10:39:01+00:00</time>
      </trkpt>
      <trkpt lat="40.725525" lon="-3.978424">
        <ele>1093.62</ele>
        <time>2022-06-19T10:39:09+00:00</time>
      </trkpt>
      <trkpt lat="40.725976" lon="-3.978767">
        <ele>1098.42</ele>
        <time>2022-06-19T10:39:14+00:00</time>
      </trkpt>
      <trkpt lat="40.726061" lon="-3.978832">
        <ele>1099.39</ele>
        <time>2022-06-19T10:39:15+00:00</time>
      </trkpt>
      <trkpt lat="40.726254" lon="-3.978853">
        <ele>1100.35</ele>
        <time>2022-06-19T10:39:17+00:00</time>
      </trkpt>
      <trkpt lat="40.726340" lon="-3.978939">
        <ele>1100.83</ele>
        <time>2022-06-19T10:39:18+00:00</time>
      </trkpt>
      <trkpt lat="40.726362" lon="-3.979068">
        <ele>1101.31</ele>
        <time>2022-06-19T10:39:19+00:00</time>
      </trkpt>
      <trkpt lat="40.726448" lon="-3.979240">
        <ele>1101.31</ele>
        <time>2022-06-19T10:39:20+00:00</time>
      </trkpt>
      <trkpt lat="40.726555" lon="-3.979390">
        <ele>1102.27</ele>
        <time>2022-06-19T10:39:21+00:00</time>
      </trkpt>
      <trkpt lat="40.726684" lon="-3.979561">
        <ele>1102.75</ele>
        <time>2022-06-19T10:39:22+00:00</time>
      </trkpt>
      <trkpt lat="40.726812" lon="-3.979754">
        <ele>1103.71</ele>
        <time>2022-06-19T10:39:23+00:00</time>
      </trkpt>
      <trkpt lat="40.726898" lon="-3.979969">
        <ele>1105.15</ele>
        <time>2022-06-19T10:39:24+00:00</time>
      </trkpt>
      <trkpt lat="40.727005" lon="-3.980184">
        <ele>1106.59</ele>
        <time>2022-06-19T10:39:25+00:00</time>
      </trkpt>
      <trkpt lat="40.727091" lon="-3.980441">
        <ele>1107.56</ele>
        <time>2022-06-19T10:39:26+00:00</time>
      </trkpt>
      <trkpt lat="40.727156" lon="-3.980720">
        <ele>1109.00</ele>
        <time>2022-06-19T10:39:27+00:00</time>
      </trkpt>
      <trkpt lat="40.727242" lon="-3.980999">
        <ele>1110.44</ele>
        <time>2022-06-19T10:39:28+00:00</time>
      </trkpt>
      <trkpt lat="40.727306" lon="-3.981299">
        <ele>1111.88</ele>
        <time>2022-06-19T10:39:29+00:00</time>
      </trkpt>
      <trkpt lat="40.727306" lon="-3.981621">
        <ele>1113.32</ele>
        <time>2022-06-19T10:39:30+00:00</time>
      </trkpt>
      <trkpt lat="40.727306" lon="-3.981943">
        <ele>1114.77</ele>
        <time>2022-06-19T10:39:31+00:00</time>
      </trkpt>
      <trkpt lat="40.727306" lon="-3.982244">
        <ele>1116.69</ele>
        <time>2022-06-19T10:39:32+00:00</time>
      </trkpt>
      <trkpt lat="40.727263" lon="-3.982587">
        <ele>1118.13</ele>
        <time>2022-06-19T10:39:33+00:00</time>
      </trkpt>
      <trkpt lat="40.727177" lon="-3.982909">
        <ele>1119.57</ele>
        <time>2022-06-19T10:39:34+00:00</time>
      </trkpt>
      <trkpt lat="40.727070" lon="-3.983231">
        <ele>1121.50</ele>
        <time>2022-06-19T10:39:35+00:00</time>
      </trkpt>
      <trkpt lat="40.726963" lon="-3.983574">
        <ele>1123.42</ele>
        <time>2022-06-19T10:39:36+00:00</time>
      </trkpt>
      <trkpt lat="40.725868" lon="-3.986986">
        <ele>1142.16</ele>
        <time>2022-06-19T10:39:46+00:00</time>
      </trkpt>
      <trkpt lat="40.725375" lon="-3.988767">
        <ele>1151.78</ele>
        <time>2022-06-19T10:39:51+00:00</time>
      </trkpt>
      <trkpt lat="40.725332" lon="-3.989131">
        <ele>1153.70</ele>
        <time>2022-06-19T10:39:52+00:00</time>
      </trkpt>
      <trkpt lat="40.725074" lon="-3.992586">
        <ele>1170.52</ele>
        <time>2022-06-19T10:40:01+00:00</time>
      </trkpt>
      <trkpt lat="40.725139" lon="-3.994453">
        <ele>1175.81</ele>
        <time>2022-06-19T10:40:07+00:00</time>
      </trkpt>
      <trkpt lat="40.725525" lon="-3.995740">
        <ele>1175.33</ele>
        <time>2022-06-19T10:40:13+00:00</time>
      </trkpt>
      <trkpt lat="40.726448" lon="-3.996985">
        <ele>1175.81</ele>
        <time>2022-06-19T10:40:20+00:00</time>
      </trkpt>
      <trkpt lat="40.727756" lon="-3.998594">
        <ele>1180.14</ele>
        <time>2022-06-19T10:40:28+00:00</time>
      </trkpt>
      <trkpt lat="40.729194" lon="-4.000483">
        <ele>1187.83</ele>
        <time>2022-06-19T10:40:35+00:00</time>
      </trkpt>
      <trkpt lat="40.731383" lon="-4.003551">
        <ele>1199.36</ele>
        <time>2022-06-19T10:40:46+00:00</time>
      </trkpt>
      <trkpt lat="40.732735" lon="-4.005418">
        <ele>1208.49</ele>
        <time>2022-06-19T10:40:54+00:00</time>
      </trkpt>
      <trkpt lat="40.733486" lon="-4.006298">
        <ele>1215.22</ele>
        <time>2022-06-19T10:41:00+00:00</time>
      </trkpt>
      <trkpt lat="40.733743" lon="-4.006448">
        <ele>1217.15</ele>
        <time>2022-06-19T10:41:02+00:00</time>
      </trkpt>
      <trkpt lat="40.733808" lon="-4.006555">
        <ele>1217.63</ele>
        <time>2022-06-19T10:41:03+00:00</time>
      </trkpt>
      <trkpt lat="40.733850" lon="-4.006813">
        <ele>1218.11</ele>
        <time>2022-06-19T10:41:04+00:00</time>
      </trkpt>
      <trkpt lat="40.733936" lon="-4.006984">
        <ele>1218.59</ele>
        <time>2022-06-19T10:41:05+00:00</time>
      </trkpt>
      <trkpt lat="40.734022" lon="-4.007199">
        <ele>1219.07</ele>
        <time>2022-06-19T10:41:06+00:00</time>
      </trkpt>
      <trkpt lat="40.734129" lon="-4.007371">
        <ele>1220.03</ele>
        <time>2022-06-19T10:41:07+00:00</time>
      </trkpt>
      <trkpt lat="40.735009" lon="-4.008615">
        <ele>1228.68</ele>
        <time>2022-06-19T10:41:15+00:00</time>
      </trkpt>
      <trkpt lat="40.735353" lon="-4.009152">
        <ele>1231.08</ele>
        <time>2022-06-19T10:41:18+00:00</time>
      </trkpt>
      <trkpt lat="40.735417" lon="-4.009345">
        <ele>1232.05</ele>
        <time>2022-06-19T10:41:19+00:00</time>
      </trkpt>
      <trkpt lat="40.735481" lon="-4.009516">
        <ele>1233.01</ele>
        <time>2022-06-19T10:41:20+00:00</time>
      </trkpt>
      <trkpt lat="40.735503" lon="-4.009688">
        <ele>1233.49</ele>
        <time>2022-06-19T10:41:21+00:00</time>
      </trkpt>
      <trkpt lat="40.735546" lon="-4.009881">
        <ele>1233.97</ele>
        <time>2022-06-19T10:41:22+00:00</time>
      </trkpt>
      <trkpt lat="40.735546" lon="-4.010074">
        <ele>1234.45</ele>
        <time>2022-06-19T10:41:23+00:00</time>
      </trkpt>
      <trkpt lat="40.735567" lon="-4.010289">
        <ele>1234.93</ele>
        <time>2022-06-19T10:41:24+00:00</time>
      </trkpt>
      <trkpt lat="40.735524" lon="-4.010482">
        <ele>1235.41</ele>
        <time>2022-06-19T10:41:25+00:00</time>
      </trkpt>
      <trkpt lat="40.735481" lon="-4.010696">
        <ele>1235.89</ele>
        <time>2022-06-19T10:41:26+00:00</time>
      </trkpt>
      <trkpt lat="40.735460" lon="-4.010911">
        <ele>1235.89</ele>
        <time>2022-06-19T10:41:27+00:00</time>
      </trkpt>
      <trkpt lat="40.735395" lon="-4.011104">
        <ele>1235.89</ele>
        <time>2022-06-19T10:41:28+00:00</time>
      </trkpt>
      <trkpt lat="40.735310" lon="-4.011319">
        <ele>1235.89</ele>
        <time>2022-06-19T10:41:29+00:00</time>
      </trkpt>
      <trkpt lat="40.735181" lon="-4.011533">
        <ele>1235.89</ele>
        <time>2022-06-19T10:41:30+00:00</time>
      </trkpt>
      <trkpt lat="40.735031" lon="-4.011726">
        <ele>1236.37</ele>
        <time>2022-06-19T10:41:31+00:00</time>
      </trkpt>
      <trkpt lat="40.734838" lon="-4.011920">
        <ele>1236.85</ele>
        <time>2022-06-19T10:41:32+00:00</time>
      </trkpt>
      <trkpt lat="40.734623" lon="-4.012091">
        <ele>1237.33</ele>
        <time>2022-06-19T10:41:33+00:00</time>
      </trkpt>
      <trkpt lat="40.734408" lon="-4.012306">
        <ele>1237.81</ele>
        <time>2022-06-19T10:41:34+00:00</time>
      </trkpt>
      <trkpt lat="40.734215" lon="-4.012520">
        <ele>1238.29</ele>
        <time>2022-06-19T10:41:35+00:00</time>
      </trkpt>
      <trkpt lat="40.734065" lon="-4.012756">
        <ele>1239.26</ele>
        <time>2022-06-19T10:41:36+00:00</time>
      </trkpt>
      <trkpt lat="40.733958" lon="-4.013035">
        <ele>1240.70</ele>
        <time>2022-06-19T10:41:37+00:00</time>
      </trkpt>
      <trkpt lat="40.733872" lon="-4.013336">
        <ele>1241.66</ele>
        <time>2022-06-19T10:41:38+00:00</time>
      </trkpt>
      <trkpt lat="40.733829" lon="-4.013658">
        <ele>1243.10</ele>
        <time>2022-06-19T10:41:39+00:00</time>
      </trkpt>
      <trkpt lat="40.733829" lon="-4.014001">
        <ele>1244.54</ele>
        <time>2022-06-19T10:41:40+00:00</time>
      </trkpt>
      <trkpt lat="40.733829" lon="-4.014344">
        <ele>1246.47</ele>
        <time>2022-06-19T10:41:41+00:00</time>
      </trkpt>
      <trkpt lat="40.733915" lon="-4.014688">
        <ele>1248.39</ele>
        <time>2022-06-19T10:41:42+00:00</time>
      </trkpt>
      <trkpt lat="40.733979" lon="-4.015052">
        <ele>1250.31</ele>
        <time>2022-06-19T10:41:43+00:00</time>
      </trkpt>
      <trkpt lat="40.734065" lon="-4.015439">
        <ele>1251.75</ele>
        <time>2022-06-19T10:41:44+00:00</time>
      </trkpt>
      <trkpt lat="40.734194" lon="-4.015782">
        <ele>1253.68</ele>
        <time>2022-06-19T10:41:45+00:00</time>
      </trkpt>
      <trkpt lat="40.734323" lon="-4.016125">
        <ele>1256.08</ele>
        <time>2022-06-19T10:41:46+00:00</time>
      </trkpt>
      <trkpt lat="40.734537" lon="-4.016812">
        <ele>1260.40</ele>
        <time>2022-06-19T10:41:48+00:00</time>
      </trkpt>
      <trkpt lat="40.734580" lon="-4.017177">
        <ele>1262.33</ele>
        <time>2022-06-19T10:41:49+00:00</time>
      </trkpt>
      <trkpt lat="40.734580" lon="-4.017541">
        <ele>1265.21</ele>
        <time>2022-06-19T10:41:50+00:00</time>
      </trkpt>
      <trkpt lat="40.734559" lon="-4.019215">
        <ele>1276.75</ele>
        <time>2022-06-19T10:41:55+00:00</time>
      </trkpt>
      <trkpt lat="40.734516" lon="-4.019795">
        <ele>1281.07</ele>
        <time>2022-06-19T10:41:57+00:00</time>
      </trkpt>
      <trkpt lat="40.734473" lon="-4.020073">
        <ele>1283.00</ele>
        <time>2022-06-19T10:41:58+00:00</time>
      </trkpt>
      <trkpt lat="40.734194" lon="-4.021425">
        <ele>1292.13</ele>
        <time>2022-06-19T10:42:03+00:00</time>
      </trkpt>
      <trkpt lat="40.734108" lon="-4.021790">
        <ele>1294.05</ele>
        <time>2022-06-19T10:42:05+00:00</time>
      </trkpt>
      <trkpt lat="40.734044" lon="-4.021940">
        <ele>1295.01</ele>
        <time>2022-06-19T10:42:06+00:00</time>
      </trkpt>
      <trkpt lat="40.733958" lon="-4.022048">
        <ele>1295.49</ele>
        <time>2022-06-19T10:42:07+00:00</time>
      </trkpt>
      <trkpt lat="40.733872" lon="-4.022155">
        <ele>1295.97</ele>
        <time>2022-06-19T10:42:08+00:00</time>
      </trkpt>
      <trkpt lat="40.733808" lon="-4.022262">
        <ele>1295.97</ele>
        <time>2022-06-19T10:42:09+00:00</time>
      </trkpt>
      <trkpt lat="40.733636" lon="-4.022477">
        <ele>1295.49</ele>
        <time>2022-06-19T10:42:11+00:00</time>
      </trkpt>
      <trkpt lat="40.733572" lon="-4.022605">
        <ele>1295.01</ele>
        <time>2022-06-19T10:42:12+00:00</time>
      </trkpt>
      <trkpt lat="40.733529" lon="-4.022734">
        <ele>1294.05</ele>
        <time>2022-06-19T10:42:13+00:00</time>
      </trkpt>
      <trkpt lat="40.733507" lon="-4.022884">
        <ele>1293.09</ele>
        <time>2022-06-19T10:42:14+00:00</time>
      </trkpt>
      <trkpt lat="40.733486" lon="-4.023056">
        <ele>1292.13</ele>
        <time>2022-06-19T10:42:15+00:00</time>
      </trkpt>
      <trkpt lat="40.733464" lon="-4.023206">
        <ele>1291.17</ele>
        <time>2022-06-19T10:42:16+00:00</time>
      </trkpt>
      <trkpt lat="40.733164" lon="-4.024494">
        <ele>1283.00</ele>
        <time>2022-06-19T10:42:24+00:00</time>
      </trkpt>
      <trkpt lat="40.732863" lon="-4.025631">
        <ele>1275.79</ele>
        <time>2022-06-19T10:42:31+00:00</time>
      </trkpt>
      <trkpt lat="40.732842" lon="-4.025803">
        <ele>1274.82</ele>
        <time>2022-06-19T10:42:32+00:00</time>
      </trkpt>
      <trkpt lat="40.732799" lon="-4.026125">
        <ele>1272.90</ele>
        <time>2022-06-19T10:42:34+00:00</time>
      </trkpt>
      <trkpt lat="40.732778" lon="-4.026275">
        <ele>1271.94</ele>
        <time>2022-06-19T10:42:35+00:00</time>
      </trkpt>
      <trkpt lat="40.732735" lon="-4.026425">
        <ele>1270.98</ele>
        <time>2022-06-19T10:42:36+00:00</time>
      </trkpt>
      <trkpt lat="40.732434" lon="-4.027562">
        <ele>1263.29</ele>
        <time>2022-06-19T10:42:43+00:00</time>
      </trkpt>
      <trkpt lat="40.732391" lon="-4.027755">
        <ele>1262.33</ele>
        <time>2022-06-19T10:42:44+00:00</time>
      </trkpt>
      <trkpt lat="40.732112" lon="-4.029343">
        <ele>1254.16</ele>
        <time>2022-06-19T10:42:53+00:00</time>
      </trkpt>
      <trkpt lat="40.731748" lon="-4.031146">
        <ele>1244.06</ele>
        <time>2022-06-19T10:43:02+00:00</time>
      </trkpt>
      <trkpt lat="40.731512" lon="-4.032369">
        <ele>1238.29</ele>
        <time>2022-06-19T10:43:07+00:00</time>
      </trkpt>
      <trkpt lat="40.731490" lon="-4.032648">
        <ele>1236.85</ele>
        <time>2022-06-19T10:43:08+00:00</time>
      </trkpt>
      <trkpt lat="40.731490" lon="-4.033742">
        <ele>1231.57</ele>
        <time>2022-06-19T10:43:12+00:00</time>
      </trkpt>
      <trkpt lat="40.731447" lon="-4.033978">
        <ele>1229.64</ele>
        <time>2022-06-19T10:43:13+00:00</time>
      </trkpt>
      <trkpt lat="40.731383" lon="-4.034171">
        <ele>1228.20</ele>
        <time>2022-06-19T10:43:14+00:00</time>
      </trkpt>
      <trkpt lat="40.731276" lon="-4.034386">
        <ele>1226.28</ele>
        <time>2022-06-19T10:43:15+00:00</time>
      </trkpt>
      <trkpt lat="40.731125" lon="-4.034579">
        <ele>1224.84</ele>
        <time>2022-06-19T10:43:16+00:00</time>
      </trkpt>
      <trkpt lat="40.730975" lon="-4.034751">
        <ele>1223.39</ele>
        <time>2022-06-19T10:43:17+00:00</time>
      </trkpt>
      <trkpt lat="40.730803" lon="-4.034901">
        <ele>1221.95</ele>
        <time>2022-06-19T10:43:18+00:00</time>
      </trkpt>
      <trkpt lat="40.730632" lon="-4.035029">
        <ele>1220.51</ele>
        <time>2022-06-19T10:43:19+00:00</time>
      </trkpt>
      <trkpt lat="40.730439" lon="-4.035137">
        <ele>1219.07</ele>
        <time>2022-06-19T10:43:20+00:00</time>
      </trkpt>
      <trkpt lat="40.730246" lon="-4.035223">
        <ele>1217.63</ele>
        <time>2022-06-19T10:43:21+00:00</time>
      </trkpt>
      <trkpt lat="40.730052" lon="-4.035330">
        <ele>1216.67</ele>
        <time>2022-06-19T10:43:22+00:00</time>
      </trkpt>
      <trkpt lat="40.729881" lon="-4.035416">
        <ele>1215.22</ele>
        <time>2022-06-19T10:43:23+00:00</time>
      </trkpt>
      <trkpt lat="40.729752" lon="-4.035587">
        <ele>1214.26</ele>
        <time>2022-06-19T10:43:24+00:00</time>
      </trkpt>
      <trkpt lat="40.729623" lon="-4.035738">
        <ele>1212.82</ele>
        <time>2022-06-19T10:43:25+00:00</time>
      </trkpt>
      <trkpt lat="40.729516" lon="-4.035888">
        <ele>1211.38</ele>
        <time>2022-06-19T10:43:26+00:00</time>
      </trkpt>
      <trkpt lat="40.729452" lon="-4.036102">
        <ele>1210.42</ele>
        <time>2022-06-19T10:43:27+00:00</time>
      </trkpt>
      <trkpt lat="40.729387" lon="-4.036317">
        <ele>1208.97</ele>
        <time>2022-06-19T10:43:28+00:00</time>
      </trkpt>
      <trkpt lat="40.729409" lon="-4.036574">
        <ele>1208.01</ele>
        <time>2022-06-19T10:43:29+00:00</time>
      </trkpt>
      <trkpt lat="40.729430" lon="-4.036875">
        <ele>1206.57</ele>
        <time>2022-06-19T10:43:30+00:00</time>
      </trkpt>
      <trkpt lat="40.729452" lon="-4.037154">
        <ele>1205.13</ele>
        <time>2022-06-19T10:43:31+00:00</time>
      </trkpt>
      <trkpt lat="40.729495" lon="-4.037669">
        <ele>1202.25</ele>
        <time>2022-06-19T10:43:33+00:00</time>
      </trkpt>
      <trkpt lat="40.729430" lon="-4.037905">
        <ele>1201.28</ele>
        <time>2022-06-19T10:43:34+00:00</time>
      </trkpt>
      <trkpt lat="40.729387" lon="-4.038119">
        <ele>1199.84</ele>
        <time>2022-06-19T10:43:35+00:00</time>
      </trkpt>
      <trkpt lat="40.729259" lon="-4.038549">
        <ele>1196.96</ele>
        <time>2022-06-19T10:43:37+00:00</time>
      </trkpt>
      <trkpt lat="40.729216" lon="-4.038742">
        <ele>1195.52</ele>
        <time>2022-06-19T10:43:38+00:00</time>
      </trkpt>
      <trkpt lat="40.729194" lon="-4.038935">
        <ele>1194.07</ele>
        <time>2022-06-19T10:43:39+00:00</time>
      </trkpt>
      <trkpt lat="40.729216" lon="-4.039128">
        <ele>1192.63</ele>
        <time>2022-06-19T10:43:40+00:00</time>
      </trkpt>
      <trkpt lat="40.729237" lon="-4.039321">
        <ele>1191.67</ele>
        <time>2022-06-19T10:43:41+00:00</time>
      </trkpt>
      <trkpt lat="40.729259" lon="-4.039514">
        <ele>1190.71</ele>
        <time>2022-06-19T10:43:42+00:00</time>
      </trkpt>
      <trkpt lat="40.729301" lon="-4.039686">
        <ele>1189.27</ele>
        <time>2022-06-19T10:43:43+00:00</time>
      </trkpt>
      <trkpt lat="40.729323" lon="-4.039857">
        <ele>1188.31</ele>
        <time>2022-06-19T10:43:44+00:00</time>
      </trkpt>
      <trkpt lat="40.729344" lon="-4.040008">
        <ele>1187.34</ele>
        <time>2022-06-19T10:43:45+00:00</time>
      </trkpt>
      <trkpt lat="40.729323" lon="-4.040158">
        <ele>1186.38</ele>
        <time>2022-06-19T10:43:46+00:00</time>
      </trkpt>
      <trkpt lat="40.729323" lon="-4.040308">
        <ele>1184.94</ele>
        <time>2022-06-19T10:43:47+00:00</time>
      </trkpt>
      <trkpt lat="40.729259" lon="-4.040458">
        <ele>1183.98</ele>
        <time>2022-06-19T10:43:48+00:00</time>
      </trkpt>
      <trkpt lat="40.729194" lon="-4.040587">
        <ele>1183.02</ele>
        <time>2022-06-19T10:43:49+00:00</time>
      </trkpt>
      <trkpt lat="40.728937" lon="-4.041252">
        <ele>1179.17</ele>
        <time>2022-06-19T10:43:53+00:00</time>
      </trkpt>
      <trkpt lat="40.728872" lon="-4.041445">
        <ele>1178.21</ele>
        <time>2022-06-19T10:43:54+00:00</time>
      </trkpt>
      <trkpt lat="40.728679" lon="-4.041982">
        <ele>1175.33</ele>
        <time>2022-06-19T10:43:57+00:00</time>
      </trkpt>
      <trkpt lat="40.728615" lon="-4.042153">
        <ele>1173.89</ele>
        <time>2022-06-19T10:43:58+00:00</time>
      </trkpt>
      <trkpt lat="40.728508" lon="-4.042304">
        <ele>1172.93</ele>
        <time>2022-06-19T10:43:59+00:00</time>
      </trkpt>
      <trkpt lat="40.727606" lon="-4.043419">
        <ele>1164.27</ele>
        <time>2022-06-19T10:44:07+00:00</time>
      </trkpt>
      <trkpt lat="40.727520" lon="-4.043527">
        <ele>1163.31</ele>
        <time>2022-06-19T10:44:08+00:00</time>
      </trkpt>
      <trkpt lat="40.727435" lon="-4.043677">
        <ele>1161.87</ele>
        <time>2022-06-19T10:44:09+00:00</time>
      </trkpt>
      <trkpt lat="40.727370" lon="-4.043870">
        <ele>1160.91</ele>
        <time>2022-06-19T10:44:10+00:00</time>
      </trkpt>
      <trkpt lat="40.727306" lon="-4.044106">
        <ele>1159.95</ele>
        <time>2022-06-19T10:44:11+00:00</time>
      </trkpt>
      <trkpt lat="40.727242" lon="-4.044364">
        <ele>1158.99</ele>
        <time>2022-06-19T10:44:12+00:00</time>
      </trkpt>
      <trkpt lat="40.727134" lon="-4.044642">
        <ele>1158.03</ele>
        <time>2022-06-19T10:44:13+00:00</time>
      </trkpt>
      <trkpt lat="40.727027" lon="-4.044964">
        <ele>1157.06</ele>
        <time>2022-06-19T10:44:14+00:00</time>
      </trkpt>
      <trkpt lat="40.726233" lon="-4.047024">
        <ele>1151.78</ele>
        <time>2022-06-19T10:44:20+00:00</time>
      </trkpt>
      <trkpt lat="40.725482" lon="-4.048634">
        <ele>1150.82</ele>
        <time>2022-06-19T10:44:26+00:00</time>
      </trkpt>
      <trkpt lat="40.725310" lon="-4.048848">
        <ele>1150.82</ele>
        <time>2022-06-19T10:44:27+00:00</time>
      </trkpt>
      <trkpt lat="40.725117" lon="-4.049063">
        <ele>1151.30</ele>
        <time>2022-06-19T10:44:28+00:00</time>
      </trkpt>
      <trkpt lat="40.724366" lon="-4.049728">
        <ele>1150.82</ele>
        <time>2022-06-19T10:44:32+00:00</time>
      </trkpt>
      <trkpt lat="40.724173" lon="-4.049835">
        <ele>1150.33</ele>
        <time>2022-06-19T10:44:33+00:00</time>
      </trkpt>
      <trkpt lat="40.723958" lon="-4.049900">
        <ele>1149.37</ele>
        <time>2022-06-19T10:44:34+00:00</time>
      </trkpt>
      <trkpt lat="40.723744" lon="-4.049943">
        <ele>1148.41</ele>
        <time>2022-06-19T10:44:35+00:00</time>
      </trkpt>
      <trkpt lat="40.723551" lon="-4.049964">
        <ele>1147.45</ele>
        <time>2022-06-19T10:44:36+00:00</time>
      </trkpt>
      <trkpt lat="40.723336" lon="-4.049943">
        <ele>1146.49</ele>
        <time>2022-06-19T10:44:37+00:00</time>
      </trkpt>
      <trkpt lat="40.723143" lon="-4.049943">
        <ele>1145.05</ele>
        <time>2022-06-19T10:44:38+00:00</time>
      </trkpt>
      <trkpt lat="40.722392" lon="-4.049900">
        <ele>1141.20</ele>
        <time>2022-06-19T10:44:42+00:00</time>
      </trkpt>
      <trkpt lat="40.722242" lon="-4.049921">
        <ele>1140.24</ele>
        <time>2022-06-19T10:44:43+00:00</time>
      </trkpt>
      <trkpt lat="40.722113" lon="-4.050007">
        <ele>1139.76</ele>
        <time>2022-06-19T10:44:44+00:00</time>
      </trkpt>
      <trkpt lat="40.721984" lon="-4.050093">
        <ele>1139.28</ele>
        <time>2022-06-19T10:44:45+00:00</time>
      </trkpt>
      <trkpt lat="40.721899" lon="-4.050264">
        <ele>1138.80</ele>
        <time>2022-06-19T10:44:46+00:00</time>
      </trkpt>
      <trkpt lat="40.721813" lon="-4.050436">
        <ele>1138.32</ele>
        <time>2022-06-19T10:44:47+00:00</time>
      </trkpt>
      <trkpt lat="40.721727" lon="-4.050608">
        <ele>1137.36</ele>
        <time>2022-06-19T10:44:48+00:00</time>
      </trkpt>
      <trkpt lat="40.721426" lon="-4.051058">
        <ele>1135.43</ele>
        <time>2022-06-19T10:44:51+00:00</time>
      </trkpt>
      <trkpt lat="40.721319" lon="-4.051209">
        <ele>1134.47</ele>
        <time>2022-06-19T10:44:52+00:00</time>
      </trkpt>
      <trkpt lat="40.721190" lon="-4.051337">
        <ele>1133.51</ele>
        <time>2022-06-19T10:44:53+00:00</time>
      </trkpt>
      <trkpt lat="40.720611" lon="-4.052088">
        <ele>1128.22</ele>
        <time>2022-06-19T10:44:58+00:00</time>
      </trkpt>
      <trkpt lat="40.720525" lon="-4.052260">
        <ele>1127.74</ele>
        <time>2022-06-19T10:44:59+00:00</time>
      </trkpt>
      <trkpt lat="40.720439" lon="-4.052432">
        <ele>1127.26</ele>
        <time>2022-06-19T10:45:00+00:00</time>
      </trkpt>
      <trkpt lat="40.720160" lon="-4.053140">
        <ele>1124.38</ele>
        <time>2022-06-19T10:45:04+00:00</time>
      </trkpt>
      <trkpt lat="40.720075" lon="-4.053311">
        <ele>1122.94</ele>
        <time>2022-06-19T10:45:05+00:00</time>
      </trkpt>
      <trkpt lat="40.719946" lon="-4.053440">
        <ele>1121.98</ele>
        <time>2022-06-19T10:45:06+00:00</time>
      </trkpt>
      <trkpt lat="40.719796" lon="-4.053569">
        <ele>1120.53</ele>
        <time>2022-06-19T10:45:07+00:00</time>
      </trkpt>
      <trkpt lat="40.719667" lon="-4.053698">
        <ele>1119.57</ele>
        <time>2022-06-19T10:45:08+00:00</time>
      </trkpt>
      <trkpt lat="40.719216" lon="-4.054084">
        <ele>1115.73</ele>
        <time>2022-06-19T10:45:11+00:00</time>
      </trkpt>
      <trkpt lat="40.719109" lon="-4.054256">
        <ele>1114.77</ele>
        <time>2022-06-19T10:45:12+00:00</time>
      </trkpt>
      <trkpt lat="40.719002" lon="-4.054427">
        <ele>1113.80</ele>
        <time>2022-06-19T10:45:13+00:00</time>
      </trkpt>
      <trkpt lat="40.718959" lon="-4.054663">
        <ele>1113.32</ele>
        <time>2022-06-19T10:45:14+00:00</time>
      </trkpt>
      <trkpt lat="40.718937" lon="-4.054899">
        <ele>1112.84</ele>
        <time>2022-06-19T10:45:15+00:00</time>
      </trkpt>
      <trkpt lat="40.718916" lon="-4.055114">
        <ele>1112.84</ele>
        <time>2022-06-19T10:45:16+00:00</time>
      </trkpt>
      <trkpt lat="40.718637" lon="-4.056916">
        <ele>1108.52</ele>
        <time>2022-06-19T10:45:24+00:00</time>
      </trkpt>
      <trkpt lat="40.718444" lon="-4.058826">
        <ele>1104.67</ele>
        <time>2022-06-19T10:45:32+00:00</time>
      </trkpt>
      <trkpt lat="40.718487" lon="-4.060049">
        <ele>1101.79</ele>
        <time>2022-06-19T10:45:37+00:00</time>
      </trkpt>
      <trkpt lat="40.718465" lon="-4.060328">
        <ele>1100.83</ele>
        <time>2022-06-19T10:45:38+00:00</time>
      </trkpt>
      <trkpt lat="40.718401" lon="-4.060650">
        <ele>1099.87</ele>
        <time>2022-06-19T10:45:39+00:00</time>
      </trkpt>
      <trkpt lat="40.718272" lon="-4.060972">
        <ele>1098.42</ele>
        <time>2022-06-19T10:45:40+00:00</time>
      </trkpt>
      <trkpt lat="40.718122" lon="-4.061272">
        <ele>1096.98</ele>
        <time>2022-06-19T10:45:41+00:00</time>
      </trkpt>
      <trkpt lat="40.717929" lon="-4.061594">
        <ele>1095.06</ele>
        <time>2022-06-19T10:45:42+00:00</time>
      </trkpt>
      <trkpt lat="40.717693" lon="-4.061873">
        <ele>1093.62</ele>
        <time>2022-06-19T10:45:43+00:00</time>
      </trkpt>
      <trkpt lat="40.717457" lon="-4.062173">
        <ele>1092.18</ele>
        <time>2022-06-19T10:45:44+00:00</time>
      </trkpt>
      <trkpt lat="40.716041" lon="-4.063590">
        <ele>1082.08</ele>
        <time>2022-06-19T10:45:50+00:00</time>
      </trkpt>
      <trkpt lat="40.714775" lon="-4.064169">
        <ele>1074.39</ele>
        <time>2022-06-19T10:45:55+00:00</time>
      </trkpt>
      <trkpt lat="40.713273" lon="-4.064426">
        <ele>1070.55</ele>
        <time>2022-06-19T10:46:02+00:00</time>
      </trkpt>
      <trkpt lat="40.712371" lon="-4.064555">
        <ele>1071.03</ele>
        <time>2022-06-19T10:46:08+00:00</time>
      </trkpt>
      <trkpt lat="40.712286" lon="-4.064555">
        <ele>1071.03</ele>
        <time>2022-06-19T10:46:09+00:00</time>
      </trkpt>
      <trkpt lat="40.712178" lon="-4.064727">
        <ele>1071.03</ele>
        <time>2022-06-19T10:46:10+00:00</time>
      </trkpt>
      <trkpt lat="40.712049" lon="-4.064620">
        <ele>1070.55</ele>
        <time>2022-06-19T10:46:11+00:00</time>
      </trkpt>
      <trkpt lat="40.711942" lon="-4.064663">
        <ele>1070.55</ele>
        <time>2022-06-19T10:46:12+00:00</time>
      </trkpt>
      <trkpt lat="40.711813" lon="-4.064705">
        <ele>1070.55</ele>
        <time>2022-06-19T10:46:13+00:00</time>
      </trkpt>
      <trkpt lat="40.711706" lon="-4.064813">
        <ele>1070.55</ele>
        <time>2022-06-19T10:46:14+00:00</time>
      </trkpt>
      <trkpt lat="40.711577" lon="-4.064899">
        <ele>1070.55</ele>
        <time>2022-06-19T10:46:15+00:00</time>
      </trkpt>
      <trkpt lat="40.710397" lon="-4.065929">
        <ele>1066.70</ele>
        <time>2022-06-19T10:46:25+00:00</time>
      </trkpt>
      <trkpt lat="40.709067" lon="-4.067087">
        <ele>1064.78</ele>
        <time>2022-06-19T10:46:37+00:00</time>
      </trkpt>
      <trkpt lat="40.708530" lon="-4.067538">
        <ele>1065.74</ele>
        <time>2022-06-19T10:46:46+00:00</time>
      </trkpt>
      <trkpt lat="40.707994" lon="-4.067817">
        <ele>1065.74</ele>
        <time>2022-06-19T10:46:52+00:00</time>
      </trkpt>
      <trkpt lat="40.706707" lon="-4.068375">
        <ele>1062.37</ele>
        <time>2022-06-19T10:47:03+00:00</time>
      </trkpt>
      <trkpt lat="40.705483" lon="-4.068868">
        <ele>1060.45</ele>
        <time>2022-06-19T10:47:13+00:00</time>
      </trkpt>
      <trkpt lat="40.705204" lon="-4.068975">
        <ele>1059.49</ele>
        <time>2022-06-19T10:47:17+00:00</time>
      </trkpt>
      <trkpt lat="40.705076" lon="-4.069126">
        <ele>1059.49</ele>
        <time>2022-06-19T10:47:19+00:00</time>
      </trkpt>
      <trkpt lat="40.705033" lon="-4.069126">
        <ele>1059.01</ele>
        <time>2022-06-19T10:47:20+00:00</time>
      </trkpt>
      <trkpt lat="40.704883" lon="-4.069126">
        <ele>1059.01</ele>
        <time>2022-06-19T10:47:21+00:00</time>
      </trkpt>
      <trkpt lat="40.704775" lon="-4.069190">
        <ele>1059.01</ele>
        <time>2022-06-19T10:47:22+00:00</time>
      </trkpt>
      <trkpt lat="40.704668" lon="-4.069254">
        <ele>1058.53</ele>
        <time>2022-06-19T10:47:23+00:00</time>
      </trkpt>
      <trkpt lat="40.703595" lon="-4.069877">
        <ele>1051.32</ele>
        <time>2022-06-19T10:47:34+00:00</time>
      </trkpt>
      <trkpt lat="40.702587" lon="-4.070456">
        <ele>1045.07</ele>
        <time>2022-06-19T10:47:42+00:00</time>
      </trkpt>
      <trkpt lat="40.700677" lon="-4.071550">
        <ele>1034.98</ele>
        <time>2022-06-19T10:47:55+00:00</time>
      </trkpt>
      <trkpt lat="40.699454" lon="-4.072151">
        <ele>1030.65</ele>
        <time>2022-06-19T10:48:00+00:00</time>
      </trkpt>
      <trkpt lat="40.697523" lon="-4.073010">
        <ele>1022.96</ele>
        <time>2022-06-19T10:48:06+00:00</time>
      </trkpt>
      <trkpt lat="40.695913" lon="-4.073718">
        <ele>1015.75</ele>
        <time>2022-06-19T10:48:12+00:00</time>
      </trkpt>
      <trkpt lat="40.693574" lon="-4.074683">
        <ele>1007.10</ele>
        <time>2022-06-19T10:48:22+00:00</time>
      </trkpt>
      <trkpt lat="40.691815" lon="-4.075456">
        <ele>1000.85</ele>
        <time>2022-06-19T10:48:30+00:00</time>
      </trkpt>
      <trkpt lat="40.690098" lon="-4.076314">
        <ele>994.60</ele>
        <time>2022-06-19T10:48:39+00:00</time>
      </trkpt>
      <trkpt lat="40.687373" lon="-4.077580">
        <ele>986.43</ele>
        <time>2022-06-19T10:48:54+00:00</time>
      </trkpt>
      <trkpt lat="40.685850" lon="-4.078267">
        <ele>978.26</ele>
        <time>2022-06-19T10:49:03+00:00</time>
      </trkpt>
      <trkpt lat="40.684283" lon="-4.078996">
        <ele>973.45</ele>
        <time>2022-06-19T10:49:17+00:00</time>
      </trkpt>
      <trkpt lat="40.683275" lon="-4.079447">
        <ele>971.53</ele>
        <time>2022-06-19T10:49:26+00:00</time>
      </trkpt>
      <trkpt lat="40.681129" lon="-4.080412">
        <ele>972.01</ele>
        <time>2022-06-19T10:49:41+00:00</time>
      </trkpt>
      <trkpt lat="40.679520" lon="-4.081185">
        <ele>967.20</ele>
        <time>2022-06-19T10:49:53+00:00</time>
      </trkpt>
      <trkpt lat="40.677953" lon="-4.081936">
        <ele>956.63</ele>
        <time>2022-06-19T10:50:07+00:00</time>
      </trkpt>
      <trkpt lat="40.676902" lon="-4.082429">
        <ele>953.27</ele>
        <time>2022-06-19T10:50:17+00:00</time>
      </trkpt>
      <trkpt lat="40.676065" lon="-4.082837">
        <ele>951.34</ele>
        <time>2022-06-19T10:50:26+00:00</time>
      </trkpt>
      <trkpt lat="40.676001" lon="-4.082880">
        <ele>951.34</ele>
        <time>2022-06-19T10:50:27+00:00</time>
      </trkpt>
      <trkpt lat="40.675936" lon="-4.082902">
        <ele>950.86</ele>
        <time>2022-06-19T10:50:28+00:00</time>
      </trkpt>
      <trkpt lat="40.675893" lon="-4.083073">
        <ele>950.86</ele>
        <time>2022-06-19T10:50:29+00:00</time>
      </trkpt>
      <trkpt lat="40.675850" lon="-4.083159">
        <ele>950.38</ele>
        <time>2022-06-19T10:50:30+00:00</time>
      </trkpt>
      <trkpt lat="40.675765" lon="-4.083180">
        <ele>950.38</ele>
        <time>2022-06-19T10:50:31+00:00</time>
      </trkpt>
      <trkpt lat="40.675679" lon="-4.083180">
        <ele>950.38</ele>
        <time>2022-06-19T10:50:32+00:00</time>
      </trkpt>
      <trkpt lat="40.675657" lon="-4.083180">
        <ele>949.90</ele>
        <time>2022-06-19T10:50:33+00:00</time>
      </trkpt>
      <trkpt lat="40.675486" lon="-4.083159">
        <ele>949.90</ele>
        <time>2022-06-19T10:50:34+00:00</time>
      </trkpt>
      <trkpt lat="40.675400" lon="-4.083223">
        <ele>950.38</ele>
        <time>2022-06-19T10:50:35+00:00</time>
      </trkpt>
      <trkpt lat="40.675335" lon="-4.083288">
        <ele>950.38</ele>
        <time>2022-06-19T10:50:36+00:00</time>
      </trkpt>
      <trkpt lat="40.675271" lon="-4.083352">
        <ele>950.38</ele>
        <time>2022-06-19T10:50:37+00:00</time>
      </trkpt>
      <trkpt lat="40.675207" lon="-4.083417">
        <ele>950.86</ele>
        <time>2022-06-19T10:50:38+00:00</time>
      </trkpt>
      <trkpt lat="40.675142" lon="-4.083481">
        <ele>950.86</ele>
        <time>2022-06-19T10:50:39+00:00</time>
      </trkpt>
      <trkpt lat="40.674456" lon="-4.083953">
        <ele>952.30</ele>
        <time>2022-06-19T10:50:50+00:00</time>
      </trkpt>
      <trkpt lat="40.674391" lon="-4.083974">
        <ele>952.30</ele>
        <time>2022-06-19T10:50:51+00:00</time>
      </trkpt>
      <trkpt lat="40.674348" lon="-4.083996">
        <ele>952.79</ele>
        <time>2022-06-19T10:50:52+00:00</time>
      </trkpt>
      <trkpt lat="40.674348" lon="-4.084103">
        <ele>952.79</ele>
        <time>2022-06-19T10:50:53+00:00</time>
      </trkpt>
      <trkpt lat="40.674327" lon="-4.084168">
        <ele>953.27</ele>
        <time>2022-06-19T10:50:54+00:00</time>
      </trkpt>
      <trkpt lat="40.674327" lon="-4.084275">
        <ele>953.75</ele>
        <time>2022-06-19T10:50:55+00:00</time>
      </trkpt>
      <trkpt lat="40.674305" lon="-4.084339">
        <ele>953.75</ele>
        <time>2022-06-19T10:50:56+00:00</time>
      </trkpt>
      <trkpt lat="40.674305" lon="-4.084425">
        <ele>954.23</ele>
        <time>2022-06-19T10:50:57+00:00</time>
      </trkpt>
      <trkpt lat="40.674305" lon="-4.084532">
        <ele>954.71</ele>
        <time>2022-06-19T10:50:58+00:00</time>
      </trkpt>
      <trkpt lat="40.674284" lon="-4.084618">
        <ele>954.71</ele>
        <time>2022-06-19T10:50:59+00:00</time>
      </trkpt>
      <trkpt lat="40.674284" lon="-4.084704">
        <ele>955.19</ele>
        <time>2022-06-19T10:51:00+00:00</time>
      </trkpt>
      <trkpt lat="40.674649" lon="-4.085734">
        <ele>958.55</ele>
        <time>2022-06-19T10:51:13+00:00</time>
      </trkpt>
      <trkpt lat="40.674713" lon="-4.085991">
        <ele>959.03</ele>
        <time>2022-06-19T10:51:16+00:00</time>
      </trkpt>
      <trkpt lat="40.674713" lon="-4.086077">
        <ele>959.51</ele>
        <time>2022-06-19T10:51:17+00:00</time>
      </trkpt>
      <trkpt lat="40.674713" lon="-4.086142">
        <ele>959.51</ele>
        <time>2022-06-19T10:51:18+00:00</time>
      </trkpt>
      <trkpt lat="40.674713" lon="-4.086678">
        <ele>960.96</ele>
        <time>2022-06-19T10:51:28+00:00</time>
      </trkpt>
      <trkpt lat="40.674713" lon="-4.086764">
        <ele>961.44</ele>
        <time>2022-06-19T10:51:29+00:00</time>
      </trkpt>
      <trkpt lat="40.674756" lon="-4.087086">
        <ele>962.40</ele>
        <time>2022-06-19T10:51:38+00:00</time>
      </trkpt>
      <trkpt lat="40.674778" lon="-4.087150">
        <ele>962.40</ele>
        <time>2022-06-19T10:51:48+00:00</time>
      </trkpt>
      <trkpt lat="40.674778" lon="-4.087172">
        <ele>962.40</ele>
        <time>2022-06-19T10:51:49+00:00</time>
      </trkpt>
      <trkpt lat="40.674842" lon="-4.087536">
        <ele>963.36</ele>
        <time>2022-06-19T10:51:56+00:00</time>
      </trkpt>
      <trkpt lat="40.674820" lon="-4.087772">
        <ele>963.36</ele>
        <time>2022-06-19T10:52:00+00:00</time>
      </trkpt>
      <trkpt lat="40.674799" lon="-4.088073">
        <ele>963.36</ele>
        <time>2022-06-19T10:52:03+00:00</time>
      </trkpt>
      <trkpt lat="40.674799" lon="-4.088223">
        <ele>962.88</ele>
        <time>2022-06-19T10:52:04+00:00</time>
      </trkpt>
      <trkpt lat="40.674799" lon="-4.088330">
        <ele>962.88</ele>
        <time>2022-06-19T10:52:05+00:00</time>
      </trkpt>
      <trkpt lat="40.674799" lon="-4.088438">
        <ele>962.88</ele>
        <time>2022-06-19T10:52:06+00:00</time>
      </trkpt>
      <trkpt lat="40.674799" lon="-4.088545">
        <ele>962.88</ele>
        <time>2022-06-19T10:52:07+00:00</time>
      </trkpt>
      <trkpt lat="40.674799" lon="-4.088652">
        <ele>962.88</ele>
        <time>2022-06-19T10:52:08+00:00</time>
      </trkpt>
      <trkpt lat="40.674820" lon="-4.088738">
        <ele>963.36</ele>
        <time>2022-06-19T10:52:09+00:00</time>
      </trkpt>
      <trkpt lat="40.674842" lon="-4.088824">
        <ele>963.36</ele>
        <time>2022-06-19T10:52:10+00:00</time>
      </trkpt>
      <trkpt lat="40.674863" lon="-4.088888">
        <ele>963.36</ele>
        <time>2022-06-19T10:52:11+00:00</time>
      </trkpt>
      <trkpt lat="40.674885" lon="-4.088974">
        <ele>963.84</ele>
        <time>2022-06-19T10:52:12+00:00</time>
      </trkpt>
      <trkpt lat="40.674928" lon="-4.089038">
        <ele>963.84</ele>
        <time>2022-06-19T10:52:13+00:00</time>
      </trkpt>
      <trkpt lat="40.674928" lon="-4.089146">
        <ele>963.84</ele>
        <time>2022-06-19T10:52:14+00:00</time>
      </trkpt>
      <trkpt lat="40.674928" lon="-4.089253">
        <ele>963.84</ele>
        <time>2022-06-19T10:52:15+00:00</time>
      </trkpt>
      <trkpt lat="40.674928" lon="-4.089360">
        <ele>963.84</ele>
        <time>2022-06-19T10:52:16+00:00</time>
      </trkpt>
      <trkpt lat="40.674949" lon="-4.089961">
        <ele>963.36</ele>
        <time>2022-06-19T10:52:24+00:00</time>
      </trkpt>
      <trkpt lat="40.674971" lon="-4.090433">
        <ele>963.84</ele>
        <time>2022-06-19T10:52:33+00:00</time>
      </trkpt>
      <trkpt lat="40.674971" lon="-4.090476">
        <ele>963.84</ele>
        <time>2022-06-19T10:52:34+00:00</time>
      </trkpt>
      <trkpt lat="40.675035" lon="-4.090498">
        <ele>963.84</ele>
        <time>2022-06-19T10:52:35+00:00</time>
      </trkpt>
      <trkpt lat="40.675056" lon="-4.090476">
        <ele>963.84</ele>
        <time>2022-06-19T10:52:36+00:00</time>
      </trkpt>
      <trkpt lat="40.675099" lon="-4.090476">
        <ele>963.84</ele>
        <time>2022-06-19T10:52:37+00:00</time>
      </trkpt>
      <trkpt lat="40.675142" lon="-4.090476">
        <ele>963.84</ele>
        <time>2022-06-19T10:52:38+00:00</time>
      </trkpt>
      <trkpt lat="40.675636" lon="-4.090390">
        <ele>962.88</ele>
        <time>2022-06-19T10:52:47+00:00</time>
      </trkpt>
      <trkpt lat="40.675915" lon="-4.090326">
        <ele>963.36</ele>
        <time>2022-06-19T10:52:51+00:00</time>
      </trkpt>
      <trkpt lat="40.675979" lon="-4.090347">
        <ele>963.36</ele>
        <time>2022-06-19T10:52:52+00:00</time>
      </trkpt>
      <trkpt lat="40.676065" lon="-4.090369">
        <ele>962.88</ele>
        <time>2022-06-19T10:52:53+00:00</time>
      </trkpt>
      <trkpt lat="40.676129" lon="-4.090433">
        <ele>962.88</ele>
        <time>2022-06-19T10:52:54+00:00</time>
      </trkpt>
      <trkpt lat="40.676194" lon="-4.090476">
        <ele>962.88</ele>
        <time>2022-06-19T10:52:55+00:00</time>
      </trkpt>
      <trkpt lat="40.676258" lon="-4.090540">
        <ele>962.88</ele>
        <time>2022-06-19T10:52:56+00:00</time>
      </trkpt>
      <trkpt lat="40.676580" lon="-4.090841">
        <ele>963.36</ele>
        <time>2022-06-19T10:53:01+00:00</time>
      </trkpt>
      <trkpt lat="40.676730" lon="-4.091034">
        <ele>964.32</ele>
        <time>2022-06-19T10:53:04+00:00</time>
      </trkpt>
      <trkpt lat="40.677460" lon="-4.092257">
        <ele>968.65</ele>
        <time>2022-06-19T10:53:16+00:00</time>
      </trkpt>
      <trkpt lat="40.677889" lon="-4.093201">
        <ele>969.61</ele>
        <time>2022-06-19T10:53:25+00:00</time>
      </trkpt>
      <trkpt lat="40.677932" lon="-4.093287">
        <ele>969.61</ele>
        <time>2022-06-19T10:53:32+00:00</time>
      </trkpt>
      <trkpt lat="40.677996" lon="-4.093480">
        <ele>969.13</ele>
        <time>2022-06-19T10:53:54+00:00</time>
      </trkpt>
      <trkpt lat="40.678061" lon="-4.093587">
        <ele>968.65</ele>
        <time>2022-06-19T10:53:57+00:00</time>
      </trkpt>
      <trkpt lat="40.678082" lon="-4.093652">
        <ele>968.65</ele>
        <time>2022-06-19T10:53:58+00:00</time>
      </trkpt>
      <trkpt lat="40.678125" lon="-4.093716">
        <ele>969.13</ele>
        <time>2022-06-19T10:53:59+00:00</time>
      </trkpt>
    </trkseg>
  </trk>
</gpx>
